<?xml version="1.0" encoding="UTF-8" standalone="no" ?>
<gpx xmlns="http://www.topografix.com/GPX/1/1" xmlns:xsi="http://www.w3.org/2001/XMLSchema-instance" xsi:schemaLocation="http://www.topografix.com/GPX/1/1 http://www.topografix.com/GPX/1/1/gpx.xsd" version="1.1" creator="VisuGPX - https://www.visugpx.com">
  <metadata>
    <name>2018-07-05 Bike ride-Amberieux en Dombes O via Toussieux 41k</name>
    <desc><![CDATA[2018-07-05 Bike ride-Amberieux en Dombes O via Toussieux 41k]]></desc>
  </metadata>
  <wpt lat="45.92474" lon="4.73739">
    <ele>174</ele>
    <name><![CDATA[2018-07-05 10:26 (Start)]]></name>
  </wpt>
  <wpt lat="45.92461" lon="4.73706">
    <ele>174</ele>
    <name><![CDATA[2018-07-05 10:26 (End)]]></name>
  </wpt>
  <trk>
    <name><![CDATA[2018-07-05 10:26]]></name>
    <trkseg>
      <trkpt lat="45.92474" lon="4.73739">
        <ele>174</ele>
        <time>2018-07-05T08:26:59.08Z</time>
      </trkpt>
      <trkpt lat="45.92471" lon="4.73711">
        <ele>174</ele>
        <time>2018-07-05T08:27:02.13Z</time>
      </trkpt>
      <trkpt lat="45.92464" lon="4.73709">
        <ele>174</ele>
        <time>2018-07-05T08:27:09Z</time>
      </trkpt>
      <trkpt lat="45.92461" lon="4.73708">
        <ele>174</ele>
        <time>2018-07-05T08:27:10Z</time>
      </trkpt>
      <trkpt lat="45.92466" lon="4.73698">
        <ele>174</ele>
        <time>2018-07-05T08:27:25Z</time>
      </trkpt>
      <trkpt lat="45.92467" lon="4.73696">
        <ele>174</ele>
        <time>2018-07-05T08:27:26Z</time>
      </trkpt>
      <trkpt lat="45.92469" lon="4.73686">
        <ele>174</ele>
        <time>2018-07-05T08:27:30Z</time>
      </trkpt>
      <trkpt lat="45.9247" lon="4.73683">
        <ele>174</ele>
        <time>2018-07-05T08:27:31Z</time>
      </trkpt>
      <trkpt lat="45.92471" lon="4.7367">
        <ele>174</ele>
        <time>2018-07-05T08:27:34Z</time>
      </trkpt>
      <trkpt lat="45.92472" lon="4.73667">
        <ele>174</ele>
        <time>2018-07-05T08:27:35Z</time>
      </trkpt>
      <trkpt lat="45.92474" lon="4.73655">
        <ele>174</ele>
        <time>2018-07-05T08:27:38Z</time>
      </trkpt>
      <trkpt lat="45.92478" lon="4.73643">
        <ele>174</ele>
        <time>2018-07-05T08:27:39Z</time>
      </trkpt>
      <trkpt lat="45.92487" lon="4.73641">
        <ele>174</ele>
        <time>2018-07-05T08:27:41Z</time>
      </trkpt>
      <trkpt lat="45.92491" lon="4.7364">
        <ele>174</ele>
        <time>2018-07-05T08:27:42Z</time>
      </trkpt>
      <trkpt lat="45.92499" lon="4.73642">
        <ele>174</ele>
        <time>2018-07-05T08:27:44Z</time>
      </trkpt>
      <trkpt lat="45.92501" lon="4.73642">
        <ele>174</ele>
        <time>2018-07-05T08:27:45Z</time>
      </trkpt>
      <trkpt lat="45.9251" lon="4.73641">
        <ele>174</ele>
        <time>2018-07-05T08:27:47Z</time>
      </trkpt>
      <trkpt lat="45.92514" lon="4.73641">
        <ele>174</ele>
        <time>2018-07-05T08:27:48Z</time>
      </trkpt>
      <trkpt lat="45.92522" lon="4.7364">
        <ele>173</ele>
        <time>2018-07-05T08:27:50Z</time>
      </trkpt>
      <trkpt lat="45.92527" lon="4.7364">
        <ele>173</ele>
        <time>2018-07-05T08:27:51Z</time>
      </trkpt>
      <trkpt lat="45.92532" lon="4.7364">
        <ele>173</ele>
        <time>2018-07-05T08:27:52Z</time>
      </trkpt>
      <trkpt lat="45.92537" lon="4.73639">
        <ele>173</ele>
        <time>2018-07-05T08:27:53Z</time>
      </trkpt>
      <trkpt lat="45.92542" lon="4.73638">
        <ele>173</ele>
        <time>2018-07-05T08:27:54Z</time>
      </trkpt>
      <trkpt lat="45.92547" lon="4.73634">
        <ele>173</ele>
        <time>2018-07-05T08:27:55Z</time>
      </trkpt>
      <trkpt lat="45.92552" lon="4.73633">
        <ele>173</ele>
        <time>2018-07-05T08:27:56Z</time>
      </trkpt>
      <trkpt lat="45.92556" lon="4.73632">
        <ele>173</ele>
        <time>2018-07-05T08:27:57Z</time>
      </trkpt>
      <trkpt lat="45.92561" lon="4.7363">
        <ele>173</ele>
        <time>2018-07-05T08:27:58Z</time>
      </trkpt>
      <trkpt lat="45.92565" lon="4.73629">
        <ele>173</ele>
        <time>2018-07-05T08:27:59Z</time>
      </trkpt>
      <trkpt lat="45.9257" lon="4.73627">
        <ele>173</ele>
        <time>2018-07-05T08:28:00Z</time>
      </trkpt>
      <trkpt lat="45.92575" lon="4.73625">
        <ele>173</ele>
        <time>2018-07-05T08:28:01Z</time>
      </trkpt>
      <trkpt lat="45.92583" lon="4.73621">
        <ele>173</ele>
        <time>2018-07-05T08:28:02Z</time>
      </trkpt>
      <trkpt lat="45.92586" lon="4.73621">
        <ele>173</ele>
        <time>2018-07-05T08:28:03Z</time>
      </trkpt>
      <trkpt lat="45.9259" lon="4.7362">
        <ele>173</ele>
        <time>2018-07-05T08:28:04Z</time>
      </trkpt>
      <trkpt lat="45.92595" lon="4.73621">
        <ele>173</ele>
        <time>2018-07-05T08:28:05Z</time>
      </trkpt>
      <trkpt lat="45.92602" lon="4.73621">
        <ele>173</ele>
        <time>2018-07-05T08:28:06Z</time>
      </trkpt>
      <trkpt lat="45.92606" lon="4.73622">
        <ele>173</ele>
        <time>2018-07-05T08:28:07Z</time>
      </trkpt>
      <trkpt lat="45.92614" lon="4.73624">
        <ele>173</ele>
        <time>2018-07-05T08:28:08Z</time>
      </trkpt>
      <trkpt lat="45.92616" lon="4.73633">
        <ele>173</ele>
        <time>2018-07-05T08:28:09Z</time>
      </trkpt>
      <trkpt lat="45.9262" lon="4.73639">
        <ele>173</ele>
        <time>2018-07-05T08:28:10Z</time>
      </trkpt>
      <trkpt lat="45.92623" lon="4.73648">
        <ele>173</ele>
        <time>2018-07-05T08:28:11Z</time>
      </trkpt>
      <trkpt lat="45.92623" lon="4.73656">
        <ele>173</ele>
        <time>2018-07-05T08:28:12Z</time>
      </trkpt>
      <trkpt lat="45.92627" lon="4.73662">
        <ele>173</ele>
        <time>2018-07-05T08:28:13Z</time>
      </trkpt>
      <trkpt lat="45.9263" lon="4.73669">
        <ele>173</ele>
        <time>2018-07-05T08:28:14Z</time>
      </trkpt>
      <trkpt lat="45.92633" lon="4.73675">
        <ele>173</ele>
        <time>2018-07-05T08:28:15Z</time>
      </trkpt>
      <trkpt lat="45.92635" lon="4.7368">
        <ele>173</ele>
        <time>2018-07-05T08:28:16Z</time>
      </trkpt>
      <trkpt lat="45.92641" lon="4.73685">
        <ele>173</ele>
        <time>2018-07-05T08:28:17Z</time>
      </trkpt>
      <trkpt lat="45.92644" lon="4.73691">
        <ele>173</ele>
        <time>2018-07-05T08:28:18Z</time>
      </trkpt>
      <trkpt lat="45.9265" lon="4.73695">
        <ele>173</ele>
        <time>2018-07-05T08:28:19Z</time>
      </trkpt>
      <trkpt lat="45.92655" lon="4.73699">
        <ele>173</ele>
        <time>2018-07-05T08:28:20Z</time>
      </trkpt>
      <trkpt lat="45.9266" lon="4.73703">
        <ele>173</ele>
        <time>2018-07-05T08:28:21Z</time>
      </trkpt>
      <trkpt lat="45.92666" lon="4.73706">
        <ele>173</ele>
        <time>2018-07-05T08:28:22Z</time>
      </trkpt>
      <trkpt lat="45.92669" lon="4.73707">
        <ele>174</ele>
        <time>2018-07-05T08:28:23Z</time>
      </trkpt>
      <trkpt lat="45.92674" lon="4.73709">
        <ele>174</ele>
        <time>2018-07-05T08:28:24Z</time>
      </trkpt>
      <trkpt lat="45.92679" lon="4.7371">
        <ele>173</ele>
        <time>2018-07-05T08:28:25Z</time>
      </trkpt>
      <trkpt lat="45.92685" lon="4.73716">
        <ele>173</ele>
        <time>2018-07-05T08:28:26Z</time>
      </trkpt>
      <trkpt lat="45.92692" lon="4.73715">
        <ele>173</ele>
        <time>2018-07-05T08:28:27Z</time>
      </trkpt>
      <trkpt lat="45.92696" lon="4.73717">
        <ele>173</ele>
        <time>2018-07-05T08:28:28Z</time>
      </trkpt>
      <trkpt lat="45.92704" lon="4.73718">
        <ele>173</ele>
        <time>2018-07-05T08:28:29Z</time>
      </trkpt>
      <trkpt lat="45.92709" lon="4.73718">
        <ele>173</ele>
        <time>2018-07-05T08:28:30Z</time>
      </trkpt>
      <trkpt lat="45.92714" lon="4.73719">
        <ele>173</ele>
        <time>2018-07-05T08:28:31Z</time>
      </trkpt>
      <trkpt lat="45.92719" lon="4.7372">
        <ele>173</ele>
        <time>2018-07-05T08:28:32Z</time>
      </trkpt>
      <trkpt lat="45.92724" lon="4.7372">
        <ele>173</ele>
        <time>2018-07-05T08:28:33Z</time>
      </trkpt>
      <trkpt lat="45.92729" lon="4.73722">
        <ele>173</ele>
        <time>2018-07-05T08:28:34Z</time>
      </trkpt>
      <trkpt lat="45.92734" lon="4.73724">
        <ele>173</ele>
        <time>2018-07-05T08:28:35Z</time>
      </trkpt>
      <trkpt lat="45.92741" lon="4.73723">
        <ele>173</ele>
        <time>2018-07-05T08:28:36Z</time>
      </trkpt>
      <trkpt lat="45.92748" lon="4.73722">
        <ele>173</ele>
        <time>2018-07-05T08:28:37Z</time>
      </trkpt>
      <trkpt lat="45.92754" lon="4.73721">
        <ele>172</ele>
        <time>2018-07-05T08:28:38Z</time>
      </trkpt>
      <trkpt lat="45.9276" lon="4.73722">
        <ele>172</ele>
        <time>2018-07-05T08:28:39Z</time>
      </trkpt>
      <trkpt lat="45.92762" lon="4.73727">
        <ele>172</ele>
        <time>2018-07-05T08:28:40Z</time>
      </trkpt>
      <trkpt lat="45.92765" lon="4.73735">
        <ele>172</ele>
        <time>2018-07-05T08:28:41Z</time>
      </trkpt>
      <trkpt lat="45.92771" lon="4.7374">
        <ele>172</ele>
        <time>2018-07-05T08:28:42Z</time>
      </trkpt>
      <trkpt lat="45.92773" lon="4.73744">
        <ele>172</ele>
        <time>2018-07-05T08:28:43Z</time>
      </trkpt>
      <trkpt lat="45.9278" lon="4.73747">
        <ele>172</ele>
        <time>2018-07-05T08:28:46Z</time>
      </trkpt>
      <trkpt lat="45.92781" lon="4.73755">
        <ele>173</ele>
        <time>2018-07-05T08:28:47Z</time>
      </trkpt>
      <trkpt lat="45.92788" lon="4.73761">
        <ele>173</ele>
        <time>2018-07-05T08:28:49Z</time>
      </trkpt>
      <trkpt lat="45.92792" lon="4.73762">
        <ele>173</ele>
        <time>2018-07-05T08:28:50Z</time>
      </trkpt>
      <trkpt lat="45.92797" lon="4.73764">
        <ele>173</ele>
        <time>2018-07-05T08:28:51Z</time>
      </trkpt>
      <trkpt lat="45.92802" lon="4.73769">
        <ele>173</ele>
        <time>2018-07-05T08:28:52Z</time>
      </trkpt>
      <trkpt lat="45.92808" lon="4.73773">
        <ele>173</ele>
        <time>2018-07-05T08:28:53Z</time>
      </trkpt>
      <trkpt lat="45.92812" lon="4.73775">
        <ele>173</ele>
        <time>2018-07-05T08:28:54Z</time>
      </trkpt>
      <trkpt lat="45.92817" lon="4.73778">
        <ele>173</ele>
        <time>2018-07-05T08:28:55Z</time>
      </trkpt>
      <trkpt lat="45.92822" lon="4.73782">
        <ele>173</ele>
        <time>2018-07-05T08:28:56Z</time>
      </trkpt>
      <trkpt lat="45.92826" lon="4.73786">
        <ele>173</ele>
        <time>2018-07-05T08:28:57Z</time>
      </trkpt>
      <trkpt lat="45.92832" lon="4.73788">
        <ele>173</ele>
        <time>2018-07-05T08:28:58Z</time>
      </trkpt>
      <trkpt lat="45.92837" lon="4.73791">
        <ele>173</ele>
        <time>2018-07-05T08:28:59Z</time>
      </trkpt>
      <trkpt lat="45.92844" lon="4.73793">
        <ele>173</ele>
        <time>2018-07-05T08:29:00Z</time>
      </trkpt>
      <trkpt lat="45.92848" lon="4.73799">
        <ele>173</ele>
        <time>2018-07-05T08:29:01Z</time>
      </trkpt>
      <trkpt lat="45.92852" lon="4.73801">
        <ele>173</ele>
        <time>2018-07-05T08:29:02Z</time>
      </trkpt>
      <trkpt lat="45.92856" lon="4.73805">
        <ele>173</ele>
        <time>2018-07-05T08:29:03Z</time>
      </trkpt>
      <trkpt lat="45.92859" lon="4.73816">
        <ele>173</ele>
        <time>2018-07-05T08:29:04Z</time>
      </trkpt>
      <trkpt lat="45.92861" lon="4.73823">
        <ele>173</ele>
        <time>2018-07-05T08:29:05Z</time>
      </trkpt>
      <trkpt lat="45.92862" lon="4.73833">
        <ele>173</ele>
        <time>2018-07-05T08:29:06Z</time>
      </trkpt>
      <trkpt lat="45.92865" lon="4.73841">
        <ele>173</ele>
        <time>2018-07-05T08:29:07Z</time>
      </trkpt>
      <trkpt lat="45.92867" lon="4.7385">
        <ele>173</ele>
        <time>2018-07-05T08:29:08Z</time>
      </trkpt>
      <trkpt lat="45.92869" lon="4.73858">
        <ele>173</ele>
        <time>2018-07-05T08:29:09Z</time>
      </trkpt>
      <trkpt lat="45.92872" lon="4.73867">
        <ele>173</ele>
        <time>2018-07-05T08:29:10Z</time>
      </trkpt>
      <trkpt lat="45.92874" lon="4.73875">
        <ele>173</ele>
        <time>2018-07-05T08:29:11Z</time>
      </trkpt>
      <trkpt lat="45.92877" lon="4.73885">
        <ele>173</ele>
        <time>2018-07-05T08:29:12Z</time>
      </trkpt>
      <trkpt lat="45.92878" lon="4.73892">
        <ele>173</ele>
        <time>2018-07-05T08:29:13Z</time>
      </trkpt>
      <trkpt lat="45.92879" lon="4.73899">
        <ele>173</ele>
        <time>2018-07-05T08:29:14Z</time>
      </trkpt>
      <trkpt lat="45.92879" lon="4.73907">
        <ele>173</ele>
        <time>2018-07-05T08:29:15Z</time>
      </trkpt>
      <trkpt lat="45.9288" lon="4.73918">
        <ele>172</ele>
        <time>2018-07-05T08:29:16Z</time>
      </trkpt>
      <trkpt lat="45.92881" lon="4.73927">
        <ele>172</ele>
        <time>2018-07-05T08:29:17Z</time>
      </trkpt>
      <trkpt lat="45.92883" lon="4.73936">
        <ele>172</ele>
        <time>2018-07-05T08:29:18Z</time>
      </trkpt>
      <trkpt lat="45.92883" lon="4.73944">
        <ele>172</ele>
        <time>2018-07-05T08:29:19Z</time>
      </trkpt>
      <trkpt lat="45.92883" lon="4.73951">
        <ele>172</ele>
        <time>2018-07-05T08:29:20Z</time>
      </trkpt>
      <trkpt lat="45.92882" lon="4.73957">
        <ele>172</ele>
        <time>2018-07-05T08:29:21Z</time>
      </trkpt>
      <trkpt lat="45.92882" lon="4.73965">
        <ele>172</ele>
        <time>2018-07-05T08:29:22Z</time>
      </trkpt>
      <trkpt lat="45.92881" lon="4.73972">
        <ele>172</ele>
        <time>2018-07-05T08:29:23Z</time>
      </trkpt>
      <trkpt lat="45.9288" lon="4.7398">
        <ele>172</ele>
        <time>2018-07-05T08:29:24Z</time>
      </trkpt>
      <trkpt lat="45.9288" lon="4.73989">
        <ele>172</ele>
        <time>2018-07-05T08:29:25Z</time>
      </trkpt>
      <trkpt lat="45.92879" lon="4.73996">
        <ele>172</ele>
        <time>2018-07-05T08:29:26Z</time>
      </trkpt>
      <trkpt lat="45.92877" lon="4.74002">
        <ele>172</ele>
        <time>2018-07-05T08:29:27Z</time>
      </trkpt>
      <trkpt lat="45.92875" lon="4.74009">
        <ele>172</ele>
        <time>2018-07-05T08:29:28Z</time>
      </trkpt>
      <trkpt lat="45.92872" lon="4.74021">
        <ele>172</ele>
        <time>2018-07-05T08:29:30Z</time>
      </trkpt>
      <trkpt lat="45.9287" lon="4.74031">
        <ele>172</ele>
        <time>2018-07-05T08:29:31Z</time>
      </trkpt>
      <trkpt lat="45.92867" lon="4.74039">
        <ele>172</ele>
        <time>2018-07-05T08:29:32Z</time>
      </trkpt>
      <trkpt lat="45.92865" lon="4.74045">
        <ele>172</ele>
        <time>2018-07-05T08:29:33Z</time>
      </trkpt>
      <trkpt lat="45.9286" lon="4.74053">
        <ele>172</ele>
        <time>2018-07-05T08:29:34Z</time>
      </trkpt>
      <trkpt lat="45.92855" lon="4.74057">
        <ele>172</ele>
        <time>2018-07-05T08:29:35Z</time>
      </trkpt>
      <trkpt lat="45.9285" lon="4.74062">
        <ele>172</ele>
        <time>2018-07-05T08:29:36Z</time>
      </trkpt>
      <trkpt lat="45.92846" lon="4.74069">
        <ele>172</ele>
        <time>2018-07-05T08:29:37Z</time>
      </trkpt>
      <trkpt lat="45.92841" lon="4.74075">
        <ele>172</ele>
        <time>2018-07-05T08:29:38Z</time>
      </trkpt>
      <trkpt lat="45.92836" lon="4.74081">
        <ele>171</ele>
        <time>2018-07-05T08:29:39Z</time>
      </trkpt>
      <trkpt lat="45.92831" lon="4.74087">
        <ele>171</ele>
        <time>2018-07-05T08:29:40Z</time>
      </trkpt>
      <trkpt lat="45.92826" lon="4.74093">
        <ele>171</ele>
        <time>2018-07-05T08:29:41Z</time>
      </trkpt>
      <trkpt lat="45.92822" lon="4.741">
        <ele>171</ele>
        <time>2018-07-05T08:29:42Z</time>
      </trkpt>
      <trkpt lat="45.92816" lon="4.74106">
        <ele>172</ele>
        <time>2018-07-05T08:29:43Z</time>
      </trkpt>
      <trkpt lat="45.92811" lon="4.74112">
        <ele>172</ele>
        <time>2018-07-05T08:29:44Z</time>
      </trkpt>
      <trkpt lat="45.92806" lon="4.74118">
        <ele>172</ele>
        <time>2018-07-05T08:29:45Z</time>
      </trkpt>
      <trkpt lat="45.928" lon="4.74124">
        <ele>172</ele>
        <time>2018-07-05T08:29:46Z</time>
      </trkpt>
      <trkpt lat="45.92796" lon="4.7413">
        <ele>172</ele>
        <time>2018-07-05T08:29:47Z</time>
      </trkpt>
      <trkpt lat="45.9279" lon="4.74135">
        <ele>172</ele>
        <time>2018-07-05T08:29:48Z</time>
      </trkpt>
      <trkpt lat="45.92785" lon="4.7414">
        <ele>172</ele>
        <time>2018-07-05T08:29:49Z</time>
      </trkpt>
      <trkpt lat="45.9278" lon="4.74145">
        <ele>172</ele>
        <time>2018-07-05T08:29:50Z</time>
      </trkpt>
      <trkpt lat="45.92775" lon="4.74149">
        <ele>172</ele>
        <time>2018-07-05T08:29:51Z</time>
      </trkpt>
      <trkpt lat="45.9277" lon="4.74155">
        <ele>172</ele>
        <time>2018-07-05T08:29:52Z</time>
      </trkpt>
      <trkpt lat="45.92765" lon="4.7416">
        <ele>172</ele>
        <time>2018-07-05T08:29:53Z</time>
      </trkpt>
      <trkpt lat="45.92759" lon="4.74166">
        <ele>172</ele>
        <time>2018-07-05T08:29:54Z</time>
      </trkpt>
      <trkpt lat="45.92754" lon="4.74172">
        <ele>172</ele>
        <time>2018-07-05T08:29:55Z</time>
      </trkpt>
      <trkpt lat="45.92749" lon="4.74177">
        <ele>172</ele>
        <time>2018-07-05T08:29:56Z</time>
      </trkpt>
      <trkpt lat="45.92744" lon="4.74183">
        <ele>172</ele>
        <time>2018-07-05T08:29:57Z</time>
      </trkpt>
      <trkpt lat="45.9274" lon="4.74189">
        <ele>172</ele>
        <time>2018-07-05T08:29:58Z</time>
      </trkpt>
      <trkpt lat="45.92735" lon="4.74195">
        <ele>171</ele>
        <time>2018-07-05T08:29:59Z</time>
      </trkpt>
      <trkpt lat="45.92731" lon="4.74201">
        <ele>171</ele>
        <time>2018-07-05T08:30:00Z</time>
      </trkpt>
      <trkpt lat="45.92727" lon="4.74209">
        <ele>171</ele>
        <time>2018-07-05T08:30:01Z</time>
      </trkpt>
      <trkpt lat="45.92722" lon="4.74218">
        <ele>171</ele>
        <time>2018-07-05T08:30:02Z</time>
      </trkpt>
      <trkpt lat="45.92717" lon="4.74222">
        <ele>171</ele>
        <time>2018-07-05T08:30:03Z</time>
      </trkpt>
      <trkpt lat="45.92712" lon="4.74229">
        <ele>171</ele>
        <time>2018-07-05T08:30:04Z</time>
      </trkpt>
      <trkpt lat="45.92708" lon="4.74235">
        <ele>171</ele>
        <time>2018-07-05T08:30:05Z</time>
      </trkpt>
      <trkpt lat="45.92704" lon="4.7424">
        <ele>171</ele>
        <time>2018-07-05T08:30:06Z</time>
      </trkpt>
      <trkpt lat="45.92701" lon="4.74248">
        <ele>171</ele>
        <time>2018-07-05T08:30:07Z</time>
      </trkpt>
      <trkpt lat="45.92698" lon="4.74253">
        <ele>171</ele>
        <time>2018-07-05T08:30:08Z</time>
      </trkpt>
      <trkpt lat="45.92695" lon="4.7426">
        <ele>171</ele>
        <time>2018-07-05T08:30:09Z</time>
      </trkpt>
      <trkpt lat="45.92691" lon="4.74265">
        <ele>171</ele>
        <time>2018-07-05T08:30:10Z</time>
      </trkpt>
      <trkpt lat="45.92688" lon="4.74272">
        <ele>171</ele>
        <time>2018-07-05T08:30:11Z</time>
      </trkpt>
      <trkpt lat="45.92684" lon="4.74277">
        <ele>171</ele>
        <time>2018-07-05T08:30:12Z</time>
      </trkpt>
      <trkpt lat="45.92681" lon="4.74284">
        <ele>171</ele>
        <time>2018-07-05T08:30:13Z</time>
      </trkpt>
      <trkpt lat="45.92678" lon="4.7429">
        <ele>171</ele>
        <time>2018-07-05T08:30:14Z</time>
      </trkpt>
      <trkpt lat="45.92675" lon="4.74296">
        <ele>171</ele>
        <time>2018-07-05T08:30:15Z</time>
      </trkpt>
      <trkpt lat="45.92672" lon="4.74303">
        <ele>171</ele>
        <time>2018-07-05T08:30:16Z</time>
      </trkpt>
      <trkpt lat="45.92668" lon="4.74308">
        <ele>171</ele>
        <time>2018-07-05T08:30:17Z</time>
      </trkpt>
      <trkpt lat="45.92665" lon="4.74314">
        <ele>171</ele>
        <time>2018-07-05T08:30:18Z</time>
      </trkpt>
      <trkpt lat="45.92662" lon="4.74319">
        <ele>171</ele>
        <time>2018-07-05T08:30:19Z</time>
      </trkpt>
      <trkpt lat="45.92658" lon="4.74324">
        <ele>171</ele>
        <time>2018-07-05T08:30:20Z</time>
      </trkpt>
      <trkpt lat="45.92656" lon="4.74329">
        <ele>171</ele>
        <time>2018-07-05T08:30:21Z</time>
      </trkpt>
      <trkpt lat="45.92652" lon="4.74336">
        <ele>171</ele>
        <time>2018-07-05T08:30:22Z</time>
      </trkpt>
      <trkpt lat="45.92648" lon="4.74342">
        <ele>171</ele>
        <time>2018-07-05T08:30:23Z</time>
      </trkpt>
      <trkpt lat="45.92645" lon="4.74348">
        <ele>171</ele>
        <time>2018-07-05T08:30:24Z</time>
      </trkpt>
      <trkpt lat="45.92642" lon="4.74353">
        <ele>171</ele>
        <time>2018-07-05T08:30:25Z</time>
      </trkpt>
      <trkpt lat="45.92639" lon="4.74359">
        <ele>171</ele>
        <time>2018-07-05T08:30:26Z</time>
      </trkpt>
      <trkpt lat="45.92636" lon="4.74364">
        <ele>171</ele>
        <time>2018-07-05T08:30:27Z</time>
      </trkpt>
      <trkpt lat="45.92632" lon="4.7437">
        <ele>171</ele>
        <time>2018-07-05T08:30:28Z</time>
      </trkpt>
      <trkpt lat="45.9263" lon="4.74376">
        <ele>170</ele>
        <time>2018-07-05T08:30:29Z</time>
      </trkpt>
      <trkpt lat="45.92626" lon="4.74381">
        <ele>170</ele>
        <time>2018-07-05T08:30:30Z</time>
      </trkpt>
      <trkpt lat="45.92623" lon="4.74388">
        <ele>170</ele>
        <time>2018-07-05T08:30:31Z</time>
      </trkpt>
      <trkpt lat="45.92617" lon="4.74394">
        <ele>170</ele>
        <time>2018-07-05T08:30:32Z</time>
      </trkpt>
      <trkpt lat="45.92613" lon="4.74403">
        <ele>170</ele>
        <time>2018-07-05T08:30:33Z</time>
      </trkpt>
      <trkpt lat="45.9261" lon="4.7441">
        <ele>170</ele>
        <time>2018-07-05T08:30:34Z</time>
      </trkpt>
      <trkpt lat="45.92605" lon="4.74417">
        <ele>170</ele>
        <time>2018-07-05T08:30:35Z</time>
      </trkpt>
      <trkpt lat="45.92602" lon="4.74425">
        <ele>170</ele>
        <time>2018-07-05T08:30:36Z</time>
      </trkpt>
      <trkpt lat="45.92598" lon="4.74431">
        <ele>170</ele>
        <time>2018-07-05T08:30:37Z</time>
      </trkpt>
      <trkpt lat="45.92594" lon="4.74437">
        <ele>170</ele>
        <time>2018-07-05T08:30:38Z</time>
      </trkpt>
      <trkpt lat="45.92591" lon="4.74445">
        <ele>170</ele>
        <time>2018-07-05T08:30:39Z</time>
      </trkpt>
      <trkpt lat="45.92587" lon="4.74452">
        <ele>170</ele>
        <time>2018-07-05T08:30:40Z</time>
      </trkpt>
      <trkpt lat="45.92583" lon="4.74459">
        <ele>170</ele>
        <time>2018-07-05T08:30:41Z</time>
      </trkpt>
      <trkpt lat="45.92579" lon="4.74467">
        <ele>170</ele>
        <time>2018-07-05T08:30:42Z</time>
      </trkpt>
      <trkpt lat="45.92574" lon="4.74474">
        <ele>170</ele>
        <time>2018-07-05T08:30:43Z</time>
      </trkpt>
      <trkpt lat="45.9257" lon="4.74481">
        <ele>170</ele>
        <time>2018-07-05T08:30:44Z</time>
      </trkpt>
      <trkpt lat="45.92566" lon="4.74489">
        <ele>170</ele>
        <time>2018-07-05T08:30:45Z</time>
      </trkpt>
      <trkpt lat="45.92562" lon="4.74496">
        <ele>170</ele>
        <time>2018-07-05T08:30:46Z</time>
      </trkpt>
      <trkpt lat="45.92559" lon="4.74504">
        <ele>170</ele>
        <time>2018-07-05T08:30:47Z</time>
      </trkpt>
      <trkpt lat="45.92554" lon="4.74512">
        <ele>170</ele>
        <time>2018-07-05T08:30:48Z</time>
      </trkpt>
      <trkpt lat="45.9255" lon="4.7452">
        <ele>170</ele>
        <time>2018-07-05T08:30:49Z</time>
      </trkpt>
      <trkpt lat="45.92546" lon="4.74527">
        <ele>170</ele>
        <time>2018-07-05T08:30:50Z</time>
      </trkpt>
      <trkpt lat="45.92542" lon="4.74535">
        <ele>170</ele>
        <time>2018-07-05T08:30:51Z</time>
      </trkpt>
      <trkpt lat="45.92538" lon="4.74543">
        <ele>171</ele>
        <time>2018-07-05T08:30:52Z</time>
      </trkpt>
      <trkpt lat="45.92533" lon="4.74549">
        <ele>171</ele>
        <time>2018-07-05T08:30:53Z</time>
      </trkpt>
      <trkpt lat="45.92529" lon="4.74557">
        <ele>171</ele>
        <time>2018-07-05T08:30:54Z</time>
      </trkpt>
      <trkpt lat="45.92523" lon="4.74564">
        <ele>171</ele>
        <time>2018-07-05T08:30:55Z</time>
      </trkpt>
      <trkpt lat="45.92519" lon="4.7457">
        <ele>171</ele>
        <time>2018-07-05T08:30:56Z</time>
      </trkpt>
      <trkpt lat="45.92513" lon="4.74577">
        <ele>171</ele>
        <time>2018-07-05T08:30:57Z</time>
      </trkpt>
      <trkpt lat="45.92508" lon="4.74582">
        <ele>171</ele>
        <time>2018-07-05T08:30:58Z</time>
      </trkpt>
      <trkpt lat="45.92503" lon="4.74588">
        <ele>171</ele>
        <time>2018-07-05T08:30:59Z</time>
      </trkpt>
      <trkpt lat="45.92497" lon="4.74594">
        <ele>171</ele>
        <time>2018-07-05T08:31:00Z</time>
      </trkpt>
      <trkpt lat="45.92492" lon="4.746">
        <ele>171</ele>
        <time>2018-07-05T08:31:01Z</time>
      </trkpt>
      <trkpt lat="45.92487" lon="4.74607">
        <ele>171</ele>
        <time>2018-07-05T08:31:02Z</time>
      </trkpt>
      <trkpt lat="45.92482" lon="4.74612">
        <ele>171</ele>
        <time>2018-07-05T08:31:03Z</time>
      </trkpt>
      <trkpt lat="45.92477" lon="4.74619">
        <ele>171</ele>
        <time>2018-07-05T08:31:04Z</time>
      </trkpt>
      <trkpt lat="45.92473" lon="4.74626">
        <ele>171</ele>
        <time>2018-07-05T08:31:05Z</time>
      </trkpt>
      <trkpt lat="45.92469" lon="4.74632">
        <ele>171</ele>
        <time>2018-07-05T08:31:06Z</time>
      </trkpt>
      <trkpt lat="45.92465" lon="4.74638">
        <ele>171</ele>
        <time>2018-07-05T08:31:07Z</time>
      </trkpt>
      <trkpt lat="45.92461" lon="4.74645">
        <ele>171</ele>
        <time>2018-07-05T08:31:08Z</time>
      </trkpt>
      <trkpt lat="45.92456" lon="4.74651">
        <ele>171</ele>
        <time>2018-07-05T08:31:09Z</time>
      </trkpt>
      <trkpt lat="45.92453" lon="4.74657">
        <ele>171</ele>
        <time>2018-07-05T08:31:10Z</time>
      </trkpt>
      <trkpt lat="45.92448" lon="4.74665">
        <ele>171</ele>
        <time>2018-07-05T08:31:11Z</time>
      </trkpt>
      <trkpt lat="45.92444" lon="4.74672">
        <ele>171</ele>
        <time>2018-07-05T08:31:12Z</time>
      </trkpt>
      <trkpt lat="45.92442" lon="4.74678">
        <ele>171</ele>
        <time>2018-07-05T08:31:13Z</time>
      </trkpt>
      <trkpt lat="45.92438" lon="4.74687">
        <ele>171</ele>
        <time>2018-07-05T08:31:14Z</time>
      </trkpt>
      <trkpt lat="45.92437" lon="4.74697">
        <ele>171</ele>
        <time>2018-07-05T08:31:15Z</time>
      </trkpt>
      <trkpt lat="45.92434" lon="4.74705">
        <ele>171</ele>
        <time>2018-07-05T08:31:16Z</time>
      </trkpt>
      <trkpt lat="45.92431" lon="4.74713">
        <ele>171</ele>
        <time>2018-07-05T08:31:17Z</time>
      </trkpt>
      <trkpt lat="45.92427" lon="4.74722">
        <ele>171</ele>
        <time>2018-07-05T08:31:18Z</time>
      </trkpt>
      <trkpt lat="45.92425" lon="4.74733">
        <ele>171</ele>
        <time>2018-07-05T08:31:19Z</time>
      </trkpt>
      <trkpt lat="45.92423" lon="4.74744">
        <ele>172</ele>
        <time>2018-07-05T08:31:20Z</time>
      </trkpt>
      <trkpt lat="45.9242" lon="4.74751">
        <ele>172</ele>
        <time>2018-07-05T08:31:21Z</time>
      </trkpt>
      <trkpt lat="45.92418" lon="4.7476">
        <ele>171</ele>
        <time>2018-07-05T08:31:22Z</time>
      </trkpt>
      <trkpt lat="45.92415" lon="4.74768">
        <ele>172</ele>
        <time>2018-07-05T08:31:23Z</time>
      </trkpt>
      <trkpt lat="45.92413" lon="4.74775">
        <ele>171</ele>
        <time>2018-07-05T08:31:24Z</time>
      </trkpt>
      <trkpt lat="45.9241" lon="4.74784">
        <ele>171</ele>
        <time>2018-07-05T08:31:25Z</time>
      </trkpt>
      <trkpt lat="45.92408" lon="4.74793">
        <ele>171</ele>
        <time>2018-07-05T08:31:26Z</time>
      </trkpt>
      <trkpt lat="45.92406" lon="4.74802">
        <ele>171</ele>
        <time>2018-07-05T08:31:27Z</time>
      </trkpt>
      <trkpt lat="45.92404" lon="4.74811">
        <ele>171</ele>
        <time>2018-07-05T08:31:28Z</time>
      </trkpt>
      <trkpt lat="45.92402" lon="4.74821">
        <ele>171</ele>
        <time>2018-07-05T08:31:29Z</time>
      </trkpt>
      <trkpt lat="45.92398" lon="4.74829">
        <ele>171</ele>
        <time>2018-07-05T08:31:30Z</time>
      </trkpt>
      <trkpt lat="45.92396" lon="4.74838">
        <ele>171</ele>
        <time>2018-07-05T08:31:31Z</time>
      </trkpt>
      <trkpt lat="45.92396" lon="4.7485">
        <ele>171</ele>
        <time>2018-07-05T08:31:32Z</time>
      </trkpt>
      <trkpt lat="45.92393" lon="4.74859">
        <ele>171</ele>
        <time>2018-07-05T08:31:33Z</time>
      </trkpt>
      <trkpt lat="45.9239" lon="4.74868">
        <ele>171</ele>
        <time>2018-07-05T08:31:34Z</time>
      </trkpt>
      <trkpt lat="45.92387" lon="4.74877">
        <ele>171</ele>
        <time>2018-07-05T08:31:35Z</time>
      </trkpt>
      <trkpt lat="45.92385" lon="4.74887">
        <ele>171</ele>
        <time>2018-07-05T08:31:36Z</time>
      </trkpt>
      <trkpt lat="45.92382" lon="4.74896">
        <ele>171</ele>
        <time>2018-07-05T08:31:37Z</time>
      </trkpt>
      <trkpt lat="45.92379" lon="4.74904">
        <ele>171</ele>
        <time>2018-07-05T08:31:38Z</time>
      </trkpt>
      <trkpt lat="45.92376" lon="4.74912">
        <ele>171</ele>
        <time>2018-07-05T08:31:39Z</time>
      </trkpt>
      <trkpt lat="45.92373" lon="4.7492">
        <ele>170</ele>
        <time>2018-07-05T08:31:40Z</time>
      </trkpt>
      <trkpt lat="45.92369" lon="4.74928">
        <ele>170</ele>
        <time>2018-07-05T08:31:41Z</time>
      </trkpt>
      <trkpt lat="45.92366" lon="4.7494">
        <ele>170</ele>
        <time>2018-07-05T08:31:42Z</time>
      </trkpt>
      <trkpt lat="45.92363" lon="4.74946">
        <ele>170</ele>
        <time>2018-07-05T08:31:43Z</time>
      </trkpt>
      <trkpt lat="45.9236" lon="4.74952">
        <ele>170</ele>
        <time>2018-07-05T08:31:44Z</time>
      </trkpt>
      <trkpt lat="45.92357" lon="4.74958">
        <ele>170</ele>
        <time>2018-07-05T08:31:45Z</time>
      </trkpt>
      <trkpt lat="45.92354" lon="4.74965">
        <ele>170</ele>
        <time>2018-07-05T08:31:46Z</time>
      </trkpt>
      <trkpt lat="45.92351" lon="4.74971">
        <ele>170</ele>
        <time>2018-07-05T08:31:47Z</time>
      </trkpt>
      <trkpt lat="45.92348" lon="4.74978">
        <ele>170</ele>
        <time>2018-07-05T08:31:48Z</time>
      </trkpt>
      <trkpt lat="45.92345" lon="4.74985">
        <ele>170</ele>
        <time>2018-07-05T08:31:49Z</time>
      </trkpt>
      <trkpt lat="45.92342" lon="4.74993">
        <ele>170</ele>
        <time>2018-07-05T08:31:50Z</time>
      </trkpt>
      <trkpt lat="45.9234" lon="4.75">
        <ele>170</ele>
        <time>2018-07-05T08:31:51Z</time>
      </trkpt>
      <trkpt lat="45.92337" lon="4.75006">
        <ele>170</ele>
        <time>2018-07-05T08:31:52Z</time>
      </trkpt>
      <trkpt lat="45.92334" lon="4.75014">
        <ele>170</ele>
        <time>2018-07-05T08:31:53Z</time>
      </trkpt>
      <trkpt lat="45.92331" lon="4.75022">
        <ele>171</ele>
        <time>2018-07-05T08:31:54Z</time>
      </trkpt>
      <trkpt lat="45.92328" lon="4.75031">
        <ele>171</ele>
        <time>2018-07-05T08:31:55Z</time>
      </trkpt>
      <trkpt lat="45.92324" lon="4.75038">
        <ele>171</ele>
        <time>2018-07-05T08:31:56Z</time>
      </trkpt>
      <trkpt lat="45.9232" lon="4.75044">
        <ele>172</ele>
        <time>2018-07-05T08:31:57Z</time>
      </trkpt>
      <trkpt lat="45.92316" lon="4.75051">
        <ele>172</ele>
        <time>2018-07-05T08:31:58Z</time>
      </trkpt>
      <trkpt lat="45.92312" lon="4.75057">
        <ele>172</ele>
        <time>2018-07-05T08:31:59Z</time>
      </trkpt>
      <trkpt lat="45.92308" lon="4.75064">
        <ele>172</ele>
        <time>2018-07-05T08:32:00Z</time>
      </trkpt>
      <trkpt lat="45.92303" lon="4.75071">
        <ele>172</ele>
        <time>2018-07-05T08:32:01Z</time>
      </trkpt>
      <trkpt lat="45.92298" lon="4.75075">
        <ele>172</ele>
        <time>2018-07-05T08:32:02Z</time>
      </trkpt>
      <trkpt lat="45.92293" lon="4.7508">
        <ele>172</ele>
        <time>2018-07-05T08:32:03Z</time>
      </trkpt>
      <trkpt lat="45.92287" lon="4.75086">
        <ele>173</ele>
        <time>2018-07-05T08:32:04Z</time>
      </trkpt>
      <trkpt lat="45.92283" lon="4.75091">
        <ele>173</ele>
        <time>2018-07-05T08:32:05Z</time>
      </trkpt>
      <trkpt lat="45.92277" lon="4.75095">
        <ele>173</ele>
        <time>2018-07-05T08:32:06Z</time>
      </trkpt>
      <trkpt lat="45.92272" lon="4.751">
        <ele>173</ele>
        <time>2018-07-05T08:32:07Z</time>
      </trkpt>
      <trkpt lat="45.92267" lon="4.75105">
        <ele>174</ele>
        <time>2018-07-05T08:32:08Z</time>
      </trkpt>
      <trkpt lat="45.92263" lon="4.7511">
        <ele>174</ele>
        <time>2018-07-05T08:32:09Z</time>
      </trkpt>
      <trkpt lat="45.92259" lon="4.75115">
        <ele>174</ele>
        <time>2018-07-05T08:32:10Z</time>
      </trkpt>
      <trkpt lat="45.92254" lon="4.75121">
        <ele>174</ele>
        <time>2018-07-05T08:32:11Z</time>
      </trkpt>
      <trkpt lat="45.9225" lon="4.75127">
        <ele>174</ele>
        <time>2018-07-05T08:32:12Z</time>
      </trkpt>
      <trkpt lat="45.92245" lon="4.7513">
        <ele>174</ele>
        <time>2018-07-05T08:32:13Z</time>
      </trkpt>
      <trkpt lat="45.92241" lon="4.75135">
        <ele>174</ele>
        <time>2018-07-05T08:32:14Z</time>
      </trkpt>
      <trkpt lat="45.92238" lon="4.7514">
        <ele>174</ele>
        <time>2018-07-05T08:32:15Z</time>
      </trkpt>
      <trkpt lat="45.92234" lon="4.75146">
        <ele>174</ele>
        <time>2018-07-05T08:32:16Z</time>
      </trkpt>
      <trkpt lat="45.9223" lon="4.75152">
        <ele>174</ele>
        <time>2018-07-05T08:32:17Z</time>
      </trkpt>
      <trkpt lat="45.92227" lon="4.75159">
        <ele>174</ele>
        <time>2018-07-05T08:32:18Z</time>
      </trkpt>
      <trkpt lat="45.92224" lon="4.75166">
        <ele>174</ele>
        <time>2018-07-05T08:32:19Z</time>
      </trkpt>
      <trkpt lat="45.92222" lon="4.75173">
        <ele>175</ele>
        <time>2018-07-05T08:32:20Z</time>
      </trkpt>
      <trkpt lat="45.92219" lon="4.75181">
        <ele>175</ele>
        <time>2018-07-05T08:32:21Z</time>
      </trkpt>
      <trkpt lat="45.92217" lon="4.75187">
        <ele>175</ele>
        <time>2018-07-05T08:32:22Z</time>
      </trkpt>
      <trkpt lat="45.92215" lon="4.75195">
        <ele>175</ele>
        <time>2018-07-05T08:32:23Z</time>
      </trkpt>
      <trkpt lat="45.92213" lon="4.75203">
        <ele>175</ele>
        <time>2018-07-05T08:32:24Z</time>
      </trkpt>
      <trkpt lat="45.92212" lon="4.75211">
        <ele>175</ele>
        <time>2018-07-05T08:32:25Z</time>
      </trkpt>
      <trkpt lat="45.92212" lon="4.75218">
        <ele>175</ele>
        <time>2018-07-05T08:32:26Z</time>
      </trkpt>
      <trkpt lat="45.92211" lon="4.75227">
        <ele>175</ele>
        <time>2018-07-05T08:32:27Z</time>
      </trkpt>
      <trkpt lat="45.92211" lon="4.75231">
        <ele>175</ele>
        <time>2018-07-05T08:32:28Z</time>
      </trkpt>
      <trkpt lat="45.92211" lon="4.7524">
        <ele>175</ele>
        <time>2018-07-05T08:32:29Z</time>
      </trkpt>
      <trkpt lat="45.92211" lon="4.75248">
        <ele>175</ele>
        <time>2018-07-05T08:32:30Z</time>
      </trkpt>
      <trkpt lat="45.92212" lon="4.75257">
        <ele>175</ele>
        <time>2018-07-05T08:32:31Z</time>
      </trkpt>
      <trkpt lat="45.92211" lon="4.75264">
        <ele>176</ele>
        <time>2018-07-05T08:32:32Z</time>
      </trkpt>
      <trkpt lat="45.92211" lon="4.75273">
        <ele>176</ele>
        <time>2018-07-05T08:32:33Z</time>
      </trkpt>
      <trkpt lat="45.9221" lon="4.75279">
        <ele>176</ele>
        <time>2018-07-05T08:32:34Z</time>
      </trkpt>
      <trkpt lat="45.9221" lon="4.75286">
        <ele>176</ele>
        <time>2018-07-05T08:32:35Z</time>
      </trkpt>
      <trkpt lat="45.92209" lon="4.75294">
        <ele>176</ele>
        <time>2018-07-05T08:32:36Z</time>
      </trkpt>
      <trkpt lat="45.92208" lon="4.75305">
        <ele>176</ele>
        <time>2018-07-05T08:32:37Z</time>
      </trkpt>
      <trkpt lat="45.92207" lon="4.75313">
        <ele>176</ele>
        <time>2018-07-05T08:32:38Z</time>
      </trkpt>
      <trkpt lat="45.92206" lon="4.75322">
        <ele>176</ele>
        <time>2018-07-05T08:32:39Z</time>
      </trkpt>
      <trkpt lat="45.92205" lon="4.75328">
        <ele>176</ele>
        <time>2018-07-05T08:32:40Z</time>
      </trkpt>
      <trkpt lat="45.92204" lon="4.75336">
        <ele>177</ele>
        <time>2018-07-05T08:32:41Z</time>
      </trkpt>
      <trkpt lat="45.92202" lon="4.75344">
        <ele>177</ele>
        <time>2018-07-05T08:32:42Z</time>
      </trkpt>
      <trkpt lat="45.92201" lon="4.75349">
        <ele>177</ele>
        <time>2018-07-05T08:32:43Z</time>
      </trkpt>
      <trkpt lat="45.92198" lon="4.75358">
        <ele>177</ele>
        <time>2018-07-05T08:32:44Z</time>
      </trkpt>
      <trkpt lat="45.92196" lon="4.75366">
        <ele>177</ele>
        <time>2018-07-05T08:32:45Z</time>
      </trkpt>
      <trkpt lat="45.92194" lon="4.75373">
        <ele>177</ele>
        <time>2018-07-05T08:32:46Z</time>
      </trkpt>
      <trkpt lat="45.92191" lon="4.7538">
        <ele>177</ele>
        <time>2018-07-05T08:32:47Z</time>
      </trkpt>
      <trkpt lat="45.92187" lon="4.75388">
        <ele>177</ele>
        <time>2018-07-05T08:32:48Z</time>
      </trkpt>
      <trkpt lat="45.92185" lon="4.75396">
        <ele>177</ele>
        <time>2018-07-05T08:32:49Z</time>
      </trkpt>
      <trkpt lat="45.92182" lon="4.75404">
        <ele>177</ele>
        <time>2018-07-05T08:32:50Z</time>
      </trkpt>
      <trkpt lat="45.92178" lon="4.75412">
        <ele>177</ele>
        <time>2018-07-05T08:32:51Z</time>
      </trkpt>
      <trkpt lat="45.92176" lon="4.75421">
        <ele>177</ele>
        <time>2018-07-05T08:32:52Z</time>
      </trkpt>
      <trkpt lat="45.92173" lon="4.75429">
        <ele>177</ele>
        <time>2018-07-05T08:32:53Z</time>
      </trkpt>
      <trkpt lat="45.9217" lon="4.75436">
        <ele>177</ele>
        <time>2018-07-05T08:32:54Z</time>
      </trkpt>
      <trkpt lat="45.92166" lon="4.75445">
        <ele>177</ele>
        <time>2018-07-05T08:32:55Z</time>
      </trkpt>
      <trkpt lat="45.92163" lon="4.75454">
        <ele>176</ele>
        <time>2018-07-05T08:32:56Z</time>
      </trkpt>
      <trkpt lat="45.9216" lon="4.75461">
        <ele>176</ele>
        <time>2018-07-05T08:32:57Z</time>
      </trkpt>
      <trkpt lat="45.92156" lon="4.75469">
        <ele>176</ele>
        <time>2018-07-05T08:32:58Z</time>
      </trkpt>
      <trkpt lat="45.92152" lon="4.75477">
        <ele>176</ele>
        <time>2018-07-05T08:32:59Z</time>
      </trkpt>
      <trkpt lat="45.92148" lon="4.75485">
        <ele>176</ele>
        <time>2018-07-05T08:33:00Z</time>
      </trkpt>
      <trkpt lat="45.92145" lon="4.75492">
        <ele>176</ele>
        <time>2018-07-05T08:33:01Z</time>
      </trkpt>
      <trkpt lat="45.92143" lon="4.75501">
        <ele>175</ele>
        <time>2018-07-05T08:33:02Z</time>
      </trkpt>
      <trkpt lat="45.92139" lon="4.7551">
        <ele>174</ele>
        <time>2018-07-05T08:33:03Z</time>
      </trkpt>
      <trkpt lat="45.92136" lon="4.75517">
        <ele>174</ele>
        <time>2018-07-05T08:33:04Z</time>
      </trkpt>
      <trkpt lat="45.92133" lon="4.75526">
        <ele>174</ele>
        <time>2018-07-05T08:33:05Z</time>
      </trkpt>
      <trkpt lat="45.92129" lon="4.75533">
        <ele>174</ele>
        <time>2018-07-05T08:33:06Z</time>
      </trkpt>
      <trkpt lat="45.92125" lon="4.75541">
        <ele>174</ele>
        <time>2018-07-05T08:33:07Z</time>
      </trkpt>
      <trkpt lat="45.92121" lon="4.75547">
        <ele>174</ele>
        <time>2018-07-05T08:33:08Z</time>
      </trkpt>
      <trkpt lat="45.92118" lon="4.75554">
        <ele>174</ele>
        <time>2018-07-05T08:33:09Z</time>
      </trkpt>
      <trkpt lat="45.92115" lon="4.7556">
        <ele>174</ele>
        <time>2018-07-05T08:33:10Z</time>
      </trkpt>
      <trkpt lat="45.92112" lon="4.75565">
        <ele>174</ele>
        <time>2018-07-05T08:33:11Z</time>
      </trkpt>
      <trkpt lat="45.92109" lon="4.75571">
        <ele>174</ele>
        <time>2018-07-05T08:33:12Z</time>
      </trkpt>
      <trkpt lat="45.92109" lon="4.75578">
        <ele>174</ele>
        <time>2018-07-05T08:33:13Z</time>
      </trkpt>
      <trkpt lat="45.92111" lon="4.75584">
        <ele>174</ele>
        <time>2018-07-05T08:33:14Z</time>
      </trkpt>
      <trkpt lat="45.92114" lon="4.7559">
        <ele>174</ele>
        <time>2018-07-05T08:33:15Z</time>
      </trkpt>
      <trkpt lat="45.92117" lon="4.75595">
        <ele>174</ele>
        <time>2018-07-05T08:33:16Z</time>
      </trkpt>
      <trkpt lat="45.92123" lon="4.75601">
        <ele>174</ele>
        <time>2018-07-05T08:33:17Z</time>
      </trkpt>
      <trkpt lat="45.92127" lon="4.75606">
        <ele>174</ele>
        <time>2018-07-05T08:33:18Z</time>
      </trkpt>
      <trkpt lat="45.92132" lon="4.75611">
        <ele>174</ele>
        <time>2018-07-05T08:33:19Z</time>
      </trkpt>
      <trkpt lat="45.92138" lon="4.75616">
        <ele>174</ele>
        <time>2018-07-05T08:33:20Z</time>
      </trkpt>
      <trkpt lat="45.92143" lon="4.75621">
        <ele>174</ele>
        <time>2018-07-05T08:33:21Z</time>
      </trkpt>
      <trkpt lat="45.92148" lon="4.75626">
        <ele>174</ele>
        <time>2018-07-05T08:33:22Z</time>
      </trkpt>
      <trkpt lat="45.92154" lon="4.75631">
        <ele>174</ele>
        <time>2018-07-05T08:33:23Z</time>
      </trkpt>
      <trkpt lat="45.9216" lon="4.75637">
        <ele>174</ele>
        <time>2018-07-05T08:33:24Z</time>
      </trkpt>
      <trkpt lat="45.92165" lon="4.75642">
        <ele>174</ele>
        <time>2018-07-05T08:33:25Z</time>
      </trkpt>
      <trkpt lat="45.92171" lon="4.75648">
        <ele>174</ele>
        <time>2018-07-05T08:33:26Z</time>
      </trkpt>
      <trkpt lat="45.92175" lon="4.75654">
        <ele>174</ele>
        <time>2018-07-05T08:33:27Z</time>
      </trkpt>
      <trkpt lat="45.92181" lon="4.75658">
        <ele>174</ele>
        <time>2018-07-05T08:33:28Z</time>
      </trkpt>
      <trkpt lat="45.92188" lon="4.75662">
        <ele>174</ele>
        <time>2018-07-05T08:33:29Z</time>
      </trkpt>
      <trkpt lat="45.92192" lon="4.75667">
        <ele>174</ele>
        <time>2018-07-05T08:33:30Z</time>
      </trkpt>
      <trkpt lat="45.92197" lon="4.75672">
        <ele>174</ele>
        <time>2018-07-05T08:33:31Z</time>
      </trkpt>
      <trkpt lat="45.92201" lon="4.75678">
        <ele>174</ele>
        <time>2018-07-05T08:33:32Z</time>
      </trkpt>
      <trkpt lat="45.92207" lon="4.7568">
        <ele>174</ele>
        <time>2018-07-05T08:33:33Z</time>
      </trkpt>
      <trkpt lat="45.92212" lon="4.75684">
        <ele>174</ele>
        <time>2018-07-05T08:33:34Z</time>
      </trkpt>
      <trkpt lat="45.92217" lon="4.75688">
        <ele>174</ele>
        <time>2018-07-05T08:33:35Z</time>
      </trkpt>
      <trkpt lat="45.92223" lon="4.75692">
        <ele>174</ele>
        <time>2018-07-05T08:33:36Z</time>
      </trkpt>
      <trkpt lat="45.92227" lon="4.75697">
        <ele>174</ele>
        <time>2018-07-05T08:33:37Z</time>
      </trkpt>
      <trkpt lat="45.9223" lon="4.75702">
        <ele>174</ele>
        <time>2018-07-05T08:33:38Z</time>
      </trkpt>
      <trkpt lat="45.92234" lon="4.75707">
        <ele>174</ele>
        <time>2018-07-05T08:33:39Z</time>
      </trkpt>
      <trkpt lat="45.92237" lon="4.75713">
        <ele>174</ele>
        <time>2018-07-05T08:33:40Z</time>
      </trkpt>
      <trkpt lat="45.9224" lon="4.75721">
        <ele>174</ele>
        <time>2018-07-05T08:33:41Z</time>
      </trkpt>
      <trkpt lat="45.92242" lon="4.75728">
        <ele>174</ele>
        <time>2018-07-05T08:33:42Z</time>
      </trkpt>
      <trkpt lat="45.92244" lon="4.75736">
        <ele>174</ele>
        <time>2018-07-05T08:33:43Z</time>
      </trkpt>
      <trkpt lat="45.92245" lon="4.75743">
        <ele>174</ele>
        <time>2018-07-05T08:33:44Z</time>
      </trkpt>
      <trkpt lat="45.92246" lon="4.75751">
        <ele>174</ele>
        <time>2018-07-05T08:33:45Z</time>
      </trkpt>
      <trkpt lat="45.92247" lon="4.75759">
        <ele>174</ele>
        <time>2018-07-05T08:33:46Z</time>
      </trkpt>
      <trkpt lat="45.92249" lon="4.75766">
        <ele>174</ele>
        <time>2018-07-05T08:33:47Z</time>
      </trkpt>
      <trkpt lat="45.92252" lon="4.75778">
        <ele>174</ele>
        <time>2018-07-05T08:33:49Z</time>
      </trkpt>
      <trkpt lat="45.92253" lon="4.75786">
        <ele>174</ele>
        <time>2018-07-05T08:33:50Z</time>
      </trkpt>
      <trkpt lat="45.92255" lon="4.75795">
        <ele>174</ele>
        <time>2018-07-05T08:33:51Z</time>
      </trkpt>
      <trkpt lat="45.92258" lon="4.75801">
        <ele>174</ele>
        <time>2018-07-05T08:33:52Z</time>
      </trkpt>
      <trkpt lat="45.9226" lon="4.75808">
        <ele>174</ele>
        <time>2018-07-05T08:33:53Z</time>
      </trkpt>
      <trkpt lat="45.92263" lon="4.75816">
        <ele>174</ele>
        <time>2018-07-05T08:33:54Z</time>
      </trkpt>
      <trkpt lat="45.92268" lon="4.75823">
        <ele>174</ele>
        <time>2018-07-05T08:33:55Z</time>
      </trkpt>
      <trkpt lat="45.92273" lon="4.75828">
        <ele>174</ele>
        <time>2018-07-05T08:33:56Z</time>
      </trkpt>
      <trkpt lat="45.92277" lon="4.75832">
        <ele>174</ele>
        <time>2018-07-05T08:33:57Z</time>
      </trkpt>
      <trkpt lat="45.92283" lon="4.75837">
        <ele>173</ele>
        <time>2018-07-05T08:33:58Z</time>
      </trkpt>
      <trkpt lat="45.92288" lon="4.7584">
        <ele>173</ele>
        <time>2018-07-05T08:33:59Z</time>
      </trkpt>
      <trkpt lat="45.92293" lon="4.75842">
        <ele>173</ele>
        <time>2018-07-05T08:34:00Z</time>
      </trkpt>
      <trkpt lat="45.92298" lon="4.75846">
        <ele>173</ele>
        <time>2018-07-05T08:34:01Z</time>
      </trkpt>
      <trkpt lat="45.92304" lon="4.75849">
        <ele>173</ele>
        <time>2018-07-05T08:34:02Z</time>
      </trkpt>
      <trkpt lat="45.92309" lon="4.75853">
        <ele>173</ele>
        <time>2018-07-05T08:34:03Z</time>
      </trkpt>
      <trkpt lat="45.92315" lon="4.75857">
        <ele>173</ele>
        <time>2018-07-05T08:34:04Z</time>
      </trkpt>
      <trkpt lat="45.92321" lon="4.75862">
        <ele>173</ele>
        <time>2018-07-05T08:34:05Z</time>
      </trkpt>
      <trkpt lat="45.92327" lon="4.75866">
        <ele>173</ele>
        <time>2018-07-05T08:34:06Z</time>
      </trkpt>
      <trkpt lat="45.92332" lon="4.7587">
        <ele>173</ele>
        <time>2018-07-05T08:34:07Z</time>
      </trkpt>
      <trkpt lat="45.92339" lon="4.75874">
        <ele>173</ele>
        <time>2018-07-05T08:34:08Z</time>
      </trkpt>
      <trkpt lat="45.92345" lon="4.75879">
        <ele>173</ele>
        <time>2018-07-05T08:34:09Z</time>
      </trkpt>
      <trkpt lat="45.92351" lon="4.75882">
        <ele>173</ele>
        <time>2018-07-05T08:34:10Z</time>
      </trkpt>
      <trkpt lat="45.92356" lon="4.75886">
        <ele>173</ele>
        <time>2018-07-05T08:34:11Z</time>
      </trkpt>
      <trkpt lat="45.92362" lon="4.75889">
        <ele>173</ele>
        <time>2018-07-05T08:34:12Z</time>
      </trkpt>
      <trkpt lat="45.92368" lon="4.75892">
        <ele>173</ele>
        <time>2018-07-05T08:34:13Z</time>
      </trkpt>
      <trkpt lat="45.92373" lon="4.75895">
        <ele>173</ele>
        <time>2018-07-05T08:34:14Z</time>
      </trkpt>
      <trkpt lat="45.92379" lon="4.75898">
        <ele>173</ele>
        <time>2018-07-05T08:34:15Z</time>
      </trkpt>
      <trkpt lat="45.92384" lon="4.75903">
        <ele>173</ele>
        <time>2018-07-05T08:34:16Z</time>
      </trkpt>
      <trkpt lat="45.92388" lon="4.75907">
        <ele>173</ele>
        <time>2018-07-05T08:34:17Z</time>
      </trkpt>
      <trkpt lat="45.92393" lon="4.75911">
        <ele>173</ele>
        <time>2018-07-05T08:34:18Z</time>
      </trkpt>
      <trkpt lat="45.92399" lon="4.75916">
        <ele>172</ele>
        <time>2018-07-05T08:34:19Z</time>
      </trkpt>
      <trkpt lat="45.92404" lon="4.75921">
        <ele>172</ele>
        <time>2018-07-05T08:34:20Z</time>
      </trkpt>
      <trkpt lat="45.92411" lon="4.75924">
        <ele>172</ele>
        <time>2018-07-05T08:34:21Z</time>
      </trkpt>
      <trkpt lat="45.92416" lon="4.75928">
        <ele>172</ele>
        <time>2018-07-05T08:34:22Z</time>
      </trkpt>
      <trkpt lat="45.92426" lon="4.75928">
        <ele>172</ele>
        <time>2018-07-05T08:34:23Z</time>
      </trkpt>
      <trkpt lat="45.92431" lon="4.75934">
        <ele>172</ele>
        <time>2018-07-05T08:34:24Z</time>
      </trkpt>
      <trkpt lat="45.92435" lon="4.75938">
        <ele>172</ele>
        <time>2018-07-05T08:34:25Z</time>
      </trkpt>
      <trkpt lat="45.92438" lon="4.75942">
        <ele>172</ele>
        <time>2018-07-05T08:34:26Z</time>
      </trkpt>
      <trkpt lat="45.92443" lon="4.75946">
        <ele>172</ele>
        <time>2018-07-05T08:34:27Z</time>
      </trkpt>
      <trkpt lat="45.92447" lon="4.7595">
        <ele>172</ele>
        <time>2018-07-05T08:34:28Z</time>
      </trkpt>
      <trkpt lat="45.9245" lon="4.75955">
        <ele>172</ele>
        <time>2018-07-05T08:34:29Z</time>
      </trkpt>
      <trkpt lat="45.92454" lon="4.75959">
        <ele>172</ele>
        <time>2018-07-05T08:34:30Z</time>
      </trkpt>
      <trkpt lat="45.92459" lon="4.75962">
        <ele>172</ele>
        <time>2018-07-05T08:34:31Z</time>
      </trkpt>
      <trkpt lat="45.92465" lon="4.75965">
        <ele>172</ele>
        <time>2018-07-05T08:34:32Z</time>
      </trkpt>
      <trkpt lat="45.9247" lon="4.75969">
        <ele>172</ele>
        <time>2018-07-05T08:34:33Z</time>
      </trkpt>
      <trkpt lat="45.92475" lon="4.75972">
        <ele>172</ele>
        <time>2018-07-05T08:34:34Z</time>
      </trkpt>
      <trkpt lat="45.92479" lon="4.75974">
        <ele>172</ele>
        <time>2018-07-05T08:34:35Z</time>
      </trkpt>
      <trkpt lat="45.92484" lon="4.75978">
        <ele>172</ele>
        <time>2018-07-05T08:34:36Z</time>
      </trkpt>
      <trkpt lat="45.92488" lon="4.75982">
        <ele>172</ele>
        <time>2018-07-05T08:34:37Z</time>
      </trkpt>
      <trkpt lat="45.92492" lon="4.75985">
        <ele>172</ele>
        <time>2018-07-05T08:34:38Z</time>
      </trkpt>
      <trkpt lat="45.92497" lon="4.75989">
        <ele>172</ele>
        <time>2018-07-05T08:34:39Z</time>
      </trkpt>
      <trkpt lat="45.92501" lon="4.75991">
        <ele>172</ele>
        <time>2018-07-05T08:34:40Z</time>
      </trkpt>
      <trkpt lat="45.92505" lon="4.75995">
        <ele>172</ele>
        <time>2018-07-05T08:34:41Z</time>
      </trkpt>
      <trkpt lat="45.9251" lon="4.75998">
        <ele>172</ele>
        <time>2018-07-05T08:34:42Z</time>
      </trkpt>
      <trkpt lat="45.92514" lon="4.76002">
        <ele>172</ele>
        <time>2018-07-05T08:34:43Z</time>
      </trkpt>
      <trkpt lat="45.92519" lon="4.76005">
        <ele>172</ele>
        <time>2018-07-05T08:34:44Z</time>
      </trkpt>
      <trkpt lat="45.92523" lon="4.76008">
        <ele>172</ele>
        <time>2018-07-05T08:34:45Z</time>
      </trkpt>
      <trkpt lat="45.92527" lon="4.76017">
        <ele>172</ele>
        <time>2018-07-05T08:34:47Z</time>
      </trkpt>
      <trkpt lat="45.92531" lon="4.7602">
        <ele>172</ele>
        <time>2018-07-05T08:34:48Z</time>
      </trkpt>
      <trkpt lat="45.92538" lon="4.76027">
        <ele>172</ele>
        <time>2018-07-05T08:34:50Z</time>
      </trkpt>
      <trkpt lat="45.92544" lon="4.7603">
        <ele>172</ele>
        <time>2018-07-05T08:34:51Z</time>
      </trkpt>
      <trkpt lat="45.9255" lon="4.76032">
        <ele>172</ele>
        <time>2018-07-05T08:34:52Z</time>
      </trkpt>
      <trkpt lat="45.92555" lon="4.76035">
        <ele>172</ele>
        <time>2018-07-05T08:34:53Z</time>
      </trkpt>
      <trkpt lat="45.92561" lon="4.76039">
        <ele>172</ele>
        <time>2018-07-05T08:34:54Z</time>
      </trkpt>
      <trkpt lat="45.92566" lon="4.76043">
        <ele>171</ele>
        <time>2018-07-05T08:34:55Z</time>
      </trkpt>
      <trkpt lat="45.92571" lon="4.76047">
        <ele>171</ele>
        <time>2018-07-05T08:34:56Z</time>
      </trkpt>
      <trkpt lat="45.92578" lon="4.7605">
        <ele>171</ele>
        <time>2018-07-05T08:34:57Z</time>
      </trkpt>
      <trkpt lat="45.92582" lon="4.76054">
        <ele>171</ele>
        <time>2018-07-05T08:34:58Z</time>
      </trkpt>
      <trkpt lat="45.92589" lon="4.76058">
        <ele>171</ele>
        <time>2018-07-05T08:34:59Z</time>
      </trkpt>
      <trkpt lat="45.92595" lon="4.7606">
        <ele>171</ele>
        <time>2018-07-05T08:35:00Z</time>
      </trkpt>
      <trkpt lat="45.92601" lon="4.76064">
        <ele>171</ele>
        <time>2018-07-05T08:35:01Z</time>
      </trkpt>
      <trkpt lat="45.92606" lon="4.7607">
        <ele>171</ele>
        <time>2018-07-05T08:35:02Z</time>
      </trkpt>
      <trkpt lat="45.92612" lon="4.76074">
        <ele>171</ele>
        <time>2018-07-05T08:35:03Z</time>
      </trkpt>
      <trkpt lat="45.92616" lon="4.7608">
        <ele>171</ele>
        <time>2018-07-05T08:35:04Z</time>
      </trkpt>
      <trkpt lat="45.92623" lon="4.76084">
        <ele>170</ele>
        <time>2018-07-05T08:35:05Z</time>
      </trkpt>
      <trkpt lat="45.92631" lon="4.76087">
        <ele>170</ele>
        <time>2018-07-05T08:35:06Z</time>
      </trkpt>
      <trkpt lat="45.92638" lon="4.7609">
        <ele>170</ele>
        <time>2018-07-05T08:35:07Z</time>
      </trkpt>
      <trkpt lat="45.92645" lon="4.76095">
        <ele>170</ele>
        <time>2018-07-05T08:35:08Z</time>
      </trkpt>
      <trkpt lat="45.9265" lon="4.761">
        <ele>170</ele>
        <time>2018-07-05T08:35:09Z</time>
      </trkpt>
      <trkpt lat="45.92656" lon="4.76103">
        <ele>170</ele>
        <time>2018-07-05T08:35:10Z</time>
      </trkpt>
      <trkpt lat="45.92663" lon="4.76109">
        <ele>170</ele>
        <time>2018-07-05T08:35:11Z</time>
      </trkpt>
      <trkpt lat="45.92667" lon="4.76115">
        <ele>169</ele>
        <time>2018-07-05T08:35:12Z</time>
      </trkpt>
      <trkpt lat="45.92675" lon="4.7612">
        <ele>169</ele>
        <time>2018-07-05T08:35:13Z</time>
      </trkpt>
      <trkpt lat="45.92682" lon="4.76125">
        <ele>169</ele>
        <time>2018-07-05T08:35:14Z</time>
      </trkpt>
      <trkpt lat="45.92689" lon="4.7613">
        <ele>169</ele>
        <time>2018-07-05T08:35:15Z</time>
      </trkpt>
      <trkpt lat="45.92695" lon="4.76133">
        <ele>169</ele>
        <time>2018-07-05T08:35:16Z</time>
      </trkpt>
      <trkpt lat="45.92702" lon="4.76136">
        <ele>169</ele>
        <time>2018-07-05T08:35:17Z</time>
      </trkpt>
      <trkpt lat="45.92709" lon="4.7614">
        <ele>168</ele>
        <time>2018-07-05T08:35:18Z</time>
      </trkpt>
      <trkpt lat="45.92719" lon="4.76145">
        <ele>168</ele>
        <time>2018-07-05T08:35:19Z</time>
      </trkpt>
      <trkpt lat="45.92726" lon="4.7615">
        <ele>168</ele>
        <time>2018-07-05T08:35:20Z</time>
      </trkpt>
      <trkpt lat="45.92733" lon="4.76156">
        <ele>168</ele>
        <time>2018-07-05T08:35:21Z</time>
      </trkpt>
      <trkpt lat="45.9274" lon="4.76161">
        <ele>168</ele>
        <time>2018-07-05T08:35:22Z</time>
      </trkpt>
      <trkpt lat="45.92747" lon="4.76166">
        <ele>167</ele>
        <time>2018-07-05T08:35:23Z</time>
      </trkpt>
      <trkpt lat="45.92752" lon="4.76172">
        <ele>167</ele>
        <time>2018-07-05T08:35:24Z</time>
      </trkpt>
      <trkpt lat="45.92758" lon="4.76178">
        <ele>167</ele>
        <time>2018-07-05T08:35:25Z</time>
      </trkpt>
      <trkpt lat="45.92764" lon="4.76182">
        <ele>167</ele>
        <time>2018-07-05T08:35:26Z</time>
      </trkpt>
      <trkpt lat="45.92769" lon="4.76185">
        <ele>167</ele>
        <time>2018-07-05T08:35:27Z</time>
      </trkpt>
      <trkpt lat="45.92774" lon="4.7619">
        <ele>168</ele>
        <time>2018-07-05T08:35:28Z</time>
      </trkpt>
      <trkpt lat="45.92781" lon="4.76193">
        <ele>168</ele>
        <time>2018-07-05T08:35:29Z</time>
      </trkpt>
      <trkpt lat="45.92786" lon="4.76199">
        <ele>168</ele>
        <time>2018-07-05T08:35:30Z</time>
      </trkpt>
      <trkpt lat="45.92792" lon="4.76206">
        <ele>168</ele>
        <time>2018-07-05T08:35:31Z</time>
      </trkpt>
      <trkpt lat="45.92797" lon="4.76212">
        <ele>168</ele>
        <time>2018-07-05T08:35:32Z</time>
      </trkpt>
      <trkpt lat="45.92803" lon="4.76217">
        <ele>168</ele>
        <time>2018-07-05T08:35:33Z</time>
      </trkpt>
      <trkpt lat="45.92809" lon="4.76222">
        <ele>168</ele>
        <time>2018-07-05T08:35:34Z</time>
      </trkpt>
      <trkpt lat="45.92814" lon="4.76227">
        <ele>168</ele>
        <time>2018-07-05T08:35:35Z</time>
      </trkpt>
      <trkpt lat="45.92819" lon="4.76232">
        <ele>168</ele>
        <time>2018-07-05T08:35:36Z</time>
      </trkpt>
      <trkpt lat="45.92826" lon="4.76236">
        <ele>168</ele>
        <time>2018-07-05T08:35:37Z</time>
      </trkpt>
      <trkpt lat="45.92831" lon="4.7624">
        <ele>169</ele>
        <time>2018-07-05T08:35:38Z</time>
      </trkpt>
      <trkpt lat="45.92833" lon="4.76247">
        <ele>169</ele>
        <time>2018-07-05T08:35:39Z</time>
      </trkpt>
      <trkpt lat="45.92839" lon="4.76252">
        <ele>169</ele>
        <time>2018-07-05T08:35:40Z</time>
      </trkpt>
      <trkpt lat="45.92844" lon="4.76256">
        <ele>169</ele>
        <time>2018-07-05T08:35:41Z</time>
      </trkpt>
      <trkpt lat="45.92848" lon="4.76261">
        <ele>169</ele>
        <time>2018-07-05T08:35:42Z</time>
      </trkpt>
      <trkpt lat="45.92852" lon="4.76265">
        <ele>169</ele>
        <time>2018-07-05T08:35:43Z</time>
      </trkpt>
      <trkpt lat="45.92857" lon="4.76273">
        <ele>169</ele>
        <time>2018-07-05T08:35:44Z</time>
      </trkpt>
      <trkpt lat="45.92863" lon="4.76276">
        <ele>169</ele>
        <time>2018-07-05T08:35:45Z</time>
      </trkpt>
      <trkpt lat="45.92868" lon="4.76281">
        <ele>169</ele>
        <time>2018-07-05T08:35:46Z</time>
      </trkpt>
      <trkpt lat="45.92873" lon="4.76287">
        <ele>169</ele>
        <time>2018-07-05T08:35:47Z</time>
      </trkpt>
      <trkpt lat="45.92879" lon="4.76292">
        <ele>169</ele>
        <time>2018-07-05T08:35:48Z</time>
      </trkpt>
      <trkpt lat="45.92883" lon="4.76297">
        <ele>169</ele>
        <time>2018-07-05T08:35:49Z</time>
      </trkpt>
      <trkpt lat="45.92888" lon="4.76303">
        <ele>169</ele>
        <time>2018-07-05T08:35:50Z</time>
      </trkpt>
      <trkpt lat="45.92892" lon="4.76308">
        <ele>169</ele>
        <time>2018-07-05T08:35:51Z</time>
      </trkpt>
      <trkpt lat="45.92896" lon="4.76313">
        <ele>169</ele>
        <time>2018-07-05T08:35:52Z</time>
      </trkpt>
      <trkpt lat="45.92902" lon="4.76318">
        <ele>169</ele>
        <time>2018-07-05T08:35:53Z</time>
      </trkpt>
      <trkpt lat="45.92908" lon="4.76323">
        <ele>169</ele>
        <time>2018-07-05T08:35:54Z</time>
      </trkpt>
      <trkpt lat="45.92911" lon="4.76327">
        <ele>169</ele>
        <time>2018-07-05T08:35:55Z</time>
      </trkpt>
      <trkpt lat="45.92916" lon="4.76333">
        <ele>169</ele>
        <time>2018-07-05T08:35:56Z</time>
      </trkpt>
      <trkpt lat="45.92923" lon="4.76336">
        <ele>169</ele>
        <time>2018-07-05T08:35:57Z</time>
      </trkpt>
      <trkpt lat="45.92928" lon="4.76341">
        <ele>169</ele>
        <time>2018-07-05T08:35:58Z</time>
      </trkpt>
      <trkpt lat="45.92933" lon="4.76345">
        <ele>169</ele>
        <time>2018-07-05T08:35:59Z</time>
      </trkpt>
      <trkpt lat="45.92938" lon="4.7635">
        <ele>169</ele>
        <time>2018-07-05T08:36:00Z</time>
      </trkpt>
      <trkpt lat="45.92943" lon="4.76354">
        <ele>169</ele>
        <time>2018-07-05T08:36:01Z</time>
      </trkpt>
      <trkpt lat="45.92948" lon="4.76358">
        <ele>169</ele>
        <time>2018-07-05T08:36:02Z</time>
      </trkpt>
      <trkpt lat="45.92953" lon="4.76363">
        <ele>169</ele>
        <time>2018-07-05T08:36:03Z</time>
      </trkpt>
      <trkpt lat="45.92958" lon="4.76367">
        <ele>169</ele>
        <time>2018-07-05T08:36:04Z</time>
      </trkpt>
      <trkpt lat="45.92964" lon="4.76372">
        <ele>169</ele>
        <time>2018-07-05T08:36:05Z</time>
      </trkpt>
      <trkpt lat="45.92969" lon="4.76377">
        <ele>169</ele>
        <time>2018-07-05T08:36:06Z</time>
      </trkpt>
      <trkpt lat="45.92975" lon="4.76382">
        <ele>169</ele>
        <time>2018-07-05T08:36:07Z</time>
      </trkpt>
      <trkpt lat="45.92978" lon="4.76389">
        <ele>169</ele>
        <time>2018-07-05T08:36:08Z</time>
      </trkpt>
      <trkpt lat="45.92983" lon="4.76394">
        <ele>169</ele>
        <time>2018-07-05T08:36:09Z</time>
      </trkpt>
      <trkpt lat="45.92988" lon="4.76399">
        <ele>169</ele>
        <time>2018-07-05T08:36:10Z</time>
      </trkpt>
      <trkpt lat="45.92994" lon="4.76404">
        <ele>169</ele>
        <time>2018-07-05T08:36:11Z</time>
      </trkpt>
      <trkpt lat="45.92997" lon="4.76411">
        <ele>169</ele>
        <time>2018-07-05T08:36:12Z</time>
      </trkpt>
      <trkpt lat="45.93002" lon="4.76415">
        <ele>169</ele>
        <time>2018-07-05T08:36:13Z</time>
      </trkpt>
      <trkpt lat="45.93008" lon="4.76419">
        <ele>169</ele>
        <time>2018-07-05T08:36:14Z</time>
      </trkpt>
      <trkpt lat="45.93011" lon="4.76424">
        <ele>169</ele>
        <time>2018-07-05T08:36:15Z</time>
      </trkpt>
      <trkpt lat="45.93015" lon="4.76429">
        <ele>169</ele>
        <time>2018-07-05T08:36:16Z</time>
      </trkpt>
      <trkpt lat="45.9302" lon="4.76431">
        <ele>169</ele>
        <time>2018-07-05T08:36:17Z</time>
      </trkpt>
      <trkpt lat="45.93025" lon="4.76436">
        <ele>169</ele>
        <time>2018-07-05T08:36:18Z</time>
      </trkpt>
      <trkpt lat="45.93029" lon="4.76442">
        <ele>169</ele>
        <time>2018-07-05T08:36:19Z</time>
      </trkpt>
      <trkpt lat="45.93035" lon="4.76447">
        <ele>169</ele>
        <time>2018-07-05T08:36:20Z</time>
      </trkpt>
      <trkpt lat="45.93041" lon="4.76453">
        <ele>169</ele>
        <time>2018-07-05T08:36:21Z</time>
      </trkpt>
      <trkpt lat="45.93045" lon="4.76458">
        <ele>169</ele>
        <time>2018-07-05T08:36:22Z</time>
      </trkpt>
      <trkpt lat="45.93053" lon="4.76464">
        <ele>169</ele>
        <time>2018-07-05T08:36:23Z</time>
      </trkpt>
      <trkpt lat="45.93059" lon="4.76469">
        <ele>169</ele>
        <time>2018-07-05T08:36:24Z</time>
      </trkpt>
      <trkpt lat="45.93065" lon="4.76474">
        <ele>169</ele>
        <time>2018-07-05T08:36:25Z</time>
      </trkpt>
      <trkpt lat="45.93071" lon="4.76481">
        <ele>169</ele>
        <time>2018-07-05T08:36:26Z</time>
      </trkpt>
      <trkpt lat="45.93076" lon="4.76486">
        <ele>170</ele>
        <time>2018-07-05T08:36:27Z</time>
      </trkpt>
      <trkpt lat="45.93081" lon="4.76491">
        <ele>170</ele>
        <time>2018-07-05T08:36:28Z</time>
      </trkpt>
      <trkpt lat="45.93086" lon="4.76496">
        <ele>170</ele>
        <time>2018-07-05T08:36:29Z</time>
      </trkpt>
      <trkpt lat="45.93092" lon="4.76499">
        <ele>170</ele>
        <time>2018-07-05T08:36:30Z</time>
      </trkpt>
      <trkpt lat="45.93096" lon="4.76504">
        <ele>170</ele>
        <time>2018-07-05T08:36:31Z</time>
      </trkpt>
      <trkpt lat="45.93101" lon="4.76508">
        <ele>170</ele>
        <time>2018-07-05T08:36:32Z</time>
      </trkpt>
      <trkpt lat="45.93105" lon="4.76513">
        <ele>170</ele>
        <time>2018-07-05T08:36:33Z</time>
      </trkpt>
      <trkpt lat="45.93109" lon="4.76517">
        <ele>170</ele>
        <time>2018-07-05T08:36:34Z</time>
      </trkpt>
      <trkpt lat="45.93114" lon="4.76522">
        <ele>170</ele>
        <time>2018-07-05T08:36:35Z</time>
      </trkpt>
      <trkpt lat="45.9312" lon="4.76527">
        <ele>170</ele>
        <time>2018-07-05T08:36:36Z</time>
      </trkpt>
      <trkpt lat="45.93125" lon="4.76531">
        <ele>170</ele>
        <time>2018-07-05T08:36:37Z</time>
      </trkpt>
      <trkpt lat="45.93129" lon="4.76538">
        <ele>170</ele>
        <time>2018-07-05T08:36:38Z</time>
      </trkpt>
      <trkpt lat="45.93132" lon="4.76545">
        <ele>170</ele>
        <time>2018-07-05T08:36:39Z</time>
      </trkpt>
      <trkpt lat="45.93137" lon="4.7655">
        <ele>170</ele>
        <time>2018-07-05T08:36:40Z</time>
      </trkpt>
      <trkpt lat="45.93141" lon="4.76555">
        <ele>170</ele>
        <time>2018-07-05T08:36:41Z</time>
      </trkpt>
      <trkpt lat="45.93146" lon="4.76559">
        <ele>170</ele>
        <time>2018-07-05T08:36:42Z</time>
      </trkpt>
      <trkpt lat="45.93149" lon="4.76563">
        <ele>170</ele>
        <time>2018-07-05T08:36:43Z</time>
      </trkpt>
      <trkpt lat="45.93152" lon="4.76569">
        <ele>170</ele>
        <time>2018-07-05T08:36:44Z</time>
      </trkpt>
      <trkpt lat="45.93158" lon="4.76574">
        <ele>170</ele>
        <time>2018-07-05T08:36:45Z</time>
      </trkpt>
      <trkpt lat="45.93163" lon="4.76579">
        <ele>171</ele>
        <time>2018-07-05T08:36:46Z</time>
      </trkpt>
      <trkpt lat="45.93168" lon="4.76585">
        <ele>171</ele>
        <time>2018-07-05T08:36:47Z</time>
      </trkpt>
      <trkpt lat="45.93175" lon="4.7659">
        <ele>171</ele>
        <time>2018-07-05T08:36:48Z</time>
      </trkpt>
      <trkpt lat="45.9318" lon="4.76594">
        <ele>171</ele>
        <time>2018-07-05T08:36:49Z</time>
      </trkpt>
      <trkpt lat="45.93185" lon="4.76599">
        <ele>171</ele>
        <time>2018-07-05T08:36:50Z</time>
      </trkpt>
      <trkpt lat="45.9319" lon="4.76604">
        <ele>171</ele>
        <time>2018-07-05T08:36:51Z</time>
      </trkpt>
      <trkpt lat="45.93199" lon="4.76607">
        <ele>170</ele>
        <time>2018-07-05T08:36:52Z</time>
      </trkpt>
      <trkpt lat="45.93204" lon="4.76611">
        <ele>170</ele>
        <time>2018-07-05T08:36:53Z</time>
      </trkpt>
      <trkpt lat="45.93209" lon="4.76616">
        <ele>170</ele>
        <time>2018-07-05T08:36:54Z</time>
      </trkpt>
      <trkpt lat="45.93213" lon="4.76621">
        <ele>170</ele>
        <time>2018-07-05T08:36:55Z</time>
      </trkpt>
      <trkpt lat="45.93217" lon="4.76625">
        <ele>170</ele>
        <time>2018-07-05T08:36:56Z</time>
      </trkpt>
      <trkpt lat="45.93221" lon="4.7663">
        <ele>170</ele>
        <time>2018-07-05T08:36:57Z</time>
      </trkpt>
      <trkpt lat="45.93226" lon="4.76634">
        <ele>171</ele>
        <time>2018-07-05T08:36:58Z</time>
      </trkpt>
      <trkpt lat="45.9323" lon="4.76639">
        <ele>171</ele>
        <time>2018-07-05T08:36:59Z</time>
      </trkpt>
      <trkpt lat="45.93234" lon="4.76645">
        <ele>171</ele>
        <time>2018-07-05T08:37:00Z</time>
      </trkpt>
      <trkpt lat="45.93241" lon="4.76649">
        <ele>171</ele>
        <time>2018-07-05T08:37:01Z</time>
      </trkpt>
      <trkpt lat="45.93246" lon="4.76654">
        <ele>171</ele>
        <time>2018-07-05T08:37:02Z</time>
      </trkpt>
      <trkpt lat="45.93251" lon="4.76659">
        <ele>171</ele>
        <time>2018-07-05T08:37:03Z</time>
      </trkpt>
      <trkpt lat="45.93257" lon="4.76663">
        <ele>171</ele>
        <time>2018-07-05T08:37:04Z</time>
      </trkpt>
      <trkpt lat="45.93262" lon="4.76669">
        <ele>172</ele>
        <time>2018-07-05T08:37:05Z</time>
      </trkpt>
      <trkpt lat="45.93266" lon="4.76674">
        <ele>172</ele>
        <time>2018-07-05T08:37:06Z</time>
      </trkpt>
      <trkpt lat="45.93271" lon="4.76679">
        <ele>172</ele>
        <time>2018-07-05T08:37:07Z</time>
      </trkpt>
      <trkpt lat="45.93275" lon="4.76684">
        <ele>172</ele>
        <time>2018-07-05T08:37:08Z</time>
      </trkpt>
      <trkpt lat="45.9328" lon="4.7669">
        <ele>172</ele>
        <time>2018-07-05T08:37:09Z</time>
      </trkpt>
      <trkpt lat="45.93284" lon="4.76695">
        <ele>172</ele>
        <time>2018-07-05T08:37:10Z</time>
      </trkpt>
      <trkpt lat="45.93288" lon="4.767">
        <ele>172</ele>
        <time>2018-07-05T08:37:11Z</time>
      </trkpt>
      <trkpt lat="45.93293" lon="4.76705">
        <ele>172</ele>
        <time>2018-07-05T08:37:12Z</time>
      </trkpt>
      <trkpt lat="45.93298" lon="4.76711">
        <ele>172</ele>
        <time>2018-07-05T08:37:13Z</time>
      </trkpt>
      <trkpt lat="45.93303" lon="4.76715">
        <ele>172</ele>
        <time>2018-07-05T08:37:14Z</time>
      </trkpt>
      <trkpt lat="45.93309" lon="4.76719">
        <ele>172</ele>
        <time>2018-07-05T08:37:15Z</time>
      </trkpt>
      <trkpt lat="45.93314" lon="4.76724">
        <ele>172</ele>
        <time>2018-07-05T08:37:16Z</time>
      </trkpt>
      <trkpt lat="45.93317" lon="4.7673">
        <ele>172</ele>
        <time>2018-07-05T08:37:17Z</time>
      </trkpt>
      <trkpt lat="45.93323" lon="4.76734">
        <ele>172</ele>
        <time>2018-07-05T08:37:18Z</time>
      </trkpt>
      <trkpt lat="45.93326" lon="4.76739">
        <ele>172</ele>
        <time>2018-07-05T08:37:19Z</time>
      </trkpt>
      <trkpt lat="45.93331" lon="4.76742">
        <ele>173</ele>
        <time>2018-07-05T08:37:20Z</time>
      </trkpt>
      <trkpt lat="45.93336" lon="4.76747">
        <ele>173</ele>
        <time>2018-07-05T08:37:21Z</time>
      </trkpt>
      <trkpt lat="45.9334" lon="4.76752">
        <ele>173</ele>
        <time>2018-07-05T08:37:22Z</time>
      </trkpt>
      <trkpt lat="45.93347" lon="4.76755">
        <ele>172</ele>
        <time>2018-07-05T08:37:23Z</time>
      </trkpt>
      <trkpt lat="45.93353" lon="4.76761">
        <ele>172</ele>
        <time>2018-07-05T08:37:24Z</time>
      </trkpt>
      <trkpt lat="45.93358" lon="4.76766">
        <ele>172</ele>
        <time>2018-07-05T08:37:25Z</time>
      </trkpt>
      <trkpt lat="45.93364" lon="4.76771">
        <ele>172</ele>
        <time>2018-07-05T08:37:26Z</time>
      </trkpt>
      <trkpt lat="45.93369" lon="4.76776">
        <ele>172</ele>
        <time>2018-07-05T08:37:27Z</time>
      </trkpt>
      <trkpt lat="45.93374" lon="4.76782">
        <ele>172</ele>
        <time>2018-07-05T08:37:28Z</time>
      </trkpt>
      <trkpt lat="45.93379" lon="4.76787">
        <ele>172</ele>
        <time>2018-07-05T08:37:29Z</time>
      </trkpt>
      <trkpt lat="45.93384" lon="4.76793">
        <ele>172</ele>
        <time>2018-07-05T08:37:30Z</time>
      </trkpt>
      <trkpt lat="45.93387" lon="4.768">
        <ele>172</ele>
        <time>2018-07-05T08:37:31Z</time>
      </trkpt>
      <trkpt lat="45.93392" lon="4.76805">
        <ele>172</ele>
        <time>2018-07-05T08:37:32Z</time>
      </trkpt>
      <trkpt lat="45.93397" lon="4.76811">
        <ele>172</ele>
        <time>2018-07-05T08:37:33Z</time>
      </trkpt>
      <trkpt lat="45.93401" lon="4.76818">
        <ele>172</ele>
        <time>2018-07-05T08:37:34Z</time>
      </trkpt>
      <trkpt lat="45.93404" lon="4.76826">
        <ele>172</ele>
        <time>2018-07-05T08:37:35Z</time>
      </trkpt>
      <trkpt lat="45.93409" lon="4.76833">
        <ele>172</ele>
        <time>2018-07-05T08:37:36Z</time>
      </trkpt>
      <trkpt lat="45.93414" lon="4.76841">
        <ele>172</ele>
        <time>2018-07-05T08:37:37Z</time>
      </trkpt>
      <trkpt lat="45.93417" lon="4.76848">
        <ele>171</ele>
        <time>2018-07-05T08:37:38Z</time>
      </trkpt>
      <trkpt lat="45.93423" lon="4.76857">
        <ele>171</ele>
        <time>2018-07-05T08:37:39Z</time>
      </trkpt>
      <trkpt lat="45.93426" lon="4.76865">
        <ele>171</ele>
        <time>2018-07-05T08:37:40Z</time>
      </trkpt>
      <trkpt lat="45.93429" lon="4.76873">
        <ele>171</ele>
        <time>2018-07-05T08:37:41Z</time>
      </trkpt>
      <trkpt lat="45.93431" lon="4.7688">
        <ele>171</ele>
        <time>2018-07-05T08:37:42Z</time>
      </trkpt>
      <trkpt lat="45.93433" lon="4.76888">
        <ele>171</ele>
        <time>2018-07-05T08:37:43Z</time>
      </trkpt>
      <trkpt lat="45.93436" lon="4.76896">
        <ele>171</ele>
        <time>2018-07-05T08:37:44Z</time>
      </trkpt>
      <trkpt lat="45.93439" lon="4.76905">
        <ele>171</ele>
        <time>2018-07-05T08:37:45Z</time>
      </trkpt>
      <trkpt lat="45.93441" lon="4.76914">
        <ele>170</ele>
        <time>2018-07-05T08:37:46Z</time>
      </trkpt>
      <trkpt lat="45.93443" lon="4.76922">
        <ele>170</ele>
        <time>2018-07-05T08:37:47Z</time>
      </trkpt>
      <trkpt lat="45.93445" lon="4.76931">
        <ele>170</ele>
        <time>2018-07-05T08:37:48Z</time>
      </trkpt>
      <trkpt lat="45.93446" lon="4.7694">
        <ele>170</ele>
        <time>2018-07-05T08:37:49Z</time>
      </trkpt>
      <trkpt lat="45.93449" lon="4.76951">
        <ele>170</ele>
        <time>2018-07-05T08:37:50Z</time>
      </trkpt>
      <trkpt lat="45.9345" lon="4.7696">
        <ele>170</ele>
        <time>2018-07-05T08:37:51Z</time>
      </trkpt>
      <trkpt lat="45.93451" lon="4.76968">
        <ele>170</ele>
        <time>2018-07-05T08:37:52Z</time>
      </trkpt>
      <trkpt lat="45.93453" lon="4.76977">
        <ele>170</ele>
        <time>2018-07-05T08:37:53Z</time>
      </trkpt>
      <trkpt lat="45.93455" lon="4.76985">
        <ele>170</ele>
        <time>2018-07-05T08:37:54Z</time>
      </trkpt>
      <trkpt lat="45.93456" lon="4.76993">
        <ele>170</ele>
        <time>2018-07-05T08:37:55Z</time>
      </trkpt>
      <trkpt lat="45.93458" lon="4.77001">
        <ele>170</ele>
        <time>2018-07-05T08:37:56Z</time>
      </trkpt>
      <trkpt lat="45.93459" lon="4.77009">
        <ele>170</ele>
        <time>2018-07-05T08:37:57Z</time>
      </trkpt>
      <trkpt lat="45.93462" lon="4.77018">
        <ele>170</ele>
        <time>2018-07-05T08:37:58Z</time>
      </trkpt>
      <trkpt lat="45.93464" lon="4.77027">
        <ele>170</ele>
        <time>2018-07-05T08:37:59Z</time>
      </trkpt>
      <trkpt lat="45.93465" lon="4.77034">
        <ele>170</ele>
        <time>2018-07-05T08:38:00Z</time>
      </trkpt>
      <trkpt lat="45.93466" lon="4.77043">
        <ele>170</ele>
        <time>2018-07-05T08:38:01Z</time>
      </trkpt>
      <trkpt lat="45.93468" lon="4.7705">
        <ele>170</ele>
        <time>2018-07-05T08:38:02Z</time>
      </trkpt>
      <trkpt lat="45.93466" lon="4.77056">
        <ele>170</ele>
        <time>2018-07-05T08:38:03Z</time>
      </trkpt>
      <trkpt lat="45.93468" lon="4.77065">
        <ele>170</ele>
        <time>2018-07-05T08:38:04Z</time>
      </trkpt>
      <trkpt lat="45.9347" lon="4.77074">
        <ele>170</ele>
        <time>2018-07-05T08:38:05Z</time>
      </trkpt>
      <trkpt lat="45.93471" lon="4.77082">
        <ele>170</ele>
        <time>2018-07-05T08:38:06Z</time>
      </trkpt>
      <trkpt lat="45.93473" lon="4.7709">
        <ele>169</ele>
        <time>2018-07-05T08:38:07Z</time>
      </trkpt>
      <trkpt lat="45.93475" lon="4.77099">
        <ele>169</ele>
        <time>2018-07-05T08:38:08Z</time>
      </trkpt>
      <trkpt lat="45.93477" lon="4.77108">
        <ele>169</ele>
        <time>2018-07-05T08:38:09Z</time>
      </trkpt>
      <trkpt lat="45.93478" lon="4.77116">
        <ele>169</ele>
        <time>2018-07-05T08:38:10Z</time>
      </trkpt>
      <trkpt lat="45.9348" lon="4.77124">
        <ele>169</ele>
        <time>2018-07-05T08:38:11Z</time>
      </trkpt>
      <trkpt lat="45.93483" lon="4.77133">
        <ele>169</ele>
        <time>2018-07-05T08:38:12Z</time>
      </trkpt>
      <trkpt lat="45.93485" lon="4.77142">
        <ele>169</ele>
        <time>2018-07-05T08:38:13Z</time>
      </trkpt>
      <trkpt lat="45.93486" lon="4.7715">
        <ele>169</ele>
        <time>2018-07-05T08:38:14Z</time>
      </trkpt>
      <trkpt lat="45.93487" lon="4.77158">
        <ele>169</ele>
        <time>2018-07-05T08:38:15Z</time>
      </trkpt>
      <trkpt lat="45.9349" lon="4.77165">
        <ele>169</ele>
        <time>2018-07-05T08:38:16Z</time>
      </trkpt>
      <trkpt lat="45.93491" lon="4.77174">
        <ele>169</ele>
        <time>2018-07-05T08:38:17Z</time>
      </trkpt>
      <trkpt lat="45.93493" lon="4.77183">
        <ele>169</ele>
        <time>2018-07-05T08:38:18Z</time>
      </trkpt>
      <trkpt lat="45.93495" lon="4.77192">
        <ele>169</ele>
        <time>2018-07-05T08:38:19Z</time>
      </trkpt>
      <trkpt lat="45.93496" lon="4.77199">
        <ele>169</ele>
        <time>2018-07-05T08:38:20Z</time>
      </trkpt>
      <trkpt lat="45.93497" lon="4.77207">
        <ele>169</ele>
        <time>2018-07-05T08:38:21Z</time>
      </trkpt>
      <trkpt lat="45.93499" lon="4.77215">
        <ele>169</ele>
        <time>2018-07-05T08:38:22Z</time>
      </trkpt>
      <trkpt lat="45.935" lon="4.77223">
        <ele>169</ele>
        <time>2018-07-05T08:38:23Z</time>
      </trkpt>
      <trkpt lat="45.93503" lon="4.77232">
        <ele>169</ele>
        <time>2018-07-05T08:38:24Z</time>
      </trkpt>
      <trkpt lat="45.93504" lon="4.7724">
        <ele>169</ele>
        <time>2018-07-05T08:38:25Z</time>
      </trkpt>
      <trkpt lat="45.93506" lon="4.77248">
        <ele>170</ele>
        <time>2018-07-05T08:38:26Z</time>
      </trkpt>
      <trkpt lat="45.93507" lon="4.77257">
        <ele>170</ele>
        <time>2018-07-05T08:38:27Z</time>
      </trkpt>
      <trkpt lat="45.93509" lon="4.77265">
        <ele>170</ele>
        <time>2018-07-05T08:38:28Z</time>
      </trkpt>
      <trkpt lat="45.93513" lon="4.77272">
        <ele>170</ele>
        <time>2018-07-05T08:38:29Z</time>
      </trkpt>
      <trkpt lat="45.93515" lon="4.77281">
        <ele>170</ele>
        <time>2018-07-05T08:38:30Z</time>
      </trkpt>
      <trkpt lat="45.93517" lon="4.77288">
        <ele>170</ele>
        <time>2018-07-05T08:38:31Z</time>
      </trkpt>
      <trkpt lat="45.93519" lon="4.77295">
        <ele>170</ele>
        <time>2018-07-05T08:38:32Z</time>
      </trkpt>
      <trkpt lat="45.9352" lon="4.77302">
        <ele>170</ele>
        <time>2018-07-05T08:38:33Z</time>
      </trkpt>
      <trkpt lat="45.93521" lon="4.77311">
        <ele>170</ele>
        <time>2018-07-05T08:38:34Z</time>
      </trkpt>
      <trkpt lat="45.93523" lon="4.77318">
        <ele>170</ele>
        <time>2018-07-05T08:38:35Z</time>
      </trkpt>
      <trkpt lat="45.93524" lon="4.77325">
        <ele>170</ele>
        <time>2018-07-05T08:38:36Z</time>
      </trkpt>
      <trkpt lat="45.93526" lon="4.77333">
        <ele>170</ele>
        <time>2018-07-05T08:38:37Z</time>
      </trkpt>
      <trkpt lat="45.93528" lon="4.77341">
        <ele>170</ele>
        <time>2018-07-05T08:38:38Z</time>
      </trkpt>
      <trkpt lat="45.93529" lon="4.77349">
        <ele>170</ele>
        <time>2018-07-05T08:38:39Z</time>
      </trkpt>
      <trkpt lat="45.93531" lon="4.77356">
        <ele>170</ele>
        <time>2018-07-05T08:38:40Z</time>
      </trkpt>
      <trkpt lat="45.93532" lon="4.77363">
        <ele>170</ele>
        <time>2018-07-05T08:38:41Z</time>
      </trkpt>
      <trkpt lat="45.93534" lon="4.77371">
        <ele>170</ele>
        <time>2018-07-05T08:38:42Z</time>
      </trkpt>
      <trkpt lat="45.93536" lon="4.7738">
        <ele>170</ele>
        <time>2018-07-05T08:38:43Z</time>
      </trkpt>
      <trkpt lat="45.93538" lon="4.77387">
        <ele>170</ele>
        <time>2018-07-05T08:38:44Z</time>
      </trkpt>
      <trkpt lat="45.93541" lon="4.77397">
        <ele>170</ele>
        <time>2018-07-05T08:38:45Z</time>
      </trkpt>
      <trkpt lat="45.93543" lon="4.77404">
        <ele>170</ele>
        <time>2018-07-05T08:38:46Z</time>
      </trkpt>
      <trkpt lat="45.93545" lon="4.77412">
        <ele>170</ele>
        <time>2018-07-05T08:38:47Z</time>
      </trkpt>
      <trkpt lat="45.93546" lon="4.7742">
        <ele>170</ele>
        <time>2018-07-05T08:38:48Z</time>
      </trkpt>
      <trkpt lat="45.93548" lon="4.7743">
        <ele>169</ele>
        <time>2018-07-05T08:38:49Z</time>
      </trkpt>
      <trkpt lat="45.9355" lon="4.77437">
        <ele>169</ele>
        <time>2018-07-05T08:38:50Z</time>
      </trkpt>
      <trkpt lat="45.93551" lon="4.77446">
        <ele>169</ele>
        <time>2018-07-05T08:38:51Z</time>
      </trkpt>
      <trkpt lat="45.93553" lon="4.77454">
        <ele>169</ele>
        <time>2018-07-05T08:38:52Z</time>
      </trkpt>
      <trkpt lat="45.93555" lon="4.77463">
        <ele>169</ele>
        <time>2018-07-05T08:38:53Z</time>
      </trkpt>
      <trkpt lat="45.93555" lon="4.7747">
        <ele>169</ele>
        <time>2018-07-05T08:38:54Z</time>
      </trkpt>
      <trkpt lat="45.93556" lon="4.77477">
        <ele>169</ele>
        <time>2018-07-05T08:38:55Z</time>
      </trkpt>
      <trkpt lat="45.93559" lon="4.77489">
        <ele>169</ele>
        <time>2018-07-05T08:38:57Z</time>
      </trkpt>
      <trkpt lat="45.93558" lon="4.77494">
        <ele>169</ele>
        <time>2018-07-05T08:38:58Z</time>
      </trkpt>
      <trkpt lat="45.93563" lon="4.77505">
        <ele>169</ele>
        <time>2018-07-05T08:38:59Z</time>
      </trkpt>
      <trkpt lat="45.93563" lon="4.77512">
        <ele>169</ele>
        <time>2018-07-05T08:39:00Z</time>
      </trkpt>
      <trkpt lat="45.93565" lon="4.77519">
        <ele>169</ele>
        <time>2018-07-05T08:39:01Z</time>
      </trkpt>
      <trkpt lat="45.93568" lon="4.77528">
        <ele>169</ele>
        <time>2018-07-05T08:39:02Z</time>
      </trkpt>
      <trkpt lat="45.9357" lon="4.77537">
        <ele>169</ele>
        <time>2018-07-05T08:39:03Z</time>
      </trkpt>
      <trkpt lat="45.93573" lon="4.77545">
        <ele>169</ele>
        <time>2018-07-05T08:39:04Z</time>
      </trkpt>
      <trkpt lat="45.93575" lon="4.77552">
        <ele>169</ele>
        <time>2018-07-05T08:39:05Z</time>
      </trkpt>
      <trkpt lat="45.93578" lon="4.7756">
        <ele>169</ele>
        <time>2018-07-05T08:39:06Z</time>
      </trkpt>
      <trkpt lat="45.93579" lon="4.77569">
        <ele>170</ele>
        <time>2018-07-05T08:39:07Z</time>
      </trkpt>
      <trkpt lat="45.93582" lon="4.77578">
        <ele>170</ele>
        <time>2018-07-05T08:39:08Z</time>
      </trkpt>
      <trkpt lat="45.93585" lon="4.77588">
        <ele>170</ele>
        <time>2018-07-05T08:39:09Z</time>
      </trkpt>
      <trkpt lat="45.93587" lon="4.77595">
        <ele>170</ele>
        <time>2018-07-05T08:39:10Z</time>
      </trkpt>
      <trkpt lat="45.93589" lon="4.77605">
        <ele>170</ele>
        <time>2018-07-05T08:39:11Z</time>
      </trkpt>
      <trkpt lat="45.93592" lon="4.77612">
        <ele>170</ele>
        <time>2018-07-05T08:39:12Z</time>
      </trkpt>
      <trkpt lat="45.93594" lon="4.77619">
        <ele>170</ele>
        <time>2018-07-05T08:39:13Z</time>
      </trkpt>
      <trkpt lat="45.93596" lon="4.77626">
        <ele>169</ele>
        <time>2018-07-05T08:39:14Z</time>
      </trkpt>
      <trkpt lat="45.93598" lon="4.77632">
        <ele>169</ele>
        <time>2018-07-05T08:39:15Z</time>
      </trkpt>
      <trkpt lat="45.93601" lon="4.77639">
        <ele>169</ele>
        <time>2018-07-05T08:39:16Z</time>
      </trkpt>
      <trkpt lat="45.93603" lon="4.77645">
        <ele>169</ele>
        <time>2018-07-05T08:39:17Z</time>
      </trkpt>
      <trkpt lat="45.93606" lon="4.77653">
        <ele>169</ele>
        <time>2018-07-05T08:39:18Z</time>
      </trkpt>
      <trkpt lat="45.93609" lon="4.77659">
        <ele>169</ele>
        <time>2018-07-05T08:39:19Z</time>
      </trkpt>
      <trkpt lat="45.93611" lon="4.77666">
        <ele>169</ele>
        <time>2018-07-05T08:39:20Z</time>
      </trkpt>
      <trkpt lat="45.93614" lon="4.77673">
        <ele>169</ele>
        <time>2018-07-05T08:39:21Z</time>
      </trkpt>
      <trkpt lat="45.93615" lon="4.77675">
        <ele>169</ele>
        <time>2018-07-05T08:39:22Z</time>
      </trkpt>
      <trkpt lat="45.93619" lon="4.77684">
        <ele>169</ele>
        <time>2018-07-05T08:39:23Z</time>
      </trkpt>
      <trkpt lat="45.93623" lon="4.77689">
        <ele>169</ele>
        <time>2018-07-05T08:39:24Z</time>
      </trkpt>
      <trkpt lat="45.93625" lon="4.77696">
        <ele>169</ele>
        <time>2018-07-05T08:39:25Z</time>
      </trkpt>
      <trkpt lat="45.93627" lon="4.77702">
        <ele>169</ele>
        <time>2018-07-05T08:39:26Z</time>
      </trkpt>
      <trkpt lat="45.9363" lon="4.77708">
        <ele>170</ele>
        <time>2018-07-05T08:39:27Z</time>
      </trkpt>
      <trkpt lat="45.93633" lon="4.77714">
        <ele>170</ele>
        <time>2018-07-05T08:39:28Z</time>
      </trkpt>
      <trkpt lat="45.93636" lon="4.77718">
        <ele>170</ele>
        <time>2018-07-05T08:39:29Z</time>
      </trkpt>
      <trkpt lat="45.93639" lon="4.77724">
        <ele>170</ele>
        <time>2018-07-05T08:39:30Z</time>
      </trkpt>
      <trkpt lat="45.93642" lon="4.77729">
        <ele>170</ele>
        <time>2018-07-05T08:39:31Z</time>
      </trkpt>
      <trkpt lat="45.93647" lon="4.77738">
        <ele>170</ele>
        <time>2018-07-05T08:39:33Z</time>
      </trkpt>
      <trkpt lat="45.9365" lon="4.77742">
        <ele>170</ele>
        <time>2018-07-05T08:39:34Z</time>
      </trkpt>
      <trkpt lat="45.93656" lon="4.77749">
        <ele>170</ele>
        <time>2018-07-05T08:39:36Z</time>
      </trkpt>
      <trkpt lat="45.93659" lon="4.77753">
        <ele>171</ele>
        <time>2018-07-05T08:39:37Z</time>
      </trkpt>
      <trkpt lat="45.93665" lon="4.77761">
        <ele>171</ele>
        <time>2018-07-05T08:39:39Z</time>
      </trkpt>
      <trkpt lat="45.93667" lon="4.77765">
        <ele>170</ele>
        <time>2018-07-05T08:39:40Z</time>
      </trkpt>
      <trkpt lat="45.93673" lon="4.77773">
        <ele>170</ele>
        <time>2018-07-05T08:39:42Z</time>
      </trkpt>
      <trkpt lat="45.93676" lon="4.77777">
        <ele>170</ele>
        <time>2018-07-05T08:39:43Z</time>
      </trkpt>
      <trkpt lat="45.93682" lon="4.77785">
        <ele>170</ele>
        <time>2018-07-05T08:39:45Z</time>
      </trkpt>
      <trkpt lat="45.93685" lon="4.7779">
        <ele>170</ele>
        <time>2018-07-05T08:39:46Z</time>
      </trkpt>
      <trkpt lat="45.93688" lon="4.77794">
        <ele>170</ele>
        <time>2018-07-05T08:39:47Z</time>
      </trkpt>
      <trkpt lat="45.93691" lon="4.77799">
        <ele>169</ele>
        <time>2018-07-05T08:39:48Z</time>
      </trkpt>
      <trkpt lat="45.93697" lon="4.77807">
        <ele>169</ele>
        <time>2018-07-05T08:39:50Z</time>
      </trkpt>
      <trkpt lat="45.937" lon="4.77812">
        <ele>169</ele>
        <time>2018-07-05T08:39:51Z</time>
      </trkpt>
      <trkpt lat="45.93706" lon="4.77819">
        <ele>169</ele>
        <time>2018-07-05T08:39:53Z</time>
      </trkpt>
      <trkpt lat="45.93709" lon="4.77823">
        <ele>169</ele>
        <time>2018-07-05T08:39:54Z</time>
      </trkpt>
      <trkpt lat="45.93715" lon="4.77831">
        <ele>169</ele>
        <time>2018-07-05T08:39:56Z</time>
      </trkpt>
      <trkpt lat="45.93719" lon="4.77835">
        <ele>167</ele>
        <time>2018-07-05T08:39:57Z</time>
      </trkpt>
      <trkpt lat="45.93725" lon="4.77843">
        <ele>167</ele>
        <time>2018-07-05T08:39:59Z</time>
      </trkpt>
      <trkpt lat="45.93728" lon="4.77847">
        <ele>167</ele>
        <time>2018-07-05T08:40:00Z</time>
      </trkpt>
      <trkpt lat="45.93731" lon="4.77851">
        <ele>167</ele>
        <time>2018-07-05T08:40:01Z</time>
      </trkpt>
      <trkpt lat="45.93735" lon="4.77856">
        <ele>167</ele>
        <time>2018-07-05T08:40:02Z</time>
      </trkpt>
      <trkpt lat="45.9374" lon="4.77865">
        <ele>167</ele>
        <time>2018-07-05T08:40:04Z</time>
      </trkpt>
      <trkpt lat="45.93744" lon="4.77869">
        <ele>167</ele>
        <time>2018-07-05T08:40:05Z</time>
      </trkpt>
      <trkpt lat="45.9375" lon="4.77877">
        <ele>166</ele>
        <time>2018-07-05T08:40:07Z</time>
      </trkpt>
      <trkpt lat="45.93753" lon="4.77882">
        <ele>166</ele>
        <time>2018-07-05T08:40:08Z</time>
      </trkpt>
      <trkpt lat="45.9376" lon="4.77889">
        <ele>166</ele>
        <time>2018-07-05T08:40:10Z</time>
      </trkpt>
      <trkpt lat="45.93764" lon="4.77893">
        <ele>166</ele>
        <time>2018-07-05T08:40:11Z</time>
      </trkpt>
      <trkpt lat="45.93769" lon="4.77902">
        <ele>166</ele>
        <time>2018-07-05T08:40:13Z</time>
      </trkpt>
      <trkpt lat="45.93773" lon="4.77906">
        <ele>166</ele>
        <time>2018-07-05T08:40:14Z</time>
      </trkpt>
      <trkpt lat="45.93781" lon="4.77913">
        <ele>166</ele>
        <time>2018-07-05T08:40:16Z</time>
      </trkpt>
      <trkpt lat="45.93784" lon="4.77917">
        <ele>168</ele>
        <time>2018-07-05T08:40:17Z</time>
      </trkpt>
      <trkpt lat="45.93787" lon="4.77922">
        <ele>168</ele>
        <time>2018-07-05T08:40:18Z</time>
      </trkpt>
      <trkpt lat="45.93791" lon="4.77927">
        <ele>168</ele>
        <time>2018-07-05T08:40:19Z</time>
      </trkpt>
      <trkpt lat="45.93794" lon="4.77931">
        <ele>168</ele>
        <time>2018-07-05T08:40:20Z</time>
      </trkpt>
      <trkpt lat="45.93798" lon="4.77936">
        <ele>169</ele>
        <time>2018-07-05T08:40:21Z</time>
      </trkpt>
      <trkpt lat="45.93802" lon="4.77941">
        <ele>169</ele>
        <time>2018-07-05T08:40:22Z</time>
      </trkpt>
      <trkpt lat="45.93806" lon="4.77947">
        <ele>169</ele>
        <time>2018-07-05T08:40:23Z</time>
      </trkpt>
      <trkpt lat="45.9381" lon="4.77952">
        <ele>170</ele>
        <time>2018-07-05T08:40:24Z</time>
      </trkpt>
      <trkpt lat="45.93814" lon="4.77958">
        <ele>170</ele>
        <time>2018-07-05T08:40:25Z</time>
      </trkpt>
      <trkpt lat="45.93817" lon="4.77963">
        <ele>171</ele>
        <time>2018-07-05T08:40:26Z</time>
      </trkpt>
      <trkpt lat="45.93821" lon="4.77969">
        <ele>171</ele>
        <time>2018-07-05T08:40:27Z</time>
      </trkpt>
      <trkpt lat="45.93825" lon="4.77974">
        <ele>172</ele>
        <time>2018-07-05T08:40:28Z</time>
      </trkpt>
      <trkpt lat="45.93828" lon="4.7798">
        <ele>173</ele>
        <time>2018-07-05T08:40:29Z</time>
      </trkpt>
      <trkpt lat="45.93833" lon="4.7799">
        <ele>176</ele>
        <time>2018-07-05T08:40:32Z</time>
      </trkpt>
      <trkpt lat="45.93836" lon="4.77997">
        <ele>179</ele>
        <time>2018-07-05T08:40:33Z</time>
      </trkpt>
      <trkpt lat="45.93839" lon="4.78008">
        <ele>180</ele>
        <time>2018-07-05T08:40:35Z</time>
      </trkpt>
      <trkpt lat="45.93839" lon="4.78014">
        <ele>181</ele>
        <time>2018-07-05T08:40:36Z</time>
      </trkpt>
      <trkpt lat="45.93841" lon="4.78021">
        <ele>182</ele>
        <time>2018-07-05T08:40:37Z</time>
      </trkpt>
      <trkpt lat="45.93845" lon="4.78029">
        <ele>182</ele>
        <time>2018-07-05T08:40:38Z</time>
      </trkpt>
      <trkpt lat="45.9385" lon="4.78037">
        <ele>182</ele>
        <time>2018-07-05T08:40:40Z</time>
      </trkpt>
      <trkpt lat="45.93854" lon="4.78038">
        <ele>183</ele>
        <time>2018-07-05T08:40:41Z</time>
      </trkpt>
      <trkpt lat="45.93859" lon="4.78036">
        <ele>183</ele>
        <time>2018-07-05T08:40:43Z</time>
      </trkpt>
      <trkpt lat="45.93867" lon="4.78035">
        <ele>183</ele>
        <time>2018-07-05T08:40:44Z</time>
      </trkpt>
      <trkpt lat="45.93874" lon="4.78031">
        <ele>184</ele>
        <time>2018-07-05T08:40:46Z</time>
      </trkpt>
      <trkpt lat="45.93877" lon="4.7803">
        <ele>184</ele>
        <time>2018-07-05T08:40:47Z</time>
      </trkpt>
      <trkpt lat="45.93882" lon="4.78026">
        <ele>184</ele>
        <time>2018-07-05T08:40:49Z</time>
      </trkpt>
      <trkpt lat="45.93888" lon="4.78021">
        <ele>184</ele>
        <time>2018-07-05T08:40:50Z</time>
      </trkpt>
      <trkpt lat="45.93893" lon="4.78014">
        <ele>184</ele>
        <time>2018-07-05T08:40:53Z</time>
      </trkpt>
      <trkpt lat="45.93895" lon="4.78012">
        <ele>184</ele>
        <time>2018-07-05T08:40:54Z</time>
      </trkpt>
      <trkpt lat="45.93901" lon="4.78004">
        <ele>185</ele>
        <time>2018-07-05T08:40:57Z</time>
      </trkpt>
      <trkpt lat="45.93904" lon="4.78001">
        <ele>185</ele>
        <time>2018-07-05T08:40:58Z</time>
      </trkpt>
      <trkpt lat="45.9391" lon="4.77996">
        <ele>184</ele>
        <time>2018-07-05T08:41:01Z</time>
      </trkpt>
      <trkpt lat="45.93911" lon="4.77995">
        <ele>184</ele>
        <time>2018-07-05T08:41:02Z</time>
      </trkpt>
      <trkpt lat="45.93918" lon="4.7799">
        <ele>187</ele>
        <time>2018-07-05T08:41:06Z</time>
      </trkpt>
      <trkpt lat="45.9392" lon="4.77988">
        <ele>187</ele>
        <time>2018-07-05T08:41:07Z</time>
      </trkpt>
      <trkpt lat="45.93927" lon="4.77982">
        <ele>188</ele>
        <time>2018-07-05T08:41:11Z</time>
      </trkpt>
      <trkpt lat="45.93929" lon="4.77981">
        <ele>188</ele>
        <time>2018-07-05T08:41:12Z</time>
      </trkpt>
      <trkpt lat="45.93935" lon="4.77977">
        <ele>189</ele>
        <time>2018-07-05T08:41:15Z</time>
      </trkpt>
      <trkpt lat="45.93938" lon="4.77975">
        <ele>189</ele>
        <time>2018-07-05T08:41:16Z</time>
      </trkpt>
      <trkpt lat="45.93945" lon="4.7797">
        <ele>189</ele>
        <time>2018-07-05T08:41:20Z</time>
      </trkpt>
      <trkpt lat="45.93947" lon="4.77969">
        <ele>189</ele>
        <time>2018-07-05T08:41:21Z</time>
      </trkpt>
      <trkpt lat="45.93953" lon="4.77964">
        <ele>190</ele>
        <time>2018-07-05T08:41:25Z</time>
      </trkpt>
      <trkpt lat="45.93955" lon="4.77962">
        <ele>190</ele>
        <time>2018-07-05T08:41:26Z</time>
      </trkpt>
      <trkpt lat="45.93961" lon="4.77958">
        <ele>190</ele>
        <time>2018-07-05T08:41:29Z</time>
      </trkpt>
      <trkpt lat="45.93963" lon="4.77957">
        <ele>190</ele>
        <time>2018-07-05T08:41:30Z</time>
      </trkpt>
      <trkpt lat="45.93971" lon="4.77952">
        <ele>191</ele>
        <time>2018-07-05T08:41:31Z</time>
      </trkpt>
      <trkpt lat="45.93972" lon="4.77951">
        <ele>191</ele>
        <time>2018-07-05T08:41:32Z</time>
      </trkpt>
      <trkpt lat="45.9398" lon="4.77948">
        <ele>191</ele>
        <time>2018-07-05T08:41:37Z</time>
      </trkpt>
      <trkpt lat="45.93981" lon="4.77947">
        <ele>191</ele>
        <time>2018-07-05T08:41:38Z</time>
      </trkpt>
      <trkpt lat="45.93989" lon="4.77943">
        <ele>192</ele>
        <time>2018-07-05T08:41:43Z</time>
      </trkpt>
      <trkpt lat="45.93991" lon="4.77943">
        <ele>192</ele>
        <time>2018-07-05T08:41:44Z</time>
      </trkpt>
      <trkpt lat="45.93998" lon="4.7794">
        <ele>192</ele>
        <time>2018-07-05T08:41:48Z</time>
      </trkpt>
      <trkpt lat="45.94" lon="4.77939">
        <ele>192</ele>
        <time>2018-07-05T08:41:49Z</time>
      </trkpt>
      <trkpt lat="45.94008" lon="4.77942">
        <ele>199</ele>
        <time>2018-07-05T08:41:54Z</time>
      </trkpt>
      <trkpt lat="45.94009" lon="4.77944">
        <ele>199</ele>
        <time>2018-07-05T08:41:55Z</time>
      </trkpt>
      <trkpt lat="45.94013" lon="4.77954">
        <ele>199</ele>
        <time>2018-07-05T08:42:00Z</time>
      </trkpt>
      <trkpt lat="45.94014" lon="4.77956">
        <ele>200</ele>
        <time>2018-07-05T08:42:01Z</time>
      </trkpt>
      <trkpt lat="45.94013" lon="4.77966">
        <ele>200</ele>
        <time>2018-07-05T08:42:05Z</time>
      </trkpt>
      <trkpt lat="45.94013" lon="4.77969">
        <ele>200</ele>
        <time>2018-07-05T08:42:06Z</time>
      </trkpt>
      <trkpt lat="45.94011" lon="4.77979">
        <ele>199</ele>
        <time>2018-07-05T08:42:09Z</time>
      </trkpt>
      <trkpt lat="45.9401" lon="4.77983">
        <ele>199</ele>
        <time>2018-07-05T08:42:10Z</time>
      </trkpt>
      <trkpt lat="45.9401" lon="4.77993">
        <ele>198</ele>
        <time>2018-07-05T08:42:13Z</time>
      </trkpt>
      <trkpt lat="45.94009" lon="4.77997">
        <ele>198</ele>
        <time>2018-07-05T08:42:14Z</time>
      </trkpt>
      <trkpt lat="45.94008" lon="4.78009">
        <ele>199</ele>
        <time>2018-07-05T08:42:17Z</time>
      </trkpt>
      <trkpt lat="45.94007" lon="4.78013">
        <ele>199</ele>
        <time>2018-07-05T08:42:18Z</time>
      </trkpt>
      <trkpt lat="45.94006" lon="4.78026">
        <ele>200</ele>
        <time>2018-07-05T08:42:21Z</time>
      </trkpt>
      <trkpt lat="45.94005" lon="4.7803">
        <ele>201</ele>
        <time>2018-07-05T08:42:22Z</time>
      </trkpt>
      <trkpt lat="45.94004" lon="4.78038">
        <ele>201</ele>
        <time>2018-07-05T08:42:24Z</time>
      </trkpt>
      <trkpt lat="45.94003" lon="4.78042">
        <ele>201</ele>
        <time>2018-07-05T08:42:25Z</time>
      </trkpt>
      <trkpt lat="45.94001" lon="4.78051">
        <ele>201</ele>
        <time>2018-07-05T08:42:27Z</time>
      </trkpt>
      <trkpt lat="45.94" lon="4.78056">
        <ele>195</ele>
        <time>2018-07-05T08:42:28Z</time>
      </trkpt>
      <trkpt lat="45.93998" lon="4.78065">
        <ele>196</ele>
        <time>2018-07-05T08:42:30Z</time>
      </trkpt>
      <trkpt lat="45.93997" lon="4.7807">
        <ele>197</ele>
        <time>2018-07-05T08:42:31Z</time>
      </trkpt>
      <trkpt lat="45.93996" lon="4.7808">
        <ele>198</ele>
        <time>2018-07-05T08:42:33Z</time>
      </trkpt>
      <trkpt lat="45.93996" lon="4.78084">
        <ele>198</ele>
        <time>2018-07-05T08:42:34Z</time>
      </trkpt>
      <trkpt lat="45.93995" lon="4.78093">
        <ele>198</ele>
        <time>2018-07-05T08:42:36Z</time>
      </trkpt>
      <trkpt lat="45.93994" lon="4.78097">
        <ele>198</ele>
        <time>2018-07-05T08:42:37Z</time>
      </trkpt>
      <trkpt lat="45.93993" lon="4.78106">
        <ele>197</ele>
        <time>2018-07-05T08:42:39Z</time>
      </trkpt>
      <trkpt lat="45.93992" lon="4.7811">
        <ele>197</ele>
        <time>2018-07-05T08:42:40Z</time>
      </trkpt>
      <trkpt lat="45.93992" lon="4.78115">
        <ele>197</ele>
        <time>2018-07-05T08:42:41Z</time>
      </trkpt>
      <trkpt lat="45.9399" lon="4.78129">
        <ele>197</ele>
        <time>2018-07-05T08:42:42Z</time>
      </trkpt>
      <trkpt lat="45.93989" lon="4.78142">
        <ele>198</ele>
        <time>2018-07-05T08:42:44Z</time>
      </trkpt>
      <trkpt lat="45.93988" lon="4.78148">
        <ele>198</ele>
        <time>2018-07-05T08:42:45Z</time>
      </trkpt>
      <trkpt lat="45.93989" lon="4.7816">
        <ele>199</ele>
        <time>2018-07-05T08:42:48Z</time>
      </trkpt>
      <trkpt lat="45.9399" lon="4.78163">
        <ele>199</ele>
        <time>2018-07-05T08:42:49Z</time>
      </trkpt>
      <trkpt lat="45.93996" lon="4.78171">
        <ele>200</ele>
        <time>2018-07-05T08:42:52Z</time>
      </trkpt>
      <trkpt lat="45.93999" lon="4.78172">
        <ele>200</ele>
        <time>2018-07-05T08:42:53Z</time>
      </trkpt>
      <trkpt lat="45.94007" lon="4.78176">
        <ele>202</ele>
        <time>2018-07-05T08:42:56Z</time>
      </trkpt>
      <trkpt lat="45.94009" lon="4.78177">
        <ele>203</ele>
        <time>2018-07-05T08:42:57Z</time>
      </trkpt>
      <trkpt lat="45.94016" lon="4.78181">
        <ele>203</ele>
        <time>2018-07-05T08:43:00Z</time>
      </trkpt>
      <trkpt lat="45.94018" lon="4.78181">
        <ele>203</ele>
        <time>2018-07-05T08:43:01Z</time>
      </trkpt>
      <trkpt lat="45.94026" lon="4.78185">
        <ele>204</ele>
        <time>2018-07-05T08:43:05Z</time>
      </trkpt>
      <trkpt lat="45.94029" lon="4.78186">
        <ele>204</ele>
        <time>2018-07-05T08:43:06Z</time>
      </trkpt>
      <trkpt lat="45.94037" lon="4.78189">
        <ele>205</ele>
        <time>2018-07-05T08:43:09Z</time>
      </trkpt>
      <trkpt lat="45.94039" lon="4.78191">
        <ele>205</ele>
        <time>2018-07-05T08:43:10Z</time>
      </trkpt>
      <trkpt lat="45.94046" lon="4.78197">
        <ele>205</ele>
        <time>2018-07-05T08:43:13Z</time>
      </trkpt>
      <trkpt lat="45.94048" lon="4.78199">
        <ele>205</ele>
        <time>2018-07-05T08:43:14Z</time>
      </trkpt>
      <trkpt lat="45.94055" lon="4.78204">
        <ele>206</ele>
        <time>2018-07-05T08:43:17Z</time>
      </trkpt>
      <trkpt lat="45.94057" lon="4.78206">
        <ele>206</ele>
        <time>2018-07-05T08:43:18Z</time>
      </trkpt>
      <trkpt lat="45.94062" lon="4.78213">
        <ele>206</ele>
        <time>2018-07-05T08:43:21Z</time>
      </trkpt>
      <trkpt lat="45.94064" lon="4.78215">
        <ele>206</ele>
        <time>2018-07-05T08:43:22Z</time>
      </trkpt>
      <trkpt lat="45.94071" lon="4.78221">
        <ele>206</ele>
        <time>2018-07-05T08:43:26Z</time>
      </trkpt>
      <trkpt lat="45.94073" lon="4.78222">
        <ele>206</ele>
        <time>2018-07-05T08:43:27Z</time>
      </trkpt>
      <trkpt lat="45.94082" lon="4.78227">
        <ele>206</ele>
        <time>2018-07-05T08:43:31Z</time>
      </trkpt>
      <trkpt lat="45.94084" lon="4.78228">
        <ele>212</ele>
        <time>2018-07-05T08:43:32Z</time>
      </trkpt>
      <trkpt lat="45.94091" lon="4.78234">
        <ele>212</ele>
        <time>2018-07-05T08:43:36Z</time>
      </trkpt>
      <trkpt lat="45.94093" lon="4.78236">
        <ele>212</ele>
        <time>2018-07-05T08:43:37Z</time>
      </trkpt>
      <trkpt lat="45.94099" lon="4.78241">
        <ele>212</ele>
        <time>2018-07-05T08:43:40Z</time>
      </trkpt>
      <trkpt lat="45.94102" lon="4.78243">
        <ele>212</ele>
        <time>2018-07-05T08:43:41Z</time>
      </trkpt>
      <trkpt lat="45.94108" lon="4.78247">
        <ele>213</ele>
        <time>2018-07-05T08:43:44Z</time>
      </trkpt>
      <trkpt lat="45.9411" lon="4.78248">
        <ele>213</ele>
        <time>2018-07-05T08:43:45Z</time>
      </trkpt>
      <trkpt lat="45.94117" lon="4.78253">
        <ele>213</ele>
        <time>2018-07-05T08:43:48Z</time>
      </trkpt>
      <trkpt lat="45.9412" lon="4.78255">
        <ele>213</ele>
        <time>2018-07-05T08:43:49Z</time>
      </trkpt>
      <trkpt lat="45.94127" lon="4.78259">
        <ele>214</ele>
        <time>2018-07-05T08:43:52Z</time>
      </trkpt>
      <trkpt lat="45.94129" lon="4.7826">
        <ele>214</ele>
        <time>2018-07-05T08:43:53Z</time>
      </trkpt>
      <trkpt lat="45.94137" lon="4.78264">
        <ele>215</ele>
        <time>2018-07-05T08:43:56Z</time>
      </trkpt>
      <trkpt lat="45.9414" lon="4.78265">
        <ele>215</ele>
        <time>2018-07-05T08:43:57Z</time>
      </trkpt>
      <trkpt lat="45.94147" lon="4.78269">
        <ele>215</ele>
        <time>2018-07-05T08:44:00Z</time>
      </trkpt>
      <trkpt lat="45.94154" lon="4.78274">
        <ele>216</ele>
        <time>2018-07-05T08:44:01Z</time>
      </trkpt>
      <trkpt lat="45.94161" lon="4.78279">
        <ele>216</ele>
        <time>2018-07-05T08:44:05Z</time>
      </trkpt>
      <trkpt lat="45.94163" lon="4.7828">
        <ele>216</ele>
        <time>2018-07-05T08:44:06Z</time>
      </trkpt>
      <trkpt lat="45.94168" lon="4.78287">
        <ele>220</ele>
        <time>2018-07-05T08:44:09Z</time>
      </trkpt>
      <trkpt lat="45.9417" lon="4.78289">
        <ele>220</ele>
        <time>2018-07-05T08:44:10Z</time>
      </trkpt>
      <trkpt lat="45.94177" lon="4.78294">
        <ele>220</ele>
        <time>2018-07-05T08:44:13Z</time>
      </trkpt>
      <trkpt lat="45.94179" lon="4.78296">
        <ele>220</ele>
        <time>2018-07-05T08:44:14Z</time>
      </trkpt>
      <trkpt lat="45.94185" lon="4.78298">
        <ele>221</ele>
        <time>2018-07-05T08:44:16Z</time>
      </trkpt>
      <trkpt lat="45.94188" lon="4.78299">
        <ele>221</ele>
        <time>2018-07-05T08:44:17Z</time>
      </trkpt>
      <trkpt lat="45.94195" lon="4.783">
        <ele>221</ele>
        <time>2018-07-05T08:44:19Z</time>
      </trkpt>
      <trkpt lat="45.94198" lon="4.783">
        <ele>221</ele>
        <time>2018-07-05T08:44:20Z</time>
      </trkpt>
      <trkpt lat="45.94207" lon="4.78301">
        <ele>221</ele>
        <time>2018-07-05T08:44:23Z</time>
      </trkpt>
      <trkpt lat="45.9421" lon="4.78301">
        <ele>221</ele>
        <time>2018-07-05T08:44:24Z</time>
      </trkpt>
      <trkpt lat="45.94219" lon="4.78302">
        <ele>221</ele>
        <time>2018-07-05T08:44:27Z</time>
      </trkpt>
      <trkpt lat="45.94221" lon="4.78302">
        <ele>222</ele>
        <time>2018-07-05T08:44:28Z</time>
      </trkpt>
      <trkpt lat="45.94228" lon="4.78304">
        <ele>222</ele>
        <time>2018-07-05T08:44:31Z</time>
      </trkpt>
      <trkpt lat="45.94231" lon="4.78304">
        <ele>222</ele>
        <time>2018-07-05T08:44:32Z</time>
      </trkpt>
      <trkpt lat="45.94238" lon="4.78306">
        <ele>222</ele>
        <time>2018-07-05T08:44:35Z</time>
      </trkpt>
      <trkpt lat="45.9424" lon="4.78307">
        <ele>222</ele>
        <time>2018-07-05T08:44:36Z</time>
      </trkpt>
      <trkpt lat="45.94247" lon="4.78308">
        <ele>222</ele>
        <time>2018-07-05T08:44:39Z</time>
      </trkpt>
      <trkpt lat="45.9425" lon="4.78309">
        <ele>226</ele>
        <time>2018-07-05T08:44:40Z</time>
      </trkpt>
      <trkpt lat="45.94256" lon="4.78311">
        <ele>226</ele>
        <time>2018-07-05T08:44:42Z</time>
      </trkpt>
      <trkpt lat="45.94259" lon="4.78313">
        <ele>226</ele>
        <time>2018-07-05T08:44:43Z</time>
      </trkpt>
      <trkpt lat="45.94265" lon="4.78316">
        <ele>226</ele>
        <time>2018-07-05T08:44:45Z</time>
      </trkpt>
      <trkpt lat="45.94268" lon="4.78318">
        <ele>226</ele>
        <time>2018-07-05T08:44:46Z</time>
      </trkpt>
      <trkpt lat="45.94273" lon="4.78322">
        <ele>227</ele>
        <time>2018-07-05T08:44:48Z</time>
      </trkpt>
      <trkpt lat="45.94276" lon="4.78324">
        <ele>227</ele>
        <time>2018-07-05T08:44:49Z</time>
      </trkpt>
      <trkpt lat="45.94283" lon="4.78329">
        <ele>228</ele>
        <time>2018-07-05T08:44:52Z</time>
      </trkpt>
      <trkpt lat="45.94285" lon="4.78331">
        <ele>228</ele>
        <time>2018-07-05T08:44:53Z</time>
      </trkpt>
      <trkpt lat="45.94292" lon="4.78339">
        <ele>228</ele>
        <time>2018-07-05T08:44:56Z</time>
      </trkpt>
      <trkpt lat="45.94294" lon="4.78342">
        <ele>228</ele>
        <time>2018-07-05T08:44:57Z</time>
      </trkpt>
      <trkpt lat="45.943" lon="4.7835">
        <ele>229</ele>
        <time>2018-07-05T08:45:00Z</time>
      </trkpt>
      <trkpt lat="45.94302" lon="4.78353">
        <ele>229</ele>
        <time>2018-07-05T08:45:01Z</time>
      </trkpt>
      <trkpt lat="45.94306" lon="4.78363">
        <ele>229</ele>
        <time>2018-07-05T08:45:04Z</time>
      </trkpt>
      <trkpt lat="45.94308" lon="4.78366">
        <ele>229</ele>
        <time>2018-07-05T08:45:05Z</time>
      </trkpt>
      <trkpt lat="45.94313" lon="4.78375">
        <ele>230</ele>
        <time>2018-07-05T08:45:08Z</time>
      </trkpt>
      <trkpt lat="45.94314" lon="4.78379">
        <ele>230</ele>
        <time>2018-07-05T08:45:09Z</time>
      </trkpt>
      <trkpt lat="45.94319" lon="4.78388">
        <ele>230</ele>
        <time>2018-07-05T08:45:12Z</time>
      </trkpt>
      <trkpt lat="45.9432" lon="4.78391">
        <ele>230</ele>
        <time>2018-07-05T08:45:13Z</time>
      </trkpt>
      <trkpt lat="45.94324" lon="4.78402">
        <ele>230</ele>
        <time>2018-07-05T08:45:16Z</time>
      </trkpt>
      <trkpt lat="45.94325" lon="4.78405">
        <ele>230</ele>
        <time>2018-07-05T08:45:17Z</time>
      </trkpt>
      <trkpt lat="45.9433" lon="4.78414">
        <ele>229</ele>
        <time>2018-07-05T08:45:20Z</time>
      </trkpt>
      <trkpt lat="45.94331" lon="4.78417">
        <ele>230</ele>
        <time>2018-07-05T08:45:21Z</time>
      </trkpt>
      <trkpt lat="45.94335" lon="4.78426">
        <ele>231</ele>
        <time>2018-07-05T08:45:24Z</time>
      </trkpt>
      <trkpt lat="45.94336" lon="4.78429">
        <ele>232</ele>
        <time>2018-07-05T08:45:25Z</time>
      </trkpt>
      <trkpt lat="45.94341" lon="4.78437">
        <ele>233</ele>
        <time>2018-07-05T08:45:28Z</time>
      </trkpt>
      <trkpt lat="45.94343" lon="4.7844">
        <ele>234</ele>
        <time>2018-07-05T08:45:29Z</time>
      </trkpt>
      <trkpt lat="45.94348" lon="4.78447">
        <ele>235</ele>
        <time>2018-07-05T08:45:32Z</time>
      </trkpt>
      <trkpt lat="45.9435" lon="4.78449">
        <ele>235</ele>
        <time>2018-07-05T08:45:33Z</time>
      </trkpt>
      <trkpt lat="45.94354" lon="4.78456">
        <ele>235</ele>
        <time>2018-07-05T08:45:36Z</time>
      </trkpt>
      <trkpt lat="45.94356" lon="4.78458">
        <ele>235</ele>
        <time>2018-07-05T08:45:37Z</time>
      </trkpt>
      <trkpt lat="45.94363" lon="4.78465">
        <ele>236</ele>
        <time>2018-07-05T08:45:40Z</time>
      </trkpt>
      <trkpt lat="45.94365" lon="4.78468">
        <ele>236</ele>
        <time>2018-07-05T08:45:41Z</time>
      </trkpt>
      <trkpt lat="45.9437" lon="4.78476">
        <ele>236</ele>
        <time>2018-07-05T08:45:44Z</time>
      </trkpt>
      <trkpt lat="45.94372" lon="4.78478">
        <ele>236</ele>
        <time>2018-07-05T08:45:45Z</time>
      </trkpt>
      <trkpt lat="45.94377" lon="4.78485">
        <ele>236</ele>
        <time>2018-07-05T08:45:48Z</time>
      </trkpt>
      <trkpt lat="45.94379" lon="4.78488">
        <ele>236</ele>
        <time>2018-07-05T08:45:49Z</time>
      </trkpt>
      <trkpt lat="45.94384" lon="4.78497">
        <ele>236</ele>
        <time>2018-07-05T08:45:52Z</time>
      </trkpt>
      <trkpt lat="45.94386" lon="4.78499">
        <ele>236</ele>
        <time>2018-07-05T08:45:53Z</time>
      </trkpt>
      <trkpt lat="45.94391" lon="4.78508">
        <ele>237</ele>
        <time>2018-07-05T08:45:56Z</time>
      </trkpt>
      <trkpt lat="45.94393" lon="4.7851">
        <ele>237</ele>
        <time>2018-07-05T08:45:57Z</time>
      </trkpt>
      <trkpt lat="45.94398" lon="4.78518">
        <ele>237</ele>
        <time>2018-07-05T08:46:00Z</time>
      </trkpt>
      <trkpt lat="45.944" lon="4.78521">
        <ele>237</ele>
        <time>2018-07-05T08:46:01Z</time>
      </trkpt>
      <trkpt lat="45.94407" lon="4.78527">
        <ele>237</ele>
        <time>2018-07-05T08:46:04Z</time>
      </trkpt>
      <trkpt lat="45.94409" lon="4.78529">
        <ele>237</ele>
        <time>2018-07-05T08:46:05Z</time>
      </trkpt>
      <trkpt lat="45.94416" lon="4.78536">
        <ele>238</ele>
        <time>2018-07-05T08:46:09Z</time>
      </trkpt>
      <trkpt lat="45.94417" lon="4.78539">
        <ele>238</ele>
        <time>2018-07-05T08:46:10Z</time>
      </trkpt>
      <trkpt lat="45.94422" lon="4.78547">
        <ele>238</ele>
        <time>2018-07-05T08:46:13Z</time>
      </trkpt>
      <trkpt lat="45.94424" lon="4.7855">
        <ele>238</ele>
        <time>2018-07-05T08:46:14Z</time>
      </trkpt>
      <trkpt lat="45.94429" lon="4.78558">
        <ele>238</ele>
        <time>2018-07-05T08:46:17Z</time>
      </trkpt>
      <trkpt lat="45.94431" lon="4.7856">
        <ele>238</ele>
        <time>2018-07-05T08:46:18Z</time>
      </trkpt>
      <trkpt lat="45.94436" lon="4.78569">
        <ele>238</ele>
        <time>2018-07-05T08:46:21Z</time>
      </trkpt>
      <trkpt lat="45.94437" lon="4.78571">
        <ele>239</ele>
        <time>2018-07-05T08:46:22Z</time>
      </trkpt>
      <trkpt lat="45.94443" lon="4.7858">
        <ele>239</ele>
        <time>2018-07-05T08:46:25Z</time>
      </trkpt>
      <trkpt lat="45.94445" lon="4.78583">
        <ele>239</ele>
        <time>2018-07-05T08:46:26Z</time>
      </trkpt>
      <trkpt lat="45.94451" lon="4.7859">
        <ele>240</ele>
        <time>2018-07-05T08:46:29Z</time>
      </trkpt>
      <trkpt lat="45.94453" lon="4.78593">
        <ele>240</ele>
        <time>2018-07-05T08:46:30Z</time>
      </trkpt>
      <trkpt lat="45.94458" lon="4.786">
        <ele>240</ele>
        <time>2018-07-05T08:46:33Z</time>
      </trkpt>
      <trkpt lat="45.9446" lon="4.78602">
        <ele>240</ele>
        <time>2018-07-05T08:46:34Z</time>
      </trkpt>
      <trkpt lat="45.94464" lon="4.78612">
        <ele>241</ele>
        <time>2018-07-05T08:46:37Z</time>
      </trkpt>
      <trkpt lat="45.94464" lon="4.78615">
        <ele>241</ele>
        <time>2018-07-05T08:46:38Z</time>
      </trkpt>
      <trkpt lat="45.94466" lon="4.78625">
        <ele>241</ele>
        <time>2018-07-05T08:46:41Z</time>
      </trkpt>
      <trkpt lat="45.94466" lon="4.78628">
        <ele>241</ele>
        <time>2018-07-05T08:46:42Z</time>
      </trkpt>
      <trkpt lat="45.94468" lon="4.78641">
        <ele>241</ele>
        <time>2018-07-05T08:46:46Z</time>
      </trkpt>
      <trkpt lat="45.94468" lon="4.78644">
        <ele>241</ele>
        <time>2018-07-05T08:46:47Z</time>
      </trkpt>
      <trkpt lat="45.9447" lon="4.78654">
        <ele>241</ele>
        <time>2018-07-05T08:46:50Z</time>
      </trkpt>
      <trkpt lat="45.9447" lon="4.78657">
        <ele>241</ele>
        <time>2018-07-05T08:46:51Z</time>
      </trkpt>
      <trkpt lat="45.94471" lon="4.7867">
        <ele>244</ele>
        <time>2018-07-05T08:46:55Z</time>
      </trkpt>
      <trkpt lat="45.94472" lon="4.78673">
        <ele>244</ele>
        <time>2018-07-05T08:46:56Z</time>
      </trkpt>
      <trkpt lat="45.94473" lon="4.78684">
        <ele>244</ele>
        <time>2018-07-05T08:47:00Z</time>
      </trkpt>
      <trkpt lat="45.94473" lon="4.78688">
        <ele>244</ele>
        <time>2018-07-05T08:47:01Z</time>
      </trkpt>
      <trkpt lat="45.94474" lon="4.78698">
        <ele>245</ele>
        <time>2018-07-05T08:47:04Z</time>
      </trkpt>
      <trkpt lat="45.94474" lon="4.78701">
        <ele>245</ele>
        <time>2018-07-05T08:47:05Z</time>
      </trkpt>
      <trkpt lat="45.94477" lon="4.78712">
        <ele>245</ele>
        <time>2018-07-05T08:47:09Z</time>
      </trkpt>
      <trkpt lat="45.94478" lon="4.78715">
        <ele>245</ele>
        <time>2018-07-05T08:47:10Z</time>
      </trkpt>
      <trkpt lat="45.94479" lon="4.78725">
        <ele>246</ele>
        <time>2018-07-05T08:47:14Z</time>
      </trkpt>
      <trkpt lat="45.94479" lon="4.78728">
        <ele>246</ele>
        <time>2018-07-05T08:47:15Z</time>
      </trkpt>
      <trkpt lat="45.9448" lon="4.78739">
        <ele>246</ele>
        <time>2018-07-05T08:47:19Z</time>
      </trkpt>
      <trkpt lat="45.9448" lon="4.78742">
        <ele>246</ele>
        <time>2018-07-05T08:47:20Z</time>
      </trkpt>
      <trkpt lat="45.9448" lon="4.78754">
        <ele>249</ele>
        <time>2018-07-05T08:47:24Z</time>
      </trkpt>
      <trkpt lat="45.9448" lon="4.78757">
        <ele>249</ele>
        <time>2018-07-05T08:47:25Z</time>
      </trkpt>
      <trkpt lat="45.94476" lon="4.78769">
        <ele>250</ele>
        <time>2018-07-05T08:47:29Z</time>
      </trkpt>
      <trkpt lat="45.94476" lon="4.78771">
        <ele>250</ele>
        <time>2018-07-05T08:47:30Z</time>
      </trkpt>
      <trkpt lat="45.94471" lon="4.78781">
        <ele>250</ele>
        <time>2018-07-05T08:47:35Z</time>
      </trkpt>
      <trkpt lat="45.9447" lon="4.78784">
        <ele>250</ele>
        <time>2018-07-05T08:47:36Z</time>
      </trkpt>
      <trkpt lat="45.94466" lon="4.78794">
        <ele>250</ele>
        <time>2018-07-05T08:47:39Z</time>
      </trkpt>
      <trkpt lat="45.94465" lon="4.78797">
        <ele>251</ele>
        <time>2018-07-05T08:47:40Z</time>
      </trkpt>
      <trkpt lat="45.94463" lon="4.78808">
        <ele>251</ele>
        <time>2018-07-05T08:47:44Z</time>
      </trkpt>
      <trkpt lat="45.94462" lon="4.7881">
        <ele>251</ele>
        <time>2018-07-05T08:47:45Z</time>
      </trkpt>
      <trkpt lat="45.94459" lon="4.78822">
        <ele>251</ele>
        <time>2018-07-05T08:47:49Z</time>
      </trkpt>
      <trkpt lat="45.94459" lon="4.78824">
        <ele>251</ele>
        <time>2018-07-05T08:47:50Z</time>
      </trkpt>
      <trkpt lat="45.94457" lon="4.78837">
        <ele>253</ele>
        <time>2018-07-05T08:47:55Z</time>
      </trkpt>
      <trkpt lat="45.94457" lon="4.78839">
        <ele>253</ele>
        <time>2018-07-05T08:47:56Z</time>
      </trkpt>
      <trkpt lat="45.94456" lon="4.7885">
        <ele>253</ele>
        <time>2018-07-05T08:48:01Z</time>
      </trkpt>
      <trkpt lat="45.94456" lon="4.78853">
        <ele>253</ele>
        <time>2018-07-05T08:48:02Z</time>
      </trkpt>
      <trkpt lat="45.94456" lon="4.78864">
        <ele>253</ele>
        <time>2018-07-05T08:48:06Z</time>
      </trkpt>
      <trkpt lat="45.94457" lon="4.78867">
        <ele>253</ele>
        <time>2018-07-05T08:48:07Z</time>
      </trkpt>
      <trkpt lat="45.94457" lon="4.7888">
        <ele>253</ele>
        <time>2018-07-05T08:48:11Z</time>
      </trkpt>
      <trkpt lat="45.94457" lon="4.78882">
        <ele>253</ele>
        <time>2018-07-05T08:48:12Z</time>
      </trkpt>
      <trkpt lat="45.94456" lon="4.78892">
        <ele>253</ele>
        <time>2018-07-05T08:48:15Z</time>
      </trkpt>
      <trkpt lat="45.94456" lon="4.78895">
        <ele>253</ele>
        <time>2018-07-05T08:48:16Z</time>
      </trkpt>
      <trkpt lat="45.94457" lon="4.78908">
        <ele>253</ele>
        <time>2018-07-05T08:48:20Z</time>
      </trkpt>
      <trkpt lat="45.94457" lon="4.78911">
        <ele>253</ele>
        <time>2018-07-05T08:48:21Z</time>
      </trkpt>
      <trkpt lat="45.9446" lon="4.78922">
        <ele>254</ele>
        <time>2018-07-05T08:48:24Z</time>
      </trkpt>
      <trkpt lat="45.94461" lon="4.78925">
        <ele>254</ele>
        <time>2018-07-05T08:48:25Z</time>
      </trkpt>
      <trkpt lat="45.94465" lon="4.78937">
        <ele>254</ele>
        <time>2018-07-05T08:48:29Z</time>
      </trkpt>
      <trkpt lat="45.94466" lon="4.78939">
        <ele>254</ele>
        <time>2018-07-05T08:48:30Z</time>
      </trkpt>
      <trkpt lat="45.94469" lon="4.78948">
        <ele>254</ele>
        <time>2018-07-05T08:48:33Z</time>
      </trkpt>
      <trkpt lat="45.9447" lon="4.78951">
        <ele>254</ele>
        <time>2018-07-05T08:48:34Z</time>
      </trkpt>
      <trkpt lat="45.94473" lon="4.78959">
        <ele>254</ele>
        <time>2018-07-05T08:48:37Z</time>
      </trkpt>
      <trkpt lat="45.94475" lon="4.78962">
        <ele>254</ele>
        <time>2018-07-05T08:48:38Z</time>
      </trkpt>
      <trkpt lat="45.9448" lon="4.78971">
        <ele>254</ele>
        <time>2018-07-05T08:48:42Z</time>
      </trkpt>
      <trkpt lat="45.94481" lon="4.78974">
        <ele>254</ele>
        <time>2018-07-05T08:48:43Z</time>
      </trkpt>
      <trkpt lat="45.94485" lon="4.78984">
        <ele>254</ele>
        <time>2018-07-05T08:48:46Z</time>
      </trkpt>
      <trkpt lat="45.94486" lon="4.78987">
        <ele>254</ele>
        <time>2018-07-05T08:48:47Z</time>
      </trkpt>
      <trkpt lat="45.94489" lon="4.78997">
        <ele>254</ele>
        <time>2018-07-05T08:48:50Z</time>
      </trkpt>
      <trkpt lat="45.9449" lon="4.79">
        <ele>254</ele>
        <time>2018-07-05T08:48:51Z</time>
      </trkpt>
      <trkpt lat="45.94494" lon="4.7901">
        <ele>254</ele>
        <time>2018-07-05T08:48:54Z</time>
      </trkpt>
      <trkpt lat="45.94496" lon="4.79013">
        <ele>254</ele>
        <time>2018-07-05T08:48:55Z</time>
      </trkpt>
      <trkpt lat="45.945" lon="4.79022">
        <ele>255</ele>
        <time>2018-07-05T08:48:58Z</time>
      </trkpt>
      <trkpt lat="45.94502" lon="4.79025">
        <ele>255</ele>
        <time>2018-07-05T08:48:59Z</time>
      </trkpt>
      <trkpt lat="45.94505" lon="4.79034">
        <ele>255</ele>
        <time>2018-07-05T08:49:02Z</time>
      </trkpt>
      <trkpt lat="45.94507" lon="4.79037">
        <ele>255</ele>
        <time>2018-07-05T08:49:03Z</time>
      </trkpt>
      <trkpt lat="45.9451" lon="4.79047">
        <ele>255</ele>
        <time>2018-07-05T08:49:06Z</time>
      </trkpt>
      <trkpt lat="45.94511" lon="4.7905">
        <ele>255</ele>
        <time>2018-07-05T08:49:07Z</time>
      </trkpt>
      <trkpt lat="45.94514" lon="4.79057">
        <ele>255</ele>
        <time>2018-07-05T08:49:09Z</time>
      </trkpt>
      <trkpt lat="45.94516" lon="4.79061">
        <ele>255</ele>
        <time>2018-07-05T08:49:10Z</time>
      </trkpt>
      <trkpt lat="45.9452" lon="4.79069">
        <ele>255</ele>
        <time>2018-07-05T08:49:12Z</time>
      </trkpt>
      <trkpt lat="45.94523" lon="4.79073">
        <ele>255</ele>
        <time>2018-07-05T08:49:13Z</time>
      </trkpt>
      <trkpt lat="45.94527" lon="4.79081">
        <ele>255</ele>
        <time>2018-07-05T08:49:15Z</time>
      </trkpt>
      <trkpt lat="45.94529" lon="4.79085">
        <ele>256</ele>
        <time>2018-07-05T08:49:16Z</time>
      </trkpt>
      <trkpt lat="45.94534" lon="4.79093">
        <ele>256</ele>
        <time>2018-07-05T08:49:18Z</time>
      </trkpt>
      <trkpt lat="45.94536" lon="4.79097">
        <ele>256</ele>
        <time>2018-07-05T08:49:19Z</time>
      </trkpt>
      <trkpt lat="45.94539" lon="4.79104">
        <ele>256</ele>
        <time>2018-07-05T08:49:21Z</time>
      </trkpt>
      <trkpt lat="45.94544" lon="4.79114">
        <ele>256</ele>
        <time>2018-07-05T08:49:22Z</time>
      </trkpt>
      <trkpt lat="45.9455" lon="4.79123">
        <ele>256</ele>
        <time>2018-07-05T08:49:24Z</time>
      </trkpt>
      <trkpt lat="45.94552" lon="4.79127">
        <ele>257</ele>
        <time>2018-07-05T08:49:25Z</time>
      </trkpt>
      <trkpt lat="45.94557" lon="4.79137">
        <ele>257</ele>
        <time>2018-07-05T08:49:27Z</time>
      </trkpt>
      <trkpt lat="45.94559" lon="4.79142">
        <ele>257</ele>
        <time>2018-07-05T08:49:28Z</time>
      </trkpt>
      <trkpt lat="45.94564" lon="4.79152">
        <ele>257</ele>
        <time>2018-07-05T08:49:30Z</time>
      </trkpt>
      <trkpt lat="45.94567" lon="4.79158">
        <ele>257</ele>
        <time>2018-07-05T08:49:31Z</time>
      </trkpt>
      <trkpt lat="45.9457" lon="4.79167">
        <ele>257</ele>
        <time>2018-07-05T08:49:33Z</time>
      </trkpt>
      <trkpt lat="45.94573" lon="4.79171">
        <ele>258</ele>
        <time>2018-07-05T08:49:34Z</time>
      </trkpt>
      <trkpt lat="45.94574" lon="4.79177">
        <ele>257</ele>
        <time>2018-07-05T08:49:35Z</time>
      </trkpt>
      <trkpt lat="45.94576" lon="4.79183">
        <ele>257</ele>
        <time>2018-07-05T08:49:36Z</time>
      </trkpt>
      <trkpt lat="45.94581" lon="4.79194">
        <ele>256</ele>
        <time>2018-07-05T08:49:38Z</time>
      </trkpt>
      <trkpt lat="45.94582" lon="4.79201">
        <ele>256</ele>
        <time>2018-07-05T08:49:39Z</time>
      </trkpt>
      <trkpt lat="45.94588" lon="4.79208">
        <ele>257</ele>
        <time>2018-07-05T08:49:41Z</time>
      </trkpt>
      <trkpt lat="45.9459" lon="4.79213">
        <ele>257</ele>
        <time>2018-07-05T08:49:42Z</time>
      </trkpt>
      <trkpt lat="45.94595" lon="4.79223">
        <ele>256</ele>
        <time>2018-07-05T08:49:44Z</time>
      </trkpt>
      <trkpt lat="45.94598" lon="4.79228">
        <ele>256</ele>
        <time>2018-07-05T08:49:45Z</time>
      </trkpt>
      <trkpt lat="45.94603" lon="4.79237">
        <ele>256</ele>
        <time>2018-07-05T08:49:47Z</time>
      </trkpt>
      <trkpt lat="45.94606" lon="4.79242">
        <ele>256</ele>
        <time>2018-07-05T08:49:48Z</time>
      </trkpt>
      <trkpt lat="45.9461" lon="4.79247">
        <ele>256</ele>
        <time>2018-07-05T08:49:49Z</time>
      </trkpt>
      <trkpt lat="45.94613" lon="4.79252">
        <ele>255</ele>
        <time>2018-07-05T08:49:50Z</time>
      </trkpt>
      <trkpt lat="45.94618" lon="4.79262">
        <ele>255</ele>
        <time>2018-07-05T08:49:52Z</time>
      </trkpt>
      <trkpt lat="45.94621" lon="4.79265">
        <ele>255</ele>
        <time>2018-07-05T08:49:53Z</time>
      </trkpt>
      <trkpt lat="45.94626" lon="4.79274">
        <ele>254</ele>
        <time>2018-07-05T08:49:55Z</time>
      </trkpt>
      <trkpt lat="45.94628" lon="4.79279">
        <ele>254</ele>
        <time>2018-07-05T08:49:56Z</time>
      </trkpt>
      <trkpt lat="45.94632" lon="4.7929">
        <ele>254</ele>
        <time>2018-07-05T08:49:58Z</time>
      </trkpt>
      <trkpt lat="45.94634" lon="4.79296">
        <ele>254</ele>
        <time>2018-07-05T08:49:59Z</time>
      </trkpt>
      <trkpt lat="45.94637" lon="4.79302">
        <ele>254</ele>
        <time>2018-07-05T08:50:00Z</time>
      </trkpt>
      <trkpt lat="45.94639" lon="4.79307">
        <ele>254</ele>
        <time>2018-07-05T08:50:01Z</time>
      </trkpt>
      <trkpt lat="45.94645" lon="4.79316">
        <ele>254</ele>
        <time>2018-07-05T08:50:03Z</time>
      </trkpt>
      <trkpt lat="45.94647" lon="4.79321">
        <ele>254</ele>
        <time>2018-07-05T08:50:04Z</time>
      </trkpt>
      <trkpt lat="45.94651" lon="4.79328">
        <ele>254</ele>
        <time>2018-07-05T08:50:07Z</time>
      </trkpt>
      <trkpt lat="45.94653" lon="4.79331">
        <ele>254</ele>
        <time>2018-07-05T08:50:08Z</time>
      </trkpt>
      <trkpt lat="45.94658" lon="4.79341">
        <ele>254</ele>
        <time>2018-07-05T08:50:09Z</time>
      </trkpt>
      <trkpt lat="45.94661" lon="4.79346">
        <ele>254</ele>
        <time>2018-07-05T08:50:10Z</time>
      </trkpt>
      <trkpt lat="45.94666" lon="4.79351">
        <ele>254</ele>
        <time>2018-07-05T08:50:11Z</time>
      </trkpt>
      <trkpt lat="45.94669" lon="4.79356">
        <ele>253</ele>
        <time>2018-07-05T08:50:12Z</time>
      </trkpt>
      <trkpt lat="45.94673" lon="4.79367">
        <ele>253</ele>
        <time>2018-07-05T08:50:14Z</time>
      </trkpt>
      <trkpt lat="45.94676" lon="4.79372">
        <ele>253</ele>
        <time>2018-07-05T08:50:15Z</time>
      </trkpt>
      <trkpt lat="45.94679" lon="4.79377">
        <ele>253</ele>
        <time>2018-07-05T08:50:16Z</time>
      </trkpt>
      <trkpt lat="45.94681" lon="4.79383">
        <ele>253</ele>
        <time>2018-07-05T08:50:17Z</time>
      </trkpt>
      <trkpt lat="45.94685" lon="4.79393">
        <ele>253</ele>
        <time>2018-07-05T08:50:19Z</time>
      </trkpt>
      <trkpt lat="45.94687" lon="4.79398">
        <ele>253</ele>
        <time>2018-07-05T08:50:20Z</time>
      </trkpt>
      <trkpt lat="45.94691" lon="4.79409">
        <ele>253</ele>
        <time>2018-07-05T08:50:22Z</time>
      </trkpt>
      <trkpt lat="45.94694" lon="4.79413">
        <ele>253</ele>
        <time>2018-07-05T08:50:23Z</time>
      </trkpt>
      <trkpt lat="45.94699" lon="4.79423">
        <ele>253</ele>
        <time>2018-07-05T08:50:25Z</time>
      </trkpt>
      <trkpt lat="45.94702" lon="4.79428">
        <ele>253</ele>
        <time>2018-07-05T08:50:26Z</time>
      </trkpt>
      <trkpt lat="45.94704" lon="4.79433">
        <ele>253</ele>
        <time>2018-07-05T08:50:27Z</time>
      </trkpt>
      <trkpt lat="45.94707" lon="4.79439">
        <ele>253</ele>
        <time>2018-07-05T08:50:28Z</time>
      </trkpt>
      <trkpt lat="45.9471" lon="4.79445">
        <ele>253</ele>
        <time>2018-07-05T08:50:29Z</time>
      </trkpt>
      <trkpt lat="45.94712" lon="4.79452">
        <ele>253</ele>
        <time>2018-07-05T08:50:30Z</time>
      </trkpt>
      <trkpt lat="45.94716" lon="4.79458">
        <ele>253</ele>
        <time>2018-07-05T08:50:31Z</time>
      </trkpt>
      <trkpt lat="45.94719" lon="4.79465">
        <ele>253</ele>
        <time>2018-07-05T08:50:32Z</time>
      </trkpt>
      <trkpt lat="45.94722" lon="4.79471">
        <ele>253</ele>
        <time>2018-07-05T08:50:33Z</time>
      </trkpt>
      <trkpt lat="45.94725" lon="4.79477">
        <ele>253</ele>
        <time>2018-07-05T08:50:34Z</time>
      </trkpt>
      <trkpt lat="45.94728" lon="4.79484">
        <ele>253</ele>
        <time>2018-07-05T08:50:35Z</time>
      </trkpt>
      <trkpt lat="45.94732" lon="4.79491">
        <ele>253</ele>
        <time>2018-07-05T08:50:36Z</time>
      </trkpt>
      <trkpt lat="45.94734" lon="4.79498">
        <ele>252</ele>
        <time>2018-07-05T08:50:37Z</time>
      </trkpt>
      <trkpt lat="45.94736" lon="4.79506">
        <ele>252</ele>
        <time>2018-07-05T08:50:38Z</time>
      </trkpt>
      <trkpt lat="45.94738" lon="4.79513">
        <ele>252</ele>
        <time>2018-07-05T08:50:39Z</time>
      </trkpt>
      <trkpt lat="45.94742" lon="4.7952">
        <ele>253</ele>
        <time>2018-07-05T08:50:40Z</time>
      </trkpt>
      <trkpt lat="45.94744" lon="4.79527">
        <ele>253</ele>
        <time>2018-07-05T08:50:41Z</time>
      </trkpt>
      <trkpt lat="45.94746" lon="4.79534">
        <ele>253</ele>
        <time>2018-07-05T08:50:42Z</time>
      </trkpt>
      <trkpt lat="45.94749" lon="4.7954">
        <ele>253</ele>
        <time>2018-07-05T08:50:43Z</time>
      </trkpt>
      <trkpt lat="45.94753" lon="4.79549">
        <ele>252</ele>
        <time>2018-07-05T08:50:44Z</time>
      </trkpt>
      <trkpt lat="45.94757" lon="4.79561">
        <ele>252</ele>
        <time>2018-07-05T08:50:46Z</time>
      </trkpt>
      <trkpt lat="45.94758" lon="4.79567">
        <ele>252</ele>
        <time>2018-07-05T08:50:47Z</time>
      </trkpt>
      <trkpt lat="45.94759" lon="4.79579">
        <ele>252</ele>
        <time>2018-07-05T08:50:49Z</time>
      </trkpt>
      <trkpt lat="45.94759" lon="4.79586">
        <ele>252</ele>
        <time>2018-07-05T08:50:50Z</time>
      </trkpt>
      <trkpt lat="45.9476" lon="4.79594">
        <ele>253</ele>
        <time>2018-07-05T08:50:51Z</time>
      </trkpt>
      <trkpt lat="45.94762" lon="4.79599">
        <ele>253</ele>
        <time>2018-07-05T08:50:52Z</time>
      </trkpt>
      <trkpt lat="45.94765" lon="4.79611">
        <ele>253</ele>
        <time>2018-07-05T08:50:54Z</time>
      </trkpt>
      <trkpt lat="45.94769" lon="4.79632">
        <ele>253</ele>
        <time>2018-07-05T08:50:57Z</time>
      </trkpt>
      <trkpt lat="45.94771" lon="4.79638">
        <ele>254</ele>
        <time>2018-07-05T08:50:58Z</time>
      </trkpt>
      <trkpt lat="45.94772" lon="4.79645">
        <ele>254</ele>
        <time>2018-07-05T08:50:59Z</time>
      </trkpt>
      <trkpt lat="45.94773" lon="4.79652">
        <ele>254</ele>
        <time>2018-07-05T08:51:00Z</time>
      </trkpt>
      <trkpt lat="45.94776" lon="4.79659">
        <ele>254</ele>
        <time>2018-07-05T08:51:01Z</time>
      </trkpt>
      <trkpt lat="45.94777" lon="4.79666">
        <ele>254</ele>
        <time>2018-07-05T08:51:02Z</time>
      </trkpt>
      <trkpt lat="45.94779" lon="4.79673">
        <ele>254</ele>
        <time>2018-07-05T08:51:03Z</time>
      </trkpt>
      <trkpt lat="45.9478" lon="4.7968">
        <ele>254</ele>
        <time>2018-07-05T08:51:04Z</time>
      </trkpt>
      <trkpt lat="45.94783" lon="4.79686">
        <ele>254</ele>
        <time>2018-07-05T08:51:05Z</time>
      </trkpt>
      <trkpt lat="45.94787" lon="4.79697">
        <ele>254</ele>
        <time>2018-07-05T08:51:07Z</time>
      </trkpt>
      <trkpt lat="45.94788" lon="4.79702">
        <ele>254</ele>
        <time>2018-07-05T08:51:08Z</time>
      </trkpt>
      <trkpt lat="45.9479" lon="4.79713">
        <ele>254</ele>
        <time>2018-07-05T08:51:10Z</time>
      </trkpt>
      <trkpt lat="45.94793" lon="4.79719">
        <ele>254</ele>
        <time>2018-07-05T08:51:11Z</time>
      </trkpt>
      <trkpt lat="45.94793" lon="4.79726">
        <ele>254</ele>
        <time>2018-07-05T08:51:12Z</time>
      </trkpt>
      <trkpt lat="45.94796" lon="4.79733">
        <ele>254</ele>
        <time>2018-07-05T08:51:13Z</time>
      </trkpt>
      <trkpt lat="45.94798" lon="4.7974">
        <ele>254</ele>
        <time>2018-07-05T08:51:14Z</time>
      </trkpt>
      <trkpt lat="45.94801" lon="4.79747">
        <ele>254</ele>
        <time>2018-07-05T08:51:15Z</time>
      </trkpt>
      <trkpt lat="45.94805" lon="4.79753">
        <ele>254</ele>
        <time>2018-07-05T08:51:16Z</time>
      </trkpt>
      <trkpt lat="45.94808" lon="4.7976">
        <ele>254</ele>
        <time>2018-07-05T08:51:17Z</time>
      </trkpt>
      <trkpt lat="45.94809" lon="4.79767">
        <ele>254</ele>
        <time>2018-07-05T08:51:18Z</time>
      </trkpt>
      <trkpt lat="45.94811" lon="4.79774">
        <ele>254</ele>
        <time>2018-07-05T08:51:19Z</time>
      </trkpt>
      <trkpt lat="45.94813" lon="4.79781">
        <ele>254</ele>
        <time>2018-07-05T08:51:20Z</time>
      </trkpt>
      <trkpt lat="45.94817" lon="4.79788">
        <ele>254</ele>
        <time>2018-07-05T08:51:21Z</time>
      </trkpt>
      <trkpt lat="45.94817" lon="4.79796">
        <ele>254</ele>
        <time>2018-07-05T08:51:22Z</time>
      </trkpt>
      <trkpt lat="45.94819" lon="4.79801">
        <ele>254</ele>
        <time>2018-07-05T08:51:23Z</time>
      </trkpt>
      <trkpt lat="45.9482" lon="4.79809">
        <ele>254</ele>
        <time>2018-07-05T08:51:24Z</time>
      </trkpt>
      <trkpt lat="45.94822" lon="4.79816">
        <ele>254</ele>
        <time>2018-07-05T08:51:25Z</time>
      </trkpt>
      <trkpt lat="45.94824" lon="4.79823">
        <ele>254</ele>
        <time>2018-07-05T08:51:26Z</time>
      </trkpt>
      <trkpt lat="45.94826" lon="4.7983">
        <ele>254</ele>
        <time>2018-07-05T08:51:27Z</time>
      </trkpt>
      <trkpt lat="45.94828" lon="4.79836">
        <ele>254</ele>
        <time>2018-07-05T08:51:28Z</time>
      </trkpt>
      <trkpt lat="45.94829" lon="4.79843">
        <ele>254</ele>
        <time>2018-07-05T08:51:29Z</time>
      </trkpt>
      <trkpt lat="45.94831" lon="4.79851">
        <ele>254</ele>
        <time>2018-07-05T08:51:30Z</time>
      </trkpt>
      <trkpt lat="45.94833" lon="4.79857">
        <ele>255</ele>
        <time>2018-07-05T08:51:31Z</time>
      </trkpt>
      <trkpt lat="45.94834" lon="4.79864">
        <ele>255</ele>
        <time>2018-07-05T08:51:32Z</time>
      </trkpt>
      <trkpt lat="45.94835" lon="4.79869">
        <ele>255</ele>
        <time>2018-07-05T08:51:33Z</time>
      </trkpt>
      <trkpt lat="45.94838" lon="4.79879">
        <ele>255</ele>
        <time>2018-07-05T08:51:35Z</time>
      </trkpt>
      <trkpt lat="45.94839" lon="4.79885">
        <ele>255</ele>
        <time>2018-07-05T08:51:36Z</time>
      </trkpt>
      <trkpt lat="45.9484" lon="4.79891">
        <ele>255</ele>
        <time>2018-07-05T08:51:37Z</time>
      </trkpt>
      <trkpt lat="45.94843" lon="4.79897">
        <ele>255</ele>
        <time>2018-07-05T08:51:38Z</time>
      </trkpt>
      <trkpt lat="45.94846" lon="4.79903">
        <ele>255</ele>
        <time>2018-07-05T08:51:39Z</time>
      </trkpt>
      <trkpt lat="45.94848" lon="4.7991">
        <ele>256</ele>
        <time>2018-07-05T08:51:40Z</time>
      </trkpt>
      <trkpt lat="45.9485" lon="4.79916">
        <ele>256</ele>
        <time>2018-07-05T08:51:41Z</time>
      </trkpt>
      <trkpt lat="45.94853" lon="4.79922">
        <ele>256</ele>
        <time>2018-07-05T08:51:42Z</time>
      </trkpt>
      <trkpt lat="45.94855" lon="4.79929">
        <ele>256</ele>
        <time>2018-07-05T08:51:43Z</time>
      </trkpt>
      <trkpt lat="45.94858" lon="4.79935">
        <ele>256</ele>
        <time>2018-07-05T08:51:44Z</time>
      </trkpt>
      <trkpt lat="45.94861" lon="4.79941">
        <ele>256</ele>
        <time>2018-07-05T08:51:45Z</time>
      </trkpt>
      <trkpt lat="45.94864" lon="4.79947">
        <ele>256</ele>
        <time>2018-07-05T08:51:46Z</time>
      </trkpt>
      <trkpt lat="45.94867" lon="4.79954">
        <ele>256</ele>
        <time>2018-07-05T08:51:47Z</time>
      </trkpt>
      <trkpt lat="45.94869" lon="4.79959">
        <ele>256</ele>
        <time>2018-07-05T08:51:48Z</time>
      </trkpt>
      <trkpt lat="45.94872" lon="4.79966">
        <ele>256</ele>
        <time>2018-07-05T08:51:49Z</time>
      </trkpt>
      <trkpt lat="45.94873" lon="4.79973">
        <ele>256</ele>
        <time>2018-07-05T08:51:50Z</time>
      </trkpt>
      <trkpt lat="45.94876" lon="4.7998">
        <ele>256</ele>
        <time>2018-07-05T08:51:51Z</time>
      </trkpt>
      <trkpt lat="45.94878" lon="4.79985">
        <ele>256</ele>
        <time>2018-07-05T08:51:52Z</time>
      </trkpt>
      <trkpt lat="45.9488" lon="4.79991">
        <ele>256</ele>
        <time>2018-07-05T08:51:53Z</time>
      </trkpt>
      <trkpt lat="45.94882" lon="4.79997">
        <ele>256</ele>
        <time>2018-07-05T08:51:54Z</time>
      </trkpt>
      <trkpt lat="45.94886" lon="4.80007">
        <ele>256</ele>
        <time>2018-07-05T08:51:56Z</time>
      </trkpt>
      <trkpt lat="45.94888" lon="4.80012">
        <ele>256</ele>
        <time>2018-07-05T08:51:57Z</time>
      </trkpt>
      <trkpt lat="45.9489" lon="4.80017">
        <ele>256</ele>
        <time>2018-07-05T08:51:58Z</time>
      </trkpt>
      <trkpt lat="45.94892" lon="4.80024">
        <ele>256</ele>
        <time>2018-07-05T08:51:59Z</time>
      </trkpt>
      <trkpt lat="45.94894" lon="4.80031">
        <ele>256</ele>
        <time>2018-07-05T08:52:00Z</time>
      </trkpt>
      <trkpt lat="45.94896" lon="4.80037">
        <ele>256</ele>
        <time>2018-07-05T08:52:01Z</time>
      </trkpt>
      <trkpt lat="45.94898" lon="4.80045">
        <ele>256</ele>
        <time>2018-07-05T08:52:02Z</time>
      </trkpt>
      <trkpt lat="45.94899" lon="4.80051">
        <ele>256</ele>
        <time>2018-07-05T08:52:03Z</time>
      </trkpt>
      <trkpt lat="45.94901" lon="4.80058">
        <ele>256</ele>
        <time>2018-07-05T08:52:04Z</time>
      </trkpt>
      <trkpt lat="45.94903" lon="4.80064">
        <ele>256</ele>
        <time>2018-07-05T08:52:05Z</time>
      </trkpt>
      <trkpt lat="45.94907" lon="4.80074">
        <ele>257</ele>
        <time>2018-07-05T08:52:07Z</time>
      </trkpt>
      <trkpt lat="45.94911" lon="4.80078">
        <ele>257</ele>
        <time>2018-07-05T08:52:08Z</time>
      </trkpt>
      <trkpt lat="45.94912" lon="4.80085">
        <ele>257</ele>
        <time>2018-07-05T08:52:09Z</time>
      </trkpt>
      <trkpt lat="45.94912" lon="4.80092">
        <ele>257</ele>
        <time>2018-07-05T08:52:10Z</time>
      </trkpt>
      <trkpt lat="45.94914" lon="4.80097">
        <ele>256</ele>
        <time>2018-07-05T08:52:11Z</time>
      </trkpt>
      <trkpt lat="45.94916" lon="4.80104">
        <ele>256</ele>
        <time>2018-07-05T08:52:12Z</time>
      </trkpt>
      <trkpt lat="45.94917" lon="4.80112">
        <ele>256</ele>
        <time>2018-07-05T08:52:13Z</time>
      </trkpt>
      <trkpt lat="45.94918" lon="4.80119">
        <ele>256</ele>
        <time>2018-07-05T08:52:14Z</time>
      </trkpt>
      <trkpt lat="45.94919" lon="4.80125">
        <ele>256</ele>
        <time>2018-07-05T08:52:15Z</time>
      </trkpt>
      <trkpt lat="45.94921" lon="4.80131">
        <ele>256</ele>
        <time>2018-07-05T08:52:16Z</time>
      </trkpt>
      <trkpt lat="45.94923" lon="4.80143">
        <ele>256</ele>
        <time>2018-07-05T08:52:18Z</time>
      </trkpt>
      <trkpt lat="45.94925" lon="4.80147">
        <ele>256</ele>
        <time>2018-07-05T08:52:19Z</time>
      </trkpt>
      <trkpt lat="45.94928" lon="4.80158">
        <ele>255</ele>
        <time>2018-07-05T08:52:21Z</time>
      </trkpt>
      <trkpt lat="45.94928" lon="4.80165">
        <ele>255</ele>
        <time>2018-07-05T08:52:22Z</time>
      </trkpt>
      <trkpt lat="45.9493" lon="4.80174">
        <ele>255</ele>
        <time>2018-07-05T08:52:24Z</time>
      </trkpt>
      <trkpt lat="45.94932" lon="4.80183">
        <ele>256</ele>
        <time>2018-07-05T08:52:25Z</time>
      </trkpt>
      <trkpt lat="45.94934" lon="4.8019">
        <ele>256</ele>
        <time>2018-07-05T08:52:26Z</time>
      </trkpt>
      <trkpt lat="45.94936" lon="4.80197">
        <ele>256</ele>
        <time>2018-07-05T08:52:27Z</time>
      </trkpt>
      <trkpt lat="45.94937" lon="4.80205">
        <ele>256</ele>
        <time>2018-07-05T08:52:28Z</time>
      </trkpt>
      <trkpt lat="45.94938" lon="4.80213">
        <ele>256</ele>
        <time>2018-07-05T08:52:29Z</time>
      </trkpt>
      <trkpt lat="45.94939" lon="4.8022">
        <ele>256</ele>
        <time>2018-07-05T08:52:30Z</time>
      </trkpt>
      <trkpt lat="45.9494" lon="4.80228">
        <ele>256</ele>
        <time>2018-07-05T08:52:31Z</time>
      </trkpt>
      <trkpt lat="45.94942" lon="4.80234">
        <ele>256</ele>
        <time>2018-07-05T08:52:32Z</time>
      </trkpt>
      <trkpt lat="45.94942" lon="4.80241">
        <ele>256</ele>
        <time>2018-07-05T08:52:33Z</time>
      </trkpt>
      <trkpt lat="45.94941" lon="4.80249">
        <ele>256</ele>
        <time>2018-07-05T08:52:34Z</time>
      </trkpt>
      <trkpt lat="45.94942" lon="4.80255">
        <ele>257</ele>
        <time>2018-07-05T08:52:35Z</time>
      </trkpt>
      <trkpt lat="45.94942" lon="4.80262">
        <ele>257</ele>
        <time>2018-07-05T08:52:36Z</time>
      </trkpt>
      <trkpt lat="45.94943" lon="4.80269">
        <ele>257</ele>
        <time>2018-07-05T08:52:37Z</time>
      </trkpt>
      <trkpt lat="45.94942" lon="4.80279">
        <ele>257</ele>
        <time>2018-07-05T08:52:38Z</time>
      </trkpt>
      <trkpt lat="45.94943" lon="4.80287">
        <ele>257</ele>
        <time>2018-07-05T08:52:39Z</time>
      </trkpt>
      <trkpt lat="45.94942" lon="4.80299">
        <ele>257</ele>
        <time>2018-07-05T08:52:41Z</time>
      </trkpt>
      <trkpt lat="45.94942" lon="4.80306">
        <ele>257</ele>
        <time>2018-07-05T08:52:42Z</time>
      </trkpt>
      <trkpt lat="45.94943" lon="4.80318">
        <ele>257</ele>
        <time>2018-07-05T08:52:44Z</time>
      </trkpt>
      <trkpt lat="45.94944" lon="4.80324">
        <ele>257</ele>
        <time>2018-07-05T08:52:45Z</time>
      </trkpt>
      <trkpt lat="45.94945" lon="4.80331">
        <ele>257</ele>
        <time>2018-07-05T08:52:46Z</time>
      </trkpt>
      <trkpt lat="45.94945" lon="4.80339">
        <ele>258</ele>
        <time>2018-07-05T08:52:47Z</time>
      </trkpt>
      <trkpt lat="45.94945" lon="4.80347">
        <ele>258</ele>
        <time>2018-07-05T08:52:48Z</time>
      </trkpt>
      <trkpt lat="45.94945" lon="4.80354">
        <ele>258</ele>
        <time>2018-07-05T08:52:49Z</time>
      </trkpt>
      <trkpt lat="45.94943" lon="4.80366">
        <ele>258</ele>
        <time>2018-07-05T08:52:51Z</time>
      </trkpt>
      <trkpt lat="45.94945" lon="4.8037">
        <ele>258</ele>
        <time>2018-07-05T08:52:52Z</time>
      </trkpt>
      <trkpt lat="45.94944" lon="4.80383">
        <ele>258</ele>
        <time>2018-07-05T08:52:54Z</time>
      </trkpt>
      <trkpt lat="45.94945" lon="4.8039">
        <ele>258</ele>
        <time>2018-07-05T08:52:55Z</time>
      </trkpt>
      <trkpt lat="45.94945" lon="4.80396">
        <ele>258</ele>
        <time>2018-07-05T08:52:56Z</time>
      </trkpt>
      <trkpt lat="45.94945" lon="4.80404">
        <ele>258</ele>
        <time>2018-07-05T08:52:57Z</time>
      </trkpt>
      <trkpt lat="45.94946" lon="4.80411">
        <ele>258</ele>
        <time>2018-07-05T08:52:58Z</time>
      </trkpt>
      <trkpt lat="45.94946" lon="4.8042">
        <ele>259</ele>
        <time>2018-07-05T08:52:59Z</time>
      </trkpt>
      <trkpt lat="45.94945" lon="4.80428">
        <ele>259</ele>
        <time>2018-07-05T08:53:00Z</time>
      </trkpt>
      <trkpt lat="45.94945" lon="4.80436">
        <ele>259</ele>
        <time>2018-07-05T08:53:01Z</time>
      </trkpt>
      <trkpt lat="45.94945" lon="4.80443">
        <ele>259</ele>
        <time>2018-07-05T08:53:02Z</time>
      </trkpt>
      <trkpt lat="45.94945" lon="4.80452">
        <ele>259</ele>
        <time>2018-07-05T08:53:03Z</time>
      </trkpt>
      <trkpt lat="45.94946" lon="4.80459">
        <ele>258</ele>
        <time>2018-07-05T08:53:04Z</time>
      </trkpt>
      <trkpt lat="45.94945" lon="4.80466">
        <ele>258</ele>
        <time>2018-07-05T08:53:05Z</time>
      </trkpt>
      <trkpt lat="45.94947" lon="4.80479">
        <ele>258</ele>
        <time>2018-07-05T08:53:07Z</time>
      </trkpt>
      <trkpt lat="45.94947" lon="4.80485">
        <ele>258</ele>
        <time>2018-07-05T08:53:08Z</time>
      </trkpt>
      <trkpt lat="45.94947" lon="4.80493">
        <ele>258</ele>
        <time>2018-07-05T08:53:09Z</time>
      </trkpt>
      <trkpt lat="45.94947" lon="4.80499">
        <ele>258</ele>
        <time>2018-07-05T08:53:10Z</time>
      </trkpt>
      <trkpt lat="45.94947" lon="4.80505">
        <ele>258</ele>
        <time>2018-07-05T08:53:11Z</time>
      </trkpt>
      <trkpt lat="45.94947" lon="4.80513">
        <ele>258</ele>
        <time>2018-07-05T08:53:12Z</time>
      </trkpt>
      <trkpt lat="45.94947" lon="4.8052">
        <ele>258</ele>
        <time>2018-07-05T08:53:13Z</time>
      </trkpt>
      <trkpt lat="45.94948" lon="4.80527">
        <ele>258</ele>
        <time>2018-07-05T08:53:14Z</time>
      </trkpt>
      <trkpt lat="45.94947" lon="4.80535">
        <ele>258</ele>
        <time>2018-07-05T08:53:15Z</time>
      </trkpt>
      <trkpt lat="45.94948" lon="4.80542">
        <ele>258</ele>
        <time>2018-07-05T08:53:16Z</time>
      </trkpt>
      <trkpt lat="45.94946" lon="4.80554">
        <ele>258</ele>
        <time>2018-07-05T08:53:18Z</time>
      </trkpt>
      <trkpt lat="45.94945" lon="4.80561">
        <ele>257</ele>
        <time>2018-07-05T08:53:19Z</time>
      </trkpt>
      <trkpt lat="45.94947" lon="4.8057">
        <ele>257</ele>
        <time>2018-07-05T08:53:20Z</time>
      </trkpt>
      <trkpt lat="45.94947" lon="4.80578">
        <ele>257</ele>
        <time>2018-07-05T08:53:21Z</time>
      </trkpt>
      <trkpt lat="45.94949" lon="4.80586">
        <ele>258</ele>
        <time>2018-07-05T08:53:22Z</time>
      </trkpt>
      <trkpt lat="45.94949" lon="4.80594">
        <ele>258</ele>
        <time>2018-07-05T08:53:23Z</time>
      </trkpt>
      <trkpt lat="45.94949" lon="4.80601">
        <ele>258</ele>
        <time>2018-07-05T08:53:24Z</time>
      </trkpt>
      <trkpt lat="45.94949" lon="4.80608">
        <ele>258</ele>
        <time>2018-07-05T08:53:25Z</time>
      </trkpt>
      <trkpt lat="45.94949" lon="4.80613">
        <ele>258</ele>
        <time>2018-07-05T08:53:26Z</time>
      </trkpt>
      <trkpt lat="45.94948" lon="4.80621">
        <ele>258</ele>
        <time>2018-07-05T08:53:27Z</time>
      </trkpt>
      <trkpt lat="45.94947" lon="4.80633">
        <ele>258</ele>
        <time>2018-07-05T08:53:29Z</time>
      </trkpt>
      <trkpt lat="45.94948" lon="4.80641">
        <ele>258</ele>
        <time>2018-07-05T08:53:30Z</time>
      </trkpt>
      <trkpt lat="45.94947" lon="4.80653">
        <ele>259</ele>
        <time>2018-07-05T08:53:32Z</time>
      </trkpt>
      <trkpt lat="45.94947" lon="4.80659">
        <ele>259</ele>
        <time>2018-07-05T08:53:33Z</time>
      </trkpt>
      <trkpt lat="45.94947" lon="4.80671">
        <ele>259</ele>
        <time>2018-07-05T08:53:35Z</time>
      </trkpt>
      <trkpt lat="45.94946" lon="4.80677">
        <ele>259</ele>
        <time>2018-07-05T08:53:36Z</time>
      </trkpt>
      <trkpt lat="45.94947" lon="4.80689">
        <ele>259</ele>
        <time>2018-07-05T08:53:38Z</time>
      </trkpt>
      <trkpt lat="45.94947" lon="4.80696">
        <ele>259</ele>
        <time>2018-07-05T08:53:39Z</time>
      </trkpt>
      <trkpt lat="45.94948" lon="4.80702">
        <ele>259</ele>
        <time>2018-07-05T08:53:40Z</time>
      </trkpt>
      <trkpt lat="45.94948" lon="4.80709">
        <ele>259</ele>
        <time>2018-07-05T08:53:41Z</time>
      </trkpt>
      <trkpt lat="45.94949" lon="4.80721">
        <ele>259</ele>
        <time>2018-07-05T08:53:43Z</time>
      </trkpt>
      <trkpt lat="45.94949" lon="4.80726">
        <ele>259</ele>
        <time>2018-07-05T08:53:44Z</time>
      </trkpt>
      <trkpt lat="45.94949" lon="4.80733">
        <ele>259</ele>
        <time>2018-07-05T08:53:45Z</time>
      </trkpt>
      <trkpt lat="45.9495" lon="4.8074">
        <ele>259</ele>
        <time>2018-07-05T08:53:46Z</time>
      </trkpt>
      <trkpt lat="45.94948" lon="4.80752">
        <ele>259</ele>
        <time>2018-07-05T08:53:48Z</time>
      </trkpt>
      <trkpt lat="45.94949" lon="4.80759">
        <ele>259</ele>
        <time>2018-07-05T08:53:49Z</time>
      </trkpt>
      <trkpt lat="45.94949" lon="4.80767">
        <ele>259</ele>
        <time>2018-07-05T08:53:50Z</time>
      </trkpt>
      <trkpt lat="45.94948" lon="4.80773">
        <ele>259</ele>
        <time>2018-07-05T08:53:51Z</time>
      </trkpt>
      <trkpt lat="45.94946" lon="4.80784">
        <ele>259</ele>
        <time>2018-07-05T08:53:54Z</time>
      </trkpt>
      <trkpt lat="45.94945" lon="4.80788">
        <ele>259</ele>
        <time>2018-07-05T08:53:55Z</time>
      </trkpt>
      <trkpt lat="45.94945" lon="4.80801">
        <ele>259</ele>
        <time>2018-07-05T08:54:04Z</time>
      </trkpt>
      <trkpt lat="45.94944" lon="4.80802">
        <ele>259</ele>
        <time>2018-07-05T08:54:05Z</time>
      </trkpt>
      <trkpt lat="45.94947" lon="4.80811">
        <ele>258</ele>
        <time>2018-07-05T08:54:10Z</time>
      </trkpt>
      <trkpt lat="45.94948" lon="4.80814">
        <ele>258</ele>
        <time>2018-07-05T08:54:11Z</time>
      </trkpt>
      <trkpt lat="45.94951" lon="4.80821">
        <ele>258</ele>
        <time>2018-07-05T08:54:13Z</time>
      </trkpt>
      <trkpt lat="45.94956" lon="4.80831">
        <ele>258</ele>
        <time>2018-07-05T08:54:14Z</time>
      </trkpt>
      <trkpt lat="45.94959" lon="4.80841">
        <ele>259</ele>
        <time>2018-07-05T08:54:16Z</time>
      </trkpt>
      <trkpt lat="45.94962" lon="4.80845">
        <ele>259</ele>
        <time>2018-07-05T08:54:17Z</time>
      </trkpt>
      <trkpt lat="45.94962" lon="4.80852">
        <ele>259</ele>
        <time>2018-07-05T08:54:18Z</time>
      </trkpt>
      <trkpt lat="45.94963" lon="4.80858">
        <ele>259</ele>
        <time>2018-07-05T08:54:19Z</time>
      </trkpt>
      <trkpt lat="45.94964" lon="4.80865">
        <ele>259</ele>
        <time>2018-07-05T08:54:20Z</time>
      </trkpt>
      <trkpt lat="45.94966" lon="4.80872">
        <ele>259</ele>
        <time>2018-07-05T08:54:21Z</time>
      </trkpt>
      <trkpt lat="45.94967" lon="4.80879">
        <ele>258</ele>
        <time>2018-07-05T08:54:22Z</time>
      </trkpt>
      <trkpt lat="45.94969" lon="4.80885">
        <ele>258</ele>
        <time>2018-07-05T08:54:23Z</time>
      </trkpt>
      <trkpt lat="45.9497" lon="4.80892">
        <ele>258</ele>
        <time>2018-07-05T08:54:24Z</time>
      </trkpt>
      <trkpt lat="45.94971" lon="4.80899">
        <ele>258</ele>
        <time>2018-07-05T08:54:25Z</time>
      </trkpt>
      <trkpt lat="45.94972" lon="4.80906">
        <ele>258</ele>
        <time>2018-07-05T08:54:26Z</time>
      </trkpt>
      <trkpt lat="45.94974" lon="4.80913">
        <ele>258</ele>
        <time>2018-07-05T08:54:27Z</time>
      </trkpt>
      <trkpt lat="45.94975" lon="4.80921">
        <ele>258</ele>
        <time>2018-07-05T08:54:28Z</time>
      </trkpt>
      <trkpt lat="45.94976" lon="4.80928">
        <ele>258</ele>
        <time>2018-07-05T08:54:29Z</time>
      </trkpt>
      <trkpt lat="45.94977" lon="4.80935">
        <ele>258</ele>
        <time>2018-07-05T08:54:30Z</time>
      </trkpt>
      <trkpt lat="45.94979" lon="4.80943">
        <ele>258</ele>
        <time>2018-07-05T08:54:31Z</time>
      </trkpt>
      <trkpt lat="45.94981" lon="4.8095">
        <ele>258</ele>
        <time>2018-07-05T08:54:32Z</time>
      </trkpt>
      <trkpt lat="45.94983" lon="4.80956">
        <ele>258</ele>
        <time>2018-07-05T08:54:33Z</time>
      </trkpt>
      <trkpt lat="45.94982" lon="4.80968">
        <ele>258</ele>
        <time>2018-07-05T08:54:35Z</time>
      </trkpt>
      <trkpt lat="45.94983" lon="4.80975">
        <ele>258</ele>
        <time>2018-07-05T08:54:36Z</time>
      </trkpt>
      <trkpt lat="45.94984" lon="4.80983">
        <ele>258</ele>
        <time>2018-07-05T08:54:37Z</time>
      </trkpt>
      <trkpt lat="45.94985" lon="4.8099">
        <ele>258</ele>
        <time>2018-07-05T08:54:38Z</time>
      </trkpt>
      <trkpt lat="45.94984" lon="4.80998">
        <ele>257</ele>
        <time>2018-07-05T08:54:39Z</time>
      </trkpt>
      <trkpt lat="45.94985" lon="4.81005">
        <ele>257</ele>
        <time>2018-07-05T08:54:40Z</time>
      </trkpt>
      <trkpt lat="45.94986" lon="4.81014">
        <ele>257</ele>
        <time>2018-07-05T08:54:41Z</time>
      </trkpt>
      <trkpt lat="45.94986" lon="4.81021">
        <ele>257</ele>
        <time>2018-07-05T08:54:42Z</time>
      </trkpt>
      <trkpt lat="45.94987" lon="4.81029">
        <ele>257</ele>
        <time>2018-07-05T08:54:43Z</time>
      </trkpt>
      <trkpt lat="45.94988" lon="4.81038">
        <ele>257</ele>
        <time>2018-07-05T08:54:44Z</time>
      </trkpt>
      <trkpt lat="45.94989" lon="4.81047">
        <ele>257</ele>
        <time>2018-07-05T08:54:45Z</time>
      </trkpt>
      <trkpt lat="45.9499" lon="4.81054">
        <ele>257</ele>
        <time>2018-07-05T08:54:46Z</time>
      </trkpt>
      <trkpt lat="45.9499" lon="4.81061">
        <ele>257</ele>
        <time>2018-07-05T08:54:47Z</time>
      </trkpt>
      <trkpt lat="45.94991" lon="4.81069">
        <ele>257</ele>
        <time>2018-07-05T08:54:48Z</time>
      </trkpt>
      <trkpt lat="45.9499" lon="4.81078">
        <ele>257</ele>
        <time>2018-07-05T08:54:49Z</time>
      </trkpt>
      <trkpt lat="45.9499" lon="4.81083">
        <ele>257</ele>
        <time>2018-07-05T08:54:50Z</time>
      </trkpt>
      <trkpt lat="45.94989" lon="4.8109">
        <ele>257</ele>
        <time>2018-07-05T08:54:51Z</time>
      </trkpt>
      <trkpt lat="45.9499" lon="4.81097">
        <ele>257</ele>
        <time>2018-07-05T08:54:52Z</time>
      </trkpt>
      <trkpt lat="45.9499" lon="4.81104">
        <ele>257</ele>
        <time>2018-07-05T08:54:53Z</time>
      </trkpt>
      <trkpt lat="45.94991" lon="4.8111">
        <ele>257</ele>
        <time>2018-07-05T08:54:54Z</time>
      </trkpt>
      <trkpt lat="45.94992" lon="4.81118">
        <ele>257</ele>
        <time>2018-07-05T08:54:55Z</time>
      </trkpt>
      <trkpt lat="45.94992" lon="4.81124">
        <ele>257</ele>
        <time>2018-07-05T08:54:56Z</time>
      </trkpt>
      <trkpt lat="45.94994" lon="4.81133">
        <ele>256</ele>
        <time>2018-07-05T08:54:57Z</time>
      </trkpt>
      <trkpt lat="45.94995" lon="4.81141">
        <ele>256</ele>
        <time>2018-07-05T08:54:58Z</time>
      </trkpt>
      <trkpt lat="45.94996" lon="4.81151">
        <ele>256</ele>
        <time>2018-07-05T08:54:59Z</time>
      </trkpt>
      <trkpt lat="45.94997" lon="4.81161">
        <ele>256</ele>
        <time>2018-07-05T08:55:00Z</time>
      </trkpt>
      <trkpt lat="45.94997" lon="4.81169">
        <ele>256</ele>
        <time>2018-07-05T08:55:01Z</time>
      </trkpt>
      <trkpt lat="45.94998" lon="4.81176">
        <ele>256</ele>
        <time>2018-07-05T08:55:02Z</time>
      </trkpt>
      <trkpt lat="45.94998" lon="4.81185">
        <ele>256</ele>
        <time>2018-07-05T08:55:03Z</time>
      </trkpt>
      <trkpt lat="45.95001" lon="4.81195">
        <ele>256</ele>
        <time>2018-07-05T08:55:04Z</time>
      </trkpt>
      <trkpt lat="45.95003" lon="4.81203">
        <ele>256</ele>
        <time>2018-07-05T08:55:05Z</time>
      </trkpt>
      <trkpt lat="45.95004" lon="4.81211">
        <ele>256</ele>
        <time>2018-07-05T08:55:06Z</time>
      </trkpt>
      <trkpt lat="45.95003" lon="4.81217">
        <ele>256</ele>
        <time>2018-07-05T08:55:07Z</time>
      </trkpt>
      <trkpt lat="45.95005" lon="4.81226">
        <ele>256</ele>
        <time>2018-07-05T08:55:08Z</time>
      </trkpt>
      <trkpt lat="45.95005" lon="4.81235">
        <ele>256</ele>
        <time>2018-07-05T08:55:09Z</time>
      </trkpt>
      <trkpt lat="45.95007" lon="4.81243">
        <ele>256</ele>
        <time>2018-07-05T08:55:10Z</time>
      </trkpt>
      <trkpt lat="45.95009" lon="4.81251">
        <ele>256</ele>
        <time>2018-07-05T08:55:11Z</time>
      </trkpt>
      <trkpt lat="45.95011" lon="4.8126">
        <ele>256</ele>
        <time>2018-07-05T08:55:12Z</time>
      </trkpt>
      <trkpt lat="45.95011" lon="4.81268">
        <ele>255</ele>
        <time>2018-07-05T08:55:13Z</time>
      </trkpt>
      <trkpt lat="45.95014" lon="4.81277">
        <ele>255</ele>
        <time>2018-07-05T08:55:14Z</time>
      </trkpt>
      <trkpt lat="45.95016" lon="4.81285">
        <ele>255</ele>
        <time>2018-07-05T08:55:15Z</time>
      </trkpt>
      <trkpt lat="45.95018" lon="4.81294">
        <ele>255</ele>
        <time>2018-07-05T08:55:16Z</time>
      </trkpt>
      <trkpt lat="45.9502" lon="4.81302">
        <ele>255</ele>
        <time>2018-07-05T08:55:17Z</time>
      </trkpt>
      <trkpt lat="45.95022" lon="4.81309">
        <ele>255</ele>
        <time>2018-07-05T08:55:18Z</time>
      </trkpt>
      <trkpt lat="45.95023" lon="4.81318">
        <ele>255</ele>
        <time>2018-07-05T08:55:19Z</time>
      </trkpt>
      <trkpt lat="45.95025" lon="4.81325">
        <ele>255</ele>
        <time>2018-07-05T08:55:20Z</time>
      </trkpt>
      <trkpt lat="45.95028" lon="4.81333">
        <ele>255</ele>
        <time>2018-07-05T08:55:21Z</time>
      </trkpt>
      <trkpt lat="45.95029" lon="4.8134">
        <ele>254</ele>
        <time>2018-07-05T08:55:22Z</time>
      </trkpt>
      <trkpt lat="45.95031" lon="4.81347">
        <ele>254</ele>
        <time>2018-07-05T08:55:23Z</time>
      </trkpt>
      <trkpt lat="45.95033" lon="4.81355">
        <ele>254</ele>
        <time>2018-07-05T08:55:24Z</time>
      </trkpt>
      <trkpt lat="45.95035" lon="4.81363">
        <ele>254</ele>
        <time>2018-07-05T08:55:25Z</time>
      </trkpt>
      <trkpt lat="45.95038" lon="4.81371">
        <ele>254</ele>
        <time>2018-07-05T08:55:26Z</time>
      </trkpt>
      <trkpt lat="45.95041" lon="4.8138">
        <ele>254</ele>
        <time>2018-07-05T08:55:27Z</time>
      </trkpt>
      <trkpt lat="45.95044" lon="4.81389">
        <ele>254</ele>
        <time>2018-07-05T08:55:28Z</time>
      </trkpt>
      <trkpt lat="45.95046" lon="4.81398">
        <ele>253</ele>
        <time>2018-07-05T08:55:29Z</time>
      </trkpt>
      <trkpt lat="45.9505" lon="4.81406">
        <ele>253</ele>
        <time>2018-07-05T08:55:30Z</time>
      </trkpt>
      <trkpt lat="45.95053" lon="4.81414">
        <ele>253</ele>
        <time>2018-07-05T08:55:31Z</time>
      </trkpt>
      <trkpt lat="45.95057" lon="4.81423">
        <ele>253</ele>
        <time>2018-07-05T08:55:32Z</time>
      </trkpt>
      <trkpt lat="45.9506" lon="4.81432">
        <ele>253</ele>
        <time>2018-07-05T08:55:33Z</time>
      </trkpt>
      <trkpt lat="45.95064" lon="4.81442">
        <ele>253</ele>
        <time>2018-07-05T08:55:34Z</time>
      </trkpt>
      <trkpt lat="45.95067" lon="4.81451">
        <ele>253</ele>
        <time>2018-07-05T08:55:35Z</time>
      </trkpt>
      <trkpt lat="45.95071" lon="4.81459">
        <ele>253</ele>
        <time>2018-07-05T08:55:36Z</time>
      </trkpt>
      <trkpt lat="45.95074" lon="4.81468">
        <ele>253</ele>
        <time>2018-07-05T08:55:37Z</time>
      </trkpt>
      <trkpt lat="45.9508" lon="4.81478">
        <ele>253</ele>
        <time>2018-07-05T08:55:38Z</time>
      </trkpt>
      <trkpt lat="45.95084" lon="4.81488">
        <ele>251</ele>
        <time>2018-07-05T08:55:39Z</time>
      </trkpt>
      <trkpt lat="45.95087" lon="4.81496">
        <ele>252</ele>
        <time>2018-07-05T08:55:40Z</time>
      </trkpt>
      <trkpt lat="45.95091" lon="4.81506">
        <ele>252</ele>
        <time>2018-07-05T08:55:41Z</time>
      </trkpt>
      <trkpt lat="45.95095" lon="4.81518">
        <ele>251</ele>
        <time>2018-07-05T08:55:42Z</time>
      </trkpt>
      <trkpt lat="45.95098" lon="4.81527">
        <ele>251</ele>
        <time>2018-07-05T08:55:43Z</time>
      </trkpt>
      <trkpt lat="45.95102" lon="4.81537">
        <ele>251</ele>
        <time>2018-07-05T08:55:44Z</time>
      </trkpt>
      <trkpt lat="45.95105" lon="4.81547">
        <ele>251</ele>
        <time>2018-07-05T08:55:45Z</time>
      </trkpt>
      <trkpt lat="45.95108" lon="4.81556">
        <ele>251</ele>
        <time>2018-07-05T08:55:46Z</time>
      </trkpt>
      <trkpt lat="45.95112" lon="4.81564">
        <ele>251</ele>
        <time>2018-07-05T08:55:47Z</time>
      </trkpt>
      <trkpt lat="45.95115" lon="4.81574">
        <ele>251</ele>
        <time>2018-07-05T08:55:48Z</time>
      </trkpt>
      <trkpt lat="45.95117" lon="4.81583">
        <ele>251</ele>
        <time>2018-07-05T08:55:49Z</time>
      </trkpt>
      <trkpt lat="45.9512" lon="4.81591">
        <ele>252</ele>
        <time>2018-07-05T08:55:50Z</time>
      </trkpt>
      <trkpt lat="45.95124" lon="4.81598">
        <ele>252</ele>
        <time>2018-07-05T08:55:51Z</time>
      </trkpt>
      <trkpt lat="45.95127" lon="4.81605">
        <ele>252</ele>
        <time>2018-07-05T08:55:52Z</time>
      </trkpt>
      <trkpt lat="45.95129" lon="4.81614">
        <ele>252</ele>
        <time>2018-07-05T08:55:53Z</time>
      </trkpt>
      <trkpt lat="45.95131" lon="4.81621">
        <ele>252</ele>
        <time>2018-07-05T08:55:54Z</time>
      </trkpt>
      <trkpt lat="45.95134" lon="4.81629">
        <ele>253</ele>
        <time>2018-07-05T08:55:55Z</time>
      </trkpt>
      <trkpt lat="45.95136" lon="4.81635">
        <ele>253</ele>
        <time>2018-07-05T08:55:56Z</time>
      </trkpt>
      <trkpt lat="45.95139" lon="4.81641">
        <ele>253</ele>
        <time>2018-07-05T08:55:57Z</time>
      </trkpt>
      <trkpt lat="45.9514" lon="4.81647">
        <ele>253</ele>
        <time>2018-07-05T08:55:58Z</time>
      </trkpt>
      <trkpt lat="45.95143" lon="4.81658">
        <ele>253</ele>
        <time>2018-07-05T08:56:00Z</time>
      </trkpt>
      <trkpt lat="45.95145" lon="4.81664">
        <ele>253</ele>
        <time>2018-07-05T08:56:01Z</time>
      </trkpt>
      <trkpt lat="45.95147" lon="4.81674">
        <ele>255</ele>
        <time>2018-07-05T08:56:03Z</time>
      </trkpt>
      <trkpt lat="45.95149" lon="4.81679">
        <ele>255</ele>
        <time>2018-07-05T08:56:04Z</time>
      </trkpt>
      <trkpt lat="45.95152" lon="4.81689">
        <ele>255</ele>
        <time>2018-07-05T08:56:06Z</time>
      </trkpt>
      <trkpt lat="45.95153" lon="4.81694">
        <ele>255</ele>
        <time>2018-07-05T08:56:07Z</time>
      </trkpt>
      <trkpt lat="45.95155" lon="4.81704">
        <ele>255</ele>
        <time>2018-07-05T08:56:09Z</time>
      </trkpt>
      <trkpt lat="45.95158" lon="4.81707">
        <ele>255</ele>
        <time>2018-07-05T08:56:10Z</time>
      </trkpt>
      <trkpt lat="45.95163" lon="4.81715">
        <ele>256</ele>
        <time>2018-07-05T08:56:13Z</time>
      </trkpt>
      <trkpt lat="45.95165" lon="4.81718">
        <ele>256</ele>
        <time>2018-07-05T08:56:14Z</time>
      </trkpt>
      <trkpt lat="45.9517" lon="4.81728">
        <ele>257</ele>
        <time>2018-07-05T08:56:17Z</time>
      </trkpt>
      <trkpt lat="45.95172" lon="4.81732">
        <ele>257</ele>
        <time>2018-07-05T08:56:18Z</time>
      </trkpt>
      <trkpt lat="45.95176" lon="4.81739">
        <ele>257</ele>
        <time>2018-07-05T08:56:20Z</time>
      </trkpt>
      <trkpt lat="45.95178" lon="4.81743">
        <ele>257</ele>
        <time>2018-07-05T08:56:21Z</time>
      </trkpt>
      <trkpt lat="45.95181" lon="4.81751">
        <ele>258</ele>
        <time>2018-07-05T08:56:23Z</time>
      </trkpt>
      <trkpt lat="45.95183" lon="4.81755">
        <ele>258</ele>
        <time>2018-07-05T08:56:24Z</time>
      </trkpt>
      <trkpt lat="45.95186" lon="4.81763">
        <ele>258</ele>
        <time>2018-07-05T08:56:26Z</time>
      </trkpt>
      <trkpt lat="45.95188" lon="4.81767">
        <ele>258</ele>
        <time>2018-07-05T08:56:27Z</time>
      </trkpt>
      <trkpt lat="45.9519" lon="4.81771">
        <ele>258</ele>
        <time>2018-07-05T08:56:28Z</time>
      </trkpt>
      <trkpt lat="45.95196" lon="4.81782">
        <ele>258</ele>
        <time>2018-07-05T08:56:29Z</time>
      </trkpt>
      <trkpt lat="45.95201" lon="4.81789">
        <ele>259</ele>
        <time>2018-07-05T08:56:31Z</time>
      </trkpt>
      <trkpt lat="45.95204" lon="4.81793">
        <ele>259</ele>
        <time>2018-07-05T08:56:32Z</time>
      </trkpt>
      <trkpt lat="45.9521" lon="4.818">
        <ele>259</ele>
        <time>2018-07-05T08:56:34Z</time>
      </trkpt>
      <trkpt lat="45.95213" lon="4.81804">
        <ele>259</ele>
        <time>2018-07-05T08:56:35Z</time>
      </trkpt>
      <trkpt lat="45.95216" lon="4.81809">
        <ele>259</ele>
        <time>2018-07-05T08:56:37Z</time>
      </trkpt>
      <trkpt lat="45.95221" lon="4.81816">
        <ele>259</ele>
        <time>2018-07-05T08:56:38Z</time>
      </trkpt>
      <trkpt lat="45.95226" lon="4.81823">
        <ele>259</ele>
        <time>2018-07-05T08:56:40Z</time>
      </trkpt>
      <trkpt lat="45.95229" lon="4.81827">
        <ele>259</ele>
        <time>2018-07-05T08:56:41Z</time>
      </trkpt>
      <trkpt lat="45.95233" lon="4.81836">
        <ele>260</ele>
        <time>2018-07-05T08:56:43Z</time>
      </trkpt>
      <trkpt lat="45.95236" lon="4.8184">
        <ele>260</ele>
        <time>2018-07-05T08:56:44Z</time>
      </trkpt>
      <trkpt lat="45.95243" lon="4.81847">
        <ele>260</ele>
        <time>2018-07-05T08:56:46Z</time>
      </trkpt>
      <trkpt lat="45.95246" lon="4.81851">
        <ele>260</ele>
        <time>2018-07-05T08:56:47Z</time>
      </trkpt>
      <trkpt lat="45.95251" lon="4.81861">
        <ele>260</ele>
        <time>2018-07-05T08:56:49Z</time>
      </trkpt>
      <trkpt lat="45.95254" lon="4.81866">
        <ele>260</ele>
        <time>2018-07-05T08:56:50Z</time>
      </trkpt>
      <trkpt lat="45.95259" lon="4.81871">
        <ele>260</ele>
        <time>2018-07-05T08:56:51Z</time>
      </trkpt>
      <trkpt lat="45.95262" lon="4.81875">
        <ele>260</ele>
        <time>2018-07-05T08:56:52Z</time>
      </trkpt>
      <trkpt lat="45.95267" lon="4.81886">
        <ele>260</ele>
        <time>2018-07-05T08:56:54Z</time>
      </trkpt>
      <trkpt lat="45.9527" lon="4.8189">
        <ele>260</ele>
        <time>2018-07-05T08:56:55Z</time>
      </trkpt>
      <trkpt lat="45.95277" lon="4.81898">
        <ele>260</ele>
        <time>2018-07-05T08:56:57Z</time>
      </trkpt>
      <trkpt lat="45.95279" lon="4.81901">
        <ele>260</ele>
        <time>2018-07-05T08:56:58Z</time>
      </trkpt>
      <trkpt lat="45.95282" lon="4.81906">
        <ele>260</ele>
        <time>2018-07-05T08:56:59Z</time>
      </trkpt>
      <trkpt lat="45.95286" lon="4.81911">
        <ele>260</ele>
        <time>2018-07-05T08:57:00Z</time>
      </trkpt>
      <trkpt lat="45.95289" lon="4.81916">
        <ele>260</ele>
        <time>2018-07-05T08:57:01Z</time>
      </trkpt>
      <trkpt lat="45.95292" lon="4.81921">
        <ele>261</ele>
        <time>2018-07-05T08:57:02Z</time>
      </trkpt>
      <trkpt lat="45.95295" lon="4.81925">
        <ele>261</ele>
        <time>2018-07-05T08:57:03Z</time>
      </trkpt>
      <trkpt lat="45.95298" lon="4.8193">
        <ele>261</ele>
        <time>2018-07-05T08:57:04Z</time>
      </trkpt>
      <trkpt lat="45.95302" lon="4.81934">
        <ele>261</ele>
        <time>2018-07-05T08:57:05Z</time>
      </trkpt>
      <trkpt lat="45.95305" lon="4.81939">
        <ele>261</ele>
        <time>2018-07-05T08:57:06Z</time>
      </trkpt>
      <trkpt lat="45.95308" lon="4.81943">
        <ele>261</ele>
        <time>2018-07-05T08:57:07Z</time>
      </trkpt>
      <trkpt lat="45.95313" lon="4.81947">
        <ele>261</ele>
        <time>2018-07-05T08:57:08Z</time>
      </trkpt>
      <trkpt lat="45.95319" lon="4.81955">
        <ele>262</ele>
        <time>2018-07-05T08:57:10Z</time>
      </trkpt>
      <trkpt lat="45.95321" lon="4.81958">
        <ele>262</ele>
        <time>2018-07-05T08:57:11Z</time>
      </trkpt>
      <trkpt lat="45.95326" lon="4.81962">
        <ele>262</ele>
        <time>2018-07-05T08:57:12Z</time>
      </trkpt>
      <trkpt lat="45.95329" lon="4.81965">
        <ele>262</ele>
        <time>2018-07-05T08:57:13Z</time>
      </trkpt>
      <trkpt lat="45.95333" lon="4.81969">
        <ele>262</ele>
        <time>2018-07-05T08:57:14Z</time>
      </trkpt>
      <trkpt lat="45.95335" lon="4.81974">
        <ele>262</ele>
        <time>2018-07-05T08:57:15Z</time>
      </trkpt>
      <trkpt lat="45.9534" lon="4.81984">
        <ele>262</ele>
        <time>2018-07-05T08:57:17Z</time>
      </trkpt>
      <trkpt lat="45.95344" lon="4.81989">
        <ele>262</ele>
        <time>2018-07-05T08:57:18Z</time>
      </trkpt>
      <trkpt lat="45.95348" lon="4.81994">
        <ele>262</ele>
        <time>2018-07-05T08:57:19Z</time>
      </trkpt>
      <trkpt lat="45.95353" lon="4.81998">
        <ele>262</ele>
        <time>2018-07-05T08:57:20Z</time>
      </trkpt>
      <trkpt lat="45.95359" lon="4.82002">
        <ele>262</ele>
        <time>2018-07-05T08:57:21Z</time>
      </trkpt>
      <trkpt lat="45.95364" lon="4.82005">
        <ele>262</ele>
        <time>2018-07-05T08:57:22Z</time>
      </trkpt>
      <trkpt lat="45.95371" lon="4.82013">
        <ele>262</ele>
        <time>2018-07-05T08:57:24Z</time>
      </trkpt>
      <trkpt lat="45.95372" lon="4.82018">
        <ele>262</ele>
        <time>2018-07-05T08:57:25Z</time>
      </trkpt>
      <trkpt lat="45.95378" lon="4.82025">
        <ele>262</ele>
        <time>2018-07-05T08:57:27Z</time>
      </trkpt>
      <trkpt lat="45.95382" lon="4.82028">
        <ele>262</ele>
        <time>2018-07-05T08:57:28Z</time>
      </trkpt>
      <trkpt lat="45.95384" lon="4.82038">
        <ele>262</ele>
        <time>2018-07-05T08:57:30Z</time>
      </trkpt>
      <trkpt lat="45.95389" lon="4.82041">
        <ele>262</ele>
        <time>2018-07-05T08:57:31Z</time>
      </trkpt>
      <trkpt lat="45.95392" lon="4.82045">
        <ele>262</ele>
        <time>2018-07-05T08:57:32Z</time>
      </trkpt>
      <trkpt lat="45.95397" lon="4.82049">
        <ele>261</ele>
        <time>2018-07-05T08:57:33Z</time>
      </trkpt>
      <trkpt lat="45.95402" lon="4.82053">
        <ele>261</ele>
        <time>2018-07-05T08:57:34Z</time>
      </trkpt>
      <trkpt lat="45.95404" lon="4.82058">
        <ele>261</ele>
        <time>2018-07-05T08:57:35Z</time>
      </trkpt>
      <trkpt lat="45.95408" lon="4.82062">
        <ele>261</ele>
        <time>2018-07-05T08:57:36Z</time>
      </trkpt>
      <trkpt lat="45.95412" lon="4.82067">
        <ele>261</ele>
        <time>2018-07-05T08:57:37Z</time>
      </trkpt>
      <trkpt lat="45.95416" lon="4.82071">
        <ele>261</ele>
        <time>2018-07-05T08:57:38Z</time>
      </trkpt>
      <trkpt lat="45.9542" lon="4.82075">
        <ele>261</ele>
        <time>2018-07-05T08:57:39Z</time>
      </trkpt>
      <trkpt lat="45.95423" lon="4.82079">
        <ele>261</ele>
        <time>2018-07-05T08:57:40Z</time>
      </trkpt>
      <trkpt lat="45.95426" lon="4.82083">
        <ele>261</ele>
        <time>2018-07-05T08:57:41Z</time>
      </trkpt>
      <trkpt lat="45.95432" lon="4.8209">
        <ele>261</ele>
        <time>2018-07-05T08:57:43Z</time>
      </trkpt>
      <trkpt lat="45.95437" lon="4.82095">
        <ele>260</ele>
        <time>2018-07-05T08:57:44Z</time>
      </trkpt>
      <trkpt lat="45.95443" lon="4.82099">
        <ele>260</ele>
        <time>2018-07-05T08:57:45Z</time>
      </trkpt>
      <trkpt lat="45.95447" lon="4.82102">
        <ele>260</ele>
        <time>2018-07-05T08:57:46Z</time>
      </trkpt>
      <trkpt lat="45.95453" lon="4.82108">
        <ele>260</ele>
        <time>2018-07-05T08:57:48Z</time>
      </trkpt>
      <trkpt lat="45.95457" lon="4.82112">
        <ele>260</ele>
        <time>2018-07-05T08:57:49Z</time>
      </trkpt>
      <trkpt lat="45.95463" lon="4.82119">
        <ele>260</ele>
        <time>2018-07-05T08:57:51Z</time>
      </trkpt>
      <trkpt lat="45.95467" lon="4.82123">
        <ele>260</ele>
        <time>2018-07-05T08:57:52Z</time>
      </trkpt>
      <trkpt lat="45.95473" lon="4.8213">
        <ele>260</ele>
        <time>2018-07-05T08:57:54Z</time>
      </trkpt>
      <trkpt lat="45.95474" lon="4.82136">
        <ele>260</ele>
        <time>2018-07-05T08:57:55Z</time>
      </trkpt>
      <trkpt lat="45.95478" lon="4.82139">
        <ele>260</ele>
        <time>2018-07-05T08:57:56Z</time>
      </trkpt>
      <trkpt lat="45.95483" lon="4.82143">
        <ele>260</ele>
        <time>2018-07-05T08:57:57Z</time>
      </trkpt>
      <trkpt lat="45.95491" lon="4.82144">
        <ele>260</ele>
        <time>2018-07-05T08:57:58Z</time>
      </trkpt>
      <trkpt lat="45.95494" lon="4.82149">
        <ele>260</ele>
        <time>2018-07-05T08:57:59Z</time>
      </trkpt>
      <trkpt lat="45.95498" lon="4.82152">
        <ele>260</ele>
        <time>2018-07-05T08:58:00Z</time>
      </trkpt>
      <trkpt lat="45.95502" lon="4.82156">
        <ele>260</ele>
        <time>2018-07-05T08:58:01Z</time>
      </trkpt>
      <trkpt lat="45.95509" lon="4.8216">
        <ele>260</ele>
        <time>2018-07-05T08:58:02Z</time>
      </trkpt>
      <trkpt lat="45.95512" lon="4.82164">
        <ele>260</ele>
        <time>2018-07-05T08:58:03Z</time>
      </trkpt>
      <trkpt lat="45.95518" lon="4.82168">
        <ele>259</ele>
        <time>2018-07-05T08:58:04Z</time>
      </trkpt>
      <trkpt lat="45.95521" lon="4.82172">
        <ele>259</ele>
        <time>2018-07-05T08:58:05Z</time>
      </trkpt>
      <trkpt lat="45.95525" lon="4.82175">
        <ele>259</ele>
        <time>2018-07-05T08:58:06Z</time>
      </trkpt>
      <trkpt lat="45.9553" lon="4.82179">
        <ele>259</ele>
        <time>2018-07-05T08:58:07Z</time>
      </trkpt>
      <trkpt lat="45.95534" lon="4.82184">
        <ele>259</ele>
        <time>2018-07-05T08:58:08Z</time>
      </trkpt>
      <trkpt lat="45.95539" lon="4.82187">
        <ele>259</ele>
        <time>2018-07-05T08:58:09Z</time>
      </trkpt>
      <trkpt lat="45.95544" lon="4.8219">
        <ele>259</ele>
        <time>2018-07-05T08:58:10Z</time>
      </trkpt>
      <trkpt lat="45.95548" lon="4.82194">
        <ele>259</ele>
        <time>2018-07-05T08:58:11Z</time>
      </trkpt>
      <trkpt lat="45.95552" lon="4.82196">
        <ele>259</ele>
        <time>2018-07-05T08:58:12Z</time>
      </trkpt>
      <trkpt lat="45.95556" lon="4.822">
        <ele>259</ele>
        <time>2018-07-05T08:58:13Z</time>
      </trkpt>
      <trkpt lat="45.9556" lon="4.82204">
        <ele>259</ele>
        <time>2018-07-05T08:58:14Z</time>
      </trkpt>
      <trkpt lat="45.95564" lon="4.82209">
        <ele>258</ele>
        <time>2018-07-05T08:58:15Z</time>
      </trkpt>
      <trkpt lat="45.9557" lon="4.82212">
        <ele>258</ele>
        <time>2018-07-05T08:58:16Z</time>
      </trkpt>
      <trkpt lat="45.95576" lon="4.82217">
        <ele>258</ele>
        <time>2018-07-05T08:58:17Z</time>
      </trkpt>
      <trkpt lat="45.95581" lon="4.82221">
        <ele>258</ele>
        <time>2018-07-05T08:58:18Z</time>
      </trkpt>
      <trkpt lat="45.95587" lon="4.82224">
        <ele>257</ele>
        <time>2018-07-05T08:58:19Z</time>
      </trkpt>
      <trkpt lat="45.95594" lon="4.82229">
        <ele>257</ele>
        <time>2018-07-05T08:58:21Z</time>
      </trkpt>
      <trkpt lat="45.956" lon="4.82232">
        <ele>257</ele>
        <time>2018-07-05T08:58:22Z</time>
      </trkpt>
      <trkpt lat="45.95606" lon="4.82232">
        <ele>257</ele>
        <time>2018-07-05T08:58:23Z</time>
      </trkpt>
      <trkpt lat="45.95613" lon="4.82231">
        <ele>257</ele>
        <time>2018-07-05T08:58:24Z</time>
      </trkpt>
      <trkpt lat="45.95617" lon="4.82229">
        <ele>257</ele>
        <time>2018-07-05T08:58:25Z</time>
      </trkpt>
      <trkpt lat="45.95623" lon="4.8223">
        <ele>257</ele>
        <time>2018-07-05T08:58:26Z</time>
      </trkpt>
      <trkpt lat="45.95628" lon="4.8223">
        <ele>257</ele>
        <time>2018-07-05T08:58:27Z</time>
      </trkpt>
      <trkpt lat="45.95634" lon="4.82231">
        <ele>257</ele>
        <time>2018-07-05T08:58:28Z</time>
      </trkpt>
      <trkpt lat="45.95641" lon="4.82231">
        <ele>257</ele>
        <time>2018-07-05T08:58:29Z</time>
      </trkpt>
      <trkpt lat="45.95648" lon="4.82231">
        <ele>257</ele>
        <time>2018-07-05T08:58:30Z</time>
      </trkpt>
      <trkpt lat="45.95654" lon="4.82233">
        <ele>257</ele>
        <time>2018-07-05T08:58:31Z</time>
      </trkpt>
      <trkpt lat="45.95661" lon="4.82235">
        <ele>256</ele>
        <time>2018-07-05T08:58:32Z</time>
      </trkpt>
      <trkpt lat="45.95669" lon="4.82237">
        <ele>255</ele>
        <time>2018-07-05T08:58:33Z</time>
      </trkpt>
      <trkpt lat="45.95675" lon="4.82239">
        <ele>255</ele>
        <time>2018-07-05T08:58:34Z</time>
      </trkpt>
      <trkpt lat="45.95678" lon="4.82243">
        <ele>255</ele>
        <time>2018-07-05T08:58:35Z</time>
      </trkpt>
      <trkpt lat="45.95683" lon="4.82247">
        <ele>255</ele>
        <time>2018-07-05T08:58:36Z</time>
      </trkpt>
      <trkpt lat="45.95689" lon="4.82251">
        <ele>255</ele>
        <time>2018-07-05T08:58:37Z</time>
      </trkpt>
      <trkpt lat="45.95695" lon="4.82258">
        <ele>255</ele>
        <time>2018-07-05T08:58:38Z</time>
      </trkpt>
      <trkpt lat="45.957" lon="4.82267">
        <ele>255</ele>
        <time>2018-07-05T08:58:40Z</time>
      </trkpt>
      <trkpt lat="45.95704" lon="4.82272">
        <ele>255</ele>
        <time>2018-07-05T08:58:41Z</time>
      </trkpt>
      <trkpt lat="45.95709" lon="4.82278">
        <ele>255</ele>
        <time>2018-07-05T08:58:42Z</time>
      </trkpt>
      <trkpt lat="45.95714" lon="4.82283">
        <ele>255</ele>
        <time>2018-07-05T08:58:43Z</time>
      </trkpt>
      <trkpt lat="45.95719" lon="4.82289">
        <ele>255</ele>
        <time>2018-07-05T08:58:44Z</time>
      </trkpt>
      <trkpt lat="45.95724" lon="4.82295">
        <ele>255</ele>
        <time>2018-07-05T08:58:45Z</time>
      </trkpt>
      <trkpt lat="45.95729" lon="4.823">
        <ele>255</ele>
        <time>2018-07-05T08:58:46Z</time>
      </trkpt>
      <trkpt lat="45.95738" lon="4.82302">
        <ele>255</ele>
        <time>2018-07-05T08:58:47Z</time>
      </trkpt>
      <trkpt lat="45.95743" lon="4.82307">
        <ele>255</ele>
        <time>2018-07-05T08:58:48Z</time>
      </trkpt>
      <trkpt lat="45.95745" lon="4.82313">
        <ele>256</ele>
        <time>2018-07-05T08:58:49Z</time>
      </trkpt>
      <trkpt lat="45.9575" lon="4.82319">
        <ele>256</ele>
        <time>2018-07-05T08:58:50Z</time>
      </trkpt>
      <trkpt lat="45.95755" lon="4.82327">
        <ele>254</ele>
        <time>2018-07-05T08:58:51Z</time>
      </trkpt>
      <trkpt lat="45.95758" lon="4.82335">
        <ele>255</ele>
        <time>2018-07-05T08:58:52Z</time>
      </trkpt>
      <trkpt lat="45.95765" lon="4.82341">
        <ele>254</ele>
        <time>2018-07-05T08:58:53Z</time>
      </trkpt>
      <trkpt lat="45.95772" lon="4.82346">
        <ele>254</ele>
        <time>2018-07-05T08:58:54Z</time>
      </trkpt>
      <trkpt lat="45.95779" lon="4.82352">
        <ele>253</ele>
        <time>2018-07-05T08:58:55Z</time>
      </trkpt>
      <trkpt lat="45.95785" lon="4.82357">
        <ele>253</ele>
        <time>2018-07-05T08:58:56Z</time>
      </trkpt>
      <trkpt lat="45.95794" lon="4.82361">
        <ele>252</ele>
        <time>2018-07-05T08:58:57Z</time>
      </trkpt>
      <trkpt lat="45.95801" lon="4.82364">
        <ele>252</ele>
        <time>2018-07-05T08:58:58Z</time>
      </trkpt>
      <trkpt lat="45.95809" lon="4.82367">
        <ele>252</ele>
        <time>2018-07-05T08:58:59Z</time>
      </trkpt>
      <trkpt lat="45.95817" lon="4.8237">
        <ele>252</ele>
        <time>2018-07-05T08:59:00Z</time>
      </trkpt>
      <trkpt lat="45.95826" lon="4.82371">
        <ele>251</ele>
        <time>2018-07-05T08:59:01Z</time>
      </trkpt>
      <trkpt lat="45.95838" lon="4.82372">
        <ele>246</ele>
        <time>2018-07-05T08:59:02Z</time>
      </trkpt>
      <trkpt lat="45.95847" lon="4.82374">
        <ele>246</ele>
        <time>2018-07-05T08:59:03Z</time>
      </trkpt>
      <trkpt lat="45.95857" lon="4.82373">
        <ele>245</ele>
        <time>2018-07-05T08:59:04Z</time>
      </trkpt>
      <trkpt lat="45.95867" lon="4.82374">
        <ele>245</ele>
        <time>2018-07-05T08:59:05Z</time>
      </trkpt>
      <trkpt lat="45.95877" lon="4.82374">
        <ele>244</ele>
        <time>2018-07-05T08:59:06Z</time>
      </trkpt>
      <trkpt lat="45.95886" lon="4.82373">
        <ele>244</ele>
        <time>2018-07-05T08:59:07Z</time>
      </trkpt>
      <trkpt lat="45.95896" lon="4.82372">
        <ele>243</ele>
        <time>2018-07-05T08:59:08Z</time>
      </trkpt>
      <trkpt lat="45.95908" lon="4.82371">
        <ele>242</ele>
        <time>2018-07-05T08:59:09Z</time>
      </trkpt>
      <trkpt lat="45.95923" lon="4.82368">
        <ele>238</ele>
        <time>2018-07-05T08:59:10Z</time>
      </trkpt>
      <trkpt lat="45.95934" lon="4.82367">
        <ele>238</ele>
        <time>2018-07-05T08:59:11Z</time>
      </trkpt>
      <trkpt lat="45.95943" lon="4.82365">
        <ele>237</ele>
        <time>2018-07-05T08:59:12Z</time>
      </trkpt>
      <trkpt lat="45.95959" lon="4.82359">
        <ele>237</ele>
        <time>2018-07-05T08:59:13Z</time>
      </trkpt>
      <trkpt lat="45.95968" lon="4.82358">
        <ele>237</ele>
        <time>2018-07-05T08:59:14Z</time>
      </trkpt>
      <trkpt lat="45.95978" lon="4.82357">
        <ele>237</ele>
        <time>2018-07-05T08:59:15Z</time>
      </trkpt>
      <trkpt lat="45.95986" lon="4.82355">
        <ele>236</ele>
        <time>2018-07-05T08:59:16Z</time>
      </trkpt>
      <trkpt lat="45.95993" lon="4.82355">
        <ele>236</ele>
        <time>2018-07-05T08:59:17Z</time>
      </trkpt>
      <trkpt lat="45.95999" lon="4.82355">
        <ele>236</ele>
        <time>2018-07-05T08:59:18Z</time>
      </trkpt>
      <trkpt lat="45.96003" lon="4.82355">
        <ele>235</ele>
        <time>2018-07-05T08:59:19Z</time>
      </trkpt>
      <trkpt lat="45.96008" lon="4.82358">
        <ele>235</ele>
        <time>2018-07-05T08:59:20Z</time>
      </trkpt>
      <trkpt lat="45.96012" lon="4.82361">
        <ele>235</ele>
        <time>2018-07-05T08:59:21Z</time>
      </trkpt>
      <trkpt lat="45.96016" lon="4.82367">
        <ele>235</ele>
        <time>2018-07-05T08:59:22Z</time>
      </trkpt>
      <trkpt lat="45.96018" lon="4.82373">
        <ele>235</ele>
        <time>2018-07-05T08:59:23Z</time>
      </trkpt>
      <trkpt lat="45.96019" lon="4.8238">
        <ele>235</ele>
        <time>2018-07-05T08:59:24Z</time>
      </trkpt>
      <trkpt lat="45.9602" lon="4.82387">
        <ele>235</ele>
        <time>2018-07-05T08:59:25Z</time>
      </trkpt>
      <trkpt lat="45.96019" lon="4.82393">
        <ele>235</ele>
        <time>2018-07-05T08:59:26Z</time>
      </trkpt>
      <trkpt lat="45.96019" lon="4.824">
        <ele>235</ele>
        <time>2018-07-05T08:59:27Z</time>
      </trkpt>
      <trkpt lat="45.96018" lon="4.82407">
        <ele>235</ele>
        <time>2018-07-05T08:59:28Z</time>
      </trkpt>
      <trkpt lat="45.96017" lon="4.82415">
        <ele>235</ele>
        <time>2018-07-05T08:59:29Z</time>
      </trkpt>
      <trkpt lat="45.96016" lon="4.82423">
        <ele>235</ele>
        <time>2018-07-05T08:59:30Z</time>
      </trkpt>
      <trkpt lat="45.96016" lon="4.8243">
        <ele>235</ele>
        <time>2018-07-05T08:59:31Z</time>
      </trkpt>
      <trkpt lat="45.96015" lon="4.82438">
        <ele>235</ele>
        <time>2018-07-05T08:59:32Z</time>
      </trkpt>
      <trkpt lat="45.96014" lon="4.82446">
        <ele>235</ele>
        <time>2018-07-05T08:59:33Z</time>
      </trkpt>
      <trkpt lat="45.96012" lon="4.82453">
        <ele>235</ele>
        <time>2018-07-05T08:59:34Z</time>
      </trkpt>
      <trkpt lat="45.96012" lon="4.82459">
        <ele>235</ele>
        <time>2018-07-05T08:59:35Z</time>
      </trkpt>
      <trkpt lat="45.96011" lon="4.82466">
        <ele>235</ele>
        <time>2018-07-05T08:59:36Z</time>
      </trkpt>
      <trkpt lat="45.9601" lon="4.82475">
        <ele>235</ele>
        <time>2018-07-05T08:59:37Z</time>
      </trkpt>
      <trkpt lat="45.96008" lon="4.82485">
        <ele>235</ele>
        <time>2018-07-05T08:59:39Z</time>
      </trkpt>
      <trkpt lat="45.96009" lon="4.82493">
        <ele>235</ele>
        <time>2018-07-05T08:59:40Z</time>
      </trkpt>
      <trkpt lat="45.96009" lon="4.825">
        <ele>235</ele>
        <time>2018-07-05T08:59:41Z</time>
      </trkpt>
      <trkpt lat="45.96008" lon="4.82507">
        <ele>235</ele>
        <time>2018-07-05T08:59:42Z</time>
      </trkpt>
      <trkpt lat="45.96006" lon="4.82514">
        <ele>235</ele>
        <time>2018-07-05T08:59:43Z</time>
      </trkpt>
      <trkpt lat="45.96005" lon="4.82521">
        <ele>235</ele>
        <time>2018-07-05T08:59:44Z</time>
      </trkpt>
      <trkpt lat="45.96006" lon="4.82534">
        <ele>235</ele>
        <time>2018-07-05T08:59:46Z</time>
      </trkpt>
      <trkpt lat="45.96006" lon="4.8254">
        <ele>235</ele>
        <time>2018-07-05T08:59:47Z</time>
      </trkpt>
      <trkpt lat="45.96005" lon="4.82547">
        <ele>235</ele>
        <time>2018-07-05T08:59:48Z</time>
      </trkpt>
      <trkpt lat="45.96005" lon="4.82555">
        <ele>235</ele>
        <time>2018-07-05T08:59:49Z</time>
      </trkpt>
      <trkpt lat="45.96006" lon="4.82561">
        <ele>234</ele>
        <time>2018-07-05T08:59:50Z</time>
      </trkpt>
      <trkpt lat="45.96007" lon="4.82568">
        <ele>234</ele>
        <time>2018-07-05T08:59:51Z</time>
      </trkpt>
      <trkpt lat="45.96007" lon="4.82575">
        <ele>234</ele>
        <time>2018-07-05T08:59:52Z</time>
      </trkpt>
      <trkpt lat="45.96009" lon="4.82582">
        <ele>234</ele>
        <time>2018-07-05T08:59:53Z</time>
      </trkpt>
      <trkpt lat="45.96011" lon="4.82588">
        <ele>234</ele>
        <time>2018-07-05T08:59:54Z</time>
      </trkpt>
      <trkpt lat="45.96014" lon="4.82594">
        <ele>235</ele>
        <time>2018-07-05T08:59:55Z</time>
      </trkpt>
      <trkpt lat="45.96015" lon="4.826">
        <ele>235</ele>
        <time>2018-07-05T08:59:56Z</time>
      </trkpt>
      <trkpt lat="45.96018" lon="4.82607">
        <ele>235</ele>
        <time>2018-07-05T08:59:57Z</time>
      </trkpt>
      <trkpt lat="45.9602" lon="4.82614">
        <ele>235</ele>
        <time>2018-07-05T08:59:58Z</time>
      </trkpt>
      <trkpt lat="45.96023" lon="4.8262">
        <ele>235</ele>
        <time>2018-07-05T08:59:59Z</time>
      </trkpt>
      <trkpt lat="45.96026" lon="4.82627">
        <ele>235</ele>
        <time>2018-07-05T09:00:00Z</time>
      </trkpt>
      <trkpt lat="45.96031" lon="4.8264">
        <ele>235</ele>
        <time>2018-07-05T09:00:02Z</time>
      </trkpt>
      <trkpt lat="45.96033" lon="4.82646">
        <ele>235</ele>
        <time>2018-07-05T09:00:03Z</time>
      </trkpt>
      <trkpt lat="45.96036" lon="4.82653">
        <ele>235</ele>
        <time>2018-07-05T09:00:04Z</time>
      </trkpt>
      <trkpt lat="45.9604" lon="4.82664">
        <ele>235</ele>
        <time>2018-07-05T09:00:06Z</time>
      </trkpt>
      <trkpt lat="45.96042" lon="4.82669">
        <ele>236</ele>
        <time>2018-07-05T09:00:07Z</time>
      </trkpt>
      <trkpt lat="45.96046" lon="4.82673">
        <ele>236</ele>
        <time>2018-07-05T09:00:08Z</time>
      </trkpt>
      <trkpt lat="45.96048" lon="4.82679">
        <ele>236</ele>
        <time>2018-07-05T09:00:09Z</time>
      </trkpt>
      <trkpt lat="45.96051" lon="4.82686">
        <ele>236</ele>
        <time>2018-07-05T09:00:10Z</time>
      </trkpt>
      <trkpt lat="45.96054" lon="4.82692">
        <ele>237</ele>
        <time>2018-07-05T09:00:11Z</time>
      </trkpt>
      <trkpt lat="45.96058" lon="4.82698">
        <ele>237</ele>
        <time>2018-07-05T09:00:12Z</time>
      </trkpt>
      <trkpt lat="45.96059" lon="4.82704">
        <ele>237</ele>
        <time>2018-07-05T09:00:13Z</time>
      </trkpt>
      <trkpt lat="45.96062" lon="4.82709">
        <ele>237</ele>
        <time>2018-07-05T09:00:14Z</time>
      </trkpt>
      <trkpt lat="45.96063" lon="4.82716">
        <ele>237</ele>
        <time>2018-07-05T09:00:15Z</time>
      </trkpt>
      <trkpt lat="45.96067" lon="4.82727">
        <ele>237</ele>
        <time>2018-07-05T09:00:17Z</time>
      </trkpt>
      <trkpt lat="45.96068" lon="4.82733">
        <ele>237</ele>
        <time>2018-07-05T09:00:18Z</time>
      </trkpt>
      <trkpt lat="45.96071" lon="4.82744">
        <ele>237</ele>
        <time>2018-07-05T09:00:20Z</time>
      </trkpt>
      <trkpt lat="45.96073" lon="4.8275">
        <ele>237</ele>
        <time>2018-07-05T09:00:21Z</time>
      </trkpt>
      <trkpt lat="45.96075" lon="4.82755">
        <ele>237</ele>
        <time>2018-07-05T09:00:22Z</time>
      </trkpt>
      <trkpt lat="45.96077" lon="4.82762">
        <ele>238</ele>
        <time>2018-07-05T09:00:23Z</time>
      </trkpt>
      <trkpt lat="45.96078" lon="4.82768">
        <ele>238</ele>
        <time>2018-07-05T09:00:24Z</time>
      </trkpt>
      <trkpt lat="45.96081" lon="4.82774">
        <ele>238</ele>
        <time>2018-07-05T09:00:25Z</time>
      </trkpt>
      <trkpt lat="45.96084" lon="4.82781">
        <ele>237</ele>
        <time>2018-07-05T09:00:26Z</time>
      </trkpt>
      <trkpt lat="45.96086" lon="4.82788">
        <ele>237</ele>
        <time>2018-07-05T09:00:27Z</time>
      </trkpt>
      <trkpt lat="45.96088" lon="4.82796">
        <ele>237</ele>
        <time>2018-07-05T09:00:28Z</time>
      </trkpt>
      <trkpt lat="45.96089" lon="4.82802">
        <ele>237</ele>
        <time>2018-07-05T09:00:29Z</time>
      </trkpt>
      <trkpt lat="45.96092" lon="4.82815">
        <ele>237</ele>
        <time>2018-07-05T09:00:31Z</time>
      </trkpt>
      <trkpt lat="45.96093" lon="4.82821">
        <ele>237</ele>
        <time>2018-07-05T09:00:32Z</time>
      </trkpt>
      <trkpt lat="45.96094" lon="4.82828">
        <ele>237</ele>
        <time>2018-07-05T09:00:33Z</time>
      </trkpt>
      <trkpt lat="45.96095" lon="4.82835">
        <ele>237</ele>
        <time>2018-07-05T09:00:34Z</time>
      </trkpt>
      <trkpt lat="45.96098" lon="4.82842">
        <ele>237</ele>
        <time>2018-07-05T09:00:35Z</time>
      </trkpt>
      <trkpt lat="45.96097" lon="4.82849">
        <ele>237</ele>
        <time>2018-07-05T09:00:36Z</time>
      </trkpt>
      <trkpt lat="45.96096" lon="4.82856">
        <ele>237</ele>
        <time>2018-07-05T09:00:37Z</time>
      </trkpt>
      <trkpt lat="45.96095" lon="4.82862">
        <ele>237</ele>
        <time>2018-07-05T09:00:38Z</time>
      </trkpt>
      <trkpt lat="45.96094" lon="4.82874">
        <ele>237</ele>
        <time>2018-07-05T09:00:40Z</time>
      </trkpt>
      <trkpt lat="45.96093" lon="4.82875">
        <ele>237</ele>
        <time>2018-07-05T09:00:41Z</time>
      </trkpt>
      <trkpt lat="45.96089" lon="4.82881">
        <ele>237</ele>
        <time>2018-07-05T09:00:42Z</time>
      </trkpt>
      <trkpt lat="45.96087" lon="4.82887">
        <ele>237</ele>
        <time>2018-07-05T09:00:43Z</time>
      </trkpt>
      <trkpt lat="45.96084" lon="4.82898">
        <ele>238</ele>
        <time>2018-07-05T09:00:45Z</time>
      </trkpt>
      <trkpt lat="45.96084" lon="4.82905">
        <ele>238</ele>
        <time>2018-07-05T09:00:46Z</time>
      </trkpt>
      <trkpt lat="45.96082" lon="4.82913">
        <ele>238</ele>
        <time>2018-07-05T09:00:47Z</time>
      </trkpt>
      <trkpt lat="45.96081" lon="4.82919">
        <ele>239</ele>
        <time>2018-07-05T09:00:48Z</time>
      </trkpt>
      <trkpt lat="45.96078" lon="4.82927">
        <ele>240</ele>
        <time>2018-07-05T09:00:49Z</time>
      </trkpt>
      <trkpt lat="45.96076" lon="4.82934">
        <ele>240</ele>
        <time>2018-07-05T09:00:50Z</time>
      </trkpt>
      <trkpt lat="45.96073" lon="4.82942">
        <ele>241</ele>
        <time>2018-07-05T09:00:51Z</time>
      </trkpt>
      <trkpt lat="45.96072" lon="4.82952">
        <ele>241</ele>
        <time>2018-07-05T09:00:52Z</time>
      </trkpt>
      <trkpt lat="45.9607" lon="4.82959">
        <ele>241</ele>
        <time>2018-07-05T09:00:53Z</time>
      </trkpt>
      <trkpt lat="45.96068" lon="4.82966">
        <ele>241</ele>
        <time>2018-07-05T09:00:54Z</time>
      </trkpt>
      <trkpt lat="45.96066" lon="4.82977">
        <ele>241</ele>
        <time>2018-07-05T09:00:56Z</time>
      </trkpt>
      <trkpt lat="45.96065" lon="4.82982">
        <ele>241</ele>
        <time>2018-07-05T09:00:57Z</time>
      </trkpt>
      <trkpt lat="45.96065" lon="4.82994">
        <ele>241</ele>
        <time>2018-07-05T09:01:00Z</time>
      </trkpt>
      <trkpt lat="45.96066" lon="4.83005">
        <ele>242</ele>
        <time>2018-07-05T09:01:01Z</time>
      </trkpt>
      <trkpt lat="45.96066" lon="4.83012">
        <ele>242</ele>
        <time>2018-07-05T09:01:02Z</time>
      </trkpt>
      <trkpt lat="45.96068" lon="4.8302">
        <ele>242</ele>
        <time>2018-07-05T09:01:03Z</time>
      </trkpt>
      <trkpt lat="45.96069" lon="4.83027">
        <ele>242</ele>
        <time>2018-07-05T09:01:04Z</time>
      </trkpt>
      <trkpt lat="45.96067" lon="4.83033">
        <ele>243</ele>
        <time>2018-07-05T09:01:05Z</time>
      </trkpt>
      <trkpt lat="45.96067" lon="4.8304">
        <ele>243</ele>
        <time>2018-07-05T09:01:06Z</time>
      </trkpt>
      <trkpt lat="45.96068" lon="4.83046">
        <ele>243</ele>
        <time>2018-07-05T09:01:07Z</time>
      </trkpt>
      <trkpt lat="45.96071" lon="4.83058">
        <ele>242</ele>
        <time>2018-07-05T09:01:09Z</time>
      </trkpt>
      <trkpt lat="45.96074" lon="4.83063">
        <ele>242</ele>
        <time>2018-07-05T09:01:10Z</time>
      </trkpt>
      <trkpt lat="45.96077" lon="4.83069">
        <ele>242</ele>
        <time>2018-07-05T09:01:11Z</time>
      </trkpt>
      <trkpt lat="45.96081" lon="4.83076">
        <ele>241</ele>
        <time>2018-07-05T09:01:12Z</time>
      </trkpt>
      <trkpt lat="45.96082" lon="4.83084">
        <ele>240</ele>
        <time>2018-07-05T09:01:13Z</time>
      </trkpt>
      <trkpt lat="45.96085" lon="4.8309">
        <ele>240</ele>
        <time>2018-07-05T09:01:14Z</time>
      </trkpt>
      <trkpt lat="45.96086" lon="4.83097">
        <ele>240</ele>
        <time>2018-07-05T09:01:15Z</time>
      </trkpt>
      <trkpt lat="45.96087" lon="4.83103">
        <ele>240</ele>
        <time>2018-07-05T09:01:16Z</time>
      </trkpt>
      <trkpt lat="45.96088" lon="4.83116">
        <ele>240</ele>
        <time>2018-07-05T09:01:18Z</time>
      </trkpt>
      <trkpt lat="45.96088" lon="4.83121">
        <ele>240</ele>
        <time>2018-07-05T09:01:19Z</time>
      </trkpt>
      <trkpt lat="45.96088" lon="4.83134">
        <ele>240</ele>
        <time>2018-07-05T09:01:21Z</time>
      </trkpt>
      <trkpt lat="45.96088" lon="4.8314">
        <ele>240</ele>
        <time>2018-07-05T09:01:22Z</time>
      </trkpt>
      <trkpt lat="45.96088" lon="4.83147">
        <ele>240</ele>
        <time>2018-07-05T09:01:23Z</time>
      </trkpt>
      <trkpt lat="45.96088" lon="4.83155">
        <ele>240</ele>
        <time>2018-07-05T09:01:24Z</time>
      </trkpt>
      <trkpt lat="45.96088" lon="4.83163">
        <ele>240</ele>
        <time>2018-07-05T09:01:25Z</time>
      </trkpt>
      <trkpt lat="45.96089" lon="4.83171">
        <ele>240</ele>
        <time>2018-07-05T09:01:26Z</time>
      </trkpt>
      <trkpt lat="45.96088" lon="4.83177">
        <ele>240</ele>
        <time>2018-07-05T09:01:27Z</time>
      </trkpt>
      <trkpt lat="45.96089" lon="4.83184">
        <ele>240</ele>
        <time>2018-07-05T09:01:28Z</time>
      </trkpt>
      <trkpt lat="45.96089" lon="4.83191">
        <ele>240</ele>
        <time>2018-07-05T09:01:29Z</time>
      </trkpt>
      <trkpt lat="45.96089" lon="4.83198">
        <ele>240</ele>
        <time>2018-07-05T09:01:30Z</time>
      </trkpt>
      <trkpt lat="45.96089" lon="4.83204">
        <ele>240</ele>
        <time>2018-07-05T09:01:31Z</time>
      </trkpt>
      <trkpt lat="45.9609" lon="4.83211">
        <ele>240</ele>
        <time>2018-07-05T09:01:32Z</time>
      </trkpt>
      <trkpt lat="45.9609" lon="4.83218">
        <ele>240</ele>
        <time>2018-07-05T09:01:33Z</time>
      </trkpt>
      <trkpt lat="45.9609" lon="4.83225">
        <ele>240</ele>
        <time>2018-07-05T09:01:34Z</time>
      </trkpt>
      <trkpt lat="45.96092" lon="4.83237">
        <ele>240</ele>
        <time>2018-07-05T09:01:36Z</time>
      </trkpt>
      <trkpt lat="45.96092" lon="4.83243">
        <ele>240</ele>
        <time>2018-07-05T09:01:37Z</time>
      </trkpt>
      <trkpt lat="45.96092" lon="4.8325">
        <ele>240</ele>
        <time>2018-07-05T09:01:38Z</time>
      </trkpt>
      <trkpt lat="45.96092" lon="4.83258">
        <ele>241</ele>
        <time>2018-07-05T09:01:39Z</time>
      </trkpt>
      <trkpt lat="45.96093" lon="4.83265">
        <ele>241</ele>
        <time>2018-07-05T09:01:40Z</time>
      </trkpt>
      <trkpt lat="45.96092" lon="4.83274">
        <ele>241</ele>
        <time>2018-07-05T09:01:41Z</time>
      </trkpt>
      <trkpt lat="45.96092" lon="4.83282">
        <ele>241</ele>
        <time>2018-07-05T09:01:42Z</time>
      </trkpt>
      <trkpt lat="45.96093" lon="4.83289">
        <ele>241</ele>
        <time>2018-07-05T09:01:43Z</time>
      </trkpt>
      <trkpt lat="45.96094" lon="4.83298">
        <ele>241</ele>
        <time>2018-07-05T09:01:44Z</time>
      </trkpt>
      <trkpt lat="45.96095" lon="4.83305">
        <ele>241</ele>
        <time>2018-07-05T09:01:45Z</time>
      </trkpt>
      <trkpt lat="45.96095" lon="4.83314">
        <ele>241</ele>
        <time>2018-07-05T09:01:46Z</time>
      </trkpt>
      <trkpt lat="45.96096" lon="4.83321">
        <ele>241</ele>
        <time>2018-07-05T09:01:47Z</time>
      </trkpt>
      <trkpt lat="45.96097" lon="4.8333">
        <ele>241</ele>
        <time>2018-07-05T09:01:48Z</time>
      </trkpt>
      <trkpt lat="45.96098" lon="4.83337">
        <ele>242</ele>
        <time>2018-07-05T09:01:49Z</time>
      </trkpt>
      <trkpt lat="45.96101" lon="4.83344">
        <ele>242</ele>
        <time>2018-07-05T09:01:50Z</time>
      </trkpt>
      <trkpt lat="45.96102" lon="4.83351">
        <ele>242</ele>
        <time>2018-07-05T09:01:51Z</time>
      </trkpt>
      <trkpt lat="45.96104" lon="4.83358">
        <ele>242</ele>
        <time>2018-07-05T09:01:52Z</time>
      </trkpt>
      <trkpt lat="45.96106" lon="4.83365">
        <ele>242</ele>
        <time>2018-07-05T09:01:53Z</time>
      </trkpt>
      <trkpt lat="45.96106" lon="4.83372">
        <ele>242</ele>
        <time>2018-07-05T09:01:54Z</time>
      </trkpt>
      <trkpt lat="45.96107" lon="4.83379">
        <ele>242</ele>
        <time>2018-07-05T09:01:55Z</time>
      </trkpt>
      <trkpt lat="45.96109" lon="4.83385">
        <ele>243</ele>
        <time>2018-07-05T09:01:56Z</time>
      </trkpt>
      <trkpt lat="45.96111" lon="4.83391">
        <ele>243</ele>
        <time>2018-07-05T09:01:57Z</time>
      </trkpt>
      <trkpt lat="45.96112" lon="4.83398">
        <ele>243</ele>
        <time>2018-07-05T09:01:58Z</time>
      </trkpt>
      <trkpt lat="45.96114" lon="4.83405">
        <ele>243</ele>
        <time>2018-07-05T09:01:59Z</time>
      </trkpt>
      <trkpt lat="45.96116" lon="4.83417">
        <ele>243</ele>
        <time>2018-07-05T09:02:01Z</time>
      </trkpt>
      <trkpt lat="45.96118" lon="4.83424">
        <ele>243</ele>
        <time>2018-07-05T09:02:02Z</time>
      </trkpt>
      <trkpt lat="45.9612" lon="4.83436">
        <ele>242</ele>
        <time>2018-07-05T09:02:04Z</time>
      </trkpt>
      <trkpt lat="45.96121" lon="4.83443">
        <ele>242</ele>
        <time>2018-07-05T09:02:05Z</time>
      </trkpt>
      <trkpt lat="45.96122" lon="4.8345">
        <ele>242</ele>
        <time>2018-07-05T09:02:06Z</time>
      </trkpt>
      <trkpt lat="45.96122" lon="4.83457">
        <ele>242</ele>
        <time>2018-07-05T09:02:07Z</time>
      </trkpt>
      <trkpt lat="45.96124" lon="4.83467">
        <ele>242</ele>
        <time>2018-07-05T09:02:09Z</time>
      </trkpt>
      <trkpt lat="45.96125" lon="4.83473">
        <ele>242</ele>
        <time>2018-07-05T09:02:10Z</time>
      </trkpt>
      <trkpt lat="45.96127" lon="4.83485">
        <ele>242</ele>
        <time>2018-07-05T09:02:12Z</time>
      </trkpt>
      <trkpt lat="45.9613" lon="4.83491">
        <ele>242</ele>
        <time>2018-07-05T09:02:13Z</time>
      </trkpt>
      <trkpt lat="45.96131" lon="4.83502">
        <ele>242</ele>
        <time>2018-07-05T09:02:15Z</time>
      </trkpt>
      <trkpt lat="45.96133" lon="4.83507">
        <ele>242</ele>
        <time>2018-07-05T09:02:16Z</time>
      </trkpt>
      <trkpt lat="45.96135" lon="4.83517">
        <ele>242</ele>
        <time>2018-07-05T09:02:18Z</time>
      </trkpt>
      <trkpt lat="45.96136" lon="4.83523">
        <ele>242</ele>
        <time>2018-07-05T09:02:19Z</time>
      </trkpt>
      <trkpt lat="45.96138" lon="4.83534">
        <ele>242</ele>
        <time>2018-07-05T09:02:21Z</time>
      </trkpt>
      <trkpt lat="45.96139" lon="4.8354">
        <ele>242</ele>
        <time>2018-07-05T09:02:22Z</time>
      </trkpt>
      <trkpt lat="45.96142" lon="4.83551">
        <ele>242</ele>
        <time>2018-07-05T09:02:24Z</time>
      </trkpt>
      <trkpt lat="45.96143" lon="4.83557">
        <ele>242</ele>
        <time>2018-07-05T09:02:25Z</time>
      </trkpt>
      <trkpt lat="45.96146" lon="4.83568">
        <ele>241</ele>
        <time>2018-07-05T09:02:27Z</time>
      </trkpt>
      <trkpt lat="45.96148" lon="4.83574">
        <ele>241</ele>
        <time>2018-07-05T09:02:28Z</time>
      </trkpt>
      <trkpt lat="45.9615" lon="4.83586">
        <ele>242</ele>
        <time>2018-07-05T09:02:30Z</time>
      </trkpt>
      <trkpt lat="45.96151" lon="4.83592">
        <ele>242</ele>
        <time>2018-07-05T09:02:31Z</time>
      </trkpt>
      <trkpt lat="45.96153" lon="4.83598">
        <ele>242</ele>
        <time>2018-07-05T09:02:32Z</time>
      </trkpt>
      <trkpt lat="45.96156" lon="4.83606">
        <ele>242</ele>
        <time>2018-07-05T09:02:33Z</time>
      </trkpt>
      <trkpt lat="45.96158" lon="4.83612">
        <ele>242</ele>
        <time>2018-07-05T09:02:34Z</time>
      </trkpt>
      <trkpt lat="45.9616" lon="4.83617">
        <ele>242</ele>
        <time>2018-07-05T09:02:35Z</time>
      </trkpt>
      <trkpt lat="45.96162" lon="4.83624">
        <ele>242</ele>
        <time>2018-07-05T09:02:36Z</time>
      </trkpt>
      <trkpt lat="45.96164" lon="4.8363">
        <ele>242</ele>
        <time>2018-07-05T09:02:37Z</time>
      </trkpt>
      <trkpt lat="45.96166" lon="4.83638">
        <ele>243</ele>
        <time>2018-07-05T09:02:38Z</time>
      </trkpt>
      <trkpt lat="45.96168" lon="4.83643">
        <ele>242</ele>
        <time>2018-07-05T09:02:39Z</time>
      </trkpt>
      <trkpt lat="45.96171" lon="4.83655">
        <ele>242</ele>
        <time>2018-07-05T09:02:41Z</time>
      </trkpt>
      <trkpt lat="45.96175" lon="4.8366">
        <ele>242</ele>
        <time>2018-07-05T09:02:42Z</time>
      </trkpt>
      <trkpt lat="45.96179" lon="4.83666">
        <ele>242</ele>
        <time>2018-07-05T09:02:43Z</time>
      </trkpt>
      <trkpt lat="45.96182" lon="4.83671">
        <ele>243</ele>
        <time>2018-07-05T09:02:44Z</time>
      </trkpt>
      <trkpt lat="45.96186" lon="4.83676">
        <ele>243</ele>
        <time>2018-07-05T09:02:45Z</time>
      </trkpt>
      <trkpt lat="45.96191" lon="4.83681">
        <ele>243</ele>
        <time>2018-07-05T09:02:46Z</time>
      </trkpt>
      <trkpt lat="45.96195" lon="4.83686">
        <ele>243</ele>
        <time>2018-07-05T09:02:47Z</time>
      </trkpt>
      <trkpt lat="45.96198" lon="4.83691">
        <ele>243</ele>
        <time>2018-07-05T09:02:48Z</time>
      </trkpt>
      <trkpt lat="45.96202" lon="4.83696">
        <ele>243</ele>
        <time>2018-07-05T09:02:49Z</time>
      </trkpt>
      <trkpt lat="45.96207" lon="4.83699">
        <ele>243</ele>
        <time>2018-07-05T09:02:50Z</time>
      </trkpt>
      <trkpt lat="45.96211" lon="4.83702">
        <ele>243</ele>
        <time>2018-07-05T09:02:51Z</time>
      </trkpt>
      <trkpt lat="45.96215" lon="4.83706">
        <ele>244</ele>
        <time>2018-07-05T09:02:52Z</time>
      </trkpt>
      <trkpt lat="45.96221" lon="4.83709">
        <ele>244</ele>
        <time>2018-07-05T09:02:53Z</time>
      </trkpt>
      <trkpt lat="45.96225" lon="4.83714">
        <ele>244</ele>
        <time>2018-07-05T09:02:54Z</time>
      </trkpt>
      <trkpt lat="45.9623" lon="4.83717">
        <ele>244</ele>
        <time>2018-07-05T09:02:55Z</time>
      </trkpt>
      <trkpt lat="45.96234" lon="4.83725">
        <ele>244</ele>
        <time>2018-07-05T09:02:56Z</time>
      </trkpt>
      <trkpt lat="45.96239" lon="4.8373">
        <ele>244</ele>
        <time>2018-07-05T09:02:57Z</time>
      </trkpt>
      <trkpt lat="45.96242" lon="4.83736">
        <ele>244</ele>
        <time>2018-07-05T09:02:58Z</time>
      </trkpt>
      <trkpt lat="45.96246" lon="4.8374">
        <ele>244</ele>
        <time>2018-07-05T09:02:59Z</time>
      </trkpt>
      <trkpt lat="45.96251" lon="4.83746">
        <ele>244</ele>
        <time>2018-07-05T09:03:00Z</time>
      </trkpt>
      <trkpt lat="45.96255" lon="4.8375">
        <ele>244</ele>
        <time>2018-07-05T09:03:01Z</time>
      </trkpt>
      <trkpt lat="45.96258" lon="4.83754">
        <ele>244</ele>
        <time>2018-07-05T09:03:02Z</time>
      </trkpt>
      <trkpt lat="45.96263" lon="4.83758">
        <ele>245</ele>
        <time>2018-07-05T09:03:03Z</time>
      </trkpt>
      <trkpt lat="45.96266" lon="4.83764">
        <ele>245</ele>
        <time>2018-07-05T09:03:04Z</time>
      </trkpt>
      <trkpt lat="45.96273" lon="4.8377">
        <ele>245</ele>
        <time>2018-07-05T09:03:06Z</time>
      </trkpt>
      <trkpt lat="45.96277" lon="4.83774">
        <ele>245</ele>
        <time>2018-07-05T09:03:07Z</time>
      </trkpt>
      <trkpt lat="45.9628" lon="4.83777">
        <ele>245</ele>
        <time>2018-07-05T09:03:08Z</time>
      </trkpt>
      <trkpt lat="45.96285" lon="4.8378">
        <ele>245</ele>
        <time>2018-07-05T09:03:09Z</time>
      </trkpt>
      <trkpt lat="45.96292" lon="4.83783">
        <ele>245</ele>
        <time>2018-07-05T09:03:11Z</time>
      </trkpt>
      <trkpt lat="45.96298" lon="4.8379">
        <ele>245</ele>
        <time>2018-07-05T09:03:12Z</time>
      </trkpt>
      <trkpt lat="45.96302" lon="4.83794">
        <ele>245</ele>
        <time>2018-07-05T09:03:13Z</time>
      </trkpt>
      <trkpt lat="45.96304" lon="4.83799">
        <ele>245</ele>
        <time>2018-07-05T09:03:14Z</time>
      </trkpt>
      <trkpt lat="45.96308" lon="4.83802">
        <ele>245</ele>
        <time>2018-07-05T09:03:15Z</time>
      </trkpt>
      <trkpt lat="45.96311" lon="4.83807">
        <ele>245</ele>
        <time>2018-07-05T09:03:16Z</time>
      </trkpt>
      <trkpt lat="45.96316" lon="4.8381">
        <ele>245</ele>
        <time>2018-07-05T09:03:17Z</time>
      </trkpt>
      <trkpt lat="45.96321" lon="4.83815">
        <ele>244</ele>
        <time>2018-07-05T09:03:18Z</time>
      </trkpt>
      <trkpt lat="45.96327" lon="4.83818">
        <ele>244</ele>
        <time>2018-07-05T09:03:19Z</time>
      </trkpt>
      <trkpt lat="45.96333" lon="4.83821">
        <ele>244</ele>
        <time>2018-07-05T09:03:20Z</time>
      </trkpt>
      <trkpt lat="45.96337" lon="4.83824">
        <ele>245</ele>
        <time>2018-07-05T09:03:21Z</time>
      </trkpt>
      <trkpt lat="45.96342" lon="4.83828">
        <ele>245</ele>
        <time>2018-07-05T09:03:22Z</time>
      </trkpt>
      <trkpt lat="45.96347" lon="4.83832">
        <ele>245</ele>
        <time>2018-07-05T09:03:23Z</time>
      </trkpt>
      <trkpt lat="45.96351" lon="4.83837">
        <ele>245</ele>
        <time>2018-07-05T09:03:24Z</time>
      </trkpt>
      <trkpt lat="45.96352" lon="4.83847">
        <ele>246</ele>
        <time>2018-07-05T09:03:26Z</time>
      </trkpt>
      <trkpt lat="45.96356" lon="4.83853">
        <ele>246</ele>
        <time>2018-07-05T09:03:27Z</time>
      </trkpt>
      <trkpt lat="45.96357" lon="4.8386">
        <ele>247</ele>
        <time>2018-07-05T09:03:28Z</time>
      </trkpt>
      <trkpt lat="45.96359" lon="4.83866">
        <ele>247</ele>
        <time>2018-07-05T09:03:29Z</time>
      </trkpt>
      <trkpt lat="45.96363" lon="4.83872">
        <ele>247</ele>
        <time>2018-07-05T09:03:30Z</time>
      </trkpt>
      <trkpt lat="45.96365" lon="4.83879">
        <ele>247</ele>
        <time>2018-07-05T09:03:31Z</time>
      </trkpt>
      <trkpt lat="45.96369" lon="4.83884">
        <ele>248</ele>
        <time>2018-07-05T09:03:32Z</time>
      </trkpt>
      <trkpt lat="45.96372" lon="4.8389">
        <ele>248</ele>
        <time>2018-07-05T09:03:33Z</time>
      </trkpt>
      <trkpt lat="45.96376" lon="4.83896">
        <ele>248</ele>
        <time>2018-07-05T09:03:34Z</time>
      </trkpt>
      <trkpt lat="45.96378" lon="4.83901">
        <ele>248</ele>
        <time>2018-07-05T09:03:35Z</time>
      </trkpt>
      <trkpt lat="45.96381" lon="4.83906">
        <ele>248</ele>
        <time>2018-07-05T09:03:36Z</time>
      </trkpt>
      <trkpt lat="45.96383" lon="4.83912">
        <ele>248</ele>
        <time>2018-07-05T09:03:37Z</time>
      </trkpt>
      <trkpt lat="45.96388" lon="4.83923">
        <ele>251</ele>
        <time>2018-07-05T09:03:39Z</time>
      </trkpt>
      <trkpt lat="45.9639" lon="4.83929">
        <ele>251</ele>
        <time>2018-07-05T09:03:40Z</time>
      </trkpt>
      <trkpt lat="45.96395" lon="4.83937">
        <ele>251</ele>
        <time>2018-07-05T09:03:42Z</time>
      </trkpt>
      <trkpt lat="45.96398" lon="4.83942">
        <ele>251</ele>
        <time>2018-07-05T09:03:43Z</time>
      </trkpt>
      <trkpt lat="45.96402" lon="4.8395">
        <ele>252</ele>
        <time>2018-07-05T09:03:45Z</time>
      </trkpt>
      <trkpt lat="45.96404" lon="4.83956">
        <ele>252</ele>
        <time>2018-07-05T09:03:46Z</time>
      </trkpt>
      <trkpt lat="45.96409" lon="4.83966">
        <ele>253</ele>
        <time>2018-07-05T09:03:48Z</time>
      </trkpt>
      <trkpt lat="45.96411" lon="4.83971">
        <ele>253</ele>
        <time>2018-07-05T09:03:49Z</time>
      </trkpt>
      <trkpt lat="45.96415" lon="4.8398">
        <ele>253</ele>
        <time>2018-07-05T09:03:51Z</time>
      </trkpt>
      <trkpt lat="45.96416" lon="4.83982">
        <ele>253</ele>
        <time>2018-07-05T09:03:52Z</time>
      </trkpt>
      <trkpt lat="45.96419" lon="4.83991">
        <ele>252</ele>
        <time>2018-07-05T09:03:54Z</time>
      </trkpt>
      <trkpt lat="45.96421" lon="4.83994">
        <ele>252</ele>
        <time>2018-07-05T09:03:55Z</time>
      </trkpt>
      <trkpt lat="45.96422" lon="4.83997">
        <ele>252</ele>
        <time>2018-07-05T09:03:56Z</time>
      </trkpt>
      <trkpt lat="45.96426" lon="4.84007">
        <ele>252</ele>
        <time>2018-07-05T09:03:57Z</time>
      </trkpt>
      <trkpt lat="45.9643" lon="4.84018">
        <ele>252</ele>
        <time>2018-07-05T09:03:59Z</time>
      </trkpt>
      <trkpt lat="45.96433" lon="4.84024">
        <ele>251</ele>
        <time>2018-07-05T09:04:00Z</time>
      </trkpt>
      <trkpt lat="45.96436" lon="4.84031">
        <ele>251</ele>
        <time>2018-07-05T09:04:03Z</time>
      </trkpt>
      <trkpt lat="45.9644" lon="4.84039">
        <ele>251</ele>
        <time>2018-07-05T09:04:04Z</time>
      </trkpt>
      <trkpt lat="45.96444" lon="4.84047">
        <ele>251</ele>
        <time>2018-07-05T09:04:06Z</time>
      </trkpt>
      <trkpt lat="45.96445" lon="4.84052">
        <ele>251</ele>
        <time>2018-07-05T09:04:07Z</time>
      </trkpt>
      <trkpt lat="45.96448" lon="4.8406">
        <ele>251</ele>
        <time>2018-07-05T09:04:09Z</time>
      </trkpt>
      <trkpt lat="45.9645" lon="4.84065">
        <ele>251</ele>
        <time>2018-07-05T09:04:10Z</time>
      </trkpt>
      <trkpt lat="45.96453" lon="4.84074">
        <ele>251</ele>
        <time>2018-07-05T09:04:12Z</time>
      </trkpt>
      <trkpt lat="45.96455" lon="4.84079">
        <ele>251</ele>
        <time>2018-07-05T09:04:13Z</time>
      </trkpt>
      <trkpt lat="45.96459" lon="4.84088">
        <ele>252</ele>
        <time>2018-07-05T09:04:15Z</time>
      </trkpt>
      <trkpt lat="45.9646" lon="4.84091">
        <ele>252</ele>
        <time>2018-07-05T09:04:16Z</time>
      </trkpt>
      <trkpt lat="45.96464" lon="4.84102">
        <ele>251</ele>
        <time>2018-07-05T09:04:18Z</time>
      </trkpt>
      <trkpt lat="45.96466" lon="4.84107">
        <ele>251</ele>
        <time>2018-07-05T09:04:19Z</time>
      </trkpt>
      <trkpt lat="45.96469" lon="4.84115">
        <ele>251</ele>
        <time>2018-07-05T09:04:22Z</time>
      </trkpt>
      <trkpt lat="45.96471" lon="4.84119">
        <ele>251</ele>
        <time>2018-07-05T09:04:23Z</time>
      </trkpt>
      <trkpt lat="45.96475" lon="4.8413">
        <ele>251</ele>
        <time>2018-07-05T09:04:24Z</time>
      </trkpt>
      <trkpt lat="45.96475" lon="4.84132">
        <ele>251</ele>
        <time>2018-07-05T09:04:25Z</time>
      </trkpt>
      <trkpt lat="45.96478" lon="4.84142">
        <ele>251</ele>
        <time>2018-07-05T09:04:27Z</time>
      </trkpt>
      <trkpt lat="45.9648" lon="4.8415">
        <ele>251</ele>
        <time>2018-07-05T09:04:28Z</time>
      </trkpt>
      <trkpt lat="45.96482" lon="4.84161">
        <ele>251</ele>
        <time>2018-07-05T09:04:30Z</time>
      </trkpt>
      <trkpt lat="45.96483" lon="4.84166">
        <ele>250</ele>
        <time>2018-07-05T09:04:31Z</time>
      </trkpt>
      <trkpt lat="45.96486" lon="4.84177">
        <ele>251</ele>
        <time>2018-07-05T09:04:33Z</time>
      </trkpt>
      <trkpt lat="45.96486" lon="4.84182">
        <ele>251</ele>
        <time>2018-07-05T09:04:34Z</time>
      </trkpt>
      <trkpt lat="45.96488" lon="4.84195">
        <ele>251</ele>
        <time>2018-07-05T09:04:36Z</time>
      </trkpt>
      <trkpt lat="45.96489" lon="4.84201">
        <ele>251</ele>
        <time>2018-07-05T09:04:37Z</time>
      </trkpt>
      <trkpt lat="45.96491" lon="4.84213">
        <ele>252</ele>
        <time>2018-07-05T09:04:39Z</time>
      </trkpt>
      <trkpt lat="45.96491" lon="4.84218">
        <ele>252</ele>
        <time>2018-07-05T09:04:40Z</time>
      </trkpt>
      <trkpt lat="45.96493" lon="4.8423">
        <ele>252</ele>
        <time>2018-07-05T09:04:42Z</time>
      </trkpt>
      <trkpt lat="45.96495" lon="4.84236">
        <ele>251</ele>
        <time>2018-07-05T09:04:43Z</time>
      </trkpt>
      <trkpt lat="45.96496" lon="4.84243">
        <ele>251</ele>
        <time>2018-07-05T09:04:44Z</time>
      </trkpt>
      <trkpt lat="45.96499" lon="4.84248">
        <ele>251</ele>
        <time>2018-07-05T09:04:45Z</time>
      </trkpt>
      <trkpt lat="45.96501" lon="4.84255">
        <ele>251</ele>
        <time>2018-07-05T09:04:46Z</time>
      </trkpt>
      <trkpt lat="45.96502" lon="4.84261">
        <ele>251</ele>
        <time>2018-07-05T09:04:47Z</time>
      </trkpt>
      <trkpt lat="45.96503" lon="4.84268">
        <ele>251</ele>
        <time>2018-07-05T09:04:48Z</time>
      </trkpt>
      <trkpt lat="45.96505" lon="4.84275">
        <ele>250</ele>
        <time>2018-07-05T09:04:49Z</time>
      </trkpt>
      <trkpt lat="45.96507" lon="4.84282">
        <ele>250</ele>
        <time>2018-07-05T09:04:50Z</time>
      </trkpt>
      <trkpt lat="45.96509" lon="4.84289">
        <ele>250</ele>
        <time>2018-07-05T09:04:51Z</time>
      </trkpt>
      <trkpt lat="45.9651" lon="4.84297">
        <ele>250</ele>
        <time>2018-07-05T09:04:52Z</time>
      </trkpt>
      <trkpt lat="45.96511" lon="4.84304">
        <ele>250</ele>
        <time>2018-07-05T09:04:53Z</time>
      </trkpt>
      <trkpt lat="45.96513" lon="4.8431">
        <ele>250</ele>
        <time>2018-07-05T09:04:54Z</time>
      </trkpt>
      <trkpt lat="45.96516" lon="4.84319">
        <ele>250</ele>
        <time>2018-07-05T09:04:55Z</time>
      </trkpt>
      <trkpt lat="45.96515" lon="4.84324">
        <ele>251</ele>
        <time>2018-07-05T09:04:56Z</time>
      </trkpt>
      <trkpt lat="45.96517" lon="4.84333">
        <ele>251</ele>
        <time>2018-07-05T09:04:57Z</time>
      </trkpt>
      <trkpt lat="45.96518" lon="4.84339">
        <ele>251</ele>
        <time>2018-07-05T09:04:58Z</time>
      </trkpt>
      <trkpt lat="45.96521" lon="4.84346">
        <ele>251</ele>
        <time>2018-07-05T09:04:59Z</time>
      </trkpt>
      <trkpt lat="45.96522" lon="4.84353">
        <ele>251</ele>
        <time>2018-07-05T09:05:00Z</time>
      </trkpt>
      <trkpt lat="45.96524" lon="4.8436">
        <ele>251</ele>
        <time>2018-07-05T09:05:01Z</time>
      </trkpt>
      <trkpt lat="45.96525" lon="4.84367">
        <ele>251</ele>
        <time>2018-07-05T09:05:02Z</time>
      </trkpt>
      <trkpt lat="45.96526" lon="4.84375">
        <ele>251</ele>
        <time>2018-07-05T09:05:03Z</time>
      </trkpt>
      <trkpt lat="45.96526" lon="4.84382">
        <ele>251</ele>
        <time>2018-07-05T09:05:04Z</time>
      </trkpt>
      <trkpt lat="45.96526" lon="4.84389">
        <ele>251</ele>
        <time>2018-07-05T09:05:05Z</time>
      </trkpt>
      <trkpt lat="45.96526" lon="4.84396">
        <ele>252</ele>
        <time>2018-07-05T09:05:06Z</time>
      </trkpt>
      <trkpt lat="45.96527" lon="4.84405">
        <ele>252</ele>
        <time>2018-07-05T09:05:07Z</time>
      </trkpt>
      <trkpt lat="45.96527" lon="4.84412">
        <ele>252</ele>
        <time>2018-07-05T09:05:08Z</time>
      </trkpt>
      <trkpt lat="45.96527" lon="4.84421">
        <ele>253</ele>
        <time>2018-07-05T09:05:09Z</time>
      </trkpt>
      <trkpt lat="45.96527" lon="4.84429">
        <ele>253</ele>
        <time>2018-07-05T09:05:10Z</time>
      </trkpt>
      <trkpt lat="45.96527" lon="4.84437">
        <ele>253</ele>
        <time>2018-07-05T09:05:11Z</time>
      </trkpt>
      <trkpt lat="45.96526" lon="4.84445">
        <ele>253</ele>
        <time>2018-07-05T09:05:12Z</time>
      </trkpt>
      <trkpt lat="45.96525" lon="4.84453">
        <ele>253</ele>
        <time>2018-07-05T09:05:13Z</time>
      </trkpt>
      <trkpt lat="45.96525" lon="4.8446">
        <ele>253</ele>
        <time>2018-07-05T09:05:14Z</time>
      </trkpt>
      <trkpt lat="45.96525" lon="4.84469">
        <ele>253</ele>
        <time>2018-07-05T09:05:15Z</time>
      </trkpt>
      <trkpt lat="45.96524" lon="4.84476">
        <ele>253</ele>
        <time>2018-07-05T09:05:16Z</time>
      </trkpt>
      <trkpt lat="45.96523" lon="4.84485">
        <ele>253</ele>
        <time>2018-07-05T09:05:17Z</time>
      </trkpt>
      <trkpt lat="45.96522" lon="4.84491">
        <ele>253</ele>
        <time>2018-07-05T09:05:18Z</time>
      </trkpt>
      <trkpt lat="45.96522" lon="4.84498">
        <ele>253</ele>
        <time>2018-07-05T09:05:19Z</time>
      </trkpt>
      <trkpt lat="45.96521" lon="4.84505">
        <ele>253</ele>
        <time>2018-07-05T09:05:20Z</time>
      </trkpt>
      <trkpt lat="45.9652" lon="4.84514">
        <ele>253</ele>
        <time>2018-07-05T09:05:21Z</time>
      </trkpt>
      <trkpt lat="45.9652" lon="4.84522">
        <ele>253</ele>
        <time>2018-07-05T09:05:22Z</time>
      </trkpt>
      <trkpt lat="45.96519" lon="4.84531">
        <ele>253</ele>
        <time>2018-07-05T09:05:23Z</time>
      </trkpt>
      <trkpt lat="45.96519" lon="4.84538">
        <ele>253</ele>
        <time>2018-07-05T09:05:24Z</time>
      </trkpt>
      <trkpt lat="45.96519" lon="4.84545">
        <ele>253</ele>
        <time>2018-07-05T09:05:25Z</time>
      </trkpt>
      <trkpt lat="45.96519" lon="4.84553">
        <ele>253</ele>
        <time>2018-07-05T09:05:26Z</time>
      </trkpt>
      <trkpt lat="45.96518" lon="4.84558">
        <ele>253</ele>
        <time>2018-07-05T09:05:27Z</time>
      </trkpt>
      <trkpt lat="45.96518" lon="4.84566">
        <ele>253</ele>
        <time>2018-07-05T09:05:28Z</time>
      </trkpt>
      <trkpt lat="45.96519" lon="4.84576">
        <ele>252</ele>
        <time>2018-07-05T09:05:29Z</time>
      </trkpt>
      <trkpt lat="45.96519" lon="4.84587">
        <ele>252</ele>
        <time>2018-07-05T09:05:31Z</time>
      </trkpt>
      <trkpt lat="45.96519" lon="4.84593">
        <ele>252</ele>
        <time>2018-07-05T09:05:32Z</time>
      </trkpt>
      <trkpt lat="45.96519" lon="4.84605">
        <ele>252</ele>
        <time>2018-07-05T09:05:34Z</time>
      </trkpt>
      <trkpt lat="45.9652" lon="4.84613">
        <ele>252</ele>
        <time>2018-07-05T09:05:35Z</time>
      </trkpt>
      <trkpt lat="45.9652" lon="4.8462">
        <ele>252</ele>
        <time>2018-07-05T09:05:36Z</time>
      </trkpt>
      <trkpt lat="45.9652" lon="4.84626">
        <ele>252</ele>
        <time>2018-07-05T09:05:37Z</time>
      </trkpt>
      <trkpt lat="45.96519" lon="4.84633">
        <ele>252</ele>
        <time>2018-07-05T09:05:38Z</time>
      </trkpt>
      <trkpt lat="45.96518" lon="4.84639">
        <ele>252</ele>
        <time>2018-07-05T09:05:39Z</time>
      </trkpt>
      <trkpt lat="45.96518" lon="4.84646">
        <ele>252</ele>
        <time>2018-07-05T09:05:40Z</time>
      </trkpt>
      <trkpt lat="45.96518" lon="4.84653">
        <ele>252</ele>
        <time>2018-07-05T09:05:41Z</time>
      </trkpt>
      <trkpt lat="45.96519" lon="4.84659">
        <ele>252</ele>
        <time>2018-07-05T09:05:42Z</time>
      </trkpt>
      <trkpt lat="45.96519" lon="4.84667">
        <ele>252</ele>
        <time>2018-07-05T09:05:43Z</time>
      </trkpt>
      <trkpt lat="45.9652" lon="4.84674">
        <ele>252</ele>
        <time>2018-07-05T09:05:44Z</time>
      </trkpt>
      <trkpt lat="45.96523" lon="4.84681">
        <ele>252</ele>
        <time>2018-07-05T09:05:45Z</time>
      </trkpt>
      <trkpt lat="45.96525" lon="4.84687">
        <ele>252</ele>
        <time>2018-07-05T09:05:46Z</time>
      </trkpt>
      <trkpt lat="45.96526" lon="4.84694">
        <ele>253</ele>
        <time>2018-07-05T09:05:47Z</time>
      </trkpt>
      <trkpt lat="45.96527" lon="4.84701">
        <ele>253</ele>
        <time>2018-07-05T09:05:48Z</time>
      </trkpt>
      <trkpt lat="45.96528" lon="4.84709">
        <ele>253</ele>
        <time>2018-07-05T09:05:49Z</time>
      </trkpt>
      <trkpt lat="45.96529" lon="4.84717">
        <ele>253</ele>
        <time>2018-07-05T09:05:50Z</time>
      </trkpt>
      <trkpt lat="45.96527" lon="4.84724">
        <ele>253</ele>
        <time>2018-07-05T09:05:51Z</time>
      </trkpt>
      <trkpt lat="45.96526" lon="4.84732">
        <ele>253</ele>
        <time>2018-07-05T09:05:52Z</time>
      </trkpt>
      <trkpt lat="45.96526" lon="4.84739">
        <ele>253</ele>
        <time>2018-07-05T09:05:53Z</time>
      </trkpt>
      <trkpt lat="45.96524" lon="4.84751">
        <ele>253</ele>
        <time>2018-07-05T09:05:55Z</time>
      </trkpt>
      <trkpt lat="45.96522" lon="4.84758">
        <ele>253</ele>
        <time>2018-07-05T09:05:56Z</time>
      </trkpt>
      <trkpt lat="45.96521" lon="4.84765">
        <ele>253</ele>
        <time>2018-07-05T09:05:57Z</time>
      </trkpt>
      <trkpt lat="45.9652" lon="4.84771">
        <ele>253</ele>
        <time>2018-07-05T09:05:58Z</time>
      </trkpt>
      <trkpt lat="45.96518" lon="4.84778">
        <ele>254</ele>
        <time>2018-07-05T09:05:59Z</time>
      </trkpt>
      <trkpt lat="45.96517" lon="4.84783">
        <ele>254</ele>
        <time>2018-07-05T09:06:00Z</time>
      </trkpt>
      <trkpt lat="45.96516" lon="4.84794">
        <ele>254</ele>
        <time>2018-07-05T09:06:02Z</time>
      </trkpt>
      <trkpt lat="45.96515" lon="4.848">
        <ele>254</ele>
        <time>2018-07-05T09:06:03Z</time>
      </trkpt>
      <trkpt lat="45.96513" lon="4.84811">
        <ele>254</ele>
        <time>2018-07-05T09:06:05Z</time>
      </trkpt>
      <trkpt lat="45.96511" lon="4.84815">
        <ele>254</ele>
        <time>2018-07-05T09:06:06Z</time>
      </trkpt>
      <trkpt lat="45.96507" lon="4.84827">
        <ele>253</ele>
        <time>2018-07-05T09:06:08Z</time>
      </trkpt>
      <trkpt lat="45.96505" lon="4.84832">
        <ele>253</ele>
        <time>2018-07-05T09:06:09Z</time>
      </trkpt>
      <trkpt lat="45.96503" lon="4.84843">
        <ele>255</ele>
        <time>2018-07-05T09:06:11Z</time>
      </trkpt>
      <trkpt lat="45.96502" lon="4.84846">
        <ele>255</ele>
        <time>2018-07-05T09:06:12Z</time>
      </trkpt>
      <trkpt lat="45.965" lon="4.84858">
        <ele>254</ele>
        <time>2018-07-05T09:06:15Z</time>
      </trkpt>
      <trkpt lat="45.96499" lon="4.84862">
        <ele>255</ele>
        <time>2018-07-05T09:06:16Z</time>
      </trkpt>
      <trkpt lat="45.96497" lon="4.84873">
        <ele>255</ele>
        <time>2018-07-05T09:06:19Z</time>
      </trkpt>
      <trkpt lat="45.96496" lon="4.84878">
        <ele>255</ele>
        <time>2018-07-05T09:06:20Z</time>
      </trkpt>
      <trkpt lat="45.96494" lon="4.84887">
        <ele>255</ele>
        <time>2018-07-05T09:06:22Z</time>
      </trkpt>
      <trkpt lat="45.96493" lon="4.84891">
        <ele>256</ele>
        <time>2018-07-05T09:06:23Z</time>
      </trkpt>
      <trkpt lat="45.96489" lon="4.84903">
        <ele>256</ele>
        <time>2018-07-05T09:06:26Z</time>
      </trkpt>
      <trkpt lat="45.96488" lon="4.84907">
        <ele>256</ele>
        <time>2018-07-05T09:06:27Z</time>
      </trkpt>
      <trkpt lat="45.96486" lon="4.84919">
        <ele>259</ele>
        <time>2018-07-05T09:06:30Z</time>
      </trkpt>
      <trkpt lat="45.96486" lon="4.84923">
        <ele>259</ele>
        <time>2018-07-05T09:06:31Z</time>
      </trkpt>
      <trkpt lat="45.96483" lon="4.84934">
        <ele>260</ele>
        <time>2018-07-05T09:06:34Z</time>
      </trkpt>
      <trkpt lat="45.96482" lon="4.84938">
        <ele>260</ele>
        <time>2018-07-05T09:06:35Z</time>
      </trkpt>
      <trkpt lat="45.96479" lon="4.8495">
        <ele>261</ele>
        <time>2018-07-05T09:06:38Z</time>
      </trkpt>
      <trkpt lat="45.96479" lon="4.84955">
        <ele>261</ele>
        <time>2018-07-05T09:06:39Z</time>
      </trkpt>
      <trkpt lat="45.96476" lon="4.84967">
        <ele>261</ele>
        <time>2018-07-05T09:06:42Z</time>
      </trkpt>
      <trkpt lat="45.96476" lon="4.8497">
        <ele>262</ele>
        <time>2018-07-05T09:06:43Z</time>
      </trkpt>
      <trkpt lat="45.96474" lon="4.8498">
        <ele>262</ele>
        <time>2018-07-05T09:06:46Z</time>
      </trkpt>
      <trkpt lat="45.96473" lon="4.84983">
        <ele>262</ele>
        <time>2018-07-05T09:06:47Z</time>
      </trkpt>
      <trkpt lat="45.96471" lon="4.84994">
        <ele>263</ele>
        <time>2018-07-05T09:06:50Z</time>
      </trkpt>
      <trkpt lat="45.9647" lon="4.84997">
        <ele>263</ele>
        <time>2018-07-05T09:06:51Z</time>
      </trkpt>
      <trkpt lat="45.96469" lon="4.85009">
        <ele>266</ele>
        <time>2018-07-05T09:06:54Z</time>
      </trkpt>
      <trkpt lat="45.96469" lon="4.85013">
        <ele>266</ele>
        <time>2018-07-05T09:06:55Z</time>
      </trkpt>
      <trkpt lat="45.96469" lon="4.85021">
        <ele>266</ele>
        <time>2018-07-05T09:06:57Z</time>
      </trkpt>
      <trkpt lat="45.96469" lon="4.85026">
        <ele>266</ele>
        <time>2018-07-05T09:06:58Z</time>
      </trkpt>
      <trkpt lat="45.96468" lon="4.85038">
        <ele>266</ele>
        <time>2018-07-05T09:07:01Z</time>
      </trkpt>
      <trkpt lat="45.96468" lon="4.85043">
        <ele>266</ele>
        <time>2018-07-05T09:07:02Z</time>
      </trkpt>
      <trkpt lat="45.96468" lon="4.85055">
        <ele>266</ele>
        <time>2018-07-05T09:07:05Z</time>
      </trkpt>
      <trkpt lat="45.96468" lon="4.85059">
        <ele>266</ele>
        <time>2018-07-05T09:07:06Z</time>
      </trkpt>
      <trkpt lat="45.96467" lon="4.85071">
        <ele>266</ele>
        <time>2018-07-05T09:07:09Z</time>
      </trkpt>
      <trkpt lat="45.96467" lon="4.85075">
        <ele>266</ele>
        <time>2018-07-05T09:07:10Z</time>
      </trkpt>
      <trkpt lat="45.96466" lon="4.85086">
        <ele>268</ele>
        <time>2018-07-05T09:07:13Z</time>
      </trkpt>
      <trkpt lat="45.96467" lon="4.8509">
        <ele>268</ele>
        <time>2018-07-05T09:07:14Z</time>
      </trkpt>
      <trkpt lat="45.96467" lon="4.85101">
        <ele>268</ele>
        <time>2018-07-05T09:07:17Z</time>
      </trkpt>
      <trkpt lat="45.96467" lon="4.85105">
        <ele>268</ele>
        <time>2018-07-05T09:07:18Z</time>
      </trkpt>
      <trkpt lat="45.96465" lon="4.85116">
        <ele>268</ele>
        <time>2018-07-05T09:07:21Z</time>
      </trkpt>
      <trkpt lat="45.96464" lon="4.8512">
        <ele>268</ele>
        <time>2018-07-05T09:07:22Z</time>
      </trkpt>
      <trkpt lat="45.96462" lon="4.85132">
        <ele>268</ele>
        <time>2018-07-05T09:07:25Z</time>
      </trkpt>
      <trkpt lat="45.96461" lon="4.85136">
        <ele>268</ele>
        <time>2018-07-05T09:07:26Z</time>
      </trkpt>
      <trkpt lat="45.96459" lon="4.85147">
        <ele>268</ele>
        <time>2018-07-05T09:07:29Z</time>
      </trkpt>
      <trkpt lat="45.96458" lon="4.85151">
        <ele>268</ele>
        <time>2018-07-05T09:07:30Z</time>
      </trkpt>
      <trkpt lat="45.96455" lon="4.85162">
        <ele>268</ele>
        <time>2018-07-05T09:07:33Z</time>
      </trkpt>
      <trkpt lat="45.96454" lon="4.85166">
        <ele>268</ele>
        <time>2018-07-05T09:07:34Z</time>
      </trkpt>
      <trkpt lat="45.96452" lon="4.85177">
        <ele>269</ele>
        <time>2018-07-05T09:07:37Z</time>
      </trkpt>
      <trkpt lat="45.96452" lon="4.85181">
        <ele>269</ele>
        <time>2018-07-05T09:07:38Z</time>
      </trkpt>
      <trkpt lat="45.96451" lon="4.85192">
        <ele>269</ele>
        <time>2018-07-05T09:07:41Z</time>
      </trkpt>
      <trkpt lat="45.96451" lon="4.85196">
        <ele>269</ele>
        <time>2018-07-05T09:07:42Z</time>
      </trkpt>
      <trkpt lat="45.9645" lon="4.85207">
        <ele>269</ele>
        <time>2018-07-05T09:07:45Z</time>
      </trkpt>
      <trkpt lat="45.9645" lon="4.8521">
        <ele>269</ele>
        <time>2018-07-05T09:07:46Z</time>
      </trkpt>
      <trkpt lat="45.96449" lon="4.85222">
        <ele>269</ele>
        <time>2018-07-05T09:07:49Z</time>
      </trkpt>
      <trkpt lat="45.96449" lon="4.85227">
        <ele>269</ele>
        <time>2018-07-05T09:07:50Z</time>
      </trkpt>
      <trkpt lat="45.96449" lon="4.85235">
        <ele>269</ele>
        <time>2018-07-05T09:07:52Z</time>
      </trkpt>
      <trkpt lat="45.96448" lon="4.8524">
        <ele>269</ele>
        <time>2018-07-05T09:07:53Z</time>
      </trkpt>
      <trkpt lat="45.96448" lon="4.85244">
        <ele>269</ele>
        <time>2018-07-05T09:07:54Z</time>
      </trkpt>
      <trkpt lat="45.96448" lon="4.85257">
        <ele>270</ele>
        <time>2018-07-05T09:07:55Z</time>
      </trkpt>
      <trkpt lat="45.96448" lon="4.85264">
        <ele>270</ele>
        <time>2018-07-05T09:07:57Z</time>
      </trkpt>
      <trkpt lat="45.96447" lon="4.85273">
        <ele>270</ele>
        <time>2018-07-05T09:07:58Z</time>
      </trkpt>
      <trkpt lat="45.96448" lon="4.85284">
        <ele>270</ele>
        <time>2018-07-05T09:08:00Z</time>
      </trkpt>
      <trkpt lat="45.96448" lon="4.85289">
        <ele>270</ele>
        <time>2018-07-05T09:08:01Z</time>
      </trkpt>
      <trkpt lat="45.96449" lon="4.853">
        <ele>270</ele>
        <time>2018-07-05T09:08:03Z</time>
      </trkpt>
      <trkpt lat="45.96449" lon="4.85303">
        <ele>270</ele>
        <time>2018-07-05T09:08:04Z</time>
      </trkpt>
      <trkpt lat="45.96449" lon="4.85311">
        <ele>271</ele>
        <time>2018-07-05T09:08:05Z</time>
      </trkpt>
      <trkpt lat="45.96449" lon="4.85317">
        <ele>271</ele>
        <time>2018-07-05T09:08:06Z</time>
      </trkpt>
      <trkpt lat="45.9645" lon="4.85329">
        <ele>271</ele>
        <time>2018-07-05T09:08:08Z</time>
      </trkpt>
      <trkpt lat="45.9645" lon="4.85335">
        <ele>271</ele>
        <time>2018-07-05T09:08:09Z</time>
      </trkpt>
      <trkpt lat="45.96451" lon="4.85346">
        <ele>271</ele>
        <time>2018-07-05T09:08:11Z</time>
      </trkpt>
      <trkpt lat="45.96452" lon="4.85352">
        <ele>272</ele>
        <time>2018-07-05T09:08:12Z</time>
      </trkpt>
      <trkpt lat="45.96454" lon="4.85363">
        <ele>272</ele>
        <time>2018-07-05T09:08:14Z</time>
      </trkpt>
      <trkpt lat="45.96455" lon="4.85368">
        <ele>272</ele>
        <time>2018-07-05T09:08:15Z</time>
      </trkpt>
      <trkpt lat="45.96456" lon="4.8538">
        <ele>272</ele>
        <time>2018-07-05T09:08:18Z</time>
      </trkpt>
      <trkpt lat="45.96456" lon="4.85383">
        <ele>272</ele>
        <time>2018-07-05T09:08:19Z</time>
      </trkpt>
      <trkpt lat="45.96457" lon="4.85391">
        <ele>272</ele>
        <time>2018-07-05T09:08:21Z</time>
      </trkpt>
      <trkpt lat="45.96458" lon="4.85404">
        <ele>272</ele>
        <time>2018-07-05T09:08:22Z</time>
      </trkpt>
      <trkpt lat="45.9646" lon="4.85414">
        <ele>272</ele>
        <time>2018-07-05T09:08:24Z</time>
      </trkpt>
      <trkpt lat="45.96461" lon="4.85419">
        <ele>272</ele>
        <time>2018-07-05T09:08:25Z</time>
      </trkpt>
      <trkpt lat="45.96462" lon="4.85429">
        <ele>272</ele>
        <time>2018-07-05T09:08:27Z</time>
      </trkpt>
      <trkpt lat="45.96462" lon="4.85435">
        <ele>272</ele>
        <time>2018-07-05T09:08:28Z</time>
      </trkpt>
      <trkpt lat="45.96462" lon="4.8544">
        <ele>272</ele>
        <time>2018-07-05T09:08:30Z</time>
      </trkpt>
      <trkpt lat="45.96463" lon="4.8545">
        <ele>272</ele>
        <time>2018-07-05T09:08:31Z</time>
      </trkpt>
      <trkpt lat="45.96463" lon="4.85461">
        <ele>272</ele>
        <time>2018-07-05T09:08:33Z</time>
      </trkpt>
      <trkpt lat="45.96463" lon="4.85467">
        <ele>272</ele>
        <time>2018-07-05T09:08:34Z</time>
      </trkpt>
      <trkpt lat="45.96464" lon="4.85478">
        <ele>272</ele>
        <time>2018-07-05T09:08:36Z</time>
      </trkpt>
      <trkpt lat="45.96465" lon="4.85483">
        <ele>272</ele>
        <time>2018-07-05T09:08:37Z</time>
      </trkpt>
      <trkpt lat="45.96465" lon="4.85495">
        <ele>272</ele>
        <time>2018-07-05T09:08:40Z</time>
      </trkpt>
      <trkpt lat="45.96465" lon="4.85499">
        <ele>272</ele>
        <time>2018-07-05T09:08:41Z</time>
      </trkpt>
      <trkpt lat="45.96466" lon="4.85512">
        <ele>272</ele>
        <time>2018-07-05T09:08:44Z</time>
      </trkpt>
      <trkpt lat="45.96466" lon="4.85525">
        <ele>272</ele>
        <time>2018-07-05T09:08:45Z</time>
      </trkpt>
      <trkpt lat="45.96466" lon="4.85536">
        <ele>272</ele>
        <time>2018-07-05T09:08:47Z</time>
      </trkpt>
      <trkpt lat="45.96466" lon="4.85542">
        <ele>272</ele>
        <time>2018-07-05T09:08:48Z</time>
      </trkpt>
      <trkpt lat="45.96466" lon="4.85553">
        <ele>272</ele>
        <time>2018-07-05T09:08:50Z</time>
      </trkpt>
      <trkpt lat="45.96466" lon="4.85559">
        <ele>272</ele>
        <time>2018-07-05T09:08:51Z</time>
      </trkpt>
      <trkpt lat="45.96467" lon="4.85571">
        <ele>272</ele>
        <time>2018-07-05T09:08:53Z</time>
      </trkpt>
      <trkpt lat="45.96468" lon="4.85576">
        <ele>271</ele>
        <time>2018-07-05T09:08:54Z</time>
      </trkpt>
      <trkpt lat="45.96469" lon="4.85588">
        <ele>271</ele>
        <time>2018-07-05T09:08:56Z</time>
      </trkpt>
      <trkpt lat="45.96469" lon="4.85594">
        <ele>271</ele>
        <time>2018-07-05T09:08:57Z</time>
      </trkpt>
      <trkpt lat="45.96471" lon="4.85606">
        <ele>271</ele>
        <time>2018-07-05T09:08:59Z</time>
      </trkpt>
      <trkpt lat="45.96472" lon="4.85613">
        <ele>271</ele>
        <time>2018-07-05T09:09:00Z</time>
      </trkpt>
      <trkpt lat="45.96474" lon="4.85619">
        <ele>271</ele>
        <time>2018-07-05T09:09:01Z</time>
      </trkpt>
      <trkpt lat="45.96475" lon="4.85626">
        <ele>271</ele>
        <time>2018-07-05T09:09:02Z</time>
      </trkpt>
      <trkpt lat="45.96475" lon="4.85639">
        <ele>271</ele>
        <time>2018-07-05T09:09:04Z</time>
      </trkpt>
      <trkpt lat="45.96475" lon="4.85645">
        <ele>271</ele>
        <time>2018-07-05T09:09:05Z</time>
      </trkpt>
      <trkpt lat="45.96477" lon="4.85656">
        <ele>271</ele>
        <time>2018-07-05T09:09:07Z</time>
      </trkpt>
      <trkpt lat="45.96478" lon="4.85661">
        <ele>271</ele>
        <time>2018-07-05T09:09:08Z</time>
      </trkpt>
      <trkpt lat="45.9648" lon="4.8567">
        <ele>272</ele>
        <time>2018-07-05T09:09:10Z</time>
      </trkpt>
      <trkpt lat="45.9648" lon="4.85676">
        <ele>272</ele>
        <time>2018-07-05T09:09:11Z</time>
      </trkpt>
      <trkpt lat="45.96481" lon="4.85683">
        <ele>272</ele>
        <time>2018-07-05T09:09:12Z</time>
      </trkpt>
      <trkpt lat="45.96482" lon="4.85689">
        <ele>272</ele>
        <time>2018-07-05T09:09:13Z</time>
      </trkpt>
      <trkpt lat="45.96484" lon="4.85695">
        <ele>272</ele>
        <time>2018-07-05T09:09:14Z</time>
      </trkpt>
      <trkpt lat="45.96484" lon="4.85702">
        <ele>272</ele>
        <time>2018-07-05T09:09:15Z</time>
      </trkpt>
      <trkpt lat="45.96484" lon="4.85709">
        <ele>272</ele>
        <time>2018-07-05T09:09:16Z</time>
      </trkpt>
      <trkpt lat="45.96485" lon="4.85715">
        <ele>272</ele>
        <time>2018-07-05T09:09:17Z</time>
      </trkpt>
      <trkpt lat="45.96486" lon="4.85721">
        <ele>272</ele>
        <time>2018-07-05T09:09:18Z</time>
      </trkpt>
      <trkpt lat="45.96487" lon="4.85728">
        <ele>273</ele>
        <time>2018-07-05T09:09:19Z</time>
      </trkpt>
      <trkpt lat="45.96487" lon="4.85739">
        <ele>273</ele>
        <time>2018-07-05T09:09:21Z</time>
      </trkpt>
      <trkpt lat="45.96488" lon="4.85745">
        <ele>273</ele>
        <time>2018-07-05T09:09:22Z</time>
      </trkpt>
      <trkpt lat="45.96488" lon="4.85758">
        <ele>274</ele>
        <time>2018-07-05T09:09:24Z</time>
      </trkpt>
      <trkpt lat="45.96489" lon="4.85765">
        <ele>274</ele>
        <time>2018-07-05T09:09:25Z</time>
      </trkpt>
      <trkpt lat="45.9649" lon="4.85773">
        <ele>274</ele>
        <time>2018-07-05T09:09:26Z</time>
      </trkpt>
      <trkpt lat="45.96491" lon="4.85779">
        <ele>274</ele>
        <time>2018-07-05T09:09:27Z</time>
      </trkpt>
      <trkpt lat="45.96491" lon="4.85786">
        <ele>274</ele>
        <time>2018-07-05T09:09:28Z</time>
      </trkpt>
      <trkpt lat="45.96492" lon="4.85792">
        <ele>274</ele>
        <time>2018-07-05T09:09:29Z</time>
      </trkpt>
      <trkpt lat="45.96493" lon="4.85803">
        <ele>274</ele>
        <time>2018-07-05T09:09:31Z</time>
      </trkpt>
      <trkpt lat="45.96492" lon="4.85809">
        <ele>274</ele>
        <time>2018-07-05T09:09:32Z</time>
      </trkpt>
      <trkpt lat="45.96493" lon="4.85821">
        <ele>274</ele>
        <time>2018-07-05T09:09:34Z</time>
      </trkpt>
      <trkpt lat="45.96494" lon="4.85827">
        <ele>275</ele>
        <time>2018-07-05T09:09:35Z</time>
      </trkpt>
      <trkpt lat="45.96495" lon="4.85839">
        <ele>275</ele>
        <time>2018-07-05T09:09:37Z</time>
      </trkpt>
      <trkpt lat="45.96496" lon="4.85845">
        <ele>275</ele>
        <time>2018-07-05T09:09:38Z</time>
      </trkpt>
      <trkpt lat="45.96498" lon="4.85856">
        <ele>274</ele>
        <time>2018-07-05T09:09:40Z</time>
      </trkpt>
      <trkpt lat="45.96499" lon="4.85863">
        <ele>274</ele>
        <time>2018-07-05T09:09:41Z</time>
      </trkpt>
      <trkpt lat="45.96499" lon="4.85869">
        <ele>274</ele>
        <time>2018-07-05T09:09:42Z</time>
      </trkpt>
      <trkpt lat="45.96501" lon="4.85876">
        <ele>275</ele>
        <time>2018-07-05T09:09:43Z</time>
      </trkpt>
      <trkpt lat="45.96502" lon="4.85883">
        <ele>275</ele>
        <time>2018-07-05T09:09:44Z</time>
      </trkpt>
      <trkpt lat="45.96503" lon="4.85889">
        <ele>275</ele>
        <time>2018-07-05T09:09:45Z</time>
      </trkpt>
      <trkpt lat="45.96505" lon="4.85895">
        <ele>275</ele>
        <time>2018-07-05T09:09:46Z</time>
      </trkpt>
      <trkpt lat="45.96507" lon="4.85902">
        <ele>275</ele>
        <time>2018-07-05T09:09:47Z</time>
      </trkpt>
      <trkpt lat="45.96511" lon="4.85913">
        <ele>274</ele>
        <time>2018-07-05T09:09:49Z</time>
      </trkpt>
      <trkpt lat="45.96513" lon="4.8592">
        <ele>275</ele>
        <time>2018-07-05T09:09:50Z</time>
      </trkpt>
      <trkpt lat="45.96515" lon="4.85926">
        <ele>275</ele>
        <time>2018-07-05T09:09:51Z</time>
      </trkpt>
      <trkpt lat="45.96518" lon="4.85933">
        <ele>275</ele>
        <time>2018-07-05T09:09:52Z</time>
      </trkpt>
      <trkpt lat="45.96521" lon="4.8594">
        <ele>275</ele>
        <time>2018-07-05T09:09:53Z</time>
      </trkpt>
      <trkpt lat="45.96525" lon="4.85946">
        <ele>275</ele>
        <time>2018-07-05T09:09:54Z</time>
      </trkpt>
      <trkpt lat="45.96529" lon="4.85953">
        <ele>275</ele>
        <time>2018-07-05T09:09:55Z</time>
      </trkpt>
      <trkpt lat="45.96531" lon="4.85958">
        <ele>275</ele>
        <time>2018-07-05T09:09:56Z</time>
      </trkpt>
      <trkpt lat="45.96536" lon="4.85968">
        <ele>275</ele>
        <time>2018-07-05T09:09:58Z</time>
      </trkpt>
      <trkpt lat="45.96541" lon="4.85975">
        <ele>275</ele>
        <time>2018-07-05T09:09:59Z</time>
      </trkpt>
      <trkpt lat="45.96545" lon="4.85986">
        <ele>275</ele>
        <time>2018-07-05T09:10:01Z</time>
      </trkpt>
      <trkpt lat="45.96546" lon="4.8599">
        <ele>275</ele>
        <time>2018-07-05T09:10:02Z</time>
      </trkpt>
      <trkpt lat="45.96551" lon="4.86">
        <ele>276</ele>
        <time>2018-07-05T09:10:04Z</time>
      </trkpt>
      <trkpt lat="45.96554" lon="4.86004">
        <ele>276</ele>
        <time>2018-07-05T09:10:05Z</time>
      </trkpt>
      <trkpt lat="45.96557" lon="4.86013">
        <ele>276</ele>
        <time>2018-07-05T09:10:07Z</time>
      </trkpt>
      <trkpt lat="45.96559" lon="4.86018">
        <ele>276</ele>
        <time>2018-07-05T09:10:08Z</time>
      </trkpt>
      <trkpt lat="45.96564" lon="4.86027">
        <ele>276</ele>
        <time>2018-07-05T09:10:10Z</time>
      </trkpt>
      <trkpt lat="45.96566" lon="4.86031">
        <ele>276</ele>
        <time>2018-07-05T09:10:11Z</time>
      </trkpt>
      <trkpt lat="45.96571" lon="4.8604">
        <ele>276</ele>
        <time>2018-07-05T09:10:13Z</time>
      </trkpt>
      <trkpt lat="45.96573" lon="4.86044">
        <ele>276</ele>
        <time>2018-07-05T09:10:14Z</time>
      </trkpt>
      <trkpt lat="45.96577" lon="4.86053">
        <ele>277</ele>
        <time>2018-07-05T09:10:16Z</time>
      </trkpt>
      <trkpt lat="45.96579" lon="4.86058">
        <ele>277</ele>
        <time>2018-07-05T09:10:17Z</time>
      </trkpt>
      <trkpt lat="45.96583" lon="4.86068">
        <ele>277</ele>
        <time>2018-07-05T09:10:20Z</time>
      </trkpt>
      <trkpt lat="45.96587" lon="4.86076">
        <ele>279</ele>
        <time>2018-07-05T09:10:21Z</time>
      </trkpt>
      <trkpt lat="45.9659" lon="4.86085">
        <ele>279</ele>
        <time>2018-07-05T09:10:23Z</time>
      </trkpt>
      <trkpt lat="45.96592" lon="4.86091">
        <ele>279</ele>
        <time>2018-07-05T09:10:24Z</time>
      </trkpt>
      <trkpt lat="45.96593" lon="4.861">
        <ele>280</ele>
        <time>2018-07-05T09:10:27Z</time>
      </trkpt>
      <trkpt lat="45.96594" lon="4.86104">
        <ele>280</ele>
        <time>2018-07-05T09:10:28Z</time>
      </trkpt>
      <trkpt lat="45.96593" lon="4.86113">
        <ele>281</ele>
        <time>2018-07-05T09:10:30Z</time>
      </trkpt>
      <trkpt lat="45.96593" lon="4.86117">
        <ele>281</ele>
        <time>2018-07-05T09:10:31Z</time>
      </trkpt>
      <trkpt lat="45.96592" lon="4.86126">
        <ele>281</ele>
        <time>2018-07-05T09:10:33Z</time>
      </trkpt>
      <trkpt lat="45.96592" lon="4.86131">
        <ele>281</ele>
        <time>2018-07-05T09:10:34Z</time>
      </trkpt>
      <trkpt lat="45.96591" lon="4.86141">
        <ele>281</ele>
        <time>2018-07-05T09:10:36Z</time>
      </trkpt>
      <trkpt lat="45.96589" lon="4.86155">
        <ele>281</ele>
        <time>2018-07-05T09:10:37Z</time>
      </trkpt>
      <trkpt lat="45.96588" lon="4.86164">
        <ele>280</ele>
        <time>2018-07-05T09:10:39Z</time>
      </trkpt>
      <trkpt lat="45.96588" lon="4.86171">
        <ele>281</ele>
        <time>2018-07-05T09:10:40Z</time>
      </trkpt>
      <trkpt lat="45.96586" lon="4.86183">
        <ele>281</ele>
        <time>2018-07-05T09:10:43Z</time>
      </trkpt>
      <trkpt lat="45.96585" lon="4.86186">
        <ele>281</ele>
        <time>2018-07-05T09:10:44Z</time>
      </trkpt>
      <trkpt lat="45.96583" lon="4.86198">
        <ele>282</ele>
        <time>2018-07-05T09:10:45Z</time>
      </trkpt>
      <trkpt lat="45.96583" lon="4.862">
        <ele>280</ele>
        <time>2018-07-05T09:10:46Z</time>
      </trkpt>
      <trkpt lat="45.96583" lon="4.86211">
        <ele>280</ele>
        <time>2018-07-05T09:10:49Z</time>
      </trkpt>
      <trkpt lat="45.96582" lon="4.86214">
        <ele>280</ele>
        <time>2018-07-05T09:10:50Z</time>
      </trkpt>
      <trkpt lat="45.96582" lon="4.86226">
        <ele>280</ele>
        <time>2018-07-05T09:10:53Z</time>
      </trkpt>
      <trkpt lat="45.96582" lon="4.8623">
        <ele>280</ele>
        <time>2018-07-05T09:10:54Z</time>
      </trkpt>
      <trkpt lat="45.96581" lon="4.8624">
        <ele>280</ele>
        <time>2018-07-05T09:10:57Z</time>
      </trkpt>
      <trkpt lat="45.96581" lon="4.86244">
        <ele>281</ele>
        <time>2018-07-05T09:10:58Z</time>
      </trkpt>
      <trkpt lat="45.9658" lon="4.86254">
        <ele>281</ele>
        <time>2018-07-05T09:11:01Z</time>
      </trkpt>
      <trkpt lat="45.96579" lon="4.86257">
        <ele>281</ele>
        <time>2018-07-05T09:11:02Z</time>
      </trkpt>
      <trkpt lat="45.96578" lon="4.86267">
        <ele>281</ele>
        <time>2018-07-05T09:11:05Z</time>
      </trkpt>
      <trkpt lat="45.96577" lon="4.8627">
        <ele>282</ele>
        <time>2018-07-05T09:11:06Z</time>
      </trkpt>
      <trkpt lat="45.96575" lon="4.86279">
        <ele>282</ele>
        <time>2018-07-05T09:11:09Z</time>
      </trkpt>
      <trkpt lat="45.96575" lon="4.86283">
        <ele>282</ele>
        <time>2018-07-05T09:11:10Z</time>
      </trkpt>
      <trkpt lat="45.96573" lon="4.86294">
        <ele>282</ele>
        <time>2018-07-05T09:11:13Z</time>
      </trkpt>
      <trkpt lat="45.96573" lon="4.86298">
        <ele>282</ele>
        <time>2018-07-05T09:11:14Z</time>
      </trkpt>
      <trkpt lat="45.96573" lon="4.8631">
        <ele>283</ele>
        <time>2018-07-05T09:11:17Z</time>
      </trkpt>
      <trkpt lat="45.96573" lon="4.86314">
        <ele>283</ele>
        <time>2018-07-05T09:11:18Z</time>
      </trkpt>
      <trkpt lat="45.96573" lon="4.86326">
        <ele>284</ele>
        <time>2018-07-05T09:11:21Z</time>
      </trkpt>
      <trkpt lat="45.96572" lon="4.8633">
        <ele>284</ele>
        <time>2018-07-05T09:11:22Z</time>
      </trkpt>
      <trkpt lat="45.96572" lon="4.86341">
        <ele>285</ele>
        <time>2018-07-05T09:11:25Z</time>
      </trkpt>
      <trkpt lat="45.96572" lon="4.86346">
        <ele>285</ele>
        <time>2018-07-05T09:11:26Z</time>
      </trkpt>
      <trkpt lat="45.96572" lon="4.86354">
        <ele>285</ele>
        <time>2018-07-05T09:11:28Z</time>
      </trkpt>
      <trkpt lat="45.96572" lon="4.86358">
        <ele>285</ele>
        <time>2018-07-05T09:11:29Z</time>
      </trkpt>
      <trkpt lat="45.96573" lon="4.86368">
        <ele>286</ele>
        <time>2018-07-05T09:11:31Z</time>
      </trkpt>
      <trkpt lat="45.96573" lon="4.86373">
        <ele>286</ele>
        <time>2018-07-05T09:11:32Z</time>
      </trkpt>
      <trkpt lat="45.96573" lon="4.86382">
        <ele>286</ele>
        <time>2018-07-05T09:11:34Z</time>
      </trkpt>
      <trkpt lat="45.96572" lon="4.86386">
        <ele>286</ele>
        <time>2018-07-05T09:11:35Z</time>
      </trkpt>
      <trkpt lat="45.96572" lon="4.86395">
        <ele>287</ele>
        <time>2018-07-05T09:11:37Z</time>
      </trkpt>
      <trkpt lat="45.96572" lon="4.864">
        <ele>287</ele>
        <time>2018-07-05T09:11:38Z</time>
      </trkpt>
      <trkpt lat="45.96571" lon="4.86409">
        <ele>288</ele>
        <time>2018-07-05T09:11:40Z</time>
      </trkpt>
      <trkpt lat="45.96571" lon="4.86413">
        <ele>288</ele>
        <time>2018-07-05T09:11:41Z</time>
      </trkpt>
      <trkpt lat="45.96571" lon="4.86425">
        <ele>289</ele>
        <time>2018-07-05T09:11:44Z</time>
      </trkpt>
      <trkpt lat="45.96571" lon="4.86429">
        <ele>289</ele>
        <time>2018-07-05T09:11:45Z</time>
      </trkpt>
      <trkpt lat="45.96572" lon="4.86438">
        <ele>289</ele>
        <time>2018-07-05T09:11:47Z</time>
      </trkpt>
      <trkpt lat="45.96573" lon="4.86452">
        <ele>289</ele>
        <time>2018-07-05T09:11:48Z</time>
      </trkpt>
      <trkpt lat="45.96575" lon="4.86464">
        <ele>289</ele>
        <time>2018-07-05T09:11:52Z</time>
      </trkpt>
      <trkpt lat="45.96576" lon="4.86467">
        <ele>289</ele>
        <time>2018-07-05T09:11:53Z</time>
      </trkpt>
      <trkpt lat="45.96578" lon="4.8648">
        <ele>290</ele>
        <time>2018-07-05T09:11:56Z</time>
      </trkpt>
      <trkpt lat="45.96581" lon="4.86492">
        <ele>291</ele>
        <time>2018-07-05T09:11:57Z</time>
      </trkpt>
      <trkpt lat="45.96586" lon="4.86501">
        <ele>292</ele>
        <time>2018-07-05T09:11:59Z</time>
      </trkpt>
      <trkpt lat="45.96589" lon="4.86505">
        <ele>292</ele>
        <time>2018-07-05T09:12:00Z</time>
      </trkpt>
      <trkpt lat="45.96595" lon="4.86512">
        <ele>291</ele>
        <time>2018-07-05T09:12:02Z</time>
      </trkpt>
      <trkpt lat="45.96598" lon="4.86515">
        <ele>291</ele>
        <time>2018-07-05T09:12:03Z</time>
      </trkpt>
      <trkpt lat="45.96604" lon="4.86522">
        <ele>291</ele>
        <time>2018-07-05T09:12:05Z</time>
      </trkpt>
      <trkpt lat="45.96607" lon="4.86525">
        <ele>291</ele>
        <time>2018-07-05T09:12:06Z</time>
      </trkpt>
      <trkpt lat="45.96613" lon="4.86531">
        <ele>291</ele>
        <time>2018-07-05T09:12:08Z</time>
      </trkpt>
      <trkpt lat="45.96616" lon="4.86535">
        <ele>291</ele>
        <time>2018-07-05T09:12:09Z</time>
      </trkpt>
      <trkpt lat="45.96623" lon="4.86541">
        <ele>291</ele>
        <time>2018-07-05T09:12:11Z</time>
      </trkpt>
      <trkpt lat="45.96626" lon="4.86544">
        <ele>291</ele>
        <time>2018-07-05T09:12:12Z</time>
      </trkpt>
      <trkpt lat="45.96633" lon="4.86551">
        <ele>291</ele>
        <time>2018-07-05T09:12:14Z</time>
      </trkpt>
      <trkpt lat="45.96636" lon="4.86554">
        <ele>291</ele>
        <time>2018-07-05T09:12:15Z</time>
      </trkpt>
      <trkpt lat="45.96642" lon="4.8656">
        <ele>291</ele>
        <time>2018-07-05T09:12:17Z</time>
      </trkpt>
      <trkpt lat="45.96645" lon="4.86563">
        <ele>290</ele>
        <time>2018-07-05T09:12:18Z</time>
      </trkpt>
      <trkpt lat="45.96652" lon="4.86569">
        <ele>290</ele>
        <time>2018-07-05T09:12:20Z</time>
      </trkpt>
      <trkpt lat="45.96655" lon="4.86573">
        <ele>290</ele>
        <time>2018-07-05T09:12:21Z</time>
      </trkpt>
      <trkpt lat="45.96661" lon="4.8658">
        <ele>290</ele>
        <time>2018-07-05T09:12:23Z</time>
      </trkpt>
      <trkpt lat="45.96664" lon="4.86583">
        <ele>290</ele>
        <time>2018-07-05T09:12:24Z</time>
      </trkpt>
      <trkpt lat="45.96671" lon="4.8659">
        <ele>290</ele>
        <time>2018-07-05T09:12:26Z</time>
      </trkpt>
      <trkpt lat="45.96674" lon="4.86593">
        <ele>290</ele>
        <time>2018-07-05T09:12:27Z</time>
      </trkpt>
      <trkpt lat="45.96681" lon="4.866">
        <ele>290</ele>
        <time>2018-07-05T09:12:29Z</time>
      </trkpt>
      <trkpt lat="45.96684" lon="4.86604">
        <ele>290</ele>
        <time>2018-07-05T09:12:30Z</time>
      </trkpt>
      <trkpt lat="45.96688" lon="4.86608">
        <ele>290</ele>
        <time>2018-07-05T09:12:31Z</time>
      </trkpt>
      <trkpt lat="45.96692" lon="4.86613">
        <ele>290</ele>
        <time>2018-07-05T09:12:32Z</time>
      </trkpt>
      <trkpt lat="45.96696" lon="4.86616">
        <ele>290</ele>
        <time>2018-07-05T09:12:33Z</time>
      </trkpt>
      <trkpt lat="45.967" lon="4.86619">
        <ele>289</ele>
        <time>2018-07-05T09:12:34Z</time>
      </trkpt>
      <trkpt lat="45.96704" lon="4.86623">
        <ele>289</ele>
        <time>2018-07-05T09:12:35Z</time>
      </trkpt>
      <trkpt lat="45.96709" lon="4.86625">
        <ele>289</ele>
        <time>2018-07-05T09:12:36Z</time>
      </trkpt>
      <trkpt lat="45.96717" lon="4.86627">
        <ele>290</ele>
        <time>2018-07-05T09:12:38Z</time>
      </trkpt>
      <trkpt lat="45.96723" lon="4.86628">
        <ele>290</ele>
        <time>2018-07-05T09:12:39Z</time>
      </trkpt>
      <trkpt lat="45.96728" lon="4.86631">
        <ele>290</ele>
        <time>2018-07-05T09:12:40Z</time>
      </trkpt>
      <trkpt lat="45.96731" lon="4.86636">
        <ele>290</ele>
        <time>2018-07-05T09:12:41Z</time>
      </trkpt>
      <trkpt lat="45.96737" lon="4.86643">
        <ele>290</ele>
        <time>2018-07-05T09:12:43Z</time>
      </trkpt>
      <trkpt lat="45.96739" lon="4.86649">
        <ele>290</ele>
        <time>2018-07-05T09:12:44Z</time>
      </trkpt>
      <trkpt lat="45.96739" lon="4.86656">
        <ele>290</ele>
        <time>2018-07-05T09:12:45Z</time>
      </trkpt>
      <trkpt lat="45.96737" lon="4.86662">
        <ele>290</ele>
        <time>2018-07-05T09:12:46Z</time>
      </trkpt>
      <trkpt lat="45.96731" lon="4.8667">
        <ele>290</ele>
        <time>2018-07-05T09:12:48Z</time>
      </trkpt>
      <trkpt lat="45.96727" lon="4.86676">
        <ele>289</ele>
        <time>2018-07-05T09:12:49Z</time>
      </trkpt>
      <trkpt lat="45.96724" lon="4.86682">
        <ele>289</ele>
        <time>2018-07-05T09:12:50Z</time>
      </trkpt>
      <trkpt lat="45.96721" lon="4.86687">
        <ele>289</ele>
        <time>2018-07-05T09:12:51Z</time>
      </trkpt>
      <trkpt lat="45.96718" lon="4.86693">
        <ele>289</ele>
        <time>2018-07-05T09:12:52Z</time>
      </trkpt>
      <trkpt lat="45.96714" lon="4.86698">
        <ele>289</ele>
        <time>2018-07-05T09:12:53Z</time>
      </trkpt>
      <trkpt lat="45.96713" lon="4.86704">
        <ele>289</ele>
        <time>2018-07-05T09:12:54Z</time>
      </trkpt>
      <trkpt lat="45.96709" lon="4.8671">
        <ele>289</ele>
        <time>2018-07-05T09:12:55Z</time>
      </trkpt>
      <trkpt lat="45.96706" lon="4.86717">
        <ele>289</ele>
        <time>2018-07-05T09:12:56Z</time>
      </trkpt>
      <trkpt lat="45.96701" lon="4.86724">
        <ele>289</ele>
        <time>2018-07-05T09:12:57Z</time>
      </trkpt>
      <trkpt lat="45.96698" lon="4.86729">
        <ele>289</ele>
        <time>2018-07-05T09:12:58Z</time>
      </trkpt>
      <trkpt lat="45.96694" lon="4.86733">
        <ele>289</ele>
        <time>2018-07-05T09:12:59Z</time>
      </trkpt>
      <trkpt lat="45.96691" lon="4.86741">
        <ele>289</ele>
        <time>2018-07-05T09:13:00Z</time>
      </trkpt>
      <trkpt lat="45.96686" lon="4.86747">
        <ele>289</ele>
        <time>2018-07-05T09:13:01Z</time>
      </trkpt>
      <trkpt lat="45.96682" lon="4.86755">
        <ele>289</ele>
        <time>2018-07-05T09:13:02Z</time>
      </trkpt>
      <trkpt lat="45.96679" lon="4.86761">
        <ele>289</ele>
        <time>2018-07-05T09:13:03Z</time>
      </trkpt>
      <trkpt lat="45.96674" lon="4.86768">
        <ele>289</ele>
        <time>2018-07-05T09:13:04Z</time>
      </trkpt>
      <trkpt lat="45.9667" lon="4.86774">
        <ele>289</ele>
        <time>2018-07-05T09:13:05Z</time>
      </trkpt>
      <trkpt lat="45.96667" lon="4.8678">
        <ele>289</ele>
        <time>2018-07-05T09:13:06Z</time>
      </trkpt>
      <trkpt lat="45.96663" lon="4.86785">
        <ele>288</ele>
        <time>2018-07-05T09:13:07Z</time>
      </trkpt>
      <trkpt lat="45.9666" lon="4.86791">
        <ele>288</ele>
        <time>2018-07-05T09:13:08Z</time>
      </trkpt>
      <trkpt lat="45.96657" lon="4.86796">
        <ele>288</ele>
        <time>2018-07-05T09:13:09Z</time>
      </trkpt>
      <trkpt lat="45.96653" lon="4.86803">
        <ele>288</ele>
        <time>2018-07-05T09:13:10Z</time>
      </trkpt>
      <trkpt lat="45.96649" lon="4.8681">
        <ele>288</ele>
        <time>2018-07-05T09:13:11Z</time>
      </trkpt>
      <trkpt lat="45.96646" lon="4.86824">
        <ele>288</ele>
        <time>2018-07-05T09:13:12Z</time>
      </trkpt>
      <trkpt lat="45.96643" lon="4.86828">
        <ele>288</ele>
        <time>2018-07-05T09:13:13Z</time>
      </trkpt>
      <trkpt lat="45.96639" lon="4.86833">
        <ele>288</ele>
        <time>2018-07-05T09:13:14Z</time>
      </trkpt>
      <trkpt lat="45.96634" lon="4.86843">
        <ele>287</ele>
        <time>2018-07-05T09:13:16Z</time>
      </trkpt>
      <trkpt lat="45.96631" lon="4.86848">
        <ele>287</ele>
        <time>2018-07-05T09:13:17Z</time>
      </trkpt>
      <trkpt lat="45.96626" lon="4.86852">
        <ele>287</ele>
        <time>2018-07-05T09:13:18Z</time>
      </trkpt>
      <trkpt lat="45.96623" lon="4.86857">
        <ele>287</ele>
        <time>2018-07-05T09:13:19Z</time>
      </trkpt>
      <trkpt lat="45.9662" lon="4.86862">
        <ele>287</ele>
        <time>2018-07-05T09:13:20Z</time>
      </trkpt>
      <trkpt lat="45.96617" lon="4.86868">
        <ele>287</ele>
        <time>2018-07-05T09:13:21Z</time>
      </trkpt>
      <trkpt lat="45.96614" lon="4.86873">
        <ele>287</ele>
        <time>2018-07-05T09:13:22Z</time>
      </trkpt>
      <trkpt lat="45.96611" lon="4.86878">
        <ele>287</ele>
        <time>2018-07-05T09:13:23Z</time>
      </trkpt>
      <trkpt lat="45.96605" lon="4.86887">
        <ele>287</ele>
        <time>2018-07-05T09:13:25Z</time>
      </trkpt>
      <trkpt lat="45.96601" lon="4.86893">
        <ele>286</ele>
        <time>2018-07-05T09:13:26Z</time>
      </trkpt>
      <trkpt lat="45.96597" lon="4.86903">
        <ele>286</ele>
        <time>2018-07-05T09:13:28Z</time>
      </trkpt>
      <trkpt lat="45.96594" lon="4.86911">
        <ele>286</ele>
        <time>2018-07-05T09:13:29Z</time>
      </trkpt>
      <trkpt lat="45.9659" lon="4.86915">
        <ele>286</ele>
        <time>2018-07-05T09:13:30Z</time>
      </trkpt>
      <trkpt lat="45.96587" lon="4.86921">
        <ele>285</ele>
        <time>2018-07-05T09:13:31Z</time>
      </trkpt>
      <trkpt lat="45.96583" lon="4.86925">
        <ele>284</ele>
        <time>2018-07-05T09:13:32Z</time>
      </trkpt>
      <trkpt lat="45.96579" lon="4.8693">
        <ele>284</ele>
        <time>2018-07-05T09:13:33Z</time>
      </trkpt>
      <trkpt lat="45.96575" lon="4.86937">
        <ele>284</ele>
        <time>2018-07-05T09:13:34Z</time>
      </trkpt>
      <trkpt lat="45.9657" lon="4.86944">
        <ele>284</ele>
        <time>2018-07-05T09:13:35Z</time>
      </trkpt>
      <trkpt lat="45.96566" lon="4.86951">
        <ele>284</ele>
        <time>2018-07-05T09:13:36Z</time>
      </trkpt>
      <trkpt lat="45.96563" lon="4.86955">
        <ele>283</ele>
        <time>2018-07-05T09:13:37Z</time>
      </trkpt>
      <trkpt lat="45.96558" lon="4.8696">
        <ele>283</ele>
        <time>2018-07-05T09:13:38Z</time>
      </trkpt>
      <trkpt lat="45.96554" lon="4.86965">
        <ele>283</ele>
        <time>2018-07-05T09:13:39Z</time>
      </trkpt>
      <trkpt lat="45.96553" lon="4.86967">
        <ele>283</ele>
        <time>2018-07-05T09:13:41Z</time>
      </trkpt>
      <trkpt lat="45.96547" lon="4.86976">
        <ele>283</ele>
        <time>2018-07-05T09:13:42Z</time>
      </trkpt>
      <trkpt lat="45.96544" lon="4.86986">
        <ele>283</ele>
        <time>2018-07-05T09:13:46Z</time>
      </trkpt>
      <trkpt lat="45.96543" lon="4.8699">
        <ele>283</ele>
        <time>2018-07-05T09:13:47Z</time>
      </trkpt>
      <trkpt lat="45.96541" lon="4.87">
        <ele>283</ele>
        <time>2018-07-05T09:13:50Z</time>
      </trkpt>
      <trkpt lat="45.9654" lon="4.87003">
        <ele>283</ele>
        <time>2018-07-05T09:13:51Z</time>
      </trkpt>
      <trkpt lat="45.9654" lon="4.87014">
        <ele>283</ele>
        <time>2018-07-05T09:13:55Z</time>
      </trkpt>
      <trkpt lat="45.96541" lon="4.87017">
        <ele>283</ele>
        <time>2018-07-05T09:13:56Z</time>
      </trkpt>
      <trkpt lat="45.96546" lon="4.87027">
        <ele>283</ele>
        <time>2018-07-05T09:14:04Z</time>
      </trkpt>
      <trkpt lat="45.96546" lon="4.87027">
        <ele>283</ele>
        <time>2018-07-05T09:14:05Z</time>
      </trkpt>
      <trkpt lat="45.96554" lon="4.87032">
        <ele>283</ele>
        <time>2018-07-05T09:22:17Z</time>
      </trkpt>
      <trkpt lat="45.96555" lon="4.87034">
        <ele>283</ele>
        <time>2018-07-05T09:22:18Z</time>
      </trkpt>
      <trkpt lat="45.96559" lon="4.87043">
        <ele>283</ele>
        <time>2018-07-05T09:22:22Z</time>
      </trkpt>
      <trkpt lat="45.96559" lon="4.87046">
        <ele>283</ele>
        <time>2018-07-05T09:22:23Z</time>
      </trkpt>
      <trkpt lat="45.9656" lon="4.87057">
        <ele>283</ele>
        <time>2018-07-05T09:22:26Z</time>
      </trkpt>
      <trkpt lat="45.96561" lon="4.87061">
        <ele>283</ele>
        <time>2018-07-05T09:22:27Z</time>
      </trkpt>
      <trkpt lat="45.96561" lon="4.87073">
        <ele>283</ele>
        <time>2018-07-05T09:22:32Z</time>
      </trkpt>
      <trkpt lat="45.96562" lon="4.87076">
        <ele>283</ele>
        <time>2018-07-05T09:22:33Z</time>
      </trkpt>
      <trkpt lat="45.96565" lon="4.87086">
        <ele>283</ele>
        <time>2018-07-05T09:22:38Z</time>
      </trkpt>
      <trkpt lat="45.96565" lon="4.87089">
        <ele>283</ele>
        <time>2018-07-05T09:22:39Z</time>
      </trkpt>
      <trkpt lat="45.96565" lon="4.871">
        <ele>283</ele>
        <time>2018-07-05T09:22:43Z</time>
      </trkpt>
      <trkpt lat="45.96565" lon="4.87102">
        <ele>283</ele>
        <time>2018-07-05T09:22:44Z</time>
      </trkpt>
      <trkpt lat="45.96566" lon="4.87096">
        <ele>283</ele>
        <time>2018-07-05T09:23:00Z</time>
      </trkpt>
      <trkpt lat="45.96564" lon="4.87083">
        <ele>283</ele>
        <time>2018-07-05T09:23:01Z</time>
      </trkpt>
      <trkpt lat="45.96562" lon="4.87072">
        <ele>283</ele>
        <time>2018-07-05T09:23:04Z</time>
      </trkpt>
      <trkpt lat="45.96562" lon="4.87062">
        <ele>283</ele>
        <time>2018-07-05T09:23:05Z</time>
      </trkpt>
      <trkpt lat="45.96561" lon="4.87049">
        <ele>283</ele>
        <time>2018-07-05T09:23:07Z</time>
      </trkpt>
      <trkpt lat="45.9656" lon="4.87043">
        <ele>283</ele>
        <time>2018-07-05T09:23:08Z</time>
      </trkpt>
      <trkpt lat="45.96559" lon="4.87032">
        <ele>283</ele>
        <time>2018-07-05T09:23:10Z</time>
      </trkpt>
      <trkpt lat="45.96558" lon="4.87026">
        <ele>283</ele>
        <time>2018-07-05T09:23:11Z</time>
      </trkpt>
      <trkpt lat="45.96554" lon="4.87016">
        <ele>283</ele>
        <time>2018-07-05T09:23:13Z</time>
      </trkpt>
      <trkpt lat="45.96552" lon="4.87012">
        <ele>283</ele>
        <time>2018-07-05T09:23:14Z</time>
      </trkpt>
      <trkpt lat="45.96549" lon="4.87">
        <ele>283</ele>
        <time>2018-07-05T09:23:19Z</time>
      </trkpt>
      <trkpt lat="45.96549" lon="4.86997">
        <ele>283</ele>
        <time>2018-07-05T09:23:20Z</time>
      </trkpt>
      <trkpt lat="45.96553" lon="4.86991">
        <ele>283</ele>
        <time>2018-07-05T09:23:27Z</time>
      </trkpt>
      <trkpt lat="45.96567" lon="4.86991">
        <ele>284</ele>
        <time>2018-07-05T09:23:28Z</time>
      </trkpt>
      <trkpt lat="45.96574" lon="4.86993">
        <ele>284</ele>
        <time>2018-07-05T09:23:30Z</time>
      </trkpt>
      <trkpt lat="45.96578" lon="4.8699">
        <ele>284</ele>
        <time>2018-07-05T09:23:31Z</time>
      </trkpt>
      <trkpt lat="45.96585" lon="4.86992">
        <ele>285</ele>
        <time>2018-07-05T09:23:32Z</time>
      </trkpt>
      <trkpt lat="45.96593" lon="4.86993">
        <ele>285</ele>
        <time>2018-07-05T09:23:33Z</time>
      </trkpt>
      <trkpt lat="45.96601" lon="4.86991">
        <ele>286</ele>
        <time>2018-07-05T09:23:35Z</time>
      </trkpt>
      <trkpt lat="45.96603" lon="4.86988">
        <ele>286</ele>
        <time>2018-07-05T09:23:36Z</time>
      </trkpt>
      <trkpt lat="45.96611" lon="4.86986">
        <ele>286</ele>
        <time>2018-07-05T09:23:38Z</time>
      </trkpt>
      <trkpt lat="45.96615" lon="4.86984">
        <ele>286</ele>
        <time>2018-07-05T09:23:39Z</time>
      </trkpt>
      <trkpt lat="45.9662" lon="4.86984">
        <ele>286</ele>
        <time>2018-07-05T09:23:40Z</time>
      </trkpt>
      <trkpt lat="45.96624" lon="4.86983">
        <ele>286</ele>
        <time>2018-07-05T09:23:41Z</time>
      </trkpt>
      <trkpt lat="45.9663" lon="4.86982">
        <ele>286</ele>
        <time>2018-07-05T09:23:43Z</time>
      </trkpt>
      <trkpt lat="45.96634" lon="4.86981">
        <ele>286</ele>
        <time>2018-07-05T09:23:44Z</time>
      </trkpt>
      <trkpt lat="45.9664" lon="4.86981">
        <ele>286</ele>
        <time>2018-07-05T09:23:46Z</time>
      </trkpt>
      <trkpt lat="45.96646" lon="4.86983">
        <ele>287</ele>
        <time>2018-07-05T09:23:47Z</time>
      </trkpt>
      <trkpt lat="45.96651" lon="4.86988">
        <ele>287</ele>
        <time>2018-07-05T09:23:49Z</time>
      </trkpt>
      <trkpt lat="45.96655" lon="4.86993">
        <ele>287</ele>
        <time>2018-07-05T09:23:50Z</time>
      </trkpt>
      <trkpt lat="45.9666" lon="4.87002">
        <ele>287</ele>
        <time>2018-07-05T09:23:52Z</time>
      </trkpt>
      <trkpt lat="45.96662" lon="4.87007">
        <ele>286</ele>
        <time>2018-07-05T09:23:53Z</time>
      </trkpt>
      <trkpt lat="45.96667" lon="4.87018">
        <ele>286</ele>
        <time>2018-07-05T09:23:55Z</time>
      </trkpt>
      <trkpt lat="45.96669" lon="4.87023">
        <ele>287</ele>
        <time>2018-07-05T09:23:56Z</time>
      </trkpt>
      <trkpt lat="45.96674" lon="4.87031">
        <ele>287</ele>
        <time>2018-07-05T09:23:58Z</time>
      </trkpt>
      <trkpt lat="45.96678" lon="4.87035">
        <ele>287</ele>
        <time>2018-07-05T09:23:59Z</time>
      </trkpt>
      <trkpt lat="45.96683" lon="4.87038">
        <ele>287</ele>
        <time>2018-07-05T09:24:00Z</time>
      </trkpt>
      <trkpt lat="45.96687" lon="4.87042">
        <ele>287</ele>
        <time>2018-07-05T09:24:01Z</time>
      </trkpt>
      <trkpt lat="45.96692" lon="4.87047">
        <ele>287</ele>
        <time>2018-07-05T09:24:02Z</time>
      </trkpt>
      <trkpt lat="45.96697" lon="4.8705">
        <ele>287</ele>
        <time>2018-07-05T09:24:03Z</time>
      </trkpt>
      <trkpt lat="45.96702" lon="4.87053">
        <ele>287</ele>
        <time>2018-07-05T09:24:04Z</time>
      </trkpt>
      <trkpt lat="45.96708" lon="4.87056">
        <ele>287</ele>
        <time>2018-07-05T09:24:05Z</time>
      </trkpt>
      <trkpt lat="45.96712" lon="4.87059">
        <ele>287</ele>
        <time>2018-07-05T09:24:06Z</time>
      </trkpt>
      <trkpt lat="45.96717" lon="4.87061">
        <ele>287</ele>
        <time>2018-07-05T09:24:07Z</time>
      </trkpt>
      <trkpt lat="45.96721" lon="4.87064">
        <ele>287</ele>
        <time>2018-07-05T09:24:08Z</time>
      </trkpt>
      <trkpt lat="45.96727" lon="4.87066">
        <ele>287</ele>
        <time>2018-07-05T09:24:09Z</time>
      </trkpt>
      <trkpt lat="45.96733" lon="4.87069">
        <ele>287</ele>
        <time>2018-07-05T09:24:10Z</time>
      </trkpt>
      <trkpt lat="45.96737" lon="4.87073">
        <ele>287</ele>
        <time>2018-07-05T09:24:11Z</time>
      </trkpt>
      <trkpt lat="45.96743" lon="4.87075">
        <ele>287</ele>
        <time>2018-07-05T09:24:12Z</time>
      </trkpt>
      <trkpt lat="45.96746" lon="4.87079">
        <ele>287</ele>
        <time>2018-07-05T09:24:13Z</time>
      </trkpt>
      <trkpt lat="45.9675" lon="4.87084">
        <ele>287</ele>
        <time>2018-07-05T09:24:14Z</time>
      </trkpt>
      <trkpt lat="45.96752" lon="4.87088">
        <ele>287</ele>
        <time>2018-07-05T09:24:15Z</time>
      </trkpt>
      <trkpt lat="45.96756" lon="4.87093">
        <ele>287</ele>
        <time>2018-07-05T09:24:16Z</time>
      </trkpt>
      <trkpt lat="45.9676" lon="4.87098">
        <ele>287</ele>
        <time>2018-07-05T09:24:17Z</time>
      </trkpt>
      <trkpt lat="45.96762" lon="4.87105">
        <ele>286</ele>
        <time>2018-07-05T09:24:18Z</time>
      </trkpt>
      <trkpt lat="45.96765" lon="4.8711">
        <ele>286</ele>
        <time>2018-07-05T09:24:19Z</time>
      </trkpt>
      <trkpt lat="45.96766" lon="4.87116">
        <ele>286</ele>
        <time>2018-07-05T09:24:20Z</time>
      </trkpt>
      <trkpt lat="45.96769" lon="4.87121">
        <ele>286</ele>
        <time>2018-07-05T09:24:21Z</time>
      </trkpt>
      <trkpt lat="45.96773" lon="4.87126">
        <ele>286</ele>
        <time>2018-07-05T09:24:22Z</time>
      </trkpt>
      <trkpt lat="45.96776" lon="4.87131">
        <ele>286</ele>
        <time>2018-07-05T09:24:23Z</time>
      </trkpt>
      <trkpt lat="45.96778" lon="4.87136">
        <ele>286</ele>
        <time>2018-07-05T09:24:24Z</time>
      </trkpt>
      <trkpt lat="45.96781" lon="4.87143">
        <ele>286</ele>
        <time>2018-07-05T09:24:25Z</time>
      </trkpt>
      <trkpt lat="45.96786" lon="4.87149">
        <ele>286</ele>
        <time>2018-07-05T09:24:27Z</time>
      </trkpt>
      <trkpt lat="45.96793" lon="4.87149">
        <ele>286</ele>
        <time>2018-07-05T09:24:28Z</time>
      </trkpt>
      <trkpt lat="45.96796" lon="4.87146">
        <ele>286</ele>
        <time>2018-07-05T09:24:29Z</time>
      </trkpt>
      <trkpt lat="45.96799" lon="4.8714">
        <ele>286</ele>
        <time>2018-07-05T09:24:30Z</time>
      </trkpt>
      <trkpt lat="45.96803" lon="4.8713">
        <ele>286</ele>
        <time>2018-07-05T09:24:32Z</time>
      </trkpt>
      <trkpt lat="45.96805" lon="4.87123">
        <ele>286</ele>
        <time>2018-07-05T09:24:33Z</time>
      </trkpt>
      <trkpt lat="45.96808" lon="4.87111">
        <ele>286</ele>
        <time>2018-07-05T09:24:35Z</time>
      </trkpt>
      <trkpt lat="45.9681" lon="4.87105">
        <ele>286</ele>
        <time>2018-07-05T09:24:36Z</time>
      </trkpt>
      <trkpt lat="45.96812" lon="4.87098">
        <ele>287</ele>
        <time>2018-07-05T09:24:37Z</time>
      </trkpt>
      <trkpt lat="45.96813" lon="4.87092">
        <ele>287</ele>
        <time>2018-07-05T09:24:38Z</time>
      </trkpt>
      <trkpt lat="45.96816" lon="4.87086">
        <ele>287</ele>
        <time>2018-07-05T09:24:39Z</time>
      </trkpt>
      <trkpt lat="45.96817" lon="4.87078">
        <ele>287</ele>
        <time>2018-07-05T09:24:40Z</time>
      </trkpt>
      <trkpt lat="45.96821" lon="4.87073">
        <ele>287</ele>
        <time>2018-07-05T09:24:41Z</time>
      </trkpt>
      <trkpt lat="45.96822" lon="4.87065">
        <ele>287</ele>
        <time>2018-07-05T09:24:42Z</time>
      </trkpt>
      <trkpt lat="45.96826" lon="4.87054">
        <ele>287</ele>
        <time>2018-07-05T09:24:44Z</time>
      </trkpt>
      <trkpt lat="45.96828" lon="4.87049">
        <ele>287</ele>
        <time>2018-07-05T09:24:45Z</time>
      </trkpt>
      <trkpt lat="45.9683" lon="4.87043">
        <ele>287</ele>
        <time>2018-07-05T09:24:46Z</time>
      </trkpt>
      <trkpt lat="45.96832" lon="4.87037">
        <ele>288</ele>
        <time>2018-07-05T09:24:47Z</time>
      </trkpt>
      <trkpt lat="45.96834" lon="4.87029">
        <ele>287</ele>
        <time>2018-07-05T09:24:48Z</time>
      </trkpt>
      <trkpt lat="45.96836" lon="4.87022">
        <ele>287</ele>
        <time>2018-07-05T09:24:49Z</time>
      </trkpt>
      <trkpt lat="45.96838" lon="4.87015">
        <ele>288</ele>
        <time>2018-07-05T09:24:50Z</time>
      </trkpt>
      <trkpt lat="45.9684" lon="4.87009">
        <ele>288</ele>
        <time>2018-07-05T09:24:51Z</time>
      </trkpt>
      <trkpt lat="45.96842" lon="4.87002">
        <ele>288</ele>
        <time>2018-07-05T09:24:52Z</time>
      </trkpt>
      <trkpt lat="45.96847" lon="4.86997">
        <ele>288</ele>
        <time>2018-07-05T09:24:53Z</time>
      </trkpt>
      <trkpt lat="45.96851" lon="4.86986">
        <ele>288</ele>
        <time>2018-07-05T09:24:55Z</time>
      </trkpt>
      <trkpt lat="45.96852" lon="4.8698">
        <ele>288</ele>
        <time>2018-07-05T09:24:56Z</time>
      </trkpt>
      <trkpt lat="45.96856" lon="4.86971">
        <ele>288</ele>
        <time>2018-07-05T09:24:58Z</time>
      </trkpt>
      <trkpt lat="45.96858" lon="4.86965">
        <ele>288</ele>
        <time>2018-07-05T09:24:59Z</time>
      </trkpt>
      <trkpt lat="45.9686" lon="4.86953">
        <ele>288</ele>
        <time>2018-07-05T09:25:01Z</time>
      </trkpt>
      <trkpt lat="45.96862" lon="4.86947">
        <ele>288</ele>
        <time>2018-07-05T09:25:02Z</time>
      </trkpt>
      <trkpt lat="45.96867" lon="4.86937">
        <ele>288</ele>
        <time>2018-07-05T09:25:04Z</time>
      </trkpt>
      <trkpt lat="45.96869" lon="4.86932">
        <ele>288</ele>
        <time>2018-07-05T09:25:05Z</time>
      </trkpt>
      <trkpt lat="45.96874" lon="4.86921">
        <ele>288</ele>
        <time>2018-07-05T09:25:07Z</time>
      </trkpt>
      <trkpt lat="45.96874" lon="4.86916">
        <ele>289</ele>
        <time>2018-07-05T09:25:08Z</time>
      </trkpt>
      <trkpt lat="45.96878" lon="4.86905">
        <ele>289</ele>
        <time>2018-07-05T09:25:10Z</time>
      </trkpt>
      <trkpt lat="45.96878" lon="4.86901">
        <ele>289</ele>
        <time>2018-07-05T09:25:11Z</time>
      </trkpt>
      <trkpt lat="45.9688" lon="4.8689">
        <ele>289</ele>
        <time>2018-07-05T09:25:13Z</time>
      </trkpt>
      <trkpt lat="45.96881" lon="4.86883">
        <ele>289</ele>
        <time>2018-07-05T09:25:14Z</time>
      </trkpt>
      <trkpt lat="45.96881" lon="4.86876">
        <ele>289</ele>
        <time>2018-07-05T09:25:15Z</time>
      </trkpt>
      <trkpt lat="45.96883" lon="4.86871">
        <ele>289</ele>
        <time>2018-07-05T09:25:16Z</time>
      </trkpt>
      <trkpt lat="45.96884" lon="4.86864">
        <ele>289</ele>
        <time>2018-07-05T09:25:17Z</time>
      </trkpt>
      <trkpt lat="45.96888" lon="4.86859">
        <ele>289</ele>
        <time>2018-07-05T09:25:18Z</time>
      </trkpt>
      <trkpt lat="45.96892" lon="4.86848">
        <ele>289</ele>
        <time>2018-07-05T09:25:20Z</time>
      </trkpt>
      <trkpt lat="45.96894" lon="4.86843">
        <ele>289</ele>
        <time>2018-07-05T09:25:21Z</time>
      </trkpt>
      <trkpt lat="45.96898" lon="4.86834">
        <ele>288</ele>
        <time>2018-07-05T09:25:24Z</time>
      </trkpt>
      <trkpt lat="45.96899" lon="4.86831">
        <ele>288</ele>
        <time>2018-07-05T09:25:25Z</time>
      </trkpt>
      <trkpt lat="45.969" lon="4.86827">
        <ele>288</ele>
        <time>2018-07-05T09:25:26Z</time>
      </trkpt>
      <trkpt lat="45.96904" lon="4.86818">
        <ele>288</ele>
        <time>2018-07-05T09:25:27Z</time>
      </trkpt>
      <trkpt lat="45.9691" lon="4.8681">
        <ele>288</ele>
        <time>2018-07-05T09:25:29Z</time>
      </trkpt>
      <trkpt lat="45.96914" lon="4.86811">
        <ele>288</ele>
        <time>2018-07-05T09:25:30Z</time>
      </trkpt>
      <trkpt lat="45.96919" lon="4.86814">
        <ele>287</ele>
        <time>2018-07-05T09:25:31Z</time>
      </trkpt>
      <trkpt lat="45.96924" lon="4.86817">
        <ele>287</ele>
        <time>2018-07-05T09:25:32Z</time>
      </trkpt>
      <trkpt lat="45.96928" lon="4.86822">
        <ele>287</ele>
        <time>2018-07-05T09:25:33Z</time>
      </trkpt>
      <trkpt lat="45.96933" lon="4.86825">
        <ele>287</ele>
        <time>2018-07-05T09:25:34Z</time>
      </trkpt>
      <trkpt lat="45.96939" lon="4.86829">
        <ele>287</ele>
        <time>2018-07-05T09:25:35Z</time>
      </trkpt>
      <trkpt lat="45.96945" lon="4.86832">
        <ele>287</ele>
        <time>2018-07-05T09:25:36Z</time>
      </trkpt>
      <trkpt lat="45.96951" lon="4.86835">
        <ele>287</ele>
        <time>2018-07-05T09:25:37Z</time>
      </trkpt>
      <trkpt lat="45.96957" lon="4.86838">
        <ele>287</ele>
        <time>2018-07-05T09:25:38Z</time>
      </trkpt>
      <trkpt lat="45.96963" lon="4.86841">
        <ele>287</ele>
        <time>2018-07-05T09:25:39Z</time>
      </trkpt>
      <trkpt lat="45.96969" lon="4.86843">
        <ele>286</ele>
        <time>2018-07-05T09:25:40Z</time>
      </trkpt>
      <trkpt lat="45.96976" lon="4.86846">
        <ele>286</ele>
        <time>2018-07-05T09:25:41Z</time>
      </trkpt>
      <trkpt lat="45.96984" lon="4.86847">
        <ele>286</ele>
        <time>2018-07-05T09:25:42Z</time>
      </trkpt>
      <trkpt lat="45.9699" lon="4.86849">
        <ele>286</ele>
        <time>2018-07-05T09:25:43Z</time>
      </trkpt>
      <trkpt lat="45.96997" lon="4.86851">
        <ele>286</ele>
        <time>2018-07-05T09:25:44Z</time>
      </trkpt>
      <trkpt lat="45.97004" lon="4.86851">
        <ele>285</ele>
        <time>2018-07-05T09:25:45Z</time>
      </trkpt>
      <trkpt lat="45.97011" lon="4.86851">
        <ele>285</ele>
        <time>2018-07-05T09:25:46Z</time>
      </trkpt>
      <trkpt lat="45.97018" lon="4.86851">
        <ele>285</ele>
        <time>2018-07-05T09:25:47Z</time>
      </trkpt>
      <trkpt lat="45.97025" lon="4.86849">
        <ele>285</ele>
        <time>2018-07-05T09:25:48Z</time>
      </trkpt>
      <trkpt lat="45.97034" lon="4.86847">
        <ele>285</ele>
        <time>2018-07-05T09:25:49Z</time>
      </trkpt>
      <trkpt lat="45.97041" lon="4.86846">
        <ele>285</ele>
        <time>2018-07-05T09:25:50Z</time>
      </trkpt>
      <trkpt lat="45.97048" lon="4.86845">
        <ele>285</ele>
        <time>2018-07-05T09:25:51Z</time>
      </trkpt>
      <trkpt lat="45.97054" lon="4.86842">
        <ele>285</ele>
        <time>2018-07-05T09:25:52Z</time>
      </trkpt>
      <trkpt lat="45.9706" lon="4.86842">
        <ele>284</ele>
        <time>2018-07-05T09:25:53Z</time>
      </trkpt>
      <trkpt lat="45.97066" lon="4.86843">
        <ele>284</ele>
        <time>2018-07-05T09:25:54Z</time>
      </trkpt>
      <trkpt lat="45.97072" lon="4.8684">
        <ele>284</ele>
        <time>2018-07-05T09:25:55Z</time>
      </trkpt>
      <trkpt lat="45.97077" lon="4.8684">
        <ele>284</ele>
        <time>2018-07-05T09:25:56Z</time>
      </trkpt>
      <trkpt lat="45.97083" lon="4.86839">
        <ele>284</ele>
        <time>2018-07-05T09:25:57Z</time>
      </trkpt>
      <trkpt lat="45.97089" lon="4.86838">
        <ele>284</ele>
        <time>2018-07-05T09:25:58Z</time>
      </trkpt>
      <trkpt lat="45.97094" lon="4.86836">
        <ele>284</ele>
        <time>2018-07-05T09:25:59Z</time>
      </trkpt>
      <trkpt lat="45.971" lon="4.86835">
        <ele>284</ele>
        <time>2018-07-05T09:26:00Z</time>
      </trkpt>
      <trkpt lat="45.97106" lon="4.86834">
        <ele>284</ele>
        <time>2018-07-05T09:26:01Z</time>
      </trkpt>
      <trkpt lat="45.97112" lon="4.86833">
        <ele>283</ele>
        <time>2018-07-05T09:26:02Z</time>
      </trkpt>
      <trkpt lat="45.97118" lon="4.86832">
        <ele>283</ele>
        <time>2018-07-05T09:26:03Z</time>
      </trkpt>
      <trkpt lat="45.97124" lon="4.86828">
        <ele>283</ele>
        <time>2018-07-05T09:26:04Z</time>
      </trkpt>
      <trkpt lat="45.97131" lon="4.86825">
        <ele>283</ele>
        <time>2018-07-05T09:26:05Z</time>
      </trkpt>
      <trkpt lat="45.97136" lon="4.86823">
        <ele>283</ele>
        <time>2018-07-05T09:26:06Z</time>
      </trkpt>
      <trkpt lat="45.97141" lon="4.86821">
        <ele>283</ele>
        <time>2018-07-05T09:26:07Z</time>
      </trkpt>
      <trkpt lat="45.97146" lon="4.86818">
        <ele>283</ele>
        <time>2018-07-05T09:26:08Z</time>
      </trkpt>
      <trkpt lat="45.97152" lon="4.86817">
        <ele>283</ele>
        <time>2018-07-05T09:26:09Z</time>
      </trkpt>
      <trkpt lat="45.97159" lon="4.86814">
        <ele>283</ele>
        <time>2018-07-05T09:26:10Z</time>
      </trkpt>
      <trkpt lat="45.97165" lon="4.86811">
        <ele>283</ele>
        <time>2018-07-05T09:26:11Z</time>
      </trkpt>
      <trkpt lat="45.97171" lon="4.86809">
        <ele>283</ele>
        <time>2018-07-05T09:26:12Z</time>
      </trkpt>
      <trkpt lat="45.97177" lon="4.86806">
        <ele>283</ele>
        <time>2018-07-05T09:26:13Z</time>
      </trkpt>
      <trkpt lat="45.97183" lon="4.86803">
        <ele>284</ele>
        <time>2018-07-05T09:26:14Z</time>
      </trkpt>
      <trkpt lat="45.97188" lon="4.86802">
        <ele>284</ele>
        <time>2018-07-05T09:26:15Z</time>
      </trkpt>
      <trkpt lat="45.97194" lon="4.86799">
        <ele>284</ele>
        <time>2018-07-05T09:26:16Z</time>
      </trkpt>
      <trkpt lat="45.97197" lon="4.86793">
        <ele>284</ele>
        <time>2018-07-05T09:26:17Z</time>
      </trkpt>
      <trkpt lat="45.97202" lon="4.86791">
        <ele>284</ele>
        <time>2018-07-05T09:26:18Z</time>
      </trkpt>
      <trkpt lat="45.97208" lon="4.86791">
        <ele>284</ele>
        <time>2018-07-05T09:26:19Z</time>
      </trkpt>
      <trkpt lat="45.97214" lon="4.8679">
        <ele>284</ele>
        <time>2018-07-05T09:26:20Z</time>
      </trkpt>
      <trkpt lat="45.97222" lon="4.86788">
        <ele>284</ele>
        <time>2018-07-05T09:26:21Z</time>
      </trkpt>
      <trkpt lat="45.97228" lon="4.86789">
        <ele>284</ele>
        <time>2018-07-05T09:26:22Z</time>
      </trkpt>
      <trkpt lat="45.97235" lon="4.8679">
        <ele>284</ele>
        <time>2018-07-05T09:26:23Z</time>
      </trkpt>
      <trkpt lat="45.9724" lon="4.86793">
        <ele>284</ele>
        <time>2018-07-05T09:26:24Z</time>
      </trkpt>
      <trkpt lat="45.97245" lon="4.86797">
        <ele>284</ele>
        <time>2018-07-05T09:26:25Z</time>
      </trkpt>
      <trkpt lat="45.9725" lon="4.86803">
        <ele>284</ele>
        <time>2018-07-05T09:26:26Z</time>
      </trkpt>
      <trkpt lat="45.97254" lon="4.86808">
        <ele>285</ele>
        <time>2018-07-05T09:26:27Z</time>
      </trkpt>
      <trkpt lat="45.97256" lon="4.86813">
        <ele>285</ele>
        <time>2018-07-05T09:26:28Z</time>
      </trkpt>
      <trkpt lat="45.97259" lon="4.86819">
        <ele>285</ele>
        <time>2018-07-05T09:26:29Z</time>
      </trkpt>
      <trkpt lat="45.97261" lon="4.86827">
        <ele>285</ele>
        <time>2018-07-05T09:26:30Z</time>
      </trkpt>
      <trkpt lat="45.97265" lon="4.86835">
        <ele>285</ele>
        <time>2018-07-05T09:26:31Z</time>
      </trkpt>
      <trkpt lat="45.97269" lon="4.86841">
        <ele>285</ele>
        <time>2018-07-05T09:26:32Z</time>
      </trkpt>
      <trkpt lat="45.97272" lon="4.86848">
        <ele>285</ele>
        <time>2018-07-05T09:26:33Z</time>
      </trkpt>
      <trkpt lat="45.97275" lon="4.86854">
        <ele>285</ele>
        <time>2018-07-05T09:26:34Z</time>
      </trkpt>
      <trkpt lat="45.97278" lon="4.86862">
        <ele>285</ele>
        <time>2018-07-05T09:26:35Z</time>
      </trkpt>
      <trkpt lat="45.97282" lon="4.86868">
        <ele>285</ele>
        <time>2018-07-05T09:26:36Z</time>
      </trkpt>
      <trkpt lat="45.97287" lon="4.86875">
        <ele>285</ele>
        <time>2018-07-05T09:26:37Z</time>
      </trkpt>
      <trkpt lat="45.97292" lon="4.86881">
        <ele>285</ele>
        <time>2018-07-05T09:26:38Z</time>
      </trkpt>
      <trkpt lat="45.97296" lon="4.86888">
        <ele>284</ele>
        <time>2018-07-05T09:26:39Z</time>
      </trkpt>
      <trkpt lat="45.973" lon="4.86894">
        <ele>284</ele>
        <time>2018-07-05T09:26:40Z</time>
      </trkpt>
      <trkpt lat="45.97304" lon="4.86899">
        <ele>284</ele>
        <time>2018-07-05T09:26:41Z</time>
      </trkpt>
      <trkpt lat="45.97308" lon="4.86906">
        <ele>284</ele>
        <time>2018-07-05T09:26:42Z</time>
      </trkpt>
      <trkpt lat="45.97313" lon="4.86913">
        <ele>284</ele>
        <time>2018-07-05T09:26:43Z</time>
      </trkpt>
      <trkpt lat="45.97318" lon="4.86919">
        <ele>284</ele>
        <time>2018-07-05T09:26:44Z</time>
      </trkpt>
      <trkpt lat="45.97324" lon="4.86926">
        <ele>284</ele>
        <time>2018-07-05T09:26:45Z</time>
      </trkpt>
      <trkpt lat="45.97329" lon="4.86932">
        <ele>284</ele>
        <time>2018-07-05T09:26:46Z</time>
      </trkpt>
      <trkpt lat="45.97335" lon="4.86937">
        <ele>284</ele>
        <time>2018-07-05T09:26:47Z</time>
      </trkpt>
      <trkpt lat="45.97339" lon="4.86944">
        <ele>284</ele>
        <time>2018-07-05T09:26:48Z</time>
      </trkpt>
      <trkpt lat="45.97343" lon="4.8695">
        <ele>284</ele>
        <time>2018-07-05T09:26:49Z</time>
      </trkpt>
      <trkpt lat="45.9735" lon="4.86955">
        <ele>284</ele>
        <time>2018-07-05T09:26:50Z</time>
      </trkpt>
      <trkpt lat="45.97352" lon="4.86961">
        <ele>285</ele>
        <time>2018-07-05T09:26:51Z</time>
      </trkpt>
      <trkpt lat="45.97357" lon="4.86966">
        <ele>285</ele>
        <time>2018-07-05T09:26:52Z</time>
      </trkpt>
      <trkpt lat="45.9736" lon="4.8697">
        <ele>285</ele>
        <time>2018-07-05T09:26:53Z</time>
      </trkpt>
      <trkpt lat="45.97365" lon="4.86975">
        <ele>285</ele>
        <time>2018-07-05T09:26:54Z</time>
      </trkpt>
      <trkpt lat="45.9737" lon="4.86981">
        <ele>285</ele>
        <time>2018-07-05T09:26:55Z</time>
      </trkpt>
      <trkpt lat="45.97376" lon="4.86987">
        <ele>285</ele>
        <time>2018-07-05T09:26:56Z</time>
      </trkpt>
      <trkpt lat="45.97381" lon="4.86993">
        <ele>285</ele>
        <time>2018-07-05T09:26:57Z</time>
      </trkpt>
      <trkpt lat="45.97387" lon="4.86998">
        <ele>285</ele>
        <time>2018-07-05T09:26:58Z</time>
      </trkpt>
      <trkpt lat="45.97393" lon="4.87004">
        <ele>285</ele>
        <time>2018-07-05T09:26:59Z</time>
      </trkpt>
      <trkpt lat="45.97399" lon="4.87009">
        <ele>285</ele>
        <time>2018-07-05T09:27:00Z</time>
      </trkpt>
      <trkpt lat="45.97405" lon="4.87014">
        <ele>285</ele>
        <time>2018-07-05T09:27:01Z</time>
      </trkpt>
      <trkpt lat="45.97407" lon="4.87018">
        <ele>285</ele>
        <time>2018-07-05T09:27:02Z</time>
      </trkpt>
      <trkpt lat="45.97413" lon="4.87023">
        <ele>285</ele>
        <time>2018-07-05T09:27:03Z</time>
      </trkpt>
      <trkpt lat="45.97418" lon="4.87027">
        <ele>284</ele>
        <time>2018-07-05T09:27:04Z</time>
      </trkpt>
      <trkpt lat="45.97422" lon="4.87033">
        <ele>284</ele>
        <time>2018-07-05T09:27:05Z</time>
      </trkpt>
      <trkpt lat="45.97426" lon="4.87038">
        <ele>284</ele>
        <time>2018-07-05T09:27:06Z</time>
      </trkpt>
      <trkpt lat="45.9743" lon="4.87043">
        <ele>284</ele>
        <time>2018-07-05T09:27:07Z</time>
      </trkpt>
      <trkpt lat="45.97435" lon="4.87047">
        <ele>284</ele>
        <time>2018-07-05T09:27:08Z</time>
      </trkpt>
      <trkpt lat="45.97439" lon="4.87054">
        <ele>284</ele>
        <time>2018-07-05T09:27:09Z</time>
      </trkpt>
      <trkpt lat="45.97444" lon="4.87059">
        <ele>284</ele>
        <time>2018-07-05T09:27:10Z</time>
      </trkpt>
      <trkpt lat="45.97448" lon="4.87064">
        <ele>284</ele>
        <time>2018-07-05T09:27:11Z</time>
      </trkpt>
      <trkpt lat="45.97453" lon="4.87069">
        <ele>284</ele>
        <time>2018-07-05T09:27:12Z</time>
      </trkpt>
      <trkpt lat="45.97458" lon="4.87075">
        <ele>284</ele>
        <time>2018-07-05T09:27:13Z</time>
      </trkpt>
      <trkpt lat="45.9746" lon="4.8708">
        <ele>284</ele>
        <time>2018-07-05T09:27:14Z</time>
      </trkpt>
      <trkpt lat="45.97465" lon="4.87086">
        <ele>283</ele>
        <time>2018-07-05T09:27:15Z</time>
      </trkpt>
      <trkpt lat="45.97471" lon="4.87092">
        <ele>283</ele>
        <time>2018-07-05T09:27:16Z</time>
      </trkpt>
      <trkpt lat="45.97476" lon="4.87096">
        <ele>283</ele>
        <time>2018-07-05T09:27:17Z</time>
      </trkpt>
      <trkpt lat="45.97483" lon="4.87101">
        <ele>283</ele>
        <time>2018-07-05T09:27:18Z</time>
      </trkpt>
      <trkpt lat="45.97488" lon="4.87107">
        <ele>283</ele>
        <time>2018-07-05T09:27:19Z</time>
      </trkpt>
      <trkpt lat="45.97493" lon="4.87112">
        <ele>283</ele>
        <time>2018-07-05T09:27:20Z</time>
      </trkpt>
      <trkpt lat="45.97498" lon="4.87117">
        <ele>283</ele>
        <time>2018-07-05T09:27:21Z</time>
      </trkpt>
      <trkpt lat="45.97501" lon="4.87122">
        <ele>283</ele>
        <time>2018-07-05T09:27:22Z</time>
      </trkpt>
      <trkpt lat="45.97507" lon="4.87126">
        <ele>283</ele>
        <time>2018-07-05T09:27:23Z</time>
      </trkpt>
      <trkpt lat="45.97512" lon="4.87131">
        <ele>283</ele>
        <time>2018-07-05T09:27:24Z</time>
      </trkpt>
      <trkpt lat="45.97515" lon="4.87134">
        <ele>283</ele>
        <time>2018-07-05T09:27:25Z</time>
      </trkpt>
      <trkpt lat="45.97523" lon="4.87139">
        <ele>283</ele>
        <time>2018-07-05T09:27:26Z</time>
      </trkpt>
      <trkpt lat="45.97525" lon="4.87143">
        <ele>283</ele>
        <time>2018-07-05T09:27:27Z</time>
      </trkpt>
      <trkpt lat="45.97529" lon="4.87148">
        <ele>283</ele>
        <time>2018-07-05T09:27:28Z</time>
      </trkpt>
      <trkpt lat="45.97534" lon="4.87152">
        <ele>283</ele>
        <time>2018-07-05T09:27:29Z</time>
      </trkpt>
      <trkpt lat="45.97539" lon="4.87155">
        <ele>283</ele>
        <time>2018-07-05T09:27:30Z</time>
      </trkpt>
      <trkpt lat="45.97544" lon="4.87158">
        <ele>283</ele>
        <time>2018-07-05T09:27:31Z</time>
      </trkpt>
      <trkpt lat="45.97549" lon="4.87163">
        <ele>283</ele>
        <time>2018-07-05T09:27:32Z</time>
      </trkpt>
      <trkpt lat="45.97555" lon="4.87169">
        <ele>283</ele>
        <time>2018-07-05T09:27:33Z</time>
      </trkpt>
      <trkpt lat="45.97561" lon="4.87174">
        <ele>283</ele>
        <time>2018-07-05T09:27:34Z</time>
      </trkpt>
      <trkpt lat="45.97569" lon="4.87179">
        <ele>283</ele>
        <time>2018-07-05T09:27:35Z</time>
      </trkpt>
      <trkpt lat="45.97575" lon="4.87186">
        <ele>283</ele>
        <time>2018-07-05T09:27:36Z</time>
      </trkpt>
      <trkpt lat="45.97579" lon="4.87191">
        <ele>283</ele>
        <time>2018-07-05T09:27:37Z</time>
      </trkpt>
      <trkpt lat="45.97583" lon="4.87197">
        <ele>283</ele>
        <time>2018-07-05T09:27:38Z</time>
      </trkpt>
      <trkpt lat="45.97587" lon="4.87201">
        <ele>283</ele>
        <time>2018-07-05T09:27:39Z</time>
      </trkpt>
      <trkpt lat="45.9759" lon="4.87208">
        <ele>283</ele>
        <time>2018-07-05T09:27:40Z</time>
      </trkpt>
      <trkpt lat="45.97596" lon="4.87212">
        <ele>284</ele>
        <time>2018-07-05T09:27:41Z</time>
      </trkpt>
      <trkpt lat="45.976" lon="4.87217">
        <ele>284</ele>
        <time>2018-07-05T09:27:42Z</time>
      </trkpt>
      <trkpt lat="45.97602" lon="4.87221">
        <ele>284</ele>
        <time>2018-07-05T09:27:43Z</time>
      </trkpt>
      <trkpt lat="45.97607" lon="4.87226">
        <ele>284</ele>
        <time>2018-07-05T09:27:44Z</time>
      </trkpt>
      <trkpt lat="45.97611" lon="4.8723">
        <ele>284</ele>
        <time>2018-07-05T09:27:45Z</time>
      </trkpt>
      <trkpt lat="45.97615" lon="4.87234">
        <ele>284</ele>
        <time>2018-07-05T09:27:46Z</time>
      </trkpt>
      <trkpt lat="45.97619" lon="4.87239">
        <ele>284</ele>
        <time>2018-07-05T09:27:47Z</time>
      </trkpt>
      <trkpt lat="45.97625" lon="4.87243">
        <ele>284</ele>
        <time>2018-07-05T09:27:48Z</time>
      </trkpt>
      <trkpt lat="45.9763" lon="4.8725">
        <ele>284</ele>
        <time>2018-07-05T09:27:49Z</time>
      </trkpt>
      <trkpt lat="45.97634" lon="4.87255">
        <ele>285</ele>
        <time>2018-07-05T09:27:50Z</time>
      </trkpt>
      <trkpt lat="45.97642" lon="4.87259">
        <ele>285</ele>
        <time>2018-07-05T09:27:51Z</time>
      </trkpt>
      <trkpt lat="45.97647" lon="4.87264">
        <ele>285</ele>
        <time>2018-07-05T09:27:52Z</time>
      </trkpt>
      <trkpt lat="45.97651" lon="4.8727">
        <ele>285</ele>
        <time>2018-07-05T09:27:53Z</time>
      </trkpt>
      <trkpt lat="45.97656" lon="4.87275">
        <ele>285</ele>
        <time>2018-07-05T09:27:54Z</time>
      </trkpt>
      <trkpt lat="45.9766" lon="4.87282">
        <ele>285</ele>
        <time>2018-07-05T09:27:55Z</time>
      </trkpt>
      <trkpt lat="45.97666" lon="4.87284">
        <ele>285</ele>
        <time>2018-07-05T09:27:56Z</time>
      </trkpt>
      <trkpt lat="45.9767" lon="4.87287">
        <ele>286</ele>
        <time>2018-07-05T09:27:57Z</time>
      </trkpt>
      <trkpt lat="45.97676" lon="4.87292">
        <ele>286</ele>
        <time>2018-07-05T09:27:58Z</time>
      </trkpt>
      <trkpt lat="45.97681" lon="4.87295">
        <ele>286</ele>
        <time>2018-07-05T09:27:59Z</time>
      </trkpt>
      <trkpt lat="45.97685" lon="4.873">
        <ele>286</ele>
        <time>2018-07-05T09:28:00Z</time>
      </trkpt>
      <trkpt lat="45.97691" lon="4.87304">
        <ele>286</ele>
        <time>2018-07-05T09:28:01Z</time>
      </trkpt>
      <trkpt lat="45.97697" lon="4.87309">
        <ele>286</ele>
        <time>2018-07-05T09:28:02Z</time>
      </trkpt>
      <trkpt lat="45.97701" lon="4.87313">
        <ele>286</ele>
        <time>2018-07-05T09:28:03Z</time>
      </trkpt>
      <trkpt lat="45.97706" lon="4.87318">
        <ele>286</ele>
        <time>2018-07-05T09:28:04Z</time>
      </trkpt>
      <trkpt lat="45.97711" lon="4.87324">
        <ele>286</ele>
        <time>2018-07-05T09:28:05Z</time>
      </trkpt>
      <trkpt lat="45.97715" lon="4.8733">
        <ele>286</ele>
        <time>2018-07-05T09:28:06Z</time>
      </trkpt>
      <trkpt lat="45.9772" lon="4.87335">
        <ele>285</ele>
        <time>2018-07-05T09:28:07Z</time>
      </trkpt>
      <trkpt lat="45.97725" lon="4.8734">
        <ele>285</ele>
        <time>2018-07-05T09:28:08Z</time>
      </trkpt>
      <trkpt lat="45.97728" lon="4.87346">
        <ele>285</ele>
        <time>2018-07-05T09:28:09Z</time>
      </trkpt>
      <trkpt lat="45.97732" lon="4.87352">
        <ele>285</ele>
        <time>2018-07-05T09:28:10Z</time>
      </trkpt>
      <trkpt lat="45.97742" lon="4.87357">
        <ele>286</ele>
        <time>2018-07-05T09:28:11Z</time>
      </trkpt>
      <trkpt lat="45.97745" lon="4.87364">
        <ele>285</ele>
        <time>2018-07-05T09:28:12Z</time>
      </trkpt>
      <trkpt lat="45.9775" lon="4.87372">
        <ele>285</ele>
        <time>2018-07-05T09:28:13Z</time>
      </trkpt>
      <trkpt lat="45.97753" lon="4.87376">
        <ele>285</ele>
        <time>2018-07-05T09:28:14Z</time>
      </trkpt>
      <trkpt lat="45.97755" lon="4.87383">
        <ele>284</ele>
        <time>2018-07-05T09:28:15Z</time>
      </trkpt>
      <trkpt lat="45.9776" lon="4.87388">
        <ele>284</ele>
        <time>2018-07-05T09:28:16Z</time>
      </trkpt>
      <trkpt lat="45.97764" lon="4.87393">
        <ele>284</ele>
        <time>2018-07-05T09:28:17Z</time>
      </trkpt>
      <trkpt lat="45.97773" lon="4.87399">
        <ele>284</ele>
        <time>2018-07-05T09:28:18Z</time>
      </trkpt>
      <trkpt lat="45.97777" lon="4.87404">
        <ele>284</ele>
        <time>2018-07-05T09:28:19Z</time>
      </trkpt>
      <trkpt lat="45.97779" lon="4.87411">
        <ele>284</ele>
        <time>2018-07-05T09:28:20Z</time>
      </trkpt>
      <trkpt lat="45.97784" lon="4.87418">
        <ele>283</ele>
        <time>2018-07-05T09:28:21Z</time>
      </trkpt>
      <trkpt lat="45.97789" lon="4.87424">
        <ele>283</ele>
        <time>2018-07-05T09:28:22Z</time>
      </trkpt>
      <trkpt lat="45.97795" lon="4.87431">
        <ele>283</ele>
        <time>2018-07-05T09:28:23Z</time>
      </trkpt>
      <trkpt lat="45.97799" lon="4.87437">
        <ele>283</ele>
        <time>2018-07-05T09:28:24Z</time>
      </trkpt>
      <trkpt lat="45.97807" lon="4.87444">
        <ele>282</ele>
        <time>2018-07-05T09:28:25Z</time>
      </trkpt>
      <trkpt lat="45.97812" lon="4.87449">
        <ele>282</ele>
        <time>2018-07-05T09:28:26Z</time>
      </trkpt>
      <trkpt lat="45.97817" lon="4.87454">
        <ele>282</ele>
        <time>2018-07-05T09:28:27Z</time>
      </trkpt>
      <trkpt lat="45.97824" lon="4.8746">
        <ele>282</ele>
        <time>2018-07-05T09:28:28Z</time>
      </trkpt>
      <trkpt lat="45.97829" lon="4.87466">
        <ele>282</ele>
        <time>2018-07-05T09:28:29Z</time>
      </trkpt>
      <trkpt lat="45.97835" lon="4.87472">
        <ele>281</ele>
        <time>2018-07-05T09:28:30Z</time>
      </trkpt>
      <trkpt lat="45.9784" lon="4.87479">
        <ele>281</ele>
        <time>2018-07-05T09:28:31Z</time>
      </trkpt>
      <trkpt lat="45.97846" lon="4.87485">
        <ele>281</ele>
        <time>2018-07-05T09:28:32Z</time>
      </trkpt>
      <trkpt lat="45.97851" lon="4.87491">
        <ele>281</ele>
        <time>2018-07-05T09:28:33Z</time>
      </trkpt>
      <trkpt lat="45.97857" lon="4.87498">
        <ele>281</ele>
        <time>2018-07-05T09:28:34Z</time>
      </trkpt>
      <trkpt lat="45.97862" lon="4.87504">
        <ele>281</ele>
        <time>2018-07-05T09:28:35Z</time>
      </trkpt>
      <trkpt lat="45.97868" lon="4.87509">
        <ele>281</ele>
        <time>2018-07-05T09:28:36Z</time>
      </trkpt>
      <trkpt lat="45.97875" lon="4.87514">
        <ele>281</ele>
        <time>2018-07-05T09:28:37Z</time>
      </trkpt>
      <trkpt lat="45.97881" lon="4.87517">
        <ele>281</ele>
        <time>2018-07-05T09:28:38Z</time>
      </trkpt>
      <trkpt lat="45.97888" lon="4.8752">
        <ele>281</ele>
        <time>2018-07-05T09:28:39Z</time>
      </trkpt>
      <trkpt lat="45.97895" lon="4.87523">
        <ele>280</ele>
        <time>2018-07-05T09:28:40Z</time>
      </trkpt>
      <trkpt lat="45.97902" lon="4.87526">
        <ele>280</ele>
        <time>2018-07-05T09:28:41Z</time>
      </trkpt>
      <trkpt lat="45.97908" lon="4.87528">
        <ele>280</ele>
        <time>2018-07-05T09:28:42Z</time>
      </trkpt>
      <trkpt lat="45.97914" lon="4.87531">
        <ele>280</ele>
        <time>2018-07-05T09:28:43Z</time>
      </trkpt>
      <trkpt lat="45.97923" lon="4.87534">
        <ele>279</ele>
        <time>2018-07-05T09:28:44Z</time>
      </trkpt>
      <trkpt lat="45.97929" lon="4.87538">
        <ele>279</ele>
        <time>2018-07-05T09:28:45Z</time>
      </trkpt>
      <trkpt lat="45.97936" lon="4.8754">
        <ele>279</ele>
        <time>2018-07-05T09:28:46Z</time>
      </trkpt>
      <trkpt lat="45.97943" lon="4.87543">
        <ele>279</ele>
        <time>2018-07-05T09:28:47Z</time>
      </trkpt>
      <trkpt lat="45.9795" lon="4.87546">
        <ele>279</ele>
        <time>2018-07-05T09:28:48Z</time>
      </trkpt>
      <trkpt lat="45.97956" lon="4.8755">
        <ele>279</ele>
        <time>2018-07-05T09:28:49Z</time>
      </trkpt>
      <trkpt lat="45.97962" lon="4.87554">
        <ele>279</ele>
        <time>2018-07-05T09:28:50Z</time>
      </trkpt>
      <trkpt lat="45.97966" lon="4.87561">
        <ele>279</ele>
        <time>2018-07-05T09:28:51Z</time>
      </trkpt>
      <trkpt lat="45.97972" lon="4.87566">
        <ele>279</ele>
        <time>2018-07-05T09:28:52Z</time>
      </trkpt>
      <trkpt lat="45.97976" lon="4.87572">
        <ele>279</ele>
        <time>2018-07-05T09:28:53Z</time>
      </trkpt>
      <trkpt lat="45.9798" lon="4.87578">
        <ele>280</ele>
        <time>2018-07-05T09:28:54Z</time>
      </trkpt>
      <trkpt lat="45.97985" lon="4.87585">
        <ele>280</ele>
        <time>2018-07-05T09:28:55Z</time>
      </trkpt>
      <trkpt lat="45.97989" lon="4.8759">
        <ele>280</ele>
        <time>2018-07-05T09:28:56Z</time>
      </trkpt>
      <trkpt lat="45.97992" lon="4.87597">
        <ele>280</ele>
        <time>2018-07-05T09:28:57Z</time>
      </trkpt>
      <trkpt lat="45.97994" lon="4.87604">
        <ele>280</ele>
        <time>2018-07-05T09:28:58Z</time>
      </trkpt>
      <trkpt lat="45.97996" lon="4.8761">
        <ele>280</ele>
        <time>2018-07-05T09:28:59Z</time>
      </trkpt>
      <trkpt lat="45.97997" lon="4.87618">
        <ele>280</ele>
        <time>2018-07-05T09:29:00Z</time>
      </trkpt>
      <trkpt lat="45.97999" lon="4.87626">
        <ele>280</ele>
        <time>2018-07-05T09:29:01Z</time>
      </trkpt>
      <trkpt lat="45.98" lon="4.87634">
        <ele>280</ele>
        <time>2018-07-05T09:29:02Z</time>
      </trkpt>
      <trkpt lat="45.98001" lon="4.87642">
        <ele>280</ele>
        <time>2018-07-05T09:29:03Z</time>
      </trkpt>
      <trkpt lat="45.98003" lon="4.87649">
        <ele>280</ele>
        <time>2018-07-05T09:29:04Z</time>
      </trkpt>
      <trkpt lat="45.98006" lon="4.87656">
        <ele>280</ele>
        <time>2018-07-05T09:29:05Z</time>
      </trkpt>
      <trkpt lat="45.98009" lon="4.87664">
        <ele>280</ele>
        <time>2018-07-05T09:29:06Z</time>
      </trkpt>
      <trkpt lat="45.98012" lon="4.87671">
        <ele>280</ele>
        <time>2018-07-05T09:29:07Z</time>
      </trkpt>
      <trkpt lat="45.98014" lon="4.87678">
        <ele>280</ele>
        <time>2018-07-05T09:29:08Z</time>
      </trkpt>
      <trkpt lat="45.98017" lon="4.87686">
        <ele>280</ele>
        <time>2018-07-05T09:29:09Z</time>
      </trkpt>
      <trkpt lat="45.98019" lon="4.87693">
        <ele>280</ele>
        <time>2018-07-05T09:29:10Z</time>
      </trkpt>
      <trkpt lat="45.98024" lon="4.87701">
        <ele>280</ele>
        <time>2018-07-05T09:29:11Z</time>
      </trkpt>
      <trkpt lat="45.98028" lon="4.87706">
        <ele>280</ele>
        <time>2018-07-05T09:29:12Z</time>
      </trkpt>
      <trkpt lat="45.9803" lon="4.87713">
        <ele>279</ele>
        <time>2018-07-05T09:29:13Z</time>
      </trkpt>
      <trkpt lat="45.9803" lon="4.87721">
        <ele>279</ele>
        <time>2018-07-05T09:29:14Z</time>
      </trkpt>
      <trkpt lat="45.98032" lon="4.87728">
        <ele>279</ele>
        <time>2018-07-05T09:29:15Z</time>
      </trkpt>
      <trkpt lat="45.98035" lon="4.87736">
        <ele>279</ele>
        <time>2018-07-05T09:29:16Z</time>
      </trkpt>
      <trkpt lat="45.98037" lon="4.87745">
        <ele>279</ele>
        <time>2018-07-05T09:29:17Z</time>
      </trkpt>
      <trkpt lat="45.98042" lon="4.87751">
        <ele>280</ele>
        <time>2018-07-05T09:29:18Z</time>
      </trkpt>
      <trkpt lat="45.98044" lon="4.87759">
        <ele>280</ele>
        <time>2018-07-05T09:29:19Z</time>
      </trkpt>
      <trkpt lat="45.98046" lon="4.87767">
        <ele>280</ele>
        <time>2018-07-05T09:29:20Z</time>
      </trkpt>
      <trkpt lat="45.98049" lon="4.87776">
        <ele>280</ele>
        <time>2018-07-05T09:29:21Z</time>
      </trkpt>
      <trkpt lat="45.98051" lon="4.87784">
        <ele>280</ele>
        <time>2018-07-05T09:29:22Z</time>
      </trkpt>
      <trkpt lat="45.98054" lon="4.87791">
        <ele>280</ele>
        <time>2018-07-05T09:29:23Z</time>
      </trkpt>
      <trkpt lat="45.98056" lon="4.878">
        <ele>280</ele>
        <time>2018-07-05T09:29:24Z</time>
      </trkpt>
      <trkpt lat="45.98058" lon="4.87807">
        <ele>280</ele>
        <time>2018-07-05T09:29:25Z</time>
      </trkpt>
      <trkpt lat="45.98061" lon="4.87817">
        <ele>280</ele>
        <time>2018-07-05T09:29:26Z</time>
      </trkpt>
      <trkpt lat="45.98064" lon="4.87824">
        <ele>280</ele>
        <time>2018-07-05T09:29:27Z</time>
      </trkpt>
      <trkpt lat="45.98065" lon="4.87832">
        <ele>279</ele>
        <time>2018-07-05T09:29:28Z</time>
      </trkpt>
      <trkpt lat="45.98067" lon="4.8784">
        <ele>280</ele>
        <time>2018-07-05T09:29:29Z</time>
      </trkpt>
      <trkpt lat="45.9807" lon="4.87848">
        <ele>280</ele>
        <time>2018-07-05T09:29:30Z</time>
      </trkpt>
      <trkpt lat="45.98073" lon="4.87856">
        <ele>280</ele>
        <time>2018-07-05T09:29:31Z</time>
      </trkpt>
      <trkpt lat="45.98076" lon="4.87865">
        <ele>280</ele>
        <time>2018-07-05T09:29:32Z</time>
      </trkpt>
      <trkpt lat="45.98079" lon="4.87874">
        <ele>280</ele>
        <time>2018-07-05T09:29:33Z</time>
      </trkpt>
      <trkpt lat="45.98083" lon="4.87882">
        <ele>280</ele>
        <time>2018-07-05T09:29:34Z</time>
      </trkpt>
      <trkpt lat="45.98085" lon="4.87891">
        <ele>278</ele>
        <time>2018-07-05T09:29:35Z</time>
      </trkpt>
      <trkpt lat="45.98088" lon="4.87899">
        <ele>278</ele>
        <time>2018-07-05T09:29:36Z</time>
      </trkpt>
      <trkpt lat="45.9809" lon="4.87908">
        <ele>278</ele>
        <time>2018-07-05T09:29:37Z</time>
      </trkpt>
      <trkpt lat="45.98093" lon="4.87916">
        <ele>278</ele>
        <time>2018-07-05T09:29:38Z</time>
      </trkpt>
      <trkpt lat="45.98096" lon="4.87925">
        <ele>278</ele>
        <time>2018-07-05T09:29:39Z</time>
      </trkpt>
      <trkpt lat="45.98098" lon="4.87933">
        <ele>277</ele>
        <time>2018-07-05T09:29:40Z</time>
      </trkpt>
      <trkpt lat="45.98101" lon="4.87941">
        <ele>277</ele>
        <time>2018-07-05T09:29:41Z</time>
      </trkpt>
      <trkpt lat="45.98102" lon="4.87949">
        <ele>277</ele>
        <time>2018-07-05T09:29:42Z</time>
      </trkpt>
      <trkpt lat="45.98105" lon="4.87959">
        <ele>277</ele>
        <time>2018-07-05T09:29:43Z</time>
      </trkpt>
      <trkpt lat="45.98108" lon="4.87966">
        <ele>277</ele>
        <time>2018-07-05T09:29:44Z</time>
      </trkpt>
      <trkpt lat="45.9811" lon="4.87976">
        <ele>277</ele>
        <time>2018-07-05T09:29:45Z</time>
      </trkpt>
      <trkpt lat="45.98112" lon="4.87985">
        <ele>277</ele>
        <time>2018-07-05T09:29:46Z</time>
      </trkpt>
      <trkpt lat="45.98115" lon="4.87995">
        <ele>277</ele>
        <time>2018-07-05T09:29:47Z</time>
      </trkpt>
      <trkpt lat="45.98118" lon="4.88004">
        <ele>276</ele>
        <time>2018-07-05T09:29:48Z</time>
      </trkpt>
      <trkpt lat="45.98122" lon="4.88014">
        <ele>276</ele>
        <time>2018-07-05T09:29:49Z</time>
      </trkpt>
      <trkpt lat="45.98122" lon="4.88024">
        <ele>276</ele>
        <time>2018-07-05T09:29:50Z</time>
      </trkpt>
      <trkpt lat="45.98124" lon="4.88034">
        <ele>276</ele>
        <time>2018-07-05T09:29:51Z</time>
      </trkpt>
      <trkpt lat="45.98126" lon="4.88043">
        <ele>276</ele>
        <time>2018-07-05T09:29:52Z</time>
      </trkpt>
      <trkpt lat="45.9813" lon="4.88053">
        <ele>276</ele>
        <time>2018-07-05T09:29:53Z</time>
      </trkpt>
      <trkpt lat="45.98133" lon="4.88063">
        <ele>275</ele>
        <time>2018-07-05T09:29:54Z</time>
      </trkpt>
      <trkpt lat="45.98135" lon="4.88074">
        <ele>275</ele>
        <time>2018-07-05T09:29:55Z</time>
      </trkpt>
      <trkpt lat="45.98138" lon="4.88084">
        <ele>274</ele>
        <time>2018-07-05T09:29:56Z</time>
      </trkpt>
      <trkpt lat="45.98143" lon="4.88094">
        <ele>274</ele>
        <time>2018-07-05T09:29:57Z</time>
      </trkpt>
      <trkpt lat="45.98146" lon="4.88105">
        <ele>274</ele>
        <time>2018-07-05T09:29:58Z</time>
      </trkpt>
      <trkpt lat="45.98149" lon="4.88116">
        <ele>274</ele>
        <time>2018-07-05T09:29:59Z</time>
      </trkpt>
      <trkpt lat="45.98152" lon="4.88127">
        <ele>274</ele>
        <time>2018-07-05T09:30:00Z</time>
      </trkpt>
      <trkpt lat="45.98156" lon="4.88139">
        <ele>274</ele>
        <time>2018-07-05T09:30:01Z</time>
      </trkpt>
      <trkpt lat="45.9816" lon="4.8815">
        <ele>274</ele>
        <time>2018-07-05T09:30:02Z</time>
      </trkpt>
      <trkpt lat="45.98163" lon="4.88161">
        <ele>273</ele>
        <time>2018-07-05T09:30:03Z</time>
      </trkpt>
      <trkpt lat="45.98166" lon="4.88173">
        <ele>273</ele>
        <time>2018-07-05T09:30:04Z</time>
      </trkpt>
      <trkpt lat="45.98171" lon="4.88184">
        <ele>273</ele>
        <time>2018-07-05T09:30:05Z</time>
      </trkpt>
      <trkpt lat="45.98173" lon="4.88195">
        <ele>273</ele>
        <time>2018-07-05T09:30:06Z</time>
      </trkpt>
      <trkpt lat="45.98177" lon="4.88207">
        <ele>273</ele>
        <time>2018-07-05T09:30:07Z</time>
      </trkpt>
      <trkpt lat="45.98181" lon="4.88218">
        <ele>273</ele>
        <time>2018-07-05T09:30:08Z</time>
      </trkpt>
      <trkpt lat="45.98184" lon="4.88229">
        <ele>273</ele>
        <time>2018-07-05T09:30:09Z</time>
      </trkpt>
      <trkpt lat="45.98187" lon="4.88241">
        <ele>273</ele>
        <time>2018-07-05T09:30:10Z</time>
      </trkpt>
      <trkpt lat="45.98191" lon="4.88252">
        <ele>274</ele>
        <time>2018-07-05T09:30:11Z</time>
      </trkpt>
      <trkpt lat="45.98193" lon="4.88263">
        <ele>274</ele>
        <time>2018-07-05T09:30:12Z</time>
      </trkpt>
      <trkpt lat="45.98197" lon="4.88275">
        <ele>274</ele>
        <time>2018-07-05T09:30:13Z</time>
      </trkpt>
      <trkpt lat="45.982" lon="4.88285">
        <ele>274</ele>
        <time>2018-07-05T09:30:14Z</time>
      </trkpt>
      <trkpt lat="45.98201" lon="4.88295">
        <ele>274</ele>
        <time>2018-07-05T09:30:15Z</time>
      </trkpt>
      <trkpt lat="45.98204" lon="4.88304">
        <ele>274</ele>
        <time>2018-07-05T09:30:16Z</time>
      </trkpt>
      <trkpt lat="45.98205" lon="4.88314">
        <ele>274</ele>
        <time>2018-07-05T09:30:17Z</time>
      </trkpt>
      <trkpt lat="45.98206" lon="4.88323">
        <ele>274</ele>
        <time>2018-07-05T09:30:18Z</time>
      </trkpt>
      <trkpt lat="45.98205" lon="4.88331">
        <ele>274</ele>
        <time>2018-07-05T09:30:19Z</time>
      </trkpt>
      <trkpt lat="45.98207" lon="4.8834">
        <ele>275</ele>
        <time>2018-07-05T09:30:20Z</time>
      </trkpt>
      <trkpt lat="45.98207" lon="4.88349">
        <ele>275</ele>
        <time>2018-07-05T09:30:21Z</time>
      </trkpt>
      <trkpt lat="45.98208" lon="4.88357">
        <ele>275</ele>
        <time>2018-07-05T09:30:22Z</time>
      </trkpt>
      <trkpt lat="45.98209" lon="4.88366">
        <ele>275</ele>
        <time>2018-07-05T09:30:23Z</time>
      </trkpt>
      <trkpt lat="45.98208" lon="4.88374">
        <ele>275</ele>
        <time>2018-07-05T09:30:24Z</time>
      </trkpt>
      <trkpt lat="45.98209" lon="4.88382">
        <ele>275</ele>
        <time>2018-07-05T09:30:25Z</time>
      </trkpt>
      <trkpt lat="45.98211" lon="4.88391">
        <ele>275</ele>
        <time>2018-07-05T09:30:26Z</time>
      </trkpt>
      <trkpt lat="45.98213" lon="4.88399">
        <ele>275</ele>
        <time>2018-07-05T09:30:27Z</time>
      </trkpt>
      <trkpt lat="45.98214" lon="4.88406">
        <ele>275</ele>
        <time>2018-07-05T09:30:28Z</time>
      </trkpt>
      <trkpt lat="45.98217" lon="4.88414">
        <ele>275</ele>
        <time>2018-07-05T09:30:29Z</time>
      </trkpt>
      <trkpt lat="45.98219" lon="4.88421">
        <ele>276</ele>
        <time>2018-07-05T09:30:30Z</time>
      </trkpt>
      <trkpt lat="45.98221" lon="4.88428">
        <ele>276</ele>
        <time>2018-07-05T09:30:31Z</time>
      </trkpt>
      <trkpt lat="45.98223" lon="4.8844">
        <ele>276</ele>
        <time>2018-07-05T09:30:33Z</time>
      </trkpt>
      <trkpt lat="45.98224" lon="4.8845">
        <ele>276</ele>
        <time>2018-07-05T09:30:34Z</time>
      </trkpt>
      <trkpt lat="45.98225" lon="4.88457">
        <ele>276</ele>
        <time>2018-07-05T09:30:35Z</time>
      </trkpt>
      <trkpt lat="45.98226" lon="4.88464">
        <ele>276</ele>
        <time>2018-07-05T09:30:36Z</time>
      </trkpt>
      <trkpt lat="45.98226" lon="4.88471">
        <ele>276</ele>
        <time>2018-07-05T09:30:37Z</time>
      </trkpt>
      <trkpt lat="45.98227" lon="4.88478">
        <ele>276</ele>
        <time>2018-07-05T09:30:38Z</time>
      </trkpt>
      <trkpt lat="45.98229" lon="4.88486">
        <ele>276</ele>
        <time>2018-07-05T09:30:39Z</time>
      </trkpt>
      <trkpt lat="45.98232" lon="4.88493">
        <ele>276</ele>
        <time>2018-07-05T09:30:40Z</time>
      </trkpt>
      <trkpt lat="45.98234" lon="4.88501">
        <ele>276</ele>
        <time>2018-07-05T09:30:41Z</time>
      </trkpt>
      <trkpt lat="45.98236" lon="4.88509">
        <ele>276</ele>
        <time>2018-07-05T09:30:42Z</time>
      </trkpt>
      <trkpt lat="45.98238" lon="4.88517">
        <ele>276</ele>
        <time>2018-07-05T09:30:43Z</time>
      </trkpt>
      <trkpt lat="45.98239" lon="4.88525">
        <ele>276</ele>
        <time>2018-07-05T09:30:44Z</time>
      </trkpt>
      <trkpt lat="45.98241" lon="4.88531">
        <ele>276</ele>
        <time>2018-07-05T09:30:45Z</time>
      </trkpt>
      <trkpt lat="45.98243" lon="4.88538">
        <ele>276</ele>
        <time>2018-07-05T09:30:46Z</time>
      </trkpt>
      <trkpt lat="45.98244" lon="4.88545">
        <ele>276</ele>
        <time>2018-07-05T09:30:47Z</time>
      </trkpt>
      <trkpt lat="45.98246" lon="4.88552">
        <ele>276</ele>
        <time>2018-07-05T09:30:48Z</time>
      </trkpt>
      <trkpt lat="45.98248" lon="4.88559">
        <ele>276</ele>
        <time>2018-07-05T09:30:49Z</time>
      </trkpt>
      <trkpt lat="45.98251" lon="4.88567">
        <ele>276</ele>
        <time>2018-07-05T09:30:50Z</time>
      </trkpt>
      <trkpt lat="45.98253" lon="4.88573">
        <ele>276</ele>
        <time>2018-07-05T09:30:51Z</time>
      </trkpt>
      <trkpt lat="45.98254" lon="4.8858">
        <ele>275</ele>
        <time>2018-07-05T09:30:52Z</time>
      </trkpt>
      <trkpt lat="45.98255" lon="4.88588">
        <ele>275</ele>
        <time>2018-07-05T09:30:53Z</time>
      </trkpt>
      <trkpt lat="45.98258" lon="4.88596">
        <ele>275</ele>
        <time>2018-07-05T09:30:54Z</time>
      </trkpt>
      <trkpt lat="45.9826" lon="4.88603">
        <ele>275</ele>
        <time>2018-07-05T09:30:55Z</time>
      </trkpt>
      <trkpt lat="45.98262" lon="4.8861">
        <ele>275</ele>
        <time>2018-07-05T09:30:56Z</time>
      </trkpt>
      <trkpt lat="45.98264" lon="4.88616">
        <ele>276</ele>
        <time>2018-07-05T09:30:57Z</time>
      </trkpt>
      <trkpt lat="45.98265" lon="4.88623">
        <ele>276</ele>
        <time>2018-07-05T09:30:58Z</time>
      </trkpt>
      <trkpt lat="45.98267" lon="4.8863">
        <ele>276</ele>
        <time>2018-07-05T09:30:59Z</time>
      </trkpt>
      <trkpt lat="45.98268" lon="4.88637">
        <ele>276</ele>
        <time>2018-07-05T09:31:00Z</time>
      </trkpt>
      <trkpt lat="45.9827" lon="4.88644">
        <ele>276</ele>
        <time>2018-07-05T09:31:01Z</time>
      </trkpt>
      <trkpt lat="45.98272" lon="4.88649">
        <ele>275</ele>
        <time>2018-07-05T09:31:02Z</time>
      </trkpt>
      <trkpt lat="45.98274" lon="4.88656">
        <ele>275</ele>
        <time>2018-07-05T09:31:03Z</time>
      </trkpt>
      <trkpt lat="45.98278" lon="4.88662">
        <ele>276</ele>
        <time>2018-07-05T09:31:04Z</time>
      </trkpt>
      <trkpt lat="45.9828" lon="4.88669">
        <ele>276</ele>
        <time>2018-07-05T09:31:05Z</time>
      </trkpt>
      <trkpt lat="45.98281" lon="4.88676">
        <ele>276</ele>
        <time>2018-07-05T09:31:06Z</time>
      </trkpt>
      <trkpt lat="45.98283" lon="4.88683">
        <ele>276</ele>
        <time>2018-07-05T09:31:07Z</time>
      </trkpt>
      <trkpt lat="45.98284" lon="4.88689">
        <ele>276</ele>
        <time>2018-07-05T09:31:08Z</time>
      </trkpt>
      <trkpt lat="45.98285" lon="4.88696">
        <ele>276</ele>
        <time>2018-07-05T09:31:09Z</time>
      </trkpt>
      <trkpt lat="45.98287" lon="4.88702">
        <ele>276</ele>
        <time>2018-07-05T09:31:10Z</time>
      </trkpt>
      <trkpt lat="45.98289" lon="4.88709">
        <ele>276</ele>
        <time>2018-07-05T09:31:11Z</time>
      </trkpt>
      <trkpt lat="45.9829" lon="4.88715">
        <ele>276</ele>
        <time>2018-07-05T09:31:12Z</time>
      </trkpt>
      <trkpt lat="45.98292" lon="4.88721">
        <ele>276</ele>
        <time>2018-07-05T09:31:13Z</time>
      </trkpt>
      <trkpt lat="45.98294" lon="4.88728">
        <ele>276</ele>
        <time>2018-07-05T09:31:14Z</time>
      </trkpt>
      <trkpt lat="45.98295" lon="4.88735">
        <ele>276</ele>
        <time>2018-07-05T09:31:15Z</time>
      </trkpt>
      <trkpt lat="45.98296" lon="4.88741">
        <ele>276</ele>
        <time>2018-07-05T09:31:16Z</time>
      </trkpt>
      <trkpt lat="45.98298" lon="4.88747">
        <ele>276</ele>
        <time>2018-07-05T09:31:17Z</time>
      </trkpt>
      <trkpt lat="45.983" lon="4.88754">
        <ele>276</ele>
        <time>2018-07-05T09:31:18Z</time>
      </trkpt>
      <trkpt lat="45.98302" lon="4.8876">
        <ele>276</ele>
        <time>2018-07-05T09:31:19Z</time>
      </trkpt>
      <trkpt lat="45.98303" lon="4.88768">
        <ele>277</ele>
        <time>2018-07-05T09:31:20Z</time>
      </trkpt>
      <trkpt lat="45.98305" lon="4.88774">
        <ele>277</ele>
        <time>2018-07-05T09:31:21Z</time>
      </trkpt>
      <trkpt lat="45.98306" lon="4.88781">
        <ele>277</ele>
        <time>2018-07-05T09:31:22Z</time>
      </trkpt>
      <trkpt lat="45.98307" lon="4.88788">
        <ele>277</ele>
        <time>2018-07-05T09:31:23Z</time>
      </trkpt>
      <trkpt lat="45.98309" lon="4.88794">
        <ele>277</ele>
        <time>2018-07-05T09:31:24Z</time>
      </trkpt>
      <trkpt lat="45.98313" lon="4.88805">
        <ele>277</ele>
        <time>2018-07-05T09:31:26Z</time>
      </trkpt>
      <trkpt lat="45.98315" lon="4.88811">
        <ele>277</ele>
        <time>2018-07-05T09:31:27Z</time>
      </trkpt>
      <trkpt lat="45.98317" lon="4.88823">
        <ele>277</ele>
        <time>2018-07-05T09:31:29Z</time>
      </trkpt>
      <trkpt lat="45.98319" lon="4.88829">
        <ele>277</ele>
        <time>2018-07-05T09:31:30Z</time>
      </trkpt>
      <trkpt lat="45.98321" lon="4.88835">
        <ele>278</ele>
        <time>2018-07-05T09:31:31Z</time>
      </trkpt>
      <trkpt lat="45.98323" lon="4.88841">
        <ele>278</ele>
        <time>2018-07-05T09:31:32Z</time>
      </trkpt>
      <trkpt lat="45.98324" lon="4.88848">
        <ele>278</ele>
        <time>2018-07-05T09:31:33Z</time>
      </trkpt>
      <trkpt lat="45.98326" lon="4.88854">
        <ele>278</ele>
        <time>2018-07-05T09:31:34Z</time>
      </trkpt>
      <trkpt lat="45.98327" lon="4.8886">
        <ele>278</ele>
        <time>2018-07-05T09:31:35Z</time>
      </trkpt>
      <trkpt lat="45.98329" lon="4.88867">
        <ele>278</ele>
        <time>2018-07-05T09:31:36Z</time>
      </trkpt>
      <trkpt lat="45.9833" lon="4.88876">
        <ele>278</ele>
        <time>2018-07-05T09:31:37Z</time>
      </trkpt>
      <trkpt lat="45.98332" lon="4.88882">
        <ele>278</ele>
        <time>2018-07-05T09:31:38Z</time>
      </trkpt>
      <trkpt lat="45.98333" lon="4.88889">
        <ele>278</ele>
        <time>2018-07-05T09:31:39Z</time>
      </trkpt>
      <trkpt lat="45.98335" lon="4.88896">
        <ele>280</ele>
        <time>2018-07-05T09:31:40Z</time>
      </trkpt>
      <trkpt lat="45.98338" lon="4.88907">
        <ele>280</ele>
        <time>2018-07-05T09:31:42Z</time>
      </trkpt>
      <trkpt lat="45.9834" lon="4.88914">
        <ele>279</ele>
        <time>2018-07-05T09:31:43Z</time>
      </trkpt>
      <trkpt lat="45.98342" lon="4.8892">
        <ele>280</ele>
        <time>2018-07-05T09:31:44Z</time>
      </trkpt>
      <trkpt lat="45.98343" lon="4.88926">
        <ele>281</ele>
        <time>2018-07-05T09:31:45Z</time>
      </trkpt>
      <trkpt lat="45.98345" lon="4.88934">
        <ele>281</ele>
        <time>2018-07-05T09:31:46Z</time>
      </trkpt>
      <trkpt lat="45.98347" lon="4.8894">
        <ele>281</ele>
        <time>2018-07-05T09:31:47Z</time>
      </trkpt>
      <trkpt lat="45.9835" lon="4.88945">
        <ele>282</ele>
        <time>2018-07-05T09:31:48Z</time>
      </trkpt>
      <trkpt lat="45.98353" lon="4.88952">
        <ele>282</ele>
        <time>2018-07-05T09:31:49Z</time>
      </trkpt>
      <trkpt lat="45.98354" lon="4.88958">
        <ele>282</ele>
        <time>2018-07-05T09:31:50Z</time>
      </trkpt>
      <trkpt lat="45.98356" lon="4.88965">
        <ele>282</ele>
        <time>2018-07-05T09:31:51Z</time>
      </trkpt>
      <trkpt lat="45.98358" lon="4.88976">
        <ele>282</ele>
        <time>2018-07-05T09:31:53Z</time>
      </trkpt>
      <trkpt lat="45.98359" lon="4.88983">
        <ele>282</ele>
        <time>2018-07-05T09:31:54Z</time>
      </trkpt>
      <trkpt lat="45.98362" lon="4.88994">
        <ele>282</ele>
        <time>2018-07-05T09:31:56Z</time>
      </trkpt>
      <trkpt lat="45.98364" lon="4.89001">
        <ele>283</ele>
        <time>2018-07-05T09:31:57Z</time>
      </trkpt>
      <trkpt lat="45.98367" lon="4.89013">
        <ele>283</ele>
        <time>2018-07-05T09:31:59Z</time>
      </trkpt>
      <trkpt lat="45.98368" lon="4.89019">
        <ele>284</ele>
        <time>2018-07-05T09:32:00Z</time>
      </trkpt>
      <trkpt lat="45.98371" lon="4.89031">
        <ele>284</ele>
        <time>2018-07-05T09:32:02Z</time>
      </trkpt>
      <trkpt lat="45.98372" lon="4.89036">
        <ele>284</ele>
        <time>2018-07-05T09:32:03Z</time>
      </trkpt>
      <trkpt lat="45.98374" lon="4.89047">
        <ele>284</ele>
        <time>2018-07-05T09:32:05Z</time>
      </trkpt>
      <trkpt lat="45.98375" lon="4.89053">
        <ele>284</ele>
        <time>2018-07-05T09:32:06Z</time>
      </trkpt>
      <trkpt lat="45.98378" lon="4.8906">
        <ele>284</ele>
        <time>2018-07-05T09:32:08Z</time>
      </trkpt>
      <trkpt lat="45.98379" lon="4.89067">
        <ele>284</ele>
        <time>2018-07-05T09:32:09Z</time>
      </trkpt>
      <trkpt lat="45.98383" lon="4.89076">
        <ele>285</ele>
        <time>2018-07-05T09:32:11Z</time>
      </trkpt>
      <trkpt lat="45.98385" lon="4.8908">
        <ele>285</ele>
        <time>2018-07-05T09:32:12Z</time>
      </trkpt>
      <trkpt lat="45.98388" lon="4.89089">
        <ele>285</ele>
        <time>2018-07-05T09:32:14Z</time>
      </trkpt>
      <trkpt lat="45.9839" lon="4.89094">
        <ele>285</ele>
        <time>2018-07-05T09:32:15Z</time>
      </trkpt>
      <trkpt lat="45.98395" lon="4.89102">
        <ele>285</ele>
        <time>2018-07-05T09:32:17Z</time>
      </trkpt>
      <trkpt lat="45.98397" lon="4.89106">
        <ele>285</ele>
        <time>2018-07-05T09:32:18Z</time>
      </trkpt>
      <trkpt lat="45.98402" lon="4.89115">
        <ele>285</ele>
        <time>2018-07-05T09:32:20Z</time>
      </trkpt>
      <trkpt lat="45.98404" lon="4.89119">
        <ele>285</ele>
        <time>2018-07-05T09:32:21Z</time>
      </trkpt>
      <trkpt lat="45.9841" lon="4.89127">
        <ele>285</ele>
        <time>2018-07-05T09:32:23Z</time>
      </trkpt>
      <trkpt lat="45.98413" lon="4.89131">
        <ele>285</ele>
        <time>2018-07-05T09:32:24Z</time>
      </trkpt>
      <trkpt lat="45.98416" lon="4.89136">
        <ele>285</ele>
        <time>2018-07-05T09:32:26Z</time>
      </trkpt>
      <trkpt lat="45.9842" lon="4.89144">
        <ele>288</ele>
        <time>2018-07-05T09:32:27Z</time>
      </trkpt>
      <trkpt lat="45.98425" lon="4.89153">
        <ele>288</ele>
        <time>2018-07-05T09:32:29Z</time>
      </trkpt>
      <trkpt lat="45.98427" lon="4.89158">
        <ele>288</ele>
        <time>2018-07-05T09:32:30Z</time>
      </trkpt>
      <trkpt lat="45.98431" lon="4.89166">
        <ele>288</ele>
        <time>2018-07-05T09:32:32Z</time>
      </trkpt>
      <trkpt lat="45.98433" lon="4.89171">
        <ele>288</ele>
        <time>2018-07-05T09:32:33Z</time>
      </trkpt>
      <trkpt lat="45.98438" lon="4.89179">
        <ele>288</ele>
        <time>2018-07-05T09:32:35Z</time>
      </trkpt>
      <trkpt lat="45.9844" lon="4.89183">
        <ele>288</ele>
        <time>2018-07-05T09:32:36Z</time>
      </trkpt>
      <trkpt lat="45.98445" lon="4.89191">
        <ele>288</ele>
        <time>2018-07-05T09:32:38Z</time>
      </trkpt>
      <trkpt lat="45.98447" lon="4.89195">
        <ele>289</ele>
        <time>2018-07-05T09:32:39Z</time>
      </trkpt>
      <trkpt lat="45.98451" lon="4.89204">
        <ele>289</ele>
        <time>2018-07-05T09:32:41Z</time>
      </trkpt>
      <trkpt lat="45.98453" lon="4.89208">
        <ele>289</ele>
        <time>2018-07-05T09:32:42Z</time>
      </trkpt>
      <trkpt lat="45.98457" lon="4.89216">
        <ele>289</ele>
        <time>2018-07-05T09:32:44Z</time>
      </trkpt>
      <trkpt lat="45.98459" lon="4.89221">
        <ele>289</ele>
        <time>2018-07-05T09:32:45Z</time>
      </trkpt>
      <trkpt lat="45.98462" lon="4.89227">
        <ele>289</ele>
        <time>2018-07-05T09:32:47Z</time>
      </trkpt>
      <trkpt lat="45.98464" lon="4.89233">
        <ele>289</ele>
        <time>2018-07-05T09:32:48Z</time>
      </trkpt>
      <trkpt lat="45.98468" lon="4.89243">
        <ele>289</ele>
        <time>2018-07-05T09:32:50Z</time>
      </trkpt>
      <trkpt lat="45.9847" lon="4.89248">
        <ele>289</ele>
        <time>2018-07-05T09:32:51Z</time>
      </trkpt>
      <trkpt lat="45.98475" lon="4.89257">
        <ele>291</ele>
        <time>2018-07-05T09:32:53Z</time>
      </trkpt>
      <trkpt lat="45.98476" lon="4.89259">
        <ele>291</ele>
        <time>2018-07-05T09:32:54Z</time>
      </trkpt>
      <trkpt lat="45.9848" lon="4.89265">
        <ele>291</ele>
        <time>2018-07-05T09:32:55Z</time>
      </trkpt>
      <trkpt lat="45.98483" lon="4.8927">
        <ele>292</ele>
        <time>2018-07-05T09:32:56Z</time>
      </trkpt>
      <trkpt lat="45.98489" lon="4.89278">
        <ele>292</ele>
        <time>2018-07-05T09:32:58Z</time>
      </trkpt>
      <trkpt lat="45.98492" lon="4.89282">
        <ele>292</ele>
        <time>2018-07-05T09:32:59Z</time>
      </trkpt>
      <trkpt lat="45.98497" lon="4.8929">
        <ele>293</ele>
        <time>2018-07-05T09:33:01Z</time>
      </trkpt>
      <trkpt lat="45.985" lon="4.89294">
        <ele>293</ele>
        <time>2018-07-05T09:33:02Z</time>
      </trkpt>
      <trkpt lat="45.98505" lon="4.89303">
        <ele>293</ele>
        <time>2018-07-05T09:33:04Z</time>
      </trkpt>
      <trkpt lat="45.98508" lon="4.89307">
        <ele>293</ele>
        <time>2018-07-05T09:33:05Z</time>
      </trkpt>
      <trkpt lat="45.98511" lon="4.89311">
        <ele>293</ele>
        <time>2018-07-05T09:33:06Z</time>
      </trkpt>
      <trkpt lat="45.98516" lon="4.89316">
        <ele>293</ele>
        <time>2018-07-05T09:33:07Z</time>
      </trkpt>
      <trkpt lat="45.98518" lon="4.89321">
        <ele>294</ele>
        <time>2018-07-05T09:33:08Z</time>
      </trkpt>
      <trkpt lat="45.98522" lon="4.89325">
        <ele>294</ele>
        <time>2018-07-05T09:33:09Z</time>
      </trkpt>
      <trkpt lat="45.98526" lon="4.89331">
        <ele>293</ele>
        <time>2018-07-05T09:33:10Z</time>
      </trkpt>
      <trkpt lat="45.9853" lon="4.89334">
        <ele>295</ele>
        <time>2018-07-05T09:33:11Z</time>
      </trkpt>
      <trkpt lat="45.98533" lon="4.89339">
        <ele>295</ele>
        <time>2018-07-05T09:33:12Z</time>
      </trkpt>
      <trkpt lat="45.98537" lon="4.89343">
        <ele>295</ele>
        <time>2018-07-05T09:33:13Z</time>
      </trkpt>
      <trkpt lat="45.98539" lon="4.89345">
        <ele>295</ele>
        <time>2018-07-05T09:33:14Z</time>
      </trkpt>
      <trkpt lat="45.98544" lon="4.89352">
        <ele>295</ele>
        <time>2018-07-05T09:33:15Z</time>
      </trkpt>
      <trkpt lat="45.98548" lon="4.89356">
        <ele>295</ele>
        <time>2018-07-05T09:33:16Z</time>
      </trkpt>
      <trkpt lat="45.98553" lon="4.89361">
        <ele>295</ele>
        <time>2018-07-05T09:33:17Z</time>
      </trkpt>
      <trkpt lat="45.98558" lon="4.89367">
        <ele>295</ele>
        <time>2018-07-05T09:33:18Z</time>
      </trkpt>
      <trkpt lat="45.98562" lon="4.89371">
        <ele>295</ele>
        <time>2018-07-05T09:33:19Z</time>
      </trkpt>
      <trkpt lat="45.98566" lon="4.89376">
        <ele>295</ele>
        <time>2018-07-05T09:33:20Z</time>
      </trkpt>
      <trkpt lat="45.9857" lon="4.89382">
        <ele>295</ele>
        <time>2018-07-05T09:33:21Z</time>
      </trkpt>
      <trkpt lat="45.98574" lon="4.89387">
        <ele>295</ele>
        <time>2018-07-05T09:33:22Z</time>
      </trkpt>
      <trkpt lat="45.98581" lon="4.8939">
        <ele>295</ele>
        <time>2018-07-05T09:33:23Z</time>
      </trkpt>
      <trkpt lat="45.98586" lon="4.89396">
        <ele>292</ele>
        <time>2018-07-05T09:33:24Z</time>
      </trkpt>
      <trkpt lat="45.9859" lon="4.89401">
        <ele>292</ele>
        <time>2018-07-05T09:33:25Z</time>
      </trkpt>
      <trkpt lat="45.98595" lon="4.89408">
        <ele>292</ele>
        <time>2018-07-05T09:33:27Z</time>
      </trkpt>
      <trkpt lat="45.98604" lon="4.89413">
        <ele>292</ele>
        <time>2018-07-05T09:33:28Z</time>
      </trkpt>
      <trkpt lat="45.98607" lon="4.89419">
        <ele>292</ele>
        <time>2018-07-05T09:33:29Z</time>
      </trkpt>
      <trkpt lat="45.98609" lon="4.89424">
        <ele>292</ele>
        <time>2018-07-05T09:33:30Z</time>
      </trkpt>
      <trkpt lat="45.98614" lon="4.8943">
        <ele>292</ele>
        <time>2018-07-05T09:33:31Z</time>
      </trkpt>
      <trkpt lat="45.98618" lon="4.89435">
        <ele>291</ele>
        <time>2018-07-05T09:33:32Z</time>
      </trkpt>
      <trkpt lat="45.98623" lon="4.89439">
        <ele>291</ele>
        <time>2018-07-05T09:33:33Z</time>
      </trkpt>
      <trkpt lat="45.98626" lon="4.89442">
        <ele>291</ele>
        <time>2018-07-05T09:33:34Z</time>
      </trkpt>
      <trkpt lat="45.9863" lon="4.89446">
        <ele>291</ele>
        <time>2018-07-05T09:33:35Z</time>
      </trkpt>
      <trkpt lat="45.98635" lon="4.89451">
        <ele>291</ele>
        <time>2018-07-05T09:33:36Z</time>
      </trkpt>
      <trkpt lat="45.98639" lon="4.89455">
        <ele>291</ele>
        <time>2018-07-05T09:33:37Z</time>
      </trkpt>
      <trkpt lat="45.98644" lon="4.89459">
        <ele>291</ele>
        <time>2018-07-05T09:33:38Z</time>
      </trkpt>
      <trkpt lat="45.98648" lon="4.89464">
        <ele>291</ele>
        <time>2018-07-05T09:33:39Z</time>
      </trkpt>
      <trkpt lat="45.98652" lon="4.89469">
        <ele>290</ele>
        <time>2018-07-05T09:33:40Z</time>
      </trkpt>
      <trkpt lat="45.98657" lon="4.89474">
        <ele>290</ele>
        <time>2018-07-05T09:33:41Z</time>
      </trkpt>
      <trkpt lat="45.98661" lon="4.89478">
        <ele>290</ele>
        <time>2018-07-05T09:33:42Z</time>
      </trkpt>
      <trkpt lat="45.98665" lon="4.89483">
        <ele>290</ele>
        <time>2018-07-05T09:33:43Z</time>
      </trkpt>
      <trkpt lat="45.98669" lon="4.89489">
        <ele>289</ele>
        <time>2018-07-05T09:33:44Z</time>
      </trkpt>
      <trkpt lat="45.98675" lon="4.89493">
        <ele>289</ele>
        <time>2018-07-05T09:33:45Z</time>
      </trkpt>
      <trkpt lat="45.98678" lon="4.89499">
        <ele>289</ele>
        <time>2018-07-05T09:33:46Z</time>
      </trkpt>
      <trkpt lat="45.98684" lon="4.89507">
        <ele>289</ele>
        <time>2018-07-05T09:33:48Z</time>
      </trkpt>
      <trkpt lat="45.98687" lon="4.89511">
        <ele>289</ele>
        <time>2018-07-05T09:33:49Z</time>
      </trkpt>
      <trkpt lat="45.9869" lon="4.89516">
        <ele>289</ele>
        <time>2018-07-05T09:33:50Z</time>
      </trkpt>
      <trkpt lat="45.98694" lon="4.89521">
        <ele>289</ele>
        <time>2018-07-05T09:33:51Z</time>
      </trkpt>
      <trkpt lat="45.987" lon="4.8953">
        <ele>289</ele>
        <time>2018-07-05T09:33:53Z</time>
      </trkpt>
      <trkpt lat="45.98704" lon="4.89535">
        <ele>289</ele>
        <time>2018-07-05T09:33:54Z</time>
      </trkpt>
      <trkpt lat="45.98705" lon="4.89543">
        <ele>289</ele>
        <time>2018-07-05T09:33:55Z</time>
      </trkpt>
      <trkpt lat="45.98709" lon="4.8955">
        <ele>290</ele>
        <time>2018-07-05T09:33:56Z</time>
      </trkpt>
      <trkpt lat="45.98713" lon="4.89556">
        <ele>290</ele>
        <time>2018-07-05T09:33:57Z</time>
      </trkpt>
      <trkpt lat="45.98719" lon="4.8956">
        <ele>290</ele>
        <time>2018-07-05T09:33:58Z</time>
      </trkpt>
      <trkpt lat="45.98722" lon="4.89565">
        <ele>290</ele>
        <time>2018-07-05T09:33:59Z</time>
      </trkpt>
      <trkpt lat="45.98726" lon="4.8957">
        <ele>290</ele>
        <time>2018-07-05T09:34:00Z</time>
      </trkpt>
      <trkpt lat="45.9873" lon="4.89574">
        <ele>290</ele>
        <time>2018-07-05T09:34:01Z</time>
      </trkpt>
      <trkpt lat="45.98733" lon="4.8958">
        <ele>290</ele>
        <time>2018-07-05T09:34:02Z</time>
      </trkpt>
      <trkpt lat="45.98737" lon="4.89585">
        <ele>291</ele>
        <time>2018-07-05T09:34:03Z</time>
      </trkpt>
      <trkpt lat="45.9874" lon="4.89591">
        <ele>291</ele>
        <time>2018-07-05T09:34:04Z</time>
      </trkpt>
      <trkpt lat="45.98746" lon="4.89595">
        <ele>291</ele>
        <time>2018-07-05T09:34:05Z</time>
      </trkpt>
      <trkpt lat="45.98749" lon="4.896">
        <ele>290</ele>
        <time>2018-07-05T09:34:06Z</time>
      </trkpt>
      <trkpt lat="45.98754" lon="4.89605">
        <ele>291</ele>
        <time>2018-07-05T09:34:07Z</time>
      </trkpt>
      <trkpt lat="45.98758" lon="4.8961">
        <ele>291</ele>
        <time>2018-07-05T09:34:08Z</time>
      </trkpt>
      <trkpt lat="45.98764" lon="4.89619">
        <ele>291</ele>
        <time>2018-07-05T09:34:10Z</time>
      </trkpt>
      <trkpt lat="45.98768" lon="4.89623">
        <ele>291</ele>
        <time>2018-07-05T09:34:11Z</time>
      </trkpt>
      <trkpt lat="45.98772" lon="4.89628">
        <ele>291</ele>
        <time>2018-07-05T09:34:12Z</time>
      </trkpt>
      <trkpt lat="45.98775" lon="4.89634">
        <ele>291</ele>
        <time>2018-07-05T09:34:13Z</time>
      </trkpt>
      <trkpt lat="45.98778" lon="4.8964">
        <ele>291</ele>
        <time>2018-07-05T09:34:14Z</time>
      </trkpt>
      <trkpt lat="45.98781" lon="4.89645">
        <ele>291</ele>
        <time>2018-07-05T09:34:15Z</time>
      </trkpt>
      <trkpt lat="45.98785" lon="4.8965">
        <ele>291</ele>
        <time>2018-07-05T09:34:16Z</time>
      </trkpt>
      <trkpt lat="45.98788" lon="4.89655">
        <ele>291</ele>
        <time>2018-07-05T09:34:17Z</time>
      </trkpt>
      <trkpt lat="45.98794" lon="4.89663">
        <ele>291</ele>
        <time>2018-07-05T09:34:19Z</time>
      </trkpt>
      <trkpt lat="45.98798" lon="4.89667">
        <ele>291</ele>
        <time>2018-07-05T09:34:20Z</time>
      </trkpt>
      <trkpt lat="45.98802" lon="4.89671">
        <ele>291</ele>
        <time>2018-07-05T09:34:21Z</time>
      </trkpt>
      <trkpt lat="45.98805" lon="4.89675">
        <ele>292</ele>
        <time>2018-07-05T09:34:22Z</time>
      </trkpt>
      <trkpt lat="45.98809" lon="4.89679">
        <ele>292</ele>
        <time>2018-07-05T09:34:23Z</time>
      </trkpt>
      <trkpt lat="45.98813" lon="4.89682">
        <ele>292</ele>
        <time>2018-07-05T09:34:24Z</time>
      </trkpt>
      <trkpt lat="45.98816" lon="4.89687">
        <ele>292</ele>
        <time>2018-07-05T09:34:25Z</time>
      </trkpt>
      <trkpt lat="45.9882" lon="4.89691">
        <ele>292</ele>
        <time>2018-07-05T09:34:26Z</time>
      </trkpt>
      <trkpt lat="45.98824" lon="4.89695">
        <ele>292</ele>
        <time>2018-07-05T09:34:27Z</time>
      </trkpt>
      <trkpt lat="45.98828" lon="4.89699">
        <ele>292</ele>
        <time>2018-07-05T09:34:28Z</time>
      </trkpt>
      <trkpt lat="45.98835" lon="4.89705">
        <ele>292</ele>
        <time>2018-07-05T09:34:30Z</time>
      </trkpt>
      <trkpt lat="45.98839" lon="4.89709">
        <ele>293</ele>
        <time>2018-07-05T09:34:31Z</time>
      </trkpt>
      <trkpt lat="45.98843" lon="4.89713">
        <ele>293</ele>
        <time>2018-07-05T09:34:32Z</time>
      </trkpt>
      <trkpt lat="45.98847" lon="4.89717">
        <ele>293</ele>
        <time>2018-07-05T09:34:33Z</time>
      </trkpt>
      <trkpt lat="45.98851" lon="4.89721">
        <ele>293</ele>
        <time>2018-07-05T09:34:34Z</time>
      </trkpt>
      <trkpt lat="45.98857" lon="4.89724">
        <ele>293</ele>
        <time>2018-07-05T09:34:35Z</time>
      </trkpt>
      <trkpt lat="45.98862" lon="4.89728">
        <ele>293</ele>
        <time>2018-07-05T09:34:36Z</time>
      </trkpt>
      <trkpt lat="45.98867" lon="4.89731">
        <ele>293</ele>
        <time>2018-07-05T09:34:37Z</time>
      </trkpt>
      <trkpt lat="45.98872" lon="4.89733">
        <ele>293</ele>
        <time>2018-07-05T09:34:38Z</time>
      </trkpt>
      <trkpt lat="45.98876" lon="4.89736">
        <ele>293</ele>
        <time>2018-07-05T09:34:39Z</time>
      </trkpt>
      <trkpt lat="45.9888" lon="4.89737">
        <ele>293</ele>
        <time>2018-07-05T09:34:40Z</time>
      </trkpt>
      <trkpt lat="45.98885" lon="4.89742">
        <ele>293</ele>
        <time>2018-07-05T09:34:41Z</time>
      </trkpt>
      <trkpt lat="45.98891" lon="4.89748">
        <ele>293</ele>
        <time>2018-07-05T09:34:43Z</time>
      </trkpt>
      <trkpt lat="45.98895" lon="4.89751">
        <ele>293</ele>
        <time>2018-07-05T09:34:44Z</time>
      </trkpt>
      <trkpt lat="45.98903" lon="4.89757">
        <ele>293</ele>
        <time>2018-07-05T09:34:46Z</time>
      </trkpt>
      <trkpt lat="45.98906" lon="4.8976">
        <ele>293</ele>
        <time>2018-07-05T09:34:47Z</time>
      </trkpt>
      <trkpt lat="45.98914" lon="4.89766">
        <ele>293</ele>
        <time>2018-07-05T09:34:49Z</time>
      </trkpt>
      <trkpt lat="45.98918" lon="4.89769">
        <ele>293</ele>
        <time>2018-07-05T09:34:50Z</time>
      </trkpt>
      <trkpt lat="45.98924" lon="4.89773">
        <ele>293</ele>
        <time>2018-07-05T09:34:51Z</time>
      </trkpt>
      <trkpt lat="45.98927" lon="4.89776">
        <ele>293</ele>
        <time>2018-07-05T09:34:52Z</time>
      </trkpt>
      <trkpt lat="45.98932" lon="4.89779">
        <ele>293</ele>
        <time>2018-07-05T09:34:53Z</time>
      </trkpt>
      <trkpt lat="45.98936" lon="4.89783">
        <ele>293</ele>
        <time>2018-07-05T09:34:54Z</time>
      </trkpt>
      <trkpt lat="45.98943" lon="4.89789">
        <ele>293</ele>
        <time>2018-07-05T09:34:56Z</time>
      </trkpt>
      <trkpt lat="45.98948" lon="4.89793">
        <ele>293</ele>
        <time>2018-07-05T09:34:57Z</time>
      </trkpt>
      <trkpt lat="45.98952" lon="4.89797">
        <ele>293</ele>
        <time>2018-07-05T09:34:58Z</time>
      </trkpt>
      <trkpt lat="45.98959" lon="4.89799">
        <ele>293</ele>
        <time>2018-07-05T09:34:59Z</time>
      </trkpt>
      <trkpt lat="45.98963" lon="4.89803">
        <ele>293</ele>
        <time>2018-07-05T09:35:00Z</time>
      </trkpt>
      <trkpt lat="45.98967" lon="4.89806">
        <ele>293</ele>
        <time>2018-07-05T09:35:01Z</time>
      </trkpt>
      <trkpt lat="45.98972" lon="4.89816">
        <ele>293</ele>
        <time>2018-07-05T09:35:03Z</time>
      </trkpt>
      <trkpt lat="45.98976" lon="4.89821">
        <ele>293</ele>
        <time>2018-07-05T09:35:04Z</time>
      </trkpt>
      <trkpt lat="45.9898" lon="4.89826">
        <ele>293</ele>
        <time>2018-07-05T09:35:05Z</time>
      </trkpt>
      <trkpt lat="45.98984" lon="4.89832">
        <ele>293</ele>
        <time>2018-07-05T09:35:06Z</time>
      </trkpt>
      <trkpt lat="45.98987" lon="4.8984">
        <ele>293</ele>
        <time>2018-07-05T09:35:08Z</time>
      </trkpt>
      <trkpt lat="45.98991" lon="4.89846">
        <ele>293</ele>
        <time>2018-07-05T09:35:09Z</time>
      </trkpt>
      <trkpt lat="45.98998" lon="4.89849">
        <ele>293</ele>
        <time>2018-07-05T09:35:10Z</time>
      </trkpt>
      <trkpt lat="45.99" lon="4.89854">
        <ele>293</ele>
        <time>2018-07-05T09:35:11Z</time>
      </trkpt>
      <trkpt lat="45.99004" lon="4.89859">
        <ele>293</ele>
        <time>2018-07-05T09:35:12Z</time>
      </trkpt>
      <trkpt lat="45.99011" lon="4.89862">
        <ele>293</ele>
        <time>2018-07-05T09:35:13Z</time>
      </trkpt>
      <trkpt lat="45.99016" lon="4.89867">
        <ele>293</ele>
        <time>2018-07-05T09:35:14Z</time>
      </trkpt>
      <trkpt lat="45.9902" lon="4.89872">
        <ele>293</ele>
        <time>2018-07-05T09:35:15Z</time>
      </trkpt>
      <trkpt lat="45.99026" lon="4.89879">
        <ele>293</ele>
        <time>2018-07-05T09:35:17Z</time>
      </trkpt>
      <trkpt lat="45.99029" lon="4.89885">
        <ele>293</ele>
        <time>2018-07-05T09:35:18Z</time>
      </trkpt>
      <trkpt lat="45.99031" lon="4.8989">
        <ele>293</ele>
        <time>2018-07-05T09:35:19Z</time>
      </trkpt>
      <trkpt lat="45.99035" lon="4.89896">
        <ele>293</ele>
        <time>2018-07-05T09:35:20Z</time>
      </trkpt>
      <trkpt lat="45.99038" lon="4.89901">
        <ele>293</ele>
        <time>2018-07-05T09:35:21Z</time>
      </trkpt>
      <trkpt lat="45.99042" lon="4.89907">
        <ele>293</ele>
        <time>2018-07-05T09:35:22Z</time>
      </trkpt>
      <trkpt lat="45.99045" lon="4.89911">
        <ele>293</ele>
        <time>2018-07-05T09:35:23Z</time>
      </trkpt>
      <trkpt lat="45.99048" lon="4.89917">
        <ele>294</ele>
        <time>2018-07-05T09:35:24Z</time>
      </trkpt>
      <trkpt lat="45.99051" lon="4.89922">
        <ele>294</ele>
        <time>2018-07-05T09:35:25Z</time>
      </trkpt>
      <trkpt lat="45.99054" lon="4.89928">
        <ele>294</ele>
        <time>2018-07-05T09:35:26Z</time>
      </trkpt>
      <trkpt lat="45.99057" lon="4.89932">
        <ele>294</ele>
        <time>2018-07-05T09:35:27Z</time>
      </trkpt>
      <trkpt lat="45.99061" lon="4.89937">
        <ele>294</ele>
        <time>2018-07-05T09:35:28Z</time>
      </trkpt>
      <trkpt lat="45.99067" lon="4.89945">
        <ele>294</ele>
        <time>2018-07-05T09:35:30Z</time>
      </trkpt>
      <trkpt lat="45.99071" lon="4.8995">
        <ele>294</ele>
        <time>2018-07-05T09:35:31Z</time>
      </trkpt>
      <trkpt lat="45.99075" lon="4.89955">
        <ele>294</ele>
        <time>2018-07-05T09:35:32Z</time>
      </trkpt>
      <trkpt lat="45.99078" lon="4.89962">
        <ele>294</ele>
        <time>2018-07-05T09:35:33Z</time>
      </trkpt>
      <trkpt lat="45.99082" lon="4.89968">
        <ele>294</ele>
        <time>2018-07-05T09:35:34Z</time>
      </trkpt>
      <trkpt lat="45.99085" lon="4.89972">
        <ele>295</ele>
        <time>2018-07-05T09:35:35Z</time>
      </trkpt>
      <trkpt lat="45.99088" lon="4.89977">
        <ele>295</ele>
        <time>2018-07-05T09:35:36Z</time>
      </trkpt>
      <trkpt lat="45.99092" lon="4.89981">
        <ele>295</ele>
        <time>2018-07-05T09:35:37Z</time>
      </trkpt>
      <trkpt lat="45.99095" lon="4.89987">
        <ele>295</ele>
        <time>2018-07-05T09:35:38Z</time>
      </trkpt>
      <trkpt lat="45.991" lon="4.89992">
        <ele>295</ele>
        <time>2018-07-05T09:35:39Z</time>
      </trkpt>
      <trkpt lat="45.99104" lon="4.89997">
        <ele>295</ele>
        <time>2018-07-05T09:35:40Z</time>
      </trkpt>
      <trkpt lat="45.99107" lon="4.90002">
        <ele>296</ele>
        <time>2018-07-05T09:35:41Z</time>
      </trkpt>
      <trkpt lat="45.99113" lon="4.90008">
        <ele>296</ele>
        <time>2018-07-05T09:35:43Z</time>
      </trkpt>
      <trkpt lat="45.99117" lon="4.90012">
        <ele>296</ele>
        <time>2018-07-05T09:35:44Z</time>
      </trkpt>
      <trkpt lat="45.99121" lon="4.90015">
        <ele>296</ele>
        <time>2018-07-05T09:35:45Z</time>
      </trkpt>
      <trkpt lat="45.99125" lon="4.90017">
        <ele>296</ele>
        <time>2018-07-05T09:35:46Z</time>
      </trkpt>
      <trkpt lat="45.99129" lon="4.90022">
        <ele>296</ele>
        <time>2018-07-05T09:35:47Z</time>
      </trkpt>
      <trkpt lat="45.99134" lon="4.90025">
        <ele>297</ele>
        <time>2018-07-05T09:35:48Z</time>
      </trkpt>
      <trkpt lat="45.99137" lon="4.9003">
        <ele>297</ele>
        <time>2018-07-05T09:35:49Z</time>
      </trkpt>
      <trkpt lat="45.99141" lon="4.90035">
        <ele>297</ele>
        <time>2018-07-05T09:35:50Z</time>
      </trkpt>
      <trkpt lat="45.99146" lon="4.90039">
        <ele>297</ele>
        <time>2018-07-05T09:35:51Z</time>
      </trkpt>
      <trkpt lat="45.99149" lon="4.90044">
        <ele>297</ele>
        <time>2018-07-05T09:35:52Z</time>
      </trkpt>
      <trkpt lat="45.99153" lon="4.90049">
        <ele>297</ele>
        <time>2018-07-05T09:35:53Z</time>
      </trkpt>
      <trkpt lat="45.99156" lon="4.90054">
        <ele>297</ele>
        <time>2018-07-05T09:35:54Z</time>
      </trkpt>
      <trkpt lat="45.99159" lon="4.9006">
        <ele>297</ele>
        <time>2018-07-05T09:35:55Z</time>
      </trkpt>
      <trkpt lat="45.99164" lon="4.90065">
        <ele>297</ele>
        <time>2018-07-05T09:35:56Z</time>
      </trkpt>
      <trkpt lat="45.99168" lon="4.90071">
        <ele>297</ele>
        <time>2018-07-05T09:35:57Z</time>
      </trkpt>
      <trkpt lat="45.99172" lon="4.90078">
        <ele>298</ele>
        <time>2018-07-05T09:35:58Z</time>
      </trkpt>
      <trkpt lat="45.99176" lon="4.90084">
        <ele>298</ele>
        <time>2018-07-05T09:35:59Z</time>
      </trkpt>
      <trkpt lat="45.99179" lon="4.9009">
        <ele>297</ele>
        <time>2018-07-05T09:36:00Z</time>
      </trkpt>
      <trkpt lat="45.99183" lon="4.90096">
        <ele>297</ele>
        <time>2018-07-05T09:36:01Z</time>
      </trkpt>
      <trkpt lat="45.99185" lon="4.901">
        <ele>297</ele>
        <time>2018-07-05T09:36:02Z</time>
      </trkpt>
      <trkpt lat="45.99188" lon="4.90105">
        <ele>297</ele>
        <time>2018-07-05T09:36:03Z</time>
      </trkpt>
      <trkpt lat="45.99193" lon="4.90108">
        <ele>297</ele>
        <time>2018-07-05T09:36:04Z</time>
      </trkpt>
      <trkpt lat="45.99197" lon="4.90114">
        <ele>297</ele>
        <time>2018-07-05T09:36:05Z</time>
      </trkpt>
      <trkpt lat="45.99201" lon="4.9012">
        <ele>297</ele>
        <time>2018-07-05T09:36:06Z</time>
      </trkpt>
      <trkpt lat="45.99206" lon="4.90125">
        <ele>297</ele>
        <time>2018-07-05T09:36:07Z</time>
      </trkpt>
      <trkpt lat="45.9921" lon="4.9013">
        <ele>297</ele>
        <time>2018-07-05T09:36:08Z</time>
      </trkpt>
      <trkpt lat="45.99211" lon="4.90137">
        <ele>297</ele>
        <time>2018-07-05T09:36:09Z</time>
      </trkpt>
      <trkpt lat="45.99218" lon="4.9014">
        <ele>297</ele>
        <time>2018-07-05T09:36:10Z</time>
      </trkpt>
      <trkpt lat="45.99221" lon="4.90146">
        <ele>297</ele>
        <time>2018-07-05T09:36:11Z</time>
      </trkpt>
      <trkpt lat="45.99225" lon="4.90152">
        <ele>297</ele>
        <time>2018-07-05T09:36:12Z</time>
      </trkpt>
      <trkpt lat="45.99228" lon="4.90158">
        <ele>297</ele>
        <time>2018-07-05T09:36:13Z</time>
      </trkpt>
      <trkpt lat="45.99231" lon="4.90163">
        <ele>297</ele>
        <time>2018-07-05T09:36:14Z</time>
      </trkpt>
      <trkpt lat="45.99235" lon="4.90169">
        <ele>297</ele>
        <time>2018-07-05T09:36:15Z</time>
      </trkpt>
      <trkpt lat="45.99237" lon="4.90175">
        <ele>297</ele>
        <time>2018-07-05T09:36:16Z</time>
      </trkpt>
      <trkpt lat="45.99243" lon="4.90184">
        <ele>297</ele>
        <time>2018-07-05T09:36:18Z</time>
      </trkpt>
      <trkpt lat="45.99247" lon="4.90189">
        <ele>297</ele>
        <time>2018-07-05T09:36:19Z</time>
      </trkpt>
      <trkpt lat="45.9925" lon="4.90193">
        <ele>298</ele>
        <time>2018-07-05T09:36:20Z</time>
      </trkpt>
      <trkpt lat="45.99255" lon="4.90198">
        <ele>298</ele>
        <time>2018-07-05T09:36:21Z</time>
      </trkpt>
      <trkpt lat="45.99261" lon="4.90201">
        <ele>298</ele>
        <time>2018-07-05T09:36:22Z</time>
      </trkpt>
      <trkpt lat="45.99264" lon="4.90206">
        <ele>298</ele>
        <time>2018-07-05T09:36:23Z</time>
      </trkpt>
      <trkpt lat="45.99266" lon="4.90211">
        <ele>298</ele>
        <time>2018-07-05T09:36:24Z</time>
      </trkpt>
      <trkpt lat="45.9927" lon="4.90217">
        <ele>298</ele>
        <time>2018-07-05T09:36:25Z</time>
      </trkpt>
      <trkpt lat="45.99274" lon="4.90222">
        <ele>298</ele>
        <time>2018-07-05T09:36:26Z</time>
      </trkpt>
      <trkpt lat="45.99278" lon="4.90227">
        <ele>298</ele>
        <time>2018-07-05T09:36:27Z</time>
      </trkpt>
      <trkpt lat="45.99282" lon="4.90232">
        <ele>298</ele>
        <time>2018-07-05T09:36:28Z</time>
      </trkpt>
      <trkpt lat="45.99286" lon="4.90236">
        <ele>298</ele>
        <time>2018-07-05T09:36:29Z</time>
      </trkpt>
      <trkpt lat="45.99289" lon="4.9024">
        <ele>298</ele>
        <time>2018-07-05T09:36:30Z</time>
      </trkpt>
      <trkpt lat="45.99293" lon="4.90245">
        <ele>298</ele>
        <time>2018-07-05T09:36:31Z</time>
      </trkpt>
      <trkpt lat="45.99297" lon="4.9025">
        <ele>298</ele>
        <time>2018-07-05T09:36:32Z</time>
      </trkpt>
      <trkpt lat="45.993" lon="4.90254">
        <ele>299</ele>
        <time>2018-07-05T09:36:33Z</time>
      </trkpt>
      <trkpt lat="45.99305" lon="4.90258">
        <ele>299</ele>
        <time>2018-07-05T09:36:34Z</time>
      </trkpt>
      <trkpt lat="45.99308" lon="4.90265">
        <ele>299</ele>
        <time>2018-07-05T09:36:35Z</time>
      </trkpt>
      <trkpt lat="45.99312" lon="4.90277">
        <ele>299</ele>
        <time>2018-07-05T09:36:39Z</time>
      </trkpt>
      <trkpt lat="45.99312" lon="4.9028">
        <ele>299</ele>
        <time>2018-07-05T09:36:40Z</time>
      </trkpt>
      <trkpt lat="45.99316" lon="4.90286">
        <ele>299</ele>
        <time>2018-07-05T09:36:42Z</time>
      </trkpt>
      <trkpt lat="45.99325" lon="4.90293">
        <ele>299</ele>
        <time>2018-07-05T09:36:43Z</time>
      </trkpt>
      <trkpt lat="45.9933" lon="4.90294">
        <ele>299</ele>
        <time>2018-07-05T09:36:44Z</time>
      </trkpt>
      <trkpt lat="45.99335" lon="4.90296">
        <ele>300</ele>
        <time>2018-07-05T09:36:45Z</time>
      </trkpt>
      <trkpt lat="45.99342" lon="4.90297">
        <ele>300</ele>
        <time>2018-07-05T09:36:47Z</time>
      </trkpt>
      <trkpt lat="45.99346" lon="4.90296">
        <ele>300</ele>
        <time>2018-07-05T09:36:48Z</time>
      </trkpt>
      <trkpt lat="45.99355" lon="4.90297">
        <ele>300</ele>
        <time>2018-07-05T09:36:50Z</time>
      </trkpt>
      <trkpt lat="45.9936" lon="4.90297">
        <ele>300</ele>
        <time>2018-07-05T09:36:51Z</time>
      </trkpt>
      <trkpt lat="45.99365" lon="4.90297">
        <ele>300</ele>
        <time>2018-07-05T09:36:52Z</time>
      </trkpt>
      <trkpt lat="45.9937" lon="4.90299">
        <ele>300</ele>
        <time>2018-07-05T09:36:53Z</time>
      </trkpt>
      <trkpt lat="45.99376" lon="4.90299">
        <ele>300</ele>
        <time>2018-07-05T09:36:54Z</time>
      </trkpt>
      <trkpt lat="45.99383" lon="4.903">
        <ele>300</ele>
        <time>2018-07-05T09:36:55Z</time>
      </trkpt>
      <trkpt lat="45.99388" lon="4.90301">
        <ele>300</ele>
        <time>2018-07-05T09:36:56Z</time>
      </trkpt>
      <trkpt lat="45.99392" lon="4.90302">
        <ele>300</ele>
        <time>2018-07-05T09:36:57Z</time>
      </trkpt>
      <trkpt lat="45.99396" lon="4.90304">
        <ele>300</ele>
        <time>2018-07-05T09:36:58Z</time>
      </trkpt>
      <trkpt lat="45.99401" lon="4.90305">
        <ele>300</ele>
        <time>2018-07-05T09:36:59Z</time>
      </trkpt>
      <trkpt lat="45.99405" lon="4.90306">
        <ele>300</ele>
        <time>2018-07-05T09:37:00Z</time>
      </trkpt>
      <trkpt lat="45.9941" lon="4.90307">
        <ele>300</ele>
        <time>2018-07-05T09:37:01Z</time>
      </trkpt>
      <trkpt lat="45.99416" lon="4.90304">
        <ele>300</ele>
        <time>2018-07-05T09:37:02Z</time>
      </trkpt>
      <trkpt lat="45.9942" lon="4.90305">
        <ele>300</ele>
        <time>2018-07-05T09:37:03Z</time>
      </trkpt>
      <trkpt lat="45.99429" lon="4.90305">
        <ele>300</ele>
        <time>2018-07-05T09:37:05Z</time>
      </trkpt>
      <trkpt lat="45.99432" lon="4.90306">
        <ele>300</ele>
        <time>2018-07-05T09:37:06Z</time>
      </trkpt>
      <trkpt lat="45.99437" lon="4.90308">
        <ele>300</ele>
        <time>2018-07-05T09:37:07Z</time>
      </trkpt>
      <trkpt lat="45.99443" lon="4.90309">
        <ele>300</ele>
        <time>2018-07-05T09:37:08Z</time>
      </trkpt>
      <trkpt lat="45.99449" lon="4.9031">
        <ele>300</ele>
        <time>2018-07-05T09:37:09Z</time>
      </trkpt>
      <trkpt lat="45.99453" lon="4.9031">
        <ele>300</ele>
        <time>2018-07-05T09:37:10Z</time>
      </trkpt>
      <trkpt lat="45.99462" lon="4.90312">
        <ele>300</ele>
        <time>2018-07-05T09:37:12Z</time>
      </trkpt>
      <trkpt lat="45.99468" lon="4.90311">
        <ele>300</ele>
        <time>2018-07-05T09:37:13Z</time>
      </trkpt>
      <trkpt lat="45.99476" lon="4.90314">
        <ele>300</ele>
        <time>2018-07-05T09:37:15Z</time>
      </trkpt>
      <trkpt lat="45.9948" lon="4.90316">
        <ele>300</ele>
        <time>2018-07-05T09:37:16Z</time>
      </trkpt>
      <trkpt lat="45.99485" lon="4.90316">
        <ele>300</ele>
        <time>2018-07-05T09:37:17Z</time>
      </trkpt>
      <trkpt lat="45.9949" lon="4.90318">
        <ele>300</ele>
        <time>2018-07-05T09:37:18Z</time>
      </trkpt>
      <trkpt lat="45.99495" lon="4.90318">
        <ele>300</ele>
        <time>2018-07-05T09:37:19Z</time>
      </trkpt>
      <trkpt lat="45.995" lon="4.90319">
        <ele>300</ele>
        <time>2018-07-05T09:37:20Z</time>
      </trkpt>
      <trkpt lat="45.99504" lon="4.9032">
        <ele>301</ele>
        <time>2018-07-05T09:37:21Z</time>
      </trkpt>
      <trkpt lat="45.99509" lon="4.9032">
        <ele>301</ele>
        <time>2018-07-05T09:37:22Z</time>
      </trkpt>
      <trkpt lat="45.99516" lon="4.90319">
        <ele>301</ele>
        <time>2018-07-05T09:37:24Z</time>
      </trkpt>
      <trkpt lat="45.9952" lon="4.90319">
        <ele>301</ele>
        <time>2018-07-05T09:37:25Z</time>
      </trkpt>
      <trkpt lat="45.99528" lon="4.9032">
        <ele>300</ele>
        <time>2018-07-05T09:37:27Z</time>
      </trkpt>
      <trkpt lat="45.99533" lon="4.9032">
        <ele>300</ele>
        <time>2018-07-05T09:37:28Z</time>
      </trkpt>
      <trkpt lat="45.99541" lon="4.9032">
        <ele>300</ele>
        <time>2018-07-05T09:37:30Z</time>
      </trkpt>
      <trkpt lat="45.99544" lon="4.90323">
        <ele>300</ele>
        <time>2018-07-05T09:37:31Z</time>
      </trkpt>
      <trkpt lat="45.99551" lon="4.90325">
        <ele>301</ele>
        <time>2018-07-05T09:37:33Z</time>
      </trkpt>
      <trkpt lat="45.99554" lon="4.90326">
        <ele>301</ele>
        <time>2018-07-05T09:37:34Z</time>
      </trkpt>
      <trkpt lat="45.99562" lon="4.90328">
        <ele>301</ele>
        <time>2018-07-05T09:37:37Z</time>
      </trkpt>
      <trkpt lat="45.99565" lon="4.90329">
        <ele>301</ele>
        <time>2018-07-05T09:37:38Z</time>
      </trkpt>
      <trkpt lat="45.99573" lon="4.9033">
        <ele>301</ele>
        <time>2018-07-05T09:37:39Z</time>
      </trkpt>
      <trkpt lat="45.99578" lon="4.90328">
        <ele>301</ele>
        <time>2018-07-05T09:37:40Z</time>
      </trkpt>
      <trkpt lat="45.99586" lon="4.90329">
        <ele>301</ele>
        <time>2018-07-05T09:37:42Z</time>
      </trkpt>
      <trkpt lat="45.9959" lon="4.90329">
        <ele>301</ele>
        <time>2018-07-05T09:37:43Z</time>
      </trkpt>
      <trkpt lat="45.99596" lon="4.90329">
        <ele>301</ele>
        <time>2018-07-05T09:37:44Z</time>
      </trkpt>
      <trkpt lat="45.99601" lon="4.90331">
        <ele>301</ele>
        <time>2018-07-05T09:37:45Z</time>
      </trkpt>
      <trkpt lat="45.99606" lon="4.90328">
        <ele>301</ele>
        <time>2018-07-05T09:37:46Z</time>
      </trkpt>
      <trkpt lat="45.9961" lon="4.90329">
        <ele>301</ele>
        <time>2018-07-05T09:37:47Z</time>
      </trkpt>
      <trkpt lat="45.99619" lon="4.90331">
        <ele>302</ele>
        <time>2018-07-05T09:37:49Z</time>
      </trkpt>
      <trkpt lat="45.99622" lon="4.90332">
        <ele>302</ele>
        <time>2018-07-05T09:37:50Z</time>
      </trkpt>
      <trkpt lat="45.99627" lon="4.90332">
        <ele>302</ele>
        <time>2018-07-05T09:37:51Z</time>
      </trkpt>
      <trkpt lat="45.99633" lon="4.90332">
        <ele>302</ele>
        <time>2018-07-05T09:37:52Z</time>
      </trkpt>
      <trkpt lat="45.99638" lon="4.90334">
        <ele>301</ele>
        <time>2018-07-05T09:37:53Z</time>
      </trkpt>
      <trkpt lat="45.99642" lon="4.90334">
        <ele>301</ele>
        <time>2018-07-05T09:37:54Z</time>
      </trkpt>
      <trkpt lat="45.9965" lon="4.90336">
        <ele>302</ele>
        <time>2018-07-05T09:37:57Z</time>
      </trkpt>
      <trkpt lat="45.99653" lon="4.90336">
        <ele>302</ele>
        <time>2018-07-05T09:37:58Z</time>
      </trkpt>
      <trkpt lat="45.99661" lon="4.90334">
        <ele>302</ele>
        <time>2018-07-05T09:38:01Z</time>
      </trkpt>
      <trkpt lat="45.9967" lon="4.90327">
        <ele>303</ele>
        <time>2018-07-05T09:38:02Z</time>
      </trkpt>
      <trkpt lat="45.99672" lon="4.90317">
        <ele>303</ele>
        <time>2018-07-05T09:38:05Z</time>
      </trkpt>
      <trkpt lat="45.99673" lon="4.90314">
        <ele>304</ele>
        <time>2018-07-05T09:38:06Z</time>
      </trkpt>
      <trkpt lat="45.99676" lon="4.90302">
        <ele>304</ele>
        <time>2018-07-05T09:38:08Z</time>
      </trkpt>
      <trkpt lat="45.99678" lon="4.90294">
        <ele>304</ele>
        <time>2018-07-05T09:38:09Z</time>
      </trkpt>
      <trkpt lat="45.9968" lon="4.90283">
        <ele>304</ele>
        <time>2018-07-05T09:38:11Z</time>
      </trkpt>
      <trkpt lat="45.99681" lon="4.9028">
        <ele>305</ele>
        <time>2018-07-05T09:38:12Z</time>
      </trkpt>
      <trkpt lat="45.99682" lon="4.90272">
        <ele>305</ele>
        <time>2018-07-05T09:38:13Z</time>
      </trkpt>
      <trkpt lat="45.99683" lon="4.90266">
        <ele>305</ele>
        <time>2018-07-05T09:38:14Z</time>
      </trkpt>
      <trkpt lat="45.99684" lon="4.90253">
        <ele>305</ele>
        <time>2018-07-05T09:38:16Z</time>
      </trkpt>
      <trkpt lat="45.9968" lon="4.90245">
        <ele>304</ele>
        <time>2018-07-05T09:38:17Z</time>
      </trkpt>
      <trkpt lat="45.99677" lon="4.90233">
        <ele>304</ele>
        <time>2018-07-05T09:38:19Z</time>
      </trkpt>
      <trkpt lat="45.99676" lon="4.90227">
        <ele>304</ele>
        <time>2018-07-05T09:38:20Z</time>
      </trkpt>
      <trkpt lat="45.99675" lon="4.90221">
        <ele>303</ele>
        <time>2018-07-05T09:38:21Z</time>
      </trkpt>
      <trkpt lat="45.99673" lon="4.90214">
        <ele>303</ele>
        <time>2018-07-05T09:38:22Z</time>
      </trkpt>
      <trkpt lat="45.99671" lon="4.90207">
        <ele>303</ele>
        <time>2018-07-05T09:38:23Z</time>
      </trkpt>
      <trkpt lat="45.99669" lon="4.90199">
        <ele>303</ele>
        <time>2018-07-05T09:38:24Z</time>
      </trkpt>
      <trkpt lat="45.99667" lon="4.90191">
        <ele>303</ele>
        <time>2018-07-05T09:38:25Z</time>
      </trkpt>
      <trkpt lat="45.99665" lon="4.90182">
        <ele>301</ele>
        <time>2018-07-05T09:38:26Z</time>
      </trkpt>
      <trkpt lat="45.99663" lon="4.90172">
        <ele>301</ele>
        <time>2018-07-05T09:38:27Z</time>
      </trkpt>
      <trkpt lat="45.9966" lon="4.90163">
        <ele>300</ele>
        <time>2018-07-05T09:38:28Z</time>
      </trkpt>
      <trkpt lat="45.99658" lon="4.90153">
        <ele>300</ele>
        <time>2018-07-05T09:38:29Z</time>
      </trkpt>
      <trkpt lat="45.99656" lon="4.90142">
        <ele>300</ele>
        <time>2018-07-05T09:38:30Z</time>
      </trkpt>
      <trkpt lat="45.99654" lon="4.9013">
        <ele>299</ele>
        <time>2018-07-05T09:38:31Z</time>
      </trkpt>
      <trkpt lat="45.99653" lon="4.90119">
        <ele>299</ele>
        <time>2018-07-05T09:38:32Z</time>
      </trkpt>
      <trkpt lat="45.99647" lon="4.90107">
        <ele>299</ele>
        <time>2018-07-05T09:38:33Z</time>
      </trkpt>
      <trkpt lat="45.99646" lon="4.90094">
        <ele>299</ele>
        <time>2018-07-05T09:38:34Z</time>
      </trkpt>
      <trkpt lat="45.9964" lon="4.90084">
        <ele>298</ele>
        <time>2018-07-05T09:38:35Z</time>
      </trkpt>
      <trkpt lat="45.99636" lon="4.90074">
        <ele>297</ele>
        <time>2018-07-05T09:38:36Z</time>
      </trkpt>
      <trkpt lat="45.99631" lon="4.90063">
        <ele>297</ele>
        <time>2018-07-05T09:38:37Z</time>
      </trkpt>
      <trkpt lat="45.99626" lon="4.90052">
        <ele>297</ele>
        <time>2018-07-05T09:38:38Z</time>
      </trkpt>
      <trkpt lat="45.99622" lon="4.90042">
        <ele>296</ele>
        <time>2018-07-05T09:38:39Z</time>
      </trkpt>
      <trkpt lat="45.99618" lon="4.90032">
        <ele>296</ele>
        <time>2018-07-05T09:38:40Z</time>
      </trkpt>
      <trkpt lat="45.99614" lon="4.90021">
        <ele>296</ele>
        <time>2018-07-05T09:38:41Z</time>
      </trkpt>
      <trkpt lat="45.99611" lon="4.90011">
        <ele>296</ele>
        <time>2018-07-05T09:38:42Z</time>
      </trkpt>
      <trkpt lat="45.99609" lon="4.9">
        <ele>296</ele>
        <time>2018-07-05T09:38:43Z</time>
      </trkpt>
      <trkpt lat="45.99607" lon="4.8999">
        <ele>294</ele>
        <time>2018-07-05T09:38:44Z</time>
      </trkpt>
      <trkpt lat="45.99605" lon="4.8998">
        <ele>294</ele>
        <time>2018-07-05T09:38:45Z</time>
      </trkpt>
      <trkpt lat="45.99605" lon="4.89971">
        <ele>294</ele>
        <time>2018-07-05T09:38:46Z</time>
      </trkpt>
      <trkpt lat="45.99603" lon="4.8996">
        <ele>294</ele>
        <time>2018-07-05T09:38:47Z</time>
      </trkpt>
      <trkpt lat="45.99603" lon="4.89951">
        <ele>294</ele>
        <time>2018-07-05T09:38:48Z</time>
      </trkpt>
      <trkpt lat="45.99604" lon="4.8994">
        <ele>293</ele>
        <time>2018-07-05T09:38:49Z</time>
      </trkpt>
      <trkpt lat="45.99603" lon="4.89929">
        <ele>293</ele>
        <time>2018-07-05T09:38:50Z</time>
      </trkpt>
      <trkpt lat="45.99602" lon="4.89919">
        <ele>293</ele>
        <time>2018-07-05T09:38:51Z</time>
      </trkpt>
      <trkpt lat="45.99602" lon="4.89909">
        <ele>292</ele>
        <time>2018-07-05T09:38:52Z</time>
      </trkpt>
      <trkpt lat="45.996" lon="4.89898">
        <ele>292</ele>
        <time>2018-07-05T09:38:53Z</time>
      </trkpt>
      <trkpt lat="45.996" lon="4.89888">
        <ele>292</ele>
        <time>2018-07-05T09:38:54Z</time>
      </trkpt>
      <trkpt lat="45.99598" lon="4.89878">
        <ele>292</ele>
        <time>2018-07-05T09:38:55Z</time>
      </trkpt>
      <trkpt lat="45.996" lon="4.89868">
        <ele>293</ele>
        <time>2018-07-05T09:38:56Z</time>
      </trkpt>
      <trkpt lat="45.99601" lon="4.89858">
        <ele>293</ele>
        <time>2018-07-05T09:38:57Z</time>
      </trkpt>
      <trkpt lat="45.99601" lon="4.89849">
        <ele>293</ele>
        <time>2018-07-05T09:38:58Z</time>
      </trkpt>
      <trkpt lat="45.99602" lon="4.89839">
        <ele>293</ele>
        <time>2018-07-05T09:38:59Z</time>
      </trkpt>
      <trkpt lat="45.99603" lon="4.89828">
        <ele>292</ele>
        <time>2018-07-05T09:39:00Z</time>
      </trkpt>
      <trkpt lat="45.99602" lon="4.89819">
        <ele>292</ele>
        <time>2018-07-05T09:39:01Z</time>
      </trkpt>
      <trkpt lat="45.99599" lon="4.89809">
        <ele>292</ele>
        <time>2018-07-05T09:39:02Z</time>
      </trkpt>
      <trkpt lat="45.99598" lon="4.89799">
        <ele>292</ele>
        <time>2018-07-05T09:39:03Z</time>
      </trkpt>
      <trkpt lat="45.996" lon="4.8979">
        <ele>292</ele>
        <time>2018-07-05T09:39:04Z</time>
      </trkpt>
      <trkpt lat="45.99598" lon="4.89779">
        <ele>292</ele>
        <time>2018-07-05T09:39:05Z</time>
      </trkpt>
      <trkpt lat="45.99598" lon="4.89771">
        <ele>292</ele>
        <time>2018-07-05T09:39:06Z</time>
      </trkpt>
      <trkpt lat="45.99598" lon="4.89762">
        <ele>292</ele>
        <time>2018-07-05T09:39:07Z</time>
      </trkpt>
      <trkpt lat="45.99599" lon="4.89752">
        <ele>292</ele>
        <time>2018-07-05T09:39:08Z</time>
      </trkpt>
      <trkpt lat="45.996" lon="4.89745">
        <ele>292</ele>
        <time>2018-07-05T09:39:09Z</time>
      </trkpt>
      <trkpt lat="45.99602" lon="4.89734">
        <ele>292</ele>
        <time>2018-07-05T09:39:10Z</time>
      </trkpt>
      <trkpt lat="45.99604" lon="4.89725">
        <ele>292</ele>
        <time>2018-07-05T09:39:11Z</time>
      </trkpt>
      <trkpt lat="45.99606" lon="4.89716">
        <ele>292</ele>
        <time>2018-07-05T09:39:12Z</time>
      </trkpt>
      <trkpt lat="45.99606" lon="4.89709">
        <ele>292</ele>
        <time>2018-07-05T09:39:13Z</time>
      </trkpt>
      <trkpt lat="45.99606" lon="4.89699">
        <ele>291</ele>
        <time>2018-07-05T09:39:14Z</time>
      </trkpt>
      <trkpt lat="45.99605" lon="4.89689">
        <ele>291</ele>
        <time>2018-07-05T09:39:15Z</time>
      </trkpt>
      <trkpt lat="45.99607" lon="4.89681">
        <ele>291</ele>
        <time>2018-07-05T09:39:16Z</time>
      </trkpt>
      <trkpt lat="45.99605" lon="4.89672">
        <ele>292</ele>
        <time>2018-07-05T09:39:17Z</time>
      </trkpt>
      <trkpt lat="45.99604" lon="4.89663">
        <ele>292</ele>
        <time>2018-07-05T09:39:18Z</time>
      </trkpt>
      <trkpt lat="45.99605" lon="4.89655">
        <ele>291</ele>
        <time>2018-07-05T09:39:19Z</time>
      </trkpt>
      <trkpt lat="45.99605" lon="4.89647">
        <ele>291</ele>
        <time>2018-07-05T09:39:20Z</time>
      </trkpt>
      <trkpt lat="45.99605" lon="4.89639">
        <ele>291</ele>
        <time>2018-07-05T09:39:21Z</time>
      </trkpt>
      <trkpt lat="45.99605" lon="4.8963">
        <ele>291</ele>
        <time>2018-07-05T09:39:22Z</time>
      </trkpt>
      <trkpt lat="45.99605" lon="4.89623">
        <ele>291</ele>
        <time>2018-07-05T09:39:23Z</time>
      </trkpt>
      <trkpt lat="45.99604" lon="4.89615">
        <ele>291</ele>
        <time>2018-07-05T09:39:24Z</time>
      </trkpt>
      <trkpt lat="45.99603" lon="4.89605">
        <ele>292</ele>
        <time>2018-07-05T09:39:25Z</time>
      </trkpt>
      <trkpt lat="45.99603" lon="4.89597">
        <ele>292</ele>
        <time>2018-07-05T09:39:26Z</time>
      </trkpt>
      <trkpt lat="45.99602" lon="4.89589">
        <ele>292</ele>
        <time>2018-07-05T09:39:27Z</time>
      </trkpt>
      <trkpt lat="45.996" lon="4.89579">
        <ele>291</ele>
        <time>2018-07-05T09:39:28Z</time>
      </trkpt>
      <trkpt lat="45.99599" lon="4.89572">
        <ele>291</ele>
        <time>2018-07-05T09:39:29Z</time>
      </trkpt>
      <trkpt lat="45.99599" lon="4.89564">
        <ele>291</ele>
        <time>2018-07-05T09:39:30Z</time>
      </trkpt>
      <trkpt lat="45.996" lon="4.89556">
        <ele>291</ele>
        <time>2018-07-05T09:39:31Z</time>
      </trkpt>
      <trkpt lat="45.996" lon="4.89548">
        <ele>291</ele>
        <time>2018-07-05T09:39:32Z</time>
      </trkpt>
      <trkpt lat="45.996" lon="4.89541">
        <ele>291</ele>
        <time>2018-07-05T09:39:33Z</time>
      </trkpt>
      <trkpt lat="45.99598" lon="4.89535">
        <ele>291</ele>
        <time>2018-07-05T09:39:34Z</time>
      </trkpt>
      <trkpt lat="45.99598" lon="4.89528">
        <ele>291</ele>
        <time>2018-07-05T09:39:35Z</time>
      </trkpt>
      <trkpt lat="45.99596" lon="4.8952">
        <ele>291</ele>
        <time>2018-07-05T09:39:36Z</time>
      </trkpt>
      <trkpt lat="45.99595" lon="4.89511">
        <ele>290</ele>
        <time>2018-07-05T09:39:37Z</time>
      </trkpt>
      <trkpt lat="45.99595" lon="4.89499">
        <ele>290</ele>
        <time>2018-07-05T09:39:39Z</time>
      </trkpt>
      <trkpt lat="45.99594" lon="4.89493">
        <ele>290</ele>
        <time>2018-07-05T09:39:40Z</time>
      </trkpt>
      <trkpt lat="45.99596" lon="4.89485">
        <ele>290</ele>
        <time>2018-07-05T09:39:41Z</time>
      </trkpt>
      <trkpt lat="45.99595" lon="4.89479">
        <ele>290</ele>
        <time>2018-07-05T09:39:42Z</time>
      </trkpt>
      <trkpt lat="45.99596" lon="4.8947">
        <ele>290</ele>
        <time>2018-07-05T09:39:43Z</time>
      </trkpt>
      <trkpt lat="45.99596" lon="4.89462">
        <ele>290</ele>
        <time>2018-07-05T09:39:44Z</time>
      </trkpt>
      <trkpt lat="45.99592" lon="4.89454">
        <ele>290</ele>
        <time>2018-07-05T09:39:45Z</time>
      </trkpt>
      <trkpt lat="45.99593" lon="4.89446">
        <ele>290</ele>
        <time>2018-07-05T09:39:46Z</time>
      </trkpt>
      <trkpt lat="45.99592" lon="4.89435">
        <ele>290</ele>
        <time>2018-07-05T09:39:47Z</time>
      </trkpt>
      <trkpt lat="45.99593" lon="4.89427">
        <ele>290</ele>
        <time>2018-07-05T09:39:48Z</time>
      </trkpt>
      <trkpt lat="45.99592" lon="4.89419">
        <ele>290</ele>
        <time>2018-07-05T09:39:49Z</time>
      </trkpt>
      <trkpt lat="45.99591" lon="4.89412">
        <ele>290</ele>
        <time>2018-07-05T09:39:50Z</time>
      </trkpt>
      <trkpt lat="45.99591" lon="4.89404">
        <ele>290</ele>
        <time>2018-07-05T09:39:51Z</time>
      </trkpt>
      <trkpt lat="45.9959" lon="4.89396">
        <ele>290</ele>
        <time>2018-07-05T09:39:52Z</time>
      </trkpt>
      <trkpt lat="45.99589" lon="4.89387">
        <ele>290</ele>
        <time>2018-07-05T09:39:53Z</time>
      </trkpt>
      <trkpt lat="45.99588" lon="4.89379">
        <ele>290</ele>
        <time>2018-07-05T09:39:54Z</time>
      </trkpt>
      <trkpt lat="45.99588" lon="4.8937">
        <ele>289</ele>
        <time>2018-07-05T09:39:55Z</time>
      </trkpt>
      <trkpt lat="45.99588" lon="4.89362">
        <ele>289</ele>
        <time>2018-07-05T09:39:56Z</time>
      </trkpt>
      <trkpt lat="45.99587" lon="4.89353">
        <ele>289</ele>
        <time>2018-07-05T09:39:57Z</time>
      </trkpt>
      <trkpt lat="45.99588" lon="4.89345">
        <ele>289</ele>
        <time>2018-07-05T09:39:58Z</time>
      </trkpt>
      <trkpt lat="45.99588" lon="4.89338">
        <ele>289</ele>
        <time>2018-07-05T09:39:59Z</time>
      </trkpt>
      <trkpt lat="45.99587" lon="4.89329">
        <ele>289</ele>
        <time>2018-07-05T09:40:00Z</time>
      </trkpt>
      <trkpt lat="45.99587" lon="4.89321">
        <ele>289</ele>
        <time>2018-07-05T09:40:01Z</time>
      </trkpt>
      <trkpt lat="45.99587" lon="4.89314">
        <ele>289</ele>
        <time>2018-07-05T09:40:02Z</time>
      </trkpt>
      <trkpt lat="45.99586" lon="4.89306">
        <ele>289</ele>
        <time>2018-07-05T09:40:03Z</time>
      </trkpt>
      <trkpt lat="45.99585" lon="4.89299">
        <ele>289</ele>
        <time>2018-07-05T09:40:04Z</time>
      </trkpt>
      <trkpt lat="45.99583" lon="4.89291">
        <ele>288</ele>
        <time>2018-07-05T09:40:05Z</time>
      </trkpt>
      <trkpt lat="45.99583" lon="4.89284">
        <ele>288</ele>
        <time>2018-07-05T09:40:06Z</time>
      </trkpt>
      <trkpt lat="45.99582" lon="4.89275">
        <ele>288</ele>
        <time>2018-07-05T09:40:07Z</time>
      </trkpt>
      <trkpt lat="45.99581" lon="4.89267">
        <ele>288</ele>
        <time>2018-07-05T09:40:08Z</time>
      </trkpt>
      <trkpt lat="45.9958" lon="4.89257">
        <ele>288</ele>
        <time>2018-07-05T09:40:09Z</time>
      </trkpt>
      <trkpt lat="45.99578" lon="4.89247">
        <ele>288</ele>
        <time>2018-07-05T09:40:10Z</time>
      </trkpt>
      <trkpt lat="45.99576" lon="4.89237">
        <ele>288</ele>
        <time>2018-07-05T09:40:11Z</time>
      </trkpt>
      <trkpt lat="45.99575" lon="4.89228">
        <ele>288</ele>
        <time>2018-07-05T09:40:12Z</time>
      </trkpt>
      <trkpt lat="45.99575" lon="4.89219">
        <ele>288</ele>
        <time>2018-07-05T09:40:13Z</time>
      </trkpt>
      <trkpt lat="45.99575" lon="4.89211">
        <ele>288</ele>
        <time>2018-07-05T09:40:14Z</time>
      </trkpt>
      <trkpt lat="45.99575" lon="4.89202">
        <ele>288</ele>
        <time>2018-07-05T09:40:15Z</time>
      </trkpt>
      <trkpt lat="45.99575" lon="4.89192">
        <ele>288</ele>
        <time>2018-07-05T09:40:16Z</time>
      </trkpt>
      <trkpt lat="45.99573" lon="4.89183">
        <ele>288</ele>
        <time>2018-07-05T09:40:17Z</time>
      </trkpt>
      <trkpt lat="45.99573" lon="4.89175">
        <ele>288</ele>
        <time>2018-07-05T09:40:18Z</time>
      </trkpt>
      <trkpt lat="45.99573" lon="4.89167">
        <ele>288</ele>
        <time>2018-07-05T09:40:19Z</time>
      </trkpt>
      <trkpt lat="45.99573" lon="4.89159">
        <ele>288</ele>
        <time>2018-07-05T09:40:20Z</time>
      </trkpt>
      <trkpt lat="45.99572" lon="4.89151">
        <ele>289</ele>
        <time>2018-07-05T09:40:21Z</time>
      </trkpt>
      <trkpt lat="45.99575" lon="4.89144">
        <ele>289</ele>
        <time>2018-07-05T09:40:22Z</time>
      </trkpt>
      <trkpt lat="45.99576" lon="4.89136">
        <ele>289</ele>
        <time>2018-07-05T09:40:23Z</time>
      </trkpt>
      <trkpt lat="45.99575" lon="4.8913">
        <ele>289</ele>
        <time>2018-07-05T09:40:24Z</time>
      </trkpt>
      <trkpt lat="45.99574" lon="4.89118">
        <ele>289</ele>
        <time>2018-07-05T09:40:26Z</time>
      </trkpt>
      <trkpt lat="45.99574" lon="4.89114">
        <ele>289</ele>
        <time>2018-07-05T09:40:27Z</time>
      </trkpt>
      <trkpt lat="45.99578" lon="4.89103">
        <ele>289</ele>
        <time>2018-07-05T09:40:32Z</time>
      </trkpt>
      <trkpt lat="45.99579" lon="4.89102">
        <ele>289</ele>
        <time>2018-07-05T09:40:33Z</time>
      </trkpt>
      <trkpt lat="45.99579" lon="4.89101">
        <ele>289</ele>
        <time>2018-07-05T09:40:34Z</time>
      </trkpt>
      <trkpt lat="45.9958" lon="4.89101">
        <ele>289</ele>
        <time>2018-07-05T09:40:35Z</time>
      </trkpt>
      <trkpt lat="45.9958" lon="4.89099">
        <ele>289</ele>
        <time>2018-07-05T09:40:41Z</time>
      </trkpt>
      <trkpt lat="45.9958" lon="4.89099">
        <ele>289</ele>
        <time>2018-07-05T09:40:42Z</time>
      </trkpt>
      <trkpt lat="45.99579" lon="4.89088">
        <ele>289</ele>
        <time>2018-07-05T09:40:47Z</time>
      </trkpt>
      <trkpt lat="45.99579" lon="4.89085">
        <ele>289</ele>
        <time>2018-07-05T09:40:48Z</time>
      </trkpt>
      <trkpt lat="45.99576" lon="4.89073">
        <ele>289</ele>
        <time>2018-07-05T09:41:59Z</time>
      </trkpt>
      <trkpt lat="45.99576" lon="4.89072">
        <ele>289</ele>
        <time>2018-07-05T09:42:00Z</time>
      </trkpt>
      <trkpt lat="45.99578" lon="4.89062">
        <ele>289</ele>
        <time>2018-07-05T09:42:05Z</time>
      </trkpt>
      <trkpt lat="45.99579" lon="4.8906">
        <ele>289</ele>
        <time>2018-07-05T09:42:06Z</time>
      </trkpt>
      <trkpt lat="45.99581" lon="4.89047">
        <ele>288</ele>
        <time>2018-07-05T09:42:10Z</time>
      </trkpt>
      <trkpt lat="45.99583" lon="4.89036">
        <ele>288</ele>
        <time>2018-07-05T09:42:11Z</time>
      </trkpt>
      <trkpt lat="45.99585" lon="4.89024">
        <ele>288</ele>
        <time>2018-07-05T09:42:15Z</time>
      </trkpt>
      <trkpt lat="45.99585" lon="4.8902">
        <ele>288</ele>
        <time>2018-07-05T09:42:16Z</time>
      </trkpt>
      <trkpt lat="45.99587" lon="4.89007">
        <ele>288</ele>
        <time>2018-07-05T09:42:17Z</time>
      </trkpt>
      <trkpt lat="45.99588" lon="4.89001">
        <ele>288</ele>
        <time>2018-07-05T09:42:18Z</time>
      </trkpt>
      <trkpt lat="45.99588" lon="4.88993">
        <ele>288</ele>
        <time>2018-07-05T09:42:19Z</time>
      </trkpt>
      <trkpt lat="45.99587" lon="4.88985">
        <ele>288</ele>
        <time>2018-07-05T09:42:20Z</time>
      </trkpt>
      <trkpt lat="45.99587" lon="4.88977">
        <ele>288</ele>
        <time>2018-07-05T09:42:21Z</time>
      </trkpt>
      <trkpt lat="45.99586" lon="4.88969">
        <ele>288</ele>
        <time>2018-07-05T09:42:22Z</time>
      </trkpt>
      <trkpt lat="45.99585" lon="4.88961">
        <ele>288</ele>
        <time>2018-07-05T09:42:23Z</time>
      </trkpt>
      <trkpt lat="45.99586" lon="4.88952">
        <ele>287</ele>
        <time>2018-07-05T09:42:24Z</time>
      </trkpt>
      <trkpt lat="45.99588" lon="4.88944">
        <ele>287</ele>
        <time>2018-07-05T09:42:25Z</time>
      </trkpt>
      <trkpt lat="45.99586" lon="4.88937">
        <ele>287</ele>
        <time>2018-07-05T09:42:26Z</time>
      </trkpt>
      <trkpt lat="45.99585" lon="4.88929">
        <ele>287</ele>
        <time>2018-07-05T09:42:27Z</time>
      </trkpt>
      <trkpt lat="45.99583" lon="4.88921">
        <ele>287</ele>
        <time>2018-07-05T09:42:28Z</time>
      </trkpt>
      <trkpt lat="45.99583" lon="4.88914">
        <ele>287</ele>
        <time>2018-07-05T09:42:29Z</time>
      </trkpt>
      <trkpt lat="45.99583" lon="4.88907">
        <ele>287</ele>
        <time>2018-07-05T09:42:30Z</time>
      </trkpt>
      <trkpt lat="45.99583" lon="4.88898">
        <ele>287</ele>
        <time>2018-07-05T09:42:31Z</time>
      </trkpt>
      <trkpt lat="45.99583" lon="4.88888">
        <ele>287</ele>
        <time>2018-07-05T09:42:32Z</time>
      </trkpt>
      <trkpt lat="45.99581" lon="4.8888">
        <ele>287</ele>
        <time>2018-07-05T09:42:33Z</time>
      </trkpt>
      <trkpt lat="45.9958" lon="4.88869">
        <ele>287</ele>
        <time>2018-07-05T09:42:34Z</time>
      </trkpt>
      <trkpt lat="45.99579" lon="4.88861">
        <ele>287</ele>
        <time>2018-07-05T09:42:35Z</time>
      </trkpt>
      <trkpt lat="45.99579" lon="4.88852">
        <ele>287</ele>
        <time>2018-07-05T09:42:36Z</time>
      </trkpt>
      <trkpt lat="45.99577" lon="4.88844">
        <ele>287</ele>
        <time>2018-07-05T09:42:37Z</time>
      </trkpt>
      <trkpt lat="45.99574" lon="4.88835">
        <ele>287</ele>
        <time>2018-07-05T09:42:38Z</time>
      </trkpt>
      <trkpt lat="45.99573" lon="4.88827">
        <ele>287</ele>
        <time>2018-07-05T09:42:39Z</time>
      </trkpt>
      <trkpt lat="45.99573" lon="4.8882">
        <ele>287</ele>
        <time>2018-07-05T09:42:40Z</time>
      </trkpt>
      <trkpt lat="45.99572" lon="4.88813">
        <ele>287</ele>
        <time>2018-07-05T09:42:41Z</time>
      </trkpt>
      <trkpt lat="45.99572" lon="4.88805">
        <ele>287</ele>
        <time>2018-07-05T09:42:42Z</time>
      </trkpt>
      <trkpt lat="45.99569" lon="4.88799">
        <ele>287</ele>
        <time>2018-07-05T09:42:43Z</time>
      </trkpt>
      <trkpt lat="45.99566" lon="4.88791">
        <ele>287</ele>
        <time>2018-07-05T09:42:44Z</time>
      </trkpt>
      <trkpt lat="45.99565" lon="4.88784">
        <ele>287</ele>
        <time>2018-07-05T09:42:45Z</time>
      </trkpt>
      <trkpt lat="45.99563" lon="4.88777">
        <ele>287</ele>
        <time>2018-07-05T09:42:46Z</time>
      </trkpt>
      <trkpt lat="45.99563" lon="4.88769">
        <ele>287</ele>
        <time>2018-07-05T09:42:47Z</time>
      </trkpt>
      <trkpt lat="45.99563" lon="4.88761">
        <ele>287</ele>
        <time>2018-07-05T09:42:48Z</time>
      </trkpt>
      <trkpt lat="45.99561" lon="4.88753">
        <ele>287</ele>
        <time>2018-07-05T09:42:49Z</time>
      </trkpt>
      <trkpt lat="45.99562" lon="4.88746">
        <ele>287</ele>
        <time>2018-07-05T09:42:50Z</time>
      </trkpt>
      <trkpt lat="45.99563" lon="4.88737">
        <ele>287</ele>
        <time>2018-07-05T09:42:51Z</time>
      </trkpt>
      <trkpt lat="45.99561" lon="4.88729">
        <ele>286</ele>
        <time>2018-07-05T09:42:52Z</time>
      </trkpt>
      <trkpt lat="45.9956" lon="4.88719">
        <ele>286</ele>
        <time>2018-07-05T09:42:53Z</time>
      </trkpt>
      <trkpt lat="45.99561" lon="4.88712">
        <ele>286</ele>
        <time>2018-07-05T09:42:54Z</time>
      </trkpt>
      <trkpt lat="45.99559" lon="4.88704">
        <ele>286</ele>
        <time>2018-07-05T09:42:55Z</time>
      </trkpt>
      <trkpt lat="45.99556" lon="4.88695">
        <ele>286</ele>
        <time>2018-07-05T09:42:56Z</time>
      </trkpt>
      <trkpt lat="45.99556" lon="4.88688">
        <ele>286</ele>
        <time>2018-07-05T09:42:57Z</time>
      </trkpt>
      <trkpt lat="45.99557" lon="4.8868">
        <ele>286</ele>
        <time>2018-07-05T09:42:58Z</time>
      </trkpt>
      <trkpt lat="45.99557" lon="4.88671">
        <ele>286</ele>
        <time>2018-07-05T09:42:59Z</time>
      </trkpt>
      <trkpt lat="45.99557" lon="4.88663">
        <ele>286</ele>
        <time>2018-07-05T09:43:00Z</time>
      </trkpt>
      <trkpt lat="45.99556" lon="4.88655">
        <ele>286</ele>
        <time>2018-07-05T09:43:01Z</time>
      </trkpt>
      <trkpt lat="45.99556" lon="4.88646">
        <ele>286</ele>
        <time>2018-07-05T09:43:02Z</time>
      </trkpt>
      <trkpt lat="45.99553" lon="4.88636">
        <ele>286</ele>
        <time>2018-07-05T09:43:03Z</time>
      </trkpt>
      <trkpt lat="45.99553" lon="4.88628">
        <ele>286</ele>
        <time>2018-07-05T09:43:04Z</time>
      </trkpt>
      <trkpt lat="45.99551" lon="4.88618">
        <ele>286</ele>
        <time>2018-07-05T09:43:05Z</time>
      </trkpt>
      <trkpt lat="45.9955" lon="4.88609">
        <ele>286</ele>
        <time>2018-07-05T09:43:06Z</time>
      </trkpt>
      <trkpt lat="45.99549" lon="4.886">
        <ele>286</ele>
        <time>2018-07-05T09:43:07Z</time>
      </trkpt>
      <trkpt lat="45.99546" lon="4.88591">
        <ele>286</ele>
        <time>2018-07-05T09:43:08Z</time>
      </trkpt>
      <trkpt lat="45.99544" lon="4.88582">
        <ele>286</ele>
        <time>2018-07-05T09:43:09Z</time>
      </trkpt>
      <trkpt lat="45.99542" lon="4.88574">
        <ele>286</ele>
        <time>2018-07-05T09:43:10Z</time>
      </trkpt>
      <trkpt lat="45.9954" lon="4.88567">
        <ele>285</ele>
        <time>2018-07-05T09:43:11Z</time>
      </trkpt>
      <trkpt lat="45.99537" lon="4.88559">
        <ele>285</ele>
        <time>2018-07-05T09:43:12Z</time>
      </trkpt>
      <trkpt lat="45.99535" lon="4.88552">
        <ele>285</ele>
        <time>2018-07-05T09:43:13Z</time>
      </trkpt>
      <trkpt lat="45.99532" lon="4.88545">
        <ele>285</ele>
        <time>2018-07-05T09:43:14Z</time>
      </trkpt>
      <trkpt lat="45.99529" lon="4.88539">
        <ele>285</ele>
        <time>2018-07-05T09:43:15Z</time>
      </trkpt>
      <trkpt lat="45.99526" lon="4.88533">
        <ele>285</ele>
        <time>2018-07-05T09:43:16Z</time>
      </trkpt>
      <trkpt lat="45.99521" lon="4.88526">
        <ele>285</ele>
        <time>2018-07-05T09:43:17Z</time>
      </trkpt>
      <trkpt lat="45.99518" lon="4.8852">
        <ele>285</ele>
        <time>2018-07-05T09:43:18Z</time>
      </trkpt>
      <trkpt lat="45.99515" lon="4.88513">
        <ele>285</ele>
        <time>2018-07-05T09:43:19Z</time>
      </trkpt>
      <trkpt lat="45.99511" lon="4.88507">
        <ele>284</ele>
        <time>2018-07-05T09:43:20Z</time>
      </trkpt>
      <trkpt lat="45.99507" lon="4.885">
        <ele>284</ele>
        <time>2018-07-05T09:43:21Z</time>
      </trkpt>
      <trkpt lat="45.99504" lon="4.88493">
        <ele>284</ele>
        <time>2018-07-05T09:43:22Z</time>
      </trkpt>
      <trkpt lat="45.995" lon="4.88487">
        <ele>284</ele>
        <time>2018-07-05T09:43:23Z</time>
      </trkpt>
      <trkpt lat="45.99497" lon="4.88481">
        <ele>284</ele>
        <time>2018-07-05T09:43:24Z</time>
      </trkpt>
      <trkpt lat="45.99493" lon="4.88474">
        <ele>284</ele>
        <time>2018-07-05T09:43:25Z</time>
      </trkpt>
      <trkpt lat="45.99489" lon="4.88467">
        <ele>284</ele>
        <time>2018-07-05T09:43:26Z</time>
      </trkpt>
      <trkpt lat="45.99488" lon="4.88461">
        <ele>284</ele>
        <time>2018-07-05T09:43:27Z</time>
      </trkpt>
      <trkpt lat="45.99484" lon="4.88454">
        <ele>284</ele>
        <time>2018-07-05T09:43:28Z</time>
      </trkpt>
      <trkpt lat="45.99481" lon="4.88449">
        <ele>284</ele>
        <time>2018-07-05T09:43:29Z</time>
      </trkpt>
      <trkpt lat="45.99478" lon="4.88444">
        <ele>284</ele>
        <time>2018-07-05T09:43:30Z</time>
      </trkpt>
      <trkpt lat="45.99473" lon="4.88434">
        <ele>284</ele>
        <time>2018-07-05T09:43:32Z</time>
      </trkpt>
      <trkpt lat="45.9947" lon="4.88429">
        <ele>284</ele>
        <time>2018-07-05T09:43:33Z</time>
      </trkpt>
      <trkpt lat="45.99466" lon="4.88426">
        <ele>284</ele>
        <time>2018-07-05T09:43:34Z</time>
      </trkpt>
      <trkpt lat="45.99459" lon="4.88423">
        <ele>284</ele>
        <time>2018-07-05T09:43:35Z</time>
      </trkpt>
      <trkpt lat="45.99455" lon="4.88419">
        <ele>283</ele>
        <time>2018-07-05T09:43:36Z</time>
      </trkpt>
      <trkpt lat="45.99451" lon="4.88415">
        <ele>283</ele>
        <time>2018-07-05T09:43:37Z</time>
      </trkpt>
      <trkpt lat="45.99446" lon="4.8841">
        <ele>283</ele>
        <time>2018-07-05T09:43:38Z</time>
      </trkpt>
      <trkpt lat="45.9944" lon="4.88405">
        <ele>283</ele>
        <time>2018-07-05T09:43:39Z</time>
      </trkpt>
      <trkpt lat="45.99437" lon="4.884">
        <ele>283</ele>
        <time>2018-07-05T09:43:40Z</time>
      </trkpt>
      <trkpt lat="45.99433" lon="4.88393">
        <ele>283</ele>
        <time>2018-07-05T09:43:41Z</time>
      </trkpt>
      <trkpt lat="45.9943" lon="4.88386">
        <ele>283</ele>
        <time>2018-07-05T09:43:42Z</time>
      </trkpt>
      <trkpt lat="45.99426" lon="4.88379">
        <ele>283</ele>
        <time>2018-07-05T09:43:43Z</time>
      </trkpt>
      <trkpt lat="45.99423" lon="4.88371">
        <ele>283</ele>
        <time>2018-07-05T09:43:44Z</time>
      </trkpt>
      <trkpt lat="45.9942" lon="4.88363">
        <ele>283</ele>
        <time>2018-07-05T09:43:45Z</time>
      </trkpt>
      <trkpt lat="45.99417" lon="4.88355">
        <ele>283</ele>
        <time>2018-07-05T09:43:46Z</time>
      </trkpt>
      <trkpt lat="45.99414" lon="4.88348">
        <ele>282</ele>
        <time>2018-07-05T09:43:47Z</time>
      </trkpt>
      <trkpt lat="45.99412" lon="4.8834">
        <ele>282</ele>
        <time>2018-07-05T09:43:48Z</time>
      </trkpt>
      <trkpt lat="45.99409" lon="4.88333">
        <ele>283</ele>
        <time>2018-07-05T09:43:49Z</time>
      </trkpt>
      <trkpt lat="45.99405" lon="4.88325">
        <ele>283</ele>
        <time>2018-07-05T09:43:50Z</time>
      </trkpt>
      <trkpt lat="45.99402" lon="4.88318">
        <ele>283</ele>
        <time>2018-07-05T09:43:51Z</time>
      </trkpt>
      <trkpt lat="45.994" lon="4.88311">
        <ele>283</ele>
        <time>2018-07-05T09:43:52Z</time>
      </trkpt>
      <trkpt lat="45.99398" lon="4.88302">
        <ele>284</ele>
        <time>2018-07-05T09:43:53Z</time>
      </trkpt>
      <trkpt lat="45.99394" lon="4.88294">
        <ele>284</ele>
        <time>2018-07-05T09:43:54Z</time>
      </trkpt>
      <trkpt lat="45.9939" lon="4.88287">
        <ele>284</ele>
        <time>2018-07-05T09:43:55Z</time>
      </trkpt>
      <trkpt lat="45.99388" lon="4.88278">
        <ele>284</ele>
        <time>2018-07-05T09:43:56Z</time>
      </trkpt>
      <trkpt lat="45.99385" lon="4.8827">
        <ele>285</ele>
        <time>2018-07-05T09:43:57Z</time>
      </trkpt>
      <trkpt lat="45.99381" lon="4.88262">
        <ele>285</ele>
        <time>2018-07-05T09:43:58Z</time>
      </trkpt>
      <trkpt lat="45.99379" lon="4.88255">
        <ele>285</ele>
        <time>2018-07-05T09:43:59Z</time>
      </trkpt>
      <trkpt lat="45.99373" lon="4.88248">
        <ele>287</ele>
        <time>2018-07-05T09:44:00Z</time>
      </trkpt>
      <trkpt lat="45.99371" lon="4.88242">
        <ele>287</ele>
        <time>2018-07-05T09:44:01Z</time>
      </trkpt>
      <trkpt lat="45.99367" lon="4.88236">
        <ele>287</ele>
        <time>2018-07-05T09:44:02Z</time>
      </trkpt>
      <trkpt lat="45.99363" lon="4.88231">
        <ele>287</ele>
        <time>2018-07-05T09:44:03Z</time>
      </trkpt>
      <trkpt lat="45.99358" lon="4.88226">
        <ele>287</ele>
        <time>2018-07-05T09:44:04Z</time>
      </trkpt>
      <trkpt lat="45.99353" lon="4.88221">
        <ele>287</ele>
        <time>2018-07-05T09:44:05Z</time>
      </trkpt>
      <trkpt lat="45.99349" lon="4.88216">
        <ele>287</ele>
        <time>2018-07-05T09:44:06Z</time>
      </trkpt>
      <trkpt lat="45.99341" lon="4.88209">
        <ele>287</ele>
        <time>2018-07-05T09:44:07Z</time>
      </trkpt>
      <trkpt lat="45.99337" lon="4.88203">
        <ele>288</ele>
        <time>2018-07-05T09:44:08Z</time>
      </trkpt>
      <trkpt lat="45.99332" lon="4.88197">
        <ele>285</ele>
        <time>2018-07-05T09:44:09Z</time>
      </trkpt>
      <trkpt lat="45.99328" lon="4.88193">
        <ele>285</ele>
        <time>2018-07-05T09:44:10Z</time>
      </trkpt>
      <trkpt lat="45.99322" lon="4.88188">
        <ele>285</ele>
        <time>2018-07-05T09:44:11Z</time>
      </trkpt>
      <trkpt lat="45.99315" lon="4.88182">
        <ele>285</ele>
        <time>2018-07-05T09:44:12Z</time>
      </trkpt>
      <trkpt lat="45.99309" lon="4.88177">
        <ele>285</ele>
        <time>2018-07-05T09:44:13Z</time>
      </trkpt>
      <trkpt lat="45.99306" lon="4.88172">
        <ele>285</ele>
        <time>2018-07-05T09:44:14Z</time>
      </trkpt>
      <trkpt lat="45.99301" lon="4.88168">
        <ele>285</ele>
        <time>2018-07-05T09:44:15Z</time>
      </trkpt>
      <trkpt lat="45.99295" lon="4.88164">
        <ele>284</ele>
        <time>2018-07-05T09:44:16Z</time>
      </trkpt>
      <trkpt lat="45.99289" lon="4.8816">
        <ele>284</ele>
        <time>2018-07-05T09:44:17Z</time>
      </trkpt>
      <trkpt lat="45.99285" lon="4.88155">
        <ele>284</ele>
        <time>2018-07-05T09:44:18Z</time>
      </trkpt>
      <trkpt lat="45.9928" lon="4.8815">
        <ele>284</ele>
        <time>2018-07-05T09:44:19Z</time>
      </trkpt>
      <trkpt lat="45.99272" lon="4.88146">
        <ele>283</ele>
        <time>2018-07-05T09:44:20Z</time>
      </trkpt>
      <trkpt lat="45.99268" lon="4.88141">
        <ele>283</ele>
        <time>2018-07-05T09:44:21Z</time>
      </trkpt>
      <trkpt lat="45.99263" lon="4.88137">
        <ele>283</ele>
        <time>2018-07-05T09:44:22Z</time>
      </trkpt>
      <trkpt lat="45.99258" lon="4.88132">
        <ele>283</ele>
        <time>2018-07-05T09:44:23Z</time>
      </trkpt>
      <trkpt lat="45.99252" lon="4.88128">
        <ele>283</ele>
        <time>2018-07-05T09:44:24Z</time>
      </trkpt>
      <trkpt lat="45.99248" lon="4.88124">
        <ele>280</ele>
        <time>2018-07-05T09:44:25Z</time>
      </trkpt>
      <trkpt lat="45.99242" lon="4.88119">
        <ele>280</ele>
        <time>2018-07-05T09:44:26Z</time>
      </trkpt>
      <trkpt lat="45.99237" lon="4.88114">
        <ele>280</ele>
        <time>2018-07-05T09:44:27Z</time>
      </trkpt>
      <trkpt lat="45.99231" lon="4.88109">
        <ele>280</ele>
        <time>2018-07-05T09:44:28Z</time>
      </trkpt>
      <trkpt lat="45.99227" lon="4.88105">
        <ele>280</ele>
        <time>2018-07-05T09:44:29Z</time>
      </trkpt>
      <trkpt lat="45.99222" lon="4.881">
        <ele>280</ele>
        <time>2018-07-05T09:44:30Z</time>
      </trkpt>
      <trkpt lat="45.99216" lon="4.88096">
        <ele>280</ele>
        <time>2018-07-05T09:44:31Z</time>
      </trkpt>
      <trkpt lat="45.99212" lon="4.88091">
        <ele>280</ele>
        <time>2018-07-05T09:44:32Z</time>
      </trkpt>
      <trkpt lat="45.99207" lon="4.88086">
        <ele>280</ele>
        <time>2018-07-05T09:44:33Z</time>
      </trkpt>
      <trkpt lat="45.99202" lon="4.88083">
        <ele>280</ele>
        <time>2018-07-05T09:44:34Z</time>
      </trkpt>
      <trkpt lat="45.99196" lon="4.8808">
        <ele>280</ele>
        <time>2018-07-05T09:44:35Z</time>
      </trkpt>
      <trkpt lat="45.9919" lon="4.88075">
        <ele>280</ele>
        <time>2018-07-05T09:44:36Z</time>
      </trkpt>
      <trkpt lat="45.99186" lon="4.8807">
        <ele>279</ele>
        <time>2018-07-05T09:44:37Z</time>
      </trkpt>
      <trkpt lat="45.99182" lon="4.88067">
        <ele>279</ele>
        <time>2018-07-05T09:44:38Z</time>
      </trkpt>
      <trkpt lat="45.99177" lon="4.88062">
        <ele>279</ele>
        <time>2018-07-05T09:44:39Z</time>
      </trkpt>
      <trkpt lat="45.99169" lon="4.8806">
        <ele>279</ele>
        <time>2018-07-05T09:44:40Z</time>
      </trkpt>
      <trkpt lat="45.99163" lon="4.88056">
        <ele>279</ele>
        <time>2018-07-05T09:44:41Z</time>
      </trkpt>
      <trkpt lat="45.99156" lon="4.88052">
        <ele>279</ele>
        <time>2018-07-05T09:44:42Z</time>
      </trkpt>
      <trkpt lat="45.9915" lon="4.88048">
        <ele>279</ele>
        <time>2018-07-05T09:44:43Z</time>
      </trkpt>
      <trkpt lat="45.99144" lon="4.88045">
        <ele>279</ele>
        <time>2018-07-05T09:44:44Z</time>
      </trkpt>
      <trkpt lat="45.99138" lon="4.8804">
        <ele>279</ele>
        <time>2018-07-05T09:44:45Z</time>
      </trkpt>
      <trkpt lat="45.99131" lon="4.88036">
        <ele>279</ele>
        <time>2018-07-05T09:44:46Z</time>
      </trkpt>
      <trkpt lat="45.99126" lon="4.88032">
        <ele>279</ele>
        <time>2018-07-05T09:44:47Z</time>
      </trkpt>
      <trkpt lat="45.9912" lon="4.88029">
        <ele>278</ele>
        <time>2018-07-05T09:44:48Z</time>
      </trkpt>
      <trkpt lat="45.99114" lon="4.88026">
        <ele>278</ele>
        <time>2018-07-05T09:44:49Z</time>
      </trkpt>
      <trkpt lat="45.99108" lon="4.88023">
        <ele>278</ele>
        <time>2018-07-05T09:44:50Z</time>
      </trkpt>
      <trkpt lat="45.99101" lon="4.88019">
        <ele>278</ele>
        <time>2018-07-05T09:44:51Z</time>
      </trkpt>
      <trkpt lat="45.99095" lon="4.88015">
        <ele>278</ele>
        <time>2018-07-05T09:44:52Z</time>
      </trkpt>
      <trkpt lat="45.99091" lon="4.88015">
        <ele>278</ele>
        <time>2018-07-05T09:44:53Z</time>
      </trkpt>
      <trkpt lat="45.99084" lon="4.8801">
        <ele>278</ele>
        <time>2018-07-05T09:44:54Z</time>
      </trkpt>
      <trkpt lat="45.99078" lon="4.88006">
        <ele>278</ele>
        <time>2018-07-05T09:44:55Z</time>
      </trkpt>
      <trkpt lat="45.99071" lon="4.88002">
        <ele>277</ele>
        <time>2018-07-05T09:44:56Z</time>
      </trkpt>
      <trkpt lat="45.99064" lon="4.87997">
        <ele>277</ele>
        <time>2018-07-05T09:44:57Z</time>
      </trkpt>
      <trkpt lat="45.99057" lon="4.87993">
        <ele>277</ele>
        <time>2018-07-05T09:44:58Z</time>
      </trkpt>
      <trkpt lat="45.99052" lon="4.8799">
        <ele>277</ele>
        <time>2018-07-05T09:44:59Z</time>
      </trkpt>
      <trkpt lat="45.99046" lon="4.87987">
        <ele>277</ele>
        <time>2018-07-05T09:45:00Z</time>
      </trkpt>
      <trkpt lat="45.9904" lon="4.87982">
        <ele>276</ele>
        <time>2018-07-05T09:45:01Z</time>
      </trkpt>
      <trkpt lat="45.99033" lon="4.87978">
        <ele>276</ele>
        <time>2018-07-05T09:45:02Z</time>
      </trkpt>
      <trkpt lat="45.99026" lon="4.87974">
        <ele>276</ele>
        <time>2018-07-05T09:45:03Z</time>
      </trkpt>
      <trkpt lat="45.99018" lon="4.8797">
        <ele>276</ele>
        <time>2018-07-05T09:45:04Z</time>
      </trkpt>
      <trkpt lat="45.99011" lon="4.87966">
        <ele>276</ele>
        <time>2018-07-05T09:45:05Z</time>
      </trkpt>
      <trkpt lat="45.99004" lon="4.87961">
        <ele>276</ele>
        <time>2018-07-05T09:45:06Z</time>
      </trkpt>
      <trkpt lat="45.98997" lon="4.87957">
        <ele>274</ele>
        <time>2018-07-05T09:45:07Z</time>
      </trkpt>
      <trkpt lat="45.98991" lon="4.87953">
        <ele>274</ele>
        <time>2018-07-05T09:45:08Z</time>
      </trkpt>
      <trkpt lat="45.98983" lon="4.87949">
        <ele>274</ele>
        <time>2018-07-05T09:45:09Z</time>
      </trkpt>
      <trkpt lat="45.98976" lon="4.87945">
        <ele>274</ele>
        <time>2018-07-05T09:45:10Z</time>
      </trkpt>
      <trkpt lat="45.9897" lon="4.87941">
        <ele>274</ele>
        <time>2018-07-05T09:45:11Z</time>
      </trkpt>
      <trkpt lat="45.98962" lon="4.87936">
        <ele>273</ele>
        <time>2018-07-05T09:45:12Z</time>
      </trkpt>
      <trkpt lat="45.98954" lon="4.87932">
        <ele>273</ele>
        <time>2018-07-05T09:45:13Z</time>
      </trkpt>
      <trkpt lat="45.98945" lon="4.87928">
        <ele>273</ele>
        <time>2018-07-05T09:45:14Z</time>
      </trkpt>
      <trkpt lat="45.98937" lon="4.87923">
        <ele>272</ele>
        <time>2018-07-05T09:45:15Z</time>
      </trkpt>
      <trkpt lat="45.9893" lon="4.87919">
        <ele>272</ele>
        <time>2018-07-05T09:45:16Z</time>
      </trkpt>
      <trkpt lat="45.98923" lon="4.87912">
        <ele>272</ele>
        <time>2018-07-05T09:45:17Z</time>
      </trkpt>
      <trkpt lat="45.98917" lon="4.87906">
        <ele>272</ele>
        <time>2018-07-05T09:45:18Z</time>
      </trkpt>
      <trkpt lat="45.9891" lon="4.87899">
        <ele>272</ele>
        <time>2018-07-05T09:45:19Z</time>
      </trkpt>
      <trkpt lat="45.98903" lon="4.87891">
        <ele>272</ele>
        <time>2018-07-05T09:45:20Z</time>
      </trkpt>
      <trkpt lat="45.98897" lon="4.87883">
        <ele>272</ele>
        <time>2018-07-05T09:45:21Z</time>
      </trkpt>
      <trkpt lat="45.98891" lon="4.87876">
        <ele>272</ele>
        <time>2018-07-05T09:45:22Z</time>
      </trkpt>
      <trkpt lat="45.98885" lon="4.87867">
        <ele>272</ele>
        <time>2018-07-05T09:45:23Z</time>
      </trkpt>
      <trkpt lat="45.98879" lon="4.87858">
        <ele>272</ele>
        <time>2018-07-05T09:45:24Z</time>
      </trkpt>
      <trkpt lat="45.98873" lon="4.8785">
        <ele>273</ele>
        <time>2018-07-05T09:45:25Z</time>
      </trkpt>
      <trkpt lat="45.9887" lon="4.87841">
        <ele>273</ele>
        <time>2018-07-05T09:45:26Z</time>
      </trkpt>
      <trkpt lat="45.98865" lon="4.87831">
        <ele>273</ele>
        <time>2018-07-05T09:45:27Z</time>
      </trkpt>
      <trkpt lat="45.98862" lon="4.87822">
        <ele>273</ele>
        <time>2018-07-05T09:45:28Z</time>
      </trkpt>
      <trkpt lat="45.98858" lon="4.87813">
        <ele>273</ele>
        <time>2018-07-05T09:45:29Z</time>
      </trkpt>
      <trkpt lat="45.98854" lon="4.87804">
        <ele>273</ele>
        <time>2018-07-05T09:45:30Z</time>
      </trkpt>
      <trkpt lat="45.98852" lon="4.87794">
        <ele>273</ele>
        <time>2018-07-05T09:45:31Z</time>
      </trkpt>
      <trkpt lat="45.98849" lon="4.87785">
        <ele>273</ele>
        <time>2018-07-05T09:45:32Z</time>
      </trkpt>
      <trkpt lat="45.98848" lon="4.87775">
        <ele>273</ele>
        <time>2018-07-05T09:45:33Z</time>
      </trkpt>
      <trkpt lat="45.98845" lon="4.87766">
        <ele>273</ele>
        <time>2018-07-05T09:45:34Z</time>
      </trkpt>
      <trkpt lat="45.98842" lon="4.87757">
        <ele>273</ele>
        <time>2018-07-05T09:45:35Z</time>
      </trkpt>
      <trkpt lat="45.98839" lon="4.87749">
        <ele>273</ele>
        <time>2018-07-05T09:45:36Z</time>
      </trkpt>
      <trkpt lat="45.98838" lon="4.8774">
        <ele>273</ele>
        <time>2018-07-05T09:45:37Z</time>
      </trkpt>
      <trkpt lat="45.98837" lon="4.87732">
        <ele>273</ele>
        <time>2018-07-05T09:45:38Z</time>
      </trkpt>
      <trkpt lat="45.98834" lon="4.87724">
        <ele>273</ele>
        <time>2018-07-05T09:45:39Z</time>
      </trkpt>
      <trkpt lat="45.98833" lon="4.87716">
        <ele>273</ele>
        <time>2018-07-05T09:45:40Z</time>
      </trkpt>
      <trkpt lat="45.98832" lon="4.87707">
        <ele>273</ele>
        <time>2018-07-05T09:45:41Z</time>
      </trkpt>
      <trkpt lat="45.98829" lon="4.877">
        <ele>273</ele>
        <time>2018-07-05T09:45:42Z</time>
      </trkpt>
      <trkpt lat="45.98828" lon="4.87692">
        <ele>273</ele>
        <time>2018-07-05T09:45:43Z</time>
      </trkpt>
      <trkpt lat="45.98825" lon="4.87685">
        <ele>273</ele>
        <time>2018-07-05T09:45:44Z</time>
      </trkpt>
      <trkpt lat="45.98823" lon="4.87677">
        <ele>273</ele>
        <time>2018-07-05T09:45:45Z</time>
      </trkpt>
      <trkpt lat="45.98821" lon="4.87668">
        <ele>273</ele>
        <time>2018-07-05T09:45:46Z</time>
      </trkpt>
      <trkpt lat="45.9882" lon="4.87661">
        <ele>272</ele>
        <time>2018-07-05T09:45:47Z</time>
      </trkpt>
      <trkpt lat="45.98819" lon="4.87653">
        <ele>272</ele>
        <time>2018-07-05T09:45:48Z</time>
      </trkpt>
      <trkpt lat="45.98817" lon="4.87646">
        <ele>272</ele>
        <time>2018-07-05T09:45:49Z</time>
      </trkpt>
      <trkpt lat="45.98816" lon="4.87641">
        <ele>272</ele>
        <time>2018-07-05T09:45:50Z</time>
      </trkpt>
      <trkpt lat="45.98812" lon="4.87633">
        <ele>271</ele>
        <time>2018-07-05T09:46:10Z</time>
      </trkpt>
      <trkpt lat="45.98812" lon="4.87633">
        <ele>271</ele>
        <time>2018-07-05T09:46:11Z</time>
      </trkpt>
      <trkpt lat="45.98816" lon="4.87629">
        <ele>271</ele>
        <time>2018-07-05T09:46:33Z</time>
      </trkpt>
      <trkpt lat="45.98816" lon="4.87629">
        <ele>271</ele>
        <time>2018-07-05T09:46:34Z</time>
      </trkpt>
      <trkpt lat="45.98813" lon="4.87619">
        <ele>271</ele>
        <time>2018-07-05T09:46:40Z</time>
      </trkpt>
      <trkpt lat="45.98811" lon="4.87616">
        <ele>271</ele>
        <time>2018-07-05T09:46:41Z</time>
      </trkpt>
      <trkpt lat="45.98808" lon="4.87608">
        <ele>271</ele>
        <time>2018-07-05T09:46:44Z</time>
      </trkpt>
      <trkpt lat="45.98807" lon="4.87605">
        <ele>271</ele>
        <time>2018-07-05T09:46:45Z</time>
      </trkpt>
      <trkpt lat="45.98804" lon="4.87593">
        <ele>271</ele>
        <time>2018-07-05T09:46:49Z</time>
      </trkpt>
      <trkpt lat="45.98804" lon="4.87592">
        <ele>271</ele>
        <time>2018-07-05T09:46:50Z</time>
      </trkpt>
      <trkpt lat="45.98801" lon="4.8759">
        <ele>271</ele>
        <time>2018-07-05T09:46:56Z</time>
      </trkpt>
      <trkpt lat="45.98801" lon="4.87591">
        <ele>271</ele>
        <time>2018-07-05T09:46:57Z</time>
      </trkpt>
      <trkpt lat="45.98793" lon="4.87591">
        <ele>271</ele>
        <time>2018-07-05T09:47:23Z</time>
      </trkpt>
      <trkpt lat="45.98793" lon="4.8759">
        <ele>271</ele>
        <time>2018-07-05T09:47:24Z</time>
      </trkpt>
      <trkpt lat="45.98788" lon="4.87584">
        <ele>271</ele>
        <time>2018-07-05T09:47:27Z</time>
      </trkpt>
      <trkpt lat="45.98781" lon="4.87574">
        <ele>269</ele>
        <time>2018-07-05T09:47:28Z</time>
      </trkpt>
      <trkpt lat="45.98777" lon="4.8757">
        <ele>269</ele>
        <time>2018-07-05T09:47:29Z</time>
      </trkpt>
      <trkpt lat="45.98773" lon="4.87566">
        <ele>269</ele>
        <time>2018-07-05T09:47:30Z</time>
      </trkpt>
      <trkpt lat="45.98768" lon="4.87563">
        <ele>269</ele>
        <time>2018-07-05T09:47:31Z</time>
      </trkpt>
      <trkpt lat="45.98764" lon="4.8756">
        <ele>269</ele>
        <time>2018-07-05T09:47:32Z</time>
      </trkpt>
      <trkpt lat="45.98759" lon="4.87557">
        <ele>269</ele>
        <time>2018-07-05T09:47:34Z</time>
      </trkpt>
      <trkpt lat="45.98749" lon="4.87555">
        <ele>267</ele>
        <time>2018-07-05T09:47:35Z</time>
      </trkpt>
      <trkpt lat="45.98742" lon="4.87553">
        <ele>267</ele>
        <time>2018-07-05T09:47:36Z</time>
      </trkpt>
      <trkpt lat="45.98738" lon="4.87553">
        <ele>267</ele>
        <time>2018-07-05T09:47:37Z</time>
      </trkpt>
      <trkpt lat="45.9873" lon="4.87554">
        <ele>267</ele>
        <time>2018-07-05T09:47:38Z</time>
      </trkpt>
      <trkpt lat="45.98727" lon="4.87555">
        <ele>267</ele>
        <time>2018-07-05T09:47:39Z</time>
      </trkpt>
      <trkpt lat="45.98721" lon="4.87556">
        <ele>267</ele>
        <time>2018-07-05T09:47:40Z</time>
      </trkpt>
      <trkpt lat="45.98714" lon="4.87558">
        <ele>267</ele>
        <time>2018-07-05T09:47:41Z</time>
      </trkpt>
      <trkpt lat="45.98706" lon="4.8756">
        <ele>267</ele>
        <time>2018-07-05T09:47:42Z</time>
      </trkpt>
      <trkpt lat="45.98701" lon="4.87561">
        <ele>267</ele>
        <time>2018-07-05T09:47:43Z</time>
      </trkpt>
      <trkpt lat="45.98695" lon="4.87564">
        <ele>267</ele>
        <time>2018-07-05T09:47:44Z</time>
      </trkpt>
      <trkpt lat="45.9869" lon="4.87565">
        <ele>267</ele>
        <time>2018-07-05T09:47:45Z</time>
      </trkpt>
      <trkpt lat="45.98684" lon="4.87567">
        <ele>267</ele>
        <time>2018-07-05T09:47:46Z</time>
      </trkpt>
      <trkpt lat="45.98679" lon="4.87569">
        <ele>267</ele>
        <time>2018-07-05T09:47:47Z</time>
      </trkpt>
      <trkpt lat="45.98671" lon="4.87572">
        <ele>267</ele>
        <time>2018-07-05T09:47:49Z</time>
      </trkpt>
      <trkpt lat="45.98666" lon="4.87572">
        <ele>267</ele>
        <time>2018-07-05T09:47:50Z</time>
      </trkpt>
      <trkpt lat="45.9866" lon="4.8757">
        <ele>267</ele>
        <time>2018-07-05T09:47:51Z</time>
      </trkpt>
      <trkpt lat="45.98656" lon="4.87566">
        <ele>267</ele>
        <time>2018-07-05T09:47:52Z</time>
      </trkpt>
      <trkpt lat="45.98651" lon="4.87558">
        <ele>267</ele>
        <time>2018-07-05T09:47:54Z</time>
      </trkpt>
      <trkpt lat="45.98647" lon="4.87551">
        <ele>267</ele>
        <time>2018-07-05T09:47:55Z</time>
      </trkpt>
      <trkpt lat="45.98644" lon="4.87547">
        <ele>267</ele>
        <time>2018-07-05T09:47:56Z</time>
      </trkpt>
      <trkpt lat="45.98638" lon="4.87542">
        <ele>267</ele>
        <time>2018-07-05T09:47:57Z</time>
      </trkpt>
      <trkpt lat="45.98639" lon="4.87534">
        <ele>267</ele>
        <time>2018-07-05T09:47:58Z</time>
      </trkpt>
      <trkpt lat="45.98636" lon="4.87525">
        <ele>267</ele>
        <time>2018-07-05T09:47:59Z</time>
      </trkpt>
      <trkpt lat="45.98638" lon="4.8752">
        <ele>267</ele>
        <time>2018-07-05T09:48:00Z</time>
      </trkpt>
      <trkpt lat="45.9864" lon="4.87513">
        <ele>267</ele>
        <time>2018-07-05T09:48:01Z</time>
      </trkpt>
      <trkpt lat="45.98636" lon="4.87507">
        <ele>267</ele>
        <time>2018-07-05T09:48:02Z</time>
      </trkpt>
      <trkpt lat="45.98635" lon="4.87501">
        <ele>267</ele>
        <time>2018-07-05T09:48:03Z</time>
      </trkpt>
      <trkpt lat="45.98633" lon="4.87493">
        <ele>268</ele>
        <time>2018-07-05T09:48:04Z</time>
      </trkpt>
      <trkpt lat="45.9863" lon="4.87485">
        <ele>268</ele>
        <time>2018-07-05T09:48:05Z</time>
      </trkpt>
      <trkpt lat="45.98628" lon="4.87479">
        <ele>268</ele>
        <time>2018-07-05T09:48:06Z</time>
      </trkpt>
      <trkpt lat="45.98627" lon="4.87472">
        <ele>268</ele>
        <time>2018-07-05T09:48:07Z</time>
      </trkpt>
      <trkpt lat="45.98627" lon="4.8746">
        <ele>268</ele>
        <time>2018-07-05T09:48:09Z</time>
      </trkpt>
      <trkpt lat="45.98623" lon="4.87452">
        <ele>268</ele>
        <time>2018-07-05T09:48:10Z</time>
      </trkpt>
      <trkpt lat="45.98622" lon="4.87446">
        <ele>269</ele>
        <time>2018-07-05T09:48:11Z</time>
      </trkpt>
      <trkpt lat="45.98621" lon="4.87439">
        <ele>269</ele>
        <time>2018-07-05T09:48:12Z</time>
      </trkpt>
      <trkpt lat="45.9862" lon="4.87427">
        <ele>269</ele>
        <time>2018-07-05T09:48:14Z</time>
      </trkpt>
      <trkpt lat="45.9862" lon="4.8742">
        <ele>269</ele>
        <time>2018-07-05T09:48:15Z</time>
      </trkpt>
      <trkpt lat="45.98619" lon="4.87413">
        <ele>271</ele>
        <time>2018-07-05T09:48:16Z</time>
      </trkpt>
      <trkpt lat="45.98617" lon="4.87406">
        <ele>271</ele>
        <time>2018-07-05T09:48:17Z</time>
      </trkpt>
      <trkpt lat="45.98615" lon="4.87395">
        <ele>271</ele>
        <time>2018-07-05T09:48:19Z</time>
      </trkpt>
      <trkpt lat="45.98614" lon="4.87389">
        <ele>271</ele>
        <time>2018-07-05T09:48:20Z</time>
      </trkpt>
      <trkpt lat="45.98611" lon="4.87381">
        <ele>271</ele>
        <time>2018-07-05T09:48:21Z</time>
      </trkpt>
      <trkpt lat="45.9861" lon="4.87375">
        <ele>271</ele>
        <time>2018-07-05T09:48:22Z</time>
      </trkpt>
      <trkpt lat="45.98608" lon="4.87368">
        <ele>272</ele>
        <time>2018-07-05T09:48:23Z</time>
      </trkpt>
      <trkpt lat="45.98607" lon="4.87362">
        <ele>272</ele>
        <time>2018-07-05T09:48:24Z</time>
      </trkpt>
      <trkpt lat="45.98605" lon="4.87349">
        <ele>272</ele>
        <time>2018-07-05T09:48:26Z</time>
      </trkpt>
      <trkpt lat="45.98604" lon="4.87343">
        <ele>272</ele>
        <time>2018-07-05T09:48:27Z</time>
      </trkpt>
      <trkpt lat="45.98603" lon="4.87331">
        <ele>274</ele>
        <time>2018-07-05T09:48:29Z</time>
      </trkpt>
      <trkpt lat="45.98604" lon="4.87325">
        <ele>274</ele>
        <time>2018-07-05T09:48:30Z</time>
      </trkpt>
      <trkpt lat="45.98605" lon="4.87313">
        <ele>274</ele>
        <time>2018-07-05T09:48:32Z</time>
      </trkpt>
      <trkpt lat="45.98604" lon="4.87307">
        <ele>274</ele>
        <time>2018-07-05T09:48:33Z</time>
      </trkpt>
      <trkpt lat="45.98606" lon="4.87301">
        <ele>274</ele>
        <time>2018-07-05T09:48:34Z</time>
      </trkpt>
      <trkpt lat="45.98608" lon="4.87296">
        <ele>275</ele>
        <time>2018-07-05T09:48:35Z</time>
      </trkpt>
      <trkpt lat="45.98606" lon="4.87289">
        <ele>275</ele>
        <time>2018-07-05T09:48:36Z</time>
      </trkpt>
      <trkpt lat="45.98607" lon="4.87282">
        <ele>275</ele>
        <time>2018-07-05T09:48:37Z</time>
      </trkpt>
      <trkpt lat="45.98606" lon="4.87273">
        <ele>275</ele>
        <time>2018-07-05T09:48:38Z</time>
      </trkpt>
      <trkpt lat="45.98609" lon="4.87265">
        <ele>275</ele>
        <time>2018-07-05T09:48:39Z</time>
      </trkpt>
      <trkpt lat="45.98613" lon="4.87256">
        <ele>275</ele>
        <time>2018-07-05T09:48:41Z</time>
      </trkpt>
      <trkpt lat="45.98615" lon="4.87254">
        <ele>275</ele>
        <time>2018-07-05T09:48:42Z</time>
      </trkpt>
      <trkpt lat="45.98616" lon="4.87244">
        <ele>277</ele>
        <time>2018-07-05T09:48:45Z</time>
      </trkpt>
      <trkpt lat="45.98615" lon="4.8724">
        <ele>277</ele>
        <time>2018-07-05T09:48:46Z</time>
      </trkpt>
      <trkpt lat="45.98614" lon="4.87226">
        <ele>277</ele>
        <time>2018-07-05T09:48:47Z</time>
      </trkpt>
      <trkpt lat="45.98615" lon="4.87215">
        <ele>277</ele>
        <time>2018-07-05T09:48:49Z</time>
      </trkpt>
      <trkpt lat="45.98615" lon="4.87205">
        <ele>277</ele>
        <time>2018-07-05T09:48:50Z</time>
      </trkpt>
      <trkpt lat="45.98613" lon="4.87196">
        <ele>277</ele>
        <time>2018-07-05T09:48:51Z</time>
      </trkpt>
      <trkpt lat="45.98612" lon="4.87189">
        <ele>278</ele>
        <time>2018-07-05T09:48:52Z</time>
      </trkpt>
      <trkpt lat="45.98612" lon="4.87184">
        <ele>278</ele>
        <time>2018-07-05T09:48:53Z</time>
      </trkpt>
      <trkpt lat="45.98611" lon="4.87172">
        <ele>278</ele>
        <time>2018-07-05T09:48:54Z</time>
      </trkpt>
      <trkpt lat="45.98608" lon="4.87164">
        <ele>278</ele>
        <time>2018-07-05T09:48:55Z</time>
      </trkpt>
      <trkpt lat="45.98608" lon="4.87158">
        <ele>278</ele>
        <time>2018-07-05T09:48:56Z</time>
      </trkpt>
      <trkpt lat="45.9861" lon="4.8715">
        <ele>278</ele>
        <time>2018-07-05T09:48:57Z</time>
      </trkpt>
      <trkpt lat="45.98611" lon="4.87145">
        <ele>278</ele>
        <time>2018-07-05T09:48:58Z</time>
      </trkpt>
      <trkpt lat="45.98613" lon="4.87138">
        <ele>279</ele>
        <time>2018-07-05T09:48:59Z</time>
      </trkpt>
      <trkpt lat="45.98618" lon="4.87131">
        <ele>279</ele>
        <time>2018-07-05T09:49:00Z</time>
      </trkpt>
      <trkpt lat="45.98615" lon="4.87124">
        <ele>279</ele>
        <time>2018-07-05T09:49:01Z</time>
      </trkpt>
      <trkpt lat="45.98614" lon="4.87118">
        <ele>279</ele>
        <time>2018-07-05T09:49:02Z</time>
      </trkpt>
      <trkpt lat="45.98616" lon="4.87105">
        <ele>279</ele>
        <time>2018-07-05T09:49:04Z</time>
      </trkpt>
      <trkpt lat="45.98617" lon="4.87098">
        <ele>279</ele>
        <time>2018-07-05T09:49:05Z</time>
      </trkpt>
      <trkpt lat="45.98617" lon="4.87092">
        <ele>279</ele>
        <time>2018-07-05T09:49:06Z</time>
      </trkpt>
      <trkpt lat="45.98613" lon="4.87082">
        <ele>279</ele>
        <time>2018-07-05T09:49:07Z</time>
      </trkpt>
      <trkpt lat="45.98614" lon="4.87079">
        <ele>279</ele>
        <time>2018-07-05T09:49:08Z</time>
      </trkpt>
      <trkpt lat="45.9861" lon="4.87069">
        <ele>279</ele>
        <time>2018-07-05T09:49:09Z</time>
      </trkpt>
      <trkpt lat="45.98608" lon="4.87057">
        <ele>279</ele>
        <time>2018-07-05T09:49:11Z</time>
      </trkpt>
      <trkpt lat="45.98605" lon="4.8705">
        <ele>279</ele>
        <time>2018-07-05T09:49:12Z</time>
      </trkpt>
      <trkpt lat="45.98605" lon="4.87043">
        <ele>279</ele>
        <time>2018-07-05T09:49:13Z</time>
      </trkpt>
      <trkpt lat="45.98602" lon="4.87035">
        <ele>279</ele>
        <time>2018-07-05T09:49:14Z</time>
      </trkpt>
      <trkpt lat="45.986" lon="4.87028">
        <ele>279</ele>
        <time>2018-07-05T09:49:15Z</time>
      </trkpt>
      <trkpt lat="45.98599" lon="4.87022">
        <ele>279</ele>
        <time>2018-07-05T09:49:16Z</time>
      </trkpt>
      <trkpt lat="45.98599" lon="4.87015">
        <ele>279</ele>
        <time>2018-07-05T09:49:17Z</time>
      </trkpt>
      <trkpt lat="45.98596" lon="4.87007">
        <ele>279</ele>
        <time>2018-07-05T09:49:18Z</time>
      </trkpt>
      <trkpt lat="45.98594" lon="4.87">
        <ele>279</ele>
        <time>2018-07-05T09:49:19Z</time>
      </trkpt>
      <trkpt lat="45.98593" lon="4.86992">
        <ele>279</ele>
        <time>2018-07-05T09:49:20Z</time>
      </trkpt>
      <trkpt lat="45.98591" lon="4.86984">
        <ele>279</ele>
        <time>2018-07-05T09:49:21Z</time>
      </trkpt>
      <trkpt lat="45.9859" lon="4.86977">
        <ele>279</ele>
        <time>2018-07-05T09:49:22Z</time>
      </trkpt>
      <trkpt lat="45.9859" lon="4.8697">
        <ele>279</ele>
        <time>2018-07-05T09:49:23Z</time>
      </trkpt>
      <trkpt lat="45.98589" lon="4.86963">
        <ele>279</ele>
        <time>2018-07-05T09:49:24Z</time>
      </trkpt>
      <trkpt lat="45.98589" lon="4.86957">
        <ele>279</ele>
        <time>2018-07-05T09:49:25Z</time>
      </trkpt>
      <trkpt lat="45.9859" lon="4.8695">
        <ele>278</ele>
        <time>2018-07-05T09:49:26Z</time>
      </trkpt>
      <trkpt lat="45.98589" lon="4.86942">
        <ele>279</ele>
        <time>2018-07-05T09:49:27Z</time>
      </trkpt>
      <trkpt lat="45.98589" lon="4.86935">
        <ele>279</ele>
        <time>2018-07-05T09:49:28Z</time>
      </trkpt>
      <trkpt lat="45.98588" lon="4.86929">
        <ele>279</ele>
        <time>2018-07-05T09:49:29Z</time>
      </trkpt>
      <trkpt lat="45.98589" lon="4.86922">
        <ele>279</ele>
        <time>2018-07-05T09:49:30Z</time>
      </trkpt>
      <trkpt lat="45.98587" lon="4.86916">
        <ele>279</ele>
        <time>2018-07-05T09:49:31Z</time>
      </trkpt>
      <trkpt lat="45.98587" lon="4.86909">
        <ele>278</ele>
        <time>2018-07-05T09:49:32Z</time>
      </trkpt>
      <trkpt lat="45.98587" lon="4.86902">
        <ele>278</ele>
        <time>2018-07-05T09:49:33Z</time>
      </trkpt>
      <trkpt lat="45.98586" lon="4.86895">
        <ele>278</ele>
        <time>2018-07-05T09:49:34Z</time>
      </trkpt>
      <trkpt lat="45.98587" lon="4.86888">
        <ele>278</ele>
        <time>2018-07-05T09:49:35Z</time>
      </trkpt>
      <trkpt lat="45.98588" lon="4.86882">
        <ele>278</ele>
        <time>2018-07-05T09:49:36Z</time>
      </trkpt>
      <trkpt lat="45.98587" lon="4.86875">
        <ele>277</ele>
        <time>2018-07-05T09:49:37Z</time>
      </trkpt>
      <trkpt lat="45.98587" lon="4.86869">
        <ele>277</ele>
        <time>2018-07-05T09:49:38Z</time>
      </trkpt>
      <trkpt lat="45.98586" lon="4.86862">
        <ele>277</ele>
        <time>2018-07-05T09:49:39Z</time>
      </trkpt>
      <trkpt lat="45.98586" lon="4.86854">
        <ele>277</ele>
        <time>2018-07-05T09:49:40Z</time>
      </trkpt>
      <trkpt lat="45.98584" lon="4.86847">
        <ele>277</ele>
        <time>2018-07-05T09:49:41Z</time>
      </trkpt>
      <trkpt lat="45.98584" lon="4.8684">
        <ele>277</ele>
        <time>2018-07-05T09:49:42Z</time>
      </trkpt>
      <trkpt lat="45.98584" lon="4.86828">
        <ele>277</ele>
        <time>2018-07-05T09:49:44Z</time>
      </trkpt>
      <trkpt lat="45.98585" lon="4.86823">
        <ele>277</ele>
        <time>2018-07-05T09:49:45Z</time>
      </trkpt>
      <trkpt lat="45.98584" lon="4.86816">
        <ele>276</ele>
        <time>2018-07-05T09:49:46Z</time>
      </trkpt>
      <trkpt lat="45.98582" lon="4.8681">
        <ele>277</ele>
        <time>2018-07-05T09:49:47Z</time>
      </trkpt>
      <trkpt lat="45.98581" lon="4.86797">
        <ele>277</ele>
        <time>2018-07-05T09:49:49Z</time>
      </trkpt>
      <trkpt lat="45.98579" lon="4.86791">
        <ele>277</ele>
        <time>2018-07-05T09:49:50Z</time>
      </trkpt>
      <trkpt lat="45.98578" lon="4.86785">
        <ele>277</ele>
        <time>2018-07-05T09:49:51Z</time>
      </trkpt>
      <trkpt lat="45.98577" lon="4.86776">
        <ele>277</ele>
        <time>2018-07-05T09:49:52Z</time>
      </trkpt>
      <trkpt lat="45.98575" lon="4.86768">
        <ele>277</ele>
        <time>2018-07-05T09:49:53Z</time>
      </trkpt>
      <trkpt lat="45.98573" lon="4.86761">
        <ele>277</ele>
        <time>2018-07-05T09:49:54Z</time>
      </trkpt>
      <trkpt lat="45.98573" lon="4.86753">
        <ele>277</ele>
        <time>2018-07-05T09:49:55Z</time>
      </trkpt>
      <trkpt lat="45.98572" lon="4.86745">
        <ele>277</ele>
        <time>2018-07-05T09:49:56Z</time>
      </trkpt>
      <trkpt lat="45.98571" lon="4.86738">
        <ele>277</ele>
        <time>2018-07-05T09:49:57Z</time>
      </trkpt>
      <trkpt lat="45.98569" lon="4.8673">
        <ele>277</ele>
        <time>2018-07-05T09:49:58Z</time>
      </trkpt>
      <trkpt lat="45.98568" lon="4.86722">
        <ele>277</ele>
        <time>2018-07-05T09:49:59Z</time>
      </trkpt>
      <trkpt lat="45.98568" lon="4.86715">
        <ele>277</ele>
        <time>2018-07-05T09:50:00Z</time>
      </trkpt>
      <trkpt lat="45.98568" lon="4.86708">
        <ele>277</ele>
        <time>2018-07-05T09:50:01Z</time>
      </trkpt>
      <trkpt lat="45.98571" lon="4.86701">
        <ele>277</ele>
        <time>2018-07-05T09:50:02Z</time>
      </trkpt>
      <trkpt lat="45.98571" lon="4.86694">
        <ele>277</ele>
        <time>2018-07-05T09:50:03Z</time>
      </trkpt>
      <trkpt lat="45.98571" lon="4.86686">
        <ele>277</ele>
        <time>2018-07-05T09:50:04Z</time>
      </trkpt>
      <trkpt lat="45.98569" lon="4.86679">
        <ele>276</ele>
        <time>2018-07-05T09:50:05Z</time>
      </trkpt>
      <trkpt lat="45.98567" lon="4.86672">
        <ele>276</ele>
        <time>2018-07-05T09:50:06Z</time>
      </trkpt>
      <trkpt lat="45.98568" lon="4.86665">
        <ele>277</ele>
        <time>2018-07-05T09:50:07Z</time>
      </trkpt>
      <trkpt lat="45.98566" lon="4.86658">
        <ele>277</ele>
        <time>2018-07-05T09:50:08Z</time>
      </trkpt>
      <trkpt lat="45.98565" lon="4.86651">
        <ele>277</ele>
        <time>2018-07-05T09:50:09Z</time>
      </trkpt>
      <trkpt lat="45.98564" lon="4.86643">
        <ele>277</ele>
        <time>2018-07-05T09:50:10Z</time>
      </trkpt>
      <trkpt lat="45.98563" lon="4.86635">
        <ele>277</ele>
        <time>2018-07-05T09:50:11Z</time>
      </trkpt>
      <trkpt lat="45.98562" lon="4.86627">
        <ele>278</ele>
        <time>2018-07-05T09:50:12Z</time>
      </trkpt>
      <trkpt lat="45.98561" lon="4.86619">
        <ele>278</ele>
        <time>2018-07-05T09:50:13Z</time>
      </trkpt>
      <trkpt lat="45.9856" lon="4.86611">
        <ele>278</ele>
        <time>2018-07-05T09:50:14Z</time>
      </trkpt>
      <trkpt lat="45.98558" lon="4.86604">
        <ele>278</ele>
        <time>2018-07-05T09:50:15Z</time>
      </trkpt>
      <trkpt lat="45.98555" lon="4.86597">
        <ele>278</ele>
        <time>2018-07-05T09:50:16Z</time>
      </trkpt>
      <trkpt lat="45.98554" lon="4.8659">
        <ele>278</ele>
        <time>2018-07-05T09:50:17Z</time>
      </trkpt>
      <trkpt lat="45.98551" lon="4.86583">
        <ele>278</ele>
        <time>2018-07-05T09:50:18Z</time>
      </trkpt>
      <trkpt lat="45.9855" lon="4.86577">
        <ele>278</ele>
        <time>2018-07-05T09:50:19Z</time>
      </trkpt>
      <trkpt lat="45.98547" lon="4.8657">
        <ele>278</ele>
        <time>2018-07-05T09:50:20Z</time>
      </trkpt>
      <trkpt lat="45.98545" lon="4.86564">
        <ele>278</ele>
        <time>2018-07-05T09:50:21Z</time>
      </trkpt>
      <trkpt lat="45.98543" lon="4.86558">
        <ele>278</ele>
        <time>2018-07-05T09:50:22Z</time>
      </trkpt>
      <trkpt lat="45.9854" lon="4.86552">
        <ele>278</ele>
        <time>2018-07-05T09:50:23Z</time>
      </trkpt>
      <trkpt lat="45.98537" lon="4.86545">
        <ele>278</ele>
        <time>2018-07-05T09:50:24Z</time>
      </trkpt>
      <trkpt lat="45.98534" lon="4.86539">
        <ele>278</ele>
        <time>2018-07-05T09:50:25Z</time>
      </trkpt>
      <trkpt lat="45.9853" lon="4.86534">
        <ele>279</ele>
        <time>2018-07-05T09:50:26Z</time>
      </trkpt>
      <trkpt lat="45.98527" lon="4.86529">
        <ele>279</ele>
        <time>2018-07-05T09:50:27Z</time>
      </trkpt>
      <trkpt lat="45.98525" lon="4.86523">
        <ele>279</ele>
        <time>2018-07-05T09:50:28Z</time>
      </trkpt>
      <trkpt lat="45.98522" lon="4.86516">
        <ele>279</ele>
        <time>2018-07-05T09:50:29Z</time>
      </trkpt>
      <trkpt lat="45.98519" lon="4.8651">
        <ele>279</ele>
        <time>2018-07-05T09:50:30Z</time>
      </trkpt>
      <trkpt lat="45.98517" lon="4.86505">
        <ele>279</ele>
        <time>2018-07-05T09:50:31Z</time>
      </trkpt>
      <trkpt lat="45.98514" lon="4.86499">
        <ele>279</ele>
        <time>2018-07-05T09:50:32Z</time>
      </trkpt>
      <trkpt lat="45.98512" lon="4.86494">
        <ele>279</ele>
        <time>2018-07-05T09:50:33Z</time>
      </trkpt>
      <trkpt lat="45.9851" lon="4.86487">
        <ele>279</ele>
        <time>2018-07-05T09:50:34Z</time>
      </trkpt>
      <trkpt lat="45.98506" lon="4.86477">
        <ele>278</ele>
        <time>2018-07-05T09:50:36Z</time>
      </trkpt>
      <trkpt lat="45.98504" lon="4.86471">
        <ele>278</ele>
        <time>2018-07-05T09:50:37Z</time>
      </trkpt>
      <trkpt lat="45.98501" lon="4.86465">
        <ele>278</ele>
        <time>2018-07-05T09:50:38Z</time>
      </trkpt>
      <trkpt lat="45.98497" lon="4.8646">
        <ele>278</ele>
        <time>2018-07-05T09:50:39Z</time>
      </trkpt>
      <trkpt lat="45.98494" lon="4.86451">
        <ele>278</ele>
        <time>2018-07-05T09:50:40Z</time>
      </trkpt>
      <trkpt lat="45.98489" lon="4.86446">
        <ele>278</ele>
        <time>2018-07-05T09:50:41Z</time>
      </trkpt>
      <trkpt lat="45.98485" lon="4.86439">
        <ele>278</ele>
        <time>2018-07-05T09:50:42Z</time>
      </trkpt>
      <trkpt lat="45.98483" lon="4.86435">
        <ele>278</ele>
        <time>2018-07-05T09:50:43Z</time>
      </trkpt>
      <trkpt lat="45.98482" lon="4.86432">
        <ele>278</ele>
        <time>2018-07-05T09:50:44Z</time>
      </trkpt>
      <trkpt lat="45.98479" lon="4.86423">
        <ele>278</ele>
        <time>2018-07-05T09:50:45Z</time>
      </trkpt>
      <trkpt lat="45.98476" lon="4.86413">
        <ele>277</ele>
        <time>2018-07-05T09:50:47Z</time>
      </trkpt>
      <trkpt lat="45.98473" lon="4.86407">
        <ele>277</ele>
        <time>2018-07-05T09:50:48Z</time>
      </trkpt>
      <trkpt lat="45.98471" lon="4.86397">
        <ele>277</ele>
        <time>2018-07-05T09:50:50Z</time>
      </trkpt>
      <trkpt lat="45.98469" lon="4.8639">
        <ele>277</ele>
        <time>2018-07-05T09:50:51Z</time>
      </trkpt>
      <trkpt lat="45.98462" lon="4.86384">
        <ele>277</ele>
        <time>2018-07-05T09:50:52Z</time>
      </trkpt>
      <trkpt lat="45.98462" lon="4.86378">
        <ele>277</ele>
        <time>2018-07-05T09:50:53Z</time>
      </trkpt>
      <trkpt lat="45.98461" lon="4.86372">
        <ele>277</ele>
        <time>2018-07-05T09:50:54Z</time>
      </trkpt>
      <trkpt lat="45.98458" lon="4.86365">
        <ele>277</ele>
        <time>2018-07-05T09:50:55Z</time>
      </trkpt>
      <trkpt lat="45.98456" lon="4.86358">
        <ele>277</ele>
        <time>2018-07-05T09:50:56Z</time>
      </trkpt>
      <trkpt lat="45.98453" lon="4.86352">
        <ele>277</ele>
        <time>2018-07-05T09:50:57Z</time>
      </trkpt>
      <trkpt lat="45.98452" lon="4.86339">
        <ele>277</ele>
        <time>2018-07-05T09:50:59Z</time>
      </trkpt>
      <trkpt lat="45.98449" lon="4.86332">
        <ele>276</ele>
        <time>2018-07-05T09:51:00Z</time>
      </trkpt>
      <trkpt lat="45.98446" lon="4.86324">
        <ele>276</ele>
        <time>2018-07-05T09:51:01Z</time>
      </trkpt>
      <trkpt lat="45.98445" lon="4.86318">
        <ele>276</ele>
        <time>2018-07-05T09:51:02Z</time>
      </trkpt>
      <trkpt lat="45.98443" lon="4.8631">
        <ele>276</ele>
        <time>2018-07-05T09:51:03Z</time>
      </trkpt>
      <trkpt lat="45.98441" lon="4.86303">
        <ele>276</ele>
        <time>2018-07-05T09:51:04Z</time>
      </trkpt>
      <trkpt lat="45.98439" lon="4.86296">
        <ele>276</ele>
        <time>2018-07-05T09:51:05Z</time>
      </trkpt>
      <trkpt lat="45.98436" lon="4.8629">
        <ele>276</ele>
        <time>2018-07-05T09:51:06Z</time>
      </trkpt>
      <trkpt lat="45.98435" lon="4.86283">
        <ele>276</ele>
        <time>2018-07-05T09:51:07Z</time>
      </trkpt>
      <trkpt lat="45.98434" lon="4.86276">
        <ele>276</ele>
        <time>2018-07-05T09:51:08Z</time>
      </trkpt>
      <trkpt lat="45.98435" lon="4.86265">
        <ele>275</ele>
        <time>2018-07-05T09:51:10Z</time>
      </trkpt>
      <trkpt lat="45.98435" lon="4.86259">
        <ele>275</ele>
        <time>2018-07-05T09:51:11Z</time>
      </trkpt>
      <trkpt lat="45.98437" lon="4.86249">
        <ele>275</ele>
        <time>2018-07-05T09:51:13Z</time>
      </trkpt>
      <trkpt lat="45.9844" lon="4.86248">
        <ele>275</ele>
        <time>2018-07-05T09:51:14Z</time>
      </trkpt>
      <trkpt lat="45.98441" lon="4.86238">
        <ele>275</ele>
        <time>2018-07-05T09:51:16Z</time>
      </trkpt>
      <trkpt lat="45.98443" lon="4.86231">
        <ele>275</ele>
        <time>2018-07-05T09:51:17Z</time>
      </trkpt>
      <trkpt lat="45.98439" lon="4.86219">
        <ele>275</ele>
        <time>2018-07-05T09:51:20Z</time>
      </trkpt>
      <trkpt lat="45.98437" lon="4.86211">
        <ele>275</ele>
        <time>2018-07-05T09:51:21Z</time>
      </trkpt>
      <trkpt lat="45.98435" lon="4.862">
        <ele>275</ele>
        <time>2018-07-05T09:51:23Z</time>
      </trkpt>
      <trkpt lat="45.98434" lon="4.86194">
        <ele>275</ele>
        <time>2018-07-05T09:51:24Z</time>
      </trkpt>
      <trkpt lat="45.98433" lon="4.86188">
        <ele>275</ele>
        <time>2018-07-05T09:51:25Z</time>
      </trkpt>
      <trkpt lat="45.98432" lon="4.86181">
        <ele>275</ele>
        <time>2018-07-05T09:51:26Z</time>
      </trkpt>
      <trkpt lat="45.9843" lon="4.86169">
        <ele>275</ele>
        <time>2018-07-05T09:51:28Z</time>
      </trkpt>
      <trkpt lat="45.9843" lon="4.86164">
        <ele>276</ele>
        <time>2018-07-05T09:51:29Z</time>
      </trkpt>
      <trkpt lat="45.98428" lon="4.86152">
        <ele>275</ele>
        <time>2018-07-05T09:51:31Z</time>
      </trkpt>
      <trkpt lat="45.98426" lon="4.86146">
        <ele>275</ele>
        <time>2018-07-05T09:51:32Z</time>
      </trkpt>
      <trkpt lat="45.98424" lon="4.86138">
        <ele>275</ele>
        <time>2018-07-05T09:51:33Z</time>
      </trkpt>
      <trkpt lat="45.98423" lon="4.86131">
        <ele>275</ele>
        <time>2018-07-05T09:51:34Z</time>
      </trkpt>
      <trkpt lat="45.98422" lon="4.86124">
        <ele>276</ele>
        <time>2018-07-05T09:51:35Z</time>
      </trkpt>
      <trkpt lat="45.98422" lon="4.86117">
        <ele>276</ele>
        <time>2018-07-05T09:51:36Z</time>
      </trkpt>
      <trkpt lat="45.9842" lon="4.86108">
        <ele>276</ele>
        <time>2018-07-05T09:51:37Z</time>
      </trkpt>
      <trkpt lat="45.98419" lon="4.861">
        <ele>276</ele>
        <time>2018-07-05T09:51:38Z</time>
      </trkpt>
      <trkpt lat="45.98416" lon="4.86091">
        <ele>277</ele>
        <time>2018-07-05T09:51:39Z</time>
      </trkpt>
      <trkpt lat="45.98413" lon="4.86081">
        <ele>277</ele>
        <time>2018-07-05T09:51:40Z</time>
      </trkpt>
      <trkpt lat="45.98412" lon="4.86073">
        <ele>277</ele>
        <time>2018-07-05T09:51:41Z</time>
      </trkpt>
      <trkpt lat="45.98409" lon="4.86065">
        <ele>277</ele>
        <time>2018-07-05T09:51:42Z</time>
      </trkpt>
      <trkpt lat="45.98406" lon="4.86055">
        <ele>277</ele>
        <time>2018-07-05T09:51:43Z</time>
      </trkpt>
      <trkpt lat="45.98403" lon="4.86045">
        <ele>277</ele>
        <time>2018-07-05T09:51:44Z</time>
      </trkpt>
      <trkpt lat="45.984" lon="4.86036">
        <ele>277</ele>
        <time>2018-07-05T09:51:45Z</time>
      </trkpt>
      <trkpt lat="45.98397" lon="4.86027">
        <ele>277</ele>
        <time>2018-07-05T09:51:46Z</time>
      </trkpt>
      <trkpt lat="45.98394" lon="4.86018">
        <ele>277</ele>
        <time>2018-07-05T09:51:47Z</time>
      </trkpt>
      <trkpt lat="45.98391" lon="4.8601">
        <ele>277</ele>
        <time>2018-07-05T09:51:48Z</time>
      </trkpt>
      <trkpt lat="45.98384" lon="4.86">
        <ele>277</ele>
        <time>2018-07-05T09:51:49Z</time>
      </trkpt>
      <trkpt lat="45.98381" lon="4.85992">
        <ele>277</ele>
        <time>2018-07-05T09:51:50Z</time>
      </trkpt>
      <trkpt lat="45.98377" lon="4.85986">
        <ele>276</ele>
        <time>2018-07-05T09:51:51Z</time>
      </trkpt>
      <trkpt lat="45.98375" lon="4.85979">
        <ele>276</ele>
        <time>2018-07-05T09:51:52Z</time>
      </trkpt>
      <trkpt lat="45.98371" lon="4.85972">
        <ele>276</ele>
        <time>2018-07-05T09:51:53Z</time>
      </trkpt>
      <trkpt lat="45.98368" lon="4.85964">
        <ele>276</ele>
        <time>2018-07-05T09:51:54Z</time>
      </trkpt>
      <trkpt lat="45.98363" lon="4.85957">
        <ele>276</ele>
        <time>2018-07-05T09:51:55Z</time>
      </trkpt>
      <trkpt lat="45.9836" lon="4.8595">
        <ele>276</ele>
        <time>2018-07-05T09:51:56Z</time>
      </trkpt>
      <trkpt lat="45.98358" lon="4.85943">
        <ele>276</ele>
        <time>2018-07-05T09:51:57Z</time>
      </trkpt>
      <trkpt lat="45.98354" lon="4.85937">
        <ele>276</ele>
        <time>2018-07-05T09:51:58Z</time>
      </trkpt>
      <trkpt lat="45.98349" lon="4.85929">
        <ele>276</ele>
        <time>2018-07-05T09:51:59Z</time>
      </trkpt>
      <trkpt lat="45.98343" lon="4.8592">
        <ele>276</ele>
        <time>2018-07-05T09:52:00Z</time>
      </trkpt>
      <trkpt lat="45.98338" lon="4.85911">
        <ele>276</ele>
        <time>2018-07-05T09:52:01Z</time>
      </trkpt>
      <trkpt lat="45.98332" lon="4.85904">
        <ele>276</ele>
        <time>2018-07-05T09:52:02Z</time>
      </trkpt>
      <trkpt lat="45.98332" lon="4.85898">
        <ele>276</ele>
        <time>2018-07-05T09:52:03Z</time>
      </trkpt>
      <trkpt lat="45.9833" lon="4.8589">
        <ele>276</ele>
        <time>2018-07-05T09:52:04Z</time>
      </trkpt>
      <trkpt lat="45.98323" lon="4.85883">
        <ele>276</ele>
        <time>2018-07-05T09:52:05Z</time>
      </trkpt>
      <trkpt lat="45.98321" lon="4.8587">
        <ele>276</ele>
        <time>2018-07-05T09:52:07Z</time>
      </trkpt>
      <trkpt lat="45.98318" lon="4.85863">
        <ele>276</ele>
        <time>2018-07-05T09:52:08Z</time>
      </trkpt>
      <trkpt lat="45.98314" lon="4.85853">
        <ele>276</ele>
        <time>2018-07-05T09:52:09Z</time>
      </trkpt>
      <trkpt lat="45.98311" lon="4.85845">
        <ele>276</ele>
        <time>2018-07-05T09:52:10Z</time>
      </trkpt>
      <trkpt lat="45.98309" lon="4.85838">
        <ele>276</ele>
        <time>2018-07-05T09:52:11Z</time>
      </trkpt>
      <trkpt lat="45.98306" lon="4.8583">
        <ele>275</ele>
        <time>2018-07-05T09:52:12Z</time>
      </trkpt>
      <trkpt lat="45.98302" lon="4.85823">
        <ele>275</ele>
        <time>2018-07-05T09:52:13Z</time>
      </trkpt>
      <trkpt lat="45.98302" lon="4.85817">
        <ele>275</ele>
        <time>2018-07-05T09:52:14Z</time>
      </trkpt>
      <trkpt lat="45.98299" lon="4.85811">
        <ele>275</ele>
        <time>2018-07-05T09:52:15Z</time>
      </trkpt>
      <trkpt lat="45.98297" lon="4.85804">
        <ele>275</ele>
        <time>2018-07-05T09:52:16Z</time>
      </trkpt>
      <trkpt lat="45.98295" lon="4.85797">
        <ele>275</ele>
        <time>2018-07-05T09:52:17Z</time>
      </trkpt>
      <trkpt lat="45.98294" lon="4.85788">
        <ele>275</ele>
        <time>2018-07-05T09:52:18Z</time>
      </trkpt>
      <trkpt lat="45.98292" lon="4.85782">
        <ele>275</ele>
        <time>2018-07-05T09:52:19Z</time>
      </trkpt>
      <trkpt lat="45.98289" lon="4.85776">
        <ele>275</ele>
        <time>2018-07-05T09:52:20Z</time>
      </trkpt>
      <trkpt lat="45.98286" lon="4.85769">
        <ele>275</ele>
        <time>2018-07-05T09:52:21Z</time>
      </trkpt>
      <trkpt lat="45.98282" lon="4.85761">
        <ele>275</ele>
        <time>2018-07-05T09:52:22Z</time>
      </trkpt>
      <trkpt lat="45.98279" lon="4.85755">
        <ele>275</ele>
        <time>2018-07-05T09:52:23Z</time>
      </trkpt>
      <trkpt lat="45.98277" lon="4.85748">
        <ele>274</ele>
        <time>2018-07-05T09:52:24Z</time>
      </trkpt>
      <trkpt lat="45.98275" lon="4.85742">
        <ele>274</ele>
        <time>2018-07-05T09:52:25Z</time>
      </trkpt>
      <trkpt lat="45.98272" lon="4.85735">
        <ele>274</ele>
        <time>2018-07-05T09:52:26Z</time>
      </trkpt>
      <trkpt lat="45.9827" lon="4.8573">
        <ele>275</ele>
        <time>2018-07-05T09:52:27Z</time>
      </trkpt>
      <trkpt lat="45.98267" lon="4.85723">
        <ele>275</ele>
        <time>2018-07-05T09:52:28Z</time>
      </trkpt>
      <trkpt lat="45.98264" lon="4.85717">
        <ele>275</ele>
        <time>2018-07-05T09:52:29Z</time>
      </trkpt>
      <trkpt lat="45.98262" lon="4.8571">
        <ele>275</ele>
        <time>2018-07-05T09:52:30Z</time>
      </trkpt>
      <trkpt lat="45.98264" lon="4.85701">
        <ele>275</ele>
        <time>2018-07-05T09:52:32Z</time>
      </trkpt>
      <trkpt lat="45.9826" lon="4.85695">
        <ele>275</ele>
        <time>2018-07-05T09:52:33Z</time>
      </trkpt>
      <trkpt lat="45.98256" lon="4.85688">
        <ele>275</ele>
        <time>2018-07-05T09:52:34Z</time>
      </trkpt>
      <trkpt lat="45.98254" lon="4.85681">
        <ele>275</ele>
        <time>2018-07-05T09:52:35Z</time>
      </trkpt>
      <trkpt lat="45.98251" lon="4.85674">
        <ele>276</ele>
        <time>2018-07-05T09:52:36Z</time>
      </trkpt>
      <trkpt lat="45.98248" lon="4.85667">
        <ele>276</ele>
        <time>2018-07-05T09:52:37Z</time>
      </trkpt>
      <trkpt lat="45.98245" lon="4.8566">
        <ele>276</ele>
        <time>2018-07-05T09:52:38Z</time>
      </trkpt>
      <trkpt lat="45.98243" lon="4.85652">
        <ele>276</ele>
        <time>2018-07-05T09:52:39Z</time>
      </trkpt>
      <trkpt lat="45.98239" lon="4.85645">
        <ele>277</ele>
        <time>2018-07-05T09:52:40Z</time>
      </trkpt>
      <trkpt lat="45.98235" lon="4.85638">
        <ele>277</ele>
        <time>2018-07-05T09:52:41Z</time>
      </trkpt>
      <trkpt lat="45.98233" lon="4.85632">
        <ele>277</ele>
        <time>2018-07-05T09:52:42Z</time>
      </trkpt>
      <trkpt lat="45.9823" lon="4.85625">
        <ele>277</ele>
        <time>2018-07-05T09:52:43Z</time>
      </trkpt>
      <trkpt lat="45.98227" lon="4.85619">
        <ele>277</ele>
        <time>2018-07-05T09:52:44Z</time>
      </trkpt>
      <trkpt lat="45.98226" lon="4.85612">
        <ele>277</ele>
        <time>2018-07-05T09:52:45Z</time>
      </trkpt>
      <trkpt lat="45.98223" lon="4.85606">
        <ele>277</ele>
        <time>2018-07-05T09:52:46Z</time>
      </trkpt>
      <trkpt lat="45.98221" lon="4.856">
        <ele>277</ele>
        <time>2018-07-05T09:52:47Z</time>
      </trkpt>
      <trkpt lat="45.98215" lon="4.85595">
        <ele>277</ele>
        <time>2018-07-05T09:52:48Z</time>
      </trkpt>
      <trkpt lat="45.98212" lon="4.85588">
        <ele>277</ele>
        <time>2018-07-05T09:52:49Z</time>
      </trkpt>
      <trkpt lat="45.98209" lon="4.8558">
        <ele>276</ele>
        <time>2018-07-05T09:52:50Z</time>
      </trkpt>
      <trkpt lat="45.98208" lon="4.85574">
        <ele>276</ele>
        <time>2018-07-05T09:52:51Z</time>
      </trkpt>
      <trkpt lat="45.98205" lon="4.85567">
        <ele>276</ele>
        <time>2018-07-05T09:52:52Z</time>
      </trkpt>
      <trkpt lat="45.98202" lon="4.8556">
        <ele>276</ele>
        <time>2018-07-05T09:52:53Z</time>
      </trkpt>
      <trkpt lat="45.98199" lon="4.85553">
        <ele>276</ele>
        <time>2018-07-05T09:52:54Z</time>
      </trkpt>
      <trkpt lat="45.98196" lon="4.85546">
        <ele>276</ele>
        <time>2018-07-05T09:52:55Z</time>
      </trkpt>
      <trkpt lat="45.98195" lon="4.85539">
        <ele>276</ele>
        <time>2018-07-05T09:52:56Z</time>
      </trkpt>
      <trkpt lat="45.98191" lon="4.85532">
        <ele>276</ele>
        <time>2018-07-05T09:52:57Z</time>
      </trkpt>
      <trkpt lat="45.98189" lon="4.85525">
        <ele>276</ele>
        <time>2018-07-05T09:52:58Z</time>
      </trkpt>
      <trkpt lat="45.98186" lon="4.85518">
        <ele>275</ele>
        <time>2018-07-05T09:52:59Z</time>
      </trkpt>
      <trkpt lat="45.98184" lon="4.85511">
        <ele>275</ele>
        <time>2018-07-05T09:53:00Z</time>
      </trkpt>
      <trkpt lat="45.98182" lon="4.85505">
        <ele>275</ele>
        <time>2018-07-05T09:53:01Z</time>
      </trkpt>
      <trkpt lat="45.98179" lon="4.85499">
        <ele>275</ele>
        <time>2018-07-05T09:53:02Z</time>
      </trkpt>
      <trkpt lat="45.98176" lon="4.85491">
        <ele>275</ele>
        <time>2018-07-05T09:53:03Z</time>
      </trkpt>
      <trkpt lat="45.98173" lon="4.85485">
        <ele>275</ele>
        <time>2018-07-05T09:53:04Z</time>
      </trkpt>
      <trkpt lat="45.9817" lon="4.85477">
        <ele>275</ele>
        <time>2018-07-05T09:53:05Z</time>
      </trkpt>
      <trkpt lat="45.98166" lon="4.8547">
        <ele>275</ele>
        <time>2018-07-05T09:53:06Z</time>
      </trkpt>
      <trkpt lat="45.98166" lon="4.85464">
        <ele>275</ele>
        <time>2018-07-05T09:53:07Z</time>
      </trkpt>
      <trkpt lat="45.98163" lon="4.85457">
        <ele>276</ele>
        <time>2018-07-05T09:53:08Z</time>
      </trkpt>
      <trkpt lat="45.98159" lon="4.8545">
        <ele>276</ele>
        <time>2018-07-05T09:53:09Z</time>
      </trkpt>
      <trkpt lat="45.98156" lon="4.85444">
        <ele>276</ele>
        <time>2018-07-05T09:53:10Z</time>
      </trkpt>
      <trkpt lat="45.98153" lon="4.85438">
        <ele>276</ele>
        <time>2018-07-05T09:53:11Z</time>
      </trkpt>
      <trkpt lat="45.98151" lon="4.85431">
        <ele>276</ele>
        <time>2018-07-05T09:53:12Z</time>
      </trkpt>
      <trkpt lat="45.98149" lon="4.85424">
        <ele>276</ele>
        <time>2018-07-05T09:53:13Z</time>
      </trkpt>
      <trkpt lat="45.98146" lon="4.85413">
        <ele>276</ele>
        <time>2018-07-05T09:53:15Z</time>
      </trkpt>
      <trkpt lat="45.98143" lon="4.85406">
        <ele>276</ele>
        <time>2018-07-05T09:53:16Z</time>
      </trkpt>
      <trkpt lat="45.98141" lon="4.85398">
        <ele>276</ele>
        <time>2018-07-05T09:53:17Z</time>
      </trkpt>
      <trkpt lat="45.98138" lon="4.8539">
        <ele>276</ele>
        <time>2018-07-05T09:53:18Z</time>
      </trkpt>
      <trkpt lat="45.98135" lon="4.85383">
        <ele>276</ele>
        <time>2018-07-05T09:53:19Z</time>
      </trkpt>
      <trkpt lat="45.98132" lon="4.85376">
        <ele>276</ele>
        <time>2018-07-05T09:53:20Z</time>
      </trkpt>
      <trkpt lat="45.98129" lon="4.85369">
        <ele>276</ele>
        <time>2018-07-05T09:53:21Z</time>
      </trkpt>
      <trkpt lat="45.98126" lon="4.85362">
        <ele>276</ele>
        <time>2018-07-05T09:53:22Z</time>
      </trkpt>
      <trkpt lat="45.98123" lon="4.85356">
        <ele>276</ele>
        <time>2018-07-05T09:53:23Z</time>
      </trkpt>
      <trkpt lat="45.98121" lon="4.8535">
        <ele>276</ele>
        <time>2018-07-05T09:53:24Z</time>
      </trkpt>
      <trkpt lat="45.98118" lon="4.85344">
        <ele>276</ele>
        <time>2018-07-05T09:53:25Z</time>
      </trkpt>
      <trkpt lat="45.98116" lon="4.85338">
        <ele>276</ele>
        <time>2018-07-05T09:53:26Z</time>
      </trkpt>
      <trkpt lat="45.98113" lon="4.85332">
        <ele>276</ele>
        <time>2018-07-05T09:53:27Z</time>
      </trkpt>
      <trkpt lat="45.98109" lon="4.85326">
        <ele>276</ele>
        <time>2018-07-05T09:53:28Z</time>
      </trkpt>
      <trkpt lat="45.98106" lon="4.85318">
        <ele>276</ele>
        <time>2018-07-05T09:53:29Z</time>
      </trkpt>
      <trkpt lat="45.98101" lon="4.85311">
        <ele>276</ele>
        <time>2018-07-05T09:53:30Z</time>
      </trkpt>
      <trkpt lat="45.98099" lon="4.85304">
        <ele>276</ele>
        <time>2018-07-05T09:53:31Z</time>
      </trkpt>
      <trkpt lat="45.98096" lon="4.85298">
        <ele>276</ele>
        <time>2018-07-05T09:53:32Z</time>
      </trkpt>
      <trkpt lat="45.98093" lon="4.85292">
        <ele>276</ele>
        <time>2018-07-05T09:53:33Z</time>
      </trkpt>
      <trkpt lat="45.9809" lon="4.85285">
        <ele>276</ele>
        <time>2018-07-05T09:53:34Z</time>
      </trkpt>
      <trkpt lat="45.98086" lon="4.85279">
        <ele>276</ele>
        <time>2018-07-05T09:53:35Z</time>
      </trkpt>
      <trkpt lat="45.98085" lon="4.85274">
        <ele>276</ele>
        <time>2018-07-05T09:53:36Z</time>
      </trkpt>
      <trkpt lat="45.98082" lon="4.85268">
        <ele>276</ele>
        <time>2018-07-05T09:53:37Z</time>
      </trkpt>
      <trkpt lat="45.9808" lon="4.85262">
        <ele>276</ele>
        <time>2018-07-05T09:53:38Z</time>
      </trkpt>
      <trkpt lat="45.98073" lon="4.85252">
        <ele>276</ele>
        <time>2018-07-05T09:53:40Z</time>
      </trkpt>
      <trkpt lat="45.9807" lon="4.85248">
        <ele>276</ele>
        <time>2018-07-05T09:53:41Z</time>
      </trkpt>
      <trkpt lat="45.98066" lon="4.85238">
        <ele>276</ele>
        <time>2018-07-05T09:53:43Z</time>
      </trkpt>
      <trkpt lat="45.98064" lon="4.85233">
        <ele>276</ele>
        <time>2018-07-05T09:53:44Z</time>
      </trkpt>
      <trkpt lat="45.9806" lon="4.85225">
        <ele>276</ele>
        <time>2018-07-05T09:53:47Z</time>
      </trkpt>
      <trkpt lat="45.98059" lon="4.85221">
        <ele>276</ele>
        <time>2018-07-05T09:53:48Z</time>
      </trkpt>
      <trkpt lat="45.98057" lon="4.85218">
        <ele>276</ele>
        <time>2018-07-05T09:53:49Z</time>
      </trkpt>
      <trkpt lat="45.98051" lon="4.85209">
        <ele>276</ele>
        <time>2018-07-05T09:53:50Z</time>
      </trkpt>
      <trkpt lat="45.98048" lon="4.85198">
        <ele>276</ele>
        <time>2018-07-05T09:53:52Z</time>
      </trkpt>
      <trkpt lat="45.98047" lon="4.85191">
        <ele>276</ele>
        <time>2018-07-05T09:53:53Z</time>
      </trkpt>
      <trkpt lat="45.98045" lon="4.85185">
        <ele>276</ele>
        <time>2018-07-05T09:53:54Z</time>
      </trkpt>
      <trkpt lat="45.98043" lon="4.85177">
        <ele>276</ele>
        <time>2018-07-05T09:53:55Z</time>
      </trkpt>
      <trkpt lat="45.98041" lon="4.8517">
        <ele>275</ele>
        <time>2018-07-05T09:53:56Z</time>
      </trkpt>
      <trkpt lat="45.98039" lon="4.85162">
        <ele>275</ele>
        <time>2018-07-05T09:53:57Z</time>
      </trkpt>
      <trkpt lat="45.98037" lon="4.85154">
        <ele>275</ele>
        <time>2018-07-05T09:53:58Z</time>
      </trkpt>
      <trkpt lat="45.98035" lon="4.85147">
        <ele>275</ele>
        <time>2018-07-05T09:53:59Z</time>
      </trkpt>
      <trkpt lat="45.98033" lon="4.85139">
        <ele>275</ele>
        <time>2018-07-05T09:54:00Z</time>
      </trkpt>
      <trkpt lat="45.9803" lon="4.85132">
        <ele>274</ele>
        <time>2018-07-05T09:54:01Z</time>
      </trkpt>
      <trkpt lat="45.98028" lon="4.85124">
        <ele>274</ele>
        <time>2018-07-05T09:54:02Z</time>
      </trkpt>
      <trkpt lat="45.98026" lon="4.85115">
        <ele>274</ele>
        <time>2018-07-05T09:54:03Z</time>
      </trkpt>
      <trkpt lat="45.98024" lon="4.85108">
        <ele>274</ele>
        <time>2018-07-05T09:54:04Z</time>
      </trkpt>
      <trkpt lat="45.98022" lon="4.851">
        <ele>274</ele>
        <time>2018-07-05T09:54:05Z</time>
      </trkpt>
      <trkpt lat="45.98021" lon="4.85092">
        <ele>274</ele>
        <time>2018-07-05T09:54:06Z</time>
      </trkpt>
      <trkpt lat="45.98022" lon="4.85084">
        <ele>274</ele>
        <time>2018-07-05T09:54:07Z</time>
      </trkpt>
      <trkpt lat="45.98022" lon="4.85074">
        <ele>273</ele>
        <time>2018-07-05T09:54:08Z</time>
      </trkpt>
      <trkpt lat="45.98022" lon="4.85067">
        <ele>273</ele>
        <time>2018-07-05T09:54:09Z</time>
      </trkpt>
      <trkpt lat="45.98021" lon="4.85059">
        <ele>273</ele>
        <time>2018-07-05T09:54:10Z</time>
      </trkpt>
      <trkpt lat="45.98024" lon="4.8505">
        <ele>273</ele>
        <time>2018-07-05T09:54:11Z</time>
      </trkpt>
      <trkpt lat="45.98024" lon="4.85041">
        <ele>273</ele>
        <time>2018-07-05T09:54:12Z</time>
      </trkpt>
      <trkpt lat="45.98023" lon="4.85033">
        <ele>273</ele>
        <time>2018-07-05T09:54:13Z</time>
      </trkpt>
      <trkpt lat="45.98022" lon="4.85023">
        <ele>273</ele>
        <time>2018-07-05T09:54:14Z</time>
      </trkpt>
      <trkpt lat="45.98022" lon="4.85013">
        <ele>273</ele>
        <time>2018-07-05T09:54:15Z</time>
      </trkpt>
      <trkpt lat="45.9802" lon="4.85004">
        <ele>272</ele>
        <time>2018-07-05T09:54:16Z</time>
      </trkpt>
      <trkpt lat="45.98017" lon="4.84996">
        <ele>272</ele>
        <time>2018-07-05T09:54:17Z</time>
      </trkpt>
      <trkpt lat="45.98012" lon="4.84986">
        <ele>272</ele>
        <time>2018-07-05T09:54:18Z</time>
      </trkpt>
      <trkpt lat="45.98012" lon="4.84978">
        <ele>272</ele>
        <time>2018-07-05T09:54:19Z</time>
      </trkpt>
      <trkpt lat="45.98012" lon="4.8497">
        <ele>272</ele>
        <time>2018-07-05T09:54:20Z</time>
      </trkpt>
      <trkpt lat="45.98012" lon="4.84962">
        <ele>272</ele>
        <time>2018-07-05T09:54:21Z</time>
      </trkpt>
      <trkpt lat="45.98011" lon="4.84953">
        <ele>272</ele>
        <time>2018-07-05T09:54:22Z</time>
      </trkpt>
      <trkpt lat="45.98012" lon="4.84945">
        <ele>272</ele>
        <time>2018-07-05T09:54:23Z</time>
      </trkpt>
      <trkpt lat="45.98012" lon="4.84935">
        <ele>272</ele>
        <time>2018-07-05T09:54:24Z</time>
      </trkpt>
      <trkpt lat="45.98012" lon="4.84927">
        <ele>272</ele>
        <time>2018-07-05T09:54:25Z</time>
      </trkpt>
      <trkpt lat="45.9801" lon="4.84917">
        <ele>272</ele>
        <time>2018-07-05T09:54:26Z</time>
      </trkpt>
      <trkpt lat="45.98009" lon="4.8491">
        <ele>272</ele>
        <time>2018-07-05T09:54:27Z</time>
      </trkpt>
      <trkpt lat="45.98008" lon="4.84901">
        <ele>272</ele>
        <time>2018-07-05T09:54:28Z</time>
      </trkpt>
      <trkpt lat="45.98006" lon="4.84894">
        <ele>272</ele>
        <time>2018-07-05T09:54:29Z</time>
      </trkpt>
      <trkpt lat="45.98005" lon="4.84887">
        <ele>272</ele>
        <time>2018-07-05T09:54:30Z</time>
      </trkpt>
      <trkpt lat="45.98004" lon="4.84879">
        <ele>272</ele>
        <time>2018-07-05T09:54:31Z</time>
      </trkpt>
      <trkpt lat="45.98001" lon="4.84871">
        <ele>272</ele>
        <time>2018-07-05T09:54:32Z</time>
      </trkpt>
      <trkpt lat="45.98001" lon="4.84864">
        <ele>272</ele>
        <time>2018-07-05T09:54:33Z</time>
      </trkpt>
      <trkpt lat="45.98003" lon="4.84852">
        <ele>272</ele>
        <time>2018-07-05T09:54:35Z</time>
      </trkpt>
      <trkpt lat="45.98004" lon="4.84845">
        <ele>272</ele>
        <time>2018-07-05T09:54:36Z</time>
      </trkpt>
      <trkpt lat="45.98003" lon="4.84837">
        <ele>272</ele>
        <time>2018-07-05T09:54:37Z</time>
      </trkpt>
      <trkpt lat="45.98002" lon="4.84828">
        <ele>272</ele>
        <time>2018-07-05T09:54:38Z</time>
      </trkpt>
      <trkpt lat="45.98002" lon="4.84821">
        <ele>272</ele>
        <time>2018-07-05T09:54:39Z</time>
      </trkpt>
      <trkpt lat="45.98002" lon="4.84814">
        <ele>273</ele>
        <time>2018-07-05T09:54:40Z</time>
      </trkpt>
      <trkpt lat="45.98001" lon="4.84806">
        <ele>273</ele>
        <time>2018-07-05T09:54:41Z</time>
      </trkpt>
      <trkpt lat="45.98001" lon="4.84798">
        <ele>273</ele>
        <time>2018-07-05T09:54:42Z</time>
      </trkpt>
      <trkpt lat="45.97999" lon="4.84791">
        <ele>274</ele>
        <time>2018-07-05T09:54:43Z</time>
      </trkpt>
      <trkpt lat="45.97999" lon="4.84784">
        <ele>274</ele>
        <time>2018-07-05T09:54:44Z</time>
      </trkpt>
      <trkpt lat="45.97998" lon="4.84777">
        <ele>274</ele>
        <time>2018-07-05T09:54:45Z</time>
      </trkpt>
      <trkpt lat="45.97998" lon="4.8477">
        <ele>274</ele>
        <time>2018-07-05T09:54:46Z</time>
      </trkpt>
      <trkpt lat="45.97997" lon="4.84757">
        <ele>275</ele>
        <time>2018-07-05T09:54:48Z</time>
      </trkpt>
      <trkpt lat="45.97998" lon="4.8475">
        <ele>275</ele>
        <time>2018-07-05T09:54:49Z</time>
      </trkpt>
      <trkpt lat="45.98" lon="4.84744">
        <ele>275</ele>
        <time>2018-07-05T09:54:50Z</time>
      </trkpt>
      <trkpt lat="45.98002" lon="4.84738">
        <ele>275</ele>
        <time>2018-07-05T09:54:51Z</time>
      </trkpt>
      <trkpt lat="45.97999" lon="4.84728">
        <ele>275</ele>
        <time>2018-07-05T09:54:52Z</time>
      </trkpt>
      <trkpt lat="45.97998" lon="4.84719">
        <ele>275</ele>
        <time>2018-07-05T09:54:53Z</time>
      </trkpt>
      <trkpt lat="45.97996" lon="4.84712">
        <ele>275</ele>
        <time>2018-07-05T09:54:54Z</time>
      </trkpt>
      <trkpt lat="45.97994" lon="4.84704">
        <ele>275</ele>
        <time>2018-07-05T09:54:55Z</time>
      </trkpt>
      <trkpt lat="45.97992" lon="4.84695">
        <ele>275</ele>
        <time>2018-07-05T09:54:56Z</time>
      </trkpt>
      <trkpt lat="45.97989" lon="4.84688">
        <ele>275</ele>
        <time>2018-07-05T09:54:57Z</time>
      </trkpt>
      <trkpt lat="45.97989" lon="4.84681">
        <ele>275</ele>
        <time>2018-07-05T09:54:58Z</time>
      </trkpt>
      <trkpt lat="45.97986" lon="4.84674">
        <ele>275</ele>
        <time>2018-07-05T09:54:59Z</time>
      </trkpt>
      <trkpt lat="45.97985" lon="4.84667">
        <ele>275</ele>
        <time>2018-07-05T09:55:00Z</time>
      </trkpt>
      <trkpt lat="45.97986" lon="4.8466">
        <ele>274</ele>
        <time>2018-07-05T09:55:01Z</time>
      </trkpt>
      <trkpt lat="45.97984" lon="4.84654">
        <ele>274</ele>
        <time>2018-07-05T09:55:02Z</time>
      </trkpt>
      <trkpt lat="45.97984" lon="4.84646">
        <ele>274</ele>
        <time>2018-07-05T09:55:03Z</time>
      </trkpt>
      <trkpt lat="45.97983" lon="4.84633">
        <ele>275</ele>
        <time>2018-07-05T09:55:05Z</time>
      </trkpt>
      <trkpt lat="45.97983" lon="4.84626">
        <ele>275</ele>
        <time>2018-07-05T09:55:06Z</time>
      </trkpt>
      <trkpt lat="45.97981" lon="4.84619">
        <ele>275</ele>
        <time>2018-07-05T09:55:07Z</time>
      </trkpt>
      <trkpt lat="45.97979" lon="4.84612">
        <ele>275</ele>
        <time>2018-07-05T09:55:08Z</time>
      </trkpt>
      <trkpt lat="45.97979" lon="4.84605">
        <ele>275</ele>
        <time>2018-07-05T09:55:09Z</time>
      </trkpt>
      <trkpt lat="45.97978" lon="4.84598">
        <ele>274</ele>
        <time>2018-07-05T09:55:10Z</time>
      </trkpt>
      <trkpt lat="45.97977" lon="4.8459">
        <ele>274</ele>
        <time>2018-07-05T09:55:11Z</time>
      </trkpt>
      <trkpt lat="45.97975" lon="4.84583">
        <ele>275</ele>
        <time>2018-07-05T09:55:12Z</time>
      </trkpt>
      <trkpt lat="45.97973" lon="4.84575">
        <ele>275</ele>
        <time>2018-07-05T09:55:13Z</time>
      </trkpt>
      <trkpt lat="45.97972" lon="4.84568">
        <ele>275</ele>
        <time>2018-07-05T09:55:14Z</time>
      </trkpt>
      <trkpt lat="45.97972" lon="4.84561">
        <ele>275</ele>
        <time>2018-07-05T09:55:15Z</time>
      </trkpt>
      <trkpt lat="45.97967" lon="4.84553">
        <ele>275</ele>
        <time>2018-07-05T09:55:16Z</time>
      </trkpt>
      <trkpt lat="45.97967" lon="4.84546">
        <ele>275</ele>
        <time>2018-07-05T09:55:17Z</time>
      </trkpt>
      <trkpt lat="45.97965" lon="4.84538">
        <ele>275</ele>
        <time>2018-07-05T09:55:18Z</time>
      </trkpt>
      <trkpt lat="45.97964" lon="4.84531">
        <ele>275</ele>
        <time>2018-07-05T09:55:19Z</time>
      </trkpt>
      <trkpt lat="45.97963" lon="4.84524">
        <ele>275</ele>
        <time>2018-07-05T09:55:20Z</time>
      </trkpt>
      <trkpt lat="45.97962" lon="4.84516">
        <ele>275</ele>
        <time>2018-07-05T09:55:21Z</time>
      </trkpt>
      <trkpt lat="45.97962" lon="4.8451">
        <ele>275</ele>
        <time>2018-07-05T09:55:22Z</time>
      </trkpt>
      <trkpt lat="45.97961" lon="4.84503">
        <ele>275</ele>
        <time>2018-07-05T09:55:23Z</time>
      </trkpt>
      <trkpt lat="45.9796" lon="4.84496">
        <ele>275</ele>
        <time>2018-07-05T09:55:24Z</time>
      </trkpt>
      <trkpt lat="45.97957" lon="4.84484">
        <ele>275</ele>
        <time>2018-07-05T09:55:26Z</time>
      </trkpt>
      <trkpt lat="45.97955" lon="4.84477">
        <ele>275</ele>
        <time>2018-07-05T09:55:27Z</time>
      </trkpt>
      <trkpt lat="45.97952" lon="4.84469">
        <ele>275</ele>
        <time>2018-07-05T09:55:28Z</time>
      </trkpt>
      <trkpt lat="45.97952" lon="4.84462">
        <ele>275</ele>
        <time>2018-07-05T09:55:29Z</time>
      </trkpt>
      <trkpt lat="45.97951" lon="4.84455">
        <ele>275</ele>
        <time>2018-07-05T09:55:30Z</time>
      </trkpt>
      <trkpt lat="45.97949" lon="4.84448">
        <ele>275</ele>
        <time>2018-07-05T09:55:31Z</time>
      </trkpt>
      <trkpt lat="45.97947" lon="4.84441">
        <ele>275</ele>
        <time>2018-07-05T09:55:32Z</time>
      </trkpt>
      <trkpt lat="45.97946" lon="4.84435">
        <ele>275</ele>
        <time>2018-07-05T09:55:33Z</time>
      </trkpt>
      <trkpt lat="45.97945" lon="4.84427">
        <ele>275</ele>
        <time>2018-07-05T09:55:34Z</time>
      </trkpt>
      <trkpt lat="45.97944" lon="4.84421">
        <ele>275</ele>
        <time>2018-07-05T09:55:35Z</time>
      </trkpt>
      <trkpt lat="45.97943" lon="4.84414">
        <ele>275</ele>
        <time>2018-07-05T09:55:36Z</time>
      </trkpt>
      <trkpt lat="45.97943" lon="4.84408">
        <ele>275</ele>
        <time>2018-07-05T09:55:37Z</time>
      </trkpt>
      <trkpt lat="45.97942" lon="4.84395">
        <ele>275</ele>
        <time>2018-07-05T09:55:39Z</time>
      </trkpt>
      <trkpt lat="45.9794" lon="4.84389">
        <ele>275</ele>
        <time>2018-07-05T09:55:40Z</time>
      </trkpt>
      <trkpt lat="45.97938" lon="4.84382">
        <ele>275</ele>
        <time>2018-07-05T09:55:41Z</time>
      </trkpt>
      <trkpt lat="45.97936" lon="4.84375">
        <ele>275</ele>
        <time>2018-07-05T09:55:42Z</time>
      </trkpt>
      <trkpt lat="45.97933" lon="4.84368">
        <ele>275</ele>
        <time>2018-07-05T09:55:43Z</time>
      </trkpt>
      <trkpt lat="45.97933" lon="4.84362">
        <ele>275</ele>
        <time>2018-07-05T09:55:44Z</time>
      </trkpt>
      <trkpt lat="45.97932" lon="4.84355">
        <ele>275</ele>
        <time>2018-07-05T09:55:45Z</time>
      </trkpt>
      <trkpt lat="45.97932" lon="4.84348">
        <ele>275</ele>
        <time>2018-07-05T09:55:46Z</time>
      </trkpt>
      <trkpt lat="45.9793" lon="4.84341">
        <ele>275</ele>
        <time>2018-07-05T09:55:47Z</time>
      </trkpt>
      <trkpt lat="45.97929" lon="4.84335">
        <ele>275</ele>
        <time>2018-07-05T09:55:48Z</time>
      </trkpt>
      <trkpt lat="45.97927" lon="4.84323">
        <ele>275</ele>
        <time>2018-07-05T09:55:50Z</time>
      </trkpt>
      <trkpt lat="45.97925" lon="4.84317">
        <ele>275</ele>
        <time>2018-07-05T09:55:51Z</time>
      </trkpt>
      <trkpt lat="45.97923" lon="4.84305">
        <ele>275</ele>
        <time>2018-07-05T09:55:53Z</time>
      </trkpt>
      <trkpt lat="45.97922" lon="4.843">
        <ele>275</ele>
        <time>2018-07-05T09:55:54Z</time>
      </trkpt>
      <trkpt lat="45.9792" lon="4.84289">
        <ele>275</ele>
        <time>2018-07-05T09:55:56Z</time>
      </trkpt>
      <trkpt lat="45.97917" lon="4.84282">
        <ele>275</ele>
        <time>2018-07-05T09:55:57Z</time>
      </trkpt>
      <trkpt lat="45.97922" lon="4.84272">
        <ele>275</ele>
        <time>2018-07-05T09:55:59Z</time>
      </trkpt>
      <trkpt lat="45.97925" lon="4.84267">
        <ele>275</ele>
        <time>2018-07-05T09:56:00Z</time>
      </trkpt>
      <trkpt lat="45.97929" lon="4.8426">
        <ele>275</ele>
        <time>2018-07-05T09:56:01Z</time>
      </trkpt>
      <trkpt lat="45.97933" lon="4.84256">
        <ele>275</ele>
        <time>2018-07-05T09:56:02Z</time>
      </trkpt>
      <trkpt lat="45.97937" lon="4.84252">
        <ele>275</ele>
        <time>2018-07-05T09:56:03Z</time>
      </trkpt>
      <trkpt lat="45.97942" lon="4.84246">
        <ele>275</ele>
        <time>2018-07-05T09:56:04Z</time>
      </trkpt>
      <trkpt lat="45.97947" lon="4.84243">
        <ele>275</ele>
        <time>2018-07-05T09:56:05Z</time>
      </trkpt>
      <trkpt lat="45.97953" lon="4.84239">
        <ele>275</ele>
        <time>2018-07-05T09:56:06Z</time>
      </trkpt>
      <trkpt lat="45.97958" lon="4.84234">
        <ele>275</ele>
        <time>2018-07-05T09:56:07Z</time>
      </trkpt>
      <trkpt lat="45.97963" lon="4.84231">
        <ele>274</ele>
        <time>2018-07-05T09:56:08Z</time>
      </trkpt>
      <trkpt lat="45.97966" lon="4.84226">
        <ele>274</ele>
        <time>2018-07-05T09:56:09Z</time>
      </trkpt>
      <trkpt lat="45.97971" lon="4.84221">
        <ele>274</ele>
        <time>2018-07-05T09:56:10Z</time>
      </trkpt>
      <trkpt lat="45.97976" lon="4.84216">
        <ele>274</ele>
        <time>2018-07-05T09:56:11Z</time>
      </trkpt>
      <trkpt lat="45.97981" lon="4.84212">
        <ele>274</ele>
        <time>2018-07-05T09:56:12Z</time>
      </trkpt>
      <trkpt lat="45.97986" lon="4.84208">
        <ele>274</ele>
        <time>2018-07-05T09:56:13Z</time>
      </trkpt>
      <trkpt lat="45.97991" lon="4.84203">
        <ele>274</ele>
        <time>2018-07-05T09:56:14Z</time>
      </trkpt>
      <trkpt lat="45.97996" lon="4.84199">
        <ele>274</ele>
        <time>2018-07-05T09:56:15Z</time>
      </trkpt>
      <trkpt lat="45.98" lon="4.84195">
        <ele>274</ele>
        <time>2018-07-05T09:56:16Z</time>
      </trkpt>
      <trkpt lat="45.98004" lon="4.84188">
        <ele>274</ele>
        <time>2018-07-05T09:56:17Z</time>
      </trkpt>
      <trkpt lat="45.98009" lon="4.84185">
        <ele>274</ele>
        <time>2018-07-05T09:56:18Z</time>
      </trkpt>
      <trkpt lat="45.98014" lon="4.8418">
        <ele>274</ele>
        <time>2018-07-05T09:56:19Z</time>
      </trkpt>
      <trkpt lat="45.98019" lon="4.84175">
        <ele>274</ele>
        <time>2018-07-05T09:56:20Z</time>
      </trkpt>
      <trkpt lat="45.98024" lon="4.8417">
        <ele>274</ele>
        <time>2018-07-05T09:56:21Z</time>
      </trkpt>
      <trkpt lat="45.98029" lon="4.84166">
        <ele>273</ele>
        <time>2018-07-05T09:56:22Z</time>
      </trkpt>
      <trkpt lat="45.98035" lon="4.84161">
        <ele>273</ele>
        <time>2018-07-05T09:56:23Z</time>
      </trkpt>
      <trkpt lat="45.98039" lon="4.84157">
        <ele>273</ele>
        <time>2018-07-05T09:56:24Z</time>
      </trkpt>
      <trkpt lat="45.98044" lon="4.84146">
        <ele>273</ele>
        <time>2018-07-05T09:56:25Z</time>
      </trkpt>
      <trkpt lat="45.98048" lon="4.84143">
        <ele>273</ele>
        <time>2018-07-05T09:56:26Z</time>
      </trkpt>
      <trkpt lat="45.98052" lon="4.84138">
        <ele>273</ele>
        <time>2018-07-05T09:56:27Z</time>
      </trkpt>
      <trkpt lat="45.98057" lon="4.84133">
        <ele>273</ele>
        <time>2018-07-05T09:56:28Z</time>
      </trkpt>
      <trkpt lat="45.98062" lon="4.84128">
        <ele>273</ele>
        <time>2018-07-05T09:56:29Z</time>
      </trkpt>
      <trkpt lat="45.98067" lon="4.84124">
        <ele>273</ele>
        <time>2018-07-05T09:56:30Z</time>
      </trkpt>
      <trkpt lat="45.98072" lon="4.84118">
        <ele>273</ele>
        <time>2018-07-05T09:56:31Z</time>
      </trkpt>
      <trkpt lat="45.98077" lon="4.84113">
        <ele>273</ele>
        <time>2018-07-05T09:56:32Z</time>
      </trkpt>
      <trkpt lat="45.98084" lon="4.84103">
        <ele>273</ele>
        <time>2018-07-05T09:56:33Z</time>
      </trkpt>
      <trkpt lat="45.98089" lon="4.841">
        <ele>273</ele>
        <time>2018-07-05T09:56:34Z</time>
      </trkpt>
      <trkpt lat="45.98094" lon="4.84095">
        <ele>273</ele>
        <time>2018-07-05T09:56:35Z</time>
      </trkpt>
      <trkpt lat="45.981" lon="4.84089">
        <ele>273</ele>
        <time>2018-07-05T09:56:36Z</time>
      </trkpt>
      <trkpt lat="45.98105" lon="4.84083">
        <ele>273</ele>
        <time>2018-07-05T09:56:37Z</time>
      </trkpt>
      <trkpt lat="45.98111" lon="4.84078">
        <ele>273</ele>
        <time>2018-07-05T09:56:38Z</time>
      </trkpt>
      <trkpt lat="45.98116" lon="4.84073">
        <ele>273</ele>
        <time>2018-07-05T09:56:39Z</time>
      </trkpt>
      <trkpt lat="45.98121" lon="4.84068">
        <ele>273</ele>
        <time>2018-07-05T09:56:40Z</time>
      </trkpt>
      <trkpt lat="45.98126" lon="4.84064">
        <ele>273</ele>
        <time>2018-07-05T09:56:41Z</time>
      </trkpt>
      <trkpt lat="45.9813" lon="4.84059">
        <ele>273</ele>
        <time>2018-07-05T09:56:42Z</time>
      </trkpt>
      <trkpt lat="45.98134" lon="4.84055">
        <ele>273</ele>
        <time>2018-07-05T09:56:43Z</time>
      </trkpt>
      <trkpt lat="45.98139" lon="4.8405">
        <ele>273</ele>
        <time>2018-07-05T09:56:44Z</time>
      </trkpt>
      <trkpt lat="45.98143" lon="4.84046">
        <ele>273</ele>
        <time>2018-07-05T09:56:45Z</time>
      </trkpt>
      <trkpt lat="45.98147" lon="4.84041">
        <ele>273</ele>
        <time>2018-07-05T09:56:46Z</time>
      </trkpt>
      <trkpt lat="45.98152" lon="4.84035">
        <ele>273</ele>
        <time>2018-07-05T09:56:47Z</time>
      </trkpt>
      <trkpt lat="45.98155" lon="4.84029">
        <ele>273</ele>
        <time>2018-07-05T09:56:48Z</time>
      </trkpt>
      <trkpt lat="45.98159" lon="4.84023">
        <ele>273</ele>
        <time>2018-07-05T09:56:49Z</time>
      </trkpt>
      <trkpt lat="45.98163" lon="4.84016">
        <ele>273</ele>
        <time>2018-07-05T09:56:50Z</time>
      </trkpt>
      <trkpt lat="45.98168" lon="4.8401">
        <ele>273</ele>
        <time>2018-07-05T09:56:51Z</time>
      </trkpt>
      <trkpt lat="45.98172" lon="4.84001">
        <ele>273</ele>
        <time>2018-07-05T09:56:52Z</time>
      </trkpt>
      <trkpt lat="45.98177" lon="4.83993">
        <ele>273</ele>
        <time>2018-07-05T09:56:53Z</time>
      </trkpt>
      <trkpt lat="45.9818" lon="4.83984">
        <ele>273</ele>
        <time>2018-07-05T09:56:54Z</time>
      </trkpt>
      <trkpt lat="45.98182" lon="4.83977">
        <ele>273</ele>
        <time>2018-07-05T09:56:55Z</time>
      </trkpt>
      <trkpt lat="45.98186" lon="4.83968">
        <ele>273</ele>
        <time>2018-07-05T09:56:56Z</time>
      </trkpt>
      <trkpt lat="45.98189" lon="4.8396">
        <ele>273</ele>
        <time>2018-07-05T09:56:57Z</time>
      </trkpt>
      <trkpt lat="45.98191" lon="4.83953">
        <ele>273</ele>
        <time>2018-07-05T09:56:58Z</time>
      </trkpt>
      <trkpt lat="45.98193" lon="4.83946">
        <ele>273</ele>
        <time>2018-07-05T09:56:59Z</time>
      </trkpt>
      <trkpt lat="45.98196" lon="4.83939">
        <ele>273</ele>
        <time>2018-07-05T09:57:00Z</time>
      </trkpt>
      <trkpt lat="45.98199" lon="4.8393">
        <ele>273</ele>
        <time>2018-07-05T09:57:01Z</time>
      </trkpt>
      <trkpt lat="45.98202" lon="4.83923">
        <ele>273</ele>
        <time>2018-07-05T09:57:02Z</time>
      </trkpt>
      <trkpt lat="45.98205" lon="4.83917">
        <ele>273</ele>
        <time>2018-07-05T09:57:03Z</time>
      </trkpt>
      <trkpt lat="45.98207" lon="4.83909">
        <ele>273</ele>
        <time>2018-07-05T09:57:04Z</time>
      </trkpt>
      <trkpt lat="45.9821" lon="4.83902">
        <ele>273</ele>
        <time>2018-07-05T09:57:05Z</time>
      </trkpt>
      <trkpt lat="45.98213" lon="4.83893">
        <ele>273</ele>
        <time>2018-07-05T09:57:06Z</time>
      </trkpt>
      <trkpt lat="45.98216" lon="4.83886">
        <ele>272</ele>
        <time>2018-07-05T09:57:07Z</time>
      </trkpt>
      <trkpt lat="45.98218" lon="4.83878">
        <ele>272</ele>
        <time>2018-07-05T09:57:08Z</time>
      </trkpt>
      <trkpt lat="45.9822" lon="4.83871">
        <ele>272</ele>
        <time>2018-07-05T09:57:09Z</time>
      </trkpt>
      <trkpt lat="45.98223" lon="4.83862">
        <ele>272</ele>
        <time>2018-07-05T09:57:10Z</time>
      </trkpt>
      <trkpt lat="45.98226" lon="4.83854">
        <ele>272</ele>
        <time>2018-07-05T09:57:11Z</time>
      </trkpt>
      <trkpt lat="45.98229" lon="4.83845">
        <ele>272</ele>
        <time>2018-07-05T09:57:12Z</time>
      </trkpt>
      <trkpt lat="45.98231" lon="4.83838">
        <ele>272</ele>
        <time>2018-07-05T09:57:13Z</time>
      </trkpt>
      <trkpt lat="45.98233" lon="4.83831">
        <ele>272</ele>
        <time>2018-07-05T09:57:14Z</time>
      </trkpt>
      <trkpt lat="45.98235" lon="4.83824">
        <ele>272</ele>
        <time>2018-07-05T09:57:15Z</time>
      </trkpt>
      <trkpt lat="45.98237" lon="4.83817">
        <ele>272</ele>
        <time>2018-07-05T09:57:16Z</time>
      </trkpt>
      <trkpt lat="45.98239" lon="4.8381">
        <ele>272</ele>
        <time>2018-07-05T09:57:17Z</time>
      </trkpt>
      <trkpt lat="45.98242" lon="4.83804">
        <ele>272</ele>
        <time>2018-07-05T09:57:18Z</time>
      </trkpt>
      <trkpt lat="45.98244" lon="4.83797">
        <ele>272</ele>
        <time>2018-07-05T09:57:19Z</time>
      </trkpt>
      <trkpt lat="45.98246" lon="4.83789">
        <ele>272</ele>
        <time>2018-07-05T09:57:20Z</time>
      </trkpt>
      <trkpt lat="45.98249" lon="4.83782">
        <ele>272</ele>
        <time>2018-07-05T09:57:21Z</time>
      </trkpt>
      <trkpt lat="45.98252" lon="4.83774">
        <ele>272</ele>
        <time>2018-07-05T09:57:22Z</time>
      </trkpt>
      <trkpt lat="45.98254" lon="4.83768">
        <ele>272</ele>
        <time>2018-07-05T09:57:23Z</time>
      </trkpt>
      <trkpt lat="45.98257" lon="4.83761">
        <ele>272</ele>
        <time>2018-07-05T09:57:24Z</time>
      </trkpt>
      <trkpt lat="45.98259" lon="4.83754">
        <ele>272</ele>
        <time>2018-07-05T09:57:25Z</time>
      </trkpt>
      <trkpt lat="45.98262" lon="4.83747">
        <ele>272</ele>
        <time>2018-07-05T09:57:26Z</time>
      </trkpt>
      <trkpt lat="45.98265" lon="4.83738">
        <ele>272</ele>
        <time>2018-07-05T09:57:27Z</time>
      </trkpt>
      <trkpt lat="45.98267" lon="4.83731">
        <ele>272</ele>
        <time>2018-07-05T09:57:28Z</time>
      </trkpt>
      <trkpt lat="45.98269" lon="4.83723">
        <ele>272</ele>
        <time>2018-07-05T09:57:29Z</time>
      </trkpt>
      <trkpt lat="45.98272" lon="4.83715">
        <ele>272</ele>
        <time>2018-07-05T09:57:30Z</time>
      </trkpt>
      <trkpt lat="45.98276" lon="4.83707">
        <ele>272</ele>
        <time>2018-07-05T09:57:31Z</time>
      </trkpt>
      <trkpt lat="45.98278" lon="4.83698">
        <ele>272</ele>
        <time>2018-07-05T09:57:32Z</time>
      </trkpt>
      <trkpt lat="45.98281" lon="4.8369">
        <ele>272</ele>
        <time>2018-07-05T09:57:33Z</time>
      </trkpt>
      <trkpt lat="45.98284" lon="4.83681">
        <ele>272</ele>
        <time>2018-07-05T09:57:34Z</time>
      </trkpt>
      <trkpt lat="45.98287" lon="4.83673">
        <ele>272</ele>
        <time>2018-07-05T09:57:35Z</time>
      </trkpt>
      <trkpt lat="45.98291" lon="4.83666">
        <ele>272</ele>
        <time>2018-07-05T09:57:36Z</time>
      </trkpt>
      <trkpt lat="45.98296" lon="4.83658">
        <ele>271</ele>
        <time>2018-07-05T09:57:37Z</time>
      </trkpt>
      <trkpt lat="45.98298" lon="4.83652">
        <ele>271</ele>
        <time>2018-07-05T09:57:38Z</time>
      </trkpt>
      <trkpt lat="45.983" lon="4.83645">
        <ele>271</ele>
        <time>2018-07-05T09:57:39Z</time>
      </trkpt>
      <trkpt lat="45.98303" lon="4.8364">
        <ele>271</ele>
        <time>2018-07-05T09:57:40Z</time>
      </trkpt>
      <trkpt lat="45.98307" lon="4.83633">
        <ele>271</ele>
        <time>2018-07-05T09:57:41Z</time>
      </trkpt>
      <trkpt lat="45.98311" lon="4.83627">
        <ele>271</ele>
        <time>2018-07-05T09:57:42Z</time>
      </trkpt>
      <trkpt lat="45.98315" lon="4.83621">
        <ele>271</ele>
        <time>2018-07-05T09:57:43Z</time>
      </trkpt>
      <trkpt lat="45.9832" lon="4.83614">
        <ele>271</ele>
        <time>2018-07-05T09:57:44Z</time>
      </trkpt>
      <trkpt lat="45.98323" lon="4.83608">
        <ele>271</ele>
        <time>2018-07-05T09:57:45Z</time>
      </trkpt>
      <trkpt lat="45.98327" lon="4.83601">
        <ele>271</ele>
        <time>2018-07-05T09:57:46Z</time>
      </trkpt>
      <trkpt lat="45.98332" lon="4.83593">
        <ele>270</ele>
        <time>2018-07-05T09:57:47Z</time>
      </trkpt>
      <trkpt lat="45.98336" lon="4.83585">
        <ele>270</ele>
        <time>2018-07-05T09:57:48Z</time>
      </trkpt>
      <trkpt lat="45.98341" lon="4.83577">
        <ele>270</ele>
        <time>2018-07-05T09:57:49Z</time>
      </trkpt>
      <trkpt lat="45.98345" lon="4.83571">
        <ele>270</ele>
        <time>2018-07-05T09:57:50Z</time>
      </trkpt>
      <trkpt lat="45.9835" lon="4.83565">
        <ele>269</ele>
        <time>2018-07-05T09:57:51Z</time>
      </trkpt>
      <trkpt lat="45.98354" lon="4.83558">
        <ele>269</ele>
        <time>2018-07-05T09:57:52Z</time>
      </trkpt>
      <trkpt lat="45.98359" lon="4.83552">
        <ele>269</ele>
        <time>2018-07-05T09:57:53Z</time>
      </trkpt>
      <trkpt lat="45.98363" lon="4.83546">
        <ele>269</ele>
        <time>2018-07-05T09:57:54Z</time>
      </trkpt>
      <trkpt lat="45.98368" lon="4.83539">
        <ele>269</ele>
        <time>2018-07-05T09:57:55Z</time>
      </trkpt>
      <trkpt lat="45.98372" lon="4.83533">
        <ele>269</ele>
        <time>2018-07-05T09:57:56Z</time>
      </trkpt>
      <trkpt lat="45.98377" lon="4.83527">
        <ele>269</ele>
        <time>2018-07-05T09:57:57Z</time>
      </trkpt>
      <trkpt lat="45.98381" lon="4.83523">
        <ele>269</ele>
        <time>2018-07-05T09:57:58Z</time>
      </trkpt>
      <trkpt lat="45.98386" lon="4.83517">
        <ele>269</ele>
        <time>2018-07-05T09:57:59Z</time>
      </trkpt>
      <trkpt lat="45.98388" lon="4.83511">
        <ele>269</ele>
        <time>2018-07-05T09:58:00Z</time>
      </trkpt>
      <trkpt lat="45.98393" lon="4.83505">
        <ele>269</ele>
        <time>2018-07-05T09:58:01Z</time>
      </trkpt>
      <trkpt lat="45.98398" lon="4.83497">
        <ele>269</ele>
        <time>2018-07-05T09:58:02Z</time>
      </trkpt>
      <trkpt lat="45.98403" lon="4.83492">
        <ele>269</ele>
        <time>2018-07-05T09:58:03Z</time>
      </trkpt>
      <trkpt lat="45.98408" lon="4.83485">
        <ele>269</ele>
        <time>2018-07-05T09:58:04Z</time>
      </trkpt>
      <trkpt lat="45.98414" lon="4.83478">
        <ele>269</ele>
        <time>2018-07-05T09:58:05Z</time>
      </trkpt>
      <trkpt lat="45.98419" lon="4.83472">
        <ele>268</ele>
        <time>2018-07-05T09:58:06Z</time>
      </trkpt>
      <trkpt lat="45.98423" lon="4.83465">
        <ele>268</ele>
        <time>2018-07-05T09:58:07Z</time>
      </trkpt>
      <trkpt lat="45.98427" lon="4.83459">
        <ele>268</ele>
        <time>2018-07-05T09:58:08Z</time>
      </trkpt>
      <trkpt lat="45.98431" lon="4.83453">
        <ele>268</ele>
        <time>2018-07-05T09:58:09Z</time>
      </trkpt>
      <trkpt lat="45.98436" lon="4.83448">
        <ele>268</ele>
        <time>2018-07-05T09:58:10Z</time>
      </trkpt>
      <trkpt lat="45.98441" lon="4.83438">
        <ele>268</ele>
        <time>2018-07-05T09:58:11Z</time>
      </trkpt>
      <trkpt lat="45.98445" lon="4.83432">
        <ele>269</ele>
        <time>2018-07-05T09:58:12Z</time>
      </trkpt>
      <trkpt lat="45.9845" lon="4.83423">
        <ele>269</ele>
        <time>2018-07-05T09:58:13Z</time>
      </trkpt>
      <trkpt lat="45.98454" lon="4.83416">
        <ele>269</ele>
        <time>2018-07-05T09:58:14Z</time>
      </trkpt>
      <trkpt lat="45.98459" lon="4.8341">
        <ele>269</ele>
        <time>2018-07-05T09:58:15Z</time>
      </trkpt>
      <trkpt lat="45.98463" lon="4.83404">
        <ele>269</ele>
        <time>2018-07-05T09:58:16Z</time>
      </trkpt>
      <trkpt lat="45.98467" lon="4.83399">
        <ele>269</ele>
        <time>2018-07-05T09:58:17Z</time>
      </trkpt>
      <trkpt lat="45.98471" lon="4.83394">
        <ele>269</ele>
        <time>2018-07-05T09:58:18Z</time>
      </trkpt>
      <trkpt lat="45.98475" lon="4.83389">
        <ele>269</ele>
        <time>2018-07-05T09:58:19Z</time>
      </trkpt>
      <trkpt lat="45.98479" lon="4.83384">
        <ele>269</ele>
        <time>2018-07-05T09:58:20Z</time>
      </trkpt>
      <trkpt lat="45.98482" lon="4.83377">
        <ele>269</ele>
        <time>2018-07-05T09:58:21Z</time>
      </trkpt>
      <trkpt lat="45.98487" lon="4.83368">
        <ele>270</ele>
        <time>2018-07-05T09:58:22Z</time>
      </trkpt>
      <trkpt lat="45.98492" lon="4.83364">
        <ele>270</ele>
        <time>2018-07-05T09:58:23Z</time>
      </trkpt>
      <trkpt lat="45.98497" lon="4.83357">
        <ele>270</ele>
        <time>2018-07-05T09:58:24Z</time>
      </trkpt>
      <trkpt lat="45.98502" lon="4.83351">
        <ele>270</ele>
        <time>2018-07-05T09:58:25Z</time>
      </trkpt>
      <trkpt lat="45.98506" lon="4.83345">
        <ele>270</ele>
        <time>2018-07-05T09:58:26Z</time>
      </trkpt>
      <trkpt lat="45.98511" lon="4.83338">
        <ele>270</ele>
        <time>2018-07-05T09:58:27Z</time>
      </trkpt>
      <trkpt lat="45.98516" lon="4.83331">
        <ele>270</ele>
        <time>2018-07-05T09:58:28Z</time>
      </trkpt>
      <trkpt lat="45.98521" lon="4.83325">
        <ele>270</ele>
        <time>2018-07-05T09:58:29Z</time>
      </trkpt>
      <trkpt lat="45.98526" lon="4.83318">
        <ele>269</ele>
        <time>2018-07-05T09:58:30Z</time>
      </trkpt>
      <trkpt lat="45.9853" lon="4.83312">
        <ele>269</ele>
        <time>2018-07-05T09:58:31Z</time>
      </trkpt>
      <trkpt lat="45.98535" lon="4.83306">
        <ele>269</ele>
        <time>2018-07-05T09:58:32Z</time>
      </trkpt>
      <trkpt lat="45.98539" lon="4.83299">
        <ele>269</ele>
        <time>2018-07-05T09:58:33Z</time>
      </trkpt>
      <trkpt lat="45.98544" lon="4.83293">
        <ele>269</ele>
        <time>2018-07-05T09:58:34Z</time>
      </trkpt>
      <trkpt lat="45.98548" lon="4.83286">
        <ele>269</ele>
        <time>2018-07-05T09:58:35Z</time>
      </trkpt>
      <trkpt lat="45.98552" lon="4.83279">
        <ele>269</ele>
        <time>2018-07-05T09:58:36Z</time>
      </trkpt>
      <trkpt lat="45.98556" lon="4.83275">
        <ele>269</ele>
        <time>2018-07-05T09:58:37Z</time>
      </trkpt>
      <trkpt lat="45.9856" lon="4.83269">
        <ele>269</ele>
        <time>2018-07-05T09:58:38Z</time>
      </trkpt>
      <trkpt lat="45.98564" lon="4.83263">
        <ele>269</ele>
        <time>2018-07-05T09:58:39Z</time>
      </trkpt>
      <trkpt lat="45.9857" lon="4.83254">
        <ele>269</ele>
        <time>2018-07-05T09:58:41Z</time>
      </trkpt>
      <trkpt lat="45.98572" lon="4.83247">
        <ele>268</ele>
        <time>2018-07-05T09:58:42Z</time>
      </trkpt>
      <trkpt lat="45.98577" lon="4.83242">
        <ele>268</ele>
        <time>2018-07-05T09:58:43Z</time>
      </trkpt>
      <trkpt lat="45.98582" lon="4.83238">
        <ele>268</ele>
        <time>2018-07-05T09:58:44Z</time>
      </trkpt>
      <trkpt lat="45.98587" lon="4.83233">
        <ele>268</ele>
        <time>2018-07-05T09:58:45Z</time>
      </trkpt>
      <trkpt lat="45.98591" lon="4.83225">
        <ele>268</ele>
        <time>2018-07-05T09:58:46Z</time>
      </trkpt>
      <trkpt lat="45.98595" lon="4.83219">
        <ele>268</ele>
        <time>2018-07-05T09:58:47Z</time>
      </trkpt>
      <trkpt lat="45.98601" lon="4.83207">
        <ele>267</ele>
        <time>2018-07-05T09:58:48Z</time>
      </trkpt>
      <trkpt lat="45.98605" lon="4.832">
        <ele>267</ele>
        <time>2018-07-05T09:58:49Z</time>
      </trkpt>
      <trkpt lat="45.98611" lon="4.83194">
        <ele>267</ele>
        <time>2018-07-05T09:58:50Z</time>
      </trkpt>
      <trkpt lat="45.98616" lon="4.83188">
        <ele>267</ele>
        <time>2018-07-05T09:58:51Z</time>
      </trkpt>
      <trkpt lat="45.98622" lon="4.83182">
        <ele>267</ele>
        <time>2018-07-05T09:58:52Z</time>
      </trkpt>
      <trkpt lat="45.98627" lon="4.83176">
        <ele>267</ele>
        <time>2018-07-05T09:58:53Z</time>
      </trkpt>
      <trkpt lat="45.98633" lon="4.83171">
        <ele>267</ele>
        <time>2018-07-05T09:58:54Z</time>
      </trkpt>
      <trkpt lat="45.98638" lon="4.83166">
        <ele>267</ele>
        <time>2018-07-05T09:58:55Z</time>
      </trkpt>
      <trkpt lat="45.98644" lon="4.8316">
        <ele>267</ele>
        <time>2018-07-05T09:58:56Z</time>
      </trkpt>
      <trkpt lat="45.98651" lon="4.83157">
        <ele>267</ele>
        <time>2018-07-05T09:58:57Z</time>
      </trkpt>
      <trkpt lat="45.98657" lon="4.83152">
        <ele>267</ele>
        <time>2018-07-05T09:58:58Z</time>
      </trkpt>
      <trkpt lat="45.98663" lon="4.83148">
        <ele>267</ele>
        <time>2018-07-05T09:58:59Z</time>
      </trkpt>
      <trkpt lat="45.98668" lon="4.83143">
        <ele>266</ele>
        <time>2018-07-05T09:59:00Z</time>
      </trkpt>
      <trkpt lat="45.98674" lon="4.83142">
        <ele>266</ele>
        <time>2018-07-05T09:59:01Z</time>
      </trkpt>
      <trkpt lat="45.98681" lon="4.83138">
        <ele>266</ele>
        <time>2018-07-05T09:59:02Z</time>
      </trkpt>
      <trkpt lat="45.98687" lon="4.83133">
        <ele>267</ele>
        <time>2018-07-05T09:59:03Z</time>
      </trkpt>
      <trkpt lat="45.98692" lon="4.8313">
        <ele>267</ele>
        <time>2018-07-05T09:59:04Z</time>
      </trkpt>
      <trkpt lat="45.98698" lon="4.83126">
        <ele>267</ele>
        <time>2018-07-05T09:59:05Z</time>
      </trkpt>
      <trkpt lat="45.98704" lon="4.83122">
        <ele>267</ele>
        <time>2018-07-05T09:59:06Z</time>
      </trkpt>
      <trkpt lat="45.98709" lon="4.83119">
        <ele>267</ele>
        <time>2018-07-05T09:59:07Z</time>
      </trkpt>
      <trkpt lat="45.98716" lon="4.83111">
        <ele>267</ele>
        <time>2018-07-05T09:59:08Z</time>
      </trkpt>
      <trkpt lat="45.98722" lon="4.83106">
        <ele>267</ele>
        <time>2018-07-05T09:59:09Z</time>
      </trkpt>
      <trkpt lat="45.98725" lon="4.83101">
        <ele>267</ele>
        <time>2018-07-05T09:59:10Z</time>
      </trkpt>
      <trkpt lat="45.98731" lon="4.83097">
        <ele>267</ele>
        <time>2018-07-05T09:59:11Z</time>
      </trkpt>
      <trkpt lat="45.98737" lon="4.83092">
        <ele>267</ele>
        <time>2018-07-05T09:59:12Z</time>
      </trkpt>
      <trkpt lat="45.98745" lon="4.83087">
        <ele>267</ele>
        <time>2018-07-05T09:59:13Z</time>
      </trkpt>
      <trkpt lat="45.98751" lon="4.83082">
        <ele>267</ele>
        <time>2018-07-05T09:59:14Z</time>
      </trkpt>
      <trkpt lat="45.98758" lon="4.83077">
        <ele>266</ele>
        <time>2018-07-05T09:59:15Z</time>
      </trkpt>
      <trkpt lat="45.98763" lon="4.83071">
        <ele>266</ele>
        <time>2018-07-05T09:59:16Z</time>
      </trkpt>
      <trkpt lat="45.9877" lon="4.83066">
        <ele>265</ele>
        <time>2018-07-05T09:59:17Z</time>
      </trkpt>
      <trkpt lat="45.98776" lon="4.83061">
        <ele>265</ele>
        <time>2018-07-05T09:59:18Z</time>
      </trkpt>
      <trkpt lat="45.98782" lon="4.83054">
        <ele>265</ele>
        <time>2018-07-05T09:59:19Z</time>
      </trkpt>
      <trkpt lat="45.9879" lon="4.83049">
        <ele>265</ele>
        <time>2018-07-05T09:59:20Z</time>
      </trkpt>
      <trkpt lat="45.98798" lon="4.83043">
        <ele>265</ele>
        <time>2018-07-05T09:59:21Z</time>
      </trkpt>
      <trkpt lat="45.98806" lon="4.83037">
        <ele>264</ele>
        <time>2018-07-05T09:59:22Z</time>
      </trkpt>
      <trkpt lat="45.98812" lon="4.83032">
        <ele>264</ele>
        <time>2018-07-05T09:59:23Z</time>
      </trkpt>
      <trkpt lat="45.98822" lon="4.83025">
        <ele>264</ele>
        <time>2018-07-05T09:59:24Z</time>
      </trkpt>
      <trkpt lat="45.98829" lon="4.83019">
        <ele>264</ele>
        <time>2018-07-05T09:59:25Z</time>
      </trkpt>
      <trkpt lat="45.98837" lon="4.83015">
        <ele>261</ele>
        <time>2018-07-05T09:59:26Z</time>
      </trkpt>
      <trkpt lat="45.98845" lon="4.83009">
        <ele>261</ele>
        <time>2018-07-05T09:59:27Z</time>
      </trkpt>
      <trkpt lat="45.98852" lon="4.82997">
        <ele>261</ele>
        <time>2018-07-05T09:59:28Z</time>
      </trkpt>
      <trkpt lat="45.98861" lon="4.8299">
        <ele>261</ele>
        <time>2018-07-05T09:59:29Z</time>
      </trkpt>
      <trkpt lat="45.98871" lon="4.82985">
        <ele>260</ele>
        <time>2018-07-05T09:59:30Z</time>
      </trkpt>
      <trkpt lat="45.9888" lon="4.8298">
        <ele>260</ele>
        <time>2018-07-05T09:59:31Z</time>
      </trkpt>
      <trkpt lat="45.98886" lon="4.82972">
        <ele>259</ele>
        <time>2018-07-05T09:59:32Z</time>
      </trkpt>
      <trkpt lat="45.98895" lon="4.82964">
        <ele>259</ele>
        <time>2018-07-05T09:59:33Z</time>
      </trkpt>
      <trkpt lat="45.98903" lon="4.82956">
        <ele>259</ele>
        <time>2018-07-05T09:59:34Z</time>
      </trkpt>
      <trkpt lat="45.9891" lon="4.82945">
        <ele>258</ele>
        <time>2018-07-05T09:59:35Z</time>
      </trkpt>
      <trkpt lat="45.98916" lon="4.82932">
        <ele>257</ele>
        <time>2018-07-05T09:59:36Z</time>
      </trkpt>
      <trkpt lat="45.98921" lon="4.82921">
        <ele>255</ele>
        <time>2018-07-05T09:59:37Z</time>
      </trkpt>
      <trkpt lat="45.98926" lon="4.82908">
        <ele>254</ele>
        <time>2018-07-05T09:59:38Z</time>
      </trkpt>
      <trkpt lat="45.98933" lon="4.82894">
        <ele>253</ele>
        <time>2018-07-05T09:59:39Z</time>
      </trkpt>
      <trkpt lat="45.98939" lon="4.82881">
        <ele>253</ele>
        <time>2018-07-05T09:59:40Z</time>
      </trkpt>
      <trkpt lat="45.98945" lon="4.82867">
        <ele>253</ele>
        <time>2018-07-05T09:59:41Z</time>
      </trkpt>
      <trkpt lat="45.98953" lon="4.82851">
        <ele>252</ele>
        <time>2018-07-05T09:59:42Z</time>
      </trkpt>
      <trkpt lat="45.9896" lon="4.82835">
        <ele>252</ele>
        <time>2018-07-05T09:59:43Z</time>
      </trkpt>
      <trkpt lat="45.98968" lon="4.82818">
        <ele>249</ele>
        <time>2018-07-05T09:59:44Z</time>
      </trkpt>
      <trkpt lat="45.98975" lon="4.82801">
        <ele>248</ele>
        <time>2018-07-05T09:59:45Z</time>
      </trkpt>
      <trkpt lat="45.98982" lon="4.82784">
        <ele>247</ele>
        <time>2018-07-05T09:59:46Z</time>
      </trkpt>
      <trkpt lat="45.9899" lon="4.82767">
        <ele>245</ele>
        <time>2018-07-05T09:59:47Z</time>
      </trkpt>
      <trkpt lat="45.98997" lon="4.82752">
        <ele>242</ele>
        <time>2018-07-05T09:59:48Z</time>
      </trkpt>
      <trkpt lat="45.99005" lon="4.82738">
        <ele>240</ele>
        <time>2018-07-05T09:59:49Z</time>
      </trkpt>
      <trkpt lat="45.99011" lon="4.82721">
        <ele>239</ele>
        <time>2018-07-05T09:59:50Z</time>
      </trkpt>
      <trkpt lat="45.99018" lon="4.82707">
        <ele>238</ele>
        <time>2018-07-05T09:59:51Z</time>
      </trkpt>
      <trkpt lat="45.99025" lon="4.82694">
        <ele>238</ele>
        <time>2018-07-05T09:59:52Z</time>
      </trkpt>
      <trkpt lat="45.9903" lon="4.82681">
        <ele>238</ele>
        <time>2018-07-05T09:59:53Z</time>
      </trkpt>
      <trkpt lat="45.99037" lon="4.8267">
        <ele>238</ele>
        <time>2018-07-05T09:59:54Z</time>
      </trkpt>
      <trkpt lat="45.99042" lon="4.82658">
        <ele>236</ele>
        <time>2018-07-05T09:59:55Z</time>
      </trkpt>
      <trkpt lat="45.99047" lon="4.82645">
        <ele>236</ele>
        <time>2018-07-05T09:59:56Z</time>
      </trkpt>
      <trkpt lat="45.9905" lon="4.82635">
        <ele>236</ele>
        <time>2018-07-05T09:59:57Z</time>
      </trkpt>
      <trkpt lat="45.99054" lon="4.82627">
        <ele>236</ele>
        <time>2018-07-05T09:59:58Z</time>
      </trkpt>
      <trkpt lat="45.99058" lon="4.82618">
        <ele>236</ele>
        <time>2018-07-05T09:59:59Z</time>
      </trkpt>
      <trkpt lat="45.99062" lon="4.82612">
        <ele>236</ele>
        <time>2018-07-05T10:00:00Z</time>
      </trkpt>
      <trkpt lat="45.99065" lon="4.82605">
        <ele>236</ele>
        <time>2018-07-05T10:00:01Z</time>
      </trkpt>
      <trkpt lat="45.99067" lon="4.82599">
        <ele>235</ele>
        <time>2018-07-05T10:00:02Z</time>
      </trkpt>
      <trkpt lat="45.9907" lon="4.82593">
        <ele>235</ele>
        <time>2018-07-05T10:00:03Z</time>
      </trkpt>
      <trkpt lat="45.99072" lon="4.82587">
        <ele>235</ele>
        <time>2018-07-05T10:00:04Z</time>
      </trkpt>
      <trkpt lat="45.99073" lon="4.82575">
        <ele>235</ele>
        <time>2018-07-05T10:00:06Z</time>
      </trkpt>
      <trkpt lat="45.99068" lon="4.8257">
        <ele>235</ele>
        <time>2018-07-05T10:00:07Z</time>
      </trkpt>
      <trkpt lat="45.99065" lon="4.82566">
        <ele>235</ele>
        <time>2018-07-05T10:00:08Z</time>
      </trkpt>
      <trkpt lat="45.99059" lon="4.82564">
        <ele>235</ele>
        <time>2018-07-05T10:00:09Z</time>
      </trkpt>
      <trkpt lat="45.99053" lon="4.82562">
        <ele>235</ele>
        <time>2018-07-05T10:00:10Z</time>
      </trkpt>
      <trkpt lat="45.99047" lon="4.82561">
        <ele>235</ele>
        <time>2018-07-05T10:00:11Z</time>
      </trkpt>
      <trkpt lat="45.99042" lon="4.8256">
        <ele>235</ele>
        <time>2018-07-05T10:00:12Z</time>
      </trkpt>
      <trkpt lat="45.99034" lon="4.82556">
        <ele>235</ele>
        <time>2018-07-05T10:00:13Z</time>
      </trkpt>
      <trkpt lat="45.99027" lon="4.82549">
        <ele>235</ele>
        <time>2018-07-05T10:00:15Z</time>
      </trkpt>
      <trkpt lat="45.99023" lon="4.82544">
        <ele>235</ele>
        <time>2018-07-05T10:00:16Z</time>
      </trkpt>
      <trkpt lat="45.99018" lon="4.8254">
        <ele>235</ele>
        <time>2018-07-05T10:00:17Z</time>
      </trkpt>
      <trkpt lat="45.99013" lon="4.82534">
        <ele>235</ele>
        <time>2018-07-05T10:00:18Z</time>
      </trkpt>
      <trkpt lat="45.99009" lon="4.82527">
        <ele>235</ele>
        <time>2018-07-05T10:00:19Z</time>
      </trkpt>
      <trkpt lat="45.99005" lon="4.82519">
        <ele>235</ele>
        <time>2018-07-05T10:00:20Z</time>
      </trkpt>
      <trkpt lat="45.99003" lon="4.82513">
        <ele>235</ele>
        <time>2018-07-05T10:00:21Z</time>
      </trkpt>
      <trkpt lat="45.99" lon="4.82506">
        <ele>236</ele>
        <time>2018-07-05T10:00:22Z</time>
      </trkpt>
      <trkpt lat="45.98996" lon="4.825">
        <ele>235</ele>
        <time>2018-07-05T10:00:23Z</time>
      </trkpt>
      <trkpt lat="45.98994" lon="4.82495">
        <ele>235</ele>
        <time>2018-07-05T10:00:24Z</time>
      </trkpt>
      <trkpt lat="45.98992" lon="4.82489">
        <ele>236</ele>
        <time>2018-07-05T10:00:25Z</time>
      </trkpt>
      <trkpt lat="45.9899" lon="4.82483">
        <ele>236</ele>
        <time>2018-07-05T10:00:26Z</time>
      </trkpt>
      <trkpt lat="45.98987" lon="4.82476">
        <ele>236</ele>
        <time>2018-07-05T10:00:27Z</time>
      </trkpt>
      <trkpt lat="45.98984" lon="4.82468">
        <ele>236</ele>
        <time>2018-07-05T10:00:28Z</time>
      </trkpt>
      <trkpt lat="45.98982" lon="4.82461">
        <ele>236</ele>
        <time>2018-07-05T10:00:29Z</time>
      </trkpt>
      <trkpt lat="45.98981" lon="4.82453">
        <ele>236</ele>
        <time>2018-07-05T10:00:30Z</time>
      </trkpt>
      <trkpt lat="45.9898" lon="4.82447">
        <ele>236</ele>
        <time>2018-07-05T10:00:31Z</time>
      </trkpt>
      <trkpt lat="45.98977" lon="4.82439">
        <ele>236</ele>
        <time>2018-07-05T10:00:32Z</time>
      </trkpt>
      <trkpt lat="45.98976" lon="4.82431">
        <ele>236</ele>
        <time>2018-07-05T10:00:33Z</time>
      </trkpt>
      <trkpt lat="45.98972" lon="4.82424">
        <ele>236</ele>
        <time>2018-07-05T10:00:34Z</time>
      </trkpt>
      <trkpt lat="45.9897" lon="4.82416">
        <ele>235</ele>
        <time>2018-07-05T10:00:35Z</time>
      </trkpt>
      <trkpt lat="45.98968" lon="4.82408">
        <ele>235</ele>
        <time>2018-07-05T10:00:36Z</time>
      </trkpt>
      <trkpt lat="45.98967" lon="4.82401">
        <ele>235</ele>
        <time>2018-07-05T10:00:37Z</time>
      </trkpt>
      <trkpt lat="45.98966" lon="4.82393">
        <ele>235</ele>
        <time>2018-07-05T10:00:38Z</time>
      </trkpt>
      <trkpt lat="45.98964" lon="4.82386">
        <ele>235</ele>
        <time>2018-07-05T10:00:39Z</time>
      </trkpt>
      <trkpt lat="45.98962" lon="4.82379">
        <ele>235</ele>
        <time>2018-07-05T10:00:40Z</time>
      </trkpt>
      <trkpt lat="45.98961" lon="4.82372">
        <ele>235</ele>
        <time>2018-07-05T10:00:41Z</time>
      </trkpt>
      <trkpt lat="45.98959" lon="4.82365">
        <ele>235</ele>
        <time>2018-07-05T10:00:42Z</time>
      </trkpt>
      <trkpt lat="45.98957" lon="4.82358">
        <ele>235</ele>
        <time>2018-07-05T10:00:43Z</time>
      </trkpt>
      <trkpt lat="45.98955" lon="4.82352">
        <ele>235</ele>
        <time>2018-07-05T10:00:44Z</time>
      </trkpt>
      <trkpt lat="45.98953" lon="4.82346">
        <ele>235</ele>
        <time>2018-07-05T10:00:45Z</time>
      </trkpt>
      <trkpt lat="45.9895" lon="4.82339">
        <ele>235</ele>
        <time>2018-07-05T10:00:46Z</time>
      </trkpt>
      <trkpt lat="45.98946" lon="4.82333">
        <ele>234</ele>
        <time>2018-07-05T10:00:47Z</time>
      </trkpt>
      <trkpt lat="45.98943" lon="4.82328">
        <ele>234</ele>
        <time>2018-07-05T10:00:48Z</time>
      </trkpt>
      <trkpt lat="45.98937" lon="4.82321">
        <ele>235</ele>
        <time>2018-07-05T10:00:49Z</time>
      </trkpt>
      <trkpt lat="45.98934" lon="4.82316">
        <ele>235</ele>
        <time>2018-07-05T10:00:50Z</time>
      </trkpt>
      <trkpt lat="45.98929" lon="4.82312">
        <ele>235</ele>
        <time>2018-07-05T10:00:51Z</time>
      </trkpt>
      <trkpt lat="45.98926" lon="4.82308">
        <ele>234</ele>
        <time>2018-07-05T10:00:52Z</time>
      </trkpt>
      <trkpt lat="45.98918" lon="4.82301">
        <ele>234</ele>
        <time>2018-07-05T10:00:54Z</time>
      </trkpt>
      <trkpt lat="45.98916" lon="4.82296">
        <ele>236</ele>
        <time>2018-07-05T10:00:55Z</time>
      </trkpt>
      <trkpt lat="45.9891" lon="4.82291">
        <ele>236</ele>
        <time>2018-07-05T10:00:56Z</time>
      </trkpt>
      <trkpt lat="45.98906" lon="4.82286">
        <ele>236</ele>
        <time>2018-07-05T10:00:57Z</time>
      </trkpt>
      <trkpt lat="45.98903" lon="4.82281">
        <ele>236</ele>
        <time>2018-07-05T10:00:58Z</time>
      </trkpt>
      <trkpt lat="45.98899" lon="4.82276">
        <ele>236</ele>
        <time>2018-07-05T10:00:59Z</time>
      </trkpt>
      <trkpt lat="45.98895" lon="4.8227">
        <ele>236</ele>
        <time>2018-07-05T10:01:00Z</time>
      </trkpt>
      <trkpt lat="45.98891" lon="4.82264">
        <ele>236</ele>
        <time>2018-07-05T10:01:01Z</time>
      </trkpt>
      <trkpt lat="45.98888" lon="4.82258">
        <ele>236</ele>
        <time>2018-07-05T10:01:02Z</time>
      </trkpt>
      <trkpt lat="45.98884" lon="4.82251">
        <ele>236</ele>
        <time>2018-07-05T10:01:03Z</time>
      </trkpt>
      <trkpt lat="45.9888" lon="4.82243">
        <ele>236</ele>
        <time>2018-07-05T10:01:04Z</time>
      </trkpt>
      <trkpt lat="45.98877" lon="4.82236">
        <ele>236</ele>
        <time>2018-07-05T10:01:05Z</time>
      </trkpt>
      <trkpt lat="45.98874" lon="4.82229">
        <ele>236</ele>
        <time>2018-07-05T10:01:06Z</time>
      </trkpt>
      <trkpt lat="45.98871" lon="4.82222">
        <ele>236</ele>
        <time>2018-07-05T10:01:07Z</time>
      </trkpt>
      <trkpt lat="45.98868" lon="4.82215">
        <ele>236</ele>
        <time>2018-07-05T10:01:08Z</time>
      </trkpt>
      <trkpt lat="45.98866" lon="4.82209">
        <ele>236</ele>
        <time>2018-07-05T10:01:09Z</time>
      </trkpt>
      <trkpt lat="45.98863" lon="4.82202">
        <ele>236</ele>
        <time>2018-07-05T10:01:10Z</time>
      </trkpt>
      <trkpt lat="45.98858" lon="4.82196">
        <ele>236</ele>
        <time>2018-07-05T10:01:11Z</time>
      </trkpt>
      <trkpt lat="45.98856" lon="4.82188">
        <ele>236</ele>
        <time>2018-07-05T10:01:12Z</time>
      </trkpt>
      <trkpt lat="45.98854" lon="4.82181">
        <ele>236</ele>
        <time>2018-07-05T10:01:13Z</time>
      </trkpt>
      <trkpt lat="45.98852" lon="4.82174">
        <ele>236</ele>
        <time>2018-07-05T10:01:14Z</time>
      </trkpt>
      <trkpt lat="45.9885" lon="4.82167">
        <ele>236</ele>
        <time>2018-07-05T10:01:15Z</time>
      </trkpt>
      <trkpt lat="45.98847" lon="4.82158">
        <ele>236</ele>
        <time>2018-07-05T10:01:16Z</time>
      </trkpt>
      <trkpt lat="45.98845" lon="4.82151">
        <ele>236</ele>
        <time>2018-07-05T10:01:17Z</time>
      </trkpt>
      <trkpt lat="45.98843" lon="4.82144">
        <ele>236</ele>
        <time>2018-07-05T10:01:18Z</time>
      </trkpt>
      <trkpt lat="45.98842" lon="4.82136">
        <ele>236</ele>
        <time>2018-07-05T10:01:19Z</time>
      </trkpt>
      <trkpt lat="45.9884" lon="4.82129">
        <ele>236</ele>
        <time>2018-07-05T10:01:20Z</time>
      </trkpt>
      <trkpt lat="45.98839" lon="4.82121">
        <ele>236</ele>
        <time>2018-07-05T10:01:21Z</time>
      </trkpt>
      <trkpt lat="45.98837" lon="4.82113">
        <ele>235</ele>
        <time>2018-07-05T10:01:22Z</time>
      </trkpt>
      <trkpt lat="45.98836" lon="4.82105">
        <ele>236</ele>
        <time>2018-07-05T10:01:23Z</time>
      </trkpt>
      <trkpt lat="45.98834" lon="4.82098">
        <ele>236</ele>
        <time>2018-07-05T10:01:24Z</time>
      </trkpt>
      <trkpt lat="45.98832" lon="4.8209">
        <ele>236</ele>
        <time>2018-07-05T10:01:25Z</time>
      </trkpt>
      <trkpt lat="45.98831" lon="4.82082">
        <ele>236</ele>
        <time>2018-07-05T10:01:26Z</time>
      </trkpt>
      <trkpt lat="45.98833" lon="4.82075">
        <ele>237</ele>
        <time>2018-07-05T10:01:27Z</time>
      </trkpt>
      <trkpt lat="45.98832" lon="4.82067">
        <ele>237</ele>
        <time>2018-07-05T10:01:28Z</time>
      </trkpt>
      <trkpt lat="45.98832" lon="4.82058">
        <ele>237</ele>
        <time>2018-07-05T10:01:29Z</time>
      </trkpt>
      <trkpt lat="45.9883" lon="4.82049">
        <ele>237</ele>
        <time>2018-07-05T10:01:30Z</time>
      </trkpt>
      <trkpt lat="45.98829" lon="4.8204">
        <ele>238</ele>
        <time>2018-07-05T10:01:31Z</time>
      </trkpt>
      <trkpt lat="45.98827" lon="4.8203">
        <ele>238</ele>
        <time>2018-07-05T10:01:32Z</time>
      </trkpt>
      <trkpt lat="45.98826" lon="4.82022">
        <ele>238</ele>
        <time>2018-07-05T10:01:33Z</time>
      </trkpt>
      <trkpt lat="45.98824" lon="4.82012">
        <ele>238</ele>
        <time>2018-07-05T10:01:34Z</time>
      </trkpt>
      <trkpt lat="45.98823" lon="4.82003">
        <ele>238</ele>
        <time>2018-07-05T10:01:35Z</time>
      </trkpt>
      <trkpt lat="45.98822" lon="4.81994">
        <ele>238</ele>
        <time>2018-07-05T10:01:36Z</time>
      </trkpt>
      <trkpt lat="45.9882" lon="4.81986">
        <ele>238</ele>
        <time>2018-07-05T10:01:37Z</time>
      </trkpt>
      <trkpt lat="45.98818" lon="4.81977">
        <ele>239</ele>
        <time>2018-07-05T10:01:38Z</time>
      </trkpt>
      <trkpt lat="45.98815" lon="4.81968">
        <ele>239</ele>
        <time>2018-07-05T10:01:39Z</time>
      </trkpt>
      <trkpt lat="45.98813" lon="4.81958">
        <ele>239</ele>
        <time>2018-07-05T10:01:40Z</time>
      </trkpt>
      <trkpt lat="45.98812" lon="4.8195">
        <ele>239</ele>
        <time>2018-07-05T10:01:41Z</time>
      </trkpt>
      <trkpt lat="45.9881" lon="4.81941">
        <ele>239</ele>
        <time>2018-07-05T10:01:42Z</time>
      </trkpt>
      <trkpt lat="45.98809" lon="4.81933">
        <ele>239</ele>
        <time>2018-07-05T10:01:43Z</time>
      </trkpt>
      <trkpt lat="45.98808" lon="4.81925">
        <ele>239</ele>
        <time>2018-07-05T10:01:44Z</time>
      </trkpt>
      <trkpt lat="45.98807" lon="4.81917">
        <ele>239</ele>
        <time>2018-07-05T10:01:45Z</time>
      </trkpt>
      <trkpt lat="45.98805" lon="4.81908">
        <ele>239</ele>
        <time>2018-07-05T10:01:46Z</time>
      </trkpt>
      <trkpt lat="45.98804" lon="4.819">
        <ele>239</ele>
        <time>2018-07-05T10:01:47Z</time>
      </trkpt>
      <trkpt lat="45.98802" lon="4.81891">
        <ele>239</ele>
        <time>2018-07-05T10:01:48Z</time>
      </trkpt>
      <trkpt lat="45.98799" lon="4.81883">
        <ele>239</ele>
        <time>2018-07-05T10:01:49Z</time>
      </trkpt>
      <trkpt lat="45.98796" lon="4.81874">
        <ele>239</ele>
        <time>2018-07-05T10:01:50Z</time>
      </trkpt>
      <trkpt lat="45.98794" lon="4.81866">
        <ele>239</ele>
        <time>2018-07-05T10:01:51Z</time>
      </trkpt>
      <trkpt lat="45.98792" lon="4.81858">
        <ele>239</ele>
        <time>2018-07-05T10:01:52Z</time>
      </trkpt>
      <trkpt lat="45.9879" lon="4.81852">
        <ele>239</ele>
        <time>2018-07-05T10:01:53Z</time>
      </trkpt>
      <trkpt lat="45.98788" lon="4.81845">
        <ele>239</ele>
        <time>2018-07-05T10:01:54Z</time>
      </trkpt>
      <trkpt lat="45.98784" lon="4.81838">
        <ele>239</ele>
        <time>2018-07-05T10:01:55Z</time>
      </trkpt>
      <trkpt lat="45.9878" lon="4.81831">
        <ele>240</ele>
        <time>2018-07-05T10:01:56Z</time>
      </trkpt>
      <trkpt lat="45.98776" lon="4.81824">
        <ele>240</ele>
        <time>2018-07-05T10:01:57Z</time>
      </trkpt>
      <trkpt lat="45.98772" lon="4.81818">
        <ele>240</ele>
        <time>2018-07-05T10:01:58Z</time>
      </trkpt>
      <trkpt lat="45.98769" lon="4.81813">
        <ele>240</ele>
        <time>2018-07-05T10:01:59Z</time>
      </trkpt>
      <trkpt lat="45.98767" lon="4.81806">
        <ele>240</ele>
        <time>2018-07-05T10:02:00Z</time>
      </trkpt>
      <trkpt lat="45.98763" lon="4.81802">
        <ele>240</ele>
        <time>2018-07-05T10:02:01Z</time>
      </trkpt>
      <trkpt lat="45.9876" lon="4.81795">
        <ele>240</ele>
        <time>2018-07-05T10:02:02Z</time>
      </trkpt>
      <trkpt lat="45.98757" lon="4.81789">
        <ele>241</ele>
        <time>2018-07-05T10:02:03Z</time>
      </trkpt>
      <trkpt lat="45.98751" lon="4.8178">
        <ele>241</ele>
        <time>2018-07-05T10:02:05Z</time>
      </trkpt>
      <trkpt lat="45.9875" lon="4.81775">
        <ele>240</ele>
        <time>2018-07-05T10:02:06Z</time>
      </trkpt>
      <trkpt lat="45.98745" lon="4.81765">
        <ele>240</ele>
        <time>2018-07-05T10:02:08Z</time>
      </trkpt>
      <trkpt lat="45.98744" lon="4.81763">
        <ele>240</ele>
        <time>2018-07-05T10:02:09Z</time>
      </trkpt>
      <trkpt lat="45.98741" lon="4.81751">
        <ele>240</ele>
        <time>2018-07-05T10:02:11Z</time>
      </trkpt>
      <trkpt lat="45.98739" lon="4.81745">
        <ele>240</ele>
        <time>2018-07-05T10:02:12Z</time>
      </trkpt>
      <trkpt lat="45.98734" lon="4.81734">
        <ele>240</ele>
        <time>2018-07-05T10:02:14Z</time>
      </trkpt>
      <trkpt lat="45.98731" lon="4.81731">
        <ele>239</ele>
        <time>2018-07-05T10:02:15Z</time>
      </trkpt>
      <trkpt lat="45.98723" lon="4.81726">
        <ele>239</ele>
        <time>2018-07-05T10:02:17Z</time>
      </trkpt>
      <trkpt lat="45.98719" lon="4.81727">
        <ele>239</ele>
        <time>2018-07-05T10:02:18Z</time>
      </trkpt>
      <trkpt lat="45.98712" lon="4.81727">
        <ele>239</ele>
        <time>2018-07-05T10:02:20Z</time>
      </trkpt>
      <trkpt lat="45.98706" lon="4.81728">
        <ele>239</ele>
        <time>2018-07-05T10:02:21Z</time>
      </trkpt>
      <trkpt lat="45.98701" lon="4.81731">
        <ele>239</ele>
        <time>2018-07-05T10:02:22Z</time>
      </trkpt>
      <trkpt lat="45.98696" lon="4.8173">
        <ele>238</ele>
        <time>2018-07-05T10:02:23Z</time>
      </trkpt>
      <trkpt lat="45.98691" lon="4.81732">
        <ele>238</ele>
        <time>2018-07-05T10:02:24Z</time>
      </trkpt>
      <trkpt lat="45.98684" lon="4.81735">
        <ele>238</ele>
        <time>2018-07-05T10:02:25Z</time>
      </trkpt>
      <trkpt lat="45.98679" lon="4.81737">
        <ele>238</ele>
        <time>2018-07-05T10:02:26Z</time>
      </trkpt>
      <trkpt lat="45.98674" lon="4.81738">
        <ele>238</ele>
        <time>2018-07-05T10:02:27Z</time>
      </trkpt>
      <trkpt lat="45.98666" lon="4.8174">
        <ele>238</ele>
        <time>2018-07-05T10:02:28Z</time>
      </trkpt>
      <trkpt lat="45.98663" lon="4.81741">
        <ele>237</ele>
        <time>2018-07-05T10:02:29Z</time>
      </trkpt>
      <trkpt lat="45.98657" lon="4.81743">
        <ele>237</ele>
        <time>2018-07-05T10:02:30Z</time>
      </trkpt>
      <trkpt lat="45.98652" lon="4.81745">
        <ele>237</ele>
        <time>2018-07-05T10:02:31Z</time>
      </trkpt>
      <trkpt lat="45.98647" lon="4.81747">
        <ele>237</ele>
        <time>2018-07-05T10:02:32Z</time>
      </trkpt>
      <trkpt lat="45.98641" lon="4.81749">
        <ele>237</ele>
        <time>2018-07-05T10:02:33Z</time>
      </trkpt>
      <trkpt lat="45.98637" lon="4.8175">
        <ele>238</ele>
        <time>2018-07-05T10:02:34Z</time>
      </trkpt>
      <trkpt lat="45.98632" lon="4.81752">
        <ele>238</ele>
        <time>2018-07-05T10:02:35Z</time>
      </trkpt>
      <trkpt lat="45.98624" lon="4.81753">
        <ele>238</ele>
        <time>2018-07-05T10:02:37Z</time>
      </trkpt>
      <trkpt lat="45.98618" lon="4.81755">
        <ele>238</ele>
        <time>2018-07-05T10:02:38Z</time>
      </trkpt>
      <trkpt lat="45.98613" lon="4.81756">
        <ele>238</ele>
        <time>2018-07-05T10:02:39Z</time>
      </trkpt>
      <trkpt lat="45.98609" lon="4.81757">
        <ele>238</ele>
        <time>2018-07-05T10:02:40Z</time>
      </trkpt>
      <trkpt lat="45.98603" lon="4.8176">
        <ele>238</ele>
        <time>2018-07-05T10:02:41Z</time>
      </trkpt>
      <trkpt lat="45.98598" lon="4.81763">
        <ele>238</ele>
        <time>2018-07-05T10:02:42Z</time>
      </trkpt>
      <trkpt lat="45.98591" lon="4.81766">
        <ele>238</ele>
        <time>2018-07-05T10:02:44Z</time>
      </trkpt>
      <trkpt lat="45.98587" lon="4.8177">
        <ele>238</ele>
        <time>2018-07-05T10:02:45Z</time>
      </trkpt>
      <trkpt lat="45.98583" lon="4.81774">
        <ele>237</ele>
        <time>2018-07-05T10:02:46Z</time>
      </trkpt>
      <trkpt lat="45.98578" lon="4.81778">
        <ele>238</ele>
        <time>2018-07-05T10:02:47Z</time>
      </trkpt>
      <trkpt lat="45.98573" lon="4.81784">
        <ele>238</ele>
        <time>2018-07-05T10:02:49Z</time>
      </trkpt>
      <trkpt lat="45.98567" lon="4.81791">
        <ele>238</ele>
        <time>2018-07-05T10:02:50Z</time>
      </trkpt>
      <trkpt lat="45.9856" lon="4.81798">
        <ele>238</ele>
        <time>2018-07-05T10:02:52Z</time>
      </trkpt>
      <trkpt lat="45.98556" lon="4.818">
        <ele>238</ele>
        <time>2018-07-05T10:02:53Z</time>
      </trkpt>
      <trkpt lat="45.98553" lon="4.81804">
        <ele>238</ele>
        <time>2018-07-05T10:02:54Z</time>
      </trkpt>
      <trkpt lat="45.98547" lon="4.81804">
        <ele>238</ele>
        <time>2018-07-05T10:02:55Z</time>
      </trkpt>
      <trkpt lat="45.98539" lon="4.81799">
        <ele>238</ele>
        <time>2018-07-05T10:02:57Z</time>
      </trkpt>
      <trkpt lat="45.98536" lon="4.81795">
        <ele>238</ele>
        <time>2018-07-05T10:02:58Z</time>
      </trkpt>
      <trkpt lat="45.98532" lon="4.8179">
        <ele>238</ele>
        <time>2018-07-05T10:02:59Z</time>
      </trkpt>
      <trkpt lat="45.98528" lon="4.81785">
        <ele>238</ele>
        <time>2018-07-05T10:03:00Z</time>
      </trkpt>
      <trkpt lat="45.98524" lon="4.8178">
        <ele>238</ele>
        <time>2018-07-05T10:03:01Z</time>
      </trkpt>
      <trkpt lat="45.98521" lon="4.81774">
        <ele>238</ele>
        <time>2018-07-05T10:03:02Z</time>
      </trkpt>
      <trkpt lat="45.98517" lon="4.81768">
        <ele>238</ele>
        <time>2018-07-05T10:03:03Z</time>
      </trkpt>
      <trkpt lat="45.98514" lon="4.81763">
        <ele>237</ele>
        <time>2018-07-05T10:03:04Z</time>
      </trkpt>
      <trkpt lat="45.9851" lon="4.81759">
        <ele>237</ele>
        <time>2018-07-05T10:03:05Z</time>
      </trkpt>
      <trkpt lat="45.98507" lon="4.81754">
        <ele>237</ele>
        <time>2018-07-05T10:03:06Z</time>
      </trkpt>
      <trkpt lat="45.98502" lon="4.81752">
        <ele>237</ele>
        <time>2018-07-05T10:03:07Z</time>
      </trkpt>
      <trkpt lat="45.98498" lon="4.81748">
        <ele>237</ele>
        <time>2018-07-05T10:03:08Z</time>
      </trkpt>
      <trkpt lat="45.9849" lon="4.81742">
        <ele>238</ele>
        <time>2018-07-05T10:03:10Z</time>
      </trkpt>
      <trkpt lat="45.98486" lon="4.81739">
        <ele>238</ele>
        <time>2018-07-05T10:03:11Z</time>
      </trkpt>
      <trkpt lat="45.98479" lon="4.81733">
        <ele>238</ele>
        <time>2018-07-05T10:03:13Z</time>
      </trkpt>
      <trkpt lat="45.98476" lon="4.8173">
        <ele>239</ele>
        <time>2018-07-05T10:03:14Z</time>
      </trkpt>
      <trkpt lat="45.98469" lon="4.81723">
        <ele>239</ele>
        <time>2018-07-05T10:03:16Z</time>
      </trkpt>
      <trkpt lat="45.98466" lon="4.81719">
        <ele>239</ele>
        <time>2018-07-05T10:03:17Z</time>
      </trkpt>
      <trkpt lat="45.9846" lon="4.81712">
        <ele>239</ele>
        <time>2018-07-05T10:03:19Z</time>
      </trkpt>
      <trkpt lat="45.98459" lon="4.8171">
        <ele>239</ele>
        <time>2018-07-05T10:03:20Z</time>
      </trkpt>
      <trkpt lat="45.98454" lon="4.81701">
        <ele>239</ele>
        <time>2018-07-05T10:03:23Z</time>
      </trkpt>
      <trkpt lat="45.98453" lon="4.81698">
        <ele>239</ele>
        <time>2018-07-05T10:03:24Z</time>
      </trkpt>
      <trkpt lat="45.98449" lon="4.81691">
        <ele>239</ele>
        <time>2018-07-05T10:03:26Z</time>
      </trkpt>
      <trkpt lat="45.98444" lon="4.8168">
        <ele>239</ele>
        <time>2018-07-05T10:03:27Z</time>
      </trkpt>
      <trkpt lat="45.98439" lon="4.81673">
        <ele>240</ele>
        <time>2018-07-05T10:03:29Z</time>
      </trkpt>
      <trkpt lat="45.98435" lon="4.8167">
        <ele>240</ele>
        <time>2018-07-05T10:03:30Z</time>
      </trkpt>
      <trkpt lat="45.98428" lon="4.81665">
        <ele>240</ele>
        <time>2018-07-05T10:03:32Z</time>
      </trkpt>
      <trkpt lat="45.98424" lon="4.81663">
        <ele>240</ele>
        <time>2018-07-05T10:03:33Z</time>
      </trkpt>
      <trkpt lat="45.98415" lon="4.81663">
        <ele>241</ele>
        <time>2018-07-05T10:03:35Z</time>
      </trkpt>
      <trkpt lat="45.9841" lon="4.81664">
        <ele>241</ele>
        <time>2018-07-05T10:03:36Z</time>
      </trkpt>
      <trkpt lat="45.98402" lon="4.81665">
        <ele>242</ele>
        <time>2018-07-05T10:03:38Z</time>
      </trkpt>
      <trkpt lat="45.98397" lon="4.81667">
        <ele>243</ele>
        <time>2018-07-05T10:03:39Z</time>
      </trkpt>
      <trkpt lat="45.98389" lon="4.8167">
        <ele>243</ele>
        <time>2018-07-05T10:03:41Z</time>
      </trkpt>
      <trkpt lat="45.98385" lon="4.81671">
        <ele>243</ele>
        <time>2018-07-05T10:03:42Z</time>
      </trkpt>
      <trkpt lat="45.9838" lon="4.81673">
        <ele>244</ele>
        <time>2018-07-05T10:03:43Z</time>
      </trkpt>
      <trkpt lat="45.98373" lon="4.81674">
        <ele>244</ele>
        <time>2018-07-05T10:03:44Z</time>
      </trkpt>
      <trkpt lat="45.98365" lon="4.81676">
        <ele>244</ele>
        <time>2018-07-05T10:03:46Z</time>
      </trkpt>
      <trkpt lat="45.98359" lon="4.81676">
        <ele>244</ele>
        <time>2018-07-05T10:03:47Z</time>
      </trkpt>
      <trkpt lat="45.9835" lon="4.81675">
        <ele>245</ele>
        <time>2018-07-05T10:03:49Z</time>
      </trkpt>
      <trkpt lat="45.98346" lon="4.81675">
        <ele>245</ele>
        <time>2018-07-05T10:03:50Z</time>
      </trkpt>
      <trkpt lat="45.98338" lon="4.81672">
        <ele>245</ele>
        <time>2018-07-05T10:03:52Z</time>
      </trkpt>
      <trkpt lat="45.98334" lon="4.81671">
        <ele>246</ele>
        <time>2018-07-05T10:03:53Z</time>
      </trkpt>
      <trkpt lat="45.98326" lon="4.81667">
        <ele>246</ele>
        <time>2018-07-05T10:03:55Z</time>
      </trkpt>
      <trkpt lat="45.98322" lon="4.81665">
        <ele>246</ele>
        <time>2018-07-05T10:03:56Z</time>
      </trkpt>
      <trkpt lat="45.98317" lon="4.81663">
        <ele>246</ele>
        <time>2018-07-05T10:03:57Z</time>
      </trkpt>
      <trkpt lat="45.98313" lon="4.81658">
        <ele>246</ele>
        <time>2018-07-05T10:03:58Z</time>
      </trkpt>
      <trkpt lat="45.9831" lon="4.81654">
        <ele>246</ele>
        <time>2018-07-05T10:03:59Z</time>
      </trkpt>
      <trkpt lat="45.98306" lon="4.81651">
        <ele>246</ele>
        <time>2018-07-05T10:04:00Z</time>
      </trkpt>
      <trkpt lat="45.98302" lon="4.81646">
        <ele>246</ele>
        <time>2018-07-05T10:04:01Z</time>
      </trkpt>
      <trkpt lat="45.98299" lon="4.81642">
        <ele>247</ele>
        <time>2018-07-05T10:04:02Z</time>
      </trkpt>
      <trkpt lat="45.98294" lon="4.81634">
        <ele>247</ele>
        <time>2018-07-05T10:04:04Z</time>
      </trkpt>
      <trkpt lat="45.98291" lon="4.8163">
        <ele>247</ele>
        <time>2018-07-05T10:04:05Z</time>
      </trkpt>
      <trkpt lat="45.98285" lon="4.81621">
        <ele>247</ele>
        <time>2018-07-05T10:04:07Z</time>
      </trkpt>
      <trkpt lat="45.98283" lon="4.81615">
        <ele>247</ele>
        <time>2018-07-05T10:04:08Z</time>
      </trkpt>
      <trkpt lat="45.98279" lon="4.81604">
        <ele>247</ele>
        <time>2018-07-05T10:04:10Z</time>
      </trkpt>
      <trkpt lat="45.98277" lon="4.81597">
        <ele>247</ele>
        <time>2018-07-05T10:04:11Z</time>
      </trkpt>
      <trkpt lat="45.98274" lon="4.81591">
        <ele>247</ele>
        <time>2018-07-05T10:04:12Z</time>
      </trkpt>
      <trkpt lat="45.98272" lon="4.81584">
        <ele>247</ele>
        <time>2018-07-05T10:04:13Z</time>
      </trkpt>
      <trkpt lat="45.98267" lon="4.81574">
        <ele>247</ele>
        <time>2018-07-05T10:04:15Z</time>
      </trkpt>
      <trkpt lat="45.98265" lon="4.81568">
        <ele>247</ele>
        <time>2018-07-05T10:04:16Z</time>
      </trkpt>
      <trkpt lat="45.98262" lon="4.81559">
        <ele>247</ele>
        <time>2018-07-05T10:04:18Z</time>
      </trkpt>
      <trkpt lat="45.9826" lon="4.81554">
        <ele>247</ele>
        <time>2018-07-05T10:04:19Z</time>
      </trkpt>
      <trkpt lat="45.98257" lon="4.81542">
        <ele>247</ele>
        <time>2018-07-05T10:04:21Z</time>
      </trkpt>
      <trkpt lat="45.98255" lon="4.81536">
        <ele>247</ele>
        <time>2018-07-05T10:04:22Z</time>
      </trkpt>
      <trkpt lat="45.98253" lon="4.8153">
        <ele>247</ele>
        <time>2018-07-05T10:04:23Z</time>
      </trkpt>
      <trkpt lat="45.98251" lon="4.81524">
        <ele>247</ele>
        <time>2018-07-05T10:04:24Z</time>
      </trkpt>
      <trkpt lat="45.98247" lon="4.81513">
        <ele>249</ele>
        <time>2018-07-05T10:04:26Z</time>
      </trkpt>
      <trkpt lat="45.98246" lon="4.81507">
        <ele>249</ele>
        <time>2018-07-05T10:04:27Z</time>
      </trkpt>
      <trkpt lat="45.98243" lon="4.815">
        <ele>249</ele>
        <time>2018-07-05T10:04:28Z</time>
      </trkpt>
      <trkpt lat="45.98241" lon="4.81494">
        <ele>249</ele>
        <time>2018-07-05T10:04:29Z</time>
      </trkpt>
      <trkpt lat="45.98238" lon="4.81482">
        <ele>249</ele>
        <time>2018-07-05T10:04:31Z</time>
      </trkpt>
      <trkpt lat="45.98235" lon="4.81476">
        <ele>249</ele>
        <time>2018-07-05T10:04:32Z</time>
      </trkpt>
      <trkpt lat="45.98231" lon="4.81466">
        <ele>249</ele>
        <time>2018-07-05T10:04:34Z</time>
      </trkpt>
      <trkpt lat="45.98229" lon="4.81461">
        <ele>249</ele>
        <time>2018-07-05T10:04:35Z</time>
      </trkpt>
      <trkpt lat="45.98226" lon="4.8145">
        <ele>249</ele>
        <time>2018-07-05T10:04:37Z</time>
      </trkpt>
      <trkpt lat="45.98225" lon="4.81445">
        <ele>249</ele>
        <time>2018-07-05T10:04:38Z</time>
      </trkpt>
      <trkpt lat="45.98222" lon="4.81434">
        <ele>249</ele>
        <time>2018-07-05T10:04:40Z</time>
      </trkpt>
      <trkpt lat="45.98219" lon="4.81428">
        <ele>249</ele>
        <time>2018-07-05T10:04:41Z</time>
      </trkpt>
      <trkpt lat="45.98216" lon="4.81417">
        <ele>248</ele>
        <time>2018-07-05T10:04:43Z</time>
      </trkpt>
      <trkpt lat="45.98214" lon="4.8141">
        <ele>248</ele>
        <time>2018-07-05T10:04:44Z</time>
      </trkpt>
      <trkpt lat="45.98212" lon="4.81403">
        <ele>248</ele>
        <time>2018-07-05T10:04:45Z</time>
      </trkpt>
      <trkpt lat="45.9821" lon="4.81397">
        <ele>248</ele>
        <time>2018-07-05T10:04:46Z</time>
      </trkpt>
      <trkpt lat="45.98208" lon="4.8139">
        <ele>248</ele>
        <time>2018-07-05T10:04:47Z</time>
      </trkpt>
      <trkpt lat="45.98206" lon="4.81384">
        <ele>248</ele>
        <time>2018-07-05T10:04:48Z</time>
      </trkpt>
      <trkpt lat="45.98204" lon="4.81376">
        <ele>248</ele>
        <time>2018-07-05T10:04:49Z</time>
      </trkpt>
      <trkpt lat="45.98202" lon="4.8137">
        <ele>248</ele>
        <time>2018-07-05T10:04:50Z</time>
      </trkpt>
      <trkpt lat="45.98201" lon="4.81362">
        <ele>248</ele>
        <time>2018-07-05T10:04:51Z</time>
      </trkpt>
      <trkpt lat="45.98199" lon="4.81354">
        <ele>248</ele>
        <time>2018-07-05T10:04:52Z</time>
      </trkpt>
      <trkpt lat="45.98197" lon="4.81347">
        <ele>248</ele>
        <time>2018-07-05T10:04:53Z</time>
      </trkpt>
      <trkpt lat="45.98195" lon="4.81339">
        <ele>248</ele>
        <time>2018-07-05T10:04:54Z</time>
      </trkpt>
      <trkpt lat="45.98193" lon="4.81332">
        <ele>247</ele>
        <time>2018-07-05T10:04:55Z</time>
      </trkpt>
      <trkpt lat="45.98192" lon="4.81324">
        <ele>247</ele>
        <time>2018-07-05T10:04:56Z</time>
      </trkpt>
      <trkpt lat="45.9819" lon="4.81316">
        <ele>247</ele>
        <time>2018-07-05T10:04:57Z</time>
      </trkpt>
      <trkpt lat="45.98188" lon="4.81309">
        <ele>247</ele>
        <time>2018-07-05T10:04:58Z</time>
      </trkpt>
      <trkpt lat="45.98187" lon="4.81301">
        <ele>247</ele>
        <time>2018-07-05T10:04:59Z</time>
      </trkpt>
      <trkpt lat="45.98185" lon="4.81294">
        <ele>247</ele>
        <time>2018-07-05T10:05:00Z</time>
      </trkpt>
      <trkpt lat="45.98183" lon="4.81286">
        <ele>247</ele>
        <time>2018-07-05T10:05:01Z</time>
      </trkpt>
      <trkpt lat="45.98181" lon="4.81279">
        <ele>247</ele>
        <time>2018-07-05T10:05:02Z</time>
      </trkpt>
      <trkpt lat="45.98181" lon="4.81271">
        <ele>247</ele>
        <time>2018-07-05T10:05:03Z</time>
      </trkpt>
      <trkpt lat="45.9818" lon="4.81263">
        <ele>247</ele>
        <time>2018-07-05T10:05:04Z</time>
      </trkpt>
      <trkpt lat="45.98179" lon="4.81254">
        <ele>247</ele>
        <time>2018-07-05T10:05:05Z</time>
      </trkpt>
      <trkpt lat="45.98177" lon="4.81246">
        <ele>247</ele>
        <time>2018-07-05T10:05:06Z</time>
      </trkpt>
      <trkpt lat="45.98175" lon="4.81239">
        <ele>247</ele>
        <time>2018-07-05T10:05:07Z</time>
      </trkpt>
      <trkpt lat="45.98174" lon="4.8123">
        <ele>246</ele>
        <time>2018-07-05T10:05:08Z</time>
      </trkpt>
      <trkpt lat="45.98171" lon="4.81223">
        <ele>246</ele>
        <time>2018-07-05T10:05:09Z</time>
      </trkpt>
      <trkpt lat="45.98171" lon="4.81215">
        <ele>246</ele>
        <time>2018-07-05T10:05:10Z</time>
      </trkpt>
      <trkpt lat="45.98169" lon="4.81207">
        <ele>246</ele>
        <time>2018-07-05T10:05:11Z</time>
      </trkpt>
      <trkpt lat="45.98167" lon="4.81199">
        <ele>245</ele>
        <time>2018-07-05T10:05:12Z</time>
      </trkpt>
      <trkpt lat="45.98166" lon="4.81192">
        <ele>246</ele>
        <time>2018-07-05T10:05:13Z</time>
      </trkpt>
      <trkpt lat="45.98165" lon="4.81184">
        <ele>246</ele>
        <time>2018-07-05T10:05:14Z</time>
      </trkpt>
      <trkpt lat="45.98164" lon="4.81175">
        <ele>246</ele>
        <time>2018-07-05T10:05:15Z</time>
      </trkpt>
      <trkpt lat="45.98162" lon="4.81167">
        <ele>245</ele>
        <time>2018-07-05T10:05:16Z</time>
      </trkpt>
      <trkpt lat="45.9816" lon="4.81159">
        <ele>245</ele>
        <time>2018-07-05T10:05:17Z</time>
      </trkpt>
      <trkpt lat="45.98156" lon="4.81151">
        <ele>245</ele>
        <time>2018-07-05T10:05:18Z</time>
      </trkpt>
      <trkpt lat="45.98153" lon="4.81144">
        <ele>245</ele>
        <time>2018-07-05T10:05:19Z</time>
      </trkpt>
      <trkpt lat="45.98149" lon="4.81136">
        <ele>245</ele>
        <time>2018-07-05T10:05:20Z</time>
      </trkpt>
      <trkpt lat="45.98145" lon="4.81129">
        <ele>245</ele>
        <time>2018-07-05T10:05:21Z</time>
      </trkpt>
      <trkpt lat="45.98142" lon="4.81121">
        <ele>245</ele>
        <time>2018-07-05T10:05:22Z</time>
      </trkpt>
      <trkpt lat="45.9814" lon="4.81114">
        <ele>245</ele>
        <time>2018-07-05T10:05:23Z</time>
      </trkpt>
      <trkpt lat="45.98137" lon="4.81106">
        <ele>245</ele>
        <time>2018-07-05T10:05:24Z</time>
      </trkpt>
      <trkpt lat="45.98134" lon="4.81099">
        <ele>245</ele>
        <time>2018-07-05T10:05:25Z</time>
      </trkpt>
      <trkpt lat="45.98131" lon="4.81091">
        <ele>245</ele>
        <time>2018-07-05T10:05:26Z</time>
      </trkpt>
      <trkpt lat="45.98129" lon="4.81085">
        <ele>245</ele>
        <time>2018-07-05T10:05:27Z</time>
      </trkpt>
      <trkpt lat="45.98127" lon="4.81078">
        <ele>243</ele>
        <time>2018-07-05T10:05:28Z</time>
      </trkpt>
      <trkpt lat="45.98124" lon="4.81071">
        <ele>243</ele>
        <time>2018-07-05T10:05:29Z</time>
      </trkpt>
      <trkpt lat="45.98122" lon="4.81063">
        <ele>243</ele>
        <time>2018-07-05T10:05:30Z</time>
      </trkpt>
      <trkpt lat="45.98121" lon="4.81055">
        <ele>243</ele>
        <time>2018-07-05T10:05:31Z</time>
      </trkpt>
      <trkpt lat="45.98119" lon="4.81047">
        <ele>242</ele>
        <time>2018-07-05T10:05:32Z</time>
      </trkpt>
      <trkpt lat="45.98117" lon="4.81038">
        <ele>242</ele>
        <time>2018-07-05T10:05:33Z</time>
      </trkpt>
      <trkpt lat="45.98114" lon="4.81029">
        <ele>242</ele>
        <time>2018-07-05T10:05:34Z</time>
      </trkpt>
      <trkpt lat="45.98111" lon="4.81021">
        <ele>242</ele>
        <time>2018-07-05T10:05:35Z</time>
      </trkpt>
      <trkpt lat="45.98108" lon="4.81013">
        <ele>242</ele>
        <time>2018-07-05T10:05:36Z</time>
      </trkpt>
      <trkpt lat="45.98103" lon="4.81005">
        <ele>242</ele>
        <time>2018-07-05T10:05:37Z</time>
      </trkpt>
      <trkpt lat="45.981" lon="4.80999">
        <ele>240</ele>
        <time>2018-07-05T10:05:38Z</time>
      </trkpt>
      <trkpt lat="45.98098" lon="4.80992">
        <ele>240</ele>
        <time>2018-07-05T10:05:39Z</time>
      </trkpt>
      <trkpt lat="45.98095" lon="4.80985">
        <ele>240</ele>
        <time>2018-07-05T10:05:40Z</time>
      </trkpt>
      <trkpt lat="45.98092" lon="4.80978">
        <ele>239</ele>
        <time>2018-07-05T10:05:41Z</time>
      </trkpt>
      <trkpt lat="45.9809" lon="4.8097">
        <ele>239</ele>
        <time>2018-07-05T10:05:42Z</time>
      </trkpt>
      <trkpt lat="45.98088" lon="4.80963">
        <ele>239</ele>
        <time>2018-07-05T10:05:43Z</time>
      </trkpt>
      <trkpt lat="45.98085" lon="4.80954">
        <ele>239</ele>
        <time>2018-07-05T10:05:44Z</time>
      </trkpt>
      <trkpt lat="45.98082" lon="4.80945">
        <ele>240</ele>
        <time>2018-07-05T10:05:45Z</time>
      </trkpt>
      <trkpt lat="45.9808" lon="4.80936">
        <ele>240</ele>
        <time>2018-07-05T10:05:46Z</time>
      </trkpt>
      <trkpt lat="45.98077" lon="4.80925">
        <ele>240</ele>
        <time>2018-07-05T10:05:47Z</time>
      </trkpt>
      <trkpt lat="45.98075" lon="4.80915">
        <ele>238</ele>
        <time>2018-07-05T10:05:48Z</time>
      </trkpt>
      <trkpt lat="45.98072" lon="4.80905">
        <ele>238</ele>
        <time>2018-07-05T10:05:49Z</time>
      </trkpt>
      <trkpt lat="45.9807" lon="4.80894">
        <ele>238</ele>
        <time>2018-07-05T10:05:50Z</time>
      </trkpt>
      <trkpt lat="45.98068" lon="4.80883">
        <ele>237</ele>
        <time>2018-07-05T10:05:51Z</time>
      </trkpt>
      <trkpt lat="45.98066" lon="4.80872">
        <ele>237</ele>
        <time>2018-07-05T10:05:52Z</time>
      </trkpt>
      <trkpt lat="45.98064" lon="4.80862">
        <ele>237</ele>
        <time>2018-07-05T10:05:53Z</time>
      </trkpt>
      <trkpt lat="45.98062" lon="4.80852">
        <ele>236</ele>
        <time>2018-07-05T10:05:54Z</time>
      </trkpt>
      <trkpt lat="45.9806" lon="4.80842">
        <ele>236</ele>
        <time>2018-07-05T10:05:55Z</time>
      </trkpt>
      <trkpt lat="45.98059" lon="4.80832">
        <ele>234</ele>
        <time>2018-07-05T10:05:56Z</time>
      </trkpt>
      <trkpt lat="45.98056" lon="4.80822">
        <ele>234</ele>
        <time>2018-07-05T10:05:57Z</time>
      </trkpt>
      <trkpt lat="45.98054" lon="4.80814">
        <ele>234</ele>
        <time>2018-07-05T10:05:58Z</time>
      </trkpt>
      <trkpt lat="45.98053" lon="4.80805">
        <ele>234</ele>
        <time>2018-07-05T10:05:59Z</time>
      </trkpt>
      <trkpt lat="45.9805" lon="4.80796">
        <ele>233</ele>
        <time>2018-07-05T10:06:00Z</time>
      </trkpt>
      <trkpt lat="45.98048" lon="4.80788">
        <ele>233</ele>
        <time>2018-07-05T10:06:01Z</time>
      </trkpt>
      <trkpt lat="45.98045" lon="4.80779">
        <ele>233</ele>
        <time>2018-07-05T10:06:02Z</time>
      </trkpt>
      <trkpt lat="45.98044" lon="4.80771">
        <ele>233</ele>
        <time>2018-07-05T10:06:03Z</time>
      </trkpt>
      <trkpt lat="45.9804" lon="4.80762">
        <ele>233</ele>
        <time>2018-07-05T10:06:04Z</time>
      </trkpt>
      <trkpt lat="45.98038" lon="4.80755">
        <ele>233</ele>
        <time>2018-07-05T10:06:05Z</time>
      </trkpt>
      <trkpt lat="45.98035" lon="4.80747">
        <ele>231</ele>
        <time>2018-07-05T10:06:06Z</time>
      </trkpt>
      <trkpt lat="45.98033" lon="4.8074">
        <ele>231</ele>
        <time>2018-07-05T10:06:07Z</time>
      </trkpt>
      <trkpt lat="45.98031" lon="4.80734">
        <ele>231</ele>
        <time>2018-07-05T10:06:08Z</time>
      </trkpt>
      <trkpt lat="45.98029" lon="4.80727">
        <ele>231</ele>
        <time>2018-07-05T10:06:09Z</time>
      </trkpt>
      <trkpt lat="45.98027" lon="4.80721">
        <ele>231</ele>
        <time>2018-07-05T10:06:10Z</time>
      </trkpt>
      <trkpt lat="45.98028" lon="4.8071">
        <ele>231</ele>
        <time>2018-07-05T10:06:12Z</time>
      </trkpt>
      <trkpt lat="45.98029" lon="4.80705">
        <ele>231</ele>
        <time>2018-07-05T10:06:13Z</time>
      </trkpt>
      <trkpt lat="45.98033" lon="4.80695">
        <ele>230</ele>
        <time>2018-07-05T10:06:15Z</time>
      </trkpt>
      <trkpt lat="45.98039" lon="4.80692">
        <ele>230</ele>
        <time>2018-07-05T10:06:16Z</time>
      </trkpt>
      <trkpt lat="45.98045" lon="4.80693">
        <ele>230</ele>
        <time>2018-07-05T10:06:17Z</time>
      </trkpt>
      <trkpt lat="45.98051" lon="4.80694">
        <ele>230</ele>
        <time>2018-07-05T10:06:18Z</time>
      </trkpt>
      <trkpt lat="45.98057" lon="4.80695">
        <ele>230</ele>
        <time>2018-07-05T10:06:19Z</time>
      </trkpt>
      <trkpt lat="45.98063" lon="4.80694">
        <ele>230</ele>
        <time>2018-07-05T10:06:20Z</time>
      </trkpt>
      <trkpt lat="45.9807" lon="4.80695">
        <ele>230</ele>
        <time>2018-07-05T10:06:21Z</time>
      </trkpt>
      <trkpt lat="45.98077" lon="4.80696">
        <ele>230</ele>
        <time>2018-07-05T10:06:22Z</time>
      </trkpt>
      <trkpt lat="45.98084" lon="4.80696">
        <ele>228</ele>
        <time>2018-07-05T10:06:23Z</time>
      </trkpt>
      <trkpt lat="45.98092" lon="4.80695">
        <ele>228</ele>
        <time>2018-07-05T10:06:24Z</time>
      </trkpt>
      <trkpt lat="45.98098" lon="4.80696">
        <ele>228</ele>
        <time>2018-07-05T10:06:25Z</time>
      </trkpt>
      <trkpt lat="45.98105" lon="4.80697">
        <ele>228</ele>
        <time>2018-07-05T10:06:26Z</time>
      </trkpt>
      <trkpt lat="45.98113" lon="4.80697">
        <ele>228</ele>
        <time>2018-07-05T10:06:27Z</time>
      </trkpt>
      <trkpt lat="45.98121" lon="4.80696">
        <ele>228</ele>
        <time>2018-07-05T10:06:28Z</time>
      </trkpt>
      <trkpt lat="45.98128" lon="4.80697">
        <ele>228</ele>
        <time>2018-07-05T10:06:29Z</time>
      </trkpt>
      <trkpt lat="45.98135" lon="4.80697">
        <ele>228</ele>
        <time>2018-07-05T10:06:30Z</time>
      </trkpt>
      <trkpt lat="45.98143" lon="4.80698">
        <ele>228</ele>
        <time>2018-07-05T10:06:31Z</time>
      </trkpt>
      <trkpt lat="45.9815" lon="4.80697">
        <ele>228</ele>
        <time>2018-07-05T10:06:32Z</time>
      </trkpt>
      <trkpt lat="45.98157" lon="4.80696">
        <ele>228</ele>
        <time>2018-07-05T10:06:33Z</time>
      </trkpt>
      <trkpt lat="45.98165" lon="4.80695">
        <ele>227</ele>
        <time>2018-07-05T10:06:34Z</time>
      </trkpt>
      <trkpt lat="45.98172" lon="4.80693">
        <ele>225</ele>
        <time>2018-07-05T10:06:35Z</time>
      </trkpt>
      <trkpt lat="45.9818" lon="4.80691">
        <ele>225</ele>
        <time>2018-07-05T10:06:36Z</time>
      </trkpt>
      <trkpt lat="45.98188" lon="4.80689">
        <ele>225</ele>
        <time>2018-07-05T10:06:37Z</time>
      </trkpt>
      <trkpt lat="45.98196" lon="4.80685">
        <ele>225</ele>
        <time>2018-07-05T10:06:38Z</time>
      </trkpt>
      <trkpt lat="45.98202" lon="4.80682">
        <ele>225</ele>
        <time>2018-07-05T10:06:39Z</time>
      </trkpt>
      <trkpt lat="45.98209" lon="4.80678">
        <ele>224</ele>
        <time>2018-07-05T10:06:40Z</time>
      </trkpt>
      <trkpt lat="45.98215" lon="4.80674">
        <ele>224</ele>
        <time>2018-07-05T10:06:41Z</time>
      </trkpt>
      <trkpt lat="45.9822" lon="4.80667">
        <ele>224</ele>
        <time>2018-07-05T10:06:42Z</time>
      </trkpt>
      <trkpt lat="45.98225" lon="4.80658">
        <ele>223</ele>
        <time>2018-07-05T10:06:43Z</time>
      </trkpt>
      <trkpt lat="45.98229" lon="4.80648">
        <ele>223</ele>
        <time>2018-07-05T10:06:44Z</time>
      </trkpt>
      <trkpt lat="45.98232" lon="4.80638">
        <ele>224</ele>
        <time>2018-07-05T10:06:45Z</time>
      </trkpt>
      <trkpt lat="45.98235" lon="4.80627">
        <ele>224</ele>
        <time>2018-07-05T10:06:46Z</time>
      </trkpt>
      <trkpt lat="45.98237" lon="4.80616">
        <ele>224</ele>
        <time>2018-07-05T10:06:47Z</time>
      </trkpt>
      <trkpt lat="45.98241" lon="4.80606">
        <ele>224</ele>
        <time>2018-07-05T10:06:48Z</time>
      </trkpt>
      <trkpt lat="45.98244" lon="4.80596">
        <ele>224</ele>
        <time>2018-07-05T10:06:49Z</time>
      </trkpt>
      <trkpt lat="45.98247" lon="4.80586">
        <ele>224</ele>
        <time>2018-07-05T10:06:50Z</time>
      </trkpt>
      <trkpt lat="45.98251" lon="4.80577">
        <ele>224</ele>
        <time>2018-07-05T10:06:51Z</time>
      </trkpt>
      <trkpt lat="45.98254" lon="4.80567">
        <ele>224</ele>
        <time>2018-07-05T10:06:52Z</time>
      </trkpt>
      <trkpt lat="45.98256" lon="4.80559">
        <ele>224</ele>
        <time>2018-07-05T10:06:53Z</time>
      </trkpt>
      <trkpt lat="45.98259" lon="4.8055">
        <ele>224</ele>
        <time>2018-07-05T10:06:54Z</time>
      </trkpt>
      <trkpt lat="45.98261" lon="4.80541">
        <ele>224</ele>
        <time>2018-07-05T10:06:55Z</time>
      </trkpt>
      <trkpt lat="45.98263" lon="4.80533">
        <ele>224</ele>
        <time>2018-07-05T10:06:56Z</time>
      </trkpt>
      <trkpt lat="45.98265" lon="4.80525">
        <ele>224</ele>
        <time>2018-07-05T10:06:57Z</time>
      </trkpt>
      <trkpt lat="45.98268" lon="4.80516">
        <ele>223</ele>
        <time>2018-07-05T10:06:58Z</time>
      </trkpt>
      <trkpt lat="45.98269" lon="4.80507">
        <ele>223</ele>
        <time>2018-07-05T10:06:59Z</time>
      </trkpt>
      <trkpt lat="45.98272" lon="4.80499">
        <ele>223</ele>
        <time>2018-07-05T10:07:00Z</time>
      </trkpt>
      <trkpt lat="45.98276" lon="4.80488">
        <ele>223</ele>
        <time>2018-07-05T10:07:01Z</time>
      </trkpt>
      <trkpt lat="45.98278" lon="4.80477">
        <ele>223</ele>
        <time>2018-07-05T10:07:02Z</time>
      </trkpt>
      <trkpt lat="45.98278" lon="4.8047">
        <ele>223</ele>
        <time>2018-07-05T10:07:03Z</time>
      </trkpt>
      <trkpt lat="45.9828" lon="4.80464">
        <ele>223</ele>
        <time>2018-07-05T10:07:04Z</time>
      </trkpt>
      <trkpt lat="45.98285" lon="4.80456">
        <ele>224</ele>
        <time>2018-07-05T10:07:05Z</time>
      </trkpt>
      <trkpt lat="45.98286" lon="4.80449">
        <ele>224</ele>
        <time>2018-07-05T10:07:06Z</time>
      </trkpt>
      <trkpt lat="45.98286" lon="4.80441">
        <ele>224</ele>
        <time>2018-07-05T10:07:07Z</time>
      </trkpt>
      <trkpt lat="45.98286" lon="4.80433">
        <ele>224</ele>
        <time>2018-07-05T10:07:08Z</time>
      </trkpt>
      <trkpt lat="45.98288" lon="4.80426">
        <ele>224</ele>
        <time>2018-07-05T10:07:09Z</time>
      </trkpt>
      <trkpt lat="45.98291" lon="4.80422">
        <ele>224</ele>
        <time>2018-07-05T10:07:10Z</time>
      </trkpt>
      <trkpt lat="45.9829" lon="4.80413">
        <ele>224</ele>
        <time>2018-07-05T10:07:11Z</time>
      </trkpt>
      <trkpt lat="45.98291" lon="4.80407">
        <ele>224</ele>
        <time>2018-07-05T10:07:12Z</time>
      </trkpt>
      <trkpt lat="45.98292" lon="4.804">
        <ele>224</ele>
        <time>2018-07-05T10:07:13Z</time>
      </trkpt>
      <trkpt lat="45.98295" lon="4.80393">
        <ele>224</ele>
        <time>2018-07-05T10:07:14Z</time>
      </trkpt>
      <trkpt lat="45.98296" lon="4.80385">
        <ele>224</ele>
        <time>2018-07-05T10:07:15Z</time>
      </trkpt>
      <trkpt lat="45.98298" lon="4.80378">
        <ele>225</ele>
        <time>2018-07-05T10:07:16Z</time>
      </trkpt>
      <trkpt lat="45.98301" lon="4.80367">
        <ele>225</ele>
        <time>2018-07-05T10:07:18Z</time>
      </trkpt>
      <trkpt lat="45.98304" lon="4.80362">
        <ele>225</ele>
        <time>2018-07-05T10:07:19Z</time>
      </trkpt>
      <trkpt lat="45.98306" lon="4.80353">
        <ele>225</ele>
        <time>2018-07-05T10:07:20Z</time>
      </trkpt>
      <trkpt lat="45.98308" lon="4.80348">
        <ele>226</ele>
        <time>2018-07-05T10:07:21Z</time>
      </trkpt>
      <trkpt lat="45.98308" lon="4.80341">
        <ele>226</ele>
        <time>2018-07-05T10:07:22Z</time>
      </trkpt>
      <trkpt lat="45.98309" lon="4.80333">
        <ele>227</ele>
        <time>2018-07-05T10:07:23Z</time>
      </trkpt>
      <trkpt lat="45.98311" lon="4.80328">
        <ele>227</ele>
        <time>2018-07-05T10:07:24Z</time>
      </trkpt>
      <trkpt lat="45.98314" lon="4.80322">
        <ele>227</ele>
        <time>2018-07-05T10:07:25Z</time>
      </trkpt>
      <trkpt lat="45.98314" lon="4.80315">
        <ele>227</ele>
        <time>2018-07-05T10:07:26Z</time>
      </trkpt>
      <trkpt lat="45.98317" lon="4.80308">
        <ele>227</ele>
        <time>2018-07-05T10:07:27Z</time>
      </trkpt>
      <trkpt lat="45.9832" lon="4.80297">
        <ele>227</ele>
        <time>2018-07-05T10:07:29Z</time>
      </trkpt>
      <trkpt lat="45.98321" lon="4.80288">
        <ele>227</ele>
        <time>2018-07-05T10:07:30Z</time>
      </trkpt>
      <trkpt lat="45.98321" lon="4.80282">
        <ele>227</ele>
        <time>2018-07-05T10:07:31Z</time>
      </trkpt>
      <trkpt lat="45.98324" lon="4.80276">
        <ele>227</ele>
        <time>2018-07-05T10:07:32Z</time>
      </trkpt>
      <trkpt lat="45.98325" lon="4.80264">
        <ele>228</ele>
        <time>2018-07-05T10:07:34Z</time>
      </trkpt>
      <trkpt lat="45.98329" lon="4.80259">
        <ele>228</ele>
        <time>2018-07-05T10:07:35Z</time>
      </trkpt>
      <trkpt lat="45.98331" lon="4.80247">
        <ele>229</ele>
        <time>2018-07-05T10:07:38Z</time>
      </trkpt>
      <trkpt lat="45.9833" lon="4.80238">
        <ele>228</ele>
        <time>2018-07-05T10:07:39Z</time>
      </trkpt>
      <trkpt lat="45.98331" lon="4.80231">
        <ele>228</ele>
        <time>2018-07-05T10:07:40Z</time>
      </trkpt>
      <trkpt lat="45.98332" lon="4.80224">
        <ele>228</ele>
        <time>2018-07-05T10:07:41Z</time>
      </trkpt>
      <trkpt lat="45.9833" lon="4.80218">
        <ele>227</ele>
        <time>2018-07-05T10:07:42Z</time>
      </trkpt>
      <trkpt lat="45.98326" lon="4.80211">
        <ele>227</ele>
        <time>2018-07-05T10:07:43Z</time>
      </trkpt>
      <trkpt lat="45.98325" lon="4.80204">
        <ele>227</ele>
        <time>2018-07-05T10:07:44Z</time>
      </trkpt>
      <trkpt lat="45.98321" lon="4.80198">
        <ele>227</ele>
        <time>2018-07-05T10:07:45Z</time>
      </trkpt>
      <trkpt lat="45.98319" lon="4.80192">
        <ele>227</ele>
        <time>2018-07-05T10:07:46Z</time>
      </trkpt>
      <trkpt lat="45.98317" lon="4.80185">
        <ele>227</ele>
        <time>2018-07-05T10:07:47Z</time>
      </trkpt>
      <trkpt lat="45.98315" lon="4.80179">
        <ele>227</ele>
        <time>2018-07-05T10:07:48Z</time>
      </trkpt>
      <trkpt lat="45.98314" lon="4.80172">
        <ele>227</ele>
        <time>2018-07-05T10:07:49Z</time>
      </trkpt>
      <trkpt lat="45.98311" lon="4.80166">
        <ele>228</ele>
        <time>2018-07-05T10:07:50Z</time>
      </trkpt>
      <trkpt lat="45.9831" lon="4.80159">
        <ele>228</ele>
        <time>2018-07-05T10:07:51Z</time>
      </trkpt>
      <trkpt lat="45.98307" lon="4.80152">
        <ele>228</ele>
        <time>2018-07-05T10:07:52Z</time>
      </trkpt>
      <trkpt lat="45.98304" lon="4.80144">
        <ele>228</ele>
        <time>2018-07-05T10:07:53Z</time>
      </trkpt>
      <trkpt lat="45.98301" lon="4.80137">
        <ele>228</ele>
        <time>2018-07-05T10:07:54Z</time>
      </trkpt>
      <trkpt lat="45.98301" lon="4.8013">
        <ele>228</ele>
        <time>2018-07-05T10:07:55Z</time>
      </trkpt>
      <trkpt lat="45.98299" lon="4.80124">
        <ele>228</ele>
        <time>2018-07-05T10:07:56Z</time>
      </trkpt>
      <trkpt lat="45.98296" lon="4.80117">
        <ele>228</ele>
        <time>2018-07-05T10:07:57Z</time>
      </trkpt>
      <trkpt lat="45.98293" lon="4.80111">
        <ele>228</ele>
        <time>2018-07-05T10:07:58Z</time>
      </trkpt>
      <trkpt lat="45.98293" lon="4.80105">
        <ele>228</ele>
        <time>2018-07-05T10:07:59Z</time>
      </trkpt>
      <trkpt lat="45.98288" lon="4.80095">
        <ele>228</ele>
        <time>2018-07-05T10:08:01Z</time>
      </trkpt>
      <trkpt lat="45.98286" lon="4.8009">
        <ele>228</ele>
        <time>2018-07-05T10:08:02Z</time>
      </trkpt>
      <trkpt lat="45.98282" lon="4.80082">
        <ele>229</ele>
        <time>2018-07-05T10:08:03Z</time>
      </trkpt>
      <trkpt lat="45.98279" lon="4.80076">
        <ele>229</ele>
        <time>2018-07-05T10:08:04Z</time>
      </trkpt>
      <trkpt lat="45.98277" lon="4.80071">
        <ele>229</ele>
        <time>2018-07-05T10:08:05Z</time>
      </trkpt>
      <trkpt lat="45.98275" lon="4.80064">
        <ele>229</ele>
        <time>2018-07-05T10:08:06Z</time>
      </trkpt>
      <trkpt lat="45.98273" lon="4.80057">
        <ele>229</ele>
        <time>2018-07-05T10:08:07Z</time>
      </trkpt>
      <trkpt lat="45.98271" lon="4.8005">
        <ele>229</ele>
        <time>2018-07-05T10:08:08Z</time>
      </trkpt>
      <trkpt lat="45.9827" lon="4.80044">
        <ele>229</ele>
        <time>2018-07-05T10:08:09Z</time>
      </trkpt>
      <trkpt lat="45.98267" lon="4.80037">
        <ele>229</ele>
        <time>2018-07-05T10:08:10Z</time>
      </trkpt>
      <trkpt lat="45.98265" lon="4.80031">
        <ele>228</ele>
        <time>2018-07-05T10:08:11Z</time>
      </trkpt>
      <trkpt lat="45.98262" lon="4.80023">
        <ele>228</ele>
        <time>2018-07-05T10:08:12Z</time>
      </trkpt>
      <trkpt lat="45.9826" lon="4.80017">
        <ele>228</ele>
        <time>2018-07-05T10:08:13Z</time>
      </trkpt>
      <trkpt lat="45.98258" lon="4.80011">
        <ele>227</ele>
        <time>2018-07-05T10:08:14Z</time>
      </trkpt>
      <trkpt lat="45.98256" lon="4.80004">
        <ele>227</ele>
        <time>2018-07-05T10:08:15Z</time>
      </trkpt>
      <trkpt lat="45.98254" lon="4.79997">
        <ele>227</ele>
        <time>2018-07-05T10:08:16Z</time>
      </trkpt>
      <trkpt lat="45.98252" lon="4.7999">
        <ele>227</ele>
        <time>2018-07-05T10:08:17Z</time>
      </trkpt>
      <trkpt lat="45.9825" lon="4.79984">
        <ele>225</ele>
        <time>2018-07-05T10:08:18Z</time>
      </trkpt>
      <trkpt lat="45.98247" lon="4.79978">
        <ele>225</ele>
        <time>2018-07-05T10:08:19Z</time>
      </trkpt>
      <trkpt lat="45.98245" lon="4.79972">
        <ele>225</ele>
        <time>2018-07-05T10:08:20Z</time>
      </trkpt>
      <trkpt lat="45.98243" lon="4.79966">
        <ele>225</ele>
        <time>2018-07-05T10:08:21Z</time>
      </trkpt>
      <trkpt lat="45.98238" lon="4.79959">
        <ele>225</ele>
        <time>2018-07-05T10:08:22Z</time>
      </trkpt>
      <trkpt lat="45.98236" lon="4.79954">
        <ele>225</ele>
        <time>2018-07-05T10:08:23Z</time>
      </trkpt>
      <trkpt lat="45.98232" lon="4.79948">
        <ele>225</ele>
        <time>2018-07-05T10:08:24Z</time>
      </trkpt>
      <trkpt lat="45.98231" lon="4.79943">
        <ele>225</ele>
        <time>2018-07-05T10:08:25Z</time>
      </trkpt>
      <trkpt lat="45.98228" lon="4.79936">
        <ele>225</ele>
        <time>2018-07-05T10:08:26Z</time>
      </trkpt>
      <trkpt lat="45.98227" lon="4.7993">
        <ele>225</ele>
        <time>2018-07-05T10:08:27Z</time>
      </trkpt>
      <trkpt lat="45.98224" lon="4.79924">
        <ele>225</ele>
        <time>2018-07-05T10:08:28Z</time>
      </trkpt>
      <trkpt lat="45.98222" lon="4.79917">
        <ele>225</ele>
        <time>2018-07-05T10:08:29Z</time>
      </trkpt>
      <trkpt lat="45.98221" lon="4.79911">
        <ele>225</ele>
        <time>2018-07-05T10:08:30Z</time>
      </trkpt>
      <trkpt lat="45.98219" lon="4.79905">
        <ele>225</ele>
        <time>2018-07-05T10:08:31Z</time>
      </trkpt>
      <trkpt lat="45.98217" lon="4.79899">
        <ele>225</ele>
        <time>2018-07-05T10:08:32Z</time>
      </trkpt>
      <trkpt lat="45.98215" lon="4.79893">
        <ele>225</ele>
        <time>2018-07-05T10:08:33Z</time>
      </trkpt>
      <trkpt lat="45.98214" lon="4.79886">
        <ele>225</ele>
        <time>2018-07-05T10:08:34Z</time>
      </trkpt>
      <trkpt lat="45.9821" lon="4.79874">
        <ele>225</ele>
        <time>2018-07-05T10:08:36Z</time>
      </trkpt>
      <trkpt lat="45.98208" lon="4.79866">
        <ele>225</ele>
        <time>2018-07-05T10:08:37Z</time>
      </trkpt>
      <trkpt lat="45.98206" lon="4.79858">
        <ele>225</ele>
        <time>2018-07-05T10:08:38Z</time>
      </trkpt>
      <trkpt lat="45.98204" lon="4.79852">
        <ele>225</ele>
        <time>2018-07-05T10:08:39Z</time>
      </trkpt>
      <trkpt lat="45.98201" lon="4.79845">
        <ele>225</ele>
        <time>2018-07-05T10:08:40Z</time>
      </trkpt>
      <trkpt lat="45.98197" lon="4.79838">
        <ele>225</ele>
        <time>2018-07-05T10:08:41Z</time>
      </trkpt>
      <trkpt lat="45.98195" lon="4.79831">
        <ele>225</ele>
        <time>2018-07-05T10:08:42Z</time>
      </trkpt>
      <trkpt lat="45.98193" lon="4.79825">
        <ele>225</ele>
        <time>2018-07-05T10:08:43Z</time>
      </trkpt>
      <trkpt lat="45.98193" lon="4.79818">
        <ele>225</ele>
        <time>2018-07-05T10:08:44Z</time>
      </trkpt>
      <trkpt lat="45.98189" lon="4.79812">
        <ele>225</ele>
        <time>2018-07-05T10:08:45Z</time>
      </trkpt>
      <trkpt lat="45.98188" lon="4.79805">
        <ele>226</ele>
        <time>2018-07-05T10:08:46Z</time>
      </trkpt>
      <trkpt lat="45.98186" lon="4.79798">
        <ele>226</ele>
        <time>2018-07-05T10:08:47Z</time>
      </trkpt>
      <trkpt lat="45.98184" lon="4.79785">
        <ele>226</ele>
        <time>2018-07-05T10:08:49Z</time>
      </trkpt>
      <trkpt lat="45.98184" lon="4.79779">
        <ele>226</ele>
        <time>2018-07-05T10:08:50Z</time>
      </trkpt>
      <trkpt lat="45.98186" lon="4.79769">
        <ele>226</ele>
        <time>2018-07-05T10:08:52Z</time>
      </trkpt>
      <trkpt lat="45.98184" lon="4.79763">
        <ele>226</ele>
        <time>2018-07-05T10:08:53Z</time>
      </trkpt>
      <trkpt lat="45.98184" lon="4.79754">
        <ele>226</ele>
        <time>2018-07-05T10:08:55Z</time>
      </trkpt>
      <trkpt lat="45.98183" lon="4.79748">
        <ele>227</ele>
        <time>2018-07-05T10:08:56Z</time>
      </trkpt>
      <trkpt lat="45.98177" lon="4.79739">
        <ele>227</ele>
        <time>2018-07-05T10:08:58Z</time>
      </trkpt>
      <trkpt lat="45.98172" lon="4.79738">
        <ele>227</ele>
        <time>2018-07-05T10:08:59Z</time>
      </trkpt>
      <trkpt lat="45.98164" lon="4.79742">
        <ele>226</ele>
        <time>2018-07-05T10:09:01Z</time>
      </trkpt>
      <trkpt lat="45.98159" lon="4.79746">
        <ele>226</ele>
        <time>2018-07-05T10:09:02Z</time>
      </trkpt>
      <trkpt lat="45.98154" lon="4.79748">
        <ele>226</ele>
        <time>2018-07-05T10:09:03Z</time>
      </trkpt>
      <trkpt lat="45.98149" lon="4.79751">
        <ele>225</ele>
        <time>2018-07-05T10:09:04Z</time>
      </trkpt>
      <trkpt lat="45.98143" lon="4.79753">
        <ele>225</ele>
        <time>2018-07-05T10:09:05Z</time>
      </trkpt>
      <trkpt lat="45.98137" lon="4.79755">
        <ele>224</ele>
        <time>2018-07-05T10:09:06Z</time>
      </trkpt>
      <trkpt lat="45.9813" lon="4.79756">
        <ele>224</ele>
        <time>2018-07-05T10:09:07Z</time>
      </trkpt>
      <trkpt lat="45.98124" lon="4.79757">
        <ele>224</ele>
        <time>2018-07-05T10:09:08Z</time>
      </trkpt>
      <trkpt lat="45.98117" lon="4.79756">
        <ele>224</ele>
        <time>2018-07-05T10:09:09Z</time>
      </trkpt>
      <trkpt lat="45.98111" lon="4.79757">
        <ele>224</ele>
        <time>2018-07-05T10:09:10Z</time>
      </trkpt>
      <trkpt lat="45.98105" lon="4.79761">
        <ele>224</ele>
        <time>2018-07-05T10:09:11Z</time>
      </trkpt>
      <trkpt lat="45.98097" lon="4.79763">
        <ele>223</ele>
        <time>2018-07-05T10:09:12Z</time>
      </trkpt>
      <trkpt lat="45.9809" lon="4.79763">
        <ele>223</ele>
        <time>2018-07-05T10:09:13Z</time>
      </trkpt>
      <trkpt lat="45.98084" lon="4.79764">
        <ele>223</ele>
        <time>2018-07-05T10:09:14Z</time>
      </trkpt>
      <trkpt lat="45.98077" lon="4.79766">
        <ele>223</ele>
        <time>2018-07-05T10:09:15Z</time>
      </trkpt>
      <trkpt lat="45.9807" lon="4.79767">
        <ele>223</ele>
        <time>2018-07-05T10:09:16Z</time>
      </trkpt>
      <trkpt lat="45.98064" lon="4.79768">
        <ele>223</ele>
        <time>2018-07-05T10:09:17Z</time>
      </trkpt>
      <trkpt lat="45.98056" lon="4.79769">
        <ele>223</ele>
        <time>2018-07-05T10:09:18Z</time>
      </trkpt>
      <trkpt lat="45.9805" lon="4.79771">
        <ele>223</ele>
        <time>2018-07-05T10:09:19Z</time>
      </trkpt>
      <trkpt lat="45.98041" lon="4.79773">
        <ele>223</ele>
        <time>2018-07-05T10:09:20Z</time>
      </trkpt>
      <trkpt lat="45.98036" lon="4.79772">
        <ele>223</ele>
        <time>2018-07-05T10:09:21Z</time>
      </trkpt>
      <trkpt lat="45.9803" lon="4.79773">
        <ele>223</ele>
        <time>2018-07-05T10:09:22Z</time>
      </trkpt>
      <trkpt lat="45.98024" lon="4.79774">
        <ele>223</ele>
        <time>2018-07-05T10:09:23Z</time>
      </trkpt>
      <trkpt lat="45.98017" lon="4.79774">
        <ele>223</ele>
        <time>2018-07-05T10:09:24Z</time>
      </trkpt>
      <trkpt lat="45.98002" lon="4.79783">
        <ele>223</ele>
        <time>2018-07-05T10:09:25Z</time>
      </trkpt>
      <trkpt lat="45.97997" lon="4.79785">
        <ele>224</ele>
        <time>2018-07-05T10:09:26Z</time>
      </trkpt>
      <trkpt lat="45.9799" lon="4.79787">
        <ele>224</ele>
        <time>2018-07-05T10:09:27Z</time>
      </trkpt>
      <trkpt lat="45.97985" lon="4.79787">
        <ele>224</ele>
        <time>2018-07-05T10:09:28Z</time>
      </trkpt>
      <trkpt lat="45.97978" lon="4.79786">
        <ele>224</ele>
        <time>2018-07-05T10:09:29Z</time>
      </trkpt>
      <trkpt lat="45.97972" lon="4.79787">
        <ele>224</ele>
        <time>2018-07-05T10:09:30Z</time>
      </trkpt>
      <trkpt lat="45.97966" lon="4.79787">
        <ele>224</ele>
        <time>2018-07-05T10:09:31Z</time>
      </trkpt>
      <trkpt lat="45.9796" lon="4.79787">
        <ele>224</ele>
        <time>2018-07-05T10:09:32Z</time>
      </trkpt>
      <trkpt lat="45.97955" lon="4.79788">
        <ele>224</ele>
        <time>2018-07-05T10:09:33Z</time>
      </trkpt>
      <trkpt lat="45.97949" lon="4.79789">
        <ele>224</ele>
        <time>2018-07-05T10:09:34Z</time>
      </trkpt>
      <trkpt lat="45.97945" lon="4.79787">
        <ele>224</ele>
        <time>2018-07-05T10:09:35Z</time>
      </trkpt>
      <trkpt lat="45.97939" lon="4.79787">
        <ele>224</ele>
        <time>2018-07-05T10:09:36Z</time>
      </trkpt>
      <trkpt lat="45.97933" lon="4.79787">
        <ele>224</ele>
        <time>2018-07-05T10:09:37Z</time>
      </trkpt>
      <trkpt lat="45.97927" lon="4.79787">
        <ele>224</ele>
        <time>2018-07-05T10:09:38Z</time>
      </trkpt>
      <trkpt lat="45.97922" lon="4.79786">
        <ele>225</ele>
        <time>2018-07-05T10:09:39Z</time>
      </trkpt>
      <trkpt lat="45.97917" lon="4.79787">
        <ele>225</ele>
        <time>2018-07-05T10:09:40Z</time>
      </trkpt>
      <trkpt lat="45.9791" lon="4.79788">
        <ele>225</ele>
        <time>2018-07-05T10:09:41Z</time>
      </trkpt>
      <trkpt lat="45.97905" lon="4.79789">
        <ele>225</ele>
        <time>2018-07-05T10:09:42Z</time>
      </trkpt>
      <trkpt lat="45.97898" lon="4.7979">
        <ele>224</ele>
        <time>2018-07-05T10:09:43Z</time>
      </trkpt>
      <trkpt lat="45.97893" lon="4.79786">
        <ele>225</ele>
        <time>2018-07-05T10:09:44Z</time>
      </trkpt>
      <trkpt lat="45.97887" lon="4.79787">
        <ele>224</ele>
        <time>2018-07-05T10:09:45Z</time>
      </trkpt>
      <trkpt lat="45.97881" lon="4.79789">
        <ele>224</ele>
        <time>2018-07-05T10:09:46Z</time>
      </trkpt>
      <trkpt lat="45.97875" lon="4.79791">
        <ele>224</ele>
        <time>2018-07-05T10:09:47Z</time>
      </trkpt>
      <trkpt lat="45.97868" lon="4.79793">
        <ele>224</ele>
        <time>2018-07-05T10:09:48Z</time>
      </trkpt>
      <trkpt lat="45.97862" lon="4.79794">
        <ele>224</ele>
        <time>2018-07-05T10:09:49Z</time>
      </trkpt>
      <trkpt lat="45.97857" lon="4.79796">
        <ele>224</ele>
        <time>2018-07-05T10:09:50Z</time>
      </trkpt>
      <trkpt lat="45.97851" lon="4.79797">
        <ele>224</ele>
        <time>2018-07-05T10:09:51Z</time>
      </trkpt>
      <trkpt lat="45.97845" lon="4.79798">
        <ele>224</ele>
        <time>2018-07-05T10:09:52Z</time>
      </trkpt>
      <trkpt lat="45.97841" lon="4.798">
        <ele>224</ele>
        <time>2018-07-05T10:09:53Z</time>
      </trkpt>
      <trkpt lat="45.97835" lon="4.79803">
        <ele>224</ele>
        <time>2018-07-05T10:09:54Z</time>
      </trkpt>
      <trkpt lat="45.9783" lon="4.79804">
        <ele>223</ele>
        <time>2018-07-05T10:09:55Z</time>
      </trkpt>
      <trkpt lat="45.97824" lon="4.79805">
        <ele>223</ele>
        <time>2018-07-05T10:09:56Z</time>
      </trkpt>
      <trkpt lat="45.9782" lon="4.79806">
        <ele>223</ele>
        <time>2018-07-05T10:09:57Z</time>
      </trkpt>
      <trkpt lat="45.97815" lon="4.79807">
        <ele>223</ele>
        <time>2018-07-05T10:09:58Z</time>
      </trkpt>
      <trkpt lat="45.9781" lon="4.79808">
        <ele>223</ele>
        <time>2018-07-05T10:09:59Z</time>
      </trkpt>
      <trkpt lat="45.97804" lon="4.79809">
        <ele>223</ele>
        <time>2018-07-05T10:10:00Z</time>
      </trkpt>
      <trkpt lat="45.97796" lon="4.79812">
        <ele>223</ele>
        <time>2018-07-05T10:10:01Z</time>
      </trkpt>
      <trkpt lat="45.9779" lon="4.79813">
        <ele>223</ele>
        <time>2018-07-05T10:10:02Z</time>
      </trkpt>
      <trkpt lat="45.97785" lon="4.79814">
        <ele>223</ele>
        <time>2018-07-05T10:10:03Z</time>
      </trkpt>
      <trkpt lat="45.97778" lon="4.79816">
        <ele>223</ele>
        <time>2018-07-05T10:10:04Z</time>
      </trkpt>
      <trkpt lat="45.97772" lon="4.79817">
        <ele>223</ele>
        <time>2018-07-05T10:10:05Z</time>
      </trkpt>
      <trkpt lat="45.97764" lon="4.7982">
        <ele>223</ele>
        <time>2018-07-05T10:10:06Z</time>
      </trkpt>
      <trkpt lat="45.97758" lon="4.7982">
        <ele>223</ele>
        <time>2018-07-05T10:10:07Z</time>
      </trkpt>
      <trkpt lat="45.97752" lon="4.79821">
        <ele>223</ele>
        <time>2018-07-05T10:10:08Z</time>
      </trkpt>
      <trkpt lat="45.97745" lon="4.79823">
        <ele>223</ele>
        <time>2018-07-05T10:10:09Z</time>
      </trkpt>
      <trkpt lat="45.97739" lon="4.79823">
        <ele>223</ele>
        <time>2018-07-05T10:10:10Z</time>
      </trkpt>
      <trkpt lat="45.97734" lon="4.79824">
        <ele>223</ele>
        <time>2018-07-05T10:10:11Z</time>
      </trkpt>
      <trkpt lat="45.97728" lon="4.79825">
        <ele>223</ele>
        <time>2018-07-05T10:10:12Z</time>
      </trkpt>
      <trkpt lat="45.97723" lon="4.79825">
        <ele>223</ele>
        <time>2018-07-05T10:10:13Z</time>
      </trkpt>
      <trkpt lat="45.97717" lon="4.79826">
        <ele>223</ele>
        <time>2018-07-05T10:10:14Z</time>
      </trkpt>
      <trkpt lat="45.97711" lon="4.79827">
        <ele>223</ele>
        <time>2018-07-05T10:10:15Z</time>
      </trkpt>
      <trkpt lat="45.97705" lon="4.79828">
        <ele>223</ele>
        <time>2018-07-05T10:10:16Z</time>
      </trkpt>
      <trkpt lat="45.97701" lon="4.79826">
        <ele>223</ele>
        <time>2018-07-05T10:10:17Z</time>
      </trkpt>
      <trkpt lat="45.97696" lon="4.79828">
        <ele>223</ele>
        <time>2018-07-05T10:10:18Z</time>
      </trkpt>
      <trkpt lat="45.9769" lon="4.79829">
        <ele>223</ele>
        <time>2018-07-05T10:10:19Z</time>
      </trkpt>
      <trkpt lat="45.97684" lon="4.79831">
        <ele>223</ele>
        <time>2018-07-05T10:10:20Z</time>
      </trkpt>
      <trkpt lat="45.9768" lon="4.79831">
        <ele>223</ele>
        <time>2018-07-05T10:10:21Z</time>
      </trkpt>
      <trkpt lat="45.97675" lon="4.79832">
        <ele>222</ele>
        <time>2018-07-05T10:10:22Z</time>
      </trkpt>
      <trkpt lat="45.97669" lon="4.79833">
        <ele>222</ele>
        <time>2018-07-05T10:10:23Z</time>
      </trkpt>
      <trkpt lat="45.97663" lon="4.79836">
        <ele>222</ele>
        <time>2018-07-05T10:10:24Z</time>
      </trkpt>
      <trkpt lat="45.97658" lon="4.79838">
        <ele>221</ele>
        <time>2018-07-05T10:10:25Z</time>
      </trkpt>
      <trkpt lat="45.97653" lon="4.7984">
        <ele>221</ele>
        <time>2018-07-05T10:10:26Z</time>
      </trkpt>
      <trkpt lat="45.97647" lon="4.7984">
        <ele>221</ele>
        <time>2018-07-05T10:10:27Z</time>
      </trkpt>
      <trkpt lat="45.97642" lon="4.79842">
        <ele>221</ele>
        <time>2018-07-05T10:10:28Z</time>
      </trkpt>
      <trkpt lat="45.97635" lon="4.79845">
        <ele>221</ele>
        <time>2018-07-05T10:10:29Z</time>
      </trkpt>
      <trkpt lat="45.9763" lon="4.79847">
        <ele>221</ele>
        <time>2018-07-05T10:10:30Z</time>
      </trkpt>
      <trkpt lat="45.97625" lon="4.79849">
        <ele>221</ele>
        <time>2018-07-05T10:10:31Z</time>
      </trkpt>
      <trkpt lat="45.9762" lon="4.79852">
        <ele>221</ele>
        <time>2018-07-05T10:10:32Z</time>
      </trkpt>
      <trkpt lat="45.97615" lon="4.79853">
        <ele>221</ele>
        <time>2018-07-05T10:10:33Z</time>
      </trkpt>
      <trkpt lat="45.97609" lon="4.79855">
        <ele>221</ele>
        <time>2018-07-05T10:10:34Z</time>
      </trkpt>
      <trkpt lat="45.97605" lon="4.79858">
        <ele>221</ele>
        <time>2018-07-05T10:10:35Z</time>
      </trkpt>
      <trkpt lat="45.97599" lon="4.79861">
        <ele>221</ele>
        <time>2018-07-05T10:10:36Z</time>
      </trkpt>
      <trkpt lat="45.97594" lon="4.79862">
        <ele>221</ele>
        <time>2018-07-05T10:10:37Z</time>
      </trkpt>
      <trkpt lat="45.97588" lon="4.79864">
        <ele>221</ele>
        <time>2018-07-05T10:10:38Z</time>
      </trkpt>
      <trkpt lat="45.97582" lon="4.79866">
        <ele>222</ele>
        <time>2018-07-05T10:10:39Z</time>
      </trkpt>
      <trkpt lat="45.97576" lon="4.79868">
        <ele>222</ele>
        <time>2018-07-05T10:10:40Z</time>
      </trkpt>
      <trkpt lat="45.97569" lon="4.79869">
        <ele>222</ele>
        <time>2018-07-05T10:10:41Z</time>
      </trkpt>
      <trkpt lat="45.97562" lon="4.79871">
        <ele>222</ele>
        <time>2018-07-05T10:10:42Z</time>
      </trkpt>
      <trkpt lat="45.97556" lon="4.79874">
        <ele>222</ele>
        <time>2018-07-05T10:10:43Z</time>
      </trkpt>
      <trkpt lat="45.97549" lon="4.79876">
        <ele>222</ele>
        <time>2018-07-05T10:10:44Z</time>
      </trkpt>
      <trkpt lat="45.97541" lon="4.79878">
        <ele>222</ele>
        <time>2018-07-05T10:10:45Z</time>
      </trkpt>
      <trkpt lat="45.97534" lon="4.79879">
        <ele>222</ele>
        <time>2018-07-05T10:10:46Z</time>
      </trkpt>
      <trkpt lat="45.97527" lon="4.7988">
        <ele>222</ele>
        <time>2018-07-05T10:10:47Z</time>
      </trkpt>
      <trkpt lat="45.97519" lon="4.79881">
        <ele>222</ele>
        <time>2018-07-05T10:10:48Z</time>
      </trkpt>
      <trkpt lat="45.97511" lon="4.79882">
        <ele>222</ele>
        <time>2018-07-05T10:10:49Z</time>
      </trkpt>
      <trkpt lat="45.97504" lon="4.79882">
        <ele>222</ele>
        <time>2018-07-05T10:10:50Z</time>
      </trkpt>
      <trkpt lat="45.97495" lon="4.79883">
        <ele>221</ele>
        <time>2018-07-05T10:10:51Z</time>
      </trkpt>
      <trkpt lat="45.97489" lon="4.79885">
        <ele>221</ele>
        <time>2018-07-05T10:10:52Z</time>
      </trkpt>
      <trkpt lat="45.97481" lon="4.79886">
        <ele>221</ele>
        <time>2018-07-05T10:10:53Z</time>
      </trkpt>
      <trkpt lat="45.97471" lon="4.79885">
        <ele>221</ele>
        <time>2018-07-05T10:10:54Z</time>
      </trkpt>
      <trkpt lat="45.97462" lon="4.79883">
        <ele>221</ele>
        <time>2018-07-05T10:10:55Z</time>
      </trkpt>
      <trkpt lat="45.97454" lon="4.79882">
        <ele>221</ele>
        <time>2018-07-05T10:10:56Z</time>
      </trkpt>
      <trkpt lat="45.97445" lon="4.79885">
        <ele>221</ele>
        <time>2018-07-05T10:10:57Z</time>
      </trkpt>
      <trkpt lat="45.97436" lon="4.79886">
        <ele>220</ele>
        <time>2018-07-05T10:10:58Z</time>
      </trkpt>
      <trkpt lat="45.97428" lon="4.79886">
        <ele>220</ele>
        <time>2018-07-05T10:10:59Z</time>
      </trkpt>
      <trkpt lat="45.97421" lon="4.79888">
        <ele>220</ele>
        <time>2018-07-05T10:11:00Z</time>
      </trkpt>
      <trkpt lat="45.97413" lon="4.79891">
        <ele>218</ele>
        <time>2018-07-05T10:11:01Z</time>
      </trkpt>
      <trkpt lat="45.97405" lon="4.79892">
        <ele>217</ele>
        <time>2018-07-05T10:11:02Z</time>
      </trkpt>
      <trkpt lat="45.97397" lon="4.79894">
        <ele>217</ele>
        <time>2018-07-05T10:11:03Z</time>
      </trkpt>
      <trkpt lat="45.97388" lon="4.79896">
        <ele>217</ele>
        <time>2018-07-05T10:11:04Z</time>
      </trkpt>
      <trkpt lat="45.97379" lon="4.79895">
        <ele>217</ele>
        <time>2018-07-05T10:11:05Z</time>
      </trkpt>
      <trkpt lat="45.97371" lon="4.79898">
        <ele>217</ele>
        <time>2018-07-05T10:11:06Z</time>
      </trkpt>
      <trkpt lat="45.97363" lon="4.79901">
        <ele>216</ele>
        <time>2018-07-05T10:11:07Z</time>
      </trkpt>
      <trkpt lat="45.97354" lon="4.799">
        <ele>216</ele>
        <time>2018-07-05T10:11:08Z</time>
      </trkpt>
      <trkpt lat="45.97345" lon="4.79899">
        <ele>216</ele>
        <time>2018-07-05T10:11:09Z</time>
      </trkpt>
      <trkpt lat="45.97337" lon="4.79901">
        <ele>215</ele>
        <time>2018-07-05T10:11:10Z</time>
      </trkpt>
      <trkpt lat="45.97328" lon="4.79902">
        <ele>213</ele>
        <time>2018-07-05T10:11:11Z</time>
      </trkpt>
      <trkpt lat="45.97319" lon="4.79903">
        <ele>214</ele>
        <time>2018-07-05T10:11:12Z</time>
      </trkpt>
      <trkpt lat="45.97311" lon="4.79904">
        <ele>214</ele>
        <time>2018-07-05T10:11:13Z</time>
      </trkpt>
      <trkpt lat="45.97305" lon="4.79906">
        <ele>213</ele>
        <time>2018-07-05T10:11:14Z</time>
      </trkpt>
      <trkpt lat="45.97296" lon="4.79908">
        <ele>213</ele>
        <time>2018-07-05T10:11:15Z</time>
      </trkpt>
      <trkpt lat="45.97288" lon="4.79909">
        <ele>213</ele>
        <time>2018-07-05T10:11:16Z</time>
      </trkpt>
      <trkpt lat="45.97279" lon="4.79911">
        <ele>213</ele>
        <time>2018-07-05T10:11:17Z</time>
      </trkpt>
      <trkpt lat="45.97272" lon="4.79912">
        <ele>213</ele>
        <time>2018-07-05T10:11:18Z</time>
      </trkpt>
      <trkpt lat="45.97266" lon="4.79913">
        <ele>213</ele>
        <time>2018-07-05T10:11:19Z</time>
      </trkpt>
      <trkpt lat="45.97261" lon="4.79913">
        <ele>213</ele>
        <time>2018-07-05T10:11:20Z</time>
      </trkpt>
      <trkpt lat="45.97256" lon="4.79913">
        <ele>212</ele>
        <time>2018-07-05T10:11:21Z</time>
      </trkpt>
      <trkpt lat="45.97249" lon="4.79906">
        <ele>212</ele>
        <time>2018-07-05T10:11:23Z</time>
      </trkpt>
      <trkpt lat="45.97248" lon="4.79898">
        <ele>211</ele>
        <time>2018-07-05T10:11:24Z</time>
      </trkpt>
      <trkpt lat="45.97246" lon="4.79892">
        <ele>211</ele>
        <time>2018-07-05T10:11:25Z</time>
      </trkpt>
      <trkpt lat="45.97245" lon="4.79884">
        <ele>211</ele>
        <time>2018-07-05T10:11:26Z</time>
      </trkpt>
      <trkpt lat="45.97242" lon="4.79876">
        <ele>211</ele>
        <time>2018-07-05T10:11:27Z</time>
      </trkpt>
      <trkpt lat="45.9724" lon="4.79866">
        <ele>211</ele>
        <time>2018-07-05T10:11:28Z</time>
      </trkpt>
      <trkpt lat="45.97236" lon="4.79859">
        <ele>211</ele>
        <time>2018-07-05T10:11:29Z</time>
      </trkpt>
      <trkpt lat="45.97235" lon="4.79851">
        <ele>211</ele>
        <time>2018-07-05T10:11:30Z</time>
      </trkpt>
      <trkpt lat="45.97235" lon="4.79843">
        <ele>211</ele>
        <time>2018-07-05T10:11:31Z</time>
      </trkpt>
      <trkpt lat="45.97236" lon="4.79835">
        <ele>211</ele>
        <time>2018-07-05T10:11:32Z</time>
      </trkpt>
      <trkpt lat="45.97236" lon="4.79827">
        <ele>211</ele>
        <time>2018-07-05T10:11:33Z</time>
      </trkpt>
      <trkpt lat="45.97236" lon="4.79818">
        <ele>211</ele>
        <time>2018-07-05T10:11:34Z</time>
      </trkpt>
      <trkpt lat="45.97238" lon="4.7981">
        <ele>210</ele>
        <time>2018-07-05T10:11:35Z</time>
      </trkpt>
      <trkpt lat="45.9724" lon="4.798">
        <ele>210</ele>
        <time>2018-07-05T10:11:36Z</time>
      </trkpt>
      <trkpt lat="45.97239" lon="4.7979">
        <ele>210</ele>
        <time>2018-07-05T10:11:37Z</time>
      </trkpt>
      <trkpt lat="45.9724" lon="4.79782">
        <ele>210</ele>
        <time>2018-07-05T10:11:38Z</time>
      </trkpt>
      <trkpt lat="45.97242" lon="4.79774">
        <ele>210</ele>
        <time>2018-07-05T10:11:39Z</time>
      </trkpt>
      <trkpt lat="45.97243" lon="4.79765">
        <ele>209</ele>
        <time>2018-07-05T10:11:40Z</time>
      </trkpt>
      <trkpt lat="45.97243" lon="4.79756">
        <ele>209</ele>
        <time>2018-07-05T10:11:41Z</time>
      </trkpt>
      <trkpt lat="45.97245" lon="4.79749">
        <ele>209</ele>
        <time>2018-07-05T10:11:42Z</time>
      </trkpt>
      <trkpt lat="45.97247" lon="4.79742">
        <ele>209</ele>
        <time>2018-07-05T10:11:43Z</time>
      </trkpt>
      <trkpt lat="45.97247" lon="4.79734">
        <ele>209</ele>
        <time>2018-07-05T10:11:44Z</time>
      </trkpt>
      <trkpt lat="45.97248" lon="4.79726">
        <ele>209</ele>
        <time>2018-07-05T10:11:45Z</time>
      </trkpt>
      <trkpt lat="45.97249" lon="4.79718">
        <ele>209</ele>
        <time>2018-07-05T10:11:46Z</time>
      </trkpt>
      <trkpt lat="45.97248" lon="4.79709">
        <ele>209</ele>
        <time>2018-07-05T10:11:47Z</time>
      </trkpt>
      <trkpt lat="45.97249" lon="4.79701">
        <ele>208</ele>
        <time>2018-07-05T10:11:48Z</time>
      </trkpt>
      <trkpt lat="45.9725" lon="4.79692">
        <ele>208</ele>
        <time>2018-07-05T10:11:49Z</time>
      </trkpt>
      <trkpt lat="45.97251" lon="4.79682">
        <ele>211</ele>
        <time>2018-07-05T10:11:50Z</time>
      </trkpt>
      <trkpt lat="45.97252" lon="4.79675">
        <ele>210</ele>
        <time>2018-07-05T10:11:51Z</time>
      </trkpt>
      <trkpt lat="45.97253" lon="4.79667">
        <ele>209</ele>
        <time>2018-07-05T10:11:52Z</time>
      </trkpt>
      <trkpt lat="45.97254" lon="4.7966">
        <ele>210</ele>
        <time>2018-07-05T10:11:53Z</time>
      </trkpt>
      <trkpt lat="45.97256" lon="4.79652">
        <ele>211</ele>
        <time>2018-07-05T10:11:54Z</time>
      </trkpt>
      <trkpt lat="45.97257" lon="4.79644">
        <ele>212</ele>
        <time>2018-07-05T10:11:55Z</time>
      </trkpt>
      <trkpt lat="45.97256" lon="4.79635">
        <ele>213</ele>
        <time>2018-07-05T10:11:56Z</time>
      </trkpt>
      <trkpt lat="45.97255" lon="4.79629">
        <ele>213</ele>
        <time>2018-07-05T10:11:57Z</time>
      </trkpt>
      <trkpt lat="45.97255" lon="4.79621">
        <ele>213</ele>
        <time>2018-07-05T10:11:58Z</time>
      </trkpt>
      <trkpt lat="45.97254" lon="4.79613">
        <ele>213</ele>
        <time>2018-07-05T10:11:59Z</time>
      </trkpt>
      <trkpt lat="45.97259" lon="4.79607">
        <ele>213</ele>
        <time>2018-07-05T10:12:00Z</time>
      </trkpt>
      <trkpt lat="45.97256" lon="4.79599">
        <ele>212</ele>
        <time>2018-07-05T10:12:01Z</time>
      </trkpt>
      <trkpt lat="45.97256" lon="4.79591">
        <ele>212</ele>
        <time>2018-07-05T10:12:02Z</time>
      </trkpt>
      <trkpt lat="45.97254" lon="4.79584">
        <ele>211</ele>
        <time>2018-07-05T10:12:03Z</time>
      </trkpt>
      <trkpt lat="45.97253" lon="4.79577">
        <ele>211</ele>
        <time>2018-07-05T10:12:04Z</time>
      </trkpt>
      <trkpt lat="45.97251" lon="4.79571">
        <ele>212</ele>
        <time>2018-07-05T10:12:05Z</time>
      </trkpt>
      <trkpt lat="45.97251" lon="4.79563">
        <ele>213</ele>
        <time>2018-07-05T10:12:06Z</time>
      </trkpt>
      <trkpt lat="45.97251" lon="4.79552">
        <ele>214</ele>
        <time>2018-07-05T10:12:08Z</time>
      </trkpt>
      <trkpt lat="45.9725" lon="4.79545">
        <ele>214</ele>
        <time>2018-07-05T10:12:09Z</time>
      </trkpt>
      <trkpt lat="45.97249" lon="4.79537">
        <ele>210</ele>
        <time>2018-07-05T10:12:10Z</time>
      </trkpt>
      <trkpt lat="45.97249" lon="4.79529">
        <ele>210</ele>
        <time>2018-07-05T10:12:11Z</time>
      </trkpt>
      <trkpt lat="45.97249" lon="4.79521">
        <ele>210</ele>
        <time>2018-07-05T10:12:12Z</time>
      </trkpt>
      <trkpt lat="45.97247" lon="4.79514">
        <ele>210</ele>
        <time>2018-07-05T10:12:13Z</time>
      </trkpt>
      <trkpt lat="45.97246" lon="4.79507">
        <ele>210</ele>
        <time>2018-07-05T10:12:14Z</time>
      </trkpt>
      <trkpt lat="45.97244" lon="4.79498">
        <ele>210</ele>
        <time>2018-07-05T10:12:15Z</time>
      </trkpt>
      <trkpt lat="45.97242" lon="4.7949">
        <ele>210</ele>
        <time>2018-07-05T10:12:16Z</time>
      </trkpt>
      <trkpt lat="45.97238" lon="4.79483">
        <ele>209</ele>
        <time>2018-07-05T10:12:17Z</time>
      </trkpt>
      <trkpt lat="45.97236" lon="4.79476">
        <ele>209</ele>
        <time>2018-07-05T10:12:18Z</time>
      </trkpt>
      <trkpt lat="45.97235" lon="4.79469">
        <ele>209</ele>
        <time>2018-07-05T10:12:19Z</time>
      </trkpt>
      <trkpt lat="45.97233" lon="4.79462">
        <ele>209</ele>
        <time>2018-07-05T10:12:20Z</time>
      </trkpt>
      <trkpt lat="45.9723" lon="4.79455">
        <ele>209</ele>
        <time>2018-07-05T10:12:21Z</time>
      </trkpt>
      <trkpt lat="45.97225" lon="4.79448">
        <ele>209</ele>
        <time>2018-07-05T10:12:22Z</time>
      </trkpt>
      <trkpt lat="45.97222" lon="4.7944">
        <ele>209</ele>
        <time>2018-07-05T10:12:23Z</time>
      </trkpt>
      <trkpt lat="45.9722" lon="4.79432">
        <ele>208</ele>
        <time>2018-07-05T10:12:24Z</time>
      </trkpt>
      <trkpt lat="45.97217" lon="4.79425">
        <ele>208</ele>
        <time>2018-07-05T10:12:25Z</time>
      </trkpt>
      <trkpt lat="45.97214" lon="4.79418">
        <ele>208</ele>
        <time>2018-07-05T10:12:26Z</time>
      </trkpt>
      <trkpt lat="45.97211" lon="4.79411">
        <ele>208</ele>
        <time>2018-07-05T10:12:27Z</time>
      </trkpt>
      <trkpt lat="45.97209" lon="4.79405">
        <ele>208</ele>
        <time>2018-07-05T10:12:28Z</time>
      </trkpt>
      <trkpt lat="45.97207" lon="4.79398">
        <ele>208</ele>
        <time>2018-07-05T10:12:29Z</time>
      </trkpt>
      <trkpt lat="45.97205" lon="4.79392">
        <ele>208</ele>
        <time>2018-07-05T10:12:30Z</time>
      </trkpt>
      <trkpt lat="45.97202" lon="4.79386">
        <ele>208</ele>
        <time>2018-07-05T10:12:31Z</time>
      </trkpt>
      <trkpt lat="45.972" lon="4.79379">
        <ele>207</ele>
        <time>2018-07-05T10:12:32Z</time>
      </trkpt>
      <trkpt lat="45.97197" lon="4.79372">
        <ele>207</ele>
        <time>2018-07-05T10:12:33Z</time>
      </trkpt>
      <trkpt lat="45.97194" lon="4.79365">
        <ele>207</ele>
        <time>2018-07-05T10:12:34Z</time>
      </trkpt>
      <trkpt lat="45.97191" lon="4.79358">
        <ele>207</ele>
        <time>2018-07-05T10:12:35Z</time>
      </trkpt>
      <trkpt lat="45.97189" lon="4.7935">
        <ele>207</ele>
        <time>2018-07-05T10:12:36Z</time>
      </trkpt>
      <trkpt lat="45.97185" lon="4.79344">
        <ele>207</ele>
        <time>2018-07-05T10:12:37Z</time>
      </trkpt>
      <trkpt lat="45.97183" lon="4.79336">
        <ele>206</ele>
        <time>2018-07-05T10:12:38Z</time>
      </trkpt>
      <trkpt lat="45.97177" lon="4.79329">
        <ele>206</ele>
        <time>2018-07-05T10:12:39Z</time>
      </trkpt>
      <trkpt lat="45.97174" lon="4.79323">
        <ele>206</ele>
        <time>2018-07-05T10:12:40Z</time>
      </trkpt>
      <trkpt lat="45.97171" lon="4.79314">
        <ele>207</ele>
        <time>2018-07-05T10:12:41Z</time>
      </trkpt>
      <trkpt lat="45.97167" lon="4.79307">
        <ele>207</ele>
        <time>2018-07-05T10:12:42Z</time>
      </trkpt>
      <trkpt lat="45.97164" lon="4.79299">
        <ele>204</ele>
        <time>2018-07-05T10:12:43Z</time>
      </trkpt>
      <trkpt lat="45.97162" lon="4.79291">
        <ele>204</ele>
        <time>2018-07-05T10:12:44Z</time>
      </trkpt>
      <trkpt lat="45.97159" lon="4.79284">
        <ele>204</ele>
        <time>2018-07-05T10:12:45Z</time>
      </trkpt>
      <trkpt lat="45.97157" lon="4.79277">
        <ele>204</ele>
        <time>2018-07-05T10:12:46Z</time>
      </trkpt>
      <trkpt lat="45.97155" lon="4.7927">
        <ele>204</ele>
        <time>2018-07-05T10:12:47Z</time>
      </trkpt>
      <trkpt lat="45.97153" lon="4.79261">
        <ele>204</ele>
        <time>2018-07-05T10:12:48Z</time>
      </trkpt>
      <trkpt lat="45.9715" lon="4.79255">
        <ele>204</ele>
        <time>2018-07-05T10:12:49Z</time>
      </trkpt>
      <trkpt lat="45.97147" lon="4.79248">
        <ele>205</ele>
        <time>2018-07-05T10:12:50Z</time>
      </trkpt>
      <trkpt lat="45.97145" lon="4.7924">
        <ele>205</ele>
        <time>2018-07-05T10:12:51Z</time>
      </trkpt>
      <trkpt lat="45.9714" lon="4.79232">
        <ele>205</ele>
        <time>2018-07-05T10:12:52Z</time>
      </trkpt>
      <trkpt lat="45.97137" lon="4.79223">
        <ele>205</ele>
        <time>2018-07-05T10:12:53Z</time>
      </trkpt>
      <trkpt lat="45.97133" lon="4.79215">
        <ele>206</ele>
        <time>2018-07-05T10:12:54Z</time>
      </trkpt>
      <trkpt lat="45.9713" lon="4.79208">
        <ele>206</ele>
        <time>2018-07-05T10:12:55Z</time>
      </trkpt>
      <trkpt lat="45.97127" lon="4.79201">
        <ele>206</ele>
        <time>2018-07-05T10:12:56Z</time>
      </trkpt>
      <trkpt lat="45.97125" lon="4.79193">
        <ele>206</ele>
        <time>2018-07-05T10:12:57Z</time>
      </trkpt>
      <trkpt lat="45.97122" lon="4.79186">
        <ele>206</ele>
        <time>2018-07-05T10:12:58Z</time>
      </trkpt>
      <trkpt lat="45.9712" lon="4.79179">
        <ele>206</ele>
        <time>2018-07-05T10:12:59Z</time>
      </trkpt>
      <trkpt lat="45.97117" lon="4.79172">
        <ele>206</ele>
        <time>2018-07-05T10:13:00Z</time>
      </trkpt>
      <trkpt lat="45.97113" lon="4.79165">
        <ele>206</ele>
        <time>2018-07-05T10:13:01Z</time>
      </trkpt>
      <trkpt lat="45.97107" lon="4.79159">
        <ele>206</ele>
        <time>2018-07-05T10:13:02Z</time>
      </trkpt>
      <trkpt lat="45.97103" lon="4.79153">
        <ele>206</ele>
        <time>2018-07-05T10:13:03Z</time>
      </trkpt>
      <trkpt lat="45.971" lon="4.79147">
        <ele>206</ele>
        <time>2018-07-05T10:13:04Z</time>
      </trkpt>
      <trkpt lat="45.97096" lon="4.79142">
        <ele>206</ele>
        <time>2018-07-05T10:13:05Z</time>
      </trkpt>
      <trkpt lat="45.97094" lon="4.79136">
        <ele>206</ele>
        <time>2018-07-05T10:13:06Z</time>
      </trkpt>
      <trkpt lat="45.97091" lon="4.7913">
        <ele>206</ele>
        <time>2018-07-05T10:13:07Z</time>
      </trkpt>
      <trkpt lat="45.97086" lon="4.7912">
        <ele>206</ele>
        <time>2018-07-05T10:13:09Z</time>
      </trkpt>
      <trkpt lat="45.97083" lon="4.79115">
        <ele>204</ele>
        <time>2018-07-05T10:13:10Z</time>
      </trkpt>
      <trkpt lat="45.9708" lon="4.79103">
        <ele>204</ele>
        <time>2018-07-05T10:13:12Z</time>
      </trkpt>
      <trkpt lat="45.97076" lon="4.79097">
        <ele>204</ele>
        <time>2018-07-05T10:13:13Z</time>
      </trkpt>
      <trkpt lat="45.97074" lon="4.79092">
        <ele>204</ele>
        <time>2018-07-05T10:13:14Z</time>
      </trkpt>
      <trkpt lat="45.97073" lon="4.79085">
        <ele>204</ele>
        <time>2018-07-05T10:13:15Z</time>
      </trkpt>
      <trkpt lat="45.97072" lon="4.79078">
        <ele>204</ele>
        <time>2018-07-05T10:13:16Z</time>
      </trkpt>
      <trkpt lat="45.97071" lon="4.79071">
        <ele>204</ele>
        <time>2018-07-05T10:13:17Z</time>
      </trkpt>
      <trkpt lat="45.97067" lon="4.7906">
        <ele>203</ele>
        <time>2018-07-05T10:13:19Z</time>
      </trkpt>
      <trkpt lat="45.97068" lon="4.79055">
        <ele>203</ele>
        <time>2018-07-05T10:13:20Z</time>
      </trkpt>
      <trkpt lat="45.97066" lon="4.79048">
        <ele>203</ele>
        <time>2018-07-05T10:13:21Z</time>
      </trkpt>
      <trkpt lat="45.97066" lon="4.79041">
        <ele>203</ele>
        <time>2018-07-05T10:13:22Z</time>
      </trkpt>
      <trkpt lat="45.97063" lon="4.79034">
        <ele>203</ele>
        <time>2018-07-05T10:13:23Z</time>
      </trkpt>
      <trkpt lat="45.97061" lon="4.79027">
        <ele>203</ele>
        <time>2018-07-05T10:13:24Z</time>
      </trkpt>
      <trkpt lat="45.97058" lon="4.7902">
        <ele>203</ele>
        <time>2018-07-05T10:13:25Z</time>
      </trkpt>
      <trkpt lat="45.97057" lon="4.79013">
        <ele>203</ele>
        <time>2018-07-05T10:13:26Z</time>
      </trkpt>
      <trkpt lat="45.97054" lon="4.79006">
        <ele>203</ele>
        <time>2018-07-05T10:13:27Z</time>
      </trkpt>
      <trkpt lat="45.97053" lon="4.78998">
        <ele>205</ele>
        <time>2018-07-05T10:13:28Z</time>
      </trkpt>
      <trkpt lat="45.97051" lon="4.7899">
        <ele>205</ele>
        <time>2018-07-05T10:13:29Z</time>
      </trkpt>
      <trkpt lat="45.97048" lon="4.78983">
        <ele>205</ele>
        <time>2018-07-05T10:13:30Z</time>
      </trkpt>
      <trkpt lat="45.97046" lon="4.78976">
        <ele>205</ele>
        <time>2018-07-05T10:13:31Z</time>
      </trkpt>
      <trkpt lat="45.97043" lon="4.78969">
        <ele>205</ele>
        <time>2018-07-05T10:13:32Z</time>
      </trkpt>
      <trkpt lat="45.97039" lon="4.78961">
        <ele>205</ele>
        <time>2018-07-05T10:13:33Z</time>
      </trkpt>
      <trkpt lat="45.97035" lon="4.78955">
        <ele>205</ele>
        <time>2018-07-05T10:13:34Z</time>
      </trkpt>
      <trkpt lat="45.97031" lon="4.78948">
        <ele>205</ele>
        <time>2018-07-05T10:13:35Z</time>
      </trkpt>
      <trkpt lat="45.97028" lon="4.78941">
        <ele>205</ele>
        <time>2018-07-05T10:13:36Z</time>
      </trkpt>
      <trkpt lat="45.97025" lon="4.78935">
        <ele>205</ele>
        <time>2018-07-05T10:13:37Z</time>
      </trkpt>
      <trkpt lat="45.97022" lon="4.78928">
        <ele>205</ele>
        <time>2018-07-05T10:13:38Z</time>
      </trkpt>
      <trkpt lat="45.97016" lon="4.78923">
        <ele>205</ele>
        <time>2018-07-05T10:13:39Z</time>
      </trkpt>
      <trkpt lat="45.97012" lon="4.78918">
        <ele>204</ele>
        <time>2018-07-05T10:13:40Z</time>
      </trkpt>
      <trkpt lat="45.97007" lon="4.78912">
        <ele>205</ele>
        <time>2018-07-05T10:13:41Z</time>
      </trkpt>
      <trkpt lat="45.97003" lon="4.78906">
        <ele>206</ele>
        <time>2018-07-05T10:13:42Z</time>
      </trkpt>
      <trkpt lat="45.96998" lon="4.789">
        <ele>204</ele>
        <time>2018-07-05T10:13:43Z</time>
      </trkpt>
      <trkpt lat="45.96994" lon="4.78895">
        <ele>203</ele>
        <time>2018-07-05T10:13:44Z</time>
      </trkpt>
      <trkpt lat="45.96989" lon="4.78889">
        <ele>203</ele>
        <time>2018-07-05T10:13:45Z</time>
      </trkpt>
      <trkpt lat="45.96984" lon="4.78883">
        <ele>203</ele>
        <time>2018-07-05T10:13:46Z</time>
      </trkpt>
      <trkpt lat="45.9698" lon="4.78878">
        <ele>203</ele>
        <time>2018-07-05T10:13:47Z</time>
      </trkpt>
      <trkpt lat="45.96975" lon="4.78873">
        <ele>203</ele>
        <time>2018-07-05T10:13:48Z</time>
      </trkpt>
      <trkpt lat="45.9697" lon="4.78868">
        <ele>203</ele>
        <time>2018-07-05T10:13:49Z</time>
      </trkpt>
      <trkpt lat="45.96965" lon="4.78863">
        <ele>203</ele>
        <time>2018-07-05T10:13:50Z</time>
      </trkpt>
      <trkpt lat="45.96961" lon="4.78859">
        <ele>203</ele>
        <time>2018-07-05T10:13:51Z</time>
      </trkpt>
      <trkpt lat="45.96956" lon="4.78853">
        <ele>203</ele>
        <time>2018-07-05T10:13:52Z</time>
      </trkpt>
      <trkpt lat="45.96951" lon="4.78848">
        <ele>203</ele>
        <time>2018-07-05T10:13:53Z</time>
      </trkpt>
      <trkpt lat="45.96946" lon="4.78842">
        <ele>202</ele>
        <time>2018-07-05T10:13:54Z</time>
      </trkpt>
      <trkpt lat="45.96943" lon="4.78836">
        <ele>202</ele>
        <time>2018-07-05T10:13:55Z</time>
      </trkpt>
      <trkpt lat="45.96938" lon="4.78831">
        <ele>202</ele>
        <time>2018-07-05T10:13:56Z</time>
      </trkpt>
      <trkpt lat="45.96931" lon="4.78824">
        <ele>202</ele>
        <time>2018-07-05T10:13:57Z</time>
      </trkpt>
      <trkpt lat="45.96927" lon="4.78817">
        <ele>202</ele>
        <time>2018-07-05T10:13:58Z</time>
      </trkpt>
      <trkpt lat="45.96923" lon="4.7881">
        <ele>202</ele>
        <time>2018-07-05T10:13:59Z</time>
      </trkpt>
      <trkpt lat="45.96919" lon="4.78803">
        <ele>203</ele>
        <time>2018-07-05T10:14:00Z</time>
      </trkpt>
      <trkpt lat="45.96915" lon="4.78797">
        <ele>201</ele>
        <time>2018-07-05T10:14:01Z</time>
      </trkpt>
      <trkpt lat="45.96913" lon="4.78789">
        <ele>201</ele>
        <time>2018-07-05T10:14:02Z</time>
      </trkpt>
      <trkpt lat="45.9691" lon="4.78782">
        <ele>201</ele>
        <time>2018-07-05T10:14:03Z</time>
      </trkpt>
      <trkpt lat="45.96906" lon="4.78774">
        <ele>201</ele>
        <time>2018-07-05T10:14:04Z</time>
      </trkpt>
      <trkpt lat="45.96902" lon="4.78766">
        <ele>201</ele>
        <time>2018-07-05T10:14:05Z</time>
      </trkpt>
      <trkpt lat="45.96897" lon="4.78757">
        <ele>201</ele>
        <time>2018-07-05T10:14:06Z</time>
      </trkpt>
      <trkpt lat="45.96893" lon="4.78749">
        <ele>202</ele>
        <time>2018-07-05T10:14:07Z</time>
      </trkpt>
      <trkpt lat="45.9689" lon="4.78742">
        <ele>202</ele>
        <time>2018-07-05T10:14:08Z</time>
      </trkpt>
      <trkpt lat="45.96886" lon="4.78734">
        <ele>202</ele>
        <time>2018-07-05T10:14:09Z</time>
      </trkpt>
      <trkpt lat="45.96883" lon="4.78728">
        <ele>202</ele>
        <time>2018-07-05T10:14:10Z</time>
      </trkpt>
      <trkpt lat="45.9688" lon="4.7872">
        <ele>202</ele>
        <time>2018-07-05T10:14:11Z</time>
      </trkpt>
      <trkpt lat="45.96878" lon="4.78712">
        <ele>202</ele>
        <time>2018-07-05T10:14:12Z</time>
      </trkpt>
      <trkpt lat="45.96874" lon="4.78706">
        <ele>202</ele>
        <time>2018-07-05T10:14:13Z</time>
      </trkpt>
      <trkpt lat="45.96871" lon="4.78699">
        <ele>202</ele>
        <time>2018-07-05T10:14:14Z</time>
      </trkpt>
      <trkpt lat="45.96867" lon="4.78693">
        <ele>202</ele>
        <time>2018-07-05T10:14:15Z</time>
      </trkpt>
      <trkpt lat="45.96864" lon="4.78686">
        <ele>202</ele>
        <time>2018-07-05T10:14:16Z</time>
      </trkpt>
      <trkpt lat="45.9686" lon="4.7868">
        <ele>202</ele>
        <time>2018-07-05T10:14:17Z</time>
      </trkpt>
      <trkpt lat="45.96857" lon="4.78673">
        <ele>202</ele>
        <time>2018-07-05T10:14:18Z</time>
      </trkpt>
      <trkpt lat="45.96855" lon="4.78667">
        <ele>202</ele>
        <time>2018-07-05T10:14:19Z</time>
      </trkpt>
      <trkpt lat="45.96852" lon="4.78661">
        <ele>203</ele>
        <time>2018-07-05T10:14:20Z</time>
      </trkpt>
      <trkpt lat="45.96848" lon="4.78655">
        <ele>203</ele>
        <time>2018-07-05T10:14:21Z</time>
      </trkpt>
      <trkpt lat="45.96845" lon="4.78648">
        <ele>203</ele>
        <time>2018-07-05T10:14:22Z</time>
      </trkpt>
      <trkpt lat="45.96842" lon="4.78642">
        <ele>203</ele>
        <time>2018-07-05T10:14:23Z</time>
      </trkpt>
      <trkpt lat="45.96839" lon="4.78635">
        <ele>203</ele>
        <time>2018-07-05T10:14:24Z</time>
      </trkpt>
      <trkpt lat="45.96836" lon="4.78629">
        <ele>203</ele>
        <time>2018-07-05T10:14:25Z</time>
      </trkpt>
      <trkpt lat="45.96833" lon="4.78623">
        <ele>201</ele>
        <time>2018-07-05T10:14:26Z</time>
      </trkpt>
      <trkpt lat="45.9683" lon="4.78618">
        <ele>202</ele>
        <time>2018-07-05T10:14:27Z</time>
      </trkpt>
      <trkpt lat="45.96828" lon="4.7861">
        <ele>202</ele>
        <time>2018-07-05T10:14:28Z</time>
      </trkpt>
      <trkpt lat="45.96826" lon="4.78604">
        <ele>202</ele>
        <time>2018-07-05T10:14:29Z</time>
      </trkpt>
      <trkpt lat="45.96823" lon="4.78598">
        <ele>202</ele>
        <time>2018-07-05T10:14:30Z</time>
      </trkpt>
      <trkpt lat="45.96819" lon="4.78593">
        <ele>202</ele>
        <time>2018-07-05T10:14:31Z</time>
      </trkpt>
      <trkpt lat="45.96818" lon="4.78587">
        <ele>202</ele>
        <time>2018-07-05T10:14:32Z</time>
      </trkpt>
      <trkpt lat="45.96814" lon="4.78582">
        <ele>203</ele>
        <time>2018-07-05T10:14:33Z</time>
      </trkpt>
      <trkpt lat="45.96811" lon="4.78578">
        <ele>203</ele>
        <time>2018-07-05T10:14:34Z</time>
      </trkpt>
      <trkpt lat="45.96809" lon="4.78572">
        <ele>203</ele>
        <time>2018-07-05T10:14:35Z</time>
      </trkpt>
      <trkpt lat="45.96805" lon="4.78566">
        <ele>203</ele>
        <time>2018-07-05T10:14:36Z</time>
      </trkpt>
      <trkpt lat="45.96801" lon="4.78561">
        <ele>203</ele>
        <time>2018-07-05T10:14:37Z</time>
      </trkpt>
      <trkpt lat="45.96798" lon="4.78555">
        <ele>203</ele>
        <time>2018-07-05T10:14:38Z</time>
      </trkpt>
      <trkpt lat="45.96794" lon="4.7855">
        <ele>203</ele>
        <time>2018-07-05T10:14:39Z</time>
      </trkpt>
      <trkpt lat="45.9679" lon="4.78544">
        <ele>203</ele>
        <time>2018-07-05T10:14:40Z</time>
      </trkpt>
      <trkpt lat="45.96789" lon="4.78539">
        <ele>203</ele>
        <time>2018-07-05T10:14:41Z</time>
      </trkpt>
      <trkpt lat="45.96785" lon="4.78533">
        <ele>203</ele>
        <time>2018-07-05T10:14:42Z</time>
      </trkpt>
      <trkpt lat="45.96781" lon="4.78527">
        <ele>203</ele>
        <time>2018-07-05T10:14:43Z</time>
      </trkpt>
      <trkpt lat="45.96778" lon="4.78521">
        <ele>203</ele>
        <time>2018-07-05T10:14:44Z</time>
      </trkpt>
      <trkpt lat="45.96774" lon="4.78514">
        <ele>203</ele>
        <time>2018-07-05T10:14:45Z</time>
      </trkpt>
      <trkpt lat="45.9677" lon="4.78508">
        <ele>203</ele>
        <time>2018-07-05T10:14:46Z</time>
      </trkpt>
      <trkpt lat="45.96765" lon="4.78502">
        <ele>203</ele>
        <time>2018-07-05T10:14:47Z</time>
      </trkpt>
      <trkpt lat="45.96762" lon="4.78497">
        <ele>204</ele>
        <time>2018-07-05T10:14:48Z</time>
      </trkpt>
      <trkpt lat="45.96759" lon="4.78491">
        <ele>204</ele>
        <time>2018-07-05T10:14:49Z</time>
      </trkpt>
      <trkpt lat="45.96756" lon="4.78486">
        <ele>205</ele>
        <time>2018-07-05T10:14:50Z</time>
      </trkpt>
      <trkpt lat="45.96753" lon="4.78481">
        <ele>205</ele>
        <time>2018-07-05T10:14:51Z</time>
      </trkpt>
      <trkpt lat="45.96748" lon="4.78476">
        <ele>203</ele>
        <time>2018-07-05T10:14:52Z</time>
      </trkpt>
      <trkpt lat="45.96744" lon="4.78472">
        <ele>203</ele>
        <time>2018-07-05T10:14:53Z</time>
      </trkpt>
      <trkpt lat="45.96739" lon="4.78468">
        <ele>203</ele>
        <time>2018-07-05T10:14:54Z</time>
      </trkpt>
      <trkpt lat="45.96732" lon="4.78463">
        <ele>203</ele>
        <time>2018-07-05T10:14:55Z</time>
      </trkpt>
      <trkpt lat="45.96727" lon="4.7846">
        <ele>203</ele>
        <time>2018-07-05T10:14:56Z</time>
      </trkpt>
      <trkpt lat="45.96724" lon="4.78455">
        <ele>203</ele>
        <time>2018-07-05T10:14:57Z</time>
      </trkpt>
      <trkpt lat="45.9672" lon="4.78451">
        <ele>203</ele>
        <time>2018-07-05T10:14:58Z</time>
      </trkpt>
      <trkpt lat="45.96716" lon="4.78447">
        <ele>203</ele>
        <time>2018-07-05T10:14:59Z</time>
      </trkpt>
      <trkpt lat="45.96711" lon="4.78443">
        <ele>203</ele>
        <time>2018-07-05T10:15:00Z</time>
      </trkpt>
      <trkpt lat="45.96706" lon="4.78438">
        <ele>203</ele>
        <time>2018-07-05T10:15:01Z</time>
      </trkpt>
      <trkpt lat="45.96702" lon="4.78433">
        <ele>203</ele>
        <time>2018-07-05T10:15:02Z</time>
      </trkpt>
      <trkpt lat="45.96698" lon="4.78427">
        <ele>203</ele>
        <time>2018-07-05T10:15:03Z</time>
      </trkpt>
      <trkpt lat="45.96693" lon="4.78421">
        <ele>202</ele>
        <time>2018-07-05T10:15:04Z</time>
      </trkpt>
      <trkpt lat="45.96689" lon="4.78417">
        <ele>204</ele>
        <time>2018-07-05T10:15:05Z</time>
      </trkpt>
      <trkpt lat="45.96685" lon="4.78411">
        <ele>204</ele>
        <time>2018-07-05T10:15:06Z</time>
      </trkpt>
      <trkpt lat="45.9668" lon="4.78407">
        <ele>204</ele>
        <time>2018-07-05T10:15:07Z</time>
      </trkpt>
      <trkpt lat="45.96677" lon="4.78402">
        <ele>204</ele>
        <time>2018-07-05T10:15:08Z</time>
      </trkpt>
      <trkpt lat="45.96672" lon="4.78397">
        <ele>204</ele>
        <time>2018-07-05T10:15:09Z</time>
      </trkpt>
      <trkpt lat="45.96668" lon="4.78394">
        <ele>204</ele>
        <time>2018-07-05T10:15:10Z</time>
      </trkpt>
      <trkpt lat="45.96664" lon="4.7839">
        <ele>201</ele>
        <time>2018-07-05T10:15:11Z</time>
      </trkpt>
      <trkpt lat="45.96659" lon="4.78385">
        <ele>201</ele>
        <time>2018-07-05T10:15:12Z</time>
      </trkpt>
      <trkpt lat="45.96654" lon="4.78381">
        <ele>201</ele>
        <time>2018-07-05T10:15:13Z</time>
      </trkpt>
      <trkpt lat="45.96651" lon="4.78378">
        <ele>201</ele>
        <time>2018-07-05T10:15:14Z</time>
      </trkpt>
      <trkpt lat="45.96646" lon="4.78374">
        <ele>201</ele>
        <time>2018-07-05T10:15:15Z</time>
      </trkpt>
      <trkpt lat="45.96642" lon="4.78369">
        <ele>201</ele>
        <time>2018-07-05T10:15:16Z</time>
      </trkpt>
      <trkpt lat="45.96637" lon="4.78366">
        <ele>201</ele>
        <time>2018-07-05T10:15:17Z</time>
      </trkpt>
      <trkpt lat="45.96632" lon="4.78364">
        <ele>201</ele>
        <time>2018-07-05T10:15:18Z</time>
      </trkpt>
      <trkpt lat="45.96628" lon="4.7836">
        <ele>201</ele>
        <time>2018-07-05T10:15:19Z</time>
      </trkpt>
      <trkpt lat="45.96622" lon="4.78355">
        <ele>201</ele>
        <time>2018-07-05T10:15:20Z</time>
      </trkpt>
      <trkpt lat="45.96618" lon="4.7835">
        <ele>201</ele>
        <time>2018-07-05T10:15:21Z</time>
      </trkpt>
      <trkpt lat="45.96613" lon="4.78346">
        <ele>200</ele>
        <time>2018-07-05T10:15:22Z</time>
      </trkpt>
      <trkpt lat="45.96608" lon="4.78343">
        <ele>200</ele>
        <time>2018-07-05T10:15:23Z</time>
      </trkpt>
      <trkpt lat="45.96603" lon="4.78338">
        <ele>200</ele>
        <time>2018-07-05T10:15:24Z</time>
      </trkpt>
      <trkpt lat="45.96599" lon="4.78334">
        <ele>199</ele>
        <time>2018-07-05T10:15:25Z</time>
      </trkpt>
      <trkpt lat="45.96594" lon="4.7833">
        <ele>201</ele>
        <time>2018-07-05T10:15:26Z</time>
      </trkpt>
      <trkpt lat="45.96589" lon="4.78324">
        <ele>201</ele>
        <time>2018-07-05T10:15:27Z</time>
      </trkpt>
      <trkpt lat="45.96582" lon="4.78318">
        <ele>199</ele>
        <time>2018-07-05T10:15:28Z</time>
      </trkpt>
      <trkpt lat="45.96577" lon="4.78313">
        <ele>199</ele>
        <time>2018-07-05T10:15:29Z</time>
      </trkpt>
      <trkpt lat="45.96571" lon="4.78308">
        <ele>200</ele>
        <time>2018-07-05T10:15:30Z</time>
      </trkpt>
      <trkpt lat="45.96566" lon="4.78304">
        <ele>200</ele>
        <time>2018-07-05T10:15:31Z</time>
      </trkpt>
      <trkpt lat="45.9656" lon="4.78297">
        <ele>200</ele>
        <time>2018-07-05T10:15:32Z</time>
      </trkpt>
      <trkpt lat="45.96556" lon="4.78292">
        <ele>200</ele>
        <time>2018-07-05T10:15:33Z</time>
      </trkpt>
      <trkpt lat="45.96551" lon="4.78288">
        <ele>200</ele>
        <time>2018-07-05T10:15:34Z</time>
      </trkpt>
      <trkpt lat="45.96547" lon="4.78282">
        <ele>200</ele>
        <time>2018-07-05T10:15:35Z</time>
      </trkpt>
      <trkpt lat="45.96544" lon="4.78277">
        <ele>200</ele>
        <time>2018-07-05T10:15:36Z</time>
      </trkpt>
      <trkpt lat="45.9654" lon="4.7827">
        <ele>200</ele>
        <time>2018-07-05T10:15:37Z</time>
      </trkpt>
      <trkpt lat="45.96536" lon="4.78264">
        <ele>200</ele>
        <time>2018-07-05T10:15:38Z</time>
      </trkpt>
      <trkpt lat="45.96529" lon="4.78258">
        <ele>200</ele>
        <time>2018-07-05T10:15:39Z</time>
      </trkpt>
      <trkpt lat="45.96524" lon="4.78252">
        <ele>199</ele>
        <time>2018-07-05T10:15:40Z</time>
      </trkpt>
      <trkpt lat="45.96521" lon="4.78244">
        <ele>203</ele>
        <time>2018-07-05T10:15:41Z</time>
      </trkpt>
      <trkpt lat="45.96517" lon="4.78237">
        <ele>203</ele>
        <time>2018-07-05T10:15:42Z</time>
      </trkpt>
      <trkpt lat="45.96512" lon="4.7823">
        <ele>203</ele>
        <time>2018-07-05T10:15:43Z</time>
      </trkpt>
      <trkpt lat="45.96508" lon="4.78224">
        <ele>204</ele>
        <time>2018-07-05T10:15:44Z</time>
      </trkpt>
      <trkpt lat="45.96505" lon="4.78217">
        <ele>204</ele>
        <time>2018-07-05T10:15:45Z</time>
      </trkpt>
      <trkpt lat="45.96502" lon="4.78212">
        <ele>205</ele>
        <time>2018-07-05T10:15:46Z</time>
      </trkpt>
      <trkpt lat="45.96498" lon="4.78206">
        <ele>200</ele>
        <time>2018-07-05T10:15:47Z</time>
      </trkpt>
      <trkpt lat="45.96494" lon="4.78201">
        <ele>200</ele>
        <time>2018-07-05T10:15:48Z</time>
      </trkpt>
      <trkpt lat="45.9649" lon="4.78197">
        <ele>201</ele>
        <time>2018-07-05T10:15:49Z</time>
      </trkpt>
      <trkpt lat="45.96486" lon="4.78193">
        <ele>201</ele>
        <time>2018-07-05T10:15:50Z</time>
      </trkpt>
      <trkpt lat="45.96479" lon="4.78189">
        <ele>201</ele>
        <time>2018-07-05T10:15:52Z</time>
      </trkpt>
      <trkpt lat="45.96475" lon="4.78186">
        <ele>200</ele>
        <time>2018-07-05T10:15:53Z</time>
      </trkpt>
      <trkpt lat="45.96469" lon="4.78184">
        <ele>200</ele>
        <time>2018-07-05T10:15:54Z</time>
      </trkpt>
      <trkpt lat="45.96465" lon="4.7818">
        <ele>200</ele>
        <time>2018-07-05T10:15:55Z</time>
      </trkpt>
      <trkpt lat="45.96461" lon="4.78175">
        <ele>200</ele>
        <time>2018-07-05T10:15:56Z</time>
      </trkpt>
      <trkpt lat="45.96457" lon="4.78173">
        <ele>200</ele>
        <time>2018-07-05T10:15:57Z</time>
      </trkpt>
      <trkpt lat="45.96451" lon="4.78169">
        <ele>200</ele>
        <time>2018-07-05T10:15:58Z</time>
      </trkpt>
      <trkpt lat="45.96447" lon="4.78165">
        <ele>203</ele>
        <time>2018-07-05T10:15:59Z</time>
      </trkpt>
      <trkpt lat="45.96438" lon="4.7816">
        <ele>202</ele>
        <time>2018-07-05T10:16:00Z</time>
      </trkpt>
      <trkpt lat="45.96432" lon="4.78157">
        <ele>202</ele>
        <time>2018-07-05T10:16:01Z</time>
      </trkpt>
      <trkpt lat="45.96427" lon="4.78152">
        <ele>202</ele>
        <time>2018-07-05T10:16:02Z</time>
      </trkpt>
      <trkpt lat="45.96422" lon="4.78147">
        <ele>202</ele>
        <time>2018-07-05T10:16:03Z</time>
      </trkpt>
      <trkpt lat="45.96418" lon="4.78143">
        <ele>202</ele>
        <time>2018-07-05T10:16:04Z</time>
      </trkpt>
      <trkpt lat="45.96411" lon="4.78139">
        <ele>199</ele>
        <time>2018-07-05T10:16:05Z</time>
      </trkpt>
      <trkpt lat="45.96406" lon="4.78134">
        <ele>199</ele>
        <time>2018-07-05T10:16:06Z</time>
      </trkpt>
      <trkpt lat="45.96403" lon="4.78129">
        <ele>199</ele>
        <time>2018-07-05T10:16:07Z</time>
      </trkpt>
      <trkpt lat="45.96399" lon="4.78126">
        <ele>199</ele>
        <time>2018-07-05T10:16:08Z</time>
      </trkpt>
      <trkpt lat="45.96395" lon="4.78122">
        <ele>200</ele>
        <time>2018-07-05T10:16:09Z</time>
      </trkpt>
      <trkpt lat="45.96392" lon="4.78117">
        <ele>200</ele>
        <time>2018-07-05T10:16:10Z</time>
      </trkpt>
      <trkpt lat="45.96388" lon="4.78113">
        <ele>200</ele>
        <time>2018-07-05T10:16:11Z</time>
      </trkpt>
      <trkpt lat="45.96386" lon="4.78109">
        <ele>200</ele>
        <time>2018-07-05T10:16:12Z</time>
      </trkpt>
      <trkpt lat="45.9638" lon="4.78105">
        <ele>200</ele>
        <time>2018-07-05T10:16:13Z</time>
      </trkpt>
      <trkpt lat="45.96376" lon="4.78101">
        <ele>200</ele>
        <time>2018-07-05T10:16:14Z</time>
      </trkpt>
      <trkpt lat="45.9637" lon="4.78098">
        <ele>199</ele>
        <time>2018-07-05T10:16:15Z</time>
      </trkpt>
      <trkpt lat="45.96365" lon="4.78093">
        <ele>199</ele>
        <time>2018-07-05T10:16:16Z</time>
      </trkpt>
      <trkpt lat="45.96359" lon="4.78088">
        <ele>199</ele>
        <time>2018-07-05T10:16:17Z</time>
      </trkpt>
      <trkpt lat="45.96354" lon="4.78082">
        <ele>201</ele>
        <time>2018-07-05T10:16:18Z</time>
      </trkpt>
      <trkpt lat="45.96351" lon="4.78076">
        <ele>201</ele>
        <time>2018-07-05T10:16:19Z</time>
      </trkpt>
      <trkpt lat="45.96346" lon="4.7807">
        <ele>201</ele>
        <time>2018-07-05T10:16:20Z</time>
      </trkpt>
      <trkpt lat="45.96341" lon="4.78065">
        <ele>201</ele>
        <time>2018-07-05T10:16:21Z</time>
      </trkpt>
      <trkpt lat="45.96337" lon="4.78058">
        <ele>202</ele>
        <time>2018-07-05T10:16:22Z</time>
      </trkpt>
      <trkpt lat="45.96333" lon="4.78052">
        <ele>199</ele>
        <time>2018-07-05T10:16:23Z</time>
      </trkpt>
      <trkpt lat="45.96328" lon="4.78047">
        <ele>199</ele>
        <time>2018-07-05T10:16:24Z</time>
      </trkpt>
      <trkpt lat="45.96323" lon="4.78042">
        <ele>199</ele>
        <time>2018-07-05T10:16:25Z</time>
      </trkpt>
      <trkpt lat="45.96319" lon="4.78036">
        <ele>200</ele>
        <time>2018-07-05T10:16:26Z</time>
      </trkpt>
      <trkpt lat="45.96314" lon="4.78033">
        <ele>200</ele>
        <time>2018-07-05T10:16:27Z</time>
      </trkpt>
      <trkpt lat="45.96309" lon="4.78028">
        <ele>200</ele>
        <time>2018-07-05T10:16:28Z</time>
      </trkpt>
      <trkpt lat="45.96304" lon="4.78023">
        <ele>199</ele>
        <time>2018-07-05T10:16:29Z</time>
      </trkpt>
      <trkpt lat="45.963" lon="4.78017">
        <ele>199</ele>
        <time>2018-07-05T10:16:30Z</time>
      </trkpt>
      <trkpt lat="45.96295" lon="4.78014">
        <ele>199</ele>
        <time>2018-07-05T10:16:31Z</time>
      </trkpt>
      <trkpt lat="45.9629" lon="4.78008">
        <ele>199</ele>
        <time>2018-07-05T10:16:32Z</time>
      </trkpt>
      <trkpt lat="45.96286" lon="4.78004">
        <ele>199</ele>
        <time>2018-07-05T10:16:33Z</time>
      </trkpt>
      <trkpt lat="45.96281" lon="4.78001">
        <ele>198</ele>
        <time>2018-07-05T10:16:34Z</time>
      </trkpt>
      <trkpt lat="45.96277" lon="4.77997">
        <ele>203</ele>
        <time>2018-07-05T10:16:35Z</time>
      </trkpt>
      <trkpt lat="45.96272" lon="4.7799">
        <ele>202</ele>
        <time>2018-07-05T10:16:36Z</time>
      </trkpt>
      <trkpt lat="45.96267" lon="4.77985">
        <ele>202</ele>
        <time>2018-07-05T10:16:37Z</time>
      </trkpt>
      <trkpt lat="45.96263" lon="4.77979">
        <ele>202</ele>
        <time>2018-07-05T10:16:38Z</time>
      </trkpt>
      <trkpt lat="45.96258" lon="4.77975">
        <ele>203</ele>
        <time>2018-07-05T10:16:39Z</time>
      </trkpt>
      <trkpt lat="45.96255" lon="4.77969">
        <ele>203</ele>
        <time>2018-07-05T10:16:40Z</time>
      </trkpt>
      <trkpt lat="45.9625" lon="4.77965">
        <ele>199</ele>
        <time>2018-07-05T10:16:41Z</time>
      </trkpt>
      <trkpt lat="45.96243" lon="4.77959">
        <ele>199</ele>
        <time>2018-07-05T10:16:42Z</time>
      </trkpt>
      <trkpt lat="45.96241" lon="4.77956">
        <ele>199</ele>
        <time>2018-07-05T10:16:43Z</time>
      </trkpt>
      <trkpt lat="45.96235" lon="4.77947">
        <ele>200</ele>
        <time>2018-07-05T10:16:45Z</time>
      </trkpt>
      <trkpt lat="45.96233" lon="4.77942">
        <ele>200</ele>
        <time>2018-07-05T10:16:46Z</time>
      </trkpt>
      <trkpt lat="45.96228" lon="4.77938">
        <ele>200</ele>
        <time>2018-07-05T10:16:47Z</time>
      </trkpt>
      <trkpt lat="45.96224" lon="4.77934">
        <ele>200</ele>
        <time>2018-07-05T10:16:48Z</time>
      </trkpt>
      <trkpt lat="45.96219" lon="4.77926">
        <ele>200</ele>
        <time>2018-07-05T10:16:50Z</time>
      </trkpt>
      <trkpt lat="45.96215" lon="4.77919">
        <ele>200</ele>
        <time>2018-07-05T10:16:51Z</time>
      </trkpt>
      <trkpt lat="45.9621" lon="4.77913">
        <ele>202</ele>
        <time>2018-07-05T10:16:52Z</time>
      </trkpt>
      <trkpt lat="45.96206" lon="4.77907">
        <ele>202</ele>
        <time>2018-07-05T10:16:53Z</time>
      </trkpt>
      <trkpt lat="45.96202" lon="4.77901">
        <ele>202</ele>
        <time>2018-07-05T10:16:54Z</time>
      </trkpt>
      <trkpt lat="45.96197" lon="4.77894">
        <ele>201</ele>
        <time>2018-07-05T10:16:55Z</time>
      </trkpt>
      <trkpt lat="45.96193" lon="4.77888">
        <ele>201</ele>
        <time>2018-07-05T10:16:56Z</time>
      </trkpt>
      <trkpt lat="45.96188" lon="4.77882">
        <ele>201</ele>
        <time>2018-07-05T10:16:57Z</time>
      </trkpt>
      <trkpt lat="45.96186" lon="4.77875">
        <ele>201</ele>
        <time>2018-07-05T10:16:58Z</time>
      </trkpt>
      <trkpt lat="45.96181" lon="4.7787">
        <ele>201</ele>
        <time>2018-07-05T10:16:59Z</time>
      </trkpt>
      <trkpt lat="45.96178" lon="4.77865">
        <ele>201</ele>
        <time>2018-07-05T10:17:00Z</time>
      </trkpt>
      <trkpt lat="45.96174" lon="4.77858">
        <ele>201</ele>
        <time>2018-07-05T10:17:01Z</time>
      </trkpt>
      <trkpt lat="45.96167" lon="4.77851">
        <ele>201</ele>
        <time>2018-07-05T10:17:02Z</time>
      </trkpt>
      <trkpt lat="45.96163" lon="4.77845">
        <ele>197</ele>
        <time>2018-07-05T10:17:03Z</time>
      </trkpt>
      <trkpt lat="45.96159" lon="4.77839">
        <ele>197</ele>
        <time>2018-07-05T10:17:04Z</time>
      </trkpt>
      <trkpt lat="45.96156" lon="4.77833">
        <ele>198</ele>
        <time>2018-07-05T10:17:05Z</time>
      </trkpt>
      <trkpt lat="45.96152" lon="4.77827">
        <ele>198</ele>
        <time>2018-07-05T10:17:06Z</time>
      </trkpt>
      <trkpt lat="45.96149" lon="4.77821">
        <ele>198</ele>
        <time>2018-07-05T10:17:07Z</time>
      </trkpt>
      <trkpt lat="45.96146" lon="4.77815">
        <ele>198</ele>
        <time>2018-07-05T10:17:08Z</time>
      </trkpt>
      <trkpt lat="45.96144" lon="4.7781">
        <ele>198</ele>
        <time>2018-07-05T10:17:09Z</time>
      </trkpt>
      <trkpt lat="45.96141" lon="4.77805">
        <ele>198</ele>
        <time>2018-07-05T10:17:10Z</time>
      </trkpt>
      <trkpt lat="45.96138" lon="4.77799">
        <ele>198</ele>
        <time>2018-07-05T10:17:11Z</time>
      </trkpt>
      <trkpt lat="45.96136" lon="4.77794">
        <ele>198</ele>
        <time>2018-07-05T10:17:12Z</time>
      </trkpt>
      <trkpt lat="45.96133" lon="4.77788">
        <ele>198</ele>
        <time>2018-07-05T10:17:13Z</time>
      </trkpt>
      <trkpt lat="45.9613" lon="4.77782">
        <ele>198</ele>
        <time>2018-07-05T10:17:14Z</time>
      </trkpt>
      <trkpt lat="45.96127" lon="4.77776">
        <ele>198</ele>
        <time>2018-07-05T10:17:15Z</time>
      </trkpt>
      <trkpt lat="45.96121" lon="4.7777">
        <ele>197</ele>
        <time>2018-07-05T10:17:16Z</time>
      </trkpt>
      <trkpt lat="45.96117" lon="4.77763">
        <ele>197</ele>
        <time>2018-07-05T10:17:17Z</time>
      </trkpt>
      <trkpt lat="45.96115" lon="4.77756">
        <ele>197</ele>
        <time>2018-07-05T10:17:18Z</time>
      </trkpt>
      <trkpt lat="45.96111" lon="4.7775">
        <ele>197</ele>
        <time>2018-07-05T10:17:19Z</time>
      </trkpt>
      <trkpt lat="45.96107" lon="4.77744">
        <ele>199</ele>
        <time>2018-07-05T10:17:20Z</time>
      </trkpt>
      <trkpt lat="45.96105" lon="4.77738">
        <ele>199</ele>
        <time>2018-07-05T10:17:21Z</time>
      </trkpt>
      <trkpt lat="45.96102" lon="4.77733">
        <ele>199</ele>
        <time>2018-07-05T10:17:22Z</time>
      </trkpt>
      <trkpt lat="45.96099" lon="4.77727">
        <ele>199</ele>
        <time>2018-07-05T10:17:23Z</time>
      </trkpt>
      <trkpt lat="45.96095" lon="4.77722">
        <ele>199</ele>
        <time>2018-07-05T10:17:24Z</time>
      </trkpt>
      <trkpt lat="45.96095" lon="4.77714">
        <ele>200</ele>
        <time>2018-07-05T10:17:25Z</time>
      </trkpt>
      <trkpt lat="45.96092" lon="4.77708">
        <ele>200</ele>
        <time>2018-07-05T10:17:26Z</time>
      </trkpt>
      <trkpt lat="45.96088" lon="4.77702">
        <ele>200</ele>
        <time>2018-07-05T10:17:27Z</time>
      </trkpt>
      <trkpt lat="45.96084" lon="4.77697">
        <ele>200</ele>
        <time>2018-07-05T10:17:28Z</time>
      </trkpt>
      <trkpt lat="45.96081" lon="4.77691">
        <ele>198</ele>
        <time>2018-07-05T10:17:29Z</time>
      </trkpt>
      <trkpt lat="45.96078" lon="4.77687">
        <ele>198</ele>
        <time>2018-07-05T10:17:30Z</time>
      </trkpt>
      <trkpt lat="45.96075" lon="4.77681">
        <ele>198</ele>
        <time>2018-07-05T10:17:31Z</time>
      </trkpt>
      <trkpt lat="45.9607" lon="4.77674">
        <ele>199</ele>
        <time>2018-07-05T10:17:33Z</time>
      </trkpt>
      <trkpt lat="45.96065" lon="4.77668">
        <ele>198</ele>
        <time>2018-07-05T10:17:34Z</time>
      </trkpt>
      <trkpt lat="45.96059" lon="4.77658">
        <ele>200</ele>
        <time>2018-07-05T10:17:36Z</time>
      </trkpt>
      <trkpt lat="45.96056" lon="4.77653">
        <ele>200</ele>
        <time>2018-07-05T10:17:37Z</time>
      </trkpt>
      <trkpt lat="45.96052" lon="4.7765">
        <ele>200</ele>
        <time>2018-07-05T10:17:38Z</time>
      </trkpt>
      <trkpt lat="45.96047" lon="4.77645">
        <ele>200</ele>
        <time>2018-07-05T10:17:39Z</time>
      </trkpt>
      <trkpt lat="45.96042" lon="4.77637">
        <ele>199</ele>
        <time>2018-07-05T10:17:41Z</time>
      </trkpt>
      <trkpt lat="45.96037" lon="4.7763">
        <ele>199</ele>
        <time>2018-07-05T10:17:42Z</time>
      </trkpt>
      <trkpt lat="45.96031" lon="4.77625">
        <ele>199</ele>
        <time>2018-07-05T10:17:43Z</time>
      </trkpt>
      <trkpt lat="45.96026" lon="4.77621">
        <ele>199</ele>
        <time>2018-07-05T10:17:44Z</time>
      </trkpt>
      <trkpt lat="45.96022" lon="4.77615">
        <ele>199</ele>
        <time>2018-07-05T10:17:45Z</time>
      </trkpt>
      <trkpt lat="45.96018" lon="4.7761">
        <ele>199</ele>
        <time>2018-07-05T10:17:46Z</time>
      </trkpt>
      <trkpt lat="45.96014" lon="4.77605">
        <ele>199</ele>
        <time>2018-07-05T10:17:47Z</time>
      </trkpt>
      <trkpt lat="45.96009" lon="4.77604">
        <ele>199</ele>
        <time>2018-07-05T10:17:48Z</time>
      </trkpt>
      <trkpt lat="45.96006" lon="4.77599">
        <ele>198</ele>
        <time>2018-07-05T10:17:49Z</time>
      </trkpt>
      <trkpt lat="45.95999" lon="4.77592">
        <ele>196</ele>
        <time>2018-07-05T10:17:50Z</time>
      </trkpt>
      <trkpt lat="45.95995" lon="4.77587">
        <ele>196</ele>
        <time>2018-07-05T10:17:51Z</time>
      </trkpt>
      <trkpt lat="45.95993" lon="4.77581">
        <ele>196</ele>
        <time>2018-07-05T10:17:52Z</time>
      </trkpt>
      <trkpt lat="45.95987" lon="4.77574">
        <ele>196</ele>
        <time>2018-07-05T10:17:53Z</time>
      </trkpt>
      <trkpt lat="45.95984" lon="4.77568">
        <ele>196</ele>
        <time>2018-07-05T10:17:54Z</time>
      </trkpt>
      <trkpt lat="45.95983" lon="4.77559">
        <ele>196</ele>
        <time>2018-07-05T10:17:55Z</time>
      </trkpt>
      <trkpt lat="45.9598" lon="4.77554">
        <ele>196</ele>
        <time>2018-07-05T10:17:56Z</time>
      </trkpt>
      <trkpt lat="45.95975" lon="4.77548">
        <ele>195</ele>
        <time>2018-07-05T10:17:57Z</time>
      </trkpt>
      <trkpt lat="45.95972" lon="4.77542">
        <ele>195</ele>
        <time>2018-07-05T10:17:58Z</time>
      </trkpt>
      <trkpt lat="45.95971" lon="4.77536">
        <ele>195</ele>
        <time>2018-07-05T10:17:59Z</time>
      </trkpt>
      <trkpt lat="45.95968" lon="4.7753">
        <ele>195</ele>
        <time>2018-07-05T10:18:00Z</time>
      </trkpt>
      <trkpt lat="45.95966" lon="4.77523">
        <ele>195</ele>
        <time>2018-07-05T10:18:01Z</time>
      </trkpt>
      <trkpt lat="45.95964" lon="4.77516">
        <ele>195</ele>
        <time>2018-07-05T10:18:02Z</time>
      </trkpt>
      <trkpt lat="45.95961" lon="4.7751">
        <ele>195</ele>
        <time>2018-07-05T10:18:03Z</time>
      </trkpt>
      <trkpt lat="45.95958" lon="4.77502">
        <ele>195</ele>
        <time>2018-07-05T10:18:04Z</time>
      </trkpt>
      <trkpt lat="45.95956" lon="4.77496">
        <ele>196</ele>
        <time>2018-07-05T10:18:05Z</time>
      </trkpt>
      <trkpt lat="45.95952" lon="4.77488">
        <ele>196</ele>
        <time>2018-07-05T10:18:06Z</time>
      </trkpt>
      <trkpt lat="45.95951" lon="4.77482">
        <ele>196</ele>
        <time>2018-07-05T10:18:07Z</time>
      </trkpt>
      <trkpt lat="45.95947" lon="4.77475">
        <ele>195</ele>
        <time>2018-07-05T10:18:08Z</time>
      </trkpt>
      <trkpt lat="45.95945" lon="4.77466">
        <ele>196</ele>
        <time>2018-07-05T10:18:09Z</time>
      </trkpt>
      <trkpt lat="45.95941" lon="4.77458">
        <ele>196</ele>
        <time>2018-07-05T10:18:10Z</time>
      </trkpt>
      <trkpt lat="45.95938" lon="4.7745">
        <ele>195</ele>
        <time>2018-07-05T10:18:11Z</time>
      </trkpt>
      <trkpt lat="45.95935" lon="4.77443">
        <ele>195</ele>
        <time>2018-07-05T10:18:12Z</time>
      </trkpt>
      <trkpt lat="45.95934" lon="4.77435">
        <ele>195</ele>
        <time>2018-07-05T10:18:13Z</time>
      </trkpt>
      <trkpt lat="45.95932" lon="4.77428">
        <ele>195</ele>
        <time>2018-07-05T10:18:14Z</time>
      </trkpt>
      <trkpt lat="45.9593" lon="4.7742">
        <ele>195</ele>
        <time>2018-07-05T10:18:15Z</time>
      </trkpt>
      <trkpt lat="45.95928" lon="4.77413">
        <ele>195</ele>
        <time>2018-07-05T10:18:16Z</time>
      </trkpt>
      <trkpt lat="45.95925" lon="4.77405">
        <ele>195</ele>
        <time>2018-07-05T10:18:17Z</time>
      </trkpt>
      <trkpt lat="45.95922" lon="4.774">
        <ele>196</ele>
        <time>2018-07-05T10:18:18Z</time>
      </trkpt>
      <trkpt lat="45.9592" lon="4.77392">
        <ele>196</ele>
        <time>2018-07-05T10:18:19Z</time>
      </trkpt>
      <trkpt lat="45.95918" lon="4.77385">
        <ele>196</ele>
        <time>2018-07-05T10:18:20Z</time>
      </trkpt>
      <trkpt lat="45.95915" lon="4.77378">
        <ele>193</ele>
        <time>2018-07-05T10:18:21Z</time>
      </trkpt>
      <trkpt lat="45.95913" lon="4.7737">
        <ele>193</ele>
        <time>2018-07-05T10:18:22Z</time>
      </trkpt>
      <trkpt lat="45.95908" lon="4.77363">
        <ele>193</ele>
        <time>2018-07-05T10:18:23Z</time>
      </trkpt>
      <trkpt lat="45.95905" lon="4.77354">
        <ele>193</ele>
        <time>2018-07-05T10:18:24Z</time>
      </trkpt>
      <trkpt lat="45.959" lon="4.77345">
        <ele>193</ele>
        <time>2018-07-05T10:18:25Z</time>
      </trkpt>
      <trkpt lat="45.95898" lon="4.77337">
        <ele>193</ele>
        <time>2018-07-05T10:18:26Z</time>
      </trkpt>
      <trkpt lat="45.95896" lon="4.77329">
        <ele>193</ele>
        <time>2018-07-05T10:18:27Z</time>
      </trkpt>
      <trkpt lat="45.95891" lon="4.7732">
        <ele>193</ele>
        <time>2018-07-05T10:18:28Z</time>
      </trkpt>
      <trkpt lat="45.95889" lon="4.77311">
        <ele>193</ele>
        <time>2018-07-05T10:18:29Z</time>
      </trkpt>
      <trkpt lat="45.95886" lon="4.77303">
        <ele>193</ele>
        <time>2018-07-05T10:18:30Z</time>
      </trkpt>
      <trkpt lat="45.95883" lon="4.77295">
        <ele>193</ele>
        <time>2018-07-05T10:18:31Z</time>
      </trkpt>
      <trkpt lat="45.95883" lon="4.77288">
        <ele>193</ele>
        <time>2018-07-05T10:18:32Z</time>
      </trkpt>
      <trkpt lat="45.95881" lon="4.7728">
        <ele>193</ele>
        <time>2018-07-05T10:18:33Z</time>
      </trkpt>
      <trkpt lat="45.95881" lon="4.77272">
        <ele>193</ele>
        <time>2018-07-05T10:18:34Z</time>
      </trkpt>
      <trkpt lat="45.9588" lon="4.77264">
        <ele>193</ele>
        <time>2018-07-05T10:18:35Z</time>
      </trkpt>
      <trkpt lat="45.95878" lon="4.77256">
        <ele>193</ele>
        <time>2018-07-05T10:18:36Z</time>
      </trkpt>
      <trkpt lat="45.95876" lon="4.77247">
        <ele>193</ele>
        <time>2018-07-05T10:18:37Z</time>
      </trkpt>
      <trkpt lat="45.95875" lon="4.77238">
        <ele>193</ele>
        <time>2018-07-05T10:18:38Z</time>
      </trkpt>
      <trkpt lat="45.95873" lon="4.77229">
        <ele>193</ele>
        <time>2018-07-05T10:18:39Z</time>
      </trkpt>
      <trkpt lat="45.95872" lon="4.77222">
        <ele>193</ele>
        <time>2018-07-05T10:18:40Z</time>
      </trkpt>
      <trkpt lat="45.9587" lon="4.77213">
        <ele>193</ele>
        <time>2018-07-05T10:18:41Z</time>
      </trkpt>
      <trkpt lat="45.95868" lon="4.77205">
        <ele>193</ele>
        <time>2018-07-05T10:18:42Z</time>
      </trkpt>
      <trkpt lat="45.95868" lon="4.77197">
        <ele>193</ele>
        <time>2018-07-05T10:18:43Z</time>
      </trkpt>
      <trkpt lat="45.95865" lon="4.77189">
        <ele>193</ele>
        <time>2018-07-05T10:18:44Z</time>
      </trkpt>
      <trkpt lat="45.95864" lon="4.77182">
        <ele>192</ele>
        <time>2018-07-05T10:18:45Z</time>
      </trkpt>
      <trkpt lat="45.95861" lon="4.77173">
        <ele>192</ele>
        <time>2018-07-05T10:18:46Z</time>
      </trkpt>
      <trkpt lat="45.95858" lon="4.77163">
        <ele>192</ele>
        <time>2018-07-05T10:18:47Z</time>
      </trkpt>
      <trkpt lat="45.95856" lon="4.77155">
        <ele>193</ele>
        <time>2018-07-05T10:18:48Z</time>
      </trkpt>
      <trkpt lat="45.95852" lon="4.77146">
        <ele>193</ele>
        <time>2018-07-05T10:18:49Z</time>
      </trkpt>
      <trkpt lat="45.9585" lon="4.77137">
        <ele>193</ele>
        <time>2018-07-05T10:18:50Z</time>
      </trkpt>
      <trkpt lat="45.95847" lon="4.77129">
        <ele>193</ele>
        <time>2018-07-05T10:18:51Z</time>
      </trkpt>
      <trkpt lat="45.95845" lon="4.77121">
        <ele>193</ele>
        <time>2018-07-05T10:18:52Z</time>
      </trkpt>
      <trkpt lat="45.95841" lon="4.77111">
        <ele>193</ele>
        <time>2018-07-05T10:18:53Z</time>
      </trkpt>
      <trkpt lat="45.95839" lon="4.77102">
        <ele>193</ele>
        <time>2018-07-05T10:18:54Z</time>
      </trkpt>
      <trkpt lat="45.95837" lon="4.77094">
        <ele>193</ele>
        <time>2018-07-05T10:18:55Z</time>
      </trkpt>
      <trkpt lat="45.95834" lon="4.77086">
        <ele>192</ele>
        <time>2018-07-05T10:18:56Z</time>
      </trkpt>
      <trkpt lat="45.95831" lon="4.77079">
        <ele>192</ele>
        <time>2018-07-05T10:18:57Z</time>
      </trkpt>
      <trkpt lat="45.95829" lon="4.77071">
        <ele>191</ele>
        <time>2018-07-05T10:18:58Z</time>
      </trkpt>
      <trkpt lat="45.95826" lon="4.77063">
        <ele>191</ele>
        <time>2018-07-05T10:18:59Z</time>
      </trkpt>
      <trkpt lat="45.95824" lon="4.77056">
        <ele>190</ele>
        <time>2018-07-05T10:19:00Z</time>
      </trkpt>
      <trkpt lat="45.95821" lon="4.77049">
        <ele>190</ele>
        <time>2018-07-05T10:19:01Z</time>
      </trkpt>
      <trkpt lat="45.95818" lon="4.77042">
        <ele>190</ele>
        <time>2018-07-05T10:19:02Z</time>
      </trkpt>
      <trkpt lat="45.95814" lon="4.77036">
        <ele>190</ele>
        <time>2018-07-05T10:19:03Z</time>
      </trkpt>
      <trkpt lat="45.9581" lon="4.77027">
        <ele>190</ele>
        <time>2018-07-05T10:19:04Z</time>
      </trkpt>
      <trkpt lat="45.95807" lon="4.77018">
        <ele>190</ele>
        <time>2018-07-05T10:19:05Z</time>
      </trkpt>
      <trkpt lat="45.95805" lon="4.7701">
        <ele>190</ele>
        <time>2018-07-05T10:19:06Z</time>
      </trkpt>
      <trkpt lat="45.95802" lon="4.77003">
        <ele>190</ele>
        <time>2018-07-05T10:19:07Z</time>
      </trkpt>
      <trkpt lat="45.95803" lon="4.76994">
        <ele>189</ele>
        <time>2018-07-05T10:19:08Z</time>
      </trkpt>
      <trkpt lat="45.95804" lon="4.76987">
        <ele>189</ele>
        <time>2018-07-05T10:19:09Z</time>
      </trkpt>
      <trkpt lat="45.95805" lon="4.76979">
        <ele>189</ele>
        <time>2018-07-05T10:19:10Z</time>
      </trkpt>
      <trkpt lat="45.95806" lon="4.76972">
        <ele>189</ele>
        <time>2018-07-05T10:19:11Z</time>
      </trkpt>
      <trkpt lat="45.95802" lon="4.76964">
        <ele>189</ele>
        <time>2018-07-05T10:19:12Z</time>
      </trkpt>
      <trkpt lat="45.95803" lon="4.76957">
        <ele>189</ele>
        <time>2018-07-05T10:19:13Z</time>
      </trkpt>
      <trkpt lat="45.95804" lon="4.76947">
        <ele>189</ele>
        <time>2018-07-05T10:19:14Z</time>
      </trkpt>
      <trkpt lat="45.95806" lon="4.76939">
        <ele>189</ele>
        <time>2018-07-05T10:19:15Z</time>
      </trkpt>
      <trkpt lat="45.95808" lon="4.76931">
        <ele>189</ele>
        <time>2018-07-05T10:19:16Z</time>
      </trkpt>
      <trkpt lat="45.95809" lon="4.76921">
        <ele>189</ele>
        <time>2018-07-05T10:19:17Z</time>
      </trkpt>
      <trkpt lat="45.9581" lon="4.76911">
        <ele>189</ele>
        <time>2018-07-05T10:19:18Z</time>
      </trkpt>
      <trkpt lat="45.95813" lon="4.76901">
        <ele>189</ele>
        <time>2018-07-05T10:19:19Z</time>
      </trkpt>
      <trkpt lat="45.95814" lon="4.76892">
        <ele>189</ele>
        <time>2018-07-05T10:19:20Z</time>
      </trkpt>
      <trkpt lat="45.95815" lon="4.76884">
        <ele>189</ele>
        <time>2018-07-05T10:19:21Z</time>
      </trkpt>
      <trkpt lat="45.95817" lon="4.76878">
        <ele>189</ele>
        <time>2018-07-05T10:19:22Z</time>
      </trkpt>
      <trkpt lat="45.95818" lon="4.76871">
        <ele>189</ele>
        <time>2018-07-05T10:19:23Z</time>
      </trkpt>
      <trkpt lat="45.95819" lon="4.76864">
        <ele>189</ele>
        <time>2018-07-05T10:19:24Z</time>
      </trkpt>
      <trkpt lat="45.95822" lon="4.76859">
        <ele>189</ele>
        <time>2018-07-05T10:19:25Z</time>
      </trkpt>
      <trkpt lat="45.95824" lon="4.76852">
        <ele>190</ele>
        <time>2018-07-05T10:19:26Z</time>
      </trkpt>
      <trkpt lat="45.95825" lon="4.76844">
        <ele>190</ele>
        <time>2018-07-05T10:19:27Z</time>
      </trkpt>
      <trkpt lat="45.95828" lon="4.76838">
        <ele>190</ele>
        <time>2018-07-05T10:19:28Z</time>
      </trkpt>
      <trkpt lat="45.9583" lon="4.76826">
        <ele>190</ele>
        <time>2018-07-05T10:19:30Z</time>
      </trkpt>
      <trkpt lat="45.95832" lon="4.7682">
        <ele>190</ele>
        <time>2018-07-05T10:19:31Z</time>
      </trkpt>
      <trkpt lat="45.95831" lon="4.76808">
        <ele>190</ele>
        <time>2018-07-05T10:19:33Z</time>
      </trkpt>
      <trkpt lat="45.95831" lon="4.76806">
        <ele>190</ele>
        <time>2018-07-05T10:19:34Z</time>
      </trkpt>
      <trkpt lat="45.95831" lon="4.76793">
        <ele>190</ele>
        <time>2018-07-05T10:19:38Z</time>
      </trkpt>
      <trkpt lat="45.95831" lon="4.7679">
        <ele>190</ele>
        <time>2018-07-05T10:19:39Z</time>
      </trkpt>
      <trkpt lat="45.95831" lon="4.76785">
        <ele>190</ele>
        <time>2018-07-05T10:19:40Z</time>
      </trkpt>
      <trkpt lat="45.95831" lon="4.76773">
        <ele>190</ele>
        <time>2018-07-05T10:19:41Z</time>
      </trkpt>
      <trkpt lat="45.95828" lon="4.76762">
        <ele>190</ele>
        <time>2018-07-05T10:19:43Z</time>
      </trkpt>
      <trkpt lat="45.95826" lon="4.76755">
        <ele>191</ele>
        <time>2018-07-05T10:19:44Z</time>
      </trkpt>
      <trkpt lat="45.95824" lon="4.76749">
        <ele>190</ele>
        <time>2018-07-05T10:19:45Z</time>
      </trkpt>
      <trkpt lat="45.95823" lon="4.7674">
        <ele>190</ele>
        <time>2018-07-05T10:19:46Z</time>
      </trkpt>
      <trkpt lat="45.95822" lon="4.76732">
        <ele>190</ele>
        <time>2018-07-05T10:19:47Z</time>
      </trkpt>
      <trkpt lat="45.95821" lon="4.76724">
        <ele>190</ele>
        <time>2018-07-05T10:19:48Z</time>
      </trkpt>
      <trkpt lat="45.95819" lon="4.76714">
        <ele>189</ele>
        <time>2018-07-05T10:19:49Z</time>
      </trkpt>
      <trkpt lat="45.95818" lon="4.76706">
        <ele>189</ele>
        <time>2018-07-05T10:19:50Z</time>
      </trkpt>
      <trkpt lat="45.95817" lon="4.76696">
        <ele>189</ele>
        <time>2018-07-05T10:19:51Z</time>
      </trkpt>
      <trkpt lat="45.95816" lon="4.76688">
        <ele>189</ele>
        <time>2018-07-05T10:19:52Z</time>
      </trkpt>
      <trkpt lat="45.95814" lon="4.76679">
        <ele>189</ele>
        <time>2018-07-05T10:19:53Z</time>
      </trkpt>
      <trkpt lat="45.95813" lon="4.7667">
        <ele>189</ele>
        <time>2018-07-05T10:19:54Z</time>
      </trkpt>
      <trkpt lat="45.95812" lon="4.76662">
        <ele>188</ele>
        <time>2018-07-05T10:19:55Z</time>
      </trkpt>
      <trkpt lat="45.9581" lon="4.76652">
        <ele>188</ele>
        <time>2018-07-05T10:19:56Z</time>
      </trkpt>
      <trkpt lat="45.95809" lon="4.76643">
        <ele>188</ele>
        <time>2018-07-05T10:19:57Z</time>
      </trkpt>
      <trkpt lat="45.95808" lon="4.76633">
        <ele>188</ele>
        <time>2018-07-05T10:19:58Z</time>
      </trkpt>
      <trkpt lat="45.95807" lon="4.76624">
        <ele>188</ele>
        <time>2018-07-05T10:19:59Z</time>
      </trkpt>
      <trkpt lat="45.95806" lon="4.76617">
        <ele>188</ele>
        <time>2018-07-05T10:20:00Z</time>
      </trkpt>
      <trkpt lat="45.95805" lon="4.76609">
        <ele>188</ele>
        <time>2018-07-05T10:20:01Z</time>
      </trkpt>
      <trkpt lat="45.95804" lon="4.76601">
        <ele>188</ele>
        <time>2018-07-05T10:20:02Z</time>
      </trkpt>
      <trkpt lat="45.95804" lon="4.76594">
        <ele>188</ele>
        <time>2018-07-05T10:20:03Z</time>
      </trkpt>
      <trkpt lat="45.95803" lon="4.76587">
        <ele>187</ele>
        <time>2018-07-05T10:20:04Z</time>
      </trkpt>
      <trkpt lat="45.958" lon="4.76577">
        <ele>187</ele>
        <time>2018-07-05T10:20:05Z</time>
      </trkpt>
      <trkpt lat="45.958" lon="4.76569">
        <ele>187</ele>
        <time>2018-07-05T10:20:06Z</time>
      </trkpt>
      <trkpt lat="45.95797" lon="4.76558">
        <ele>187</ele>
        <time>2018-07-05T10:20:07Z</time>
      </trkpt>
      <trkpt lat="45.95796" lon="4.76551">
        <ele>187</ele>
        <time>2018-07-05T10:20:08Z</time>
      </trkpt>
      <trkpt lat="45.95793" lon="4.76544">
        <ele>187</ele>
        <time>2018-07-05T10:20:09Z</time>
      </trkpt>
      <trkpt lat="45.95792" lon="4.76535">
        <ele>187</ele>
        <time>2018-07-05T10:20:10Z</time>
      </trkpt>
      <trkpt lat="45.9579" lon="4.76526">
        <ele>187</ele>
        <time>2018-07-05T10:20:11Z</time>
      </trkpt>
      <trkpt lat="45.95789" lon="4.76518">
        <ele>187</ele>
        <time>2018-07-05T10:20:12Z</time>
      </trkpt>
      <trkpt lat="45.95788" lon="4.7651">
        <ele>187</ele>
        <time>2018-07-05T10:20:13Z</time>
      </trkpt>
      <trkpt lat="45.95787" lon="4.76502">
        <ele>187</ele>
        <time>2018-07-05T10:20:14Z</time>
      </trkpt>
      <trkpt lat="45.95784" lon="4.76495">
        <ele>186</ele>
        <time>2018-07-05T10:20:15Z</time>
      </trkpt>
      <trkpt lat="45.95783" lon="4.76487">
        <ele>186</ele>
        <time>2018-07-05T10:20:16Z</time>
      </trkpt>
      <trkpt lat="45.95779" lon="4.76479">
        <ele>186</ele>
        <time>2018-07-05T10:20:17Z</time>
      </trkpt>
      <trkpt lat="45.95777" lon="4.76471">
        <ele>186</ele>
        <time>2018-07-05T10:20:18Z</time>
      </trkpt>
      <trkpt lat="45.95776" lon="4.76463">
        <ele>186</ele>
        <time>2018-07-05T10:20:19Z</time>
      </trkpt>
      <trkpt lat="45.95776" lon="4.76455">
        <ele>186</ele>
        <time>2018-07-05T10:20:20Z</time>
      </trkpt>
      <trkpt lat="45.95774" lon="4.76447">
        <ele>186</ele>
        <time>2018-07-05T10:20:21Z</time>
      </trkpt>
      <trkpt lat="45.95773" lon="4.76439">
        <ele>186</ele>
        <time>2018-07-05T10:20:22Z</time>
      </trkpt>
      <trkpt lat="45.95772" lon="4.76429">
        <ele>186</ele>
        <time>2018-07-05T10:20:23Z</time>
      </trkpt>
      <trkpt lat="45.95771" lon="4.7642">
        <ele>186</ele>
        <time>2018-07-05T10:20:24Z</time>
      </trkpt>
      <trkpt lat="45.9577" lon="4.76412">
        <ele>186</ele>
        <time>2018-07-05T10:20:25Z</time>
      </trkpt>
      <trkpt lat="45.95769" lon="4.76402">
        <ele>186</ele>
        <time>2018-07-05T10:20:26Z</time>
      </trkpt>
      <trkpt lat="45.95769" lon="4.76393">
        <ele>186</ele>
        <time>2018-07-05T10:20:27Z</time>
      </trkpt>
      <trkpt lat="45.95769" lon="4.76384">
        <ele>186</ele>
        <time>2018-07-05T10:20:28Z</time>
      </trkpt>
      <trkpt lat="45.9577" lon="4.76376">
        <ele>186</ele>
        <time>2018-07-05T10:20:29Z</time>
      </trkpt>
      <trkpt lat="45.9577" lon="4.76367">
        <ele>186</ele>
        <time>2018-07-05T10:20:30Z</time>
      </trkpt>
      <trkpt lat="45.95771" lon="4.7636">
        <ele>186</ele>
        <time>2018-07-05T10:20:31Z</time>
      </trkpt>
      <trkpt lat="45.9577" lon="4.76352">
        <ele>186</ele>
        <time>2018-07-05T10:20:32Z</time>
      </trkpt>
      <trkpt lat="45.95771" lon="4.76343">
        <ele>186</ele>
        <time>2018-07-05T10:20:33Z</time>
      </trkpt>
      <trkpt lat="45.9577" lon="4.76335">
        <ele>186</ele>
        <time>2018-07-05T10:20:34Z</time>
      </trkpt>
      <trkpt lat="45.9577" lon="4.76327">
        <ele>185</ele>
        <time>2018-07-05T10:20:35Z</time>
      </trkpt>
      <trkpt lat="45.95769" lon="4.76318">
        <ele>185</ele>
        <time>2018-07-05T10:20:36Z</time>
      </trkpt>
      <trkpt lat="45.95769" lon="4.7631">
        <ele>185</ele>
        <time>2018-07-05T10:20:37Z</time>
      </trkpt>
      <trkpt lat="45.95769" lon="4.76301">
        <ele>186</ele>
        <time>2018-07-05T10:20:38Z</time>
      </trkpt>
      <trkpt lat="45.95769" lon="4.76292">
        <ele>186</ele>
        <time>2018-07-05T10:20:39Z</time>
      </trkpt>
      <trkpt lat="45.95769" lon="4.76283">
        <ele>186</ele>
        <time>2018-07-05T10:20:40Z</time>
      </trkpt>
      <trkpt lat="45.95768" lon="4.76273">
        <ele>186</ele>
        <time>2018-07-05T10:20:41Z</time>
      </trkpt>
      <trkpt lat="45.95768" lon="4.76264">
        <ele>185</ele>
        <time>2018-07-05T10:20:42Z</time>
      </trkpt>
      <trkpt lat="45.95767" lon="4.76255">
        <ele>185</ele>
        <time>2018-07-05T10:20:43Z</time>
      </trkpt>
      <trkpt lat="45.95768" lon="4.76246">
        <ele>186</ele>
        <time>2018-07-05T10:20:44Z</time>
      </trkpt>
      <trkpt lat="45.95767" lon="4.76238">
        <ele>186</ele>
        <time>2018-07-05T10:20:45Z</time>
      </trkpt>
      <trkpt lat="45.95767" lon="4.7623">
        <ele>186</ele>
        <time>2018-07-05T10:20:46Z</time>
      </trkpt>
      <trkpt lat="45.95767" lon="4.76222">
        <ele>186</ele>
        <time>2018-07-05T10:20:47Z</time>
      </trkpt>
      <trkpt lat="45.95766" lon="4.76214">
        <ele>186</ele>
        <time>2018-07-05T10:20:48Z</time>
      </trkpt>
      <trkpt lat="45.95766" lon="4.76207">
        <ele>186</ele>
        <time>2018-07-05T10:20:49Z</time>
      </trkpt>
      <trkpt lat="45.95766" lon="4.762">
        <ele>186</ele>
        <time>2018-07-05T10:20:50Z</time>
      </trkpt>
      <trkpt lat="45.95763" lon="4.76192">
        <ele>186</ele>
        <time>2018-07-05T10:20:51Z</time>
      </trkpt>
      <trkpt lat="45.95762" lon="4.76185">
        <ele>186</ele>
        <time>2018-07-05T10:20:52Z</time>
      </trkpt>
      <trkpt lat="45.95764" lon="4.76179">
        <ele>186</ele>
        <time>2018-07-05T10:20:53Z</time>
      </trkpt>
      <trkpt lat="45.95764" lon="4.76172">
        <ele>185</ele>
        <time>2018-07-05T10:20:54Z</time>
      </trkpt>
      <trkpt lat="45.95763" lon="4.76163">
        <ele>186</ele>
        <time>2018-07-05T10:20:55Z</time>
      </trkpt>
      <trkpt lat="45.95763" lon="4.76155">
        <ele>186</ele>
        <time>2018-07-05T10:20:56Z</time>
      </trkpt>
      <trkpt lat="45.95762" lon="4.76147">
        <ele>186</ele>
        <time>2018-07-05T10:20:57Z</time>
      </trkpt>
      <trkpt lat="45.95763" lon="4.7614">
        <ele>186</ele>
        <time>2018-07-05T10:20:58Z</time>
      </trkpt>
      <trkpt lat="45.95763" lon="4.76133">
        <ele>186</ele>
        <time>2018-07-05T10:20:59Z</time>
      </trkpt>
      <trkpt lat="45.95761" lon="4.76125">
        <ele>186</ele>
        <time>2018-07-05T10:21:00Z</time>
      </trkpt>
      <trkpt lat="45.95761" lon="4.76118">
        <ele>186</ele>
        <time>2018-07-05T10:21:01Z</time>
      </trkpt>
      <trkpt lat="45.9576" lon="4.76109">
        <ele>186</ele>
        <time>2018-07-05T10:21:02Z</time>
      </trkpt>
      <trkpt lat="45.95757" lon="4.761">
        <ele>186</ele>
        <time>2018-07-05T10:21:03Z</time>
      </trkpt>
      <trkpt lat="45.95755" lon="4.76092">
        <ele>186</ele>
        <time>2018-07-05T10:21:04Z</time>
      </trkpt>
      <trkpt lat="45.95752" lon="4.76084">
        <ele>185</ele>
        <time>2018-07-05T10:21:05Z</time>
      </trkpt>
      <trkpt lat="45.9575" lon="4.76076">
        <ele>185</ele>
        <time>2018-07-05T10:21:06Z</time>
      </trkpt>
      <trkpt lat="45.95747" lon="4.76069">
        <ele>185</ele>
        <time>2018-07-05T10:21:07Z</time>
      </trkpt>
      <trkpt lat="45.95743" lon="4.76062">
        <ele>184</ele>
        <time>2018-07-05T10:21:08Z</time>
      </trkpt>
      <trkpt lat="45.95741" lon="4.76055">
        <ele>184</ele>
        <time>2018-07-05T10:21:09Z</time>
      </trkpt>
      <trkpt lat="45.95739" lon="4.76049">
        <ele>184</ele>
        <time>2018-07-05T10:21:10Z</time>
      </trkpt>
      <trkpt lat="45.95735" lon="4.76041">
        <ele>184</ele>
        <time>2018-07-05T10:21:11Z</time>
      </trkpt>
      <trkpt lat="45.95732" lon="4.76033">
        <ele>184</ele>
        <time>2018-07-05T10:21:12Z</time>
      </trkpt>
      <trkpt lat="45.95729" lon="4.76027">
        <ele>185</ele>
        <time>2018-07-05T10:21:13Z</time>
      </trkpt>
      <trkpt lat="45.95727" lon="4.76019">
        <ele>185</ele>
        <time>2018-07-05T10:21:14Z</time>
      </trkpt>
      <trkpt lat="45.95723" lon="4.76013">
        <ele>185</ele>
        <time>2018-07-05T10:21:15Z</time>
      </trkpt>
      <trkpt lat="45.95719" lon="4.76006">
        <ele>184</ele>
        <time>2018-07-05T10:21:16Z</time>
      </trkpt>
      <trkpt lat="45.95716" lon="4.75999">
        <ele>185</ele>
        <time>2018-07-05T10:21:17Z</time>
      </trkpt>
      <trkpt lat="45.95713" lon="4.75993">
        <ele>185</ele>
        <time>2018-07-05T10:21:18Z</time>
      </trkpt>
      <trkpt lat="45.9571" lon="4.75986">
        <ele>185</ele>
        <time>2018-07-05T10:21:19Z</time>
      </trkpt>
      <trkpt lat="45.95707" lon="4.75979">
        <ele>185</ele>
        <time>2018-07-05T10:21:20Z</time>
      </trkpt>
      <trkpt lat="45.95705" lon="4.75973">
        <ele>185</ele>
        <time>2018-07-05T10:21:21Z</time>
      </trkpt>
      <trkpt lat="45.95702" lon="4.75965">
        <ele>185</ele>
        <time>2018-07-05T10:21:22Z</time>
      </trkpt>
      <trkpt lat="45.95694" lon="4.75958">
        <ele>185</ele>
        <time>2018-07-05T10:21:23Z</time>
      </trkpt>
      <trkpt lat="45.95692" lon="4.75952">
        <ele>185</ele>
        <time>2018-07-05T10:21:24Z</time>
      </trkpt>
      <trkpt lat="45.95688" lon="4.75943">
        <ele>185</ele>
        <time>2018-07-05T10:21:25Z</time>
      </trkpt>
      <trkpt lat="45.95685" lon="4.75937">
        <ele>185</ele>
        <time>2018-07-05T10:21:26Z</time>
      </trkpt>
      <trkpt lat="45.95682" lon="4.75928">
        <ele>185</ele>
        <time>2018-07-05T10:21:27Z</time>
      </trkpt>
      <trkpt lat="45.95678" lon="4.75919">
        <ele>184</ele>
        <time>2018-07-05T10:21:28Z</time>
      </trkpt>
      <trkpt lat="45.95674" lon="4.75911">
        <ele>185</ele>
        <time>2018-07-05T10:21:29Z</time>
      </trkpt>
      <trkpt lat="45.95671" lon="4.75902">
        <ele>185</ele>
        <time>2018-07-05T10:21:30Z</time>
      </trkpt>
      <trkpt lat="45.95669" lon="4.75895">
        <ele>186</ele>
        <time>2018-07-05T10:21:31Z</time>
      </trkpt>
      <trkpt lat="45.95666" lon="4.75886">
        <ele>184</ele>
        <time>2018-07-05T10:21:32Z</time>
      </trkpt>
      <trkpt lat="45.95663" lon="4.75877">
        <ele>184</ele>
        <time>2018-07-05T10:21:33Z</time>
      </trkpt>
      <trkpt lat="45.95661" lon="4.75869">
        <ele>184</ele>
        <time>2018-07-05T10:21:34Z</time>
      </trkpt>
      <trkpt lat="45.95658" lon="4.7586">
        <ele>184</ele>
        <time>2018-07-05T10:21:35Z</time>
      </trkpt>
      <trkpt lat="45.95655" lon="4.75851">
        <ele>185</ele>
        <time>2018-07-05T10:21:36Z</time>
      </trkpt>
      <trkpt lat="45.95652" lon="4.75843">
        <ele>185</ele>
        <time>2018-07-05T10:21:37Z</time>
      </trkpt>
      <trkpt lat="45.9565" lon="4.75835">
        <ele>185</ele>
        <time>2018-07-05T10:21:38Z</time>
      </trkpt>
      <trkpt lat="45.95648" lon="4.75826">
        <ele>185</ele>
        <time>2018-07-05T10:21:39Z</time>
      </trkpt>
      <trkpt lat="45.95647" lon="4.75818">
        <ele>185</ele>
        <time>2018-07-05T10:21:40Z</time>
      </trkpt>
      <trkpt lat="45.95645" lon="4.7581">
        <ele>185</ele>
        <time>2018-07-05T10:21:41Z</time>
      </trkpt>
      <trkpt lat="45.95645" lon="4.75804">
        <ele>185</ele>
        <time>2018-07-05T10:21:42Z</time>
      </trkpt>
      <trkpt lat="45.95644" lon="4.75797">
        <ele>185</ele>
        <time>2018-07-05T10:21:43Z</time>
      </trkpt>
      <trkpt lat="45.95642" lon="4.75789">
        <ele>185</ele>
        <time>2018-07-05T10:21:44Z</time>
      </trkpt>
      <trkpt lat="45.9564" lon="4.75781">
        <ele>186</ele>
        <time>2018-07-05T10:21:45Z</time>
      </trkpt>
      <trkpt lat="45.95639" lon="4.75773">
        <ele>186</ele>
        <time>2018-07-05T10:21:46Z</time>
      </trkpt>
      <trkpt lat="45.95637" lon="4.75764">
        <ele>186</ele>
        <time>2018-07-05T10:21:47Z</time>
      </trkpt>
      <trkpt lat="45.95637" lon="4.75755">
        <ele>186</ele>
        <time>2018-07-05T10:21:48Z</time>
      </trkpt>
      <trkpt lat="45.95635" lon="4.75748">
        <ele>187</ele>
        <time>2018-07-05T10:21:49Z</time>
      </trkpt>
      <trkpt lat="45.95635" lon="4.7574">
        <ele>187</ele>
        <time>2018-07-05T10:21:50Z</time>
      </trkpt>
      <trkpt lat="45.95634" lon="4.75733">
        <ele>187</ele>
        <time>2018-07-05T10:21:51Z</time>
      </trkpt>
      <trkpt lat="45.95632" lon="4.75724">
        <ele>187</ele>
        <time>2018-07-05T10:21:52Z</time>
      </trkpt>
      <trkpt lat="45.95628" lon="4.75715">
        <ele>187</ele>
        <time>2018-07-05T10:21:53Z</time>
      </trkpt>
      <trkpt lat="45.95625" lon="4.75706">
        <ele>187</ele>
        <time>2018-07-05T10:21:54Z</time>
      </trkpt>
      <trkpt lat="45.95623" lon="4.75697">
        <ele>187</ele>
        <time>2018-07-05T10:21:55Z</time>
      </trkpt>
      <trkpt lat="45.95621" lon="4.75689">
        <ele>187</ele>
        <time>2018-07-05T10:21:56Z</time>
      </trkpt>
      <trkpt lat="45.95621" lon="4.75681">
        <ele>187</ele>
        <time>2018-07-05T10:21:57Z</time>
      </trkpt>
      <trkpt lat="45.95619" lon="4.75673">
        <ele>187</ele>
        <time>2018-07-05T10:21:58Z</time>
      </trkpt>
      <trkpt lat="45.9562" lon="4.75667">
        <ele>187</ele>
        <time>2018-07-05T10:21:59Z</time>
      </trkpt>
      <trkpt lat="45.95617" lon="4.7566">
        <ele>188</ele>
        <time>2018-07-05T10:22:00Z</time>
      </trkpt>
      <trkpt lat="45.95615" lon="4.75653">
        <ele>188</ele>
        <time>2018-07-05T10:22:01Z</time>
      </trkpt>
      <trkpt lat="45.95613" lon="4.75645">
        <ele>188</ele>
        <time>2018-07-05T10:22:02Z</time>
      </trkpt>
      <trkpt lat="45.95613" lon="4.75639">
        <ele>188</ele>
        <time>2018-07-05T10:22:03Z</time>
      </trkpt>
      <trkpt lat="45.95613" lon="4.75633">
        <ele>188</ele>
        <time>2018-07-05T10:22:04Z</time>
      </trkpt>
      <trkpt lat="45.95611" lon="4.75626">
        <ele>188</ele>
        <time>2018-07-05T10:22:05Z</time>
      </trkpt>
      <trkpt lat="45.95609" lon="4.75618">
        <ele>188</ele>
        <time>2018-07-05T10:22:06Z</time>
      </trkpt>
      <trkpt lat="45.95606" lon="4.75612">
        <ele>188</ele>
        <time>2018-07-05T10:22:07Z</time>
      </trkpt>
      <trkpt lat="45.95603" lon="4.75604">
        <ele>187</ele>
        <time>2018-07-05T10:22:08Z</time>
      </trkpt>
      <trkpt lat="45.95599" lon="4.75597">
        <ele>187</ele>
        <time>2018-07-05T10:22:09Z</time>
      </trkpt>
      <trkpt lat="45.95598" lon="4.7559">
        <ele>187</ele>
        <time>2018-07-05T10:22:10Z</time>
      </trkpt>
      <trkpt lat="45.95594" lon="4.75583">
        <ele>187</ele>
        <time>2018-07-05T10:22:11Z</time>
      </trkpt>
      <trkpt lat="45.95594" lon="4.75576">
        <ele>187</ele>
        <time>2018-07-05T10:22:12Z</time>
      </trkpt>
      <trkpt lat="45.95588" lon="4.7557">
        <ele>188</ele>
        <time>2018-07-05T10:22:13Z</time>
      </trkpt>
      <trkpt lat="45.95587" lon="4.75564">
        <ele>188</ele>
        <time>2018-07-05T10:22:14Z</time>
      </trkpt>
      <trkpt lat="45.95584" lon="4.75559">
        <ele>188</ele>
        <time>2018-07-05T10:22:15Z</time>
      </trkpt>
      <trkpt lat="45.95581" lon="4.75554">
        <ele>186</ele>
        <time>2018-07-05T10:22:16Z</time>
      </trkpt>
      <trkpt lat="45.95577" lon="4.75549">
        <ele>186</ele>
        <time>2018-07-05T10:22:17Z</time>
      </trkpt>
      <trkpt lat="45.95573" lon="4.75545">
        <ele>186</ele>
        <time>2018-07-05T10:22:18Z</time>
      </trkpt>
      <trkpt lat="45.95569" lon="4.7554">
        <ele>186</ele>
        <time>2018-07-05T10:22:19Z</time>
      </trkpt>
      <trkpt lat="45.95565" lon="4.75535">
        <ele>186</ele>
        <time>2018-07-05T10:22:20Z</time>
      </trkpt>
      <trkpt lat="45.95561" lon="4.7553">
        <ele>186</ele>
        <time>2018-07-05T10:22:21Z</time>
      </trkpt>
      <trkpt lat="45.95554" lon="4.75523">
        <ele>186</ele>
        <time>2018-07-05T10:22:23Z</time>
      </trkpt>
      <trkpt lat="45.9555" lon="4.75519">
        <ele>186</ele>
        <time>2018-07-05T10:22:24Z</time>
      </trkpt>
      <trkpt lat="45.95544" lon="4.7551">
        <ele>186</ele>
        <time>2018-07-05T10:22:26Z</time>
      </trkpt>
      <trkpt lat="45.95541" lon="4.75506">
        <ele>186</ele>
        <time>2018-07-05T10:22:27Z</time>
      </trkpt>
      <trkpt lat="45.95538" lon="4.75494">
        <ele>187</ele>
        <time>2018-07-05T10:22:29Z</time>
      </trkpt>
      <trkpt lat="45.95537" lon="4.75489">
        <ele>187</ele>
        <time>2018-07-05T10:22:30Z</time>
      </trkpt>
      <trkpt lat="45.95539" lon="4.7548">
        <ele>187</ele>
        <time>2018-07-05T10:22:31Z</time>
      </trkpt>
      <trkpt lat="45.95539" lon="4.75475">
        <ele>187</ele>
        <time>2018-07-05T10:22:32Z</time>
      </trkpt>
      <trkpt lat="45.95538" lon="4.75469">
        <ele>187</ele>
        <time>2018-07-05T10:22:33Z</time>
      </trkpt>
      <trkpt lat="45.95538" lon="4.75462">
        <ele>187</ele>
        <time>2018-07-05T10:22:34Z</time>
      </trkpt>
      <trkpt lat="45.95535" lon="4.75456">
        <ele>187</ele>
        <time>2018-07-05T10:22:35Z</time>
      </trkpt>
      <trkpt lat="45.9553" lon="4.7545">
        <ele>187</ele>
        <time>2018-07-05T10:22:36Z</time>
      </trkpt>
      <trkpt lat="45.95522" lon="4.75443">
        <ele>187</ele>
        <time>2018-07-05T10:22:37Z</time>
      </trkpt>
      <trkpt lat="45.95521" lon="4.75437">
        <ele>187</ele>
        <time>2018-07-05T10:22:38Z</time>
      </trkpt>
      <trkpt lat="45.95517" lon="4.75431">
        <ele>187</ele>
        <time>2018-07-05T10:22:39Z</time>
      </trkpt>
      <trkpt lat="45.95513" lon="4.75424">
        <ele>186</ele>
        <time>2018-07-05T10:22:40Z</time>
      </trkpt>
      <trkpt lat="45.95509" lon="4.75416">
        <ele>186</ele>
        <time>2018-07-05T10:22:41Z</time>
      </trkpt>
      <trkpt lat="45.95508" lon="4.75409">
        <ele>187</ele>
        <time>2018-07-05T10:22:42Z</time>
      </trkpt>
      <trkpt lat="45.95505" lon="4.75402">
        <ele>187</ele>
        <time>2018-07-05T10:22:43Z</time>
      </trkpt>
      <trkpt lat="45.95503" lon="4.75397">
        <ele>187</ele>
        <time>2018-07-05T10:22:44Z</time>
      </trkpt>
      <trkpt lat="45.95499" lon="4.75391">
        <ele>185</ele>
        <time>2018-07-05T10:22:45Z</time>
      </trkpt>
      <trkpt lat="45.95498" lon="4.75385">
        <ele>185</ele>
        <time>2018-07-05T10:22:46Z</time>
      </trkpt>
      <trkpt lat="45.95496" lon="4.75378">
        <ele>185</ele>
        <time>2018-07-05T10:22:47Z</time>
      </trkpt>
      <trkpt lat="45.95491" lon="4.75372">
        <ele>185</ele>
        <time>2018-07-05T10:22:48Z</time>
      </trkpt>
      <trkpt lat="45.95487" lon="4.75364">
        <ele>186</ele>
        <time>2018-07-05T10:22:49Z</time>
      </trkpt>
      <trkpt lat="45.95483" lon="4.75357">
        <ele>186</ele>
        <time>2018-07-05T10:22:50Z</time>
      </trkpt>
      <trkpt lat="45.9548" lon="4.7535">
        <ele>186</ele>
        <time>2018-07-05T10:22:51Z</time>
      </trkpt>
      <trkpt lat="45.95477" lon="4.75343">
        <ele>186</ele>
        <time>2018-07-05T10:22:52Z</time>
      </trkpt>
      <trkpt lat="45.95474" lon="4.75337">
        <ele>186</ele>
        <time>2018-07-05T10:22:53Z</time>
      </trkpt>
      <trkpt lat="45.95472" lon="4.75331">
        <ele>188</ele>
        <time>2018-07-05T10:22:54Z</time>
      </trkpt>
      <trkpt lat="45.95469" lon="4.75326">
        <ele>188</ele>
        <time>2018-07-05T10:22:55Z</time>
      </trkpt>
      <trkpt lat="45.95465" lon="4.75318">
        <ele>188</ele>
        <time>2018-07-05T10:22:56Z</time>
      </trkpt>
      <trkpt lat="45.95463" lon="4.75313">
        <ele>188</ele>
        <time>2018-07-05T10:22:57Z</time>
      </trkpt>
      <trkpt lat="45.9546" lon="4.75306">
        <ele>188</ele>
        <time>2018-07-05T10:22:58Z</time>
      </trkpt>
      <trkpt lat="45.95456" lon="4.753">
        <ele>188</ele>
        <time>2018-07-05T10:22:59Z</time>
      </trkpt>
      <trkpt lat="45.95452" lon="4.75295">
        <ele>188</ele>
        <time>2018-07-05T10:23:00Z</time>
      </trkpt>
      <trkpt lat="45.95449" lon="4.7529">
        <ele>188</ele>
        <time>2018-07-05T10:23:01Z</time>
      </trkpt>
      <trkpt lat="45.95447" lon="4.75284">
        <ele>188</ele>
        <time>2018-07-05T10:23:02Z</time>
      </trkpt>
      <trkpt lat="45.95444" lon="4.75279">
        <ele>189</ele>
        <time>2018-07-05T10:23:03Z</time>
      </trkpt>
      <trkpt lat="45.9544" lon="4.75273">
        <ele>189</ele>
        <time>2018-07-05T10:23:04Z</time>
      </trkpt>
      <trkpt lat="45.95437" lon="4.75269">
        <ele>189</ele>
        <time>2018-07-05T10:23:05Z</time>
      </trkpt>
      <trkpt lat="45.95432" lon="4.75258">
        <ele>189</ele>
        <time>2018-07-05T10:23:07Z</time>
      </trkpt>
      <trkpt lat="45.95429" lon="4.75253">
        <ele>189</ele>
        <time>2018-07-05T10:23:08Z</time>
      </trkpt>
      <trkpt lat="45.95425" lon="4.75242">
        <ele>190</ele>
        <time>2018-07-05T10:23:10Z</time>
      </trkpt>
      <trkpt lat="45.95422" lon="4.75237">
        <ele>190</ele>
        <time>2018-07-05T10:23:11Z</time>
      </trkpt>
      <trkpt lat="45.95417" lon="4.75226">
        <ele>191</ele>
        <time>2018-07-05T10:23:13Z</time>
      </trkpt>
      <trkpt lat="45.95415" lon="4.75221">
        <ele>189</ele>
        <time>2018-07-05T10:23:14Z</time>
      </trkpt>
      <trkpt lat="45.95411" lon="4.75215">
        <ele>189</ele>
        <time>2018-07-05T10:23:15Z</time>
      </trkpt>
      <trkpt lat="45.9541" lon="4.75209">
        <ele>189</ele>
        <time>2018-07-05T10:23:16Z</time>
      </trkpt>
      <trkpt lat="45.95408" lon="4.75204">
        <ele>189</ele>
        <time>2018-07-05T10:23:17Z</time>
      </trkpt>
      <trkpt lat="45.95403" lon="4.75198">
        <ele>189</ele>
        <time>2018-07-05T10:23:18Z</time>
      </trkpt>
      <trkpt lat="45.95396" lon="4.75189">
        <ele>189</ele>
        <time>2018-07-05T10:23:19Z</time>
      </trkpt>
      <trkpt lat="45.95392" lon="4.75183">
        <ele>189</ele>
        <time>2018-07-05T10:23:20Z</time>
      </trkpt>
      <trkpt lat="45.95389" lon="4.75178">
        <ele>189</ele>
        <time>2018-07-05T10:23:21Z</time>
      </trkpt>
      <trkpt lat="45.95386" lon="4.75173">
        <ele>189</ele>
        <time>2018-07-05T10:23:22Z</time>
      </trkpt>
      <trkpt lat="45.95382" lon="4.75168">
        <ele>189</ele>
        <time>2018-07-05T10:23:23Z</time>
      </trkpt>
      <trkpt lat="45.95378" lon="4.75158">
        <ele>191</ele>
        <time>2018-07-05T10:23:25Z</time>
      </trkpt>
      <trkpt lat="45.95374" lon="4.75153">
        <ele>191</ele>
        <time>2018-07-05T10:23:26Z</time>
      </trkpt>
      <trkpt lat="45.95371" lon="4.75147">
        <ele>191</ele>
        <time>2018-07-05T10:23:27Z</time>
      </trkpt>
      <trkpt lat="45.95367" lon="4.75142">
        <ele>191</ele>
        <time>2018-07-05T10:23:28Z</time>
      </trkpt>
      <trkpt lat="45.95363" lon="4.75131">
        <ele>191</ele>
        <time>2018-07-05T10:23:30Z</time>
      </trkpt>
      <trkpt lat="45.95359" lon="4.75125">
        <ele>191</ele>
        <time>2018-07-05T10:23:31Z</time>
      </trkpt>
      <trkpt lat="45.95356" lon="4.75119">
        <ele>191</ele>
        <time>2018-07-05T10:23:32Z</time>
      </trkpt>
      <trkpt lat="45.95354" lon="4.75113">
        <ele>192</ele>
        <time>2018-07-05T10:23:33Z</time>
      </trkpt>
      <trkpt lat="45.9535" lon="4.75107">
        <ele>192</ele>
        <time>2018-07-05T10:23:34Z</time>
      </trkpt>
      <trkpt lat="45.95347" lon="4.75102">
        <ele>192</ele>
        <time>2018-07-05T10:23:35Z</time>
      </trkpt>
      <trkpt lat="45.95343" lon="4.75096">
        <ele>192</ele>
        <time>2018-07-05T10:23:36Z</time>
      </trkpt>
      <trkpt lat="45.95339" lon="4.75092">
        <ele>192</ele>
        <time>2018-07-05T10:23:37Z</time>
      </trkpt>
      <trkpt lat="45.95336" lon="4.75087">
        <ele>193</ele>
        <time>2018-07-05T10:23:38Z</time>
      </trkpt>
      <trkpt lat="45.95332" lon="4.75081">
        <ele>193</ele>
        <time>2018-07-05T10:23:39Z</time>
      </trkpt>
      <trkpt lat="45.95326" lon="4.75072">
        <ele>192</ele>
        <time>2018-07-05T10:23:41Z</time>
      </trkpt>
      <trkpt lat="45.95323" lon="4.75068">
        <ele>192</ele>
        <time>2018-07-05T10:23:42Z</time>
      </trkpt>
      <trkpt lat="45.9532" lon="4.75062">
        <ele>192</ele>
        <time>2018-07-05T10:23:43Z</time>
      </trkpt>
      <trkpt lat="45.95318" lon="4.75057">
        <ele>192</ele>
        <time>2018-07-05T10:23:44Z</time>
      </trkpt>
      <trkpt lat="45.95313" lon="4.75047">
        <ele>192</ele>
        <time>2018-07-05T10:23:46Z</time>
      </trkpt>
      <trkpt lat="45.95311" lon="4.75042">
        <ele>192</ele>
        <time>2018-07-05T10:23:47Z</time>
      </trkpt>
      <trkpt lat="45.95305" lon="4.75033">
        <ele>192</ele>
        <time>2018-07-05T10:23:49Z</time>
      </trkpt>
      <trkpt lat="45.95301" lon="4.75029">
        <ele>192</ele>
        <time>2018-07-05T10:23:50Z</time>
      </trkpt>
      <trkpt lat="45.95299" lon="4.75022">
        <ele>192</ele>
        <time>2018-07-05T10:23:51Z</time>
      </trkpt>
      <trkpt lat="45.95295" lon="4.75017">
        <ele>192</ele>
        <time>2018-07-05T10:23:52Z</time>
      </trkpt>
      <trkpt lat="45.9529" lon="4.75012">
        <ele>191</ele>
        <time>2018-07-05T10:23:53Z</time>
      </trkpt>
      <trkpt lat="45.95288" lon="4.75007">
        <ele>191</ele>
        <time>2018-07-05T10:23:54Z</time>
      </trkpt>
      <trkpt lat="45.95285" lon="4.74999">
        <ele>192</ele>
        <time>2018-07-05T10:23:56Z</time>
      </trkpt>
      <trkpt lat="45.95283" lon="4.74993">
        <ele>192</ele>
        <time>2018-07-05T10:23:57Z</time>
      </trkpt>
      <trkpt lat="45.95278" lon="4.74985">
        <ele>192</ele>
        <time>2018-07-05T10:23:59Z</time>
      </trkpt>
      <trkpt lat="45.95274" lon="4.74979">
        <ele>192</ele>
        <time>2018-07-05T10:24:00Z</time>
      </trkpt>
      <trkpt lat="45.95267" lon="4.74974">
        <ele>192</ele>
        <time>2018-07-05T10:24:01Z</time>
      </trkpt>
      <trkpt lat="45.95264" lon="4.7497">
        <ele>192</ele>
        <time>2018-07-05T10:24:02Z</time>
      </trkpt>
      <trkpt lat="45.9526" lon="4.74964">
        <ele>192</ele>
        <time>2018-07-05T10:24:03Z</time>
      </trkpt>
      <trkpt lat="45.95257" lon="4.7496">
        <ele>192</ele>
        <time>2018-07-05T10:24:04Z</time>
      </trkpt>
      <trkpt lat="45.95254" lon="4.74955">
        <ele>192</ele>
        <time>2018-07-05T10:24:05Z</time>
      </trkpt>
      <trkpt lat="45.95251" lon="4.7495">
        <ele>192</ele>
        <time>2018-07-05T10:24:06Z</time>
      </trkpt>
      <trkpt lat="45.95248" lon="4.74945">
        <ele>192</ele>
        <time>2018-07-05T10:24:07Z</time>
      </trkpt>
      <trkpt lat="45.95244" lon="4.7494">
        <ele>192</ele>
        <time>2018-07-05T10:24:08Z</time>
      </trkpt>
      <trkpt lat="45.95241" lon="4.74935">
        <ele>192</ele>
        <time>2018-07-05T10:24:09Z</time>
      </trkpt>
      <trkpt lat="45.95237" lon="4.74928">
        <ele>192</ele>
        <time>2018-07-05T10:24:10Z</time>
      </trkpt>
      <trkpt lat="45.95233" lon="4.74922">
        <ele>192</ele>
        <time>2018-07-05T10:24:11Z</time>
      </trkpt>
      <trkpt lat="45.9523" lon="4.74916">
        <ele>193</ele>
        <time>2018-07-05T10:24:12Z</time>
      </trkpt>
      <trkpt lat="45.95226" lon="4.74911">
        <ele>193</ele>
        <time>2018-07-05T10:24:13Z</time>
      </trkpt>
      <trkpt lat="45.9522" lon="4.74905">
        <ele>193</ele>
        <time>2018-07-05T10:24:14Z</time>
      </trkpt>
      <trkpt lat="45.95215" lon="4.74899">
        <ele>193</ele>
        <time>2018-07-05T10:24:15Z</time>
      </trkpt>
      <trkpt lat="45.95211" lon="4.74893">
        <ele>193</ele>
        <time>2018-07-05T10:24:16Z</time>
      </trkpt>
      <trkpt lat="45.95208" lon="4.74888">
        <ele>194</ele>
        <time>2018-07-05T10:24:17Z</time>
      </trkpt>
      <trkpt lat="45.95204" lon="4.74882">
        <ele>194</ele>
        <time>2018-07-05T10:24:18Z</time>
      </trkpt>
      <trkpt lat="45.952" lon="4.74877">
        <ele>194</ele>
        <time>2018-07-05T10:24:19Z</time>
      </trkpt>
      <trkpt lat="45.95197" lon="4.74872">
        <ele>194</ele>
        <time>2018-07-05T10:24:20Z</time>
      </trkpt>
      <trkpt lat="45.95194" lon="4.74866">
        <ele>194</ele>
        <time>2018-07-05T10:24:21Z</time>
      </trkpt>
      <trkpt lat="45.95191" lon="4.74861">
        <ele>194</ele>
        <time>2018-07-05T10:24:22Z</time>
      </trkpt>
      <trkpt lat="45.95187" lon="4.74857">
        <ele>194</ele>
        <time>2018-07-05T10:24:23Z</time>
      </trkpt>
      <trkpt lat="45.95184" lon="4.74852">
        <ele>194</ele>
        <time>2018-07-05T10:24:24Z</time>
      </trkpt>
      <trkpt lat="45.95181" lon="4.74847">
        <ele>194</ele>
        <time>2018-07-05T10:24:25Z</time>
      </trkpt>
      <trkpt lat="45.95177" lon="4.74842">
        <ele>194</ele>
        <time>2018-07-05T10:24:26Z</time>
      </trkpt>
      <trkpt lat="45.95175" lon="4.74835">
        <ele>194</ele>
        <time>2018-07-05T10:24:27Z</time>
      </trkpt>
      <trkpt lat="45.95171" lon="4.74829">
        <ele>194</ele>
        <time>2018-07-05T10:24:28Z</time>
      </trkpt>
      <trkpt lat="45.95167" lon="4.74825">
        <ele>194</ele>
        <time>2018-07-05T10:24:29Z</time>
      </trkpt>
      <trkpt lat="45.95164" lon="4.74821">
        <ele>194</ele>
        <time>2018-07-05T10:24:30Z</time>
      </trkpt>
      <trkpt lat="45.95161" lon="4.74815">
        <ele>194</ele>
        <time>2018-07-05T10:24:31Z</time>
      </trkpt>
      <trkpt lat="45.95157" lon="4.7481">
        <ele>194</ele>
        <time>2018-07-05T10:24:32Z</time>
      </trkpt>
      <trkpt lat="45.95153" lon="4.74804">
        <ele>194</ele>
        <time>2018-07-05T10:24:33Z</time>
      </trkpt>
      <trkpt lat="45.9515" lon="4.74799">
        <ele>194</ele>
        <time>2018-07-05T10:24:34Z</time>
      </trkpt>
      <trkpt lat="45.95146" lon="4.7479">
        <ele>194</ele>
        <time>2018-07-05T10:24:36Z</time>
      </trkpt>
      <trkpt lat="45.95142" lon="4.74783">
        <ele>194</ele>
        <time>2018-07-05T10:24:37Z</time>
      </trkpt>
      <trkpt lat="45.95139" lon="4.74777">
        <ele>194</ele>
        <time>2018-07-05T10:24:38Z</time>
      </trkpt>
      <trkpt lat="45.95136" lon="4.74772">
        <ele>194</ele>
        <time>2018-07-05T10:24:39Z</time>
      </trkpt>
      <trkpt lat="45.95133" lon="4.74766">
        <ele>194</ele>
        <time>2018-07-05T10:24:40Z</time>
      </trkpt>
      <trkpt lat="45.9513" lon="4.7476">
        <ele>194</ele>
        <time>2018-07-05T10:24:41Z</time>
      </trkpt>
      <trkpt lat="45.95126" lon="4.74756">
        <ele>194</ele>
        <time>2018-07-05T10:24:42Z</time>
      </trkpt>
      <trkpt lat="45.95122" lon="4.7475">
        <ele>194</ele>
        <time>2018-07-05T10:24:43Z</time>
      </trkpt>
      <trkpt lat="45.95121" lon="4.74744">
        <ele>194</ele>
        <time>2018-07-05T10:24:44Z</time>
      </trkpt>
      <trkpt lat="45.95118" lon="4.74737">
        <ele>194</ele>
        <time>2018-07-05T10:24:45Z</time>
      </trkpt>
      <trkpt lat="45.95114" lon="4.74731">
        <ele>194</ele>
        <time>2018-07-05T10:24:46Z</time>
      </trkpt>
      <trkpt lat="45.95111" lon="4.74726">
        <ele>194</ele>
        <time>2018-07-05T10:24:47Z</time>
      </trkpt>
      <trkpt lat="45.95107" lon="4.74719">
        <ele>194</ele>
        <time>2018-07-05T10:24:48Z</time>
      </trkpt>
      <trkpt lat="45.95103" lon="4.74714">
        <ele>194</ele>
        <time>2018-07-05T10:24:49Z</time>
      </trkpt>
      <trkpt lat="45.951" lon="4.74708">
        <ele>194</ele>
        <time>2018-07-05T10:24:50Z</time>
      </trkpt>
      <trkpt lat="45.95096" lon="4.74702">
        <ele>194</ele>
        <time>2018-07-05T10:24:51Z</time>
      </trkpt>
      <trkpt lat="45.9509" lon="4.74694">
        <ele>194</ele>
        <time>2018-07-05T10:24:53Z</time>
      </trkpt>
      <trkpt lat="45.95086" lon="4.74684">
        <ele>195</ele>
        <time>2018-07-05T10:24:54Z</time>
      </trkpt>
      <trkpt lat="45.95083" lon="4.74677">
        <ele>194</ele>
        <time>2018-07-05T10:24:55Z</time>
      </trkpt>
      <trkpt lat="45.95079" lon="4.74672">
        <ele>195</ele>
        <time>2018-07-05T10:24:56Z</time>
      </trkpt>
      <trkpt lat="45.95075" lon="4.74665">
        <ele>195</ele>
        <time>2018-07-05T10:24:57Z</time>
      </trkpt>
      <trkpt lat="45.95072" lon="4.74659">
        <ele>195</ele>
        <time>2018-07-05T10:24:58Z</time>
      </trkpt>
      <trkpt lat="45.95069" lon="4.74652">
        <ele>195</ele>
        <time>2018-07-05T10:24:59Z</time>
      </trkpt>
      <trkpt lat="45.95065" lon="4.74648">
        <ele>195</ele>
        <time>2018-07-05T10:25:00Z</time>
      </trkpt>
      <trkpt lat="45.9506" lon="4.7464">
        <ele>194</ele>
        <time>2018-07-05T10:25:01Z</time>
      </trkpt>
      <trkpt lat="45.95057" lon="4.74634">
        <ele>194</ele>
        <time>2018-07-05T10:25:02Z</time>
      </trkpt>
      <trkpt lat="45.95053" lon="4.74629">
        <ele>194</ele>
        <time>2018-07-05T10:25:03Z</time>
      </trkpt>
      <trkpt lat="45.95048" lon="4.74624">
        <ele>194</ele>
        <time>2018-07-05T10:25:04Z</time>
      </trkpt>
      <trkpt lat="45.95044" lon="4.74618">
        <ele>194</ele>
        <time>2018-07-05T10:25:05Z</time>
      </trkpt>
      <trkpt lat="45.95041" lon="4.74613">
        <ele>194</ele>
        <time>2018-07-05T10:25:06Z</time>
      </trkpt>
      <trkpt lat="45.95037" lon="4.74606">
        <ele>194</ele>
        <time>2018-07-05T10:25:07Z</time>
      </trkpt>
      <trkpt lat="45.95034" lon="4.74599">
        <ele>194</ele>
        <time>2018-07-05T10:25:08Z</time>
      </trkpt>
      <trkpt lat="45.95032" lon="4.74593">
        <ele>194</ele>
        <time>2018-07-05T10:25:09Z</time>
      </trkpt>
      <trkpt lat="45.9503" lon="4.74587">
        <ele>194</ele>
        <time>2018-07-05T10:25:10Z</time>
      </trkpt>
      <trkpt lat="45.95026" lon="4.74581">
        <ele>194</ele>
        <time>2018-07-05T10:25:11Z</time>
      </trkpt>
      <trkpt lat="45.95023" lon="4.74574">
        <ele>194</ele>
        <time>2018-07-05T10:25:12Z</time>
      </trkpt>
      <trkpt lat="45.9502" lon="4.74567">
        <ele>194</ele>
        <time>2018-07-05T10:25:13Z</time>
      </trkpt>
      <trkpt lat="45.95016" lon="4.74561">
        <ele>194</ele>
        <time>2018-07-05T10:25:14Z</time>
      </trkpt>
      <trkpt lat="45.95012" lon="4.74554">
        <ele>194</ele>
        <time>2018-07-05T10:25:15Z</time>
      </trkpt>
      <trkpt lat="45.95009" lon="4.74546">
        <ele>194</ele>
        <time>2018-07-05T10:25:16Z</time>
      </trkpt>
      <trkpt lat="45.95005" lon="4.7454">
        <ele>194</ele>
        <time>2018-07-05T10:25:17Z</time>
      </trkpt>
      <trkpt lat="45.95002" lon="4.74534">
        <ele>194</ele>
        <time>2018-07-05T10:25:18Z</time>
      </trkpt>
      <trkpt lat="45.94999" lon="4.74527">
        <ele>193</ele>
        <time>2018-07-05T10:25:19Z</time>
      </trkpt>
      <trkpt lat="45.94995" lon="4.7452">
        <ele>193</ele>
        <time>2018-07-05T10:25:20Z</time>
      </trkpt>
      <trkpt lat="45.94991" lon="4.74513">
        <ele>193</ele>
        <time>2018-07-05T10:25:21Z</time>
      </trkpt>
      <trkpt lat="45.9499" lon="4.74508">
        <ele>193</ele>
        <time>2018-07-05T10:25:22Z</time>
      </trkpt>
      <trkpt lat="45.94987" lon="4.74501">
        <ele>193</ele>
        <time>2018-07-05T10:25:23Z</time>
      </trkpt>
      <trkpt lat="45.94983" lon="4.74494">
        <ele>193</ele>
        <time>2018-07-05T10:25:24Z</time>
      </trkpt>
      <trkpt lat="45.94979" lon="4.74487">
        <ele>193</ele>
        <time>2018-07-05T10:25:25Z</time>
      </trkpt>
      <trkpt lat="45.94975" lon="4.74479">
        <ele>193</ele>
        <time>2018-07-05T10:25:26Z</time>
      </trkpt>
      <trkpt lat="45.94971" lon="4.74471">
        <ele>193</ele>
        <time>2018-07-05T10:25:27Z</time>
      </trkpt>
      <trkpt lat="45.94966" lon="4.74464">
        <ele>193</ele>
        <time>2018-07-05T10:25:28Z</time>
      </trkpt>
      <trkpt lat="45.94962" lon="4.74456">
        <ele>192</ele>
        <time>2018-07-05T10:25:29Z</time>
      </trkpt>
      <trkpt lat="45.94958" lon="4.74448">
        <ele>192</ele>
        <time>2018-07-05T10:25:30Z</time>
      </trkpt>
      <trkpt lat="45.94953" lon="4.74437">
        <ele>192</ele>
        <time>2018-07-05T10:25:31Z</time>
      </trkpt>
      <trkpt lat="45.94949" lon="4.74429">
        <ele>192</ele>
        <time>2018-07-05T10:25:32Z</time>
      </trkpt>
      <trkpt lat="45.94944" lon="4.7442">
        <ele>192</ele>
        <time>2018-07-05T10:25:33Z</time>
      </trkpt>
      <trkpt lat="45.94939" lon="4.74411">
        <ele>192</ele>
        <time>2018-07-05T10:25:34Z</time>
      </trkpt>
      <trkpt lat="45.94935" lon="4.74402">
        <ele>192</ele>
        <time>2018-07-05T10:25:35Z</time>
      </trkpt>
      <trkpt lat="45.94932" lon="4.74393">
        <ele>192</ele>
        <time>2018-07-05T10:25:36Z</time>
      </trkpt>
      <trkpt lat="45.94927" lon="4.74384">
        <ele>192</ele>
        <time>2018-07-05T10:25:37Z</time>
      </trkpt>
      <trkpt lat="45.94922" lon="4.74376">
        <ele>192</ele>
        <time>2018-07-05T10:25:38Z</time>
      </trkpt>
      <trkpt lat="45.94916" lon="4.74368">
        <ele>191</ele>
        <time>2018-07-05T10:25:39Z</time>
      </trkpt>
      <trkpt lat="45.94913" lon="4.74359">
        <ele>191</ele>
        <time>2018-07-05T10:25:40Z</time>
      </trkpt>
      <trkpt lat="45.94909" lon="4.7435">
        <ele>191</ele>
        <time>2018-07-05T10:25:41Z</time>
      </trkpt>
      <trkpt lat="45.94905" lon="4.74341">
        <ele>191</ele>
        <time>2018-07-05T10:25:42Z</time>
      </trkpt>
      <trkpt lat="45.94901" lon="4.74334">
        <ele>191</ele>
        <time>2018-07-05T10:25:43Z</time>
      </trkpt>
      <trkpt lat="45.94897" lon="4.74326">
        <ele>191</ele>
        <time>2018-07-05T10:25:44Z</time>
      </trkpt>
      <trkpt lat="45.94892" lon="4.74319">
        <ele>191</ele>
        <time>2018-07-05T10:25:45Z</time>
      </trkpt>
      <trkpt lat="45.94891" lon="4.74311">
        <ele>191</ele>
        <time>2018-07-05T10:25:46Z</time>
      </trkpt>
      <trkpt lat="45.94887" lon="4.74303">
        <ele>191</ele>
        <time>2018-07-05T10:25:47Z</time>
      </trkpt>
      <trkpt lat="45.94884" lon="4.74296">
        <ele>191</ele>
        <time>2018-07-05T10:25:48Z</time>
      </trkpt>
      <trkpt lat="45.94878" lon="4.74288">
        <ele>191</ele>
        <time>2018-07-05T10:25:49Z</time>
      </trkpt>
      <trkpt lat="45.94873" lon="4.74281">
        <ele>191</ele>
        <time>2018-07-05T10:25:50Z</time>
      </trkpt>
      <trkpt lat="45.94868" lon="4.74274">
        <ele>191</ele>
        <time>2018-07-05T10:25:51Z</time>
      </trkpt>
      <trkpt lat="45.94862" lon="4.74266">
        <ele>190</ele>
        <time>2018-07-05T10:25:52Z</time>
      </trkpt>
      <trkpt lat="45.94858" lon="4.74257">
        <ele>190</ele>
        <time>2018-07-05T10:25:53Z</time>
      </trkpt>
      <trkpt lat="45.94854" lon="4.74249">
        <ele>190</ele>
        <time>2018-07-05T10:25:54Z</time>
      </trkpt>
      <trkpt lat="45.9485" lon="4.7424">
        <ele>190</ele>
        <time>2018-07-05T10:25:55Z</time>
      </trkpt>
      <trkpt lat="45.94847" lon="4.74231">
        <ele>190</ele>
        <time>2018-07-05T10:25:56Z</time>
      </trkpt>
      <trkpt lat="45.94841" lon="4.74223">
        <ele>190</ele>
        <time>2018-07-05T10:25:57Z</time>
      </trkpt>
      <trkpt lat="45.94837" lon="4.74215">
        <ele>190</ele>
        <time>2018-07-05T10:25:58Z</time>
      </trkpt>
      <trkpt lat="45.94833" lon="4.74209">
        <ele>189</ele>
        <time>2018-07-05T10:25:59Z</time>
      </trkpt>
      <trkpt lat="45.94829" lon="4.74202">
        <ele>189</ele>
        <time>2018-07-05T10:26:00Z</time>
      </trkpt>
      <trkpt lat="45.94825" lon="4.74195">
        <ele>189</ele>
        <time>2018-07-05T10:26:01Z</time>
      </trkpt>
      <trkpt lat="45.9482" lon="4.74189">
        <ele>189</ele>
        <time>2018-07-05T10:26:02Z</time>
      </trkpt>
      <trkpt lat="45.94818" lon="4.74182">
        <ele>189</ele>
        <time>2018-07-05T10:26:03Z</time>
      </trkpt>
      <trkpt lat="45.94815" lon="4.74176">
        <ele>189</ele>
        <time>2018-07-05T10:26:04Z</time>
      </trkpt>
      <trkpt lat="45.94812" lon="4.74169">
        <ele>189</ele>
        <time>2018-07-05T10:26:05Z</time>
      </trkpt>
      <trkpt lat="45.94809" lon="4.74162">
        <ele>189</ele>
        <time>2018-07-05T10:26:06Z</time>
      </trkpt>
      <trkpt lat="45.94804" lon="4.74157">
        <ele>189</ele>
        <time>2018-07-05T10:26:07Z</time>
      </trkpt>
      <trkpt lat="45.94803" lon="4.7415">
        <ele>189</ele>
        <time>2018-07-05T10:26:08Z</time>
      </trkpt>
      <trkpt lat="45.94798" lon="4.74145">
        <ele>189</ele>
        <time>2018-07-05T10:26:09Z</time>
      </trkpt>
      <trkpt lat="45.94794" lon="4.74139">
        <ele>189</ele>
        <time>2018-07-05T10:26:10Z</time>
      </trkpt>
      <trkpt lat="45.9479" lon="4.74132">
        <ele>189</ele>
        <time>2018-07-05T10:26:11Z</time>
      </trkpt>
      <trkpt lat="45.94787" lon="4.74126">
        <ele>189</ele>
        <time>2018-07-05T10:26:12Z</time>
      </trkpt>
      <trkpt lat="45.94781" lon="4.74119">
        <ele>189</ele>
        <time>2018-07-05T10:26:13Z</time>
      </trkpt>
      <trkpt lat="45.94774" lon="4.74113">
        <ele>189</ele>
        <time>2018-07-05T10:26:14Z</time>
      </trkpt>
      <trkpt lat="45.94769" lon="4.74106">
        <ele>189</ele>
        <time>2018-07-05T10:26:15Z</time>
      </trkpt>
      <trkpt lat="45.94764" lon="4.74099">
        <ele>189</ele>
        <time>2018-07-05T10:26:16Z</time>
      </trkpt>
      <trkpt lat="45.94761" lon="4.74091">
        <ele>189</ele>
        <time>2018-07-05T10:26:17Z</time>
      </trkpt>
      <trkpt lat="45.94756" lon="4.74085">
        <ele>189</ele>
        <time>2018-07-05T10:26:18Z</time>
      </trkpt>
      <trkpt lat="45.94752" lon="4.74079">
        <ele>189</ele>
        <time>2018-07-05T10:26:19Z</time>
      </trkpt>
      <trkpt lat="45.94748" lon="4.74075">
        <ele>188</ele>
        <time>2018-07-05T10:26:20Z</time>
      </trkpt>
      <trkpt lat="45.94745" lon="4.74069">
        <ele>188</ele>
        <time>2018-07-05T10:26:21Z</time>
      </trkpt>
      <trkpt lat="45.94741" lon="4.74064">
        <ele>188</ele>
        <time>2018-07-05T10:26:22Z</time>
      </trkpt>
      <trkpt lat="45.94737" lon="4.74059">
        <ele>188</ele>
        <time>2018-07-05T10:26:23Z</time>
      </trkpt>
      <trkpt lat="45.94734" lon="4.74054">
        <ele>188</ele>
        <time>2018-07-05T10:26:24Z</time>
      </trkpt>
      <trkpt lat="45.94731" lon="4.7405">
        <ele>188</ele>
        <time>2018-07-05T10:26:25Z</time>
      </trkpt>
      <trkpt lat="45.94725" lon="4.74043">
        <ele>187</ele>
        <time>2018-07-05T10:26:26Z</time>
      </trkpt>
      <trkpt lat="45.94721" lon="4.74038">
        <ele>187</ele>
        <time>2018-07-05T10:26:27Z</time>
      </trkpt>
      <trkpt lat="45.94716" lon="4.74033">
        <ele>187</ele>
        <time>2018-07-05T10:26:28Z</time>
      </trkpt>
      <trkpt lat="45.94713" lon="4.74029">
        <ele>187</ele>
        <time>2018-07-05T10:26:29Z</time>
      </trkpt>
      <trkpt lat="45.94709" lon="4.74023">
        <ele>187</ele>
        <time>2018-07-05T10:26:30Z</time>
      </trkpt>
      <trkpt lat="45.94706" lon="4.74018">
        <ele>187</ele>
        <time>2018-07-05T10:26:31Z</time>
      </trkpt>
      <trkpt lat="45.94702" lon="4.74014">
        <ele>187</ele>
        <time>2018-07-05T10:26:32Z</time>
      </trkpt>
      <trkpt lat="45.94698" lon="4.74009">
        <ele>187</ele>
        <time>2018-07-05T10:26:33Z</time>
      </trkpt>
      <trkpt lat="45.94693" lon="4.74004">
        <ele>187</ele>
        <time>2018-07-05T10:26:34Z</time>
      </trkpt>
      <trkpt lat="45.94688" lon="4.73998">
        <ele>187</ele>
        <time>2018-07-05T10:26:35Z</time>
      </trkpt>
      <trkpt lat="45.94685" lon="4.73993">
        <ele>187</ele>
        <time>2018-07-05T10:26:36Z</time>
      </trkpt>
      <trkpt lat="45.94682" lon="4.73988">
        <ele>187</ele>
        <time>2018-07-05T10:26:37Z</time>
      </trkpt>
      <trkpt lat="45.94677" lon="4.73984">
        <ele>187</ele>
        <time>2018-07-05T10:26:38Z</time>
      </trkpt>
      <trkpt lat="45.94673" lon="4.73978">
        <ele>187</ele>
        <time>2018-07-05T10:26:39Z</time>
      </trkpt>
      <trkpt lat="45.94668" lon="4.73972">
        <ele>187</ele>
        <time>2018-07-05T10:26:40Z</time>
      </trkpt>
      <trkpt lat="45.94663" lon="4.73965">
        <ele>187</ele>
        <time>2018-07-05T10:26:41Z</time>
      </trkpt>
      <trkpt lat="45.94659" lon="4.73958">
        <ele>187</ele>
        <time>2018-07-05T10:26:42Z</time>
      </trkpt>
      <trkpt lat="45.94655" lon="4.73953">
        <ele>187</ele>
        <time>2018-07-05T10:26:43Z</time>
      </trkpt>
      <trkpt lat="45.94652" lon="4.73947">
        <ele>187</ele>
        <time>2018-07-05T10:26:44Z</time>
      </trkpt>
      <trkpt lat="45.94649" lon="4.73943">
        <ele>187</ele>
        <time>2018-07-05T10:26:45Z</time>
      </trkpt>
      <trkpt lat="45.94645" lon="4.73938">
        <ele>187</ele>
        <time>2018-07-05T10:26:46Z</time>
      </trkpt>
      <trkpt lat="45.94641" lon="4.73932">
        <ele>187</ele>
        <time>2018-07-05T10:26:47Z</time>
      </trkpt>
      <trkpt lat="45.94637" lon="4.73927">
        <ele>187</ele>
        <time>2018-07-05T10:26:48Z</time>
      </trkpt>
      <trkpt lat="45.94633" lon="4.73922">
        <ele>187</ele>
        <time>2018-07-05T10:26:49Z</time>
      </trkpt>
      <trkpt lat="45.94629" lon="4.73917">
        <ele>187</ele>
        <time>2018-07-05T10:26:50Z</time>
      </trkpt>
      <trkpt lat="45.94625" lon="4.73912">
        <ele>187</ele>
        <time>2018-07-05T10:26:51Z</time>
      </trkpt>
      <trkpt lat="45.94621" lon="4.73905">
        <ele>187</ele>
        <time>2018-07-05T10:26:52Z</time>
      </trkpt>
      <trkpt lat="45.94618" lon="4.73898">
        <ele>187</ele>
        <time>2018-07-05T10:26:53Z</time>
      </trkpt>
      <trkpt lat="45.94613" lon="4.73893">
        <ele>187</ele>
        <time>2018-07-05T10:26:54Z</time>
      </trkpt>
      <trkpt lat="45.94609" lon="4.73888">
        <ele>187</ele>
        <time>2018-07-05T10:26:55Z</time>
      </trkpt>
      <trkpt lat="45.94604" lon="4.73882">
        <ele>187</ele>
        <time>2018-07-05T10:26:56Z</time>
      </trkpt>
      <trkpt lat="45.94599" lon="4.73877">
        <ele>187</ele>
        <time>2018-07-05T10:26:57Z</time>
      </trkpt>
      <trkpt lat="45.94593" lon="4.73871">
        <ele>187</ele>
        <time>2018-07-05T10:26:58Z</time>
      </trkpt>
      <trkpt lat="45.94588" lon="4.73865">
        <ele>187</ele>
        <time>2018-07-05T10:26:59Z</time>
      </trkpt>
      <trkpt lat="45.94583" lon="4.7386">
        <ele>187</ele>
        <time>2018-07-05T10:27:00Z</time>
      </trkpt>
      <trkpt lat="45.94578" lon="4.73854">
        <ele>186</ele>
        <time>2018-07-05T10:27:01Z</time>
      </trkpt>
      <trkpt lat="45.94575" lon="4.73849">
        <ele>186</ele>
        <time>2018-07-05T10:27:02Z</time>
      </trkpt>
      <trkpt lat="45.94569" lon="4.73844">
        <ele>186</ele>
        <time>2018-07-05T10:27:03Z</time>
      </trkpt>
      <trkpt lat="45.94565" lon="4.73839">
        <ele>186</ele>
        <time>2018-07-05T10:27:04Z</time>
      </trkpt>
      <trkpt lat="45.94559" lon="4.73835">
        <ele>186</ele>
        <time>2018-07-05T10:27:05Z</time>
      </trkpt>
      <trkpt lat="45.94554" lon="4.7383">
        <ele>186</ele>
        <time>2018-07-05T10:27:06Z</time>
      </trkpt>
      <trkpt lat="45.94549" lon="4.73825">
        <ele>186</ele>
        <time>2018-07-05T10:27:07Z</time>
      </trkpt>
      <trkpt lat="45.94545" lon="4.73821">
        <ele>186</ele>
        <time>2018-07-05T10:27:08Z</time>
      </trkpt>
      <trkpt lat="45.9454" lon="4.73817">
        <ele>186</ele>
        <time>2018-07-05T10:27:09Z</time>
      </trkpt>
      <trkpt lat="45.94536" lon="4.73813">
        <ele>186</ele>
        <time>2018-07-05T10:27:10Z</time>
      </trkpt>
      <trkpt lat="45.94532" lon="4.73808">
        <ele>186</ele>
        <time>2018-07-05T10:27:11Z</time>
      </trkpt>
      <trkpt lat="45.94527" lon="4.73804">
        <ele>186</ele>
        <time>2018-07-05T10:27:12Z</time>
      </trkpt>
      <trkpt lat="45.94522" lon="4.73798">
        <ele>186</ele>
        <time>2018-07-05T10:27:13Z</time>
      </trkpt>
      <trkpt lat="45.94517" lon="4.73793">
        <ele>186</ele>
        <time>2018-07-05T10:27:14Z</time>
      </trkpt>
      <trkpt lat="45.94511" lon="4.73788">
        <ele>186</ele>
        <time>2018-07-05T10:27:15Z</time>
      </trkpt>
      <trkpt lat="45.94507" lon="4.73783">
        <ele>186</ele>
        <time>2018-07-05T10:27:16Z</time>
      </trkpt>
      <trkpt lat="45.94502" lon="4.73778">
        <ele>186</ele>
        <time>2018-07-05T10:27:17Z</time>
      </trkpt>
      <trkpt lat="45.94498" lon="4.73773">
        <ele>186</ele>
        <time>2018-07-05T10:27:18Z</time>
      </trkpt>
      <trkpt lat="45.94495" lon="4.73768">
        <ele>186</ele>
        <time>2018-07-05T10:27:19Z</time>
      </trkpt>
      <trkpt lat="45.94492" lon="4.73762">
        <ele>186</ele>
        <time>2018-07-05T10:27:20Z</time>
      </trkpt>
      <trkpt lat="45.94488" lon="4.73756">
        <ele>186</ele>
        <time>2018-07-05T10:27:21Z</time>
      </trkpt>
      <trkpt lat="45.94489" lon="4.73747">
        <ele>186</ele>
        <time>2018-07-05T10:27:22Z</time>
      </trkpt>
      <trkpt lat="45.94488" lon="4.73739">
        <ele>186</ele>
        <time>2018-07-05T10:27:23Z</time>
      </trkpt>
      <trkpt lat="45.94489" lon="4.73731">
        <ele>186</ele>
        <time>2018-07-05T10:27:24Z</time>
      </trkpt>
      <trkpt lat="45.94491" lon="4.73721">
        <ele>186</ele>
        <time>2018-07-05T10:27:25Z</time>
      </trkpt>
      <trkpt lat="45.94495" lon="4.73711">
        <ele>186</ele>
        <time>2018-07-05T10:27:26Z</time>
      </trkpt>
      <trkpt lat="45.94496" lon="4.73703">
        <ele>186</ele>
        <time>2018-07-05T10:27:27Z</time>
      </trkpt>
      <trkpt lat="45.94496" lon="4.73695">
        <ele>186</ele>
        <time>2018-07-05T10:27:28Z</time>
      </trkpt>
      <trkpt lat="45.94494" lon="4.73686">
        <ele>186</ele>
        <time>2018-07-05T10:27:29Z</time>
      </trkpt>
      <trkpt lat="45.94496" lon="4.73677">
        <ele>185</ele>
        <time>2018-07-05T10:27:30Z</time>
      </trkpt>
      <trkpt lat="45.94497" lon="4.73667">
        <ele>185</ele>
        <time>2018-07-05T10:27:31Z</time>
      </trkpt>
      <trkpt lat="45.94499" lon="4.73656">
        <ele>185</ele>
        <time>2018-07-05T10:27:32Z</time>
      </trkpt>
      <trkpt lat="45.945" lon="4.73646">
        <ele>184</ele>
        <time>2018-07-05T10:27:33Z</time>
      </trkpt>
      <trkpt lat="45.94498" lon="4.73636">
        <ele>186</ele>
        <time>2018-07-05T10:27:34Z</time>
      </trkpt>
      <trkpt lat="45.945" lon="4.73627">
        <ele>184</ele>
        <time>2018-07-05T10:27:35Z</time>
      </trkpt>
      <trkpt lat="45.94501" lon="4.73618">
        <ele>184</ele>
        <time>2018-07-05T10:27:36Z</time>
      </trkpt>
      <trkpt lat="45.94502" lon="4.73608">
        <ele>184</ele>
        <time>2018-07-05T10:27:37Z</time>
      </trkpt>
      <trkpt lat="45.94502" lon="4.73597">
        <ele>184</ele>
        <time>2018-07-05T10:27:38Z</time>
      </trkpt>
      <trkpt lat="45.94502" lon="4.73586">
        <ele>185</ele>
        <time>2018-07-05T10:27:39Z</time>
      </trkpt>
      <trkpt lat="45.94502" lon="4.73575">
        <ele>184</ele>
        <time>2018-07-05T10:27:40Z</time>
      </trkpt>
      <trkpt lat="45.94502" lon="4.73565">
        <ele>184</ele>
        <time>2018-07-05T10:27:41Z</time>
      </trkpt>
      <trkpt lat="45.94503" lon="4.73556">
        <ele>184</ele>
        <time>2018-07-05T10:27:42Z</time>
      </trkpt>
      <trkpt lat="45.94503" lon="4.73546">
        <ele>183</ele>
        <time>2018-07-05T10:27:43Z</time>
      </trkpt>
      <trkpt lat="45.94503" lon="4.73536">
        <ele>183</ele>
        <time>2018-07-05T10:27:44Z</time>
      </trkpt>
      <trkpt lat="45.945" lon="4.73525">
        <ele>183</ele>
        <time>2018-07-05T10:27:45Z</time>
      </trkpt>
      <trkpt lat="45.945" lon="4.73514">
        <ele>184</ele>
        <time>2018-07-05T10:27:46Z</time>
      </trkpt>
      <trkpt lat="45.94502" lon="4.73504">
        <ele>183</ele>
        <time>2018-07-05T10:27:47Z</time>
      </trkpt>
      <trkpt lat="45.94502" lon="4.73493">
        <ele>182</ele>
        <time>2018-07-05T10:27:48Z</time>
      </trkpt>
      <trkpt lat="45.94502" lon="4.73482">
        <ele>182</ele>
        <time>2018-07-05T10:27:49Z</time>
      </trkpt>
      <trkpt lat="45.94502" lon="4.73471">
        <ele>182</ele>
        <time>2018-07-05T10:27:50Z</time>
      </trkpt>
      <trkpt lat="45.94502" lon="4.73461">
        <ele>181</ele>
        <time>2018-07-05T10:27:51Z</time>
      </trkpt>
      <trkpt lat="45.94502" lon="4.73452">
        <ele>181</ele>
        <time>2018-07-05T10:27:52Z</time>
      </trkpt>
      <trkpt lat="45.94502" lon="4.73441">
        <ele>181</ele>
        <time>2018-07-05T10:27:53Z</time>
      </trkpt>
      <trkpt lat="45.94502" lon="4.7343">
        <ele>180</ele>
        <time>2018-07-05T10:27:54Z</time>
      </trkpt>
      <trkpt lat="45.94503" lon="4.73419">
        <ele>180</ele>
        <time>2018-07-05T10:27:55Z</time>
      </trkpt>
      <trkpt lat="45.94502" lon="4.73409">
        <ele>180</ele>
        <time>2018-07-05T10:27:56Z</time>
      </trkpt>
      <trkpt lat="45.94502" lon="4.73397">
        <ele>179</ele>
        <time>2018-07-05T10:27:57Z</time>
      </trkpt>
      <trkpt lat="45.94501" lon="4.73387">
        <ele>179</ele>
        <time>2018-07-05T10:27:58Z</time>
      </trkpt>
      <trkpt lat="45.945" lon="4.73377">
        <ele>178</ele>
        <time>2018-07-05T10:27:59Z</time>
      </trkpt>
      <trkpt lat="45.94499" lon="4.73366">
        <ele>179</ele>
        <time>2018-07-05T10:28:00Z</time>
      </trkpt>
      <trkpt lat="45.94497" lon="4.73353">
        <ele>178</ele>
        <time>2018-07-05T10:28:01Z</time>
      </trkpt>
      <trkpt lat="45.94495" lon="4.73342">
        <ele>178</ele>
        <time>2018-07-05T10:28:02Z</time>
      </trkpt>
      <trkpt lat="45.94492" lon="4.73332">
        <ele>177</ele>
        <time>2018-07-05T10:28:03Z</time>
      </trkpt>
      <trkpt lat="45.94491" lon="4.73321">
        <ele>177</ele>
        <time>2018-07-05T10:28:04Z</time>
      </trkpt>
      <trkpt lat="45.94489" lon="4.7331">
        <ele>177</ele>
        <time>2018-07-05T10:28:05Z</time>
      </trkpt>
      <trkpt lat="45.94488" lon="4.733">
        <ele>177</ele>
        <time>2018-07-05T10:28:06Z</time>
      </trkpt>
      <trkpt lat="45.94484" lon="4.73288">
        <ele>177</ele>
        <time>2018-07-05T10:28:07Z</time>
      </trkpt>
      <trkpt lat="45.94483" lon="4.73276">
        <ele>177</ele>
        <time>2018-07-05T10:28:08Z</time>
      </trkpt>
      <trkpt lat="45.94481" lon="4.73265">
        <ele>177</ele>
        <time>2018-07-05T10:28:09Z</time>
      </trkpt>
      <trkpt lat="45.9448" lon="4.73254">
        <ele>176</ele>
        <time>2018-07-05T10:28:10Z</time>
      </trkpt>
      <trkpt lat="45.94479" lon="4.73242">
        <ele>175</ele>
        <time>2018-07-05T10:28:11Z</time>
      </trkpt>
      <trkpt lat="45.94479" lon="4.73232">
        <ele>175</ele>
        <time>2018-07-05T10:28:12Z</time>
      </trkpt>
      <trkpt lat="45.94479" lon="4.73221">
        <ele>175</ele>
        <time>2018-07-05T10:28:13Z</time>
      </trkpt>
      <trkpt lat="45.94477" lon="4.73212">
        <ele>175</ele>
        <time>2018-07-05T10:28:14Z</time>
      </trkpt>
      <trkpt lat="45.94476" lon="4.732">
        <ele>174</ele>
        <time>2018-07-05T10:28:15Z</time>
      </trkpt>
      <trkpt lat="45.94475" lon="4.73188">
        <ele>174</ele>
        <time>2018-07-05T10:28:16Z</time>
      </trkpt>
      <trkpt lat="45.94472" lon="4.73177">
        <ele>174</ele>
        <time>2018-07-05T10:28:17Z</time>
      </trkpt>
      <trkpt lat="45.94472" lon="4.73166">
        <ele>173</ele>
        <time>2018-07-05T10:28:18Z</time>
      </trkpt>
      <trkpt lat="45.9447" lon="4.73154">
        <ele>172</ele>
        <time>2018-07-05T10:28:19Z</time>
      </trkpt>
      <trkpt lat="45.94468" lon="4.73143">
        <ele>172</ele>
        <time>2018-07-05T10:28:20Z</time>
      </trkpt>
      <trkpt lat="45.94467" lon="4.73134">
        <ele>172</ele>
        <time>2018-07-05T10:28:21Z</time>
      </trkpt>
      <trkpt lat="45.94466" lon="4.73124">
        <ele>172</ele>
        <time>2018-07-05T10:28:22Z</time>
      </trkpt>
      <trkpt lat="45.94464" lon="4.73114">
        <ele>172</ele>
        <time>2018-07-05T10:28:23Z</time>
      </trkpt>
      <trkpt lat="45.94463" lon="4.73104">
        <ele>172</ele>
        <time>2018-07-05T10:28:24Z</time>
      </trkpt>
      <trkpt lat="45.94462" lon="4.73094">
        <ele>171</ele>
        <time>2018-07-05T10:28:25Z</time>
      </trkpt>
      <trkpt lat="45.9446" lon="4.73084">
        <ele>171</ele>
        <time>2018-07-05T10:28:26Z</time>
      </trkpt>
      <trkpt lat="45.9446" lon="4.73074">
        <ele>170</ele>
        <time>2018-07-05T10:28:27Z</time>
      </trkpt>
      <trkpt lat="45.9446" lon="4.73066">
        <ele>170</ele>
        <time>2018-07-05T10:28:28Z</time>
      </trkpt>
      <trkpt lat="45.94455" lon="4.73056">
        <ele>170</ele>
        <time>2018-07-05T10:28:29Z</time>
      </trkpt>
      <trkpt lat="45.94454" lon="4.73048">
        <ele>169</ele>
        <time>2018-07-05T10:28:30Z</time>
      </trkpt>
      <trkpt lat="45.94453" lon="4.73041">
        <ele>169</ele>
        <time>2018-07-05T10:28:31Z</time>
      </trkpt>
      <trkpt lat="45.94452" lon="4.73032">
        <ele>169</ele>
        <time>2018-07-05T10:28:32Z</time>
      </trkpt>
      <trkpt lat="45.94452" lon="4.73024">
        <ele>169</ele>
        <time>2018-07-05T10:28:33Z</time>
      </trkpt>
      <trkpt lat="45.94451" lon="4.73016">
        <ele>169</ele>
        <time>2018-07-05T10:28:34Z</time>
      </trkpt>
      <trkpt lat="45.94446" lon="4.73009">
        <ele>169</ele>
        <time>2018-07-05T10:28:35Z</time>
      </trkpt>
      <trkpt lat="45.94446" lon="4.73001">
        <ele>169</ele>
        <time>2018-07-05T10:28:36Z</time>
      </trkpt>
      <trkpt lat="45.94445" lon="4.72994">
        <ele>167</ele>
        <time>2018-07-05T10:28:37Z</time>
      </trkpt>
      <trkpt lat="45.94444" lon="4.72987">
        <ele>167</ele>
        <time>2018-07-05T10:28:38Z</time>
      </trkpt>
      <trkpt lat="45.94443" lon="4.7298">
        <ele>167</ele>
        <time>2018-07-05T10:28:39Z</time>
      </trkpt>
      <trkpt lat="45.94441" lon="4.72973">
        <ele>167</ele>
        <time>2018-07-05T10:28:40Z</time>
      </trkpt>
      <trkpt lat="45.94441" lon="4.72966">
        <ele>167</ele>
        <time>2018-07-05T10:28:41Z</time>
      </trkpt>
      <trkpt lat="45.94439" lon="4.72959">
        <ele>167</ele>
        <time>2018-07-05T10:28:42Z</time>
      </trkpt>
      <trkpt lat="45.94438" lon="4.72952">
        <ele>167</ele>
        <time>2018-07-05T10:28:43Z</time>
      </trkpt>
      <trkpt lat="45.94437" lon="4.72939">
        <ele>167</ele>
        <time>2018-07-05T10:28:45Z</time>
      </trkpt>
      <trkpt lat="45.94436" lon="4.72933">
        <ele>167</ele>
        <time>2018-07-05T10:28:46Z</time>
      </trkpt>
      <trkpt lat="45.94434" lon="4.72921">
        <ele>167</ele>
        <time>2018-07-05T10:28:48Z</time>
      </trkpt>
      <trkpt lat="45.94434" lon="4.72915">
        <ele>166</ele>
        <time>2018-07-05T10:28:49Z</time>
      </trkpt>
      <trkpt lat="45.94434" lon="4.72909">
        <ele>166</ele>
        <time>2018-07-05T10:28:50Z</time>
      </trkpt>
      <trkpt lat="45.94433" lon="4.72902">
        <ele>166</ele>
        <time>2018-07-05T10:28:51Z</time>
      </trkpt>
      <trkpt lat="45.94432" lon="4.72895">
        <ele>166</ele>
        <time>2018-07-05T10:28:52Z</time>
      </trkpt>
      <trkpt lat="45.94432" lon="4.72887">
        <ele>166</ele>
        <time>2018-07-05T10:28:53Z</time>
      </trkpt>
      <trkpt lat="45.94431" lon="4.72879">
        <ele>166</ele>
        <time>2018-07-05T10:28:54Z</time>
      </trkpt>
      <trkpt lat="45.94431" lon="4.72872">
        <ele>166</ele>
        <time>2018-07-05T10:28:55Z</time>
      </trkpt>
      <trkpt lat="45.9443" lon="4.72863">
        <ele>166</ele>
        <time>2018-07-05T10:28:56Z</time>
      </trkpt>
      <trkpt lat="45.94429" lon="4.72855">
        <ele>166</ele>
        <time>2018-07-05T10:28:57Z</time>
      </trkpt>
      <trkpt lat="45.94427" lon="4.72845">
        <ele>166</ele>
        <time>2018-07-05T10:28:58Z</time>
      </trkpt>
      <trkpt lat="45.94426" lon="4.72836">
        <ele>166</ele>
        <time>2018-07-05T10:28:59Z</time>
      </trkpt>
      <trkpt lat="45.94424" lon="4.72826">
        <ele>166</ele>
        <time>2018-07-05T10:29:00Z</time>
      </trkpt>
      <trkpt lat="45.94424" lon="4.72818">
        <ele>167</ele>
        <time>2018-07-05T10:29:01Z</time>
      </trkpt>
      <trkpt lat="45.94422" lon="4.72808">
        <ele>167</ele>
        <time>2018-07-05T10:29:02Z</time>
      </trkpt>
      <trkpt lat="45.94421" lon="4.72798">
        <ele>167</ele>
        <time>2018-07-05T10:29:03Z</time>
      </trkpt>
      <trkpt lat="45.9442" lon="4.72787">
        <ele>168</ele>
        <time>2018-07-05T10:29:04Z</time>
      </trkpt>
      <trkpt lat="45.94419" lon="4.72776">
        <ele>169</ele>
        <time>2018-07-05T10:29:05Z</time>
      </trkpt>
      <trkpt lat="45.94416" lon="4.72764">
        <ele>170</ele>
        <time>2018-07-05T10:29:06Z</time>
      </trkpt>
      <trkpt lat="45.94415" lon="4.72752">
        <ele>171</ele>
        <time>2018-07-05T10:29:07Z</time>
      </trkpt>
      <trkpt lat="45.94414" lon="4.72742">
        <ele>171</ele>
        <time>2018-07-05T10:29:08Z</time>
      </trkpt>
      <trkpt lat="45.94412" lon="4.72732">
        <ele>172</ele>
        <time>2018-07-05T10:29:09Z</time>
      </trkpt>
      <trkpt lat="45.94411" lon="4.72722">
        <ele>172</ele>
        <time>2018-07-05T10:29:10Z</time>
      </trkpt>
      <trkpt lat="45.94409" lon="4.72712">
        <ele>172</ele>
        <time>2018-07-05T10:29:11Z</time>
      </trkpt>
      <trkpt lat="45.9441" lon="4.72701">
        <ele>172</ele>
        <time>2018-07-05T10:29:12Z</time>
      </trkpt>
      <trkpt lat="45.94409" lon="4.72691">
        <ele>173</ele>
        <time>2018-07-05T10:29:13Z</time>
      </trkpt>
      <trkpt lat="45.94409" lon="4.72681">
        <ele>173</ele>
        <time>2018-07-05T10:29:14Z</time>
      </trkpt>
      <trkpt lat="45.94407" lon="4.72671">
        <ele>173</ele>
        <time>2018-07-05T10:29:15Z</time>
      </trkpt>
      <trkpt lat="45.94406" lon="4.72662">
        <ele>174</ele>
        <time>2018-07-05T10:29:16Z</time>
      </trkpt>
      <trkpt lat="45.94405" lon="4.72653">
        <ele>174</ele>
        <time>2018-07-05T10:29:17Z</time>
      </trkpt>
      <trkpt lat="45.94404" lon="4.72643">
        <ele>174</ele>
        <time>2018-07-05T10:29:18Z</time>
      </trkpt>
      <trkpt lat="45.94403" lon="4.72633">
        <ele>174</ele>
        <time>2018-07-05T10:29:19Z</time>
      </trkpt>
      <trkpt lat="45.94403" lon="4.72625">
        <ele>173</ele>
        <time>2018-07-05T10:29:20Z</time>
      </trkpt>
      <trkpt lat="45.94403" lon="4.72615">
        <ele>173</ele>
        <time>2018-07-05T10:29:21Z</time>
      </trkpt>
      <trkpt lat="45.94402" lon="4.72606">
        <ele>173</ele>
        <time>2018-07-05T10:29:22Z</time>
      </trkpt>
      <trkpt lat="45.94401" lon="4.72598">
        <ele>173</ele>
        <time>2018-07-05T10:29:23Z</time>
      </trkpt>
      <trkpt lat="45.94399" lon="4.7259">
        <ele>173</ele>
        <time>2018-07-05T10:29:24Z</time>
      </trkpt>
      <trkpt lat="45.94398" lon="4.72581">
        <ele>173</ele>
        <time>2018-07-05T10:29:25Z</time>
      </trkpt>
      <trkpt lat="45.94396" lon="4.72573">
        <ele>173</ele>
        <time>2018-07-05T10:29:26Z</time>
      </trkpt>
      <trkpt lat="45.94395" lon="4.72565">
        <ele>173</ele>
        <time>2018-07-05T10:29:27Z</time>
      </trkpt>
      <trkpt lat="45.94394" lon="4.72555">
        <ele>173</ele>
        <time>2018-07-05T10:29:28Z</time>
      </trkpt>
      <trkpt lat="45.94393" lon="4.72547">
        <ele>173</ele>
        <time>2018-07-05T10:29:29Z</time>
      </trkpt>
      <trkpt lat="45.94392" lon="4.72539">
        <ele>174</ele>
        <time>2018-07-05T10:29:30Z</time>
      </trkpt>
      <trkpt lat="45.94389" lon="4.72529">
        <ele>174</ele>
        <time>2018-07-05T10:29:31Z</time>
      </trkpt>
      <trkpt lat="45.94386" lon="4.72519">
        <ele>174</ele>
        <time>2018-07-05T10:29:32Z</time>
      </trkpt>
      <trkpt lat="45.94383" lon="4.72511">
        <ele>174</ele>
        <time>2018-07-05T10:29:33Z</time>
      </trkpt>
      <trkpt lat="45.9438" lon="4.72504">
        <ele>174</ele>
        <time>2018-07-05T10:29:34Z</time>
      </trkpt>
      <trkpt lat="45.94378" lon="4.72497">
        <ele>173</ele>
        <time>2018-07-05T10:29:35Z</time>
      </trkpt>
      <trkpt lat="45.94377" lon="4.7249">
        <ele>173</ele>
        <time>2018-07-05T10:29:36Z</time>
      </trkpt>
      <trkpt lat="45.94374" lon="4.72482">
        <ele>173</ele>
        <time>2018-07-05T10:29:37Z</time>
      </trkpt>
      <trkpt lat="45.94371" lon="4.72476">
        <ele>173</ele>
        <time>2018-07-05T10:29:38Z</time>
      </trkpt>
      <trkpt lat="45.94365" lon="4.72467">
        <ele>173</ele>
        <time>2018-07-05T10:29:39Z</time>
      </trkpt>
      <trkpt lat="45.94363" lon="4.7246">
        <ele>173</ele>
        <time>2018-07-05T10:29:40Z</time>
      </trkpt>
      <trkpt lat="45.94359" lon="4.72453">
        <ele>173</ele>
        <time>2018-07-05T10:29:41Z</time>
      </trkpt>
      <trkpt lat="45.94357" lon="4.72446">
        <ele>173</ele>
        <time>2018-07-05T10:29:42Z</time>
      </trkpt>
      <trkpt lat="45.94351" lon="4.72438">
        <ele>173</ele>
        <time>2018-07-05T10:29:43Z</time>
      </trkpt>
      <trkpt lat="45.94349" lon="4.7243">
        <ele>173</ele>
        <time>2018-07-05T10:29:44Z</time>
      </trkpt>
      <trkpt lat="45.94346" lon="4.72423">
        <ele>173</ele>
        <time>2018-07-05T10:29:45Z</time>
      </trkpt>
      <trkpt lat="45.94343" lon="4.72416">
        <ele>173</ele>
        <time>2018-07-05T10:29:46Z</time>
      </trkpt>
      <trkpt lat="45.94341" lon="4.72409">
        <ele>173</ele>
        <time>2018-07-05T10:29:47Z</time>
      </trkpt>
      <trkpt lat="45.94337" lon="4.72402">
        <ele>173</ele>
        <time>2018-07-05T10:29:48Z</time>
      </trkpt>
      <trkpt lat="45.94334" lon="4.72393">
        <ele>172</ele>
        <time>2018-07-05T10:29:49Z</time>
      </trkpt>
      <trkpt lat="45.9433" lon="4.72386">
        <ele>172</ele>
        <time>2018-07-05T10:29:50Z</time>
      </trkpt>
      <trkpt lat="45.94328" lon="4.72379">
        <ele>172</ele>
        <time>2018-07-05T10:29:51Z</time>
      </trkpt>
      <trkpt lat="45.94324" lon="4.72372">
        <ele>172</ele>
        <time>2018-07-05T10:29:52Z</time>
      </trkpt>
      <trkpt lat="45.94321" lon="4.72366">
        <ele>172</ele>
        <time>2018-07-05T10:29:53Z</time>
      </trkpt>
      <trkpt lat="45.94321" lon="4.7236">
        <ele>172</ele>
        <time>2018-07-05T10:29:54Z</time>
      </trkpt>
      <trkpt lat="45.94318" lon="4.72353">
        <ele>172</ele>
        <time>2018-07-05T10:29:55Z</time>
      </trkpt>
      <trkpt lat="45.94312" lon="4.72348">
        <ele>172</ele>
        <time>2018-07-05T10:29:56Z</time>
      </trkpt>
      <trkpt lat="45.94308" lon="4.72341">
        <ele>172</ele>
        <time>2018-07-05T10:29:57Z</time>
      </trkpt>
      <trkpt lat="45.94304" lon="4.72334">
        <ele>172</ele>
        <time>2018-07-05T10:29:58Z</time>
      </trkpt>
      <trkpt lat="45.94301" lon="4.72325">
        <ele>171</ele>
        <time>2018-07-05T10:29:59Z</time>
      </trkpt>
      <trkpt lat="45.943" lon="4.72315">
        <ele>171</ele>
        <time>2018-07-05T10:30:00Z</time>
      </trkpt>
      <trkpt lat="45.94296" lon="4.72309">
        <ele>171</ele>
        <time>2018-07-05T10:30:01Z</time>
      </trkpt>
      <trkpt lat="45.94293" lon="4.72301">
        <ele>171</ele>
        <time>2018-07-05T10:30:02Z</time>
      </trkpt>
      <trkpt lat="45.9429" lon="4.72295">
        <ele>171</ele>
        <time>2018-07-05T10:30:03Z</time>
      </trkpt>
      <trkpt lat="45.94287" lon="4.72288">
        <ele>171</ele>
        <time>2018-07-05T10:30:04Z</time>
      </trkpt>
      <trkpt lat="45.94285" lon="4.72281">
        <ele>171</ele>
        <time>2018-07-05T10:30:05Z</time>
      </trkpt>
      <trkpt lat="45.94282" lon="4.72275">
        <ele>171</ele>
        <time>2018-07-05T10:30:06Z</time>
      </trkpt>
      <trkpt lat="45.94279" lon="4.7227">
        <ele>171</ele>
        <time>2018-07-05T10:30:07Z</time>
      </trkpt>
      <trkpt lat="45.94272" lon="4.72265">
        <ele>171</ele>
        <time>2018-07-05T10:30:09Z</time>
      </trkpt>
      <trkpt lat="45.94267" lon="4.72266">
        <ele>171</ele>
        <time>2018-07-05T10:30:10Z</time>
      </trkpt>
      <trkpt lat="45.94263" lon="4.72268">
        <ele>171</ele>
        <time>2018-07-05T10:30:11Z</time>
      </trkpt>
      <trkpt lat="45.94258" lon="4.7227">
        <ele>171</ele>
        <time>2018-07-05T10:30:12Z</time>
      </trkpt>
      <trkpt lat="45.94254" lon="4.72273">
        <ele>171</ele>
        <time>2018-07-05T10:30:13Z</time>
      </trkpt>
      <trkpt lat="45.94249" lon="4.72275">
        <ele>171</ele>
        <time>2018-07-05T10:30:14Z</time>
      </trkpt>
      <trkpt lat="45.94244" lon="4.72278">
        <ele>171</ele>
        <time>2018-07-05T10:30:15Z</time>
      </trkpt>
      <trkpt lat="45.94238" lon="4.7228">
        <ele>171</ele>
        <time>2018-07-05T10:30:16Z</time>
      </trkpt>
      <trkpt lat="45.94231" lon="4.72282">
        <ele>171</ele>
        <time>2018-07-05T10:30:17Z</time>
      </trkpt>
      <trkpt lat="45.94226" lon="4.72283">
        <ele>171</ele>
        <time>2018-07-05T10:30:18Z</time>
      </trkpt>
      <trkpt lat="45.94221" lon="4.72284">
        <ele>171</ele>
        <time>2018-07-05T10:30:19Z</time>
      </trkpt>
      <trkpt lat="45.94216" lon="4.72285">
        <ele>171</ele>
        <time>2018-07-05T10:30:20Z</time>
      </trkpt>
      <trkpt lat="45.9421" lon="4.72285">
        <ele>171</ele>
        <time>2018-07-05T10:30:21Z</time>
      </trkpt>
      <trkpt lat="45.94205" lon="4.72285">
        <ele>171</ele>
        <time>2018-07-05T10:30:22Z</time>
      </trkpt>
      <trkpt lat="45.942" lon="4.72284">
        <ele>171</ele>
        <time>2018-07-05T10:30:23Z</time>
      </trkpt>
      <trkpt lat="45.94194" lon="4.72284">
        <ele>171</ele>
        <time>2018-07-05T10:30:24Z</time>
      </trkpt>
      <trkpt lat="45.9419" lon="4.72284">
        <ele>171</ele>
        <time>2018-07-05T10:30:25Z</time>
      </trkpt>
      <trkpt lat="45.94184" lon="4.72283">
        <ele>171</ele>
        <time>2018-07-05T10:30:26Z</time>
      </trkpt>
      <trkpt lat="45.94181" lon="4.72284">
        <ele>171</ele>
        <time>2018-07-05T10:30:27Z</time>
      </trkpt>
      <trkpt lat="45.94175" lon="4.72283">
        <ele>171</ele>
        <time>2018-07-05T10:30:28Z</time>
      </trkpt>
      <trkpt lat="45.9417" lon="4.72282">
        <ele>171</ele>
        <time>2018-07-05T10:30:29Z</time>
      </trkpt>
      <trkpt lat="45.94165" lon="4.72281">
        <ele>171</ele>
        <time>2018-07-05T10:30:30Z</time>
      </trkpt>
      <trkpt lat="45.94159" lon="4.7228">
        <ele>171</ele>
        <time>2018-07-05T10:30:31Z</time>
      </trkpt>
      <trkpt lat="45.94154" lon="4.72278">
        <ele>171</ele>
        <time>2018-07-05T10:30:32Z</time>
      </trkpt>
      <trkpt lat="45.94148" lon="4.72277">
        <ele>171</ele>
        <time>2018-07-05T10:30:33Z</time>
      </trkpt>
      <trkpt lat="45.94144" lon="4.72274">
        <ele>171</ele>
        <time>2018-07-05T10:30:34Z</time>
      </trkpt>
      <trkpt lat="45.9414" lon="4.72272">
        <ele>171</ele>
        <time>2018-07-05T10:30:35Z</time>
      </trkpt>
      <trkpt lat="45.94135" lon="4.7227">
        <ele>171</ele>
        <time>2018-07-05T10:30:36Z</time>
      </trkpt>
      <trkpt lat="45.9413" lon="4.72267">
        <ele>171</ele>
        <time>2018-07-05T10:30:37Z</time>
      </trkpt>
      <trkpt lat="45.94126" lon="4.72265">
        <ele>171</ele>
        <time>2018-07-05T10:30:38Z</time>
      </trkpt>
      <trkpt lat="45.94121" lon="4.72262">
        <ele>171</ele>
        <time>2018-07-05T10:30:39Z</time>
      </trkpt>
      <trkpt lat="45.94116" lon="4.72261">
        <ele>171</ele>
        <time>2018-07-05T10:30:40Z</time>
      </trkpt>
      <trkpt lat="45.94111" lon="4.7226">
        <ele>171</ele>
        <time>2018-07-05T10:30:41Z</time>
      </trkpt>
      <trkpt lat="45.94105" lon="4.72259">
        <ele>171</ele>
        <time>2018-07-05T10:30:42Z</time>
      </trkpt>
      <trkpt lat="45.94099" lon="4.72259">
        <ele>171</ele>
        <time>2018-07-05T10:30:43Z</time>
      </trkpt>
      <trkpt lat="45.94093" lon="4.7226">
        <ele>171</ele>
        <time>2018-07-05T10:30:44Z</time>
      </trkpt>
      <trkpt lat="45.94088" lon="4.72262">
        <ele>171</ele>
        <time>2018-07-05T10:30:45Z</time>
      </trkpt>
      <trkpt lat="45.94084" lon="4.72265">
        <ele>171</ele>
        <time>2018-07-05T10:30:46Z</time>
      </trkpt>
      <trkpt lat="45.94078" lon="4.7227">
        <ele>171</ele>
        <time>2018-07-05T10:30:47Z</time>
      </trkpt>
      <trkpt lat="45.94072" lon="4.72274">
        <ele>171</ele>
        <time>2018-07-05T10:30:48Z</time>
      </trkpt>
      <trkpt lat="45.94066" lon="4.7228">
        <ele>171</ele>
        <time>2018-07-05T10:30:49Z</time>
      </trkpt>
      <trkpt lat="45.94061" lon="4.72285">
        <ele>171</ele>
        <time>2018-07-05T10:30:50Z</time>
      </trkpt>
      <trkpt lat="45.94056" lon="4.72291">
        <ele>171</ele>
        <time>2018-07-05T10:30:51Z</time>
      </trkpt>
      <trkpt lat="45.9405" lon="4.72295">
        <ele>171</ele>
        <time>2018-07-05T10:30:52Z</time>
      </trkpt>
      <trkpt lat="45.94046" lon="4.72301">
        <ele>171</ele>
        <time>2018-07-05T10:30:53Z</time>
      </trkpt>
      <trkpt lat="45.94041" lon="4.72307">
        <ele>171</ele>
        <time>2018-07-05T10:30:54Z</time>
      </trkpt>
      <trkpt lat="45.94036" lon="4.72313">
        <ele>171</ele>
        <time>2018-07-05T10:30:55Z</time>
      </trkpt>
      <trkpt lat="45.94031" lon="4.72317">
        <ele>171</ele>
        <time>2018-07-05T10:30:56Z</time>
      </trkpt>
      <trkpt lat="45.94025" lon="4.7232">
        <ele>171</ele>
        <time>2018-07-05T10:30:57Z</time>
      </trkpt>
      <trkpt lat="45.9402" lon="4.72326">
        <ele>171</ele>
        <time>2018-07-05T10:30:58Z</time>
      </trkpt>
      <trkpt lat="45.94015" lon="4.72333">
        <ele>170</ele>
        <time>2018-07-05T10:30:59Z</time>
      </trkpt>
      <trkpt lat="45.9401" lon="4.72338">
        <ele>170</ele>
        <time>2018-07-05T10:31:00Z</time>
      </trkpt>
      <trkpt lat="45.94005" lon="4.72344">
        <ele>170</ele>
        <time>2018-07-05T10:31:01Z</time>
      </trkpt>
      <trkpt lat="45.94001" lon="4.72356">
        <ele>171</ele>
        <time>2018-07-05T10:31:02Z</time>
      </trkpt>
      <trkpt lat="45.93995" lon="4.72363">
        <ele>171</ele>
        <time>2018-07-05T10:31:03Z</time>
      </trkpt>
      <trkpt lat="45.93993" lon="4.72379">
        <ele>171</ele>
        <time>2018-07-05T10:31:04Z</time>
      </trkpt>
      <trkpt lat="45.93986" lon="4.72383">
        <ele>171</ele>
        <time>2018-07-05T10:31:05Z</time>
      </trkpt>
      <trkpt lat="45.93981" lon="4.7239">
        <ele>171</ele>
        <time>2018-07-05T10:31:06Z</time>
      </trkpt>
      <trkpt lat="45.93976" lon="4.72396">
        <ele>171</ele>
        <time>2018-07-05T10:31:07Z</time>
      </trkpt>
      <trkpt lat="45.9397" lon="4.72398">
        <ele>171</ele>
        <time>2018-07-05T10:31:08Z</time>
      </trkpt>
      <trkpt lat="45.93965" lon="4.72401">
        <ele>171</ele>
        <time>2018-07-05T10:31:09Z</time>
      </trkpt>
      <trkpt lat="45.93959" lon="4.72407">
        <ele>171</ele>
        <time>2018-07-05T10:31:10Z</time>
      </trkpt>
      <trkpt lat="45.93954" lon="4.72412">
        <ele>171</ele>
        <time>2018-07-05T10:31:11Z</time>
      </trkpt>
      <trkpt lat="45.9395" lon="4.72417">
        <ele>171</ele>
        <time>2018-07-05T10:31:12Z</time>
      </trkpt>
      <trkpt lat="45.93946" lon="4.72425">
        <ele>171</ele>
        <time>2018-07-05T10:31:13Z</time>
      </trkpt>
      <trkpt lat="45.93942" lon="4.72432">
        <ele>171</ele>
        <time>2018-07-05T10:31:14Z</time>
      </trkpt>
      <trkpt lat="45.93936" lon="4.72433">
        <ele>171</ele>
        <time>2018-07-05T10:31:15Z</time>
      </trkpt>
      <trkpt lat="45.93932" lon="4.72442">
        <ele>171</ele>
        <time>2018-07-05T10:31:16Z</time>
      </trkpt>
      <trkpt lat="45.93927" lon="4.72447">
        <ele>171</ele>
        <time>2018-07-05T10:31:17Z</time>
      </trkpt>
      <trkpt lat="45.93922" lon="4.72452">
        <ele>171</ele>
        <time>2018-07-05T10:31:18Z</time>
      </trkpt>
      <trkpt lat="45.93918" lon="4.72457">
        <ele>171</ele>
        <time>2018-07-05T10:31:19Z</time>
      </trkpt>
      <trkpt lat="45.93913" lon="4.72462">
        <ele>172</ele>
        <time>2018-07-05T10:31:20Z</time>
      </trkpt>
      <trkpt lat="45.93909" lon="4.72468">
        <ele>172</ele>
        <time>2018-07-05T10:31:21Z</time>
      </trkpt>
      <trkpt lat="45.93904" lon="4.72473">
        <ele>172</ele>
        <time>2018-07-05T10:31:22Z</time>
      </trkpt>
      <trkpt lat="45.939" lon="4.7248">
        <ele>172</ele>
        <time>2018-07-05T10:31:23Z</time>
      </trkpt>
      <trkpt lat="45.93897" lon="4.72484">
        <ele>172</ele>
        <time>2018-07-05T10:31:24Z</time>
      </trkpt>
      <trkpt lat="45.93893" lon="4.7249">
        <ele>172</ele>
        <time>2018-07-05T10:31:25Z</time>
      </trkpt>
      <trkpt lat="45.93887" lon="4.72498">
        <ele>172</ele>
        <time>2018-07-05T10:31:26Z</time>
      </trkpt>
      <trkpt lat="45.93883" lon="4.72503">
        <ele>173</ele>
        <time>2018-07-05T10:31:27Z</time>
      </trkpt>
      <trkpt lat="45.93878" lon="4.72509">
        <ele>173</ele>
        <time>2018-07-05T10:31:28Z</time>
      </trkpt>
      <trkpt lat="45.93873" lon="4.72512">
        <ele>173</ele>
        <time>2018-07-05T10:31:29Z</time>
      </trkpt>
      <trkpt lat="45.93867" lon="4.72511">
        <ele>173</ele>
        <time>2018-07-05T10:31:30Z</time>
      </trkpt>
      <trkpt lat="45.93862" lon="4.7251">
        <ele>173</ele>
        <time>2018-07-05T10:31:31Z</time>
      </trkpt>
      <trkpt lat="45.93857" lon="4.72507">
        <ele>173</ele>
        <time>2018-07-05T10:31:32Z</time>
      </trkpt>
      <trkpt lat="45.93829" lon="4.72483">
        <ele>173</ele>
        <time>2018-07-05T10:31:39Z</time>
      </trkpt>
      <trkpt lat="45.93823" lon="4.72468">
        <ele>172</ele>
        <time>2018-07-05T10:31:40Z</time>
      </trkpt>
      <trkpt lat="45.93818" lon="4.72463">
        <ele>172</ele>
        <time>2018-07-05T10:31:41Z</time>
      </trkpt>
      <trkpt lat="45.93811" lon="4.72457">
        <ele>172</ele>
        <time>2018-07-05T10:31:42Z</time>
      </trkpt>
      <trkpt lat="45.93806" lon="4.72452">
        <ele>172</ele>
        <time>2018-07-05T10:31:43Z</time>
      </trkpt>
      <trkpt lat="45.938" lon="4.72449">
        <ele>172</ele>
        <time>2018-07-05T10:31:44Z</time>
      </trkpt>
      <trkpt lat="45.93797" lon="4.72447">
        <ele>172</ele>
        <time>2018-07-05T10:31:45Z</time>
      </trkpt>
      <trkpt lat="45.93791" lon="4.72444">
        <ele>172</ele>
        <time>2018-07-05T10:31:46Z</time>
      </trkpt>
      <trkpt lat="45.93785" lon="4.72441">
        <ele>172</ele>
        <time>2018-07-05T10:31:47Z</time>
      </trkpt>
      <trkpt lat="45.93781" lon="4.72437">
        <ele>172</ele>
        <time>2018-07-05T10:31:48Z</time>
      </trkpt>
      <trkpt lat="45.93778" lon="4.72433">
        <ele>172</ele>
        <time>2018-07-05T10:31:49Z</time>
      </trkpt>
      <trkpt lat="45.93773" lon="4.7243">
        <ele>171</ele>
        <time>2018-07-05T10:31:50Z</time>
      </trkpt>
      <trkpt lat="45.9377" lon="4.72425">
        <ele>171</ele>
        <time>2018-07-05T10:31:51Z</time>
      </trkpt>
      <trkpt lat="45.93766" lon="4.72422">
        <ele>171</ele>
        <time>2018-07-05T10:31:52Z</time>
      </trkpt>
      <trkpt lat="45.93759" lon="4.72414">
        <ele>171</ele>
        <time>2018-07-05T10:31:54Z</time>
      </trkpt>
      <trkpt lat="45.93755" lon="4.7241">
        <ele>171</ele>
        <time>2018-07-05T10:31:55Z</time>
      </trkpt>
      <trkpt lat="45.9375" lon="4.72406">
        <ele>171</ele>
        <time>2018-07-05T10:31:56Z</time>
      </trkpt>
      <trkpt lat="45.93745" lon="4.72402">
        <ele>171</ele>
        <time>2018-07-05T10:31:57Z</time>
      </trkpt>
      <trkpt lat="45.9374" lon="4.72398">
        <ele>171</ele>
        <time>2018-07-05T10:31:58Z</time>
      </trkpt>
      <trkpt lat="45.93735" lon="4.72394">
        <ele>171</ele>
        <time>2018-07-05T10:31:59Z</time>
      </trkpt>
      <trkpt lat="45.93731" lon="4.72389">
        <ele>171</ele>
        <time>2018-07-05T10:32:00Z</time>
      </trkpt>
      <trkpt lat="45.93727" lon="4.72386">
        <ele>171</ele>
        <time>2018-07-05T10:32:01Z</time>
      </trkpt>
      <trkpt lat="45.93722" lon="4.72379">
        <ele>171</ele>
        <time>2018-07-05T10:32:02Z</time>
      </trkpt>
      <trkpt lat="45.93718" lon="4.72375">
        <ele>172</ele>
        <time>2018-07-05T10:32:03Z</time>
      </trkpt>
      <trkpt lat="45.93713" lon="4.72372">
        <ele>172</ele>
        <time>2018-07-05T10:32:04Z</time>
      </trkpt>
      <trkpt lat="45.93709" lon="4.72368">
        <ele>172</ele>
        <time>2018-07-05T10:32:05Z</time>
      </trkpt>
      <trkpt lat="45.93704" lon="4.72363">
        <ele>171</ele>
        <time>2018-07-05T10:32:06Z</time>
      </trkpt>
      <trkpt lat="45.937" lon="4.72359">
        <ele>171</ele>
        <time>2018-07-05T10:32:07Z</time>
      </trkpt>
      <trkpt lat="45.93695" lon="4.72354">
        <ele>171</ele>
        <time>2018-07-05T10:32:08Z</time>
      </trkpt>
      <trkpt lat="45.93682" lon="4.72339">
        <ele>171</ele>
        <time>2018-07-05T10:32:11Z</time>
      </trkpt>
      <trkpt lat="45.9368" lon="4.72334">
        <ele>171</ele>
        <time>2018-07-05T10:32:12Z</time>
      </trkpt>
      <trkpt lat="45.93675" lon="4.72329">
        <ele>171</ele>
        <time>2018-07-05T10:32:13Z</time>
      </trkpt>
      <trkpt lat="45.93668" lon="4.72322">
        <ele>171</ele>
        <time>2018-07-05T10:32:15Z</time>
      </trkpt>
      <trkpt lat="45.93664" lon="4.72317">
        <ele>172</ele>
        <time>2018-07-05T10:32:16Z</time>
      </trkpt>
      <trkpt lat="45.93658" lon="4.72314">
        <ele>172</ele>
        <time>2018-07-05T10:32:17Z</time>
      </trkpt>
      <trkpt lat="45.93653" lon="4.72309">
        <ele>172</ele>
        <time>2018-07-05T10:32:18Z</time>
      </trkpt>
      <trkpt lat="45.93649" lon="4.72305">
        <ele>172</ele>
        <time>2018-07-05T10:32:19Z</time>
      </trkpt>
      <trkpt lat="45.93644" lon="4.72302">
        <ele>172</ele>
        <time>2018-07-05T10:32:20Z</time>
      </trkpt>
      <trkpt lat="45.93639" lon="4.72299">
        <ele>172</ele>
        <time>2018-07-05T10:32:21Z</time>
      </trkpt>
      <trkpt lat="45.93636" lon="4.72294">
        <ele>172</ele>
        <time>2018-07-05T10:32:22Z</time>
      </trkpt>
      <trkpt lat="45.93631" lon="4.72288">
        <ele>172</ele>
        <time>2018-07-05T10:32:23Z</time>
      </trkpt>
      <trkpt lat="45.93627" lon="4.72283">
        <ele>172</ele>
        <time>2018-07-05T10:32:24Z</time>
      </trkpt>
      <trkpt lat="45.93622" lon="4.72279">
        <ele>172</ele>
        <time>2018-07-05T10:32:25Z</time>
      </trkpt>
      <trkpt lat="45.93618" lon="4.72274">
        <ele>172</ele>
        <time>2018-07-05T10:32:26Z</time>
      </trkpt>
      <trkpt lat="45.93611" lon="4.72266">
        <ele>172</ele>
        <time>2018-07-05T10:32:28Z</time>
      </trkpt>
      <trkpt lat="45.93607" lon="4.72262">
        <ele>173</ele>
        <time>2018-07-05T10:32:29Z</time>
      </trkpt>
      <trkpt lat="45.93602" lon="4.72255">
        <ele>173</ele>
        <time>2018-07-05T10:32:31Z</time>
      </trkpt>
      <trkpt lat="45.93599" lon="4.72252">
        <ele>173</ele>
        <time>2018-07-05T10:32:32Z</time>
      </trkpt>
      <trkpt lat="45.93593" lon="4.72243">
        <ele>173</ele>
        <time>2018-07-05T10:32:34Z</time>
      </trkpt>
      <trkpt lat="45.93589" lon="4.72241">
        <ele>173</ele>
        <time>2018-07-05T10:32:35Z</time>
      </trkpt>
      <trkpt lat="45.93583" lon="4.72234">
        <ele>173</ele>
        <time>2018-07-05T10:32:37Z</time>
      </trkpt>
      <trkpt lat="45.93581" lon="4.7223">
        <ele>173</ele>
        <time>2018-07-05T10:32:38Z</time>
      </trkpt>
      <trkpt lat="45.93573" lon="4.72225">
        <ele>173</ele>
        <time>2018-07-05T10:32:40Z</time>
      </trkpt>
      <trkpt lat="45.93571" lon="4.72224">
        <ele>173</ele>
        <time>2018-07-05T10:32:41Z</time>
      </trkpt>
      <trkpt lat="45.93564" lon="4.72218">
        <ele>173</ele>
        <time>2018-07-05T10:32:45Z</time>
      </trkpt>
      <trkpt lat="45.93563" lon="4.72218">
        <ele>173</ele>
        <time>2018-07-05T10:32:46Z</time>
      </trkpt>
      <trkpt lat="45.93555" lon="4.72214">
        <ele>173</ele>
        <time>2018-07-05T10:32:53Z</time>
      </trkpt>
      <trkpt lat="45.93553" lon="4.72215">
        <ele>173</ele>
        <time>2018-07-05T10:32:54Z</time>
      </trkpt>
      <trkpt lat="45.93547" lon="4.7222">
        <ele>172</ele>
        <time>2018-07-05T10:32:57Z</time>
      </trkpt>
      <trkpt lat="45.93545" lon="4.72223">
        <ele>172</ele>
        <time>2018-07-05T10:32:58Z</time>
      </trkpt>
      <trkpt lat="45.93541" lon="4.72231">
        <ele>172</ele>
        <time>2018-07-05T10:33:00Z</time>
      </trkpt>
      <trkpt lat="45.93539" lon="4.72234">
        <ele>172</ele>
        <time>2018-07-05T10:33:01Z</time>
      </trkpt>
      <trkpt lat="45.93534" lon="4.72246">
        <ele>172</ele>
        <time>2018-07-05T10:33:02Z</time>
      </trkpt>
      <trkpt lat="45.93529" lon="4.72256">
        <ele>172</ele>
        <time>2018-07-05T10:33:04Z</time>
      </trkpt>
      <trkpt lat="45.93525" lon="4.7226">
        <ele>172</ele>
        <time>2018-07-05T10:33:05Z</time>
      </trkpt>
      <trkpt lat="45.93523" lon="4.72265">
        <ele>172</ele>
        <time>2018-07-05T10:33:06Z</time>
      </trkpt>
      <trkpt lat="45.9352" lon="4.72273">
        <ele>172</ele>
        <time>2018-07-05T10:33:07Z</time>
      </trkpt>
      <trkpt lat="45.93517" lon="4.72279">
        <ele>172</ele>
        <time>2018-07-05T10:33:08Z</time>
      </trkpt>
      <trkpt lat="45.93514" lon="4.72286">
        <ele>172</ele>
        <time>2018-07-05T10:33:09Z</time>
      </trkpt>
      <trkpt lat="45.93511" lon="4.72293">
        <ele>172</ele>
        <time>2018-07-05T10:33:10Z</time>
      </trkpt>
      <trkpt lat="45.93507" lon="4.72297">
        <ele>172</ele>
        <time>2018-07-05T10:33:11Z</time>
      </trkpt>
      <trkpt lat="45.93504" lon="4.72305">
        <ele>173</ele>
        <time>2018-07-05T10:33:12Z</time>
      </trkpt>
      <trkpt lat="45.93499" lon="4.72311">
        <ele>173</ele>
        <time>2018-07-05T10:33:13Z</time>
      </trkpt>
      <trkpt lat="45.93493" lon="4.72316">
        <ele>173</ele>
        <time>2018-07-05T10:33:14Z</time>
      </trkpt>
      <trkpt lat="45.93487" lon="4.72322">
        <ele>173</ele>
        <time>2018-07-05T10:33:15Z</time>
      </trkpt>
      <trkpt lat="45.93483" lon="4.72328">
        <ele>173</ele>
        <time>2018-07-05T10:33:16Z</time>
      </trkpt>
      <trkpt lat="45.93478" lon="4.72334">
        <ele>173</ele>
        <time>2018-07-05T10:33:17Z</time>
      </trkpt>
      <trkpt lat="45.93473" lon="4.7234">
        <ele>173</ele>
        <time>2018-07-05T10:33:18Z</time>
      </trkpt>
      <trkpt lat="45.93469" lon="4.72346">
        <ele>173</ele>
        <time>2018-07-05T10:33:19Z</time>
      </trkpt>
      <trkpt lat="45.93464" lon="4.72354">
        <ele>173</ele>
        <time>2018-07-05T10:33:20Z</time>
      </trkpt>
      <trkpt lat="45.9346" lon="4.72359">
        <ele>173</ele>
        <time>2018-07-05T10:33:21Z</time>
      </trkpt>
      <trkpt lat="45.93457" lon="4.72366">
        <ele>173</ele>
        <time>2018-07-05T10:33:22Z</time>
      </trkpt>
      <trkpt lat="45.93453" lon="4.72372">
        <ele>173</ele>
        <time>2018-07-05T10:33:23Z</time>
      </trkpt>
      <trkpt lat="45.93448" lon="4.72375">
        <ele>173</ele>
        <time>2018-07-05T10:33:24Z</time>
      </trkpt>
      <trkpt lat="45.93444" lon="4.72377">
        <ele>173</ele>
        <time>2018-07-05T10:33:25Z</time>
      </trkpt>
      <trkpt lat="45.93439" lon="4.72382">
        <ele>173</ele>
        <time>2018-07-05T10:33:26Z</time>
      </trkpt>
      <trkpt lat="45.93433" lon="4.72387">
        <ele>173</ele>
        <time>2018-07-05T10:33:27Z</time>
      </trkpt>
      <trkpt lat="45.93427" lon="4.72392">
        <ele>173</ele>
        <time>2018-07-05T10:33:28Z</time>
      </trkpt>
      <trkpt lat="45.93421" lon="4.72395">
        <ele>174</ele>
        <time>2018-07-05T10:33:29Z</time>
      </trkpt>
      <trkpt lat="45.93414" lon="4.72402">
        <ele>174</ele>
        <time>2018-07-05T10:33:31Z</time>
      </trkpt>
      <trkpt lat="45.93409" lon="4.72402">
        <ele>174</ele>
        <time>2018-07-05T10:33:32Z</time>
      </trkpt>
      <trkpt lat="45.93403" lon="4.72401">
        <ele>174</ele>
        <time>2018-07-05T10:33:33Z</time>
      </trkpt>
      <trkpt lat="45.93396" lon="4.72402">
        <ele>174</ele>
        <time>2018-07-05T10:33:34Z</time>
      </trkpt>
      <trkpt lat="45.93391" lon="4.72401">
        <ele>174</ele>
        <time>2018-07-05T10:33:35Z</time>
      </trkpt>
      <trkpt lat="45.93386" lon="4.72404">
        <ele>174</ele>
        <time>2018-07-05T10:33:36Z</time>
      </trkpt>
      <trkpt lat="45.93382" lon="4.72414">
        <ele>174</ele>
        <time>2018-07-05T10:33:38Z</time>
      </trkpt>
      <trkpt lat="45.93382" lon="4.72422">
        <ele>173</ele>
        <time>2018-07-05T10:33:39Z</time>
      </trkpt>
      <trkpt lat="45.93384" lon="4.72429">
        <ele>173</ele>
        <time>2018-07-05T10:33:40Z</time>
      </trkpt>
      <trkpt lat="45.93387" lon="4.72436">
        <ele>173</ele>
        <time>2018-07-05T10:33:41Z</time>
      </trkpt>
      <trkpt lat="45.93388" lon="4.72443">
        <ele>173</ele>
        <time>2018-07-05T10:33:42Z</time>
      </trkpt>
      <trkpt lat="45.93387" lon="4.7245">
        <ele>173</ele>
        <time>2018-07-05T10:33:43Z</time>
      </trkpt>
      <trkpt lat="45.93386" lon="4.72456">
        <ele>173</ele>
        <time>2018-07-05T10:33:44Z</time>
      </trkpt>
      <trkpt lat="45.93383" lon="4.72462">
        <ele>173</ele>
        <time>2018-07-05T10:33:45Z</time>
      </trkpt>
      <trkpt lat="45.93381" lon="4.7247">
        <ele>173</ele>
        <time>2018-07-05T10:33:46Z</time>
      </trkpt>
      <trkpt lat="45.93377" lon="4.72474">
        <ele>173</ele>
        <time>2018-07-05T10:33:47Z</time>
      </trkpt>
      <trkpt lat="45.93373" lon="4.72482">
        <ele>173</ele>
        <time>2018-07-05T10:33:48Z</time>
      </trkpt>
      <trkpt lat="45.93369" lon="4.72486">
        <ele>173</ele>
        <time>2018-07-05T10:33:49Z</time>
      </trkpt>
      <trkpt lat="45.93364" lon="4.72492">
        <ele>173</ele>
        <time>2018-07-05T10:33:50Z</time>
      </trkpt>
      <trkpt lat="45.9336" lon="4.72501">
        <ele>172</ele>
        <time>2018-07-05T10:33:51Z</time>
      </trkpt>
      <trkpt lat="45.93356" lon="4.72507">
        <ele>172</ele>
        <time>2018-07-05T10:33:52Z</time>
      </trkpt>
      <trkpt lat="45.9335" lon="4.72513">
        <ele>172</ele>
        <time>2018-07-05T10:33:53Z</time>
      </trkpt>
      <trkpt lat="45.93346" lon="4.72518">
        <ele>172</ele>
        <time>2018-07-05T10:33:54Z</time>
      </trkpt>
      <trkpt lat="45.93342" lon="4.72524">
        <ele>172</ele>
        <time>2018-07-05T10:33:55Z</time>
      </trkpt>
      <trkpt lat="45.93337" lon="4.72528">
        <ele>172</ele>
        <time>2018-07-05T10:33:56Z</time>
      </trkpt>
      <trkpt lat="45.93333" lon="4.72534">
        <ele>172</ele>
        <time>2018-07-05T10:33:57Z</time>
      </trkpt>
      <trkpt lat="45.93328" lon="4.72538">
        <ele>172</ele>
        <time>2018-07-05T10:33:58Z</time>
      </trkpt>
      <trkpt lat="45.93324" lon="4.72543">
        <ele>172</ele>
        <time>2018-07-05T10:33:59Z</time>
      </trkpt>
      <trkpt lat="45.93319" lon="4.72552">
        <ele>172</ele>
        <time>2018-07-05T10:34:00Z</time>
      </trkpt>
      <trkpt lat="45.93314" lon="4.72557">
        <ele>172</ele>
        <time>2018-07-05T10:34:01Z</time>
      </trkpt>
      <trkpt lat="45.9331" lon="4.72562">
        <ele>171</ele>
        <time>2018-07-05T10:34:02Z</time>
      </trkpt>
      <trkpt lat="45.93304" lon="4.72566">
        <ele>171</ele>
        <time>2018-07-05T10:34:03Z</time>
      </trkpt>
      <trkpt lat="45.933" lon="4.72572">
        <ele>171</ele>
        <time>2018-07-05T10:34:04Z</time>
      </trkpt>
      <trkpt lat="45.93296" lon="4.72577">
        <ele>171</ele>
        <time>2018-07-05T10:34:05Z</time>
      </trkpt>
      <trkpt lat="45.93291" lon="4.72582">
        <ele>171</ele>
        <time>2018-07-05T10:34:06Z</time>
      </trkpt>
      <trkpt lat="45.93287" lon="4.72587">
        <ele>170</ele>
        <time>2018-07-05T10:34:07Z</time>
      </trkpt>
      <trkpt lat="45.93282" lon="4.72592">
        <ele>170</ele>
        <time>2018-07-05T10:34:08Z</time>
      </trkpt>
      <trkpt lat="45.93277" lon="4.72599">
        <ele>170</ele>
        <time>2018-07-05T10:34:09Z</time>
      </trkpt>
      <trkpt lat="45.93272" lon="4.72605">
        <ele>170</ele>
        <time>2018-07-05T10:34:10Z</time>
      </trkpt>
      <trkpt lat="45.93266" lon="4.7261">
        <ele>170</ele>
        <time>2018-07-05T10:34:11Z</time>
      </trkpt>
      <trkpt lat="45.93262" lon="4.72615">
        <ele>170</ele>
        <time>2018-07-05T10:34:12Z</time>
      </trkpt>
      <trkpt lat="45.93257" lon="4.72621">
        <ele>170</ele>
        <time>2018-07-05T10:34:13Z</time>
      </trkpt>
      <trkpt lat="45.93252" lon="4.72626">
        <ele>170</ele>
        <time>2018-07-05T10:34:14Z</time>
      </trkpt>
      <trkpt lat="45.93246" lon="4.72631">
        <ele>170</ele>
        <time>2018-07-05T10:34:15Z</time>
      </trkpt>
      <trkpt lat="45.9324" lon="4.72635">
        <ele>170</ele>
        <time>2018-07-05T10:34:16Z</time>
      </trkpt>
      <trkpt lat="45.93234" lon="4.72639">
        <ele>170</ele>
        <time>2018-07-05T10:34:17Z</time>
      </trkpt>
      <trkpt lat="45.9323" lon="4.72645">
        <ele>170</ele>
        <time>2018-07-05T10:34:18Z</time>
      </trkpt>
      <trkpt lat="45.93225" lon="4.7265">
        <ele>170</ele>
        <time>2018-07-05T10:34:19Z</time>
      </trkpt>
      <trkpt lat="45.9322" lon="4.72655">
        <ele>170</ele>
        <time>2018-07-05T10:34:20Z</time>
      </trkpt>
      <trkpt lat="45.93215" lon="4.72661">
        <ele>170</ele>
        <time>2018-07-05T10:34:21Z</time>
      </trkpt>
      <trkpt lat="45.93211" lon="4.72666">
        <ele>170</ele>
        <time>2018-07-05T10:34:22Z</time>
      </trkpt>
      <trkpt lat="45.93208" lon="4.72672">
        <ele>169</ele>
        <time>2018-07-05T10:34:23Z</time>
      </trkpt>
      <trkpt lat="45.93203" lon="4.72679">
        <ele>169</ele>
        <time>2018-07-05T10:34:24Z</time>
      </trkpt>
      <trkpt lat="45.93199" lon="4.72685">
        <ele>169</ele>
        <time>2018-07-05T10:34:25Z</time>
      </trkpt>
      <trkpt lat="45.93193" lon="4.72692">
        <ele>169</ele>
        <time>2018-07-05T10:34:26Z</time>
      </trkpt>
      <trkpt lat="45.93189" lon="4.72698">
        <ele>169</ele>
        <time>2018-07-05T10:34:27Z</time>
      </trkpt>
      <trkpt lat="45.93185" lon="4.72705">
        <ele>169</ele>
        <time>2018-07-05T10:34:28Z</time>
      </trkpt>
      <trkpt lat="45.9318" lon="4.72711">
        <ele>169</ele>
        <time>2018-07-05T10:34:29Z</time>
      </trkpt>
      <trkpt lat="45.93176" lon="4.72717">
        <ele>170</ele>
        <time>2018-07-05T10:34:30Z</time>
      </trkpt>
      <trkpt lat="45.9317" lon="4.72723">
        <ele>170</ele>
        <time>2018-07-05T10:34:31Z</time>
      </trkpt>
      <trkpt lat="45.93166" lon="4.72729">
        <ele>170</ele>
        <time>2018-07-05T10:34:32Z</time>
      </trkpt>
      <trkpt lat="45.9316" lon="4.72734">
        <ele>170</ele>
        <time>2018-07-05T10:34:33Z</time>
      </trkpt>
      <trkpt lat="45.93155" lon="4.72739">
        <ele>170</ele>
        <time>2018-07-05T10:34:34Z</time>
      </trkpt>
      <trkpt lat="45.9315" lon="4.72744">
        <ele>170</ele>
        <time>2018-07-05T10:34:35Z</time>
      </trkpt>
      <trkpt lat="45.93141" lon="4.7275">
        <ele>170</ele>
        <time>2018-07-05T10:34:36Z</time>
      </trkpt>
      <trkpt lat="45.93136" lon="4.72757">
        <ele>171</ele>
        <time>2018-07-05T10:34:37Z</time>
      </trkpt>
      <trkpt lat="45.9313" lon="4.72764">
        <ele>171</ele>
        <time>2018-07-05T10:34:38Z</time>
      </trkpt>
      <trkpt lat="45.93124" lon="4.7277">
        <ele>171</ele>
        <time>2018-07-05T10:34:39Z</time>
      </trkpt>
      <trkpt lat="45.93119" lon="4.72777">
        <ele>171</ele>
        <time>2018-07-05T10:34:40Z</time>
      </trkpt>
      <trkpt lat="45.93114" lon="4.72786">
        <ele>171</ele>
        <time>2018-07-05T10:34:41Z</time>
      </trkpt>
      <trkpt lat="45.9311" lon="4.72792">
        <ele>171</ele>
        <time>2018-07-05T10:34:42Z</time>
      </trkpt>
      <trkpt lat="45.93104" lon="4.72796">
        <ele>171</ele>
        <time>2018-07-05T10:34:43Z</time>
      </trkpt>
      <trkpt lat="45.93099" lon="4.72803">
        <ele>171</ele>
        <time>2018-07-05T10:34:44Z</time>
      </trkpt>
      <trkpt lat="45.93093" lon="4.72809">
        <ele>172</ele>
        <time>2018-07-05T10:34:45Z</time>
      </trkpt>
      <trkpt lat="45.93088" lon="4.72815">
        <ele>172</ele>
        <time>2018-07-05T10:34:46Z</time>
      </trkpt>
      <trkpt lat="45.93083" lon="4.7282">
        <ele>173</ele>
        <time>2018-07-05T10:34:47Z</time>
      </trkpt>
      <trkpt lat="45.93078" lon="4.72826">
        <ele>173</ele>
        <time>2018-07-05T10:34:48Z</time>
      </trkpt>
      <trkpt lat="45.93078" lon="4.72826">
        <ele>173</ele>
        <time>2018-07-05T10:34:49Z</time>
      </trkpt>
      <trkpt lat="45.93061" lon="4.72847">
        <ele>172</ele>
        <time>2018-07-05T10:34:53Z</time>
      </trkpt>
      <trkpt lat="45.93047" lon="4.72847">
        <ele>172</ele>
        <time>2018-07-05T10:34:54Z</time>
      </trkpt>
      <trkpt lat="45.9304" lon="4.72859">
        <ele>172</ele>
        <time>2018-07-05T10:34:55Z</time>
      </trkpt>
      <trkpt lat="45.93035" lon="4.72868">
        <ele>172</ele>
        <time>2018-07-05T10:34:56Z</time>
      </trkpt>
      <trkpt lat="45.9303" lon="4.72873">
        <ele>172</ele>
        <time>2018-07-05T10:34:57Z</time>
      </trkpt>
      <trkpt lat="45.93026" lon="4.72879">
        <ele>172</ele>
        <time>2018-07-05T10:34:58Z</time>
      </trkpt>
      <trkpt lat="45.93021" lon="4.72884">
        <ele>172</ele>
        <time>2018-07-05T10:34:59Z</time>
      </trkpt>
      <trkpt lat="45.93016" lon="4.7289">
        <ele>172</ele>
        <time>2018-07-05T10:35:00Z</time>
      </trkpt>
      <trkpt lat="45.9301" lon="4.72895">
        <ele>172</ele>
        <time>2018-07-05T10:35:01Z</time>
      </trkpt>
      <trkpt lat="45.93005" lon="4.72902">
        <ele>172</ele>
        <time>2018-07-05T10:35:02Z</time>
      </trkpt>
      <trkpt lat="45.93001" lon="4.72908">
        <ele>171</ele>
        <time>2018-07-05T10:35:03Z</time>
      </trkpt>
      <trkpt lat="45.92996" lon="4.72913">
        <ele>171</ele>
        <time>2018-07-05T10:35:04Z</time>
      </trkpt>
      <trkpt lat="45.92992" lon="4.72918">
        <ele>171</ele>
        <time>2018-07-05T10:35:05Z</time>
      </trkpt>
      <trkpt lat="45.92987" lon="4.72924">
        <ele>171</ele>
        <time>2018-07-05T10:35:06Z</time>
      </trkpt>
      <trkpt lat="45.92983" lon="4.72929">
        <ele>171</ele>
        <time>2018-07-05T10:35:07Z</time>
      </trkpt>
      <trkpt lat="45.92978" lon="4.72934">
        <ele>171</ele>
        <time>2018-07-05T10:35:08Z</time>
      </trkpt>
      <trkpt lat="45.92975" lon="4.7294">
        <ele>171</ele>
        <time>2018-07-05T10:35:09Z</time>
      </trkpt>
      <trkpt lat="45.92971" lon="4.72946">
        <ele>171</ele>
        <time>2018-07-05T10:35:10Z</time>
      </trkpt>
      <trkpt lat="45.92965" lon="4.72952">
        <ele>171</ele>
        <time>2018-07-05T10:35:11Z</time>
      </trkpt>
      <trkpt lat="45.92961" lon="4.72958">
        <ele>171</ele>
        <time>2018-07-05T10:35:12Z</time>
      </trkpt>
      <trkpt lat="45.92956" lon="4.72964">
        <ele>171</ele>
        <time>2018-07-05T10:35:13Z</time>
      </trkpt>
      <trkpt lat="45.92952" lon="4.72969">
        <ele>171</ele>
        <time>2018-07-05T10:35:14Z</time>
      </trkpt>
      <trkpt lat="45.92948" lon="4.72975">
        <ele>171</ele>
        <time>2018-07-05T10:35:15Z</time>
      </trkpt>
      <trkpt lat="45.92942" lon="4.7298">
        <ele>171</ele>
        <time>2018-07-05T10:35:16Z</time>
      </trkpt>
      <trkpt lat="45.92937" lon="4.72986">
        <ele>171</ele>
        <time>2018-07-05T10:35:17Z</time>
      </trkpt>
      <trkpt lat="45.92933" lon="4.72991">
        <ele>172</ele>
        <time>2018-07-05T10:35:18Z</time>
      </trkpt>
      <trkpt lat="45.92926" lon="4.72996">
        <ele>172</ele>
        <time>2018-07-05T10:35:19Z</time>
      </trkpt>
      <trkpt lat="45.92921" lon="4.73005">
        <ele>172</ele>
        <time>2018-07-05T10:35:20Z</time>
      </trkpt>
      <trkpt lat="45.92917" lon="4.73012">
        <ele>172</ele>
        <time>2018-07-05T10:35:21Z</time>
      </trkpt>
      <trkpt lat="45.92914" lon="4.73017">
        <ele>172</ele>
        <time>2018-07-05T10:35:22Z</time>
      </trkpt>
      <trkpt lat="45.92909" lon="4.73022">
        <ele>172</ele>
        <time>2018-07-05T10:35:23Z</time>
      </trkpt>
      <trkpt lat="45.92905" lon="4.73027">
        <ele>172</ele>
        <time>2018-07-05T10:35:24Z</time>
      </trkpt>
      <trkpt lat="45.929" lon="4.73032">
        <ele>172</ele>
        <time>2018-07-05T10:35:25Z</time>
      </trkpt>
      <trkpt lat="45.92897" lon="4.73038">
        <ele>172</ele>
        <time>2018-07-05T10:35:26Z</time>
      </trkpt>
      <trkpt lat="45.92894" lon="4.73043">
        <ele>172</ele>
        <time>2018-07-05T10:35:27Z</time>
      </trkpt>
      <trkpt lat="45.92892" lon="4.7305">
        <ele>172</ele>
        <time>2018-07-05T10:35:28Z</time>
      </trkpt>
      <trkpt lat="45.92889" lon="4.73055">
        <ele>172</ele>
        <time>2018-07-05T10:35:29Z</time>
      </trkpt>
      <trkpt lat="45.92886" lon="4.73061">
        <ele>172</ele>
        <time>2018-07-05T10:35:30Z</time>
      </trkpt>
      <trkpt lat="45.92883" lon="4.73066">
        <ele>172</ele>
        <time>2018-07-05T10:35:31Z</time>
      </trkpt>
      <trkpt lat="45.9288" lon="4.73071">
        <ele>172</ele>
        <time>2018-07-05T10:35:32Z</time>
      </trkpt>
      <trkpt lat="45.92878" lon="4.73077">
        <ele>172</ele>
        <time>2018-07-05T10:35:33Z</time>
      </trkpt>
      <trkpt lat="45.92874" lon="4.73086">
        <ele>172</ele>
        <time>2018-07-05T10:35:34Z</time>
      </trkpt>
      <trkpt lat="45.92872" lon="4.73092">
        <ele>172</ele>
        <time>2018-07-05T10:35:35Z</time>
      </trkpt>
      <trkpt lat="45.92868" lon="4.73095">
        <ele>172</ele>
        <time>2018-07-05T10:35:36Z</time>
      </trkpt>
      <trkpt lat="45.92864" lon="4.73099">
        <ele>171</ele>
        <time>2018-07-05T10:35:37Z</time>
      </trkpt>
      <trkpt lat="45.92856" lon="4.73102">
        <ele>171</ele>
        <time>2018-07-05T10:35:40Z</time>
      </trkpt>
      <trkpt lat="45.92853" lon="4.73102">
        <ele>171</ele>
        <time>2018-07-05T10:35:41Z</time>
      </trkpt>
      <trkpt lat="45.92847" lon="4.73093">
        <ele>171</ele>
        <time>2018-07-05T10:35:43Z</time>
      </trkpt>
      <trkpt lat="45.92846" lon="4.73086">
        <ele>171</ele>
        <time>2018-07-05T10:35:44Z</time>
      </trkpt>
      <trkpt lat="45.92845" lon="4.73079">
        <ele>171</ele>
        <time>2018-07-05T10:35:45Z</time>
      </trkpt>
      <trkpt lat="45.92843" lon="4.73073">
        <ele>171</ele>
        <time>2018-07-05T10:35:46Z</time>
      </trkpt>
      <trkpt lat="45.92842" lon="4.73065">
        <ele>171</ele>
        <time>2018-07-05T10:35:47Z</time>
      </trkpt>
      <trkpt lat="45.92841" lon="4.73058">
        <ele>171</ele>
        <time>2018-07-05T10:35:48Z</time>
      </trkpt>
      <trkpt lat="45.9284" lon="4.7305">
        <ele>171</ele>
        <time>2018-07-05T10:35:49Z</time>
      </trkpt>
      <trkpt lat="45.92839" lon="4.73042">
        <ele>171</ele>
        <time>2018-07-05T10:35:50Z</time>
      </trkpt>
      <trkpt lat="45.92838" lon="4.73035">
        <ele>171</ele>
        <time>2018-07-05T10:35:51Z</time>
      </trkpt>
      <trkpt lat="45.92836" lon="4.73025">
        <ele>171</ele>
        <time>2018-07-05T10:35:52Z</time>
      </trkpt>
      <trkpt lat="45.92834" lon="4.73015">
        <ele>171</ele>
        <time>2018-07-05T10:35:53Z</time>
      </trkpt>
      <trkpt lat="45.92833" lon="4.73007">
        <ele>170</ele>
        <time>2018-07-05T10:35:54Z</time>
      </trkpt>
      <trkpt lat="45.92832" lon="4.72998">
        <ele>170</ele>
        <time>2018-07-05T10:35:55Z</time>
      </trkpt>
      <trkpt lat="45.92831" lon="4.7299">
        <ele>170</ele>
        <time>2018-07-05T10:35:56Z</time>
      </trkpt>
      <trkpt lat="45.9283" lon="4.72983">
        <ele>170</ele>
        <time>2018-07-05T10:35:57Z</time>
      </trkpt>
      <trkpt lat="45.92829" lon="4.72974">
        <ele>170</ele>
        <time>2018-07-05T10:35:58Z</time>
      </trkpt>
      <trkpt lat="45.92829" lon="4.72967">
        <ele>170</ele>
        <time>2018-07-05T10:35:59Z</time>
      </trkpt>
      <trkpt lat="45.92826" lon="4.72958">
        <ele>170</ele>
        <time>2018-07-05T10:36:00Z</time>
      </trkpt>
      <trkpt lat="45.92826" lon="4.7295">
        <ele>170</ele>
        <time>2018-07-05T10:36:01Z</time>
      </trkpt>
      <trkpt lat="45.92825" lon="4.72942">
        <ele>170</ele>
        <time>2018-07-05T10:36:02Z</time>
      </trkpt>
      <trkpt lat="45.92824" lon="4.72935">
        <ele>170</ele>
        <time>2018-07-05T10:36:03Z</time>
      </trkpt>
      <trkpt lat="45.92823" lon="4.72927">
        <ele>170</ele>
        <time>2018-07-05T10:36:04Z</time>
      </trkpt>
      <trkpt lat="45.92823" lon="4.72918">
        <ele>170</ele>
        <time>2018-07-05T10:36:05Z</time>
      </trkpt>
      <trkpt lat="45.92822" lon="4.72909">
        <ele>170</ele>
        <time>2018-07-05T10:36:06Z</time>
      </trkpt>
      <trkpt lat="45.92821" lon="4.72901">
        <ele>170</ele>
        <time>2018-07-05T10:36:07Z</time>
      </trkpt>
      <trkpt lat="45.9282" lon="4.72893">
        <ele>170</ele>
        <time>2018-07-05T10:36:08Z</time>
      </trkpt>
      <trkpt lat="45.92819" lon="4.72885">
        <ele>170</ele>
        <time>2018-07-05T10:36:09Z</time>
      </trkpt>
      <trkpt lat="45.92816" lon="4.72877">
        <ele>170</ele>
        <time>2018-07-05T10:36:10Z</time>
      </trkpt>
      <trkpt lat="45.92815" lon="4.7287">
        <ele>170</ele>
        <time>2018-07-05T10:36:11Z</time>
      </trkpt>
      <trkpt lat="45.92813" lon="4.72862">
        <ele>170</ele>
        <time>2018-07-05T10:36:12Z</time>
      </trkpt>
      <trkpt lat="45.92811" lon="4.72855">
        <ele>170</ele>
        <time>2018-07-05T10:36:13Z</time>
      </trkpt>
      <trkpt lat="45.92809" lon="4.72848">
        <ele>170</ele>
        <time>2018-07-05T10:36:14Z</time>
      </trkpt>
      <trkpt lat="45.92808" lon="4.7284">
        <ele>170</ele>
        <time>2018-07-05T10:36:15Z</time>
      </trkpt>
      <trkpt lat="45.92806" lon="4.72832">
        <ele>171</ele>
        <time>2018-07-05T10:36:16Z</time>
      </trkpt>
      <trkpt lat="45.92805" lon="4.72825">
        <ele>171</ele>
        <time>2018-07-05T10:36:17Z</time>
      </trkpt>
      <trkpt lat="45.92803" lon="4.72818">
        <ele>170</ele>
        <time>2018-07-05T10:36:18Z</time>
      </trkpt>
      <trkpt lat="45.92801" lon="4.72811">
        <ele>170</ele>
        <time>2018-07-05T10:36:19Z</time>
      </trkpt>
      <trkpt lat="45.928" lon="4.72804">
        <ele>170</ele>
        <time>2018-07-05T10:36:20Z</time>
      </trkpt>
      <trkpt lat="45.92798" lon="4.72797">
        <ele>171</ele>
        <time>2018-07-05T10:36:21Z</time>
      </trkpt>
      <trkpt lat="45.92796" lon="4.72791">
        <ele>171</ele>
        <time>2018-07-05T10:36:22Z</time>
      </trkpt>
      <trkpt lat="45.92789" lon="4.72783">
        <ele>171</ele>
        <time>2018-07-05T10:36:24Z</time>
      </trkpt>
      <trkpt lat="45.92785" lon="4.72786">
        <ele>171</ele>
        <time>2018-07-05T10:36:25Z</time>
      </trkpt>
      <trkpt lat="45.92778" lon="4.72789">
        <ele>170</ele>
        <time>2018-07-05T10:36:27Z</time>
      </trkpt>
      <trkpt lat="45.92775" lon="4.72792">
        <ele>170</ele>
        <time>2018-07-05T10:36:28Z</time>
      </trkpt>
      <trkpt lat="45.92771" lon="4.72796">
        <ele>170</ele>
        <time>2018-07-05T10:36:29Z</time>
      </trkpt>
      <trkpt lat="45.92767" lon="4.728">
        <ele>170</ele>
        <time>2018-07-05T10:36:30Z</time>
      </trkpt>
      <trkpt lat="45.92761" lon="4.72805">
        <ele>170</ele>
        <time>2018-07-05T10:36:31Z</time>
      </trkpt>
      <trkpt lat="45.92757" lon="4.72811">
        <ele>170</ele>
        <time>2018-07-05T10:36:32Z</time>
      </trkpt>
      <trkpt lat="45.92752" lon="4.72815">
        <ele>170</ele>
        <time>2018-07-05T10:36:33Z</time>
      </trkpt>
      <trkpt lat="45.92748" lon="4.72816">
        <ele>170</ele>
        <time>2018-07-05T10:36:34Z</time>
      </trkpt>
      <trkpt lat="45.92743" lon="4.72821">
        <ele>169</ele>
        <time>2018-07-05T10:36:35Z</time>
      </trkpt>
      <trkpt lat="45.92738" lon="4.72825">
        <ele>169</ele>
        <time>2018-07-05T10:36:36Z</time>
      </trkpt>
      <trkpt lat="45.92733" lon="4.72829">
        <ele>169</ele>
        <time>2018-07-05T10:36:37Z</time>
      </trkpt>
      <trkpt lat="45.92728" lon="4.72832">
        <ele>170</ele>
        <time>2018-07-05T10:36:38Z</time>
      </trkpt>
      <trkpt lat="45.92722" lon="4.72837">
        <ele>169</ele>
        <time>2018-07-05T10:36:39Z</time>
      </trkpt>
      <trkpt lat="45.92717" lon="4.72843">
        <ele>169</ele>
        <time>2018-07-05T10:36:40Z</time>
      </trkpt>
      <trkpt lat="45.92712" lon="4.72847">
        <ele>169</ele>
        <time>2018-07-05T10:36:41Z</time>
      </trkpt>
      <trkpt lat="45.92707" lon="4.72852">
        <ele>169</ele>
        <time>2018-07-05T10:36:42Z</time>
      </trkpt>
      <trkpt lat="45.92702" lon="4.72856">
        <ele>169</ele>
        <time>2018-07-05T10:36:43Z</time>
      </trkpt>
      <trkpt lat="45.92696" lon="4.7286">
        <ele>169</ele>
        <time>2018-07-05T10:36:44Z</time>
      </trkpt>
      <trkpt lat="45.9269" lon="4.72863">
        <ele>169</ele>
        <time>2018-07-05T10:36:45Z</time>
      </trkpt>
      <trkpt lat="45.92685" lon="4.72867">
        <ele>169</ele>
        <time>2018-07-05T10:36:46Z</time>
      </trkpt>
      <trkpt lat="45.92681" lon="4.7287">
        <ele>169</ele>
        <time>2018-07-05T10:36:47Z</time>
      </trkpt>
      <trkpt lat="45.92676" lon="4.72874">
        <ele>169</ele>
        <time>2018-07-05T10:36:48Z</time>
      </trkpt>
      <trkpt lat="45.9267" lon="4.72878">
        <ele>170</ele>
        <time>2018-07-05T10:36:49Z</time>
      </trkpt>
      <trkpt lat="45.92665" lon="4.72882">
        <ele>169</ele>
        <time>2018-07-05T10:36:50Z</time>
      </trkpt>
      <trkpt lat="45.9266" lon="4.72886">
        <ele>169</ele>
        <time>2018-07-05T10:36:51Z</time>
      </trkpt>
      <trkpt lat="45.92654" lon="4.72891">
        <ele>169</ele>
        <time>2018-07-05T10:36:52Z</time>
      </trkpt>
      <trkpt lat="45.9265" lon="4.72896">
        <ele>169</ele>
        <time>2018-07-05T10:36:53Z</time>
      </trkpt>
      <trkpt lat="45.92644" lon="4.729">
        <ele>169</ele>
        <time>2018-07-05T10:36:54Z</time>
      </trkpt>
      <trkpt lat="45.9264" lon="4.72904">
        <ele>169</ele>
        <time>2018-07-05T10:36:55Z</time>
      </trkpt>
      <trkpt lat="45.92633" lon="4.72908">
        <ele>169</ele>
        <time>2018-07-05T10:36:56Z</time>
      </trkpt>
      <trkpt lat="45.92628" lon="4.72912">
        <ele>169</ele>
        <time>2018-07-05T10:36:57Z</time>
      </trkpt>
      <trkpt lat="45.92622" lon="4.72915">
        <ele>169</ele>
        <time>2018-07-05T10:36:58Z</time>
      </trkpt>
      <trkpt lat="45.92618" lon="4.7292">
        <ele>169</ele>
        <time>2018-07-05T10:36:59Z</time>
      </trkpt>
      <trkpt lat="45.92613" lon="4.72925">
        <ele>169</ele>
        <time>2018-07-05T10:37:00Z</time>
      </trkpt>
      <trkpt lat="45.92609" lon="4.7293">
        <ele>169</ele>
        <time>2018-07-05T10:37:01Z</time>
      </trkpt>
      <trkpt lat="45.92603" lon="4.72935">
        <ele>169</ele>
        <time>2018-07-05T10:37:02Z</time>
      </trkpt>
      <trkpt lat="45.92599" lon="4.7294">
        <ele>169</ele>
        <time>2018-07-05T10:37:03Z</time>
      </trkpt>
      <trkpt lat="45.92593" lon="4.72944">
        <ele>169</ele>
        <time>2018-07-05T10:37:04Z</time>
      </trkpt>
      <trkpt lat="45.9259" lon="4.72951">
        <ele>169</ele>
        <time>2018-07-05T10:37:05Z</time>
      </trkpt>
      <trkpt lat="45.92585" lon="4.72957">
        <ele>169</ele>
        <time>2018-07-05T10:37:06Z</time>
      </trkpt>
      <trkpt lat="45.9258" lon="4.72963">
        <ele>169</ele>
        <time>2018-07-05T10:37:07Z</time>
      </trkpt>
      <trkpt lat="45.92575" lon="4.7297">
        <ele>169</ele>
        <time>2018-07-05T10:37:08Z</time>
      </trkpt>
      <trkpt lat="45.9257" lon="4.72976">
        <ele>169</ele>
        <time>2018-07-05T10:37:09Z</time>
      </trkpt>
      <trkpt lat="45.92562" lon="4.72979">
        <ele>169</ele>
        <time>2018-07-05T10:37:10Z</time>
      </trkpt>
      <trkpt lat="45.92556" lon="4.72985">
        <ele>169</ele>
        <time>2018-07-05T10:37:11Z</time>
      </trkpt>
      <trkpt lat="45.9255" lon="4.7299">
        <ele>169</ele>
        <time>2018-07-05T10:37:12Z</time>
      </trkpt>
      <trkpt lat="45.92545" lon="4.72995">
        <ele>169</ele>
        <time>2018-07-05T10:37:13Z</time>
      </trkpt>
      <trkpt lat="45.92539" lon="4.73">
        <ele>169</ele>
        <time>2018-07-05T10:37:14Z</time>
      </trkpt>
      <trkpt lat="45.92535" lon="4.73008">
        <ele>169</ele>
        <time>2018-07-05T10:37:15Z</time>
      </trkpt>
      <trkpt lat="45.92529" lon="4.73013">
        <ele>169</ele>
        <time>2018-07-05T10:37:16Z</time>
      </trkpt>
      <trkpt lat="45.92524" lon="4.73018">
        <ele>169</ele>
        <time>2018-07-05T10:37:17Z</time>
      </trkpt>
      <trkpt lat="45.9252" lon="4.73024">
        <ele>169</ele>
        <time>2018-07-05T10:37:18Z</time>
      </trkpt>
      <trkpt lat="45.92514" lon="4.73028">
        <ele>169</ele>
        <time>2018-07-05T10:37:19Z</time>
      </trkpt>
      <trkpt lat="45.92508" lon="4.73033">
        <ele>169</ele>
        <time>2018-07-05T10:37:20Z</time>
      </trkpt>
      <trkpt lat="45.92503" lon="4.73038">
        <ele>169</ele>
        <time>2018-07-05T10:37:21Z</time>
      </trkpt>
      <trkpt lat="45.92497" lon="4.73045">
        <ele>170</ele>
        <time>2018-07-05T10:37:22Z</time>
      </trkpt>
      <trkpt lat="45.92491" lon="4.73049">
        <ele>170</ele>
        <time>2018-07-05T10:37:23Z</time>
      </trkpt>
      <trkpt lat="45.92485" lon="4.73054">
        <ele>170</ele>
        <time>2018-07-05T10:37:24Z</time>
      </trkpt>
      <trkpt lat="45.9248" lon="4.73059">
        <ele>170</ele>
        <time>2018-07-05T10:37:25Z</time>
      </trkpt>
      <trkpt lat="45.92474" lon="4.73064">
        <ele>170</ele>
        <time>2018-07-05T10:37:26Z</time>
      </trkpt>
      <trkpt lat="45.92469" lon="4.73068">
        <ele>170</ele>
        <time>2018-07-05T10:37:27Z</time>
      </trkpt>
      <trkpt lat="45.92463" lon="4.73072">
        <ele>170</ele>
        <time>2018-07-05T10:37:28Z</time>
      </trkpt>
      <trkpt lat="45.92458" lon="4.73077">
        <ele>170</ele>
        <time>2018-07-05T10:37:29Z</time>
      </trkpt>
      <trkpt lat="45.92454" lon="4.73083">
        <ele>170</ele>
        <time>2018-07-05T10:37:30Z</time>
      </trkpt>
      <trkpt lat="45.92449" lon="4.73088">
        <ele>170</ele>
        <time>2018-07-05T10:37:31Z</time>
      </trkpt>
      <trkpt lat="45.92444" lon="4.73091">
        <ele>170</ele>
        <time>2018-07-05T10:37:32Z</time>
      </trkpt>
      <trkpt lat="45.92439" lon="4.73095">
        <ele>170</ele>
        <time>2018-07-05T10:37:33Z</time>
      </trkpt>
      <trkpt lat="45.92434" lon="4.73099">
        <ele>171</ele>
        <time>2018-07-05T10:37:34Z</time>
      </trkpt>
      <trkpt lat="45.92429" lon="4.73102">
        <ele>171</ele>
        <time>2018-07-05T10:37:35Z</time>
      </trkpt>
      <trkpt lat="45.92425" lon="4.73106">
        <ele>171</ele>
        <time>2018-07-05T10:37:36Z</time>
      </trkpt>
      <trkpt lat="45.92421" lon="4.7311">
        <ele>170</ele>
        <time>2018-07-05T10:37:37Z</time>
      </trkpt>
      <trkpt lat="45.92417" lon="4.73114">
        <ele>170</ele>
        <time>2018-07-05T10:37:38Z</time>
      </trkpt>
      <trkpt lat="45.92414" lon="4.7312">
        <ele>171</ele>
        <time>2018-07-05T10:37:39Z</time>
      </trkpt>
      <trkpt lat="45.9241" lon="4.73125">
        <ele>171</ele>
        <time>2018-07-05T10:37:40Z</time>
      </trkpt>
      <trkpt lat="45.92407" lon="4.73132">
        <ele>171</ele>
        <time>2018-07-05T10:37:41Z</time>
      </trkpt>
      <trkpt lat="45.92406" lon="4.73139">
        <ele>171</ele>
        <time>2018-07-05T10:37:42Z</time>
      </trkpt>
      <trkpt lat="45.92406" lon="4.73152">
        <ele>171</ele>
        <time>2018-07-05T10:37:44Z</time>
      </trkpt>
      <trkpt lat="45.92406" lon="4.73158">
        <ele>170</ele>
        <time>2018-07-05T10:37:45Z</time>
      </trkpt>
      <trkpt lat="45.92406" lon="4.73165">
        <ele>170</ele>
        <time>2018-07-05T10:37:46Z</time>
      </trkpt>
      <trkpt lat="45.92407" lon="4.73172">
        <ele>170</ele>
        <time>2018-07-05T10:37:47Z</time>
      </trkpt>
      <trkpt lat="45.92408" lon="4.73182">
        <ele>171</ele>
        <time>2018-07-05T10:37:48Z</time>
      </trkpt>
      <trkpt lat="45.92408" lon="4.73189">
        <ele>171</ele>
        <time>2018-07-05T10:37:49Z</time>
      </trkpt>
      <trkpt lat="45.92408" lon="4.73196">
        <ele>171</ele>
        <time>2018-07-05T10:37:50Z</time>
      </trkpt>
      <trkpt lat="45.92408" lon="4.73205">
        <ele>171</ele>
        <time>2018-07-05T10:37:51Z</time>
      </trkpt>
      <trkpt lat="45.92408" lon="4.73213">
        <ele>171</ele>
        <time>2018-07-05T10:37:52Z</time>
      </trkpt>
      <trkpt lat="45.92408" lon="4.73221">
        <ele>171</ele>
        <time>2018-07-05T10:37:53Z</time>
      </trkpt>
      <trkpt lat="45.92408" lon="4.7323">
        <ele>171</ele>
        <time>2018-07-05T10:37:54Z</time>
      </trkpt>
      <trkpt lat="45.92408" lon="4.73237">
        <ele>171</ele>
        <time>2018-07-05T10:37:55Z</time>
      </trkpt>
      <trkpt lat="45.92409" lon="4.73246">
        <ele>171</ele>
        <time>2018-07-05T10:37:56Z</time>
      </trkpt>
      <trkpt lat="45.92409" lon="4.73255">
        <ele>171</ele>
        <time>2018-07-05T10:37:57Z</time>
      </trkpt>
      <trkpt lat="45.9241" lon="4.73264">
        <ele>171</ele>
        <time>2018-07-05T10:37:58Z</time>
      </trkpt>
      <trkpt lat="45.9241" lon="4.73273">
        <ele>171</ele>
        <time>2018-07-05T10:37:59Z</time>
      </trkpt>
      <trkpt lat="45.92411" lon="4.73281">
        <ele>171</ele>
        <time>2018-07-05T10:38:00Z</time>
      </trkpt>
      <trkpt lat="45.92411" lon="4.73289">
        <ele>171</ele>
        <time>2018-07-05T10:38:01Z</time>
      </trkpt>
      <trkpt lat="45.92412" lon="4.73297">
        <ele>171</ele>
        <time>2018-07-05T10:38:02Z</time>
      </trkpt>
      <trkpt lat="45.92412" lon="4.73306">
        <ele>171</ele>
        <time>2018-07-05T10:38:03Z</time>
      </trkpt>
      <trkpt lat="45.92412" lon="4.73315">
        <ele>171</ele>
        <time>2018-07-05T10:38:04Z</time>
      </trkpt>
      <trkpt lat="45.92413" lon="4.73323">
        <ele>171</ele>
        <time>2018-07-05T10:38:05Z</time>
      </trkpt>
      <trkpt lat="45.92413" lon="4.73332">
        <ele>171</ele>
        <time>2018-07-05T10:38:06Z</time>
      </trkpt>
      <trkpt lat="45.92415" lon="4.73341">
        <ele>171</ele>
        <time>2018-07-05T10:38:07Z</time>
      </trkpt>
      <trkpt lat="45.92417" lon="4.7335">
        <ele>171</ele>
        <time>2018-07-05T10:38:08Z</time>
      </trkpt>
      <trkpt lat="45.92418" lon="4.73359">
        <ele>171</ele>
        <time>2018-07-05T10:38:09Z</time>
      </trkpt>
      <trkpt lat="45.92419" lon="4.73367">
        <ele>172</ele>
        <time>2018-07-05T10:38:10Z</time>
      </trkpt>
      <trkpt lat="45.9242" lon="4.73376">
        <ele>172</ele>
        <time>2018-07-05T10:38:11Z</time>
      </trkpt>
      <trkpt lat="45.92423" lon="4.73385">
        <ele>172</ele>
        <time>2018-07-05T10:38:12Z</time>
      </trkpt>
      <trkpt lat="45.92425" lon="4.73393">
        <ele>172</ele>
        <time>2018-07-05T10:38:13Z</time>
      </trkpt>
      <trkpt lat="45.92429" lon="4.734">
        <ele>172</ele>
        <time>2018-07-05T10:38:14Z</time>
      </trkpt>
      <trkpt lat="45.92432" lon="4.73407">
        <ele>172</ele>
        <time>2018-07-05T10:38:15Z</time>
      </trkpt>
      <trkpt lat="45.92436" lon="4.73413">
        <ele>172</ele>
        <time>2018-07-05T10:38:16Z</time>
      </trkpt>
      <trkpt lat="45.92441" lon="4.73417">
        <ele>172</ele>
        <time>2018-07-05T10:38:17Z</time>
      </trkpt>
      <trkpt lat="45.92446" lon="4.73421">
        <ele>173</ele>
        <time>2018-07-05T10:38:18Z</time>
      </trkpt>
      <trkpt lat="45.92451" lon="4.73425">
        <ele>173</ele>
        <time>2018-07-05T10:38:19Z</time>
      </trkpt>
      <trkpt lat="45.92456" lon="4.73429">
        <ele>173</ele>
        <time>2018-07-05T10:38:20Z</time>
      </trkpt>
      <trkpt lat="45.92461" lon="4.73433">
        <ele>173</ele>
        <time>2018-07-05T10:38:21Z</time>
      </trkpt>
      <trkpt lat="45.92463" lon="4.73441">
        <ele>173</ele>
        <time>2018-07-05T10:38:22Z</time>
      </trkpt>
      <trkpt lat="45.92467" lon="4.73448">
        <ele>173</ele>
        <time>2018-07-05T10:38:23Z</time>
      </trkpt>
      <trkpt lat="45.92471" lon="4.73454">
        <ele>173</ele>
        <time>2018-07-05T10:38:24Z</time>
      </trkpt>
      <trkpt lat="45.92467" lon="4.73464">
        <ele>173</ele>
        <time>2018-07-05T10:38:25Z</time>
      </trkpt>
      <trkpt lat="45.92465" lon="4.73471">
        <ele>173</ele>
        <time>2018-07-05T10:38:26Z</time>
      </trkpt>
      <trkpt lat="45.92469" lon="4.73478">
        <ele>173</ele>
        <time>2018-07-05T10:38:27Z</time>
      </trkpt>
      <trkpt lat="45.92466" lon="4.73487">
        <ele>173</ele>
        <time>2018-07-05T10:38:28Z</time>
      </trkpt>
      <trkpt lat="45.92466" lon="4.73495">
        <ele>173</ele>
        <time>2018-07-05T10:38:29Z</time>
      </trkpt>
      <trkpt lat="45.92465" lon="4.73502">
        <ele>174</ele>
        <time>2018-07-05T10:38:30Z</time>
      </trkpt>
      <trkpt lat="45.92465" lon="4.7351">
        <ele>174</ele>
        <time>2018-07-05T10:38:31Z</time>
      </trkpt>
      <trkpt lat="45.92465" lon="4.73516">
        <ele>174</ele>
        <time>2018-07-05T10:38:32Z</time>
      </trkpt>
      <trkpt lat="45.92464" lon="4.73524">
        <ele>174</ele>
        <time>2018-07-05T10:38:33Z</time>
      </trkpt>
      <trkpt lat="45.92463" lon="4.73532">
        <ele>174</ele>
        <time>2018-07-05T10:38:34Z</time>
      </trkpt>
      <trkpt lat="45.92463" lon="4.7354">
        <ele>174</ele>
        <time>2018-07-05T10:38:35Z</time>
      </trkpt>
      <trkpt lat="45.92463" lon="4.73547">
        <ele>173</ele>
        <time>2018-07-05T10:38:36Z</time>
      </trkpt>
      <trkpt lat="45.92462" lon="4.73554">
        <ele>173</ele>
        <time>2018-07-05T10:38:37Z</time>
      </trkpt>
      <trkpt lat="45.92461" lon="4.73562">
        <ele>173</ele>
        <time>2018-07-05T10:38:38Z</time>
      </trkpt>
      <trkpt lat="45.92462" lon="4.73571">
        <ele>173</ele>
        <time>2018-07-05T10:38:39Z</time>
      </trkpt>
      <trkpt lat="45.92462" lon="4.7358">
        <ele>173</ele>
        <time>2018-07-05T10:38:40Z</time>
      </trkpt>
      <trkpt lat="45.92463" lon="4.7359">
        <ele>174</ele>
        <time>2018-07-05T10:38:41Z</time>
      </trkpt>
      <trkpt lat="45.92464" lon="4.736">
        <ele>174</ele>
        <time>2018-07-05T10:38:42Z</time>
      </trkpt>
      <trkpt lat="45.92465" lon="4.73608">
        <ele>174</ele>
        <time>2018-07-05T10:38:43Z</time>
      </trkpt>
      <trkpt lat="45.92466" lon="4.73617">
        <ele>174</ele>
        <time>2018-07-05T10:38:44Z</time>
      </trkpt>
      <trkpt lat="45.92466" lon="4.73626">
        <ele>174</ele>
        <time>2018-07-05T10:38:45Z</time>
      </trkpt>
      <trkpt lat="45.92466" lon="4.73635">
        <ele>174</ele>
        <time>2018-07-05T10:38:46Z</time>
      </trkpt>
      <trkpt lat="45.92467" lon="4.73644">
        <ele>174</ele>
        <time>2018-07-05T10:38:47Z</time>
      </trkpt>
      <trkpt lat="45.92467" lon="4.73653">
        <ele>174</ele>
        <time>2018-07-05T10:38:48Z</time>
      </trkpt>
      <trkpt lat="45.92467" lon="4.7366">
        <ele>174</ele>
        <time>2018-07-05T10:38:49Z</time>
      </trkpt>
      <trkpt lat="45.92466" lon="4.73669">
        <ele>174</ele>
        <time>2018-07-05T10:38:50Z</time>
      </trkpt>
      <trkpt lat="45.92465" lon="4.73677">
        <ele>174</ele>
        <time>2018-07-05T10:38:51Z</time>
      </trkpt>
      <trkpt lat="45.92464" lon="4.73684">
        <ele>174</ele>
        <time>2018-07-05T10:38:52Z</time>
      </trkpt>
      <trkpt lat="45.92463" lon="4.7369">
        <ele>174</ele>
        <time>2018-07-05T10:38:53Z</time>
      </trkpt>
      <trkpt lat="45.92462" lon="4.73701">
        <ele>174</ele>
        <time>2018-07-05T10:38:56Z</time>
      </trkpt>
      <trkpt lat="45.92462" lon="4.73703">
        <ele>174</ele>
        <time>2018-07-05T10:38:57Z</time>
      </trkpt>
      <trkpt lat="45.92461" lon="4.73706">
        <ele>174</ele>
        <time>2018-07-05T10:39:45.234Z</time>
      </trkpt>
    </trkseg>
  </trk>
</gpx>